<?xml version="1.0" encoding="utf-8"?>
<gpx xmlns:xsi="http://www.w3.org/2001/XMLSchema-instance" xmlns:xsd="http://www.w3.org/2001/XMLSchema" version="1.1" creator="Shapelink.com" xmlns="http://www.topografix.com/GPX/1/1" xmlns:gpxtpx="http://www.garmin.com/xmlschemas/TrackPointExtension/v1">
  <metadata>
    <name>Sykling 53.29 km, 2013-05-09</name>
    <desc></desc>
    <author><name>Mikael Blom</name></author> 
    <time>2013-05-09T16:59:16Z</time>
  </metadata>
  <trk>
    <name>Sykling 53.29 km, 2013-05-09</name>
    <trkseg>
      <trkpt lat="59.978778" lon="17.7392915">
        <ele>47.2418</ele>
        <time>2013-05-09T16:59:16Z</time>
      </trkpt>
      <trkpt lat="59.9787483" lon="17.7393004">
        <ele>46.7612</ele>
        <time>2013-05-09T16:59:17Z</time>
      </trkpt>
      <trkpt lat="59.9787163" lon="17.7393051">
        <ele>46.2806</ele>
        <time>2013-05-09T16:59:18Z</time>
      </trkpt>
      <trkpt lat="59.9786831" lon="17.739301">
        <ele>46.2806</ele>
        <time>2013-05-09T16:59:19Z</time>
      </trkpt>
      <trkpt lat="59.9786517" lon="17.7392922">
        <ele>45.7999</ele>
        <time>2013-05-09T16:59:20Z</time>
      </trkpt>
      <trkpt lat="59.9786201" lon="17.7392807">
        <ele>45.7999</ele>
        <time>2013-05-09T16:59:21Z</time>
      </trkpt>
      <trkpt lat="59.9785869" lon="17.739273">
        <ele>45.3192</ele>
        <time>2013-05-09T16:59:22Z</time>
      </trkpt>
      <trkpt lat="59.9785556" lon="17.7392734">
        <ele>45.3192</ele>
        <time>2013-05-09T16:59:23Z</time>
      </trkpt>
      <trkpt lat="59.9785233" lon="17.7392709">
        <ele>45.3192</ele>
        <time>2013-05-09T16:59:24Z</time>
      </trkpt>
      <trkpt lat="59.9784914" lon="17.7392627">
        <ele>45.3192</ele>
        <time>2013-05-09T16:59:25Z</time>
      </trkpt>
      <trkpt lat="59.9784579" lon="17.7392543">
        <ele>45.3192</ele>
        <time>2013-05-09T16:59:26Z</time>
      </trkpt>
      <trkpt lat="59.9784253" lon="17.7392467">
        <ele>45.3192</ele>
        <time>2013-05-09T16:59:27Z</time>
      </trkpt>
      <trkpt lat="59.9783931" lon="17.7392422">
        <ele>45.3192</ele>
        <time>2013-05-09T16:59:28Z</time>
      </trkpt>
      <trkpt lat="59.978358" lon="17.7392404">
        <ele>44.8386</ele>
        <time>2013-05-09T16:59:29Z</time>
      </trkpt>
      <trkpt lat="59.97832" lon="17.7392377">
        <ele>44.8386</ele>
        <time>2013-05-09T16:59:30Z</time>
      </trkpt>
      <trkpt lat="59.9782782" lon="17.739231">
        <ele>44.8386</ele>
        <time>2013-05-09T16:59:31Z</time>
      </trkpt>
      <trkpt lat="59.9782326" lon="17.7392212">
        <ele>44.8386</ele>
        <time>2013-05-09T16:59:32Z</time>
      </trkpt>
      <trkpt lat="59.9781835" lon="17.7392117">
        <ele>44.8386</ele>
        <time>2013-05-09T16:59:33Z</time>
      </trkpt>
      <trkpt lat="59.9781322" lon="17.739199">
        <ele>44.8386</ele>
        <time>2013-05-09T16:59:34Z</time>
      </trkpt>
      <trkpt lat="59.9780788" lon="17.7391787">
        <ele>44.8386</ele>
        <time>2013-05-09T16:59:35Z</time>
      </trkpt>
      <trkpt lat="59.9780252" lon="17.7391441">
        <ele>44.8386</ele>
        <time>2013-05-09T16:59:36Z</time>
      </trkpt>
      <trkpt lat="59.9779708" lon="17.7391045">
        <ele>44.8386</ele>
        <time>2013-05-09T16:59:37Z</time>
      </trkpt>
      <trkpt lat="59.9779151" lon="17.7390636">
        <ele>44.8386</ele>
        <time>2013-05-09T16:59:38Z</time>
      </trkpt>
      <trkpt lat="59.9778559" lon="17.73903">
        <ele>44.8386</ele>
        <time>2013-05-09T16:59:39Z</time>
      </trkpt>
      <trkpt lat="59.9777943" lon="17.7390063">
        <ele>44.358</ele>
        <time>2013-05-09T16:59:40Z</time>
      </trkpt>
      <trkpt lat="59.977731" lon="17.7389921">
        <ele>44.358</ele>
        <time>2013-05-09T16:59:41Z</time>
      </trkpt>
      <trkpt lat="59.9776659" lon="17.7389876">
        <ele>43.8773</ele>
        <time>2013-05-09T16:59:42Z</time>
      </trkpt>
      <trkpt lat="59.9775989" lon="17.7389912">
        <ele>43.8773</ele>
        <time>2013-05-09T16:59:43Z</time>
      </trkpt>
      <trkpt lat="59.9775285" lon="17.7390013">
        <ele>43.3966</ele>
        <time>2013-05-09T16:59:44Z</time>
      </trkpt>
      <trkpt lat="59.977455" lon="17.7390218">
        <ele>42.916</ele>
        <time>2013-05-09T16:59:45Z</time>
      </trkpt>
      <trkpt lat="59.9773795" lon="17.7390552">
        <ele>41.9547</ele>
        <time>2013-05-09T16:59:46Z</time>
      </trkpt>
      <trkpt lat="59.9773039" lon="17.7390998">
        <ele>41.474</ele>
        <time>2013-05-09T16:59:47Z</time>
      </trkpt>
      <trkpt lat="59.9772251" lon="17.7391454">
        <ele>40.5128</ele>
        <time>2013-05-09T16:59:48Z</time>
      </trkpt>
      <trkpt lat="59.9771437" lon="17.73919">
        <ele>40.0321</ele>
        <time>2013-05-09T16:59:49Z</time>
      </trkpt>
      <trkpt lat="59.9770604" lon="17.7392355">
        <ele>39.0707</ele>
        <time>2013-05-09T16:59:50Z</time>
      </trkpt>
      <trkpt lat="59.9769776" lon="17.7392783">
        <ele>38.1094</ele>
        <time>2013-05-09T16:59:51Z</time>
      </trkpt>
      <trkpt lat="59.9768962" lon="17.7393169">
        <ele>37.6287</ele>
        <time>2013-05-09T16:59:52Z</time>
      </trkpt>
      <trkpt lat="59.9768156" lon="17.7393485">
        <ele>37.1481</ele>
        <time>2013-05-09T16:59:53Z</time>
      </trkpt>
      <trkpt lat="59.9767341" lon="17.7393849">
        <ele>36.1868</ele>
        <time>2013-05-09T16:59:54Z</time>
      </trkpt>
      <trkpt lat="59.9766536" lon="17.7394308">
        <ele>35.7061</ele>
        <time>2013-05-09T16:59:55Z</time>
      </trkpt>
      <trkpt lat="59.9765764" lon="17.73949">
        <ele>35.2255</ele>
        <time>2013-05-09T16:59:56Z</time>
      </trkpt>
      <trkpt lat="59.9764994" lon="17.7395684">
        <ele>35.2255</ele>
        <time>2013-05-09T16:59:57Z</time>
      </trkpt>
      <trkpt lat="59.9764279" lon="17.7396584">
        <ele>34.7449</ele>
        <time>2013-05-09T16:59:58Z</time>
      </trkpt>
      <trkpt lat="59.976362" lon="17.7397366">
        <ele>34.2642</ele>
        <time>2013-05-09T16:59:59Z</time>
      </trkpt>
      <trkpt lat="59.9762952" lon="17.7397795">
        <ele>33.7834</ele>
        <time>2013-05-09T17:00:00Z</time>
      </trkpt>
      <trkpt lat="59.9762237" lon="17.7397763">
        <ele>33.7834</ele>
        <time>2013-05-09T17:00:01Z</time>
      </trkpt>
      <trkpt lat="59.9761562" lon="17.7397269">
        <ele>32.8223</ele>
        <time>2013-05-09T17:00:02Z</time>
      </trkpt>
      <trkpt lat="59.9760943" lon="17.7396403">
        <ele>32.3416</ele>
        <time>2013-05-09T17:00:03Z</time>
      </trkpt>
      <trkpt lat="59.9760404" lon="17.7395284">
        <ele>31.8607</ele>
        <time>2013-05-09T17:00:04Z</time>
      </trkpt>
      <trkpt lat="59.9759868" lon="17.7394072">
        <ele>31.3801</ele>
        <time>2013-05-09T17:00:05Z</time>
      </trkpt>
      <trkpt lat="59.9759268" lon="17.739288">
        <ele>30.8995</ele>
        <time>2013-05-09T17:00:06Z</time>
      </trkpt>
      <trkpt lat="59.9758652" lon="17.7391685">
        <ele>30.4188</ele>
        <time>2013-05-09T17:00:07Z</time>
      </trkpt>
      <trkpt lat="59.9757989" lon="17.7390486">
        <ele>29.9381</ele>
        <time>2013-05-09T17:00:08Z</time>
      </trkpt>
      <trkpt lat="59.9757312" lon="17.7389299">
        <ele>29.4575</ele>
        <time>2013-05-09T17:00:09Z</time>
      </trkpt>
      <trkpt lat="59.9756648" lon="17.7388092">
        <ele>28.9769</ele>
        <time>2013-05-09T17:00:10Z</time>
      </trkpt>
      <trkpt lat="59.975598" lon="17.7386882">
        <ele>28.9769</ele>
        <time>2013-05-09T17:00:11Z</time>
      </trkpt>
      <trkpt lat="59.9755318" lon="17.7385705">
        <ele>28.4962</ele>
        <time>2013-05-09T17:00:12Z</time>
      </trkpt>
      <trkpt lat="59.9754669" lon="17.7384566">
        <ele>28.4962</ele>
        <time>2013-05-09T17:00:13Z</time>
      </trkpt>
      <trkpt lat="59.9754041" lon="17.7383451">
        <ele>28.4962</ele>
        <time>2013-05-09T17:00:14Z</time>
      </trkpt>
      <trkpt lat="59.9753426" lon="17.7382353">
        <ele>28.0155</ele>
        <time>2013-05-09T17:00:15Z</time>
      </trkpt>
      <trkpt lat="59.975282" lon="17.7381266">
        <ele>28.0155</ele>
        <time>2013-05-09T17:00:16Z</time>
      </trkpt>
      <trkpt lat="59.9752223" lon="17.7380197">
        <ele>28.0155</ele>
        <time>2013-05-09T17:00:17Z</time>
      </trkpt>
      <trkpt lat="59.9751629" lon="17.7379143">
        <ele>28.0155</ele>
        <time>2013-05-09T17:00:18Z</time>
      </trkpt>
      <trkpt lat="59.9751045" lon="17.7378086">
        <ele>28.0155</ele>
        <time>2013-05-09T17:00:19Z</time>
      </trkpt>
      <trkpt lat="59.9750479" lon="17.7376994">
        <ele>27.5349</ele>
        <time>2013-05-09T17:00:20Z</time>
      </trkpt>
      <trkpt lat="59.9749921" lon="17.7375896">
        <ele>27.5349</ele>
        <time>2013-05-09T17:00:21Z</time>
      </trkpt>
      <trkpt lat="59.974936" lon="17.7374807">
        <ele>27.5349</ele>
        <time>2013-05-09T17:00:22Z</time>
      </trkpt>
      <trkpt lat="59.9748812" lon="17.7373694">
        <ele>27.0543</ele>
        <time>2013-05-09T17:00:23Z</time>
      </trkpt>
      <trkpt lat="59.9748293" lon="17.7372516">
        <ele>27.0543</ele>
        <time>2013-05-09T17:00:24Z</time>
      </trkpt>
      <trkpt lat="59.9747816" lon="17.7371285">
        <ele>26.5736</ele>
        <time>2013-05-09T17:00:25Z</time>
      </trkpt>
      <trkpt lat="59.9747355" lon="17.7370029">
        <ele>26.5736</ele>
        <time>2013-05-09T17:00:26Z</time>
      </trkpt>
      <trkpt lat="59.9746905" lon="17.7368752">
        <ele>26.5736</ele>
        <time>2013-05-09T17:00:27Z</time>
      </trkpt>
      <trkpt lat="59.9746484" lon="17.7367435">
        <ele>26.5736</ele>
        <time>2013-05-09T17:00:28Z</time>
      </trkpt>
      <trkpt lat="59.97461" lon="17.7366081">
        <ele>26.0929</ele>
        <time>2013-05-09T17:00:29Z</time>
      </trkpt>
      <trkpt lat="59.9745735" lon="17.7364709">
        <ele>26.0929</ele>
        <time>2013-05-09T17:00:30Z</time>
      </trkpt>
      <trkpt lat="59.9745385" lon="17.7363327">
        <ele>26.0929</ele>
        <time>2013-05-09T17:00:31Z</time>
      </trkpt>
      <trkpt lat="59.9745058" lon="17.7361935">
        <ele>26.0929</ele>
        <time>2013-05-09T17:00:32Z</time>
      </trkpt>
      <trkpt lat="59.974475" lon="17.7360525">
        <ele>26.0929</ele>
        <time>2013-05-09T17:00:33Z</time>
      </trkpt>
      <trkpt lat="59.9744465" lon="17.7359091">
        <ele>26.0929</ele>
        <time>2013-05-09T17:00:34Z</time>
      </trkpt>
      <trkpt lat="59.9744201" lon="17.7357641">
        <ele>26.0929</ele>
        <time>2013-05-09T17:00:35Z</time>
      </trkpt>
      <trkpt lat="59.9743958" lon="17.7356168">
        <ele>25.6123</ele>
        <time>2013-05-09T17:00:36Z</time>
      </trkpt>
      <trkpt lat="59.9743751" lon="17.7354666">
        <ele>25.6123</ele>
        <time>2013-05-09T17:00:37Z</time>
      </trkpt>
      <trkpt lat="59.9743585" lon="17.7353139">
        <ele>25.6123</ele>
        <time>2013-05-09T17:00:38Z</time>
      </trkpt>
      <trkpt lat="59.974345" lon="17.735161">
        <ele>25.6123</ele>
        <time>2013-05-09T17:00:39Z</time>
      </trkpt>
      <trkpt lat="59.9743324" lon="17.7350064">
        <ele>25.6123</ele>
        <time>2013-05-09T17:00:40Z</time>
      </trkpt>
      <trkpt lat="59.9743209" lon="17.73485">
        <ele>25.1317</ele>
        <time>2013-05-09T17:00:41Z</time>
      </trkpt>
      <trkpt lat="59.9743158" lon="17.7346933">
        <ele>25.1317</ele>
        <time>2013-05-09T17:00:42Z</time>
      </trkpt>
      <trkpt lat="59.974314" lon="17.7345385">
        <ele>25.1317</ele>
        <time>2013-05-09T17:00:43Z</time>
      </trkpt>
      <trkpt lat="59.9743132" lon="17.7343849">
        <ele>24.651</ele>
        <time>2013-05-09T17:00:44Z</time>
      </trkpt>
      <trkpt lat="59.9743135" lon="17.7342322">
        <ele>24.651</ele>
        <time>2013-05-09T17:00:45Z</time>
      </trkpt>
      <trkpt lat="59.9743186" lon="17.7340834">
        <ele>24.651</ele>
        <time>2013-05-09T17:00:46Z</time>
      </trkpt>
      <trkpt lat="59.9743247" lon="17.7339332">
        <ele>24.651</ele>
        <time>2013-05-09T17:00:47Z</time>
      </trkpt>
      <trkpt lat="59.974331" lon="17.7337835">
        <ele>24.651</ele>
        <time>2013-05-09T17:00:48Z</time>
      </trkpt>
      <trkpt lat="59.9743373" lon="17.7336361">
        <ele>24.651</ele>
        <time>2013-05-09T17:00:49Z</time>
      </trkpt>
      <trkpt lat="59.9743437" lon="17.7334911">
        <ele>25.1317</ele>
        <time>2013-05-09T17:00:50Z</time>
      </trkpt>
      <trkpt lat="59.9743486" lon="17.7333496">
        <ele>25.1317</ele>
        <time>2013-05-09T17:00:51Z</time>
      </trkpt>
      <trkpt lat="59.9743532" lon="17.7332107">
        <ele>25.1317</ele>
        <time>2013-05-09T17:00:52Z</time>
      </trkpt>
      <trkpt lat="59.9743572" lon="17.7330719">
        <ele>25.1317</ele>
        <time>2013-05-09T17:00:53Z</time>
      </trkpt>
      <trkpt lat="59.9743601" lon="17.7329342">
        <ele>25.1317</ele>
        <time>2013-05-09T17:00:54Z</time>
      </trkpt>
      <trkpt lat="59.9743619" lon="17.7327992">
        <ele>25.1317</ele>
        <time>2013-05-09T17:00:55Z</time>
      </trkpt>
      <trkpt lat="59.9743621" lon="17.7326659">
        <ele>25.6123</ele>
        <time>2013-05-09T17:00:56Z</time>
      </trkpt>
      <trkpt lat="59.9743611" lon="17.7325352">
        <ele>25.6123</ele>
        <time>2013-05-09T17:00:57Z</time>
      </trkpt>
      <trkpt lat="59.9743589" lon="17.732406">
        <ele>25.6123</ele>
        <time>2013-05-09T17:00:58Z</time>
      </trkpt>
      <trkpt lat="59.9743554" lon="17.7322757">
        <ele>26.0929</ele>
        <time>2013-05-09T17:00:59Z</time>
      </trkpt>
      <trkpt lat="59.9743522" lon="17.7321451">
        <ele>26.0929</ele>
        <time>2013-05-09T17:01:00Z</time>
      </trkpt>
      <trkpt lat="59.9743491" lon="17.7320152">
        <ele>26.0929</ele>
        <time>2013-05-09T17:01:01Z</time>
      </trkpt>
      <trkpt lat="59.9743461" lon="17.7318863">
        <ele>26.5736</ele>
        <time>2013-05-09T17:01:02Z</time>
      </trkpt>
      <trkpt lat="59.9743444" lon="17.7317578">
        <ele>26.5736</ele>
        <time>2013-05-09T17:01:03Z</time>
      </trkpt>
      <trkpt lat="59.9743448" lon="17.7316291">
        <ele>26.5736</ele>
        <time>2013-05-09T17:01:04Z</time>
      </trkpt>
      <trkpt lat="59.9743468" lon="17.7315022">
        <ele>26.5736</ele>
        <time>2013-05-09T17:01:05Z</time>
      </trkpt>
      <trkpt lat="59.9743491" lon="17.7313731">
        <ele>26.5736</ele>
        <time>2013-05-09T17:01:06Z</time>
      </trkpt>
      <trkpt lat="59.9743531" lon="17.731245">
        <ele>27.0543</ele>
        <time>2013-05-09T17:01:07Z</time>
      </trkpt>
      <trkpt lat="59.9743584" lon="17.731117">
        <ele>27.0543</ele>
        <time>2013-05-09T17:01:08Z</time>
      </trkpt>
      <trkpt lat="59.9743645" lon="17.73099">
        <ele>27.0543</ele>
        <time>2013-05-09T17:01:09Z</time>
      </trkpt>
      <trkpt lat="59.9743719" lon="17.7308642">
        <ele>27.5349</ele>
        <time>2013-05-09T17:01:10Z</time>
      </trkpt>
      <trkpt lat="59.9743805" lon="17.730738">
        <ele>27.5349</ele>
        <time>2013-05-09T17:01:11Z</time>
      </trkpt>
      <trkpt lat="59.9743898" lon="17.7306128">
        <ele>27.5349</ele>
        <time>2013-05-09T17:01:12Z</time>
      </trkpt>
      <trkpt lat="59.9743999" lon="17.7304891">
        <ele>28.0155</ele>
        <time>2013-05-09T17:01:13Z</time>
      </trkpt>
      <trkpt lat="59.9744103" lon="17.7303668">
        <ele>28.0155</ele>
        <time>2013-05-09T17:01:14Z</time>
      </trkpt>
      <trkpt lat="59.97442" lon="17.7302451">
        <ele>28.0155</ele>
        <time>2013-05-09T17:01:15Z</time>
      </trkpt>
      <trkpt lat="59.9744288" lon="17.7301252">
        <ele>28.0155</ele>
        <time>2013-05-09T17:01:16Z</time>
      </trkpt>
      <trkpt lat="59.9744387" lon="17.7300058">
        <ele>28.4962</ele>
        <time>2013-05-09T17:01:17Z</time>
      </trkpt>
      <trkpt lat="59.9744483" lon="17.7298854">
        <ele>28.4962</ele>
        <time>2013-05-09T17:01:18Z</time>
      </trkpt>
      <trkpt lat="59.9744559" lon="17.7297635">
        <ele>28.4962</ele>
        <time>2013-05-09T17:01:19Z</time>
      </trkpt>
      <trkpt lat="59.974462" lon="17.7296414">
        <ele>28.4962</ele>
        <time>2013-05-09T17:01:20Z</time>
      </trkpt>
      <trkpt lat="59.9744661" lon="17.7295194">
        <ele>28.4962</ele>
        <time>2013-05-09T17:01:21Z</time>
      </trkpt>
      <trkpt lat="59.9744682" lon="17.7293972">
        <ele>28.4962</ele>
        <time>2013-05-09T17:01:22Z</time>
      </trkpt>
      <trkpt lat="59.9744682" lon="17.7292748">
        <ele>28.4962</ele>
        <time>2013-05-09T17:01:23Z</time>
      </trkpt>
      <trkpt lat="59.9744666" lon="17.7291519">
        <ele>28.4962</ele>
        <time>2013-05-09T17:01:24Z</time>
      </trkpt>
      <trkpt lat="59.9744629" lon="17.7290287">
        <ele>28.4962</ele>
        <time>2013-05-09T17:01:25Z</time>
      </trkpt>
      <trkpt lat="59.9744593" lon="17.728905">
        <ele>28.4962</ele>
        <time>2013-05-09T17:01:26Z</time>
      </trkpt>
      <trkpt lat="59.9744558" lon="17.728779">
        <ele>28.4962</ele>
        <time>2013-05-09T17:01:27Z</time>
      </trkpt>
      <trkpt lat="59.9744521" lon="17.7286497">
        <ele>28.4962</ele>
        <time>2013-05-09T17:01:28Z</time>
      </trkpt>
      <trkpt lat="59.9744486" lon="17.7285191">
        <ele>28.4962</ele>
        <time>2013-05-09T17:01:29Z</time>
      </trkpt>
      <trkpt lat="59.9744453" lon="17.7283891">
        <ele>28.4962</ele>
        <time>2013-05-09T17:01:30Z</time>
      </trkpt>
      <trkpt lat="59.9744424" lon="17.7282592">
        <ele>28.4962</ele>
        <time>2013-05-09T17:01:31Z</time>
      </trkpt>
      <trkpt lat="59.9744402" lon="17.7281296">
        <ele>28.9769</ele>
        <time>2013-05-09T17:01:32Z</time>
      </trkpt>
      <trkpt lat="59.9744377" lon="17.728001">
        <ele>28.9769</ele>
        <time>2013-05-09T17:01:33Z</time>
      </trkpt>
      <trkpt lat="59.9744356" lon="17.7278761">
        <ele>28.9769</ele>
        <time>2013-05-09T17:01:34Z</time>
      </trkpt>
      <trkpt lat="59.9744334" lon="17.7277549">
        <ele>28.9769</ele>
        <time>2013-05-09T17:01:35Z</time>
      </trkpt>
      <trkpt lat="59.9744318" lon="17.7276364">
        <ele>29.4575</ele>
        <time>2013-05-09T17:01:36Z</time>
      </trkpt>
      <trkpt lat="59.9744295" lon="17.7275215">
        <ele>29.4575</ele>
        <time>2013-05-09T17:01:37Z</time>
      </trkpt>
      <trkpt lat="59.9744281" lon="17.72741">
        <ele>29.4575</ele>
        <time>2013-05-09T17:01:38Z</time>
      </trkpt>
      <trkpt lat="59.9744269" lon="17.7273001">
        <ele>29.4575</ele>
        <time>2013-05-09T17:01:39Z</time>
      </trkpt>
      <trkpt lat="59.9744247" lon="17.7271945">
        <ele>29.4575</ele>
        <time>2013-05-09T17:01:40Z</time>
      </trkpt>
      <trkpt lat="59.9744212" lon="17.7270923">
        <ele>29.4575</ele>
        <time>2013-05-09T17:01:41Z</time>
      </trkpt>
      <trkpt lat="59.9744224" lon="17.7269971">
        <ele>29.9381</ele>
        <time>2013-05-09T17:01:42Z</time>
      </trkpt>
      <trkpt lat="59.9744216" lon="17.726906">
        <ele>29.9381</ele>
        <time>2013-05-09T17:01:43Z</time>
      </trkpt>
      <trkpt lat="59.9744186" lon="17.7268086">
        <ele>29.9381</ele>
        <time>2013-05-09T17:01:44Z</time>
      </trkpt>
      <trkpt lat="59.9744087" lon="17.7266677">
        <ele>30.4188</ele>
        <time>2013-05-09T17:01:45Z</time>
      </trkpt>
      <trkpt lat="59.9744074" lon="17.7265657">
        <ele>30.8995</ele>
        <time>2013-05-09T17:01:46Z</time>
      </trkpt>
      <trkpt lat="59.9744033" lon="17.726458">
        <ele>31.3801</ele>
        <time>2013-05-09T17:01:47Z</time>
      </trkpt>
      <trkpt lat="59.9743978" lon="17.7263523">
        <ele>31.3801</ele>
        <time>2013-05-09T17:01:48Z</time>
      </trkpt>
      <trkpt lat="59.9743922" lon="17.7262409">
        <ele>31.3801</ele>
        <time>2013-05-09T17:01:49Z</time>
      </trkpt>
      <trkpt lat="59.9743857" lon="17.7261264">
        <ele>31.3801</ele>
        <time>2013-05-09T17:01:50Z</time>
      </trkpt>
      <trkpt lat="59.9743785" lon="17.7260087">
        <ele>31.3801</ele>
        <time>2013-05-09T17:01:51Z</time>
      </trkpt>
      <trkpt lat="59.9743709" lon="17.7258931">
        <ele>31.3801</ele>
        <time>2013-05-09T17:01:52Z</time>
      </trkpt>
      <trkpt lat="59.974361" lon="17.7257786">
        <ele>31.3801</ele>
        <time>2013-05-09T17:01:53Z</time>
      </trkpt>
      <trkpt lat="59.9743526" lon="17.7256662">
        <ele>31.3801</ele>
        <time>2013-05-09T17:01:54Z</time>
      </trkpt>
      <trkpt lat="59.9743434" lon="17.7255512">
        <ele>31.3801</ele>
        <time>2013-05-09T17:01:55Z</time>
      </trkpt>
      <trkpt lat="59.974332" lon="17.7254342">
        <ele>31.8607</ele>
        <time>2013-05-09T17:01:56Z</time>
      </trkpt>
      <trkpt lat="59.9743185" lon="17.7253177">
        <ele>31.8607</ele>
        <time>2013-05-09T17:01:57Z</time>
      </trkpt>
      <trkpt lat="59.9743045" lon="17.7252018">
        <ele>31.8607</ele>
        <time>2013-05-09T17:01:58Z</time>
      </trkpt>
      <trkpt lat="59.9742895" lon="17.7250857">
        <ele>31.8607</ele>
        <time>2013-05-09T17:01:59Z</time>
      </trkpt>
      <trkpt lat="59.9742735" lon="17.7249692">
        <ele>31.8607</ele>
        <time>2013-05-09T17:02:00Z</time>
      </trkpt>
      <trkpt lat="59.9742579" lon="17.7248505">
        <ele>31.8607</ele>
        <time>2013-05-09T17:02:01Z</time>
      </trkpt>
      <trkpt lat="59.9742419" lon="17.7247297">
        <ele>32.3416</ele>
        <time>2013-05-09T17:02:02Z</time>
      </trkpt>
      <trkpt lat="59.9742242" lon="17.7246086">
        <ele>32.3416</ele>
        <time>2013-05-09T17:02:03Z</time>
      </trkpt>
      <trkpt lat="59.9742066" lon="17.7244872">
        <ele>32.3416</ele>
        <time>2013-05-09T17:02:04Z</time>
      </trkpt>
      <trkpt lat="59.9741895" lon="17.7243647">
        <ele>32.3416</ele>
        <time>2013-05-09T17:02:05Z</time>
      </trkpt>
      <trkpt lat="59.9741729" lon="17.7242414">
        <ele>32.8223</ele>
        <time>2013-05-09T17:02:06Z</time>
      </trkpt>
      <trkpt lat="59.9741557" lon="17.7241177">
        <ele>32.8223</ele>
        <time>2013-05-09T17:02:07Z</time>
      </trkpt>
      <trkpt lat="59.9741376" lon="17.7239943">
        <ele>32.8223</ele>
        <time>2013-05-09T17:02:08Z</time>
      </trkpt>
      <trkpt lat="59.9741199" lon="17.7238713">
        <ele>32.8223</ele>
        <time>2013-05-09T17:02:09Z</time>
      </trkpt>
      <trkpt lat="59.9741026" lon="17.7237486">
        <ele>32.8223</ele>
        <time>2013-05-09T17:02:10Z</time>
      </trkpt>
      <trkpt lat="59.9740857" lon="17.7236265">
        <ele>32.8223</ele>
        <time>2013-05-09T17:02:11Z</time>
      </trkpt>
      <trkpt lat="59.9740683" lon="17.7235057">
        <ele>32.8223</ele>
        <time>2013-05-09T17:02:12Z</time>
      </trkpt>
      <trkpt lat="59.9740492" lon="17.7233856">
        <ele>33.3029</ele>
        <time>2013-05-09T17:02:13Z</time>
      </trkpt>
      <trkpt lat="59.974027" lon="17.7232653">
        <ele>33.3029</ele>
        <time>2013-05-09T17:02:14Z</time>
      </trkpt>
      <trkpt lat="59.974003" lon="17.7231442">
        <ele>33.3029</ele>
        <time>2013-05-09T17:02:15Z</time>
      </trkpt>
      <trkpt lat="59.973978" lon="17.7230246">
        <ele>33.3029</ele>
        <time>2013-05-09T17:02:16Z</time>
      </trkpt>
      <trkpt lat="59.9739514" lon="17.7229071">
        <ele>33.3029</ele>
        <time>2013-05-09T17:02:17Z</time>
      </trkpt>
      <trkpt lat="59.9739236" lon="17.7227919">
        <ele>33.3029</ele>
        <time>2013-05-09T17:02:18Z</time>
      </trkpt>
      <trkpt lat="59.9738942" lon="17.7226774">
        <ele>33.3029</ele>
        <time>2013-05-09T17:02:19Z</time>
      </trkpt>
      <trkpt lat="59.9738628" lon="17.7225636">
        <ele>33.7834</ele>
        <time>2013-05-09T17:02:20Z</time>
      </trkpt>
      <trkpt lat="59.9738305" lon="17.7224509">
        <ele>33.7834</ele>
        <time>2013-05-09T17:02:21Z</time>
      </trkpt>
      <trkpt lat="59.9737969" lon="17.7223397">
        <ele>33.7834</ele>
        <time>2013-05-09T17:02:22Z</time>
      </trkpt>
      <trkpt lat="59.9737625" lon="17.7222304">
        <ele>33.7834</ele>
        <time>2013-05-09T17:02:23Z</time>
      </trkpt>
      <trkpt lat="59.9737271" lon="17.7221243">
        <ele>33.7834</ele>
        <time>2013-05-09T17:02:24Z</time>
      </trkpt>
      <trkpt lat="59.9736901" lon="17.7220216">
        <ele>33.7834</ele>
        <time>2013-05-09T17:02:25Z</time>
      </trkpt>
      <trkpt lat="59.9736529" lon="17.7219243">
        <ele>33.7834</ele>
        <time>2013-05-09T17:02:26Z</time>
      </trkpt>
      <trkpt lat="59.973615" lon="17.7218267">
        <ele>33.7834</ele>
        <time>2013-05-09T17:02:27Z</time>
      </trkpt>
      <trkpt lat="59.9735765" lon="17.7217306">
        <ele>33.7834</ele>
        <time>2013-05-09T17:02:28Z</time>
      </trkpt>
      <trkpt lat="59.9735374" lon="17.7216376">
        <ele>33.7834</ele>
        <time>2013-05-09T17:02:29Z</time>
      </trkpt>
      <trkpt lat="59.973495" lon="17.7215439">
        <ele>33.7834</ele>
        <time>2013-05-09T17:02:30Z</time>
      </trkpt>
      <trkpt lat="59.9734518" lon="17.7214529">
        <ele>33.7834</ele>
        <time>2013-05-09T17:02:31Z</time>
      </trkpt>
      <trkpt lat="59.9734079" lon="17.7213639">
        <ele>33.7834</ele>
        <time>2013-05-09T17:02:32Z</time>
      </trkpt>
      <trkpt lat="59.9733634" lon="17.7212769">
        <ele>33.7834</ele>
        <time>2013-05-09T17:02:33Z</time>
      </trkpt>
      <trkpt lat="59.9733182" lon="17.7211913">
        <ele>33.3029</ele>
        <time>2013-05-09T17:02:34Z</time>
      </trkpt>
      <trkpt lat="59.9732704" lon="17.7211042">
        <ele>33.3029</ele>
        <time>2013-05-09T17:02:35Z</time>
      </trkpt>
      <trkpt lat="59.9732215" lon="17.7210204">
        <ele>33.3029</ele>
        <time>2013-05-09T17:02:36Z</time>
      </trkpt>
      <trkpt lat="59.9731722" lon="17.7209401">
        <ele>33.3029</ele>
        <time>2013-05-09T17:02:37Z</time>
      </trkpt>
      <trkpt lat="59.9731223" lon="17.720863">
        <ele>33.3029</ele>
        <time>2013-05-09T17:02:38Z</time>
      </trkpt>
      <trkpt lat="59.9730712" lon="17.72079">
        <ele>33.3029</ele>
        <time>2013-05-09T17:02:39Z</time>
      </trkpt>
      <trkpt lat="59.9730194" lon="17.7207189">
        <ele>33.3029</ele>
        <time>2013-05-09T17:02:40Z</time>
      </trkpt>
      <trkpt lat="59.972967" lon="17.720649">
        <ele>33.3029</ele>
        <time>2013-05-09T17:02:41Z</time>
      </trkpt>
      <trkpt lat="59.9729141" lon="17.7205811">
        <ele>33.3029</ele>
        <time>2013-05-09T17:02:42Z</time>
      </trkpt>
      <trkpt lat="59.9728601" lon="17.7205152">
        <ele>33.3029</ele>
        <time>2013-05-09T17:02:43Z</time>
      </trkpt>
      <trkpt lat="59.972805" lon="17.7204521">
        <ele>33.3029</ele>
        <time>2013-05-09T17:02:44Z</time>
      </trkpt>
      <trkpt lat="59.9727495" lon="17.7203914">
        <ele>33.3029</ele>
        <time>2013-05-09T17:02:45Z</time>
      </trkpt>
      <trkpt lat="59.972693" lon="17.720334">
        <ele>33.3029</ele>
        <time>2013-05-09T17:02:46Z</time>
      </trkpt>
      <trkpt lat="59.9726355" lon="17.7202787">
        <ele>33.3029</ele>
        <time>2013-05-09T17:02:47Z</time>
      </trkpt>
      <trkpt lat="59.9725775" lon="17.7202242">
        <ele>33.3029</ele>
        <time>2013-05-09T17:02:48Z</time>
      </trkpt>
      <trkpt lat="59.9725184" lon="17.7201698">
        <ele>33.3029</ele>
        <time>2013-05-09T17:02:49Z</time>
      </trkpt>
      <trkpt lat="59.9724583" lon="17.7201143">
        <ele>33.3029</ele>
        <time>2013-05-09T17:02:50Z</time>
      </trkpt>
      <trkpt lat="59.9723983" lon="17.720059">
        <ele>33.3029</ele>
        <time>2013-05-09T17:02:51Z</time>
      </trkpt>
      <trkpt lat="59.9723387" lon="17.7200045">
        <ele>33.3029</ele>
        <time>2013-05-09T17:02:52Z</time>
      </trkpt>
      <trkpt lat="59.9722789" lon="17.7199508">
        <ele>33.7834</ele>
        <time>2013-05-09T17:02:53Z</time>
      </trkpt>
      <trkpt lat="59.972219" lon="17.7198973">
        <ele>33.7834</ele>
        <time>2013-05-09T17:02:54Z</time>
      </trkpt>
      <trkpt lat="59.9721589" lon="17.7198429">
        <ele>33.7834</ele>
        <time>2013-05-09T17:02:55Z</time>
      </trkpt>
      <trkpt lat="59.9720989" lon="17.7197891">
        <ele>33.7834</ele>
        <time>2013-05-09T17:02:56Z</time>
      </trkpt>
      <trkpt lat="59.9720389" lon="17.7197355">
        <ele>33.7834</ele>
        <time>2013-05-09T17:02:57Z</time>
      </trkpt>
      <trkpt lat="59.9719793" lon="17.7196809">
        <ele>34.2642</ele>
        <time>2013-05-09T17:02:58Z</time>
      </trkpt>
      <trkpt lat="59.9719197" lon="17.7196265">
        <ele>34.2642</ele>
        <time>2013-05-09T17:02:59Z</time>
      </trkpt>
      <trkpt lat="59.9718601" lon="17.719572">
        <ele>34.2642</ele>
        <time>2013-05-09T17:03:00Z</time>
      </trkpt>
      <trkpt lat="59.9718006" lon="17.7195166">
        <ele>34.2642</ele>
        <time>2013-05-09T17:03:01Z</time>
      </trkpt>
      <trkpt lat="59.9717412" lon="17.719463">
        <ele>34.2642</ele>
        <time>2013-05-09T17:03:02Z</time>
      </trkpt>
      <trkpt lat="59.9716817" lon="17.7194105">
        <ele>34.2642</ele>
        <time>2013-05-09T17:03:03Z</time>
      </trkpt>
      <trkpt lat="59.9716228" lon="17.7193577">
        <ele>34.2642</ele>
        <time>2013-05-09T17:03:04Z</time>
      </trkpt>
      <trkpt lat="59.9715643" lon="17.7193056">
        <ele>34.7449</ele>
        <time>2013-05-09T17:03:05Z</time>
      </trkpt>
      <trkpt lat="59.9715063" lon="17.7192532">
        <ele>34.7449</ele>
        <time>2013-05-09T17:03:06Z</time>
      </trkpt>
      <trkpt lat="59.9714486" lon="17.7191995">
        <ele>34.7449</ele>
        <time>2013-05-09T17:03:07Z</time>
      </trkpt>
      <trkpt lat="59.9713913" lon="17.7191445">
        <ele>35.2255</ele>
        <time>2013-05-09T17:03:08Z</time>
      </trkpt>
      <trkpt lat="59.9713335" lon="17.7190911">
        <ele>35.2255</ele>
        <time>2013-05-09T17:03:09Z</time>
      </trkpt>
      <trkpt lat="59.9712748" lon="17.7190399">
        <ele>35.2255</ele>
        <time>2013-05-09T17:03:10Z</time>
      </trkpt>
      <trkpt lat="59.9712162" lon="17.7189889">
        <ele>35.2255</ele>
        <time>2013-05-09T17:03:11Z</time>
      </trkpt>
      <trkpt lat="59.9711577" lon="17.7189364">
        <ele>35.2255</ele>
        <time>2013-05-09T17:03:12Z</time>
      </trkpt>
      <trkpt lat="59.9710996" lon="17.718883">
        <ele>35.2255</ele>
        <time>2013-05-09T17:03:13Z</time>
      </trkpt>
      <trkpt lat="59.9710415" lon="17.71883">
        <ele>35.2255</ele>
        <time>2013-05-09T17:03:14Z</time>
      </trkpt>
      <trkpt lat="59.9709835" lon="17.7187774">
        <ele>35.2255</ele>
        <time>2013-05-09T17:03:15Z</time>
      </trkpt>
      <trkpt lat="59.9709255" lon="17.7187256">
        <ele>35.2255</ele>
        <time>2013-05-09T17:03:16Z</time>
      </trkpt>
      <trkpt lat="59.9708671" lon="17.7186743">
        <ele>35.2255</ele>
        <time>2013-05-09T17:03:17Z</time>
      </trkpt>
      <trkpt lat="59.9708085" lon="17.718621">
        <ele>35.7061</ele>
        <time>2013-05-09T17:03:18Z</time>
      </trkpt>
      <trkpt lat="59.9707498" lon="17.718565">
        <ele>35.7061</ele>
        <time>2013-05-09T17:03:19Z</time>
      </trkpt>
      <trkpt lat="59.9706905" lon="17.71851">
        <ele>35.7061</ele>
        <time>2013-05-09T17:03:20Z</time>
      </trkpt>
      <trkpt lat="59.9706312" lon="17.7184551">
        <ele>35.7061</ele>
        <time>2013-05-09T17:03:21Z</time>
      </trkpt>
      <trkpt lat="59.9705716" lon="17.7184001">
        <ele>35.7061</ele>
        <time>2013-05-09T17:03:22Z</time>
      </trkpt>
      <trkpt lat="59.9705118" lon="17.7183475">
        <ele>35.7061</ele>
        <time>2013-05-09T17:03:23Z</time>
      </trkpt>
      <trkpt lat="59.9704522" lon="17.7182955">
        <ele>35.7061</ele>
        <time>2013-05-09T17:03:24Z</time>
      </trkpt>
      <trkpt lat="59.9703932" lon="17.7182414">
        <ele>35.7061</ele>
        <time>2013-05-09T17:03:25Z</time>
      </trkpt>
      <trkpt lat="59.9703345" lon="17.7181874">
        <ele>35.7061</ele>
        <time>2013-05-09T17:03:26Z</time>
      </trkpt>
      <trkpt lat="59.9702756" lon="17.718134">
        <ele>36.1868</ele>
        <time>2013-05-09T17:03:27Z</time>
      </trkpt>
      <trkpt lat="59.9702169" lon="17.7180811">
        <ele>36.1868</ele>
        <time>2013-05-09T17:03:28Z</time>
      </trkpt>
      <trkpt lat="59.9701585" lon="17.7180278">
        <ele>36.1868</ele>
        <time>2013-05-09T17:03:29Z</time>
      </trkpt>
      <trkpt lat="59.9701" lon="17.7179749">
        <ele>36.1868</ele>
        <time>2013-05-09T17:03:30Z</time>
      </trkpt>
      <trkpt lat="59.9700419" lon="17.7179225">
        <ele>36.1868</ele>
        <time>2013-05-09T17:03:31Z</time>
      </trkpt>
      <trkpt lat="59.9699839" lon="17.7178712">
        <ele>36.1868</ele>
        <time>2013-05-09T17:03:32Z</time>
      </trkpt>
      <trkpt lat="59.9699262" lon="17.7178206">
        <ele>36.1868</ele>
        <time>2013-05-09T17:03:33Z</time>
      </trkpt>
      <trkpt lat="59.9698684" lon="17.7177717">
        <ele>36.1868</ele>
        <time>2013-05-09T17:03:34Z</time>
      </trkpt>
      <trkpt lat="59.9698104" lon="17.7177248">
        <ele>36.1868</ele>
        <time>2013-05-09T17:03:35Z</time>
      </trkpt>
      <trkpt lat="59.9697523" lon="17.7176804">
        <ele>36.6675</ele>
        <time>2013-05-09T17:03:36Z</time>
      </trkpt>
      <trkpt lat="59.9696948" lon="17.7176369">
        <ele>36.6675</ele>
        <time>2013-05-09T17:03:37Z</time>
      </trkpt>
      <trkpt lat="59.9696376" lon="17.7175966">
        <ele>36.6675</ele>
        <time>2013-05-09T17:03:38Z</time>
      </trkpt>
      <trkpt lat="59.9695807" lon="17.717559">
        <ele>36.6675</ele>
        <time>2013-05-09T17:03:39Z</time>
      </trkpt>
      <trkpt lat="59.9695243" lon="17.7175228">
        <ele>37.1481</ele>
        <time>2013-05-09T17:03:40Z</time>
      </trkpt>
      <trkpt lat="59.969468" lon="17.7174896">
        <ele>37.1481</ele>
        <time>2013-05-09T17:03:41Z</time>
      </trkpt>
      <trkpt lat="59.969412" lon="17.7174592">
        <ele>37.1481</ele>
        <time>2013-05-09T17:03:42Z</time>
      </trkpt>
      <trkpt lat="59.9693569" lon="17.7174304">
        <ele>37.6287</ele>
        <time>2013-05-09T17:03:43Z</time>
      </trkpt>
      <trkpt lat="59.9693026" lon="17.7174021">
        <ele>37.6287</ele>
        <time>2013-05-09T17:03:44Z</time>
      </trkpt>
      <trkpt lat="59.9692489" lon="17.7173773">
        <ele>37.6287</ele>
        <time>2013-05-09T17:03:45Z</time>
      </trkpt>
      <trkpt lat="59.9691953" lon="17.7173575">
        <ele>37.6287</ele>
        <time>2013-05-09T17:03:46Z</time>
      </trkpt>
      <trkpt lat="59.9691365" lon="17.7173342">
        <ele>37.6287</ele>
        <time>2013-05-09T17:03:47Z</time>
      </trkpt>
      <trkpt lat="59.9690807" lon="17.7173107">
        <ele>37.6287</ele>
        <time>2013-05-09T17:03:48Z</time>
      </trkpt>
      <trkpt lat="59.9690249" lon="17.7172896">
        <ele>37.1481</ele>
        <time>2013-05-09T17:03:49Z</time>
      </trkpt>
      <trkpt lat="59.9689685" lon="17.7172693">
        <ele>37.1481</ele>
        <time>2013-05-09T17:03:50Z</time>
      </trkpt>
      <trkpt lat="59.9689117" lon="17.7172481">
        <ele>37.1481</ele>
        <time>2013-05-09T17:03:51Z</time>
      </trkpt>
      <trkpt lat="59.9688552" lon="17.717226">
        <ele>36.6675</ele>
        <time>2013-05-09T17:03:52Z</time>
      </trkpt>
      <trkpt lat="59.968799" lon="17.7172037">
        <ele>36.6675</ele>
        <time>2013-05-09T17:03:53Z</time>
      </trkpt>
      <trkpt lat="59.9687422" lon="17.7171805">
        <ele>36.6675</ele>
        <time>2013-05-09T17:03:54Z</time>
      </trkpt>
      <trkpt lat="59.9686846" lon="17.7171563">
        <ele>36.1868</ele>
        <time>2013-05-09T17:03:55Z</time>
      </trkpt>
      <trkpt lat="59.9686256" lon="17.717131">
        <ele>36.1868</ele>
        <time>2013-05-09T17:03:56Z</time>
      </trkpt>
      <trkpt lat="59.9685658" lon="17.7171036">
        <ele>35.7061</ele>
        <time>2013-05-09T17:03:57Z</time>
      </trkpt>
      <trkpt lat="59.9685059" lon="17.7170726">
        <ele>35.7061</ele>
        <time>2013-05-09T17:03:58Z</time>
      </trkpt>
      <trkpt lat="59.9684453" lon="17.7170374">
        <ele>35.7061</ele>
        <time>2013-05-09T17:03:59Z</time>
      </trkpt>
      <trkpt lat="59.9683835" lon="17.7169961">
        <ele>35.2255</ele>
        <time>2013-05-09T17:04:00Z</time>
      </trkpt>
      <trkpt lat="59.9683208" lon="17.7169467">
        <ele>35.2255</ele>
        <time>2013-05-09T17:04:01Z</time>
      </trkpt>
      <trkpt lat="59.9682573" lon="17.716888">
        <ele>34.7449</ele>
        <time>2013-05-09T17:04:02Z</time>
      </trkpt>
      <trkpt lat="59.968193" lon="17.7168199">
        <ele>34.2642</ele>
        <time>2013-05-09T17:04:03Z</time>
      </trkpt>
      <trkpt lat="59.9681273" lon="17.7167422">
        <ele>33.7834</ele>
        <time>2013-05-09T17:04:04Z</time>
      </trkpt>
      <trkpt lat="59.9680615" lon="17.7166531">
        <ele>33.3029</ele>
        <time>2013-05-09T17:04:05Z</time>
      </trkpt>
      <trkpt lat="59.9679961" lon="17.7165531">
        <ele>32.8223</ele>
        <time>2013-05-09T17:04:06Z</time>
      </trkpt>
      <trkpt lat="59.9679309" lon="17.716441">
        <ele>32.3416</ele>
        <time>2013-05-09T17:04:07Z</time>
      </trkpt>
      <trkpt lat="59.9678671" lon="17.7163158">
        <ele>32.3416</ele>
        <time>2013-05-09T17:04:08Z</time>
      </trkpt>
      <trkpt lat="59.9678056" lon="17.7161765">
        <ele>31.8607</ele>
        <time>2013-05-09T17:04:09Z</time>
      </trkpt>
      <trkpt lat="59.9677469" lon="17.7160233">
        <ele>31.3801</ele>
        <time>2013-05-09T17:04:10Z</time>
      </trkpt>
      <trkpt lat="59.967691" lon="17.7158569">
        <ele>30.4188</ele>
        <time>2013-05-09T17:04:11Z</time>
      </trkpt>
      <trkpt lat="59.9676409" lon="17.7156862">
        <ele>29.9381</ele>
        <time>2013-05-09T17:04:12Z</time>
      </trkpt>
      <trkpt lat="59.967594" lon="17.7155051">
        <ele>29.9381</ele>
        <time>2013-05-09T17:04:13Z</time>
      </trkpt>
      <trkpt lat="59.9675514" lon="17.7153208">
        <ele>29.4575</ele>
        <time>2013-05-09T17:04:14Z</time>
      </trkpt>
      <trkpt lat="59.9675275" lon="17.7151176">
        <ele>28.9769</ele>
        <time>2013-05-09T17:04:15Z</time>
      </trkpt>
      <trkpt lat="59.9675" lon="17.7149301">
        <ele>28.0155</ele>
        <time>2013-05-09T17:04:16Z</time>
      </trkpt>
      <trkpt lat="59.9674794" lon="17.7147639">
        <ele>27.5349</ele>
        <time>2013-05-09T17:04:17Z</time>
      </trkpt>
      <trkpt lat="59.9674596" lon="17.7145872">
        <ele>28.0155</ele>
        <time>2013-05-09T17:04:18Z</time>
      </trkpt>
      <trkpt lat="59.9674394" lon="17.7144239">
        <ele>28.0155</ele>
        <time>2013-05-09T17:04:19Z</time>
      </trkpt>
      <trkpt lat="59.9674229" lon="17.7142893">
        <ele>28.0155</ele>
        <time>2013-05-09T17:04:20Z</time>
      </trkpt>
      <trkpt lat="59.9674035" lon="17.7141557">
        <ele>28.0155</ele>
        <time>2013-05-09T17:04:21Z</time>
      </trkpt>
      <trkpt lat="59.9673863" lon="17.7140262">
        <ele>28.9769</ele>
        <time>2013-05-09T17:04:22Z</time>
      </trkpt>
      <trkpt lat="59.9673706" lon="17.7139059">
        <ele>29.9381</ele>
        <time>2013-05-09T17:04:23Z</time>
      </trkpt>
      <trkpt lat="59.9673544" lon="17.7137854">
        <ele>30.4188</ele>
        <time>2013-05-09T17:04:24Z</time>
      </trkpt>
      <trkpt lat="59.96734" lon="17.7136779">
        <ele>30.8995</ele>
        <time>2013-05-09T17:04:25Z</time>
      </trkpt>
      <trkpt lat="59.9673255" lon="17.7135761">
        <ele>31.3801</ele>
        <time>2013-05-09T17:04:26Z</time>
      </trkpt>
      <trkpt lat="59.9673099" lon="17.7134782">
        <ele>31.8607</ele>
        <time>2013-05-09T17:04:27Z</time>
      </trkpt>
      <trkpt lat="59.9672932" lon="17.713384">
        <ele>32.3416</ele>
        <time>2013-05-09T17:04:28Z</time>
      </trkpt>
      <trkpt lat="59.9672751" lon="17.713292">
        <ele>32.8223</ele>
        <time>2013-05-09T17:04:29Z</time>
      </trkpt>
      <trkpt lat="59.967257" lon="17.7132017">
        <ele>32.8223</ele>
        <time>2013-05-09T17:04:30Z</time>
      </trkpt>
      <trkpt lat="59.9672384" lon="17.7131112">
        <ele>32.8223</ele>
        <time>2013-05-09T17:04:31Z</time>
      </trkpt>
      <trkpt lat="59.9672181" lon="17.7130207">
        <ele>33.3029</ele>
        <time>2013-05-09T17:04:32Z</time>
      </trkpt>
      <trkpt lat="59.9671965" lon="17.7129311">
        <ele>33.3029</ele>
        <time>2013-05-09T17:04:33Z</time>
      </trkpt>
      <trkpt lat="59.9671744" lon="17.7128426">
        <ele>33.3029</ele>
        <time>2013-05-09T17:04:34Z</time>
      </trkpt>
      <trkpt lat="59.9671513" lon="17.7127555">
        <ele>33.7834</ele>
        <time>2013-05-09T17:04:35Z</time>
      </trkpt>
      <trkpt lat="59.9671276" lon="17.7126706">
        <ele>33.7834</ele>
        <time>2013-05-09T17:04:36Z</time>
      </trkpt>
      <trkpt lat="59.9671021" lon="17.7125852">
        <ele>33.7834</ele>
        <time>2013-05-09T17:04:37Z</time>
      </trkpt>
      <trkpt lat="59.9670746" lon="17.7125012">
        <ele>34.2642</ele>
        <time>2013-05-09T17:04:38Z</time>
      </trkpt>
      <trkpt lat="59.9670447" lon="17.7124186">
        <ele>34.2642</ele>
        <time>2013-05-09T17:04:39Z</time>
      </trkpt>
      <trkpt lat="59.9670136" lon="17.7123345">
        <ele>34.2642</ele>
        <time>2013-05-09T17:04:40Z</time>
      </trkpt>
      <trkpt lat="59.9669813" lon="17.7122488">
        <ele>34.2642</ele>
        <time>2013-05-09T17:04:41Z</time>
      </trkpt>
      <trkpt lat="59.9669481" lon="17.7121614">
        <ele>34.2642</ele>
        <time>2013-05-09T17:04:42Z</time>
      </trkpt>
      <trkpt lat="59.966914" lon="17.7120723">
        <ele>34.2642</ele>
        <time>2013-05-09T17:04:43Z</time>
      </trkpt>
      <trkpt lat="59.9668789" lon="17.7119827">
        <ele>34.2642</ele>
        <time>2013-05-09T17:04:44Z</time>
      </trkpt>
      <trkpt lat="59.9668434" lon="17.7118923">
        <ele>34.2642</ele>
        <time>2013-05-09T17:04:45Z</time>
      </trkpt>
      <trkpt lat="59.9668075" lon="17.7117984">
        <ele>34.2642</ele>
        <time>2013-05-09T17:04:46Z</time>
      </trkpt>
      <trkpt lat="59.9667721" lon="17.711701">
        <ele>34.2642</ele>
        <time>2013-05-09T17:04:47Z</time>
      </trkpt>
      <trkpt lat="59.9667375" lon="17.7116003">
        <ele>34.2642</ele>
        <time>2013-05-09T17:04:48Z</time>
      </trkpt>
      <trkpt lat="59.9667034" lon="17.7114967">
        <ele>34.2642</ele>
        <time>2013-05-09T17:04:49Z</time>
      </trkpt>
      <trkpt lat="59.9666701" lon="17.7113919">
        <ele>34.2642</ele>
        <time>2013-05-09T17:04:50Z</time>
      </trkpt>
      <trkpt lat="59.9666371" lon="17.7112844">
        <ele>33.7834</ele>
        <time>2013-05-09T17:04:51Z</time>
      </trkpt>
      <trkpt lat="59.9666048" lon="17.7111735">
        <ele>33.7834</ele>
        <time>2013-05-09T17:04:52Z</time>
      </trkpt>
      <trkpt lat="59.9665728" lon="17.7110602">
        <ele>33.7834</ele>
        <time>2013-05-09T17:04:53Z</time>
      </trkpt>
      <trkpt lat="59.9665404" lon="17.7109462">
        <ele>33.7834</ele>
        <time>2013-05-09T17:04:54Z</time>
      </trkpt>
      <trkpt lat="59.966508" lon="17.7108323">
        <ele>33.7834</ele>
        <time>2013-05-09T17:04:55Z</time>
      </trkpt>
      <trkpt lat="59.9664752" lon="17.7107166">
        <ele>33.7834</ele>
        <time>2013-05-09T17:04:56Z</time>
      </trkpt>
      <trkpt lat="59.9664427" lon="17.710598">
        <ele>33.7834</ele>
        <time>2013-05-09T17:04:57Z</time>
      </trkpt>
      <trkpt lat="59.9664107" lon="17.7104779">
        <ele>33.7834</ele>
        <time>2013-05-09T17:04:58Z</time>
      </trkpt>
      <trkpt lat="59.9663786" lon="17.7103571">
        <ele>33.3029</ele>
        <time>2013-05-09T17:04:59Z</time>
      </trkpt>
      <trkpt lat="59.9663454" lon="17.7102349">
        <ele>33.3029</ele>
        <time>2013-05-09T17:05:00Z</time>
      </trkpt>
      <trkpt lat="59.9663114" lon="17.7101116">
        <ele>33.3029</ele>
        <time>2013-05-09T17:05:01Z</time>
      </trkpt>
      <trkpt lat="59.9662775" lon="17.7099878">
        <ele>33.3029</ele>
        <time>2013-05-09T17:05:02Z</time>
      </trkpt>
      <trkpt lat="59.9662438" lon="17.7098636">
        <ele>33.3029</ele>
        <time>2013-05-09T17:05:03Z</time>
      </trkpt>
      <trkpt lat="59.9662095" lon="17.7097402">
        <ele>33.3029</ele>
        <time>2013-05-09T17:05:04Z</time>
      </trkpt>
      <trkpt lat="59.9661744" lon="17.709617">
        <ele>33.3029</ele>
        <time>2013-05-09T17:05:05Z</time>
      </trkpt>
      <trkpt lat="59.9661386" lon="17.7094934">
        <ele>33.3029</ele>
        <time>2013-05-09T17:05:06Z</time>
      </trkpt>
      <trkpt lat="59.9661028" lon="17.7093688">
        <ele>33.3029</ele>
        <time>2013-05-09T17:05:07Z</time>
      </trkpt>
      <trkpt lat="59.966066" lon="17.7092443">
        <ele>33.3029</ele>
        <time>2013-05-09T17:05:08Z</time>
      </trkpt>
      <trkpt lat="59.9660274" lon="17.7091216">
        <ele>33.3029</ele>
        <time>2013-05-09T17:05:09Z</time>
      </trkpt>
      <trkpt lat="59.9659884" lon="17.7090008">
        <ele>32.8223</ele>
        <time>2013-05-09T17:05:10Z</time>
      </trkpt>
      <trkpt lat="59.9659489" lon="17.708882">
        <ele>32.8223</ele>
        <time>2013-05-09T17:05:11Z</time>
      </trkpt>
      <trkpt lat="59.9659071" lon="17.7087675">
        <ele>33.3029</ele>
        <time>2013-05-09T17:05:12Z</time>
      </trkpt>
      <trkpt lat="59.9658636" lon="17.708656">
        <ele>32.8223</ele>
        <time>2013-05-09T17:05:13Z</time>
      </trkpt>
      <trkpt lat="59.9658186" lon="17.7085467">
        <ele>32.8223</ele>
        <time>2013-05-09T17:05:14Z</time>
      </trkpt>
      <trkpt lat="59.9657703" lon="17.708442">
        <ele>32.8223</ele>
        <time>2013-05-09T17:05:15Z</time>
      </trkpt>
      <trkpt lat="59.9657157" lon="17.7083411">
        <ele>32.8223</ele>
        <time>2013-05-09T17:05:16Z</time>
      </trkpt>
      <trkpt lat="59.9656562" lon="17.7082507">
        <ele>33.3029</ele>
        <time>2013-05-09T17:05:17Z</time>
      </trkpt>
      <trkpt lat="59.9655932" lon="17.708168">
        <ele>33.3029</ele>
        <time>2013-05-09T17:05:18Z</time>
      </trkpt>
      <trkpt lat="59.9655273" lon="17.7080935">
        <ele>33.3029</ele>
        <time>2013-05-09T17:05:19Z</time>
      </trkpt>
      <trkpt lat="59.9654596" lon="17.7080254">
        <ele>33.3029</ele>
        <time>2013-05-09T17:05:20Z</time>
      </trkpt>
      <trkpt lat="59.9653916" lon="17.707962">
        <ele>33.7834</ele>
        <time>2013-05-09T17:05:21Z</time>
      </trkpt>
      <trkpt lat="59.965322" lon="17.7079039">
        <ele>33.7834</ele>
        <time>2013-05-09T17:05:22Z</time>
      </trkpt>
      <trkpt lat="59.9652521" lon="17.7078479">
        <ele>33.7834</ele>
        <time>2013-05-09T17:05:23Z</time>
      </trkpt>
      <trkpt lat="59.9651824" lon="17.7077918">
        <ele>34.2642</ele>
        <time>2013-05-09T17:05:24Z</time>
      </trkpt>
      <trkpt lat="59.9651134" lon="17.7077354">
        <ele>34.2642</ele>
        <time>2013-05-09T17:05:25Z</time>
      </trkpt>
      <trkpt lat="59.9650442" lon="17.7076804">
        <ele>34.2642</ele>
        <time>2013-05-09T17:05:26Z</time>
      </trkpt>
      <trkpt lat="59.9649752" lon="17.7076271">
        <ele>34.7449</ele>
        <time>2013-05-09T17:05:27Z</time>
      </trkpt>
      <trkpt lat="59.9649063" lon="17.7075734">
        <ele>34.7449</ele>
        <time>2013-05-09T17:05:28Z</time>
      </trkpt>
      <trkpt lat="59.9648378" lon="17.7075195">
        <ele>35.2255</ele>
        <time>2013-05-09T17:05:29Z</time>
      </trkpt>
      <trkpt lat="59.9647691" lon="17.7074688">
        <ele>35.2255</ele>
        <time>2013-05-09T17:05:30Z</time>
      </trkpt>
      <trkpt lat="59.9647011" lon="17.7074224">
        <ele>35.2255</ele>
        <time>2013-05-09T17:05:31Z</time>
      </trkpt>
      <trkpt lat="59.9646326" lon="17.7073794">
        <ele>35.7061</ele>
        <time>2013-05-09T17:05:32Z</time>
      </trkpt>
      <trkpt lat="59.9645642" lon="17.7073395">
        <ele>35.7061</ele>
        <time>2013-05-09T17:05:33Z</time>
      </trkpt>
      <trkpt lat="59.9644955" lon="17.7073053">
        <ele>35.7061</ele>
        <time>2013-05-09T17:05:34Z</time>
      </trkpt>
      <trkpt lat="59.9644256" lon="17.7072769">
        <ele>35.2255</ele>
        <time>2013-05-09T17:05:35Z</time>
      </trkpt>
      <trkpt lat="59.9643557" lon="17.7072525">
        <ele>35.2255</ele>
        <time>2013-05-09T17:05:36Z</time>
      </trkpt>
      <trkpt lat="59.9642862" lon="17.7072314">
        <ele>35.2255</ele>
        <time>2013-05-09T17:05:37Z</time>
      </trkpt>
      <trkpt lat="59.9642179" lon="17.7072112">
        <ele>35.2255</ele>
        <time>2013-05-09T17:05:38Z</time>
      </trkpt>
      <trkpt lat="59.9641499" lon="17.7071943">
        <ele>35.2255</ele>
        <time>2013-05-09T17:05:39Z</time>
      </trkpt>
      <trkpt lat="59.9640812" lon="17.7071832">
        <ele>35.2255</ele>
        <time>2013-05-09T17:05:40Z</time>
      </trkpt>
      <trkpt lat="59.9640112" lon="17.707175">
        <ele>34.7449</ele>
        <time>2013-05-09T17:05:41Z</time>
      </trkpt>
      <trkpt lat="59.9639417" lon="17.7071668">
        <ele>34.7449</ele>
        <time>2013-05-09T17:05:42Z</time>
      </trkpt>
      <trkpt lat="59.9638722" lon="17.7071574">
        <ele>34.2642</ele>
        <time>2013-05-09T17:05:43Z</time>
      </trkpt>
      <trkpt lat="59.9638029" lon="17.7071472">
        <ele>34.2642</ele>
        <time>2013-05-09T17:05:44Z</time>
      </trkpt>
      <trkpt lat="59.9637335" lon="17.7071413">
        <ele>34.2642</ele>
        <time>2013-05-09T17:05:45Z</time>
      </trkpt>
      <trkpt lat="59.9636636" lon="17.7071375">
        <ele>33.7834</ele>
        <time>2013-05-09T17:05:46Z</time>
      </trkpt>
      <trkpt lat="59.9635947" lon="17.7071339">
        <ele>33.7834</ele>
        <time>2013-05-09T17:05:47Z</time>
      </trkpt>
      <trkpt lat="59.9635259" lon="17.7071301">
        <ele>33.7834</ele>
        <time>2013-05-09T17:05:48Z</time>
      </trkpt>
      <trkpt lat="59.9634574" lon="17.7071271">
        <ele>33.3029</ele>
        <time>2013-05-09T17:05:49Z</time>
      </trkpt>
      <trkpt lat="59.9633886" lon="17.7071235">
        <ele>33.3029</ele>
        <time>2013-05-09T17:05:50Z</time>
      </trkpt>
      <trkpt lat="59.96332" lon="17.7071231">
        <ele>33.3029</ele>
        <time>2013-05-09T17:05:51Z</time>
      </trkpt>
      <trkpt lat="59.9632517" lon="17.7071263">
        <ele>33.3029</ele>
        <time>2013-05-09T17:05:52Z</time>
      </trkpt>
      <trkpt lat="59.9631839" lon="17.7071285">
        <ele>33.3029</ele>
        <time>2013-05-09T17:05:53Z</time>
      </trkpt>
      <trkpt lat="59.9631169" lon="17.707129">
        <ele>33.3029</ele>
        <time>2013-05-09T17:05:54Z</time>
      </trkpt>
      <trkpt lat="59.9630501" lon="17.707131">
        <ele>32.8223</ele>
        <time>2013-05-09T17:05:55Z</time>
      </trkpt>
      <trkpt lat="59.9629845" lon="17.7071341">
        <ele>33.3029</ele>
        <time>2013-05-09T17:05:56Z</time>
      </trkpt>
      <trkpt lat="59.9629191" lon="17.7071355">
        <ele>33.3029</ele>
        <time>2013-05-09T17:05:57Z</time>
      </trkpt>
      <trkpt lat="59.9628539" lon="17.7071342">
        <ele>33.3029</ele>
        <time>2013-05-09T17:05:58Z</time>
      </trkpt>
      <trkpt lat="59.962789" lon="17.7071311">
        <ele>33.3029</ele>
        <time>2013-05-09T17:05:59Z</time>
      </trkpt>
      <trkpt lat="59.9627239" lon="17.707123">
        <ele>33.3029</ele>
        <time>2013-05-09T17:06:00Z</time>
      </trkpt>
      <trkpt lat="59.9626596" lon="17.7071121">
        <ele>33.3029</ele>
        <time>2013-05-09T17:06:01Z</time>
      </trkpt>
      <trkpt lat="59.9625964" lon="17.7070968">
        <ele>33.3029</ele>
        <time>2013-05-09T17:06:02Z</time>
      </trkpt>
      <trkpt lat="59.9625326" lon="17.7070771">
        <ele>33.3029</ele>
        <time>2013-05-09T17:06:03Z</time>
      </trkpt>
      <trkpt lat="59.9624689" lon="17.7070548">
        <ele>33.7834</ele>
        <time>2013-05-09T17:06:04Z</time>
      </trkpt>
      <trkpt lat="59.9624044" lon="17.7070298">
        <ele>33.3029</ele>
        <time>2013-05-09T17:06:05Z</time>
      </trkpt>
      <trkpt lat="59.9623417" lon="17.7070002">
        <ele>33.7834</ele>
        <time>2013-05-09T17:06:06Z</time>
      </trkpt>
      <trkpt lat="59.9622794" lon="17.7069689">
        <ele>33.7834</ele>
        <time>2013-05-09T17:06:07Z</time>
      </trkpt>
      <trkpt lat="59.9622171" lon="17.706937">
        <ele>33.7834</ele>
        <time>2013-05-09T17:06:08Z</time>
      </trkpt>
      <trkpt lat="59.962157" lon="17.7069062">
        <ele>33.3029</ele>
        <time>2013-05-09T17:06:09Z</time>
      </trkpt>
      <trkpt lat="59.9620956" lon="17.706873">
        <ele>33.3029</ele>
        <time>2013-05-09T17:06:10Z</time>
      </trkpt>
      <trkpt lat="59.9620307" lon="17.7068341">
        <ele>33.3029</ele>
        <time>2013-05-09T17:06:11Z</time>
      </trkpt>
      <trkpt lat="59.9619666" lon="17.7067891">
        <ele>33.3029</ele>
        <time>2013-05-09T17:06:12Z</time>
      </trkpt>
      <trkpt lat="59.9619023" lon="17.7067443">
        <ele>33.3029</ele>
        <time>2013-05-09T17:06:13Z</time>
      </trkpt>
      <trkpt lat="59.9618384" lon="17.7066927">
        <ele>33.3029</ele>
        <time>2013-05-09T17:06:14Z</time>
      </trkpt>
      <trkpt lat="59.9617758" lon="17.7066376">
        <ele>33.3029</ele>
        <time>2013-05-09T17:06:15Z</time>
      </trkpt>
      <trkpt lat="59.9617144" lon="17.7065793">
        <ele>33.3029</ele>
        <time>2013-05-09T17:06:16Z</time>
      </trkpt>
      <trkpt lat="59.9616541" lon="17.7065135">
        <ele>33.3029</ele>
        <time>2013-05-09T17:06:17Z</time>
      </trkpt>
      <trkpt lat="59.9615952" lon="17.7064369">
        <ele>33.7834</ele>
        <time>2013-05-09T17:06:18Z</time>
      </trkpt>
      <trkpt lat="59.9615376" lon="17.7063535">
        <ele>33.7834</ele>
        <time>2013-05-09T17:06:19Z</time>
      </trkpt>
      <trkpt lat="59.9614795" lon="17.7062621">
        <ele>34.2642</ele>
        <time>2013-05-09T17:06:20Z</time>
      </trkpt>
      <trkpt lat="59.9614259" lon="17.7061675">
        <ele>34.7449</ele>
        <time>2013-05-09T17:06:21Z</time>
      </trkpt>
      <trkpt lat="59.961373" lon="17.7060752">
        <ele>34.2642</ele>
        <time>2013-05-09T17:06:22Z</time>
      </trkpt>
      <trkpt lat="59.9613206" lon="17.7059792">
        <ele>34.7449</ele>
        <time>2013-05-09T17:06:23Z</time>
      </trkpt>
      <trkpt lat="59.9612688" lon="17.705881">
        <ele>34.7449</ele>
        <time>2013-05-09T17:06:24Z</time>
      </trkpt>
      <trkpt lat="59.961218" lon="17.7057811">
        <ele>34.7449</ele>
        <time>2013-05-09T17:06:25Z</time>
      </trkpt>
      <trkpt lat="59.9611657" lon="17.7056825">
        <ele>34.7449</ele>
        <time>2013-05-09T17:06:26Z</time>
      </trkpt>
      <trkpt lat="59.9611124" lon="17.7055842">
        <ele>35.2255</ele>
        <time>2013-05-09T17:06:27Z</time>
      </trkpt>
      <trkpt lat="59.9610601" lon="17.7054916">
        <ele>35.2255</ele>
        <time>2013-05-09T17:06:28Z</time>
      </trkpt>
      <trkpt lat="59.9610006" lon="17.7054077">
        <ele>35.2255</ele>
        <time>2013-05-09T17:06:29Z</time>
      </trkpt>
      <trkpt lat="59.9609426" lon="17.705317">
        <ele>35.2255</ele>
        <time>2013-05-09T17:06:30Z</time>
      </trkpt>
      <trkpt lat="59.9608824" lon="17.7052343">
        <ele>35.7061</ele>
        <time>2013-05-09T17:06:31Z</time>
      </trkpt>
      <trkpt lat="59.9608195" lon="17.7051521">
        <ele>35.7061</ele>
        <time>2013-05-09T17:06:32Z</time>
      </trkpt>
      <trkpt lat="59.9607611" lon="17.7051061">
        <ele>35.7061</ele>
        <time>2013-05-09T17:06:33Z</time>
      </trkpt>
      <trkpt lat="59.9606938" lon="17.7050171">
        <ele>36.1868</ele>
        <time>2013-05-09T17:06:34Z</time>
      </trkpt>
      <trkpt lat="59.9606426" lon="17.7049144">
        <ele>36.1868</ele>
        <time>2013-05-09T17:06:35Z</time>
      </trkpt>
      <trkpt lat="59.9605856" lon="17.70482">
        <ele>36.1868</ele>
        <time>2013-05-09T17:06:36Z</time>
      </trkpt>
      <trkpt lat="59.9605269" lon="17.7047409">
        <ele>36.1868</ele>
        <time>2013-05-09T17:06:37Z</time>
      </trkpt>
      <trkpt lat="59.9604648" lon="17.7046756">
        <ele>36.1868</ele>
        <time>2013-05-09T17:06:38Z</time>
      </trkpt>
      <trkpt lat="59.9604038" lon="17.7046057">
        <ele>36.1868</ele>
        <time>2013-05-09T17:06:39Z</time>
      </trkpt>
      <trkpt lat="59.9603405" lon="17.7045175">
        <ele>35.7061</ele>
        <time>2013-05-09T17:06:40Z</time>
      </trkpt>
      <trkpt lat="59.9602742" lon="17.704432">
        <ele>35.7061</ele>
        <time>2013-05-09T17:06:41Z</time>
      </trkpt>
      <trkpt lat="59.9602134" lon="17.7043589">
        <ele>35.7061</ele>
        <time>2013-05-09T17:06:42Z</time>
      </trkpt>
      <trkpt lat="59.9601562" lon="17.7042809">
        <ele>35.2255</ele>
        <time>2013-05-09T17:06:43Z</time>
      </trkpt>
      <trkpt lat="59.9601047" lon="17.7041912">
        <ele>35.2255</ele>
        <time>2013-05-09T17:06:44Z</time>
      </trkpt>
      <trkpt lat="59.960057" lon="17.7040947">
        <ele>35.2255</ele>
        <time>2013-05-09T17:06:45Z</time>
      </trkpt>
      <trkpt lat="59.9600126" lon="17.7039919">
        <ele>34.7449</ele>
        <time>2013-05-09T17:06:46Z</time>
      </trkpt>
      <trkpt lat="59.9599738" lon="17.7038788">
        <ele>34.7449</ele>
        <time>2013-05-09T17:06:47Z</time>
      </trkpt>
      <trkpt lat="59.9599379" lon="17.7037599">
        <ele>34.7449</ele>
        <time>2013-05-09T17:06:48Z</time>
      </trkpt>
      <trkpt lat="59.9599023" lon="17.7036417">
        <ele>34.7449</ele>
        <time>2013-05-09T17:06:49Z</time>
      </trkpt>
      <trkpt lat="59.9598685" lon="17.7035256">
        <ele>35.2255</ele>
        <time>2013-05-09T17:06:50Z</time>
      </trkpt>
      <trkpt lat="59.9598361" lon="17.703411">
        <ele>35.2255</ele>
        <time>2013-05-09T17:06:51Z</time>
      </trkpt>
      <trkpt lat="59.9598023" lon="17.7032966">
        <ele>35.2255</ele>
        <time>2013-05-09T17:06:52Z</time>
      </trkpt>
      <trkpt lat="59.9597664" lon="17.7031818">
        <ele>35.2255</ele>
        <time>2013-05-09T17:06:53Z</time>
      </trkpt>
      <trkpt lat="59.9597303" lon="17.7030724">
        <ele>35.7061</ele>
        <time>2013-05-09T17:06:54Z</time>
      </trkpt>
      <trkpt lat="59.9596981" lon="17.7029531">
        <ele>35.7061</ele>
        <time>2013-05-09T17:06:55Z</time>
      </trkpt>
      <trkpt lat="59.9596631" lon="17.702838">
        <ele>35.7061</ele>
        <time>2013-05-09T17:06:56Z</time>
      </trkpt>
      <trkpt lat="59.9596293" lon="17.7027228">
        <ele>35.7061</ele>
        <time>2013-05-09T17:06:57Z</time>
      </trkpt>
      <trkpt lat="59.9595978" lon="17.7026123">
        <ele>35.7061</ele>
        <time>2013-05-09T17:06:58Z</time>
      </trkpt>
      <trkpt lat="59.9595671" lon="17.7025005">
        <ele>35.7061</ele>
        <time>2013-05-09T17:06:59Z</time>
      </trkpt>
      <trkpt lat="59.9595361" lon="17.7023855">
        <ele>35.2255</ele>
        <time>2013-05-09T17:07:00Z</time>
      </trkpt>
      <trkpt lat="59.959505" lon="17.7022684">
        <ele>35.2255</ele>
        <time>2013-05-09T17:07:01Z</time>
      </trkpt>
      <trkpt lat="59.9594734" lon="17.7021493">
        <ele>35.2255</ele>
        <time>2013-05-09T17:07:02Z</time>
      </trkpt>
      <trkpt lat="59.9594423" lon="17.7020304">
        <ele>35.2255</ele>
        <time>2013-05-09T17:07:03Z</time>
      </trkpt>
      <trkpt lat="59.9594043" lon="17.7019087">
        <ele>35.2255</ele>
        <time>2013-05-09T17:07:04Z</time>
      </trkpt>
      <trkpt lat="59.9593745" lon="17.7017899">
        <ele>35.2255</ele>
        <time>2013-05-09T17:07:05Z</time>
      </trkpt>
      <trkpt lat="59.9593452" lon="17.7016691">
        <ele>35.7061</ele>
        <time>2013-05-09T17:07:06Z</time>
      </trkpt>
      <trkpt lat="59.9593163" lon="17.7015437">
        <ele>35.7061</ele>
        <time>2013-05-09T17:07:07Z</time>
      </trkpt>
      <trkpt lat="59.9592916" lon="17.7014158">
        <ele>35.7061</ele>
        <time>2013-05-09T17:07:08Z</time>
      </trkpt>
      <trkpt lat="59.9592704" lon="17.7012879">
        <ele>35.7061</ele>
        <time>2013-05-09T17:07:09Z</time>
      </trkpt>
      <trkpt lat="59.9592512" lon="17.7011552">
        <ele>35.2255</ele>
        <time>2013-05-09T17:07:10Z</time>
      </trkpt>
      <trkpt lat="59.9592332" lon="17.701016">
        <ele>35.2255</ele>
        <time>2013-05-09T17:07:11Z</time>
      </trkpt>
      <trkpt lat="59.959216" lon="17.7008724">
        <ele>35.2255</ele>
        <time>2013-05-09T17:07:12Z</time>
      </trkpt>
      <trkpt lat="59.9591983" lon="17.7007236">
        <ele>35.2255</ele>
        <time>2013-05-09T17:07:13Z</time>
      </trkpt>
      <trkpt lat="59.9591803" lon="17.7005698">
        <ele>34.7449</ele>
        <time>2013-05-09T17:07:14Z</time>
      </trkpt>
      <trkpt lat="59.9591631" lon="17.7004133">
        <ele>34.7449</ele>
        <time>2013-05-09T17:07:15Z</time>
      </trkpt>
      <trkpt lat="59.9591481" lon="17.7002554">
        <ele>34.7449</ele>
        <time>2013-05-09T17:07:16Z</time>
      </trkpt>
      <trkpt lat="59.9591358" lon="17.7000967">
        <ele>34.7449</ele>
        <time>2013-05-09T17:07:17Z</time>
      </trkpt>
      <trkpt lat="59.9591228" lon="17.6999405">
        <ele>34.2642</ele>
        <time>2013-05-09T17:07:18Z</time>
      </trkpt>
      <trkpt lat="59.9591092" lon="17.6997851">
        <ele>34.2642</ele>
        <time>2013-05-09T17:07:19Z</time>
      </trkpt>
      <trkpt lat="59.9590978" lon="17.699631">
        <ele>34.2642</ele>
        <time>2013-05-09T17:07:20Z</time>
      </trkpt>
      <trkpt lat="59.9590881" lon="17.6994793">
        <ele>34.2642</ele>
        <time>2013-05-09T17:07:21Z</time>
      </trkpt>
      <trkpt lat="59.9590796" lon="17.6993303">
        <ele>34.2642</ele>
        <time>2013-05-09T17:07:22Z</time>
      </trkpt>
      <trkpt lat="59.959073" lon="17.6991897">
        <ele>34.2642</ele>
        <time>2013-05-09T17:07:23Z</time>
      </trkpt>
      <trkpt lat="59.9590718" lon="17.6990558">
        <ele>34.7449</ele>
        <time>2013-05-09T17:07:24Z</time>
      </trkpt>
      <trkpt lat="59.9590697" lon="17.698919">
        <ele>34.7449</ele>
        <time>2013-05-09T17:07:25Z</time>
      </trkpt>
      <trkpt lat="59.9590678" lon="17.698788">
        <ele>34.7449</ele>
        <time>2013-05-09T17:07:26Z</time>
      </trkpt>
      <trkpt lat="59.9590668" lon="17.6986473">
        <ele>34.7449</ele>
        <time>2013-05-09T17:07:27Z</time>
      </trkpt>
      <trkpt lat="59.9590636" lon="17.698509">
        <ele>34.2642</ele>
        <time>2013-05-09T17:07:28Z</time>
      </trkpt>
      <trkpt lat="59.959059" lon="17.6983718">
        <ele>34.2642</ele>
        <time>2013-05-09T17:07:29Z</time>
      </trkpt>
      <trkpt lat="59.9590489" lon="17.698221">
        <ele>33.7834</ele>
        <time>2013-05-09T17:07:30Z</time>
      </trkpt>
      <trkpt lat="59.9590388" lon="17.6980817">
        <ele>33.7834</ele>
        <time>2013-05-09T17:07:31Z</time>
      </trkpt>
      <trkpt lat="59.9590279" lon="17.6979449">
        <ele>33.7834</ele>
        <time>2013-05-09T17:07:32Z</time>
      </trkpt>
      <trkpt lat="59.959017" lon="17.6978109">
        <ele>34.2642</ele>
        <time>2013-05-09T17:07:33Z</time>
      </trkpt>
      <trkpt lat="59.9589995" lon="17.6976693">
        <ele>33.7834</ele>
        <time>2013-05-09T17:07:34Z</time>
      </trkpt>
      <trkpt lat="59.9589798" lon="17.6975246">
        <ele>33.7834</ele>
        <time>2013-05-09T17:07:35Z</time>
      </trkpt>
      <trkpt lat="59.9589581" lon="17.697378">
        <ele>33.7834</ele>
        <time>2013-05-09T17:07:36Z</time>
      </trkpt>
      <trkpt lat="59.9589329" lon="17.6972314">
        <ele>33.7834</ele>
        <time>2013-05-09T17:07:37Z</time>
      </trkpt>
      <trkpt lat="59.9589039" lon="17.6970862">
        <ele>33.3029</ele>
        <time>2013-05-09T17:07:38Z</time>
      </trkpt>
      <trkpt lat="59.9588737" lon="17.6969418">
        <ele>33.3029</ele>
        <time>2013-05-09T17:07:39Z</time>
      </trkpt>
      <trkpt lat="59.9588409" lon="17.6968003">
        <ele>33.3029</ele>
        <time>2013-05-09T17:07:40Z</time>
      </trkpt>
      <trkpt lat="59.958803" lon="17.6966621">
        <ele>32.8223</ele>
        <time>2013-05-09T17:07:41Z</time>
      </trkpt>
      <trkpt lat="59.9587605" lon="17.6965247">
        <ele>32.3416</ele>
        <time>2013-05-09T17:07:42Z</time>
      </trkpt>
      <trkpt lat="59.9587159" lon="17.696394">
        <ele>32.3416</ele>
        <time>2013-05-09T17:07:43Z</time>
      </trkpt>
      <trkpt lat="59.95867" lon="17.6962662">
        <ele>31.8607</ele>
        <time>2013-05-09T17:07:44Z</time>
      </trkpt>
      <trkpt lat="59.9586228" lon="17.6961392">
        <ele>31.3801</ele>
        <time>2013-05-09T17:07:45Z</time>
      </trkpt>
      <trkpt lat="59.9585744" lon="17.6960138">
        <ele>30.8995</ele>
        <time>2013-05-09T17:07:46Z</time>
      </trkpt>
      <trkpt lat="59.9585261" lon="17.6958896">
        <ele>30.8995</ele>
        <time>2013-05-09T17:07:47Z</time>
      </trkpt>
      <trkpt lat="59.9584779" lon="17.6957663">
        <ele>30.4188</ele>
        <time>2013-05-09T17:07:48Z</time>
      </trkpt>
      <trkpt lat="59.9584289" lon="17.6956445">
        <ele>30.4188</ele>
        <time>2013-05-09T17:07:49Z</time>
      </trkpt>
      <trkpt lat="59.9583797" lon="17.6955239">
        <ele>29.9381</ele>
        <time>2013-05-09T17:07:50Z</time>
      </trkpt>
      <trkpt lat="59.9583322" lon="17.6954036">
        <ele>29.9381</ele>
        <time>2013-05-09T17:07:51Z</time>
      </trkpt>
      <trkpt lat="59.9582867" lon="17.6952829">
        <ele>29.9381</ele>
        <time>2013-05-09T17:07:52Z</time>
      </trkpt>
      <trkpt lat="59.9582424" lon="17.6951618">
        <ele>29.4575</ele>
        <time>2013-05-09T17:07:53Z</time>
      </trkpt>
      <trkpt lat="59.9581987" lon="17.6950416">
        <ele>29.4575</ele>
        <time>2013-05-09T17:07:54Z</time>
      </trkpt>
      <trkpt lat="59.9581561" lon="17.6949214">
        <ele>29.4575</ele>
        <time>2013-05-09T17:07:55Z</time>
      </trkpt>
      <trkpt lat="59.958114" lon="17.6948014">
        <ele>29.4575</ele>
        <time>2013-05-09T17:07:56Z</time>
      </trkpt>
      <trkpt lat="59.9580715" lon="17.6946827">
        <ele>29.4575</ele>
        <time>2013-05-09T17:07:57Z</time>
      </trkpt>
      <trkpt lat="59.9580295" lon="17.6945621">
        <ele>29.4575</ele>
        <time>2013-05-09T17:07:58Z</time>
      </trkpt>
      <trkpt lat="59.9579873" lon="17.6944398">
        <ele>28.9769</ele>
        <time>2013-05-09T17:07:59Z</time>
      </trkpt>
      <trkpt lat="59.9579436" lon="17.6943185">
        <ele>28.9769</ele>
        <time>2013-05-09T17:08:00Z</time>
      </trkpt>
      <trkpt lat="59.9578992" lon="17.6941978">
        <ele>28.9769</ele>
        <time>2013-05-09T17:08:01Z</time>
      </trkpt>
      <trkpt lat="59.957856" lon="17.6940766">
        <ele>28.9769</ele>
        <time>2013-05-09T17:08:02Z</time>
      </trkpt>
      <trkpt lat="59.957814" lon="17.6939553">
        <ele>28.9769</ele>
        <time>2013-05-09T17:08:03Z</time>
      </trkpt>
      <trkpt lat="59.9577726" lon="17.6938327">
        <ele>28.9769</ele>
        <time>2013-05-09T17:08:04Z</time>
      </trkpt>
      <trkpt lat="59.9577301" lon="17.6937086">
        <ele>28.9769</ele>
        <time>2013-05-09T17:08:05Z</time>
      </trkpt>
      <trkpt lat="59.9576864" lon="17.693584">
        <ele>28.9769</ele>
        <time>2013-05-09T17:08:06Z</time>
      </trkpt>
      <trkpt lat="59.9576428" lon="17.6934602">
        <ele>28.9769</ele>
        <time>2013-05-09T17:08:07Z</time>
      </trkpt>
      <trkpt lat="59.9575992" lon="17.6933368">
        <ele>28.9769</ele>
        <time>2013-05-09T17:08:08Z</time>
      </trkpt>
      <trkpt lat="59.9575561" lon="17.6932124">
        <ele>28.9769</ele>
        <time>2013-05-09T17:08:09Z</time>
      </trkpt>
      <trkpt lat="59.9575128" lon="17.6930868">
        <ele>28.9769</ele>
        <time>2013-05-09T17:08:10Z</time>
      </trkpt>
      <trkpt lat="59.9574697" lon="17.6929619">
        <ele>28.9769</ele>
        <time>2013-05-09T17:08:11Z</time>
      </trkpt>
      <trkpt lat="59.9574265" lon="17.6928368">
        <ele>28.9769</ele>
        <time>2013-05-09T17:08:12Z</time>
      </trkpt>
      <trkpt lat="59.9573832" lon="17.6927106">
        <ele>28.9769</ele>
        <time>2013-05-09T17:08:13Z</time>
      </trkpt>
      <trkpt lat="59.9573387" lon="17.6925842">
        <ele>29.4575</ele>
        <time>2013-05-09T17:08:14Z</time>
      </trkpt>
      <trkpt lat="59.9572936" lon="17.6924597">
        <ele>29.4575</ele>
        <time>2013-05-09T17:08:15Z</time>
      </trkpt>
      <trkpt lat="59.9572496" lon="17.6923376">
        <ele>29.4575</ele>
        <time>2013-05-09T17:08:16Z</time>
      </trkpt>
      <trkpt lat="59.9572081" lon="17.6922154">
        <ele>29.4575</ele>
        <time>2013-05-09T17:08:17Z</time>
      </trkpt>
      <trkpt lat="59.9571672" lon="17.6920977">
        <ele>29.4575</ele>
        <time>2013-05-09T17:08:18Z</time>
      </trkpt>
      <trkpt lat="59.9571276" lon="17.6919849">
        <ele>29.4575</ele>
        <time>2013-05-09T17:08:19Z</time>
      </trkpt>
      <trkpt lat="59.957088" lon="17.6918761">
        <ele>29.4575</ele>
        <time>2013-05-09T17:08:20Z</time>
      </trkpt>
      <trkpt lat="59.9570496" lon="17.6917679">
        <ele>29.9381</ele>
        <time>2013-05-09T17:08:21Z</time>
      </trkpt>
      <trkpt lat="59.9570124" lon="17.6916586">
        <ele>29.9381</ele>
        <time>2013-05-09T17:08:22Z</time>
      </trkpt>
      <trkpt lat="59.9569751" lon="17.6915482">
        <ele>29.9381</ele>
        <time>2013-05-09T17:08:23Z</time>
      </trkpt>
      <trkpt lat="59.9569373" lon="17.6914368">
        <ele>30.4188</ele>
        <time>2013-05-09T17:08:24Z</time>
      </trkpt>
      <trkpt lat="59.9569006" lon="17.691325">
        <ele>30.4188</ele>
        <time>2013-05-09T17:08:25Z</time>
      </trkpt>
      <trkpt lat="59.9568645" lon="17.6912124">
        <ele>30.8995</ele>
        <time>2013-05-09T17:08:26Z</time>
      </trkpt>
      <trkpt lat="59.9568284" lon="17.6911017">
        <ele>31.3801</ele>
        <time>2013-05-09T17:08:27Z</time>
      </trkpt>
      <trkpt lat="59.9567904" lon="17.6909955">
        <ele>31.3801</ele>
        <time>2013-05-09T17:08:28Z</time>
      </trkpt>
      <trkpt lat="59.9567522" lon="17.6908906">
        <ele>31.8607</ele>
        <time>2013-05-09T17:08:29Z</time>
      </trkpt>
      <trkpt lat="59.9567145" lon="17.6907843">
        <ele>32.3416</ele>
        <time>2013-05-09T17:08:30Z</time>
      </trkpt>
      <trkpt lat="59.9566751" lon="17.6906832">
        <ele>32.3416</ele>
        <time>2013-05-09T17:08:31Z</time>
      </trkpt>
      <trkpt lat="59.956628" lon="17.6905916">
        <ele>32.8223</ele>
        <time>2013-05-09T17:08:32Z</time>
      </trkpt>
      <trkpt lat="59.9565948" lon="17.6904847">
        <ele>32.8223</ele>
        <time>2013-05-09T17:08:33Z</time>
      </trkpt>
      <trkpt lat="59.9565606" lon="17.6903818">
        <ele>33.3029</ele>
        <time>2013-05-09T17:08:34Z</time>
      </trkpt>
      <trkpt lat="59.9565249" lon="17.6902664">
        <ele>33.3029</ele>
        <time>2013-05-09T17:08:35Z</time>
      </trkpt>
      <trkpt lat="59.9564902" lon="17.6901512">
        <ele>33.7834</ele>
        <time>2013-05-09T17:08:36Z</time>
      </trkpt>
      <trkpt lat="59.9564563" lon="17.6900314">
        <ele>33.7834</ele>
        <time>2013-05-09T17:08:37Z</time>
      </trkpt>
      <trkpt lat="59.9564268" lon="17.6899072">
        <ele>33.7834</ele>
        <time>2013-05-09T17:08:38Z</time>
      </trkpt>
      <trkpt lat="59.9563964" lon="17.6897842">
        <ele>34.2642</ele>
        <time>2013-05-09T17:08:39Z</time>
      </trkpt>
      <trkpt lat="59.9563668" lon="17.6896612">
        <ele>34.2642</ele>
        <time>2013-05-09T17:08:40Z</time>
      </trkpt>
      <trkpt lat="59.9563379" lon="17.6895378">
        <ele>34.2642</ele>
        <time>2013-05-09T17:08:41Z</time>
      </trkpt>
      <trkpt lat="59.9562979" lon="17.6893994">
        <ele>34.2642</ele>
        <time>2013-05-09T17:08:42Z</time>
      </trkpt>
      <trkpt lat="59.9562586" lon="17.6892695">
        <ele>34.2642</ele>
        <time>2013-05-09T17:08:43Z</time>
      </trkpt>
      <trkpt lat="59.9562238" lon="17.6891513">
        <ele>34.2642</ele>
        <time>2013-05-09T17:08:44Z</time>
      </trkpt>
      <trkpt lat="59.9561917" lon="17.6890377">
        <ele>34.2642</ele>
        <time>2013-05-09T17:08:45Z</time>
      </trkpt>
      <trkpt lat="59.9561549" lon="17.6889312">
        <ele>34.2642</ele>
        <time>2013-05-09T17:08:46Z</time>
      </trkpt>
      <trkpt lat="59.9561186" lon="17.6888274">
        <ele>34.2642</ele>
        <time>2013-05-09T17:08:47Z</time>
      </trkpt>
      <trkpt lat="59.9560849" lon="17.6887212">
        <ele>33.7834</ele>
        <time>2013-05-09T17:08:48Z</time>
      </trkpt>
      <trkpt lat="59.9560552" lon="17.6886073">
        <ele>33.7834</ele>
        <time>2013-05-09T17:08:49Z</time>
      </trkpt>
      <trkpt lat="59.9560327" lon="17.6884853">
        <ele>33.7834</ele>
        <time>2013-05-09T17:08:50Z</time>
      </trkpt>
      <trkpt lat="59.9560142" lon="17.6883602">
        <ele>33.7834</ele>
        <time>2013-05-09T17:08:51Z</time>
      </trkpt>
      <trkpt lat="59.9559965" lon="17.6882353">
        <ele>33.7834</ele>
        <time>2013-05-09T17:08:52Z</time>
      </trkpt>
      <trkpt lat="59.9559778" lon="17.6881097">
        <ele>33.7834</ele>
        <time>2013-05-09T17:08:53Z</time>
      </trkpt>
      <trkpt lat="59.9559585" lon="17.6879827">
        <ele>33.7834</ele>
        <time>2013-05-09T17:08:54Z</time>
      </trkpt>
      <trkpt lat="59.9559385" lon="17.6878558">
        <ele>33.7834</ele>
        <time>2013-05-09T17:08:55Z</time>
      </trkpt>
      <trkpt lat="59.9559194" lon="17.6877289">
        <ele>33.7834</ele>
        <time>2013-05-09T17:08:56Z</time>
      </trkpt>
      <trkpt lat="59.9559008" lon="17.6876026">
        <ele>34.2642</ele>
        <time>2013-05-09T17:08:57Z</time>
      </trkpt>
      <trkpt lat="59.9558818" lon="17.6874777">
        <ele>34.2642</ele>
        <time>2013-05-09T17:08:58Z</time>
      </trkpt>
      <trkpt lat="59.9558629" lon="17.6873532">
        <ele>34.2642</ele>
        <time>2013-05-09T17:08:59Z</time>
      </trkpt>
      <trkpt lat="59.9558437" lon="17.6872284">
        <ele>34.2642</ele>
        <time>2013-05-09T17:09:00Z</time>
      </trkpt>
      <trkpt lat="59.9558238" lon="17.6871035">
        <ele>34.2642</ele>
        <time>2013-05-09T17:09:01Z</time>
      </trkpt>
      <trkpt lat="59.9558046" lon="17.6869777">
        <ele>34.2642</ele>
        <time>2013-05-09T17:09:02Z</time>
      </trkpt>
      <trkpt lat="59.9557868" lon="17.6868504">
        <ele>34.7449</ele>
        <time>2013-05-09T17:09:03Z</time>
      </trkpt>
      <trkpt lat="59.9557705" lon="17.6867236">
        <ele>34.7449</ele>
        <time>2013-05-09T17:09:04Z</time>
      </trkpt>
      <trkpt lat="59.9557531" lon="17.6865972">
        <ele>34.7449</ele>
        <time>2013-05-09T17:09:05Z</time>
      </trkpt>
      <trkpt lat="59.9557364" lon="17.6864702">
        <ele>34.7449</ele>
        <time>2013-05-09T17:09:06Z</time>
      </trkpt>
      <trkpt lat="59.955719" lon="17.6863422">
        <ele>34.7449</ele>
        <time>2013-05-09T17:09:07Z</time>
      </trkpt>
      <trkpt lat="59.9557019" lon="17.6862142">
        <ele>34.7449</ele>
        <time>2013-05-09T17:09:08Z</time>
      </trkpt>
      <trkpt lat="59.955684" lon="17.6860856">
        <ele>35.2255</ele>
        <time>2013-05-09T17:09:09Z</time>
      </trkpt>
      <trkpt lat="59.9556653" lon="17.6859567">
        <ele>35.2255</ele>
        <time>2013-05-09T17:09:10Z</time>
      </trkpt>
      <trkpt lat="59.9556474" lon="17.6858272">
        <ele>35.2255</ele>
        <time>2013-05-09T17:09:11Z</time>
      </trkpt>
      <trkpt lat="59.9556298" lon="17.6856968">
        <ele>35.2255</ele>
        <time>2013-05-09T17:09:12Z</time>
      </trkpt>
      <trkpt lat="59.9556116" lon="17.6855653">
        <ele>35.2255</ele>
        <time>2013-05-09T17:09:13Z</time>
      </trkpt>
      <trkpt lat="59.9555938" lon="17.6854319">
        <ele>35.2255</ele>
        <time>2013-05-09T17:09:14Z</time>
      </trkpt>
      <trkpt lat="59.9555754" lon="17.6852974">
        <ele>35.2255</ele>
        <time>2013-05-09T17:09:15Z</time>
      </trkpt>
      <trkpt lat="59.9555558" lon="17.6851626">
        <ele>35.2255</ele>
        <time>2013-05-09T17:09:16Z</time>
      </trkpt>
      <trkpt lat="59.9555358" lon="17.6850265">
        <ele>35.2255</ele>
        <time>2013-05-09T17:09:17Z</time>
      </trkpt>
      <trkpt lat="59.9555153" lon="17.6848905">
        <ele>35.2255</ele>
        <time>2013-05-09T17:09:18Z</time>
      </trkpt>
      <trkpt lat="59.955494" lon="17.684755">
        <ele>34.7449</ele>
        <time>2013-05-09T17:09:19Z</time>
      </trkpt>
      <trkpt lat="59.9554724" lon="17.6846188">
        <ele>35.2255</ele>
        <time>2013-05-09T17:09:20Z</time>
      </trkpt>
      <trkpt lat="59.9554495" lon="17.684482">
        <ele>35.2255</ele>
        <time>2013-05-09T17:09:21Z</time>
      </trkpt>
      <trkpt lat="59.9554261" lon="17.6843457">
        <ele>35.2255</ele>
        <time>2013-05-09T17:09:22Z</time>
      </trkpt>
      <trkpt lat="59.9554023" lon="17.6842105">
        <ele>35.2255</ele>
        <time>2013-05-09T17:09:23Z</time>
      </trkpt>
      <trkpt lat="59.9553773" lon="17.6840755">
        <ele>35.2255</ele>
        <time>2013-05-09T17:09:24Z</time>
      </trkpt>
      <trkpt lat="59.9553507" lon="17.6839412">
        <ele>35.2255</ele>
        <time>2013-05-09T17:09:25Z</time>
      </trkpt>
      <trkpt lat="59.9553225" lon="17.683808">
        <ele>35.2255</ele>
        <time>2013-05-09T17:09:26Z</time>
      </trkpt>
      <trkpt lat="59.9552929" lon="17.6836766">
        <ele>34.7449</ele>
        <time>2013-05-09T17:09:27Z</time>
      </trkpt>
      <trkpt lat="59.9552625" lon="17.6835475">
        <ele>34.7449</ele>
        <time>2013-05-09T17:09:28Z</time>
      </trkpt>
      <trkpt lat="59.9552322" lon="17.6834207">
        <ele>34.7449</ele>
        <time>2013-05-09T17:09:29Z</time>
      </trkpt>
      <trkpt lat="59.9552013" lon="17.6832969">
        <ele>34.7449</ele>
        <time>2013-05-09T17:09:30Z</time>
      </trkpt>
      <trkpt lat="59.9551702" lon="17.6831752">
        <ele>34.7449</ele>
        <time>2013-05-09T17:09:31Z</time>
      </trkpt>
      <trkpt lat="59.9551392" lon="17.6830534">
        <ele>34.7449</ele>
        <time>2013-05-09T17:09:32Z</time>
      </trkpt>
      <trkpt lat="59.955108" lon="17.6829312">
        <ele>34.7449</ele>
        <time>2013-05-09T17:09:33Z</time>
      </trkpt>
      <trkpt lat="59.9550756" lon="17.6828123">
        <ele>34.7449</ele>
        <time>2013-05-09T17:09:34Z</time>
      </trkpt>
      <trkpt lat="59.9550357" lon="17.6826833">
        <ele>34.7449</ele>
        <time>2013-05-09T17:09:35Z</time>
      </trkpt>
      <trkpt lat="59.9549984" lon="17.6825597">
        <ele>34.7449</ele>
        <time>2013-05-09T17:09:36Z</time>
      </trkpt>
      <trkpt lat="59.9549625" lon="17.6824363">
        <ele>34.7449</ele>
        <time>2013-05-09T17:09:37Z</time>
      </trkpt>
      <trkpt lat="59.9549268" lon="17.6823192">
        <ele>34.7449</ele>
        <time>2013-05-09T17:09:38Z</time>
      </trkpt>
      <trkpt lat="59.9548912" lon="17.6822072">
        <ele>34.2642</ele>
        <time>2013-05-09T17:09:39Z</time>
      </trkpt>
      <trkpt lat="59.9548574" lon="17.6821034">
        <ele>34.2642</ele>
        <time>2013-05-09T17:09:40Z</time>
      </trkpt>
      <trkpt lat="59.9548201" lon="17.6820198">
        <ele>34.2642</ele>
        <time>2013-05-09T17:09:41Z</time>
      </trkpt>
      <trkpt lat="59.9547718" lon="17.6819645">
        <ele>34.2642</ele>
        <time>2013-05-09T17:09:42Z</time>
      </trkpt>
      <trkpt lat="59.9547206" lon="17.681912">
        <ele>34.2642</ele>
        <time>2013-05-09T17:09:43Z</time>
      </trkpt>
      <trkpt lat="59.9546761" lon="17.681834">
        <ele>34.2642</ele>
        <time>2013-05-09T17:09:44Z</time>
      </trkpt>
      <trkpt lat="59.9546393" lon="17.6817418">
        <ele>34.2642</ele>
        <time>2013-05-09T17:09:45Z</time>
      </trkpt>
      <trkpt lat="59.9546026" lon="17.6816424">
        <ele>34.2642</ele>
        <time>2013-05-09T17:09:46Z</time>
      </trkpt>
      <trkpt lat="59.9545643" lon="17.6815401">
        <ele>34.2642</ele>
        <time>2013-05-09T17:09:47Z</time>
      </trkpt>
      <trkpt lat="59.9545258" lon="17.6814342">
        <ele>34.2642</ele>
        <time>2013-05-09T17:09:48Z</time>
      </trkpt>
      <trkpt lat="59.9544882" lon="17.6813223">
        <ele>33.7834</ele>
        <time>2013-05-09T17:09:49Z</time>
      </trkpt>
      <trkpt lat="59.9544522" lon="17.6812041">
        <ele>33.7834</ele>
        <time>2013-05-09T17:09:50Z</time>
      </trkpt>
      <trkpt lat="59.9544157" lon="17.6810819">
        <ele>33.3029</ele>
        <time>2013-05-09T17:09:51Z</time>
      </trkpt>
      <trkpt lat="59.9543794" lon="17.6809594">
        <ele>33.7834</ele>
        <time>2013-05-09T17:09:52Z</time>
      </trkpt>
      <trkpt lat="59.9543425" lon="17.6808393">
        <ele>33.7834</ele>
        <time>2013-05-09T17:09:53Z</time>
      </trkpt>
      <trkpt lat="59.954304" lon="17.6807218">
        <ele>33.7834</ele>
        <time>2013-05-09T17:09:54Z</time>
      </trkpt>
      <trkpt lat="59.9542643" lon="17.6806046">
        <ele>33.7834</ele>
        <time>2013-05-09T17:09:55Z</time>
      </trkpt>
      <trkpt lat="59.9542223" lon="17.6804874">
        <ele>33.7834</ele>
        <time>2013-05-09T17:09:56Z</time>
      </trkpt>
      <trkpt lat="59.9541792" lon="17.6803696">
        <ele>33.7834</ele>
        <time>2013-05-09T17:09:57Z</time>
      </trkpt>
      <trkpt lat="59.9541377" lon="17.6802514">
        <ele>33.7834</ele>
        <time>2013-05-09T17:09:58Z</time>
      </trkpt>
      <trkpt lat="59.954097" lon="17.680134">
        <ele>33.7834</ele>
        <time>2013-05-09T17:09:59Z</time>
      </trkpt>
      <trkpt lat="59.9540561" lon="17.6800189">
        <ele>34.2642</ele>
        <time>2013-05-09T17:10:00Z</time>
      </trkpt>
      <trkpt lat="59.9540161" lon="17.6799044">
        <ele>34.2642</ele>
        <time>2013-05-09T17:10:01Z</time>
      </trkpt>
      <trkpt lat="59.9539763" lon="17.6797892">
        <ele>34.2642</ele>
        <time>2013-05-09T17:10:02Z</time>
      </trkpt>
      <trkpt lat="59.9539349" lon="17.6796728">
        <ele>34.2642</ele>
        <time>2013-05-09T17:10:03Z</time>
      </trkpt>
      <trkpt lat="59.9538924" lon="17.6795568">
        <ele>34.7449</ele>
        <time>2013-05-09T17:10:04Z</time>
      </trkpt>
      <trkpt lat="59.9538549" lon="17.6794401">
        <ele>34.7449</ele>
        <time>2013-05-09T17:10:05Z</time>
      </trkpt>
      <trkpt lat="59.9538168" lon="17.6793235">
        <ele>34.7449</ele>
        <time>2013-05-09T17:10:06Z</time>
      </trkpt>
      <trkpt lat="59.9537764" lon="17.6792077">
        <ele>35.2255</ele>
        <time>2013-05-09T17:10:07Z</time>
      </trkpt>
      <trkpt lat="59.9537364" lon="17.6790915">
        <ele>35.2255</ele>
        <time>2013-05-09T17:10:08Z</time>
      </trkpt>
      <trkpt lat="59.9536966" lon="17.6789769">
        <ele>35.2255</ele>
        <time>2013-05-09T17:10:09Z</time>
      </trkpt>
      <trkpt lat="59.9536539" lon="17.6788621">
        <ele>35.2255</ele>
        <time>2013-05-09T17:10:10Z</time>
      </trkpt>
      <trkpt lat="59.9536106" lon="17.6787476">
        <ele>35.2255</ele>
        <time>2013-05-09T17:10:11Z</time>
      </trkpt>
      <trkpt lat="59.9535712" lon="17.6786354">
        <ele>35.2255</ele>
        <time>2013-05-09T17:10:12Z</time>
      </trkpt>
      <trkpt lat="59.9535319" lon="17.6785198">
        <ele>35.2255</ele>
        <time>2013-05-09T17:10:13Z</time>
      </trkpt>
      <trkpt lat="59.9534877" lon="17.678397">
        <ele>34.7449</ele>
        <time>2013-05-09T17:10:14Z</time>
      </trkpt>
      <trkpt lat="59.9534463" lon="17.6782816">
        <ele>34.7449</ele>
        <time>2013-05-09T17:10:15Z</time>
      </trkpt>
      <trkpt lat="59.9534053" lon="17.6781676">
        <ele>34.7449</ele>
        <time>2013-05-09T17:10:16Z</time>
      </trkpt>
      <trkpt lat="59.9533676" lon="17.6780509">
        <ele>34.7449</ele>
        <time>2013-05-09T17:10:17Z</time>
      </trkpt>
      <trkpt lat="59.9533256" lon="17.6779332">
        <ele>34.7449</ele>
        <time>2013-05-09T17:10:18Z</time>
      </trkpt>
      <trkpt lat="59.9532858" lon="17.6778225">
        <ele>34.2642</ele>
        <time>2013-05-09T17:10:19Z</time>
      </trkpt>
      <trkpt lat="59.953245" lon="17.67771">
        <ele>34.2642</ele>
        <time>2013-05-09T17:10:20Z</time>
      </trkpt>
      <trkpt lat="59.9532039" lon="17.6775954">
        <ele>34.2642</ele>
        <time>2013-05-09T17:10:21Z</time>
      </trkpt>
      <trkpt lat="59.953164" lon="17.677484">
        <ele>34.2642</ele>
        <time>2013-05-09T17:10:22Z</time>
      </trkpt>
      <trkpt lat="59.953124" lon="17.6773785">
        <ele>34.2642</ele>
        <time>2013-05-09T17:10:23Z</time>
      </trkpt>
      <trkpt lat="59.9530799" lon="17.6772661">
        <ele>34.2642</ele>
        <time>2013-05-09T17:10:24Z</time>
      </trkpt>
      <trkpt lat="59.9530395" lon="17.6771577">
        <ele>34.2642</ele>
        <time>2013-05-09T17:10:25Z</time>
      </trkpt>
      <trkpt lat="59.9529967" lon="17.6770536">
        <ele>33.7834</ele>
        <time>2013-05-09T17:10:26Z</time>
      </trkpt>
      <trkpt lat="59.9529563" lon="17.6769485">
        <ele>33.7834</ele>
        <time>2013-05-09T17:10:27Z</time>
      </trkpt>
      <trkpt lat="59.9529136" lon="17.676845">
        <ele>33.7834</ele>
        <time>2013-05-09T17:10:28Z</time>
      </trkpt>
      <trkpt lat="59.952875" lon="17.6767372">
        <ele>33.7834</ele>
        <time>2013-05-09T17:10:29Z</time>
      </trkpt>
      <trkpt lat="59.9528347" lon="17.6766294">
        <ele>33.7834</ele>
        <time>2013-05-09T17:10:30Z</time>
      </trkpt>
      <trkpt lat="59.952792" lon="17.6765248">
        <ele>33.7834</ele>
        <time>2013-05-09T17:10:31Z</time>
      </trkpt>
      <trkpt lat="59.9527515" lon="17.6764192">
        <ele>33.7834</ele>
        <time>2013-05-09T17:10:32Z</time>
      </trkpt>
      <trkpt lat="59.952715" lon="17.6763118">
        <ele>33.7834</ele>
        <time>2013-05-09T17:10:33Z</time>
      </trkpt>
      <trkpt lat="59.9526785" lon="17.6762009">
        <ele>33.7834</ele>
        <time>2013-05-09T17:10:34Z</time>
      </trkpt>
      <trkpt lat="59.9526415" lon="17.6760902">
        <ele>33.7834</ele>
        <time>2013-05-09T17:10:35Z</time>
      </trkpt>
      <trkpt lat="59.9526034" lon="17.6759802">
        <ele>34.2642</ele>
        <time>2013-05-09T17:10:36Z</time>
      </trkpt>
      <trkpt lat="59.9525611" lon="17.6758694">
        <ele>34.7449</ele>
        <time>2013-05-09T17:10:37Z</time>
      </trkpt>
      <trkpt lat="59.9525187" lon="17.6757609">
        <ele>34.7449</ele>
        <time>2013-05-09T17:10:38Z</time>
      </trkpt>
      <trkpt lat="59.9524772" lon="17.6756555">
        <ele>35.2255</ele>
        <time>2013-05-09T17:10:39Z</time>
      </trkpt>
      <trkpt lat="59.9524372" lon="17.6755525">
        <ele>35.7061</ele>
        <time>2013-05-09T17:10:40Z</time>
      </trkpt>
      <trkpt lat="59.9523998" lon="17.6754486">
        <ele>36.1868</ele>
        <time>2013-05-09T17:10:41Z</time>
      </trkpt>
      <trkpt lat="59.9523648" lon="17.6753436">
        <ele>36.6675</ele>
        <time>2013-05-09T17:10:42Z</time>
      </trkpt>
      <trkpt lat="59.9523347" lon="17.6752323">
        <ele>37.1481</ele>
        <time>2013-05-09T17:10:43Z</time>
      </trkpt>
      <trkpt lat="59.9523072" lon="17.6751191">
        <ele>37.1481</ele>
        <time>2013-05-09T17:10:44Z</time>
      </trkpt>
      <trkpt lat="59.9522828" lon="17.6750074">
        <ele>37.6287</ele>
        <time>2013-05-09T17:10:45Z</time>
      </trkpt>
      <trkpt lat="59.9522621" lon="17.6748902">
        <ele>37.1481</ele>
        <time>2013-05-09T17:10:46Z</time>
      </trkpt>
      <trkpt lat="59.9522425" lon="17.6747636">
        <ele>37.1481</ele>
        <time>2013-05-09T17:10:47Z</time>
      </trkpt>
      <trkpt lat="59.9522243" lon="17.674631">
        <ele>37.1481</ele>
        <time>2013-05-09T17:10:48Z</time>
      </trkpt>
      <trkpt lat="59.9522159" lon="17.6744985">
        <ele>37.1481</ele>
        <time>2013-05-09T17:10:49Z</time>
      </trkpt>
      <trkpt lat="59.9521943" lon="17.6743589">
        <ele>37.1481</ele>
        <time>2013-05-09T17:10:50Z</time>
      </trkpt>
      <trkpt lat="59.9521644" lon="17.6742067">
        <ele>37.1481</ele>
        <time>2013-05-09T17:10:51Z</time>
      </trkpt>
      <trkpt lat="59.9521373" lon="17.6740669">
        <ele>37.6287</ele>
        <time>2013-05-09T17:10:52Z</time>
      </trkpt>
      <trkpt lat="59.9521128" lon="17.6739374">
        <ele>37.1481</ele>
        <time>2013-05-09T17:10:53Z</time>
      </trkpt>
      <trkpt lat="59.952089" lon="17.6738058">
        <ele>37.1481</ele>
        <time>2013-05-09T17:10:54Z</time>
      </trkpt>
      <trkpt lat="59.9520654" lon="17.6736726">
        <ele>37.1481</ele>
        <time>2013-05-09T17:10:55Z</time>
      </trkpt>
      <trkpt lat="59.952042" lon="17.673537">
        <ele>36.6675</ele>
        <time>2013-05-09T17:10:56Z</time>
      </trkpt>
      <trkpt lat="59.9520206" lon="17.6734002">
        <ele>36.6675</ele>
        <time>2013-05-09T17:10:57Z</time>
      </trkpt>
      <trkpt lat="59.9519994" lon="17.673263">
        <ele>36.6675</ele>
        <time>2013-05-09T17:10:58Z</time>
      </trkpt>
      <trkpt lat="59.9519781" lon="17.673125">
        <ele>36.6675</ele>
        <time>2013-05-09T17:10:59Z</time>
      </trkpt>
      <trkpt lat="59.9519576" lon="17.6729864">
        <ele>36.6675</ele>
        <time>2013-05-09T17:11:00Z</time>
      </trkpt>
      <trkpt lat="59.9519383" lon="17.6728486">
        <ele>36.6675</ele>
        <time>2013-05-09T17:11:01Z</time>
      </trkpt>
      <trkpt lat="59.9519201" lon="17.6727092">
        <ele>36.1868</ele>
        <time>2013-05-09T17:11:02Z</time>
      </trkpt>
      <trkpt lat="59.9519038" lon="17.6725688">
        <ele>35.7061</ele>
        <time>2013-05-09T17:11:03Z</time>
      </trkpt>
      <trkpt lat="59.9518892" lon="17.6724268">
        <ele>35.2255</ele>
        <time>2013-05-09T17:11:04Z</time>
      </trkpt>
      <trkpt lat="59.9518777" lon="17.6722839">
        <ele>35.2255</ele>
        <time>2013-05-09T17:11:05Z</time>
      </trkpt>
      <trkpt lat="59.9518647" lon="17.6721382">
        <ele>35.2255</ele>
        <time>2013-05-09T17:11:06Z</time>
      </trkpt>
      <trkpt lat="59.9518546" lon="17.6719917">
        <ele>35.2255</ele>
        <time>2013-05-09T17:11:07Z</time>
      </trkpt>
      <trkpt lat="59.9518488" lon="17.6718452">
        <ele>35.2255</ele>
        <time>2013-05-09T17:11:08Z</time>
      </trkpt>
      <trkpt lat="59.9518467" lon="17.6716981">
        <ele>34.7449</ele>
        <time>2013-05-09T17:11:09Z</time>
      </trkpt>
      <trkpt lat="59.9518406" lon="17.671539">
        <ele>34.2642</ele>
        <time>2013-05-09T17:11:10Z</time>
      </trkpt>
      <trkpt lat="59.9518315" lon="17.6713907">
        <ele>34.2642</ele>
        <time>2013-05-09T17:11:11Z</time>
      </trkpt>
      <trkpt lat="59.9518064" lon="17.6712381">
        <ele>33.7834</ele>
        <time>2013-05-09T17:11:12Z</time>
      </trkpt>
      <trkpt lat="59.9517761" lon="17.6710739">
        <ele>32.8223</ele>
        <time>2013-05-09T17:11:13Z</time>
      </trkpt>
      <trkpt lat="59.9517567" lon="17.6708986">
        <ele>31.8607</ele>
        <time>2013-05-09T17:11:14Z</time>
      </trkpt>
      <trkpt lat="59.9517556" lon="17.6707199">
        <ele>31.3801</ele>
        <time>2013-05-09T17:11:15Z</time>
      </trkpt>
      <trkpt lat="59.9517649" lon="17.6705413">
        <ele>30.8995</ele>
        <time>2013-05-09T17:11:16Z</time>
      </trkpt>
      <trkpt lat="59.9517762" lon="17.6703627">
        <ele>30.8995</ele>
        <time>2013-05-09T17:11:17Z</time>
      </trkpt>
      <trkpt lat="59.9517862" lon="17.6701835">
        <ele>30.4188</ele>
        <time>2013-05-09T17:11:18Z</time>
      </trkpt>
      <trkpt lat="59.951794" lon="17.6700053">
        <ele>29.9381</ele>
        <time>2013-05-09T17:11:19Z</time>
      </trkpt>
      <trkpt lat="59.9518006" lon="17.669829">
        <ele>29.9381</ele>
        <time>2013-05-09T17:11:20Z</time>
      </trkpt>
      <trkpt lat="59.9518058" lon="17.6696514">
        <ele>29.4575</ele>
        <time>2013-05-09T17:11:21Z</time>
      </trkpt>
      <trkpt lat="59.9518105" lon="17.6694766">
        <ele>29.4575</ele>
        <time>2013-05-09T17:11:22Z</time>
      </trkpt>
      <trkpt lat="59.9518157" lon="17.6693064">
        <ele>28.9769</ele>
        <time>2013-05-09T17:11:23Z</time>
      </trkpt>
      <trkpt lat="59.9518202" lon="17.6691401">
        <ele>28.4962</ele>
        <time>2013-05-09T17:11:24Z</time>
      </trkpt>
      <trkpt lat="59.9518225" lon="17.668977">
        <ele>28.4962</ele>
        <time>2013-05-09T17:11:25Z</time>
      </trkpt>
      <trkpt lat="59.9518182" lon="17.6688162">
        <ele>27.5349</ele>
        <time>2013-05-09T17:11:26Z</time>
      </trkpt>
      <trkpt lat="59.9518011" lon="17.6686557">
        <ele>27.0543</ele>
        <time>2013-05-09T17:11:27Z</time>
      </trkpt>
      <trkpt lat="59.951773" lon="17.6684984">
        <ele>27.0543</ele>
        <time>2013-05-09T17:11:28Z</time>
      </trkpt>
      <trkpt lat="59.9517383" lon="17.6683502">
        <ele>26.5736</ele>
        <time>2013-05-09T17:11:29Z</time>
      </trkpt>
      <trkpt lat="59.9516933" lon="17.6682181">
        <ele>26.5736</ele>
        <time>2013-05-09T17:11:30Z</time>
      </trkpt>
      <trkpt lat="59.9516336" lon="17.6681164">
        <ele>26.5736</ele>
        <time>2013-05-09T17:11:31Z</time>
      </trkpt>
      <trkpt lat="59.9515633" lon="17.6680601">
        <ele>26.5736</ele>
        <time>2013-05-09T17:11:32Z</time>
      </trkpt>
      <trkpt lat="59.9514868" lon="17.668044">
        <ele>26.5736</ele>
        <time>2013-05-09T17:11:33Z</time>
      </trkpt>
      <trkpt lat="59.9514106" lon="17.6680486">
        <ele>26.5736</ele>
        <time>2013-05-09T17:11:34Z</time>
      </trkpt>
      <trkpt lat="59.9513353" lon="17.6680668">
        <ele>26.5736</ele>
        <time>2013-05-09T17:11:35Z</time>
      </trkpt>
      <trkpt lat="59.9512608" lon="17.6680905">
        <ele>26.5736</ele>
        <time>2013-05-09T17:11:36Z</time>
      </trkpt>
      <trkpt lat="59.9511868" lon="17.6681129">
        <ele>26.5736</ele>
        <time>2013-05-09T17:11:37Z</time>
      </trkpt>
      <trkpt lat="59.9511142" lon="17.6681355">
        <ele>27.0543</ele>
        <time>2013-05-09T17:11:38Z</time>
      </trkpt>
      <trkpt lat="59.9510427" lon="17.668159">
        <ele>27.0543</ele>
        <time>2013-05-09T17:11:39Z</time>
      </trkpt>
      <trkpt lat="59.9509729" lon="17.6681827">
        <ele>27.0543</ele>
        <time>2013-05-09T17:11:40Z</time>
      </trkpt>
      <trkpt lat="59.950904" lon="17.6682025">
        <ele>27.0543</ele>
        <time>2013-05-09T17:11:41Z</time>
      </trkpt>
      <trkpt lat="59.950836" lon="17.6682196">
        <ele>27.0543</ele>
        <time>2013-05-09T17:11:42Z</time>
      </trkpt>
      <trkpt lat="59.9507682" lon="17.6682352">
        <ele>27.0543</ele>
        <time>2013-05-09T17:11:43Z</time>
      </trkpt>
      <trkpt lat="59.9507007" lon="17.6682493">
        <ele>27.0543</ele>
        <time>2013-05-09T17:11:44Z</time>
      </trkpt>
      <trkpt lat="59.9506342" lon="17.6682606">
        <ele>27.0543</ele>
        <time>2013-05-09T17:11:45Z</time>
      </trkpt>
      <trkpt lat="59.9505691" lon="17.6682673">
        <ele>27.0543</ele>
        <time>2013-05-09T17:11:46Z</time>
      </trkpt>
      <trkpt lat="59.9505046" lon="17.6682709">
        <ele>27.0543</ele>
        <time>2013-05-09T17:11:47Z</time>
      </trkpt>
      <trkpt lat="59.9504399" lon="17.6682717">
        <ele>27.0543</ele>
        <time>2013-05-09T17:11:48Z</time>
      </trkpt>
      <trkpt lat="59.9503756" lon="17.6682698">
        <ele>27.0543</ele>
        <time>2013-05-09T17:11:49Z</time>
      </trkpt>
      <trkpt lat="59.9503114" lon="17.6682652">
        <ele>27.0543</ele>
        <time>2013-05-09T17:11:50Z</time>
      </trkpt>
      <trkpt lat="59.9502472" lon="17.6682572">
        <ele>27.0543</ele>
        <time>2013-05-09T17:11:51Z</time>
      </trkpt>
      <trkpt lat="59.9501828" lon="17.6682451">
        <ele>27.0543</ele>
        <time>2013-05-09T17:11:52Z</time>
      </trkpt>
      <trkpt lat="59.9501179" lon="17.668231">
        <ele>27.0543</ele>
        <time>2013-05-09T17:11:53Z</time>
      </trkpt>
      <trkpt lat="59.9500528" lon="17.6682156">
        <ele>27.0543</ele>
        <time>2013-05-09T17:11:54Z</time>
      </trkpt>
      <trkpt lat="59.949988" lon="17.6681974">
        <ele>27.0543</ele>
        <time>2013-05-09T17:11:55Z</time>
      </trkpt>
      <trkpt lat="59.9499239" lon="17.6681759">
        <ele>27.0543</ele>
        <time>2013-05-09T17:11:56Z</time>
      </trkpt>
      <trkpt lat="59.9498603" lon="17.6681511">
        <ele>27.0543</ele>
        <time>2013-05-09T17:11:57Z</time>
      </trkpt>
      <trkpt lat="59.9497974" lon="17.6681233">
        <ele>26.5736</ele>
        <time>2013-05-09T17:11:58Z</time>
      </trkpt>
      <trkpt lat="59.9497343" lon="17.6680964">
        <ele>26.5736</ele>
        <time>2013-05-09T17:11:59Z</time>
      </trkpt>
      <trkpt lat="59.9496711" lon="17.6680703">
        <ele>26.5736</ele>
        <time>2013-05-09T17:12:00Z</time>
      </trkpt>
      <trkpt lat="59.9496084" lon="17.6680409">
        <ele>26.5736</ele>
        <time>2013-05-09T17:12:01Z</time>
      </trkpt>
      <trkpt lat="59.9495462" lon="17.6680084">
        <ele>26.5736</ele>
        <time>2013-05-09T17:12:02Z</time>
      </trkpt>
      <trkpt lat="59.949484" lon="17.6679746">
        <ele>26.5736</ele>
        <time>2013-05-09T17:12:03Z</time>
      </trkpt>
      <trkpt lat="59.9494222" lon="17.6679405">
        <ele>26.5736</ele>
        <time>2013-05-09T17:12:04Z</time>
      </trkpt>
      <trkpt lat="59.9493608" lon="17.6679057">
        <ele>27.0543</ele>
        <time>2013-05-09T17:12:05Z</time>
      </trkpt>
      <trkpt lat="59.9493001" lon="17.6678706">
        <ele>27.0543</ele>
        <time>2013-05-09T17:12:06Z</time>
      </trkpt>
      <trkpt lat="59.9492401" lon="17.6678362">
        <ele>27.0543</ele>
        <time>2013-05-09T17:12:07Z</time>
      </trkpt>
      <trkpt lat="59.9491809" lon="17.667803">
        <ele>27.0543</ele>
        <time>2013-05-09T17:12:08Z</time>
      </trkpt>
      <trkpt lat="59.949122" lon="17.6677706">
        <ele>27.0543</ele>
        <time>2013-05-09T17:12:09Z</time>
      </trkpt>
      <trkpt lat="59.9490633" lon="17.6677379">
        <ele>27.0543</ele>
        <time>2013-05-09T17:12:10Z</time>
      </trkpt>
      <trkpt lat="59.9490048" lon="17.6677047">
        <ele>27.0543</ele>
        <time>2013-05-09T17:12:11Z</time>
      </trkpt>
      <trkpt lat="59.9489463" lon="17.6676714">
        <ele>27.0543</ele>
        <time>2013-05-09T17:12:12Z</time>
      </trkpt>
      <trkpt lat="59.9488879" lon="17.6676377">
        <ele>27.0543</ele>
        <time>2013-05-09T17:12:13Z</time>
      </trkpt>
      <trkpt lat="59.9488299" lon="17.6676053">
        <ele>27.0543</ele>
        <time>2013-05-09T17:12:14Z</time>
      </trkpt>
      <trkpt lat="59.9487724" lon="17.6675732">
        <ele>27.0543</ele>
        <time>2013-05-09T17:12:15Z</time>
      </trkpt>
      <trkpt lat="59.948715" lon="17.6675393">
        <ele>27.0543</ele>
        <time>2013-05-09T17:12:16Z</time>
      </trkpt>
      <trkpt lat="59.9486574" lon="17.6675058">
        <ele>27.5349</ele>
        <time>2013-05-09T17:12:17Z</time>
      </trkpt>
      <trkpt lat="59.9485997" lon="17.6674741">
        <ele>27.5349</ele>
        <time>2013-05-09T17:12:18Z</time>
      </trkpt>
      <trkpt lat="59.9485414" lon="17.6674424">
        <ele>27.5349</ele>
        <time>2013-05-09T17:12:19Z</time>
      </trkpt>
      <trkpt lat="59.9484832" lon="17.6674105">
        <ele>27.5349</ele>
        <time>2013-05-09T17:12:20Z</time>
      </trkpt>
      <trkpt lat="59.9484247" lon="17.6673787">
        <ele>27.5349</ele>
        <time>2013-05-09T17:12:21Z</time>
      </trkpt>
      <trkpt lat="59.9483663" lon="17.6673459">
        <ele>27.5349</ele>
        <time>2013-05-09T17:12:22Z</time>
      </trkpt>
      <trkpt lat="59.9483082" lon="17.6673129">
        <ele>27.5349</ele>
        <time>2013-05-09T17:12:23Z</time>
      </trkpt>
      <trkpt lat="59.94825" lon="17.6672803">
        <ele>27.5349</ele>
        <time>2013-05-09T17:12:24Z</time>
      </trkpt>
      <trkpt lat="59.9481921" lon="17.6672476">
        <ele>27.5349</ele>
        <time>2013-05-09T17:12:25Z</time>
      </trkpt>
      <trkpt lat="59.9481343" lon="17.6672156">
        <ele>27.5349</ele>
        <time>2013-05-09T17:12:26Z</time>
      </trkpt>
      <trkpt lat="59.9480768" lon="17.667184">
        <ele>27.5349</ele>
        <time>2013-05-09T17:12:27Z</time>
      </trkpt>
      <trkpt lat="59.9480191" lon="17.6671528">
        <ele>27.5349</ele>
        <time>2013-05-09T17:12:28Z</time>
      </trkpt>
      <trkpt lat="59.9479613" lon="17.667122">
        <ele>27.5349</ele>
        <time>2013-05-09T17:12:29Z</time>
      </trkpt>
      <trkpt lat="59.9479038" lon="17.6670924">
        <ele>27.5349</ele>
        <time>2013-05-09T17:12:30Z</time>
      </trkpt>
      <trkpt lat="59.9478467" lon="17.6670624">
        <ele>27.5349</ele>
        <time>2013-05-09T17:12:31Z</time>
      </trkpt>
      <trkpt lat="59.9477902" lon="17.6670319">
        <ele>28.0155</ele>
        <time>2013-05-09T17:12:32Z</time>
      </trkpt>
      <trkpt lat="59.9477333" lon="17.6670033">
        <ele>28.0155</ele>
        <time>2013-05-09T17:12:33Z</time>
      </trkpt>
      <trkpt lat="59.947676" lon="17.6669768">
        <ele>28.0155</ele>
        <time>2013-05-09T17:12:34Z</time>
      </trkpt>
      <trkpt lat="59.9476178" lon="17.6669508">
        <ele>28.0155</ele>
        <time>2013-05-09T17:12:35Z</time>
      </trkpt>
      <trkpt lat="59.9475587" lon="17.6669236">
        <ele>28.0155</ele>
        <time>2013-05-09T17:12:36Z</time>
      </trkpt>
      <trkpt lat="59.9474986" lon="17.6668957">
        <ele>28.0155</ele>
        <time>2013-05-09T17:12:37Z</time>
      </trkpt>
      <trkpt lat="59.9474384" lon="17.6668676">
        <ele>28.0155</ele>
        <time>2013-05-09T17:12:38Z</time>
      </trkpt>
      <trkpt lat="59.9473782" lon="17.6668382">
        <ele>28.0155</ele>
        <time>2013-05-09T17:12:39Z</time>
      </trkpt>
      <trkpt lat="59.9473179" lon="17.6668081">
        <ele>28.0155</ele>
        <time>2013-05-09T17:12:40Z</time>
      </trkpt>
      <trkpt lat="59.9472577" lon="17.6667779">
        <ele>28.0155</ele>
        <time>2013-05-09T17:12:41Z</time>
      </trkpt>
      <trkpt lat="59.9471977" lon="17.6667489">
        <ele>28.0155</ele>
        <time>2013-05-09T17:12:42Z</time>
      </trkpt>
      <trkpt lat="59.9471375" lon="17.666721">
        <ele>28.0155</ele>
        <time>2013-05-09T17:12:43Z</time>
      </trkpt>
      <trkpt lat="59.9470773" lon="17.6666924">
        <ele>28.0155</ele>
        <time>2013-05-09T17:12:44Z</time>
      </trkpt>
      <trkpt lat="59.9470176" lon="17.6666646">
        <ele>28.0155</ele>
        <time>2013-05-09T17:12:45Z</time>
      </trkpt>
      <trkpt lat="59.9469578" lon="17.66664">
        <ele>28.0155</ele>
        <time>2013-05-09T17:12:46Z</time>
      </trkpt>
      <trkpt lat="59.946898" lon="17.6666169">
        <ele>28.0155</ele>
        <time>2013-05-09T17:12:47Z</time>
      </trkpt>
      <trkpt lat="59.9468384" lon="17.6665935">
        <ele>28.0155</ele>
        <time>2013-05-09T17:12:48Z</time>
      </trkpt>
      <trkpt lat="59.9467786" lon="17.6665718">
        <ele>28.0155</ele>
        <time>2013-05-09T17:12:49Z</time>
      </trkpt>
      <trkpt lat="59.9467184" lon="17.6665577">
        <ele>28.0155</ele>
        <time>2013-05-09T17:12:50Z</time>
      </trkpt>
      <trkpt lat="59.9466592" lon="17.6665519">
        <ele>28.4962</ele>
        <time>2013-05-09T17:12:51Z</time>
      </trkpt>
      <trkpt lat="59.9465989" lon="17.6665501">
        <ele>28.4962</ele>
        <time>2013-05-09T17:12:52Z</time>
      </trkpt>
      <trkpt lat="59.9465385" lon="17.6665428">
        <ele>28.9769</ele>
        <time>2013-05-09T17:12:53Z</time>
      </trkpt>
      <trkpt lat="59.9464771" lon="17.6665263">
        <ele>28.9769</ele>
        <time>2013-05-09T17:12:54Z</time>
      </trkpt>
      <trkpt lat="59.9464164" lon="17.6665013">
        <ele>28.9769</ele>
        <time>2013-05-09T17:12:55Z</time>
      </trkpt>
      <trkpt lat="59.9463568" lon="17.6664667">
        <ele>28.9769</ele>
        <time>2013-05-09T17:12:56Z</time>
      </trkpt>
      <trkpt lat="59.9462981" lon="17.6664228">
        <ele>28.9769</ele>
        <time>2013-05-09T17:12:57Z</time>
      </trkpt>
      <trkpt lat="59.9462397" lon="17.6663769">
        <ele>28.9769</ele>
        <time>2013-05-09T17:12:58Z</time>
      </trkpt>
      <trkpt lat="59.9461797" lon="17.6663398">
        <ele>28.9769</ele>
        <time>2013-05-09T17:12:59Z</time>
      </trkpt>
      <trkpt lat="59.9461177" lon="17.6663138">
        <ele>28.9769</ele>
        <time>2013-05-09T17:13:00Z</time>
      </trkpt>
      <trkpt lat="59.9460554" lon="17.6662916">
        <ele>28.9769</ele>
        <time>2013-05-09T17:13:01Z</time>
      </trkpt>
      <trkpt lat="59.9459933" lon="17.6662678">
        <ele>28.9769</ele>
        <time>2013-05-09T17:13:02Z</time>
      </trkpt>
      <trkpt lat="59.945932" lon="17.6662439">
        <ele>28.9769</ele>
        <time>2013-05-09T17:13:03Z</time>
      </trkpt>
      <trkpt lat="59.9458705" lon="17.6662199">
        <ele>28.9769</ele>
        <time>2013-05-09T17:13:04Z</time>
      </trkpt>
      <trkpt lat="59.9458089" lon="17.6661952">
        <ele>28.9769</ele>
        <time>2013-05-09T17:13:05Z</time>
      </trkpt>
      <trkpt lat="59.9457473" lon="17.666172">
        <ele>28.9769</ele>
        <time>2013-05-09T17:13:06Z</time>
      </trkpt>
      <trkpt lat="59.9456855" lon="17.6661501">
        <ele>28.9769</ele>
        <time>2013-05-09T17:13:07Z</time>
      </trkpt>
      <trkpt lat="59.9456237" lon="17.6661272">
        <ele>28.9769</ele>
        <time>2013-05-09T17:13:08Z</time>
      </trkpt>
      <trkpt lat="59.9455617" lon="17.6661031">
        <ele>28.9769</ele>
        <time>2013-05-09T17:13:09Z</time>
      </trkpt>
      <trkpt lat="59.9454997" lon="17.6660795">
        <ele>28.9769</ele>
        <time>2013-05-09T17:13:10Z</time>
      </trkpt>
      <trkpt lat="59.9454377" lon="17.6660564">
        <ele>28.9769</ele>
        <time>2013-05-09T17:13:11Z</time>
      </trkpt>
      <trkpt lat="59.9453757" lon="17.6660322">
        <ele>28.9769</ele>
        <time>2013-05-09T17:13:12Z</time>
      </trkpt>
      <trkpt lat="59.9453136" lon="17.6660067">
        <ele>28.9769</ele>
        <time>2013-05-09T17:13:13Z</time>
      </trkpt>
      <trkpt lat="59.9452514" lon="17.6659819">
        <ele>28.9769</ele>
        <time>2013-05-09T17:13:14Z</time>
      </trkpt>
      <trkpt lat="59.9451892" lon="17.6659589">
        <ele>28.9769</ele>
        <time>2013-05-09T17:13:15Z</time>
      </trkpt>
      <trkpt lat="59.9451271" lon="17.6659361">
        <ele>28.9769</ele>
        <time>2013-05-09T17:13:16Z</time>
      </trkpt>
      <trkpt lat="59.9450655" lon="17.665912">
        <ele>28.9769</ele>
        <time>2013-05-09T17:13:17Z</time>
      </trkpt>
      <trkpt lat="59.9450033" lon="17.6658875">
        <ele>28.9769</ele>
        <time>2013-05-09T17:13:18Z</time>
      </trkpt>
      <trkpt lat="59.9449397" lon="17.6658647">
        <ele>28.9769</ele>
        <time>2013-05-09T17:13:19Z</time>
      </trkpt>
      <trkpt lat="59.9448748" lon="17.665842">
        <ele>28.9769</ele>
        <time>2013-05-09T17:13:20Z</time>
      </trkpt>
      <trkpt lat="59.9448089" lon="17.6658181">
        <ele>28.9769</ele>
        <time>2013-05-09T17:13:21Z</time>
      </trkpt>
      <trkpt lat="59.9447422" lon="17.6657938">
        <ele>28.9769</ele>
        <time>2013-05-09T17:13:22Z</time>
      </trkpt>
      <trkpt lat="59.944676" lon="17.6657684">
        <ele>28.9769</ele>
        <time>2013-05-09T17:13:23Z</time>
      </trkpt>
      <trkpt lat="59.9446107" lon="17.6657429">
        <ele>28.9769</ele>
        <time>2013-05-09T17:13:24Z</time>
      </trkpt>
      <trkpt lat="59.9445455" lon="17.665719">
        <ele>28.9769</ele>
        <time>2013-05-09T17:13:25Z</time>
      </trkpt>
      <trkpt lat="59.9444812" lon="17.6656949">
        <ele>28.9769</ele>
        <time>2013-05-09T17:13:26Z</time>
      </trkpt>
      <trkpt lat="59.9444174" lon="17.6656698">
        <ele>28.9769</ele>
        <time>2013-05-09T17:13:27Z</time>
      </trkpt>
      <trkpt lat="59.9443538" lon="17.6656452">
        <ele>29.4575</ele>
        <time>2013-05-09T17:13:28Z</time>
      </trkpt>
      <trkpt lat="59.94429" lon="17.6656213">
        <ele>29.4575</ele>
        <time>2013-05-09T17:13:29Z</time>
      </trkpt>
      <trkpt lat="59.9442257" lon="17.665596">
        <ele>29.4575</ele>
        <time>2013-05-09T17:13:30Z</time>
      </trkpt>
      <trkpt lat="59.944161" lon="17.665569">
        <ele>29.4575</ele>
        <time>2013-05-09T17:13:31Z</time>
      </trkpt>
      <trkpt lat="59.9440971" lon="17.665539">
        <ele>29.4575</ele>
        <time>2013-05-09T17:13:32Z</time>
      </trkpt>
      <trkpt lat="59.9440341" lon="17.6655054">
        <ele>29.4575</ele>
        <time>2013-05-09T17:13:33Z</time>
      </trkpt>
      <trkpt lat="59.943972" lon="17.6654711">
        <ele>29.4575</ele>
        <time>2013-05-09T17:13:34Z</time>
      </trkpt>
      <trkpt lat="59.9439098" lon="17.6654362">
        <ele>29.9381</ele>
        <time>2013-05-09T17:13:35Z</time>
      </trkpt>
      <trkpt lat="59.9438482" lon="17.6654">
        <ele>29.9381</ele>
        <time>2013-05-09T17:13:36Z</time>
      </trkpt>
      <trkpt lat="59.9437873" lon="17.6653633">
        <ele>29.9381</ele>
        <time>2013-05-09T17:13:37Z</time>
      </trkpt>
      <trkpt lat="59.9437269" lon="17.6653274">
        <ele>29.9381</ele>
        <time>2013-05-09T17:13:38Z</time>
      </trkpt>
      <trkpt lat="59.9436669" lon="17.6652912">
        <ele>30.4188</ele>
        <time>2013-05-09T17:13:39Z</time>
      </trkpt>
      <trkpt lat="59.9436076" lon="17.6652523">
        <ele>30.4188</ele>
        <time>2013-05-09T17:13:40Z</time>
      </trkpt>
      <trkpt lat="59.9435485" lon="17.665211">
        <ele>30.4188</ele>
        <time>2013-05-09T17:13:41Z</time>
      </trkpt>
      <trkpt lat="59.9434897" lon="17.6651692">
        <ele>30.4188</ele>
        <time>2013-05-09T17:13:42Z</time>
      </trkpt>
      <trkpt lat="59.9434318" lon="17.6651256">
        <ele>30.4188</ele>
        <time>2013-05-09T17:13:43Z</time>
      </trkpt>
      <trkpt lat="59.9433747" lon="17.6650794">
        <ele>30.4188</ele>
        <time>2013-05-09T17:13:44Z</time>
      </trkpt>
      <trkpt lat="59.9433176" lon="17.6650331">
        <ele>30.8995</ele>
        <time>2013-05-09T17:13:45Z</time>
      </trkpt>
      <trkpt lat="59.9432606" lon="17.6649866">
        <ele>30.8995</ele>
        <time>2013-05-09T17:13:46Z</time>
      </trkpt>
      <trkpt lat="59.9432037" lon="17.6649386">
        <ele>30.8995</ele>
        <time>2013-05-09T17:13:47Z</time>
      </trkpt>
      <trkpt lat="59.9431477" lon="17.6648892">
        <ele>30.8995</ele>
        <time>2013-05-09T17:13:48Z</time>
      </trkpt>
      <trkpt lat="59.9430923" lon="17.6648379">
        <ele>31.3801</ele>
        <time>2013-05-09T17:13:49Z</time>
      </trkpt>
      <trkpt lat="59.9430367" lon="17.6647867">
        <ele>31.3801</ele>
        <time>2013-05-09T17:13:50Z</time>
      </trkpt>
      <trkpt lat="59.9429814" lon="17.664736">
        <ele>31.3801</ele>
        <time>2013-05-09T17:13:51Z</time>
      </trkpt>
      <trkpt lat="59.9429262" lon="17.6646835">
        <ele>31.3801</ele>
        <time>2013-05-09T17:13:52Z</time>
      </trkpt>
      <trkpt lat="59.9428715" lon="17.6646289">
        <ele>31.3801</ele>
        <time>2013-05-09T17:13:53Z</time>
      </trkpt>
      <trkpt lat="59.9428174" lon="17.6645732">
        <ele>31.8607</ele>
        <time>2013-05-09T17:13:54Z</time>
      </trkpt>
      <trkpt lat="59.9427645" lon="17.6645157">
        <ele>31.8607</ele>
        <time>2013-05-09T17:13:55Z</time>
      </trkpt>
      <trkpt lat="59.9427116" lon="17.6644572">
        <ele>31.8607</ele>
        <time>2013-05-09T17:13:56Z</time>
      </trkpt>
      <trkpt lat="59.9426588" lon="17.6643968">
        <ele>31.8607</ele>
        <time>2013-05-09T17:13:57Z</time>
      </trkpt>
      <trkpt lat="59.9426059" lon="17.6643333">
        <ele>31.8607</ele>
        <time>2013-05-09T17:13:58Z</time>
      </trkpt>
      <trkpt lat="59.9425526" lon="17.6642675">
        <ele>32.3416</ele>
        <time>2013-05-09T17:13:59Z</time>
      </trkpt>
      <trkpt lat="59.9424994" lon="17.6642009">
        <ele>32.3416</ele>
        <time>2013-05-09T17:14:00Z</time>
      </trkpt>
      <trkpt lat="59.9424465" lon="17.664134">
        <ele>32.3416</ele>
        <time>2013-05-09T17:14:01Z</time>
      </trkpt>
      <trkpt lat="59.9423939" lon="17.6640657">
        <ele>32.3416</ele>
        <time>2013-05-09T17:14:02Z</time>
      </trkpt>
      <trkpt lat="59.9423413" lon="17.6639958">
        <ele>32.8223</ele>
        <time>2013-05-09T17:14:03Z</time>
      </trkpt>
      <trkpt lat="59.9422884" lon="17.6639234">
        <ele>32.8223</ele>
        <time>2013-05-09T17:14:04Z</time>
      </trkpt>
      <trkpt lat="59.9422356" lon="17.6638482">
        <ele>32.8223</ele>
        <time>2013-05-09T17:14:05Z</time>
      </trkpt>
      <trkpt lat="59.9421823" lon="17.663773">
        <ele>32.8223</ele>
        <time>2013-05-09T17:14:06Z</time>
      </trkpt>
      <trkpt lat="59.9421279" lon="17.6636983">
        <ele>32.8223</ele>
        <time>2013-05-09T17:14:07Z</time>
      </trkpt>
      <trkpt lat="59.9420744" lon="17.6636196">
        <ele>32.8223</ele>
        <time>2013-05-09T17:14:08Z</time>
      </trkpt>
      <trkpt lat="59.9420212" lon="17.6635374">
        <ele>32.8223</ele>
        <time>2013-05-09T17:14:09Z</time>
      </trkpt>
      <trkpt lat="59.9419682" lon="17.663455">
        <ele>32.8223</ele>
        <time>2013-05-09T17:14:10Z</time>
      </trkpt>
      <trkpt lat="59.941916" lon="17.6633727">
        <ele>32.8223</ele>
        <time>2013-05-09T17:14:11Z</time>
      </trkpt>
      <trkpt lat="59.9418652" lon="17.6632891">
        <ele>32.8223</ele>
        <time>2013-05-09T17:14:12Z</time>
      </trkpt>
      <trkpt lat="59.9418149" lon="17.6632036">
        <ele>32.8223</ele>
        <time>2013-05-09T17:14:13Z</time>
      </trkpt>
      <trkpt lat="59.9417648" lon="17.6631179">
        <ele>33.3029</ele>
        <time>2013-05-09T17:14:14Z</time>
      </trkpt>
      <trkpt lat="59.9417165" lon="17.663031">
        <ele>33.3029</ele>
        <time>2013-05-09T17:14:15Z</time>
      </trkpt>
      <trkpt lat="59.9416694" lon="17.662942">
        <ele>33.3029</ele>
        <time>2013-05-09T17:14:16Z</time>
      </trkpt>
      <trkpt lat="59.9416219" lon="17.6628529">
        <ele>33.3029</ele>
        <time>2013-05-09T17:14:17Z</time>
      </trkpt>
      <trkpt lat="59.9415725" lon="17.6627668">
        <ele>33.3029</ele>
        <time>2013-05-09T17:14:18Z</time>
      </trkpt>
      <trkpt lat="59.9415217" lon="17.6626852">
        <ele>33.3029</ele>
        <time>2013-05-09T17:14:19Z</time>
      </trkpt>
      <trkpt lat="59.9414695" lon="17.6626069">
        <ele>32.8223</ele>
        <time>2013-05-09T17:14:20Z</time>
      </trkpt>
      <trkpt lat="59.9414161" lon="17.6625334">
        <ele>32.8223</ele>
        <time>2013-05-09T17:14:21Z</time>
      </trkpt>
      <trkpt lat="59.9413613" lon="17.6624697">
        <ele>32.8223</ele>
        <time>2013-05-09T17:14:22Z</time>
      </trkpt>
      <trkpt lat="59.9413058" lon="17.6624146">
        <ele>32.8223</ele>
        <time>2013-05-09T17:14:23Z</time>
      </trkpt>
      <trkpt lat="59.941251" lon="17.6623626">
        <ele>32.8223</ele>
        <time>2013-05-09T17:14:24Z</time>
      </trkpt>
      <trkpt lat="59.9411963" lon="17.6623138">
        <ele>32.8223</ele>
        <time>2013-05-09T17:14:25Z</time>
      </trkpt>
      <trkpt lat="59.9411405" lon="17.6622701">
        <ele>32.8223</ele>
        <time>2013-05-09T17:14:26Z</time>
      </trkpt>
      <trkpt lat="59.941083" lon="17.6622324">
        <ele>32.8223</ele>
        <time>2013-05-09T17:14:27Z</time>
      </trkpt>
      <trkpt lat="59.941024" lon="17.6622018">
        <ele>32.8223</ele>
        <time>2013-05-09T17:14:28Z</time>
      </trkpt>
      <trkpt lat="59.9409638" lon="17.6621784">
        <ele>32.8223</ele>
        <time>2013-05-09T17:14:29Z</time>
      </trkpt>
      <trkpt lat="59.9409027" lon="17.6621594">
        <ele>32.8223</ele>
        <time>2013-05-09T17:14:30Z</time>
      </trkpt>
      <trkpt lat="59.9408414" lon="17.6621444">
        <ele>32.8223</ele>
        <time>2013-05-09T17:14:31Z</time>
      </trkpt>
      <trkpt lat="59.940779" lon="17.6621324">
        <ele>32.8223</ele>
        <time>2013-05-09T17:14:32Z</time>
      </trkpt>
      <trkpt lat="59.9407153" lon="17.6621174">
        <ele>32.8223</ele>
        <time>2013-05-09T17:14:33Z</time>
      </trkpt>
      <trkpt lat="59.940651" lon="17.6620906">
        <ele>32.8223</ele>
        <time>2013-05-09T17:14:34Z</time>
      </trkpt>
      <trkpt lat="59.9405891" lon="17.6620414">
        <ele>32.8223</ele>
        <time>2013-05-09T17:14:35Z</time>
      </trkpt>
      <trkpt lat="59.9405324" lon="17.6619661">
        <ele>32.3416</ele>
        <time>2013-05-09T17:14:36Z</time>
      </trkpt>
      <trkpt lat="59.940483" lon="17.6618665">
        <ele>32.3416</ele>
        <time>2013-05-09T17:14:37Z</time>
      </trkpt>
      <trkpt lat="59.9404444" lon="17.6617455">
        <ele>32.3416</ele>
        <time>2013-05-09T17:14:38Z</time>
      </trkpt>
      <trkpt lat="59.940419" lon="17.6616071">
        <ele>31.8607</ele>
        <time>2013-05-09T17:14:39Z</time>
      </trkpt>
      <trkpt lat="59.9404055" lon="17.661458">
        <ele>31.8607</ele>
        <time>2013-05-09T17:14:40Z</time>
      </trkpt>
      <trkpt lat="59.9403939" lon="17.6612725">
        <ele>31.8607</ele>
        <time>2013-05-09T17:14:41Z</time>
      </trkpt>
      <trkpt lat="59.9403687" lon="17.6610166">
        <ele>31.8607</ele>
        <time>2013-05-09T17:14:42Z</time>
      </trkpt>
      <trkpt lat="59.9403692" lon="17.6608208">
        <ele>31.8607</ele>
        <time>2013-05-09T17:14:43Z</time>
      </trkpt>
      <trkpt lat="59.9404147" lon="17.6607208">
        <ele>31.8607</ele>
        <time>2013-05-09T17:14:44Z</time>
      </trkpt>
      <trkpt lat="59.9404578" lon="17.6606081">
        <ele>31.8607</ele>
        <time>2013-05-09T17:14:45Z</time>
      </trkpt>
      <trkpt lat="59.9404912" lon="17.6604829">
        <ele>31.8607</ele>
        <time>2013-05-09T17:14:46Z</time>
      </trkpt>
      <trkpt lat="59.9405116" lon="17.6603452">
        <ele>32.3416</ele>
        <time>2013-05-09T17:14:47Z</time>
      </trkpt>
      <trkpt lat="59.9405185" lon="17.6602123">
        <ele>32.3416</ele>
        <time>2013-05-09T17:14:48Z</time>
      </trkpt>
      <trkpt lat="59.9405164" lon="17.6601117">
        <ele>31.8607</ele>
        <time>2013-05-09T17:14:49Z</time>
      </trkpt>
      <trkpt lat="59.9404733" lon="17.6599683">
        <ele>32.3416</ele>
        <time>2013-05-09T17:14:50Z</time>
      </trkpt>
      <trkpt lat="59.9404306" lon="17.6598912">
        <ele>32.3416</ele>
        <time>2013-05-09T17:14:51Z</time>
      </trkpt>
      <trkpt lat="59.9403863" lon="17.6598113">
        <ele>31.3801</ele>
        <time>2013-05-09T17:14:52Z</time>
      </trkpt>
      <trkpt lat="59.940361" lon="17.6596895">
        <ele>31.3801</ele>
        <time>2013-05-09T17:14:53Z</time>
      </trkpt>
      <trkpt lat="59.9403385" lon="17.6595568">
        <ele>30.8995</ele>
        <time>2013-05-09T17:14:54Z</time>
      </trkpt>
      <trkpt lat="59.9403153" lon="17.6594273">
        <ele>29.9381</ele>
        <time>2013-05-09T17:14:55Z</time>
      </trkpt>
      <trkpt lat="59.9402962" lon="17.6592938">
        <ele>29.4575</ele>
        <time>2013-05-09T17:14:56Z</time>
      </trkpt>
      <trkpt lat="59.9402765" lon="17.6591572">
        <ele>29.4575</ele>
        <time>2013-05-09T17:14:57Z</time>
      </trkpt>
      <trkpt lat="59.9402536" lon="17.6590192">
        <ele>29.4575</ele>
        <time>2013-05-09T17:14:58Z</time>
      </trkpt>
      <trkpt lat="59.9402278" lon="17.6588829">
        <ele>29.4575</ele>
        <time>2013-05-09T17:14:59Z</time>
      </trkpt>
      <trkpt lat="59.9402006" lon="17.6587499">
        <ele>29.4575</ele>
        <time>2013-05-09T17:15:00Z</time>
      </trkpt>
      <trkpt lat="59.940173" lon="17.6586197">
        <ele>29.9381</ele>
        <time>2013-05-09T17:15:01Z</time>
      </trkpt>
      <trkpt lat="59.9401466" lon="17.6584915">
        <ele>29.9381</ele>
        <time>2013-05-09T17:15:02Z</time>
      </trkpt>
      <trkpt lat="59.9401205" lon="17.6583671">
        <ele>30.4188</ele>
        <time>2013-05-09T17:15:03Z</time>
      </trkpt>
      <trkpt lat="59.9400944" lon="17.658246">
        <ele>30.4188</ele>
        <time>2013-05-09T17:15:04Z</time>
      </trkpt>
      <trkpt lat="59.9400689" lon="17.6581273">
        <ele>30.8995</ele>
        <time>2013-05-09T17:15:05Z</time>
      </trkpt>
      <trkpt lat="59.9400448" lon="17.6580085">
        <ele>30.8995</ele>
        <time>2013-05-09T17:15:06Z</time>
      </trkpt>
      <trkpt lat="59.9400216" lon="17.6578896">
        <ele>31.3801</ele>
        <time>2013-05-09T17:15:07Z</time>
      </trkpt>
      <trkpt lat="59.9399982" lon="17.6577715">
        <ele>31.8607</ele>
        <time>2013-05-09T17:15:08Z</time>
      </trkpt>
      <trkpt lat="59.9399744" lon="17.6576525">
        <ele>31.8607</ele>
        <time>2013-05-09T17:15:09Z</time>
      </trkpt>
      <trkpt lat="59.939951" lon="17.657533">
        <ele>32.3416</ele>
        <time>2013-05-09T17:15:10Z</time>
      </trkpt>
      <trkpt lat="59.9399272" lon="17.6574128">
        <ele>32.3416</ele>
        <time>2013-05-09T17:15:11Z</time>
      </trkpt>
      <trkpt lat="59.939902" lon="17.6572927">
        <ele>32.8223</ele>
        <time>2013-05-09T17:15:12Z</time>
      </trkpt>
      <trkpt lat="59.939876" lon="17.657174">
        <ele>33.3029</ele>
        <time>2013-05-09T17:15:13Z</time>
      </trkpt>
      <trkpt lat="59.9398502" lon="17.6570558">
        <ele>33.3029</ele>
        <time>2013-05-09T17:15:14Z</time>
      </trkpt>
      <trkpt lat="59.9398249" lon="17.6569372">
        <ele>33.7834</ele>
        <time>2013-05-09T17:15:15Z</time>
      </trkpt>
      <trkpt lat="59.9397999" lon="17.6568173">
        <ele>33.7834</ele>
        <time>2013-05-09T17:15:16Z</time>
      </trkpt>
      <trkpt lat="59.939776" lon="17.6566945">
        <ele>34.2642</ele>
        <time>2013-05-09T17:15:17Z</time>
      </trkpt>
      <trkpt lat="59.9397542" lon="17.6565681">
        <ele>34.2642</ele>
        <time>2013-05-09T17:15:18Z</time>
      </trkpt>
      <trkpt lat="59.9397318" lon="17.6564385">
        <ele>34.7449</ele>
        <time>2013-05-09T17:15:19Z</time>
      </trkpt>
      <trkpt lat="59.9397086" lon="17.6563091">
        <ele>34.7449</ele>
        <time>2013-05-09T17:15:20Z</time>
      </trkpt>
      <trkpt lat="59.9396845" lon="17.6561847">
        <ele>35.2255</ele>
        <time>2013-05-09T17:15:21Z</time>
      </trkpt>
      <trkpt lat="59.9396606" lon="17.6560638">
        <ele>35.2255</ele>
        <time>2013-05-09T17:15:22Z</time>
      </trkpt>
      <trkpt lat="59.9396383" lon="17.6559445">
        <ele>35.2255</ele>
        <time>2013-05-09T17:15:23Z</time>
      </trkpt>
      <trkpt lat="59.9396171" lon="17.6558272">
        <ele>35.7061</ele>
        <time>2013-05-09T17:15:24Z</time>
      </trkpt>
      <trkpt lat="59.9395953" lon="17.6557127">
        <ele>35.7061</ele>
        <time>2013-05-09T17:15:25Z</time>
      </trkpt>
      <trkpt lat="59.9395725" lon="17.6555995">
        <ele>35.7061</ele>
        <time>2013-05-09T17:15:26Z</time>
      </trkpt>
      <trkpt lat="59.9395507" lon="17.6554859">
        <ele>36.1868</ele>
        <time>2013-05-09T17:15:27Z</time>
      </trkpt>
      <trkpt lat="59.939529" lon="17.6553694">
        <ele>36.1868</ele>
        <time>2013-05-09T17:15:28Z</time>
      </trkpt>
      <trkpt lat="59.9395066" lon="17.6552511">
        <ele>36.6675</ele>
        <time>2013-05-09T17:15:29Z</time>
      </trkpt>
      <trkpt lat="59.9394829" lon="17.6551315">
        <ele>36.6675</ele>
        <time>2013-05-09T17:15:30Z</time>
      </trkpt>
      <trkpt lat="59.9394597" lon="17.655011">
        <ele>36.6675</ele>
        <time>2013-05-09T17:15:31Z</time>
      </trkpt>
      <trkpt lat="59.9394361" lon="17.6548897">
        <ele>36.6675</ele>
        <time>2013-05-09T17:15:32Z</time>
      </trkpt>
      <trkpt lat="59.9394114" lon="17.6547684">
        <ele>37.1481</ele>
        <time>2013-05-09T17:15:33Z</time>
      </trkpt>
      <trkpt lat="59.9393861" lon="17.654646">
        <ele>37.1481</ele>
        <time>2013-05-09T17:15:34Z</time>
      </trkpt>
      <trkpt lat="59.939362" lon="17.6545235">
        <ele>37.1481</ele>
        <time>2013-05-09T17:15:35Z</time>
      </trkpt>
      <trkpt lat="59.9393385" lon="17.6544007">
        <ele>37.1481</ele>
        <time>2013-05-09T17:15:36Z</time>
      </trkpt>
      <trkpt lat="59.939314" lon="17.6542769">
        <ele>37.1481</ele>
        <time>2013-05-09T17:15:37Z</time>
      </trkpt>
      <trkpt lat="59.9392879" lon="17.6541532">
        <ele>37.1481</ele>
        <time>2013-05-09T17:15:38Z</time>
      </trkpt>
      <trkpt lat="59.9392612" lon="17.6540311">
        <ele>37.6287</ele>
        <time>2013-05-09T17:15:39Z</time>
      </trkpt>
      <trkpt lat="59.9392356" lon="17.6539076">
        <ele>37.6287</ele>
        <time>2013-05-09T17:15:40Z</time>
      </trkpt>
      <trkpt lat="59.9392105" lon="17.6537815">
        <ele>37.6287</ele>
        <time>2013-05-09T17:15:41Z</time>
      </trkpt>
      <trkpt lat="59.9391849" lon="17.6536579">
        <ele>37.6287</ele>
        <time>2013-05-09T17:15:42Z</time>
      </trkpt>
      <trkpt lat="59.9391572" lon="17.6535366">
        <ele>37.6287</ele>
        <time>2013-05-09T17:15:43Z</time>
      </trkpt>
      <trkpt lat="59.9391292" lon="17.653415">
        <ele>37.6287</ele>
        <time>2013-05-09T17:15:44Z</time>
      </trkpt>
      <trkpt lat="59.9390999" lon="17.6532933">
        <ele>37.6287</ele>
        <time>2013-05-09T17:15:45Z</time>
      </trkpt>
      <trkpt lat="59.9390695" lon="17.653175">
        <ele>37.6287</ele>
        <time>2013-05-09T17:15:46Z</time>
      </trkpt>
      <trkpt lat="59.93904" lon="17.653058">
        <ele>37.6287</ele>
        <time>2013-05-09T17:15:47Z</time>
      </trkpt>
      <trkpt lat="59.9390118" lon="17.6529383">
        <ele>37.1481</ele>
        <time>2013-05-09T17:15:48Z</time>
      </trkpt>
      <trkpt lat="59.938983" lon="17.6528179">
        <ele>37.1481</ele>
        <time>2013-05-09T17:15:49Z</time>
      </trkpt>
      <trkpt lat="59.9389536" lon="17.652698">
        <ele>37.1481</ele>
        <time>2013-05-09T17:15:50Z</time>
      </trkpt>
      <trkpt lat="59.9389235" lon="17.6525786">
        <ele>37.1481</ele>
        <time>2013-05-09T17:15:51Z</time>
      </trkpt>
      <trkpt lat="59.9388904" lon="17.6524592">
        <ele>37.1481</ele>
        <time>2013-05-09T17:15:52Z</time>
      </trkpt>
      <trkpt lat="59.9388566" lon="17.652339">
        <ele>37.1481</ele>
        <time>2013-05-09T17:15:53Z</time>
      </trkpt>
      <trkpt lat="59.938823" lon="17.6522183">
        <ele>36.6675</ele>
        <time>2013-05-09T17:15:54Z</time>
      </trkpt>
      <trkpt lat="59.9387887" lon="17.6520981">
        <ele>36.6675</ele>
        <time>2013-05-09T17:15:55Z</time>
      </trkpt>
      <trkpt lat="59.9387534" lon="17.6519775">
        <ele>36.6675</ele>
        <time>2013-05-09T17:15:56Z</time>
      </trkpt>
      <trkpt lat="59.9387171" lon="17.6518567">
        <ele>36.6675</ele>
        <time>2013-05-09T17:15:57Z</time>
      </trkpt>
      <trkpt lat="59.9386793" lon="17.651736">
        <ele>36.6675</ele>
        <time>2013-05-09T17:15:58Z</time>
      </trkpt>
      <trkpt lat="59.9386402" lon="17.6516143">
        <ele>36.1868</ele>
        <time>2013-05-09T17:15:59Z</time>
      </trkpt>
      <trkpt lat="59.9386013" lon="17.6514906">
        <ele>36.1868</ele>
        <time>2013-05-09T17:16:00Z</time>
      </trkpt>
      <trkpt lat="59.9385612" lon="17.6513673">
        <ele>36.1868</ele>
        <time>2013-05-09T17:16:01Z</time>
      </trkpt>
      <trkpt lat="59.93852" lon="17.651246">
        <ele>36.6675</ele>
        <time>2013-05-09T17:16:02Z</time>
      </trkpt>
      <trkpt lat="59.9384764" lon="17.6511262">
        <ele>36.1868</ele>
        <time>2013-05-09T17:16:03Z</time>
      </trkpt>
      <trkpt lat="59.9384304" lon="17.6510113">
        <ele>36.1868</ele>
        <time>2013-05-09T17:16:04Z</time>
      </trkpt>
      <trkpt lat="59.9383826" lon="17.6509039">
        <ele>36.1868</ele>
        <time>2013-05-09T17:16:05Z</time>
      </trkpt>
      <trkpt lat="59.9383339" lon="17.6507991">
        <ele>36.1868</ele>
        <time>2013-05-09T17:16:06Z</time>
      </trkpt>
      <trkpt lat="59.9382887" lon="17.6506923">
        <ele>36.1868</ele>
        <time>2013-05-09T17:16:07Z</time>
      </trkpt>
      <trkpt lat="59.9382473" lon="17.6505819">
        <ele>36.6675</ele>
        <time>2013-05-09T17:16:08Z</time>
      </trkpt>
      <trkpt lat="59.9382071" lon="17.6504669">
        <ele>36.1868</ele>
        <time>2013-05-09T17:16:09Z</time>
      </trkpt>
      <trkpt lat="59.9381675" lon="17.6503517">
        <ele>36.6675</ele>
        <time>2013-05-09T17:16:10Z</time>
      </trkpt>
      <trkpt lat="59.9381272" lon="17.6502358">
        <ele>36.6675</ele>
        <time>2013-05-09T17:16:11Z</time>
      </trkpt>
      <trkpt lat="59.9380843" lon="17.65012">
        <ele>36.6675</ele>
        <time>2013-05-09T17:16:12Z</time>
      </trkpt>
      <trkpt lat="59.938039" lon="17.6500059">
        <ele>36.6675</ele>
        <time>2013-05-09T17:16:13Z</time>
      </trkpt>
      <trkpt lat="59.937992" lon="17.6498935">
        <ele>37.1481</ele>
        <time>2013-05-09T17:16:14Z</time>
      </trkpt>
      <trkpt lat="59.9379438" lon="17.6497837">
        <ele>37.1481</ele>
        <time>2013-05-09T17:16:15Z</time>
      </trkpt>
      <trkpt lat="59.9378967" lon="17.6496736">
        <ele>37.1481</ele>
        <time>2013-05-09T17:16:16Z</time>
      </trkpt>
      <trkpt lat="59.937853" lon="17.6495587">
        <ele>37.6287</ele>
        <time>2013-05-09T17:16:17Z</time>
      </trkpt>
      <trkpt lat="59.9378143" lon="17.6494344">
        <ele>37.6287</ele>
        <time>2013-05-09T17:16:18Z</time>
      </trkpt>
      <trkpt lat="59.937774" lon="17.6493093">
        <ele>37.6287</ele>
        <time>2013-05-09T17:16:19Z</time>
      </trkpt>
      <trkpt lat="59.9377242" lon="17.6491931">
        <ele>37.6287</ele>
        <time>2013-05-09T17:16:20Z</time>
      </trkpt>
      <trkpt lat="59.9376696" lon="17.6490847">
        <ele>38.1094</ele>
        <time>2013-05-09T17:16:21Z</time>
      </trkpt>
      <trkpt lat="59.937615" lon="17.648978">
        <ele>38.1094</ele>
        <time>2013-05-09T17:16:22Z</time>
      </trkpt>
      <trkpt lat="59.9375664" lon="17.6488646">
        <ele>38.5901</ele>
        <time>2013-05-09T17:16:23Z</time>
      </trkpt>
      <trkpt lat="59.9375199" lon="17.6487455">
        <ele>38.5901</ele>
        <time>2013-05-09T17:16:24Z</time>
      </trkpt>
      <trkpt lat="59.9374707" lon="17.648631">
        <ele>38.5901</ele>
        <time>2013-05-09T17:16:25Z</time>
      </trkpt>
      <trkpt lat="59.9374158" lon="17.6485234">
        <ele>38.5901</ele>
        <time>2013-05-09T17:16:26Z</time>
      </trkpt>
      <trkpt lat="59.9373523" lon="17.64842">
        <ele>38.5901</ele>
        <time>2013-05-09T17:16:27Z</time>
      </trkpt>
      <trkpt lat="59.9372901" lon="17.6483287">
        <ele>38.5901</ele>
        <time>2013-05-09T17:16:28Z</time>
      </trkpt>
      <trkpt lat="59.9372269" lon="17.6482427">
        <ele>38.5901</ele>
        <time>2013-05-09T17:16:29Z</time>
      </trkpt>
      <trkpt lat="59.9371646" lon="17.648159">
        <ele>38.5901</ele>
        <time>2013-05-09T17:16:30Z</time>
      </trkpt>
      <trkpt lat="59.9371029" lon="17.6480773">
        <ele>38.5901</ele>
        <time>2013-05-09T17:16:31Z</time>
      </trkpt>
      <trkpt lat="59.9370409" lon="17.6479991">
        <ele>38.5901</ele>
        <time>2013-05-09T17:16:32Z</time>
      </trkpt>
      <trkpt lat="59.9369788" lon="17.6479224">
        <ele>38.5901</ele>
        <time>2013-05-09T17:16:33Z</time>
      </trkpt>
      <trkpt lat="59.9369166" lon="17.6478464">
        <ele>38.5901</ele>
        <time>2013-05-09T17:16:34Z</time>
      </trkpt>
      <trkpt lat="59.9368555" lon="17.6477694">
        <ele>38.5901</ele>
        <time>2013-05-09T17:16:35Z</time>
      </trkpt>
      <trkpt lat="59.9367959" lon="17.647694">
        <ele>38.5901</ele>
        <time>2013-05-09T17:16:36Z</time>
      </trkpt>
      <trkpt lat="59.9367369" lon="17.6476195">
        <ele>38.5901</ele>
        <time>2013-05-09T17:16:37Z</time>
      </trkpt>
      <trkpt lat="59.9366779" lon="17.6475453">
        <ele>38.5901</ele>
        <time>2013-05-09T17:16:38Z</time>
      </trkpt>
      <trkpt lat="59.9366198" lon="17.647471">
        <ele>38.5901</ele>
        <time>2013-05-09T17:16:39Z</time>
      </trkpt>
      <trkpt lat="59.9365617" lon="17.6473972">
        <ele>38.5901</ele>
        <time>2013-05-09T17:16:40Z</time>
      </trkpt>
      <trkpt lat="59.9365037" lon="17.647323">
        <ele>38.5901</ele>
        <time>2013-05-09T17:16:41Z</time>
      </trkpt>
      <trkpt lat="59.9364448" lon="17.6472493">
        <ele>38.1094</ele>
        <time>2013-05-09T17:16:42Z</time>
      </trkpt>
      <trkpt lat="59.9363852" lon="17.6471755">
        <ele>38.1094</ele>
        <time>2013-05-09T17:16:43Z</time>
      </trkpt>
      <trkpt lat="59.9363261" lon="17.6471003">
        <ele>38.1094</ele>
        <time>2013-05-09T17:16:44Z</time>
      </trkpt>
      <trkpt lat="59.9362681" lon="17.6470253">
        <ele>38.1094</ele>
        <time>2013-05-09T17:16:45Z</time>
      </trkpt>
      <trkpt lat="59.9362107" lon="17.6469517">
        <ele>38.1094</ele>
        <time>2013-05-09T17:16:46Z</time>
      </trkpt>
      <trkpt lat="59.9361532" lon="17.6468788">
        <ele>38.1094</ele>
        <time>2013-05-09T17:16:47Z</time>
      </trkpt>
      <trkpt lat="59.9360951" lon="17.6468072">
        <ele>38.1094</ele>
        <time>2013-05-09T17:16:48Z</time>
      </trkpt>
      <trkpt lat="59.9360371" lon="17.6467357">
        <ele>38.1094</ele>
        <time>2013-05-09T17:16:49Z</time>
      </trkpt>
      <trkpt lat="59.93598" lon="17.6466628">
        <ele>38.1094</ele>
        <time>2013-05-09T17:16:50Z</time>
      </trkpt>
      <trkpt lat="59.9359235" lon="17.646589">
        <ele>38.1094</ele>
        <time>2013-05-09T17:16:51Z</time>
      </trkpt>
      <trkpt lat="59.935867" lon="17.6465161">
        <ele>38.1094</ele>
        <time>2013-05-09T17:16:52Z</time>
      </trkpt>
      <trkpt lat="59.935811" lon="17.6464444">
        <ele>38.1094</ele>
        <time>2013-05-09T17:16:53Z</time>
      </trkpt>
      <trkpt lat="59.9357551" lon="17.6463731">
        <ele>38.1094</ele>
        <time>2013-05-09T17:16:54Z</time>
      </trkpt>
      <trkpt lat="59.9356989" lon="17.6463021">
        <ele>38.1094</ele>
        <time>2013-05-09T17:16:55Z</time>
      </trkpt>
      <trkpt lat="59.9356416" lon="17.6462317">
        <ele>38.1094</ele>
        <time>2013-05-09T17:16:56Z</time>
      </trkpt>
      <trkpt lat="59.9355838" lon="17.6461602">
        <ele>38.1094</ele>
        <time>2013-05-09T17:16:57Z</time>
      </trkpt>
      <trkpt lat="59.9355267" lon="17.6460882">
        <ele>38.5901</ele>
        <time>2013-05-09T17:16:58Z</time>
      </trkpt>
      <trkpt lat="59.9354692" lon="17.6460162">
        <ele>38.5901</ele>
        <time>2013-05-09T17:16:59Z</time>
      </trkpt>
      <trkpt lat="59.9354109" lon="17.6459425">
        <ele>38.5901</ele>
        <time>2013-05-09T17:17:00Z</time>
      </trkpt>
      <trkpt lat="59.9353528" lon="17.6458655">
        <ele>38.5901</ele>
        <time>2013-05-09T17:17:01Z</time>
      </trkpt>
      <trkpt lat="59.9352952" lon="17.6457854">
        <ele>38.5901</ele>
        <time>2013-05-09T17:17:02Z</time>
      </trkpt>
      <trkpt lat="59.9352382" lon="17.6456989">
        <ele>38.5901</ele>
        <time>2013-05-09T17:17:03Z</time>
      </trkpt>
      <trkpt lat="59.935182" lon="17.6456054">
        <ele>38.5901</ele>
        <time>2013-05-09T17:17:04Z</time>
      </trkpt>
      <trkpt lat="59.9351252" lon="17.645509">
        <ele>38.1094</ele>
        <time>2013-05-09T17:17:05Z</time>
      </trkpt>
      <trkpt lat="59.9350586" lon="17.6454065">
        <ele>38.1094</ele>
        <time>2013-05-09T17:17:06Z</time>
      </trkpt>
      <trkpt lat="59.9349901" lon="17.6453437">
        <ele>38.5901</ele>
        <time>2013-05-09T17:17:07Z</time>
      </trkpt>
      <trkpt lat="59.9349185" lon="17.6452711">
        <ele>38.1094</ele>
        <time>2013-05-09T17:17:08Z</time>
      </trkpt>
      <trkpt lat="59.9348548" lon="17.6451826">
        <ele>38.1094</ele>
        <time>2013-05-09T17:17:09Z</time>
      </trkpt>
      <trkpt lat="59.9347857" lon="17.6450903">
        <ele>37.6287</ele>
        <time>2013-05-09T17:17:10Z</time>
      </trkpt>
      <trkpt lat="59.934704" lon="17.6450266">
        <ele>37.1481</ele>
        <time>2013-05-09T17:17:11Z</time>
      </trkpt>
      <trkpt lat="59.934642" lon="17.6449428">
        <ele>37.1481</ele>
        <time>2013-05-09T17:17:12Z</time>
      </trkpt>
      <trkpt lat="59.9345809" lon="17.6448589">
        <ele>36.6675</ele>
        <time>2013-05-09T17:17:13Z</time>
      </trkpt>
      <trkpt lat="59.9345198" lon="17.6447731">
        <ele>36.6675</ele>
        <time>2013-05-09T17:17:14Z</time>
      </trkpt>
      <trkpt lat="59.9344604" lon="17.64468">
        <ele>36.1868</ele>
        <time>2013-05-09T17:17:15Z</time>
      </trkpt>
      <trkpt lat="59.9344058" lon="17.6445762">
        <ele>35.2255</ele>
        <time>2013-05-09T17:17:16Z</time>
      </trkpt>
      <trkpt lat="59.9343473" lon="17.6444735">
        <ele>34.7449</ele>
        <time>2013-05-09T17:17:17Z</time>
      </trkpt>
      <trkpt lat="59.9342801" lon="17.6443739">
        <ele>34.2642</ele>
        <time>2013-05-09T17:17:18Z</time>
      </trkpt>
      <trkpt lat="59.9342106" lon="17.6442794">
        <ele>33.7834</ele>
        <time>2013-05-09T17:17:19Z</time>
      </trkpt>
      <trkpt lat="59.9341407" lon="17.6441872">
        <ele>33.3029</ele>
        <time>2013-05-09T17:17:20Z</time>
      </trkpt>
      <trkpt lat="59.9340712" lon="17.6440943">
        <ele>33.3029</ele>
        <time>2013-05-09T17:17:21Z</time>
      </trkpt>
      <trkpt lat="59.9340008" lon="17.6440036">
        <ele>33.3029</ele>
        <time>2013-05-09T17:17:22Z</time>
      </trkpt>
      <trkpt lat="59.9339291" lon="17.6439177">
        <ele>33.3029</ele>
        <time>2013-05-09T17:17:23Z</time>
      </trkpt>
      <trkpt lat="59.9338548" lon="17.643839">
        <ele>32.8223</ele>
        <time>2013-05-09T17:17:24Z</time>
      </trkpt>
      <trkpt lat="59.9337787" lon="17.6437665">
        <ele>32.8223</ele>
        <time>2013-05-09T17:17:25Z</time>
      </trkpt>
      <trkpt lat="59.9337017" lon="17.6436939">
        <ele>32.8223</ele>
        <time>2013-05-09T17:17:26Z</time>
      </trkpt>
      <trkpt lat="59.9336252" lon="17.6436156">
        <ele>32.3416</ele>
        <time>2013-05-09T17:17:27Z</time>
      </trkpt>
      <trkpt lat="59.9335466" lon="17.6435298">
        <ele>32.3416</ele>
        <time>2013-05-09T17:17:28Z</time>
      </trkpt>
      <trkpt lat="59.9334683" lon="17.6434385">
        <ele>31.8607</ele>
        <time>2013-05-09T17:17:29Z</time>
      </trkpt>
      <trkpt lat="59.9333909" lon="17.6433392">
        <ele>31.3801</ele>
        <time>2013-05-09T17:17:30Z</time>
      </trkpt>
      <trkpt lat="59.9333175" lon="17.6432261">
        <ele>30.4188</ele>
        <time>2013-05-09T17:17:31Z</time>
      </trkpt>
      <trkpt lat="59.9332467" lon="17.6431044">
        <ele>29.9381</ele>
        <time>2013-05-09T17:17:32Z</time>
      </trkpt>
      <trkpt lat="59.933171" lon="17.6429835">
        <ele>28.9769</ele>
        <time>2013-05-09T17:17:33Z</time>
      </trkpt>
      <trkpt lat="59.9330909" lon="17.6428675">
        <ele>28.9769</ele>
        <time>2013-05-09T17:17:34Z</time>
      </trkpt>
      <trkpt lat="59.9330083" lon="17.6427597">
        <ele>28.4962</ele>
        <time>2013-05-09T17:17:35Z</time>
      </trkpt>
      <trkpt lat="59.9329258" lon="17.6426533">
        <ele>28.0155</ele>
        <time>2013-05-09T17:17:36Z</time>
      </trkpt>
      <trkpt lat="59.932849" lon="17.6425352">
        <ele>28.0155</ele>
        <time>2013-05-09T17:17:37Z</time>
      </trkpt>
      <trkpt lat="59.9327773" lon="17.6424066">
        <ele>27.5349</ele>
        <time>2013-05-09T17:17:38Z</time>
      </trkpt>
      <trkpt lat="59.9327026" lon="17.6422861">
        <ele>27.0543</ele>
        <time>2013-05-09T17:17:39Z</time>
      </trkpt>
      <trkpt lat="59.9326209" lon="17.6421812">
        <ele>27.0543</ele>
        <time>2013-05-09T17:17:40Z</time>
      </trkpt>
      <trkpt lat="59.9325368" lon="17.6420871">
        <ele>26.5736</ele>
        <time>2013-05-09T17:17:41Z</time>
      </trkpt>
      <trkpt lat="59.9324517" lon="17.6419999">
        <ele>26.5736</ele>
        <time>2013-05-09T17:17:42Z</time>
      </trkpt>
      <trkpt lat="59.9323665" lon="17.6419173">
        <ele>26.5736</ele>
        <time>2013-05-09T17:17:43Z</time>
      </trkpt>
      <trkpt lat="59.932282" lon="17.6418382">
        <ele>26.5736</ele>
        <time>2013-05-09T17:17:44Z</time>
      </trkpt>
      <trkpt lat="59.9321986" lon="17.6417617">
        <ele>27.0543</ele>
        <time>2013-05-09T17:17:45Z</time>
      </trkpt>
      <trkpt lat="59.9321156" lon="17.6416829">
        <ele>27.5349</ele>
        <time>2013-05-09T17:17:46Z</time>
      </trkpt>
      <trkpt lat="59.9320343" lon="17.6416115">
        <ele>27.5349</ele>
        <time>2013-05-09T17:17:47Z</time>
      </trkpt>
      <trkpt lat="59.931954" lon="17.6415466">
        <ele>27.0543</ele>
        <time>2013-05-09T17:17:48Z</time>
      </trkpt>
      <trkpt lat="59.9318717" lon="17.6414893">
        <ele>27.0543</ele>
        <time>2013-05-09T17:17:49Z</time>
      </trkpt>
      <trkpt lat="59.9317876" lon="17.6414344">
        <ele>26.5736</ele>
        <time>2013-05-09T17:17:50Z</time>
      </trkpt>
      <trkpt lat="59.9317032" lon="17.6413779">
        <ele>26.5736</ele>
        <time>2013-05-09T17:17:51Z</time>
      </trkpt>
      <trkpt lat="59.9316195" lon="17.6413203">
        <ele>26.5736</ele>
        <time>2013-05-09T17:17:52Z</time>
      </trkpt>
      <trkpt lat="59.931537" lon="17.6412622">
        <ele>26.5736</ele>
        <time>2013-05-09T17:17:53Z</time>
      </trkpt>
      <trkpt lat="59.9314557" lon="17.6412042">
        <ele>26.5736</ele>
        <time>2013-05-09T17:17:54Z</time>
      </trkpt>
      <trkpt lat="59.9313758" lon="17.6411464">
        <ele>26.5736</ele>
        <time>2013-05-09T17:17:55Z</time>
      </trkpt>
      <trkpt lat="59.9312956" lon="17.6410882">
        <ele>26.0929</ele>
        <time>2013-05-09T17:17:56Z</time>
      </trkpt>
      <trkpt lat="59.9312128" lon="17.6410266">
        <ele>25.6123</ele>
        <time>2013-05-09T17:17:57Z</time>
      </trkpt>
      <trkpt lat="59.9311264" lon="17.640963">
        <ele>25.1317</ele>
        <time>2013-05-09T17:17:58Z</time>
      </trkpt>
      <trkpt lat="59.9310384" lon="17.6409006">
        <ele>24.651</ele>
        <time>2013-05-09T17:17:59Z</time>
      </trkpt>
      <trkpt lat="59.9309497" lon="17.6408476">
        <ele>24.651</ele>
        <time>2013-05-09T17:18:00Z</time>
      </trkpt>
      <trkpt lat="59.9308604" lon="17.6408138">
        <ele>24.651</ele>
        <time>2013-05-09T17:18:01Z</time>
      </trkpt>
      <trkpt lat="59.930771" lon="17.6408001">
        <ele>24.651</ele>
        <time>2013-05-09T17:18:02Z</time>
      </trkpt>
      <trkpt lat="59.9306829" lon="17.6408018">
        <ele>24.1703</ele>
        <time>2013-05-09T17:18:03Z</time>
      </trkpt>
      <trkpt lat="59.9305944" lon="17.6408138">
        <ele>23.6896</ele>
        <time>2013-05-09T17:18:04Z</time>
      </trkpt>
      <trkpt lat="59.9305052" lon="17.6408282">
        <ele>23.209</ele>
        <time>2013-05-09T17:18:05Z</time>
      </trkpt>
      <trkpt lat="59.9304147" lon="17.6408361">
        <ele>22.7283</ele>
        <time>2013-05-09T17:18:06Z</time>
      </trkpt>
      <trkpt lat="59.9303238" lon="17.6408351">
        <ele>22.2476</ele>
        <time>2013-05-09T17:18:07Z</time>
      </trkpt>
      <trkpt lat="59.9302327" lon="17.6408309">
        <ele>22.2476</ele>
        <time>2013-05-09T17:18:08Z</time>
      </trkpt>
      <trkpt lat="59.9301412" lon="17.6408281">
        <ele>21.767</ele>
        <time>2013-05-09T17:18:09Z</time>
      </trkpt>
      <trkpt lat="59.9300499" lon="17.6408283">
        <ele>21.767</ele>
        <time>2013-05-09T17:18:10Z</time>
      </trkpt>
      <trkpt lat="59.9299588" lon="17.6408298">
        <ele>21.767</ele>
        <time>2013-05-09T17:18:11Z</time>
      </trkpt>
      <trkpt lat="59.9298696" lon="17.6408319">
        <ele>21.767</ele>
        <time>2013-05-09T17:18:12Z</time>
      </trkpt>
      <trkpt lat="59.9297831" lon="17.6408388">
        <ele>21.767</ele>
        <time>2013-05-09T17:18:13Z</time>
      </trkpt>
      <trkpt lat="59.9296991" lon="17.6408543">
        <ele>21.2864</ele>
        <time>2013-05-09T17:18:14Z</time>
      </trkpt>
      <trkpt lat="59.9296152" lon="17.6408789">
        <ele>21.2864</ele>
        <time>2013-05-09T17:18:15Z</time>
      </trkpt>
      <trkpt lat="59.9295313" lon="17.6409055">
        <ele>20.8057</ele>
        <time>2013-05-09T17:18:16Z</time>
      </trkpt>
      <trkpt lat="59.929448" lon="17.6409214">
        <ele>20.8057</ele>
        <time>2013-05-09T17:18:17Z</time>
      </trkpt>
      <trkpt lat="59.9293647" lon="17.6409276">
        <ele>20.8057</ele>
        <time>2013-05-09T17:18:18Z</time>
      </trkpt>
      <trkpt lat="59.9292821" lon="17.6409318">
        <ele>20.8057</ele>
        <time>2013-05-09T17:18:19Z</time>
      </trkpt>
      <trkpt lat="59.9291999" lon="17.6409341">
        <ele>20.8057</ele>
        <time>2013-05-09T17:18:20Z</time>
      </trkpt>
      <trkpt lat="59.9291181" lon="17.6409376">
        <ele>20.325</ele>
        <time>2013-05-09T17:18:21Z</time>
      </trkpt>
      <trkpt lat="59.9290367" lon="17.6409428">
        <ele>20.325</ele>
        <time>2013-05-09T17:18:22Z</time>
      </trkpt>
      <trkpt lat="59.9289563" lon="17.6409516">
        <ele>20.325</ele>
        <time>2013-05-09T17:18:23Z</time>
      </trkpt>
      <trkpt lat="59.9288762" lon="17.6409645">
        <ele>20.325</ele>
        <time>2013-05-09T17:18:24Z</time>
      </trkpt>
      <trkpt lat="59.9287972" lon="17.6409817">
        <ele>20.325</ele>
        <time>2013-05-09T17:18:25Z</time>
      </trkpt>
      <trkpt lat="59.928719" lon="17.6410014">
        <ele>20.325</ele>
        <time>2013-05-09T17:18:26Z</time>
      </trkpt>
      <trkpt lat="59.9286414" lon="17.6410215">
        <ele>20.325</ele>
        <time>2013-05-09T17:18:27Z</time>
      </trkpt>
      <trkpt lat="59.9285644" lon="17.6410402">
        <ele>20.325</ele>
        <time>2013-05-09T17:18:28Z</time>
      </trkpt>
      <trkpt lat="59.9284874" lon="17.6410536">
        <ele>20.325</ele>
        <time>2013-05-09T17:18:29Z</time>
      </trkpt>
      <trkpt lat="59.9284097" lon="17.6410624">
        <ele>20.325</ele>
        <time>2013-05-09T17:18:30Z</time>
      </trkpt>
      <trkpt lat="59.9283317" lon="17.6410718">
        <ele>20.325</ele>
        <time>2013-05-09T17:18:31Z</time>
      </trkpt>
      <trkpt lat="59.9282535" lon="17.6410829">
        <ele>19.8444</ele>
        <time>2013-05-09T17:18:32Z</time>
      </trkpt>
      <trkpt lat="59.9281759" lon="17.641094">
        <ele>19.8444</ele>
        <time>2013-05-09T17:18:33Z</time>
      </trkpt>
      <trkpt lat="59.9280987" lon="17.6411049">
        <ele>19.8444</ele>
        <time>2013-05-09T17:18:34Z</time>
      </trkpt>
      <trkpt lat="59.9280219" lon="17.6411142">
        <ele>19.8444</ele>
        <time>2013-05-09T17:18:35Z</time>
      </trkpt>
      <trkpt lat="59.9279448" lon="17.6411218">
        <ele>19.8444</ele>
        <time>2013-05-09T17:18:36Z</time>
      </trkpt>
      <trkpt lat="59.9278681" lon="17.6411283">
        <ele>19.8444</ele>
        <time>2013-05-09T17:18:37Z</time>
      </trkpt>
      <trkpt lat="59.9277919" lon="17.641135">
        <ele>19.8444</ele>
        <time>2013-05-09T17:18:38Z</time>
      </trkpt>
      <trkpt lat="59.9277162" lon="17.6411431">
        <ele>19.8444</ele>
        <time>2013-05-09T17:18:39Z</time>
      </trkpt>
      <trkpt lat="59.9276411" lon="17.6411511">
        <ele>19.8444</ele>
        <time>2013-05-09T17:18:40Z</time>
      </trkpt>
      <trkpt lat="59.9275666" lon="17.6411579">
        <ele>19.8444</ele>
        <time>2013-05-09T17:18:41Z</time>
      </trkpt>
      <trkpt lat="59.9274929" lon="17.6411653">
        <ele>19.8444</ele>
        <time>2013-05-09T17:18:42Z</time>
      </trkpt>
      <trkpt lat="59.92742" lon="17.6411744">
        <ele>19.8444</ele>
        <time>2013-05-09T17:18:43Z</time>
      </trkpt>
      <trkpt lat="59.9273488" lon="17.6411831">
        <ele>19.8444</ele>
        <time>2013-05-09T17:18:44Z</time>
      </trkpt>
      <trkpt lat="59.9272784" lon="17.6411881">
        <ele>19.8444</ele>
        <time>2013-05-09T17:18:45Z</time>
      </trkpt>
      <trkpt lat="59.9272076" lon="17.6411919">
        <ele>19.8444</ele>
        <time>2013-05-09T17:18:46Z</time>
      </trkpt>
      <trkpt lat="59.9271357" lon="17.6411983">
        <ele>19.8444</ele>
        <time>2013-05-09T17:18:47Z</time>
      </trkpt>
      <trkpt lat="59.9270632" lon="17.6412066">
        <ele>19.8444</ele>
        <time>2013-05-09T17:18:48Z</time>
      </trkpt>
      <trkpt lat="59.9269901" lon="17.6412153">
        <ele>19.8444</ele>
        <time>2013-05-09T17:18:49Z</time>
      </trkpt>
      <trkpt lat="59.9269166" lon="17.6412236">
        <ele>19.8444</ele>
        <time>2013-05-09T17:18:50Z</time>
      </trkpt>
      <trkpt lat="59.9268432" lon="17.6412319">
        <ele>19.8444</ele>
        <time>2013-05-09T17:18:51Z</time>
      </trkpt>
      <trkpt lat="59.9267699" lon="17.6412404">
        <ele>20.325</ele>
        <time>2013-05-09T17:18:52Z</time>
      </trkpt>
      <trkpt lat="59.9266967" lon="17.641249">
        <ele>20.325</ele>
        <time>2013-05-09T17:18:53Z</time>
      </trkpt>
      <trkpt lat="59.9266234" lon="17.6412586">
        <ele>20.325</ele>
        <time>2013-05-09T17:18:54Z</time>
      </trkpt>
      <trkpt lat="59.9265503" lon="17.641268">
        <ele>20.325</ele>
        <time>2013-05-09T17:18:55Z</time>
      </trkpt>
      <trkpt lat="59.9264772" lon="17.6412774">
        <ele>20.325</ele>
        <time>2013-05-09T17:18:56Z</time>
      </trkpt>
      <trkpt lat="59.9264043" lon="17.6412871">
        <ele>20.325</ele>
        <time>2013-05-09T17:18:57Z</time>
      </trkpt>
      <trkpt lat="59.9263322" lon="17.6412962">
        <ele>20.325</ele>
        <time>2013-05-09T17:18:58Z</time>
      </trkpt>
      <trkpt lat="59.9262612" lon="17.641306">
        <ele>20.325</ele>
        <time>2013-05-09T17:18:59Z</time>
      </trkpt>
      <trkpt lat="59.9261907" lon="17.6413169">
        <ele>20.325</ele>
        <time>2013-05-09T17:19:00Z</time>
      </trkpt>
      <trkpt lat="59.9261203" lon="17.6413274">
        <ele>20.325</ele>
        <time>2013-05-09T17:19:01Z</time>
      </trkpt>
      <trkpt lat="59.9260499" lon="17.6413359">
        <ele>20.325</ele>
        <time>2013-05-09T17:19:02Z</time>
      </trkpt>
      <trkpt lat="59.9259797" lon="17.6413456">
        <ele>20.325</ele>
        <time>2013-05-09T17:19:03Z</time>
      </trkpt>
      <trkpt lat="59.9259095" lon="17.641357">
        <ele>20.325</ele>
        <time>2013-05-09T17:19:04Z</time>
      </trkpt>
      <trkpt lat="59.9258402" lon="17.641367">
        <ele>20.325</ele>
        <time>2013-05-09T17:19:05Z</time>
      </trkpt>
      <trkpt lat="59.9257713" lon="17.6413747">
        <ele>20.325</ele>
        <time>2013-05-09T17:19:06Z</time>
      </trkpt>
      <trkpt lat="59.9257033" lon="17.6413844">
        <ele>20.325</ele>
        <time>2013-05-09T17:19:07Z</time>
      </trkpt>
      <trkpt lat="59.9256354" lon="17.641395">
        <ele>20.325</ele>
        <time>2013-05-09T17:19:08Z</time>
      </trkpt>
      <trkpt lat="59.9255666" lon="17.6414043">
        <ele>20.325</ele>
        <time>2013-05-09T17:19:09Z</time>
      </trkpt>
      <trkpt lat="59.9254978" lon="17.6414134">
        <ele>20.325</ele>
        <time>2013-05-09T17:19:10Z</time>
      </trkpt>
      <trkpt lat="59.9254289" lon="17.6414215">
        <ele>20.325</ele>
        <time>2013-05-09T17:19:11Z</time>
      </trkpt>
      <trkpt lat="59.9253605" lon="17.6414275">
        <ele>20.8057</ele>
        <time>2013-05-09T17:19:12Z</time>
      </trkpt>
      <trkpt lat="59.9252926" lon="17.6414307">
        <ele>20.8057</ele>
        <time>2013-05-09T17:19:13Z</time>
      </trkpt>
      <trkpt lat="59.9252247" lon="17.6414321">
        <ele>20.8057</ele>
        <time>2013-05-09T17:19:14Z</time>
      </trkpt>
      <trkpt lat="59.9251566" lon="17.6414328">
        <ele>20.8057</ele>
        <time>2013-05-09T17:19:15Z</time>
      </trkpt>
      <trkpt lat="59.9250887" lon="17.6414338">
        <ele>20.8057</ele>
        <time>2013-05-09T17:19:16Z</time>
      </trkpt>
      <trkpt lat="59.9250211" lon="17.6414354">
        <ele>20.8057</ele>
        <time>2013-05-09T17:19:17Z</time>
      </trkpt>
      <trkpt lat="59.9249543" lon="17.641439">
        <ele>20.8057</ele>
        <time>2013-05-09T17:19:18Z</time>
      </trkpt>
      <trkpt lat="59.9248879" lon="17.6414446">
        <ele>21.2864</ele>
        <time>2013-05-09T17:19:19Z</time>
      </trkpt>
      <trkpt lat="59.9248223" lon="17.6414516">
        <ele>21.2864</ele>
        <time>2013-05-09T17:19:20Z</time>
      </trkpt>
      <trkpt lat="59.9247569" lon="17.641465">
        <ele>21.2864</ele>
        <time>2013-05-09T17:19:21Z</time>
      </trkpt>
      <trkpt lat="59.9246915" lon="17.6414825">
        <ele>21.767</ele>
        <time>2013-05-09T17:19:22Z</time>
      </trkpt>
      <trkpt lat="59.9246258" lon="17.6414989">
        <ele>21.767</ele>
        <time>2013-05-09T17:19:23Z</time>
      </trkpt>
      <trkpt lat="59.9245594" lon="17.6415134">
        <ele>21.767</ele>
        <time>2013-05-09T17:19:24Z</time>
      </trkpt>
      <trkpt lat="59.9244932" lon="17.6415261">
        <ele>21.767</ele>
        <time>2013-05-09T17:19:25Z</time>
      </trkpt>
      <trkpt lat="59.924427" lon="17.6415365">
        <ele>21.767</ele>
        <time>2013-05-09T17:19:26Z</time>
      </trkpt>
      <trkpt lat="59.9243615" lon="17.6415457">
        <ele>21.767</ele>
        <time>2013-05-09T17:19:27Z</time>
      </trkpt>
      <trkpt lat="59.9242959" lon="17.6415518">
        <ele>21.767</ele>
        <time>2013-05-09T17:19:28Z</time>
      </trkpt>
      <trkpt lat="59.9242305" lon="17.6415551">
        <ele>21.767</ele>
        <time>2013-05-09T17:19:29Z</time>
      </trkpt>
      <trkpt lat="59.9241651" lon="17.6415566">
        <ele>21.767</ele>
        <time>2013-05-09T17:19:30Z</time>
      </trkpt>
      <trkpt lat="59.9240994" lon="17.64156">
        <ele>21.767</ele>
        <time>2013-05-09T17:19:31Z</time>
      </trkpt>
      <trkpt lat="59.9240333" lon="17.641566">
        <ele>21.767</ele>
        <time>2013-05-09T17:19:32Z</time>
      </trkpt>
      <trkpt lat="59.9239676" lon="17.6415738">
        <ele>21.767</ele>
        <time>2013-05-09T17:19:33Z</time>
      </trkpt>
      <trkpt lat="59.9239023" lon="17.6415815">
        <ele>21.767</ele>
        <time>2013-05-09T17:19:34Z</time>
      </trkpt>
      <trkpt lat="59.9238369" lon="17.6415886">
        <ele>21.767</ele>
        <time>2013-05-09T17:19:35Z</time>
      </trkpt>
      <trkpt lat="59.9237712" lon="17.6415963">
        <ele>21.767</ele>
        <time>2013-05-09T17:19:36Z</time>
      </trkpt>
      <trkpt lat="59.9237058" lon="17.6416048">
        <ele>21.767</ele>
        <time>2013-05-09T17:19:37Z</time>
      </trkpt>
      <trkpt lat="59.9236411" lon="17.641613">
        <ele>21.767</ele>
        <time>2013-05-09T17:19:38Z</time>
      </trkpt>
      <trkpt lat="59.9235782" lon="17.641622">
        <ele>22.2476</ele>
        <time>2013-05-09T17:19:39Z</time>
      </trkpt>
      <trkpt lat="59.9235164" lon="17.6416312">
        <ele>22.2476</ele>
        <time>2013-05-09T17:19:40Z</time>
      </trkpt>
      <trkpt lat="59.9234547" lon="17.641639">
        <ele>22.7283</ele>
        <time>2013-05-09T17:19:41Z</time>
      </trkpt>
      <trkpt lat="59.9233928" lon="17.6416456">
        <ele>22.7283</ele>
        <time>2013-05-09T17:19:42Z</time>
      </trkpt>
      <trkpt lat="59.9233303" lon="17.6416523">
        <ele>22.7283</ele>
        <time>2013-05-09T17:19:43Z</time>
      </trkpt>
      <trkpt lat="59.923267" lon="17.6416598">
        <ele>23.209</ele>
        <time>2013-05-09T17:19:44Z</time>
      </trkpt>
      <trkpt lat="59.9232029" lon="17.6416681">
        <ele>23.209</ele>
        <time>2013-05-09T17:19:45Z</time>
      </trkpt>
      <trkpt lat="59.923138" lon="17.6416763">
        <ele>23.6896</ele>
        <time>2013-05-09T17:19:46Z</time>
      </trkpt>
      <trkpt lat="59.9230722" lon="17.641685">
        <ele>23.6896</ele>
        <time>2013-05-09T17:19:47Z</time>
      </trkpt>
      <trkpt lat="59.9230039" lon="17.6416906">
        <ele>23.6896</ele>
        <time>2013-05-09T17:19:48Z</time>
      </trkpt>
      <trkpt lat="59.9229349" lon="17.6416971">
        <ele>24.1703</ele>
        <time>2013-05-09T17:19:49Z</time>
      </trkpt>
      <trkpt lat="59.9228681" lon="17.6417047">
        <ele>24.1703</ele>
        <time>2013-05-09T17:19:50Z</time>
      </trkpt>
      <trkpt lat="59.9228054" lon="17.6417106">
        <ele>24.651</ele>
        <time>2013-05-09T17:19:51Z</time>
      </trkpt>
      <trkpt lat="59.9227449" lon="17.6417162">
        <ele>24.651</ele>
        <time>2013-05-09T17:19:52Z</time>
      </trkpt>
      <trkpt lat="59.9226857" lon="17.641726">
        <ele>25.1317</ele>
        <time>2013-05-09T17:19:53Z</time>
      </trkpt>
      <trkpt lat="59.9226269" lon="17.6417379">
        <ele>25.1317</ele>
        <time>2013-05-09T17:19:54Z</time>
      </trkpt>
      <trkpt lat="59.9225683" lon="17.6417502">
        <ele>25.6123</ele>
        <time>2013-05-09T17:19:55Z</time>
      </trkpt>
      <trkpt lat="59.922509" lon="17.6417602">
        <ele>25.6123</ele>
        <time>2013-05-09T17:19:56Z</time>
      </trkpt>
      <trkpt lat="59.922449" lon="17.6417716">
        <ele>25.6123</ele>
        <time>2013-05-09T17:19:57Z</time>
      </trkpt>
      <trkpt lat="59.9223883" lon="17.6417831">
        <ele>26.0929</ele>
        <time>2013-05-09T17:19:58Z</time>
      </trkpt>
      <trkpt lat="59.9223262" lon="17.6417905">
        <ele>26.0929</ele>
        <time>2013-05-09T17:19:59Z</time>
      </trkpt>
      <trkpt lat="59.9222636" lon="17.6417957">
        <ele>26.5736</ele>
        <time>2013-05-09T17:20:00Z</time>
      </trkpt>
      <trkpt lat="59.922201" lon="17.6418015">
        <ele>26.5736</ele>
        <time>2013-05-09T17:20:01Z</time>
      </trkpt>
      <trkpt lat="59.9221384" lon="17.641808">
        <ele>27.0543</ele>
        <time>2013-05-09T17:20:02Z</time>
      </trkpt>
      <trkpt lat="59.9220762" lon="17.6418135">
        <ele>27.5349</ele>
        <time>2013-05-09T17:20:03Z</time>
      </trkpt>
      <trkpt lat="59.9220141" lon="17.6418177">
        <ele>28.0155</ele>
        <time>2013-05-09T17:20:04Z</time>
      </trkpt>
      <trkpt lat="59.9219514" lon="17.6418229">
        <ele>28.0155</ele>
        <time>2013-05-09T17:20:05Z</time>
      </trkpt>
      <trkpt lat="59.9218892" lon="17.6418291">
        <ele>28.4962</ele>
        <time>2013-05-09T17:20:06Z</time>
      </trkpt>
      <trkpt lat="59.9218265" lon="17.6418358">
        <ele>28.4962</ele>
        <time>2013-05-09T17:20:07Z</time>
      </trkpt>
      <trkpt lat="59.9217632" lon="17.6418437">
        <ele>28.9769</ele>
        <time>2013-05-09T17:20:08Z</time>
      </trkpt>
      <trkpt lat="59.9216994" lon="17.6418534">
        <ele>28.9769</ele>
        <time>2013-05-09T17:20:09Z</time>
      </trkpt>
      <trkpt lat="59.9216354" lon="17.6418633">
        <ele>28.9769</ele>
        <time>2013-05-09T17:20:10Z</time>
      </trkpt>
      <trkpt lat="59.9215709" lon="17.6418752">
        <ele>29.4575</ele>
        <time>2013-05-09T17:20:11Z</time>
      </trkpt>
      <trkpt lat="59.9215086" lon="17.6418804">
        <ele>29.9381</ele>
        <time>2013-05-09T17:20:12Z</time>
      </trkpt>
      <trkpt lat="59.9214456" lon="17.6418857">
        <ele>30.4188</ele>
        <time>2013-05-09T17:20:13Z</time>
      </trkpt>
      <trkpt lat="59.9213808" lon="17.6418907">
        <ele>30.4188</ele>
        <time>2013-05-09T17:20:14Z</time>
      </trkpt>
      <trkpt lat="59.9213136" lon="17.641902">
        <ele>30.8995</ele>
        <time>2013-05-09T17:20:15Z</time>
      </trkpt>
      <trkpt lat="59.9212444" lon="17.6419104">
        <ele>31.3801</ele>
        <time>2013-05-09T17:20:16Z</time>
      </trkpt>
      <trkpt lat="59.9211731" lon="17.6419182">
        <ele>31.3801</ele>
        <time>2013-05-09T17:20:17Z</time>
      </trkpt>
      <trkpt lat="59.9211004" lon="17.6419259">
        <ele>30.8995</ele>
        <time>2013-05-09T17:20:18Z</time>
      </trkpt>
      <trkpt lat="59.9210267" lon="17.6419311">
        <ele>30.8995</ele>
        <time>2013-05-09T17:20:19Z</time>
      </trkpt>
      <trkpt lat="59.9209537" lon="17.6419335">
        <ele>30.8995</ele>
        <time>2013-05-09T17:20:20Z</time>
      </trkpt>
      <trkpt lat="59.9208805" lon="17.6419353">
        <ele>30.8995</ele>
        <time>2013-05-09T17:20:21Z</time>
      </trkpt>
      <trkpt lat="59.9208055" lon="17.6419358">
        <ele>30.4188</ele>
        <time>2013-05-09T17:20:22Z</time>
      </trkpt>
      <trkpt lat="59.9207298" lon="17.6419338">
        <ele>30.4188</ele>
        <time>2013-05-09T17:20:23Z</time>
      </trkpt>
      <trkpt lat="59.9206531" lon="17.6419276">
        <ele>30.4188</ele>
        <time>2013-05-09T17:20:24Z</time>
      </trkpt>
      <trkpt lat="59.9205774" lon="17.6419186">
        <ele>30.4188</ele>
        <time>2013-05-09T17:20:25Z</time>
      </trkpt>
      <trkpt lat="59.9205017" lon="17.6419161">
        <ele>30.4188</ele>
        <time>2013-05-09T17:20:26Z</time>
      </trkpt>
      <trkpt lat="59.9204266" lon="17.6419187">
        <ele>30.4188</ele>
        <time>2013-05-09T17:20:27Z</time>
      </trkpt>
      <trkpt lat="59.9203526" lon="17.6419229">
        <ele>30.8995</ele>
        <time>2013-05-09T17:20:28Z</time>
      </trkpt>
      <trkpt lat="59.9202795" lon="17.6419271">
        <ele>30.8995</ele>
        <time>2013-05-09T17:20:29Z</time>
      </trkpt>
      <trkpt lat="59.9202084" lon="17.6419297">
        <ele>31.3801</ele>
        <time>2013-05-09T17:20:30Z</time>
      </trkpt>
      <trkpt lat="59.9201384" lon="17.6419317">
        <ele>30.8995</ele>
        <time>2013-05-09T17:20:31Z</time>
      </trkpt>
      <trkpt lat="59.920068" lon="17.6419344">
        <ele>30.8995</ele>
        <time>2013-05-09T17:20:32Z</time>
      </trkpt>
      <trkpt lat="59.9199974" lon="17.6419395">
        <ele>30.8995</ele>
        <time>2013-05-09T17:20:33Z</time>
      </trkpt>
      <trkpt lat="59.9199271" lon="17.6419491">
        <ele>30.8995</ele>
        <time>2013-05-09T17:20:34Z</time>
      </trkpt>
      <trkpt lat="59.9198586" lon="17.6419662">
        <ele>30.8995</ele>
        <time>2013-05-09T17:20:35Z</time>
      </trkpt>
      <trkpt lat="59.919791" lon="17.6419856">
        <ele>30.8995</ele>
        <time>2013-05-09T17:20:36Z</time>
      </trkpt>
      <trkpt lat="59.9197234" lon="17.6420048">
        <ele>30.8995</ele>
        <time>2013-05-09T17:20:37Z</time>
      </trkpt>
      <trkpt lat="59.9196555" lon="17.6420202">
        <ele>30.8995</ele>
        <time>2013-05-09T17:20:38Z</time>
      </trkpt>
      <trkpt lat="59.9195875" lon="17.6420285">
        <ele>31.3801</ele>
        <time>2013-05-09T17:20:39Z</time>
      </trkpt>
      <trkpt lat="59.9195194" lon="17.6420342">
        <ele>31.3801</ele>
        <time>2013-05-09T17:20:40Z</time>
      </trkpt>
      <trkpt lat="59.9194517" lon="17.6420419">
        <ele>31.3801</ele>
        <time>2013-05-09T17:20:41Z</time>
      </trkpt>
      <trkpt lat="59.9193842" lon="17.6420521">
        <ele>31.3801</ele>
        <time>2013-05-09T17:20:42Z</time>
      </trkpt>
      <trkpt lat="59.9193169" lon="17.6420601">
        <ele>31.3801</ele>
        <time>2013-05-09T17:20:43Z</time>
      </trkpt>
      <trkpt lat="59.9192499" lon="17.6420661">
        <ele>31.3801</ele>
        <time>2013-05-09T17:20:44Z</time>
      </trkpt>
      <trkpt lat="59.9191835" lon="17.6420746">
        <ele>31.8607</ele>
        <time>2013-05-09T17:20:45Z</time>
      </trkpt>
      <trkpt lat="59.9191172" lon="17.6420827">
        <ele>31.8607</ele>
        <time>2013-05-09T17:20:46Z</time>
      </trkpt>
      <trkpt lat="59.9190505" lon="17.6420891">
        <ele>31.8607</ele>
        <time>2013-05-09T17:20:47Z</time>
      </trkpt>
      <trkpt lat="59.9189829" lon="17.6420964">
        <ele>31.8607</ele>
        <time>2013-05-09T17:20:48Z</time>
      </trkpt>
      <trkpt lat="59.9189146" lon="17.6421046">
        <ele>31.8607</ele>
        <time>2013-05-09T17:20:49Z</time>
      </trkpt>
      <trkpt lat="59.9188458" lon="17.6421133">
        <ele>31.8607</ele>
        <time>2013-05-09T17:20:50Z</time>
      </trkpt>
      <trkpt lat="59.9187765" lon="17.6421233">
        <ele>31.8607</ele>
        <time>2013-05-09T17:20:51Z</time>
      </trkpt>
      <trkpt lat="59.9187077" lon="17.6421342">
        <ele>31.8607</ele>
        <time>2013-05-09T17:20:52Z</time>
      </trkpt>
      <trkpt lat="59.9186398" lon="17.6421438">
        <ele>31.3801</ele>
        <time>2013-05-09T17:20:53Z</time>
      </trkpt>
      <trkpt lat="59.918572" lon="17.6421529">
        <ele>31.3801</ele>
        <time>2013-05-09T17:20:54Z</time>
      </trkpt>
      <trkpt lat="59.9185043" lon="17.6421626">
        <ele>31.8607</ele>
        <time>2013-05-09T17:20:55Z</time>
      </trkpt>
      <trkpt lat="59.9184361" lon="17.642171">
        <ele>31.8607</ele>
        <time>2013-05-09T17:20:56Z</time>
      </trkpt>
      <trkpt lat="59.9183663" lon="17.6421796">
        <ele>31.3801</ele>
        <time>2013-05-09T17:20:57Z</time>
      </trkpt>
      <trkpt lat="59.9182951" lon="17.6421864">
        <ele>31.3801</ele>
        <time>2013-05-09T17:20:58Z</time>
      </trkpt>
      <trkpt lat="59.918222" lon="17.6421912">
        <ele>30.8995</ele>
        <time>2013-05-09T17:20:59Z</time>
      </trkpt>
      <trkpt lat="59.9181466" lon="17.6421973">
        <ele>30.8995</ele>
        <time>2013-05-09T17:21:00Z</time>
      </trkpt>
      <trkpt lat="59.9180693" lon="17.6422047">
        <ele>30.4188</ele>
        <time>2013-05-09T17:21:01Z</time>
      </trkpt>
      <trkpt lat="59.9179904" lon="17.6422129">
        <ele>30.4188</ele>
        <time>2013-05-09T17:21:02Z</time>
      </trkpt>
      <trkpt lat="59.9179107" lon="17.6422197">
        <ele>29.9381</ele>
        <time>2013-05-09T17:21:03Z</time>
      </trkpt>
      <trkpt lat="59.9178306" lon="17.6422244">
        <ele>29.9381</ele>
        <time>2013-05-09T17:21:04Z</time>
      </trkpt>
      <trkpt lat="59.9177508" lon="17.6422269">
        <ele>29.9381</ele>
        <time>2013-05-09T17:21:05Z</time>
      </trkpt>
      <trkpt lat="59.9176714" lon="17.6422274">
        <ele>29.4575</ele>
        <time>2013-05-09T17:21:06Z</time>
      </trkpt>
      <trkpt lat="59.9175923" lon="17.642227">
        <ele>29.4575</ele>
        <time>2013-05-09T17:21:07Z</time>
      </trkpt>
      <trkpt lat="59.9175137" lon="17.6422283">
        <ele>29.4575</ele>
        <time>2013-05-09T17:21:08Z</time>
      </trkpt>
      <trkpt lat="59.9174359" lon="17.6422329">
        <ele>29.4575</ele>
        <time>2013-05-09T17:21:09Z</time>
      </trkpt>
      <trkpt lat="59.9173587" lon="17.6422358">
        <ele>29.4575</ele>
        <time>2013-05-09T17:21:10Z</time>
      </trkpt>
      <trkpt lat="59.917282" lon="17.6422322">
        <ele>29.4575</ele>
        <time>2013-05-09T17:21:11Z</time>
      </trkpt>
      <trkpt lat="59.9172057" lon="17.6422311">
        <ele>29.4575</ele>
        <time>2013-05-09T17:21:12Z</time>
      </trkpt>
      <trkpt lat="59.9171311" lon="17.6422464">
        <ele>29.9381</ele>
        <time>2013-05-09T17:21:13Z</time>
      </trkpt>
      <trkpt lat="59.9170589" lon="17.6422725">
        <ele>29.9381</ele>
        <time>2013-05-09T17:21:14Z</time>
      </trkpt>
      <trkpt lat="59.9169882" lon="17.6422948">
        <ele>30.4188</ele>
        <time>2013-05-09T17:21:15Z</time>
      </trkpt>
      <trkpt lat="59.916918" lon="17.6423099">
        <ele>30.4188</ele>
        <time>2013-05-09T17:21:16Z</time>
      </trkpt>
      <trkpt lat="59.9168487" lon="17.6423221">
        <ele>30.8995</ele>
        <time>2013-05-09T17:21:17Z</time>
      </trkpt>
      <trkpt lat="59.9167796" lon="17.642334">
        <ele>30.8995</ele>
        <time>2013-05-09T17:21:18Z</time>
      </trkpt>
      <trkpt lat="59.9167108" lon="17.6423434">
        <ele>31.3801</ele>
        <time>2013-05-09T17:21:19Z</time>
      </trkpt>
      <trkpt lat="59.9166428" lon="17.6423512">
        <ele>31.3801</ele>
        <time>2013-05-09T17:21:20Z</time>
      </trkpt>
      <trkpt lat="59.9165753" lon="17.6423606">
        <ele>31.8607</ele>
        <time>2013-05-09T17:21:21Z</time>
      </trkpt>
      <trkpt lat="59.9165082" lon="17.6423715">
        <ele>31.8607</ele>
        <time>2013-05-09T17:21:22Z</time>
      </trkpt>
      <trkpt lat="59.9164411" lon="17.6423827">
        <ele>31.8607</ele>
        <time>2013-05-09T17:21:23Z</time>
      </trkpt>
      <trkpt lat="59.9163739" lon="17.6423936">
        <ele>32.3416</ele>
        <time>2013-05-09T17:21:24Z</time>
      </trkpt>
      <trkpt lat="59.9163066" lon="17.6424025">
        <ele>32.3416</ele>
        <time>2013-05-09T17:21:25Z</time>
      </trkpt>
      <trkpt lat="59.9162388" lon="17.6424088">
        <ele>32.3416</ele>
        <time>2013-05-09T17:21:26Z</time>
      </trkpt>
      <trkpt lat="59.9161701" lon="17.6424129">
        <ele>32.3416</ele>
        <time>2013-05-09T17:21:27Z</time>
      </trkpt>
      <trkpt lat="59.9160998" lon="17.6424154">
        <ele>32.3416</ele>
        <time>2013-05-09T17:21:28Z</time>
      </trkpt>
      <trkpt lat="59.9160282" lon="17.6424168">
        <ele>32.3416</ele>
        <time>2013-05-09T17:21:29Z</time>
      </trkpt>
      <trkpt lat="59.9159554" lon="17.6424187">
        <ele>32.3416</ele>
        <time>2013-05-09T17:21:30Z</time>
      </trkpt>
      <trkpt lat="59.9158818" lon="17.6424207">
        <ele>32.3416</ele>
        <time>2013-05-09T17:21:31Z</time>
      </trkpt>
      <trkpt lat="59.9158077" lon="17.6424222">
        <ele>32.3416</ele>
        <time>2013-05-09T17:21:32Z</time>
      </trkpt>
      <trkpt lat="59.9157329" lon="17.6424269">
        <ele>32.3416</ele>
        <time>2013-05-09T17:21:33Z</time>
      </trkpt>
      <trkpt lat="59.915658" lon="17.6424363">
        <ele>31.8607</ele>
        <time>2013-05-09T17:21:34Z</time>
      </trkpt>
      <trkpt lat="59.9155829" lon="17.6424492">
        <ele>31.8607</ele>
        <time>2013-05-09T17:21:35Z</time>
      </trkpt>
      <trkpt lat="59.9155076" lon="17.6424652">
        <ele>31.8607</ele>
        <time>2013-05-09T17:21:36Z</time>
      </trkpt>
      <trkpt lat="59.9154328" lon="17.6424833">
        <ele>32.3416</ele>
        <time>2013-05-09T17:21:37Z</time>
      </trkpt>
      <trkpt lat="59.9153611" lon="17.6425111">
        <ele>32.3416</ele>
        <time>2013-05-09T17:21:38Z</time>
      </trkpt>
      <trkpt lat="59.9152935" lon="17.6425538">
        <ele>32.3416</ele>
        <time>2013-05-09T17:21:39Z</time>
      </trkpt>
      <trkpt lat="59.9152307" lon="17.6425962">
        <ele>32.3416</ele>
        <time>2013-05-09T17:21:40Z</time>
      </trkpt>
      <trkpt lat="59.9151706" lon="17.6426332">
        <ele>32.3416</ele>
        <time>2013-05-09T17:21:41Z</time>
      </trkpt>
      <trkpt lat="59.915109" lon="17.6426599">
        <ele>32.8223</ele>
        <time>2013-05-09T17:21:42Z</time>
      </trkpt>
      <trkpt lat="59.9150426" lon="17.642673">
        <ele>32.3416</ele>
        <time>2013-05-09T17:21:43Z</time>
      </trkpt>
      <trkpt lat="59.9149732" lon="17.6426849">
        <ele>32.3416</ele>
        <time>2013-05-09T17:21:44Z</time>
      </trkpt>
      <trkpt lat="59.9149028" lon="17.6426937">
        <ele>32.3416</ele>
        <time>2013-05-09T17:21:45Z</time>
      </trkpt>
      <trkpt lat="59.9148318" lon="17.6427061">
        <ele>31.8607</ele>
        <time>2013-05-09T17:21:46Z</time>
      </trkpt>
      <trkpt lat="59.9147593" lon="17.6427185">
        <ele>31.8607</ele>
        <time>2013-05-09T17:21:47Z</time>
      </trkpt>
      <trkpt lat="59.9146856" lon="17.6427294">
        <ele>31.3801</ele>
        <time>2013-05-09T17:21:48Z</time>
      </trkpt>
      <trkpt lat="59.9146111" lon="17.6427447">
        <ele>31.3801</ele>
        <time>2013-05-09T17:21:49Z</time>
      </trkpt>
      <trkpt lat="59.914535" lon="17.642759">
        <ele>31.3801</ele>
        <time>2013-05-09T17:21:50Z</time>
      </trkpt>
      <trkpt lat="59.9144618" lon="17.6427723">
        <ele>31.3801</ele>
        <time>2013-05-09T17:21:51Z</time>
      </trkpt>
      <trkpt lat="59.914389" lon="17.6427862">
        <ele>31.3801</ele>
        <time>2013-05-09T17:21:52Z</time>
      </trkpt>
      <trkpt lat="59.914318" lon="17.6427988">
        <ele>31.8607</ele>
        <time>2013-05-09T17:21:53Z</time>
      </trkpt>
      <trkpt lat="59.9142486" lon="17.6428112">
        <ele>31.3801</ele>
        <time>2013-05-09T17:21:54Z</time>
      </trkpt>
      <trkpt lat="59.914114" lon="17.6428434">
        <ele>31.8607</ele>
        <time>2013-05-09T17:21:56Z</time>
      </trkpt>
      <trkpt lat="59.9140486" lon="17.6428551">
        <ele>31.3801</ele>
        <time>2013-05-09T17:21:57Z</time>
      </trkpt>
      <trkpt lat="59.9139864" lon="17.6428645">
        <ele>31.3801</ele>
        <time>2013-05-09T17:21:58Z</time>
      </trkpt>
      <trkpt lat="59.9139238" lon="17.6428737">
        <ele>31.3801</ele>
        <time>2013-05-09T17:21:59Z</time>
      </trkpt>
      <trkpt lat="59.9138606" lon="17.6428838">
        <ele>31.3801</ele>
        <time>2013-05-09T17:22:00Z</time>
      </trkpt>
      <trkpt lat="59.9137974" lon="17.6428983">
        <ele>31.3801</ele>
        <time>2013-05-09T17:22:01Z</time>
      </trkpt>
      <trkpt lat="59.9137345" lon="17.6429147">
        <ele>31.3801</ele>
        <time>2013-05-09T17:22:02Z</time>
      </trkpt>
      <trkpt lat="59.9136702" lon="17.6429299">
        <ele>31.3801</ele>
        <time>2013-05-09T17:22:03Z</time>
      </trkpt>
      <trkpt lat="59.9136056" lon="17.6429434">
        <ele>30.8995</ele>
        <time>2013-05-09T17:22:04Z</time>
      </trkpt>
      <trkpt lat="59.9135424" lon="17.6429573">
        <ele>30.8995</ele>
        <time>2013-05-09T17:22:05Z</time>
      </trkpt>
      <trkpt lat="59.9134778" lon="17.6429711">
        <ele>30.8995</ele>
        <time>2013-05-09T17:22:06Z</time>
      </trkpt>
      <trkpt lat="59.9134104" lon="17.6429848">
        <ele>30.4188</ele>
        <time>2013-05-09T17:22:07Z</time>
      </trkpt>
      <trkpt lat="59.9133439" lon="17.6429998">
        <ele>29.9381</ele>
        <time>2013-05-09T17:22:08Z</time>
      </trkpt>
      <trkpt lat="59.9132783" lon="17.6430184">
        <ele>30.4188</ele>
        <time>2013-05-09T17:22:09Z</time>
      </trkpt>
      <trkpt lat="59.913211" lon="17.6430376">
        <ele>29.9381</ele>
        <time>2013-05-09T17:22:10Z</time>
      </trkpt>
      <trkpt lat="59.9131431" lon="17.643054">
        <ele>29.9381</ele>
        <time>2013-05-09T17:22:11Z</time>
      </trkpt>
      <trkpt lat="59.9130771" lon="17.6430708">
        <ele>30.4188</ele>
        <time>2013-05-09T17:22:12Z</time>
      </trkpt>
      <trkpt lat="59.91301" lon="17.6430857">
        <ele>30.8995</ele>
        <time>2013-05-09T17:22:13Z</time>
      </trkpt>
      <trkpt lat="59.912943" lon="17.6430963">
        <ele>30.4188</ele>
        <time>2013-05-09T17:22:14Z</time>
      </trkpt>
      <trkpt lat="59.9128764" lon="17.6431051">
        <ele>30.4188</ele>
        <time>2013-05-09T17:22:15Z</time>
      </trkpt>
      <trkpt lat="59.9128099" lon="17.6431117">
        <ele>30.4188</ele>
        <time>2013-05-09T17:22:16Z</time>
      </trkpt>
      <trkpt lat="59.9127415" lon="17.6431075">
        <ele>29.9381</ele>
        <time>2013-05-09T17:22:17Z</time>
      </trkpt>
      <trkpt lat="59.9126722" lon="17.6430868">
        <ele>28.9769</ele>
        <time>2013-05-09T17:22:18Z</time>
      </trkpt>
      <trkpt lat="59.9126002" lon="17.6430564">
        <ele>28.4962</ele>
        <time>2013-05-09T17:22:19Z</time>
      </trkpt>
      <trkpt lat="59.9125254" lon="17.643036">
        <ele>28.4962</ele>
        <time>2013-05-09T17:22:20Z</time>
      </trkpt>
      <trkpt lat="59.9124496" lon="17.6430333">
        <ele>28.4962</ele>
        <time>2013-05-09T17:22:21Z</time>
      </trkpt>
      <trkpt lat="59.912375" lon="17.6430441">
        <ele>28.0155</ele>
        <time>2013-05-09T17:22:22Z</time>
      </trkpt>
      <trkpt lat="59.912302" lon="17.6430594">
        <ele>28.0155</ele>
        <time>2013-05-09T17:22:23Z</time>
      </trkpt>
      <trkpt lat="59.9122299" lon="17.643077">
        <ele>28.0155</ele>
        <time>2013-05-09T17:22:24Z</time>
      </trkpt>
      <trkpt lat="59.9121579" lon="17.6430983">
        <ele>28.0155</ele>
        <time>2013-05-09T17:22:25Z</time>
      </trkpt>
      <trkpt lat="59.9120896" lon="17.6431237">
        <ele>28.0155</ele>
        <time>2013-05-09T17:22:26Z</time>
      </trkpt>
      <trkpt lat="59.9120216" lon="17.6431468">
        <ele>28.0155</ele>
        <time>2013-05-09T17:22:27Z</time>
      </trkpt>
      <trkpt lat="59.9119568" lon="17.6431696">
        <ele>28.0155</ele>
        <time>2013-05-09T17:22:28Z</time>
      </trkpt>
      <trkpt lat="59.9118931" lon="17.6431884">
        <ele>28.0155</ele>
        <time>2013-05-09T17:22:29Z</time>
      </trkpt>
      <trkpt lat="59.9118303" lon="17.6432049">
        <ele>28.4962</ele>
        <time>2013-05-09T17:22:30Z</time>
      </trkpt>
      <trkpt lat="59.9117676" lon="17.6432168">
        <ele>28.4962</ele>
        <time>2013-05-09T17:22:31Z</time>
      </trkpt>
      <trkpt lat="59.9117023" lon="17.6432287">
        <ele>28.0155</ele>
        <time>2013-05-09T17:22:32Z</time>
      </trkpt>
      <trkpt lat="59.9116355" lon="17.6432401">
        <ele>27.5349</ele>
        <time>2013-05-09T17:22:33Z</time>
      </trkpt>
      <trkpt lat="59.9115692" lon="17.6432529">
        <ele>27.5349</ele>
        <time>2013-05-09T17:22:34Z</time>
      </trkpt>
      <trkpt lat="59.9115027" lon="17.6432655">
        <ele>27.5349</ele>
        <time>2013-05-09T17:22:35Z</time>
      </trkpt>
      <trkpt lat="59.9114363" lon="17.6432774">
        <ele>27.5349</ele>
        <time>2013-05-09T17:22:36Z</time>
      </trkpt>
      <trkpt lat="59.9113698" lon="17.6432904">
        <ele>27.5349</ele>
        <time>2013-05-09T17:22:37Z</time>
      </trkpt>
      <trkpt lat="59.9113038" lon="17.6433092">
        <ele>27.5349</ele>
        <time>2013-05-09T17:22:38Z</time>
      </trkpt>
      <trkpt lat="59.9112379" lon="17.6433318">
        <ele>28.0155</ele>
        <time>2013-05-09T17:22:39Z</time>
      </trkpt>
      <trkpt lat="59.9111712" lon="17.6433499">
        <ele>28.0155</ele>
        <time>2013-05-09T17:22:40Z</time>
      </trkpt>
      <trkpt lat="59.9111045" lon="17.6433635">
        <ele>28.0155</ele>
        <time>2013-05-09T17:22:41Z</time>
      </trkpt>
      <trkpt lat="59.9110369" lon="17.6433778">
        <ele>28.0155</ele>
        <time>2013-05-09T17:22:42Z</time>
      </trkpt>
      <trkpt lat="59.9109693" lon="17.6433907">
        <ele>27.5349</ele>
        <time>2013-05-09T17:22:43Z</time>
      </trkpt>
      <trkpt lat="59.9109012" lon="17.6434003">
        <ele>27.5349</ele>
        <time>2013-05-09T17:22:44Z</time>
      </trkpt>
      <trkpt lat="59.9108321" lon="17.6434122">
        <ele>27.0543</ele>
        <time>2013-05-09T17:22:45Z</time>
      </trkpt>
      <trkpt lat="59.9107634" lon="17.6434271">
        <ele>27.0543</ele>
        <time>2013-05-09T17:22:46Z</time>
      </trkpt>
      <trkpt lat="59.910695" lon="17.6434399">
        <ele>27.0543</ele>
        <time>2013-05-09T17:22:47Z</time>
      </trkpt>
      <trkpt lat="59.9106276" lon="17.643454">
        <ele>27.0543</ele>
        <time>2013-05-09T17:22:48Z</time>
      </trkpt>
      <trkpt lat="59.9105625" lon="17.6434809">
        <ele>27.0543</ele>
        <time>2013-05-09T17:22:49Z</time>
      </trkpt>
      <trkpt lat="59.9105005" lon="17.6435147">
        <ele>27.5349</ele>
        <time>2013-05-09T17:22:50Z</time>
      </trkpt>
      <trkpt lat="59.910439" lon="17.6435461">
        <ele>27.5349</ele>
        <time>2013-05-09T17:22:51Z</time>
      </trkpt>
      <trkpt lat="59.9103768" lon="17.6435701">
        <ele>27.5349</ele>
        <time>2013-05-09T17:22:52Z</time>
      </trkpt>
      <trkpt lat="59.910313" lon="17.6435898">
        <ele>28.0155</ele>
        <time>2013-05-09T17:22:53Z</time>
      </trkpt>
      <trkpt lat="59.9102475" lon="17.6436042">
        <ele>28.0155</ele>
        <time>2013-05-09T17:22:54Z</time>
      </trkpt>
      <trkpt lat="59.9101811" lon="17.6436094">
        <ele>28.0155</ele>
        <time>2013-05-09T17:22:55Z</time>
      </trkpt>
      <trkpt lat="59.9101142" lon="17.6436058">
        <ele>27.5349</ele>
        <time>2013-05-09T17:22:56Z</time>
      </trkpt>
      <trkpt lat="59.9100471" lon="17.6435929">
        <ele>27.5349</ele>
        <time>2013-05-09T17:22:57Z</time>
      </trkpt>
      <trkpt lat="59.9099774" lon="17.6435694">
        <ele>27.0543</ele>
        <time>2013-05-09T17:22:58Z</time>
      </trkpt>
      <trkpt lat="59.909904" lon="17.6435417">
        <ele>26.5736</ele>
        <time>2013-05-09T17:22:59Z</time>
      </trkpt>
      <trkpt lat="59.9098279" lon="17.6435233">
        <ele>26.5736</ele>
        <time>2013-05-09T17:23:00Z</time>
      </trkpt>
      <trkpt lat="59.9097503" lon="17.6435225">
        <ele>26.5736</ele>
        <time>2013-05-09T17:23:01Z</time>
      </trkpt>
      <trkpt lat="59.9096717" lon="17.643534">
        <ele>26.0929</ele>
        <time>2013-05-09T17:23:02Z</time>
      </trkpt>
      <trkpt lat="59.9095926" lon="17.643551">
        <ele>26.0929</ele>
        <time>2013-05-09T17:23:03Z</time>
      </trkpt>
      <trkpt lat="59.9095129" lon="17.6435706">
        <ele>26.5736</ele>
        <time>2013-05-09T17:23:04Z</time>
      </trkpt>
      <trkpt lat="59.9094322" lon="17.6435901">
        <ele>26.0929</ele>
        <time>2013-05-09T17:23:05Z</time>
      </trkpt>
      <trkpt lat="59.9093513" lon="17.6436069">
        <ele>26.0929</ele>
        <time>2013-05-09T17:23:06Z</time>
      </trkpt>
      <trkpt lat="59.9092713" lon="17.643621">
        <ele>26.0929</ele>
        <time>2013-05-09T17:23:07Z</time>
      </trkpt>
      <trkpt lat="59.9091912" lon="17.6436329">
        <ele>25.6123</ele>
        <time>2013-05-09T17:23:08Z</time>
      </trkpt>
      <trkpt lat="59.9091125" lon="17.6436437">
        <ele>25.1317</ele>
        <time>2013-05-09T17:23:09Z</time>
      </trkpt>
      <trkpt lat="59.9090351" lon="17.6436535">
        <ele>25.1317</ele>
        <time>2013-05-09T17:23:10Z</time>
      </trkpt>
      <trkpt lat="59.9089577" lon="17.6436623">
        <ele>25.1317</ele>
        <time>2013-05-09T17:23:11Z</time>
      </trkpt>
      <trkpt lat="59.9088799" lon="17.6436706">
        <ele>25.1317</ele>
        <time>2013-05-09T17:23:12Z</time>
      </trkpt>
      <trkpt lat="59.9088023" lon="17.6436774">
        <ele>25.1317</ele>
        <time>2013-05-09T17:23:13Z</time>
      </trkpt>
      <trkpt lat="59.9087261" lon="17.6436836">
        <ele>24.651</ele>
        <time>2013-05-09T17:23:14Z</time>
      </trkpt>
      <trkpt lat="59.9086518" lon="17.6436908">
        <ele>24.651</ele>
        <time>2013-05-09T17:23:15Z</time>
      </trkpt>
      <trkpt lat="59.9085799" lon="17.6436961">
        <ele>24.651</ele>
        <time>2013-05-09T17:23:16Z</time>
      </trkpt>
      <trkpt lat="59.90851" lon="17.6436964">
        <ele>24.651</ele>
        <time>2013-05-09T17:23:17Z</time>
      </trkpt>
      <trkpt lat="59.9084437" lon="17.6436944">
        <ele>24.651</ele>
        <time>2013-05-09T17:23:18Z</time>
      </trkpt>
      <trkpt lat="59.9083821" lon="17.6437">
        <ele>24.651</ele>
        <time>2013-05-09T17:23:19Z</time>
      </trkpt>
      <trkpt lat="59.9083267" lon="17.6437234">
        <ele>25.1317</ele>
        <time>2013-05-09T17:23:20Z</time>
      </trkpt>
      <trkpt lat="59.9082748" lon="17.6437613">
        <ele>25.1317</ele>
        <time>2013-05-09T17:23:21Z</time>
      </trkpt>
      <trkpt lat="59.9082206" lon="17.6437934">
        <ele>25.1317</ele>
        <time>2013-05-09T17:23:22Z</time>
      </trkpt>
      <trkpt lat="59.9081614" lon="17.6438048">
        <ele>25.1317</ele>
        <time>2013-05-09T17:23:23Z</time>
      </trkpt>
      <trkpt lat="59.9080277" lon="17.643795">
        <ele>25.1317</ele>
        <time>2013-05-09T17:23:25Z</time>
      </trkpt>
      <trkpt lat="59.9079581" lon="17.6437857">
        <ele>25.1317</ele>
        <time>2013-05-09T17:23:26Z</time>
      </trkpt>
      <trkpt lat="59.9078874" lon="17.6437787">
        <ele>24.651</ele>
        <time>2013-05-09T17:23:27Z</time>
      </trkpt>
      <trkpt lat="59.9078164" lon="17.6437716">
        <ele>24.651</ele>
        <time>2013-05-09T17:23:28Z</time>
      </trkpt>
      <trkpt lat="59.9077449" lon="17.6437608">
        <ele>24.651</ele>
        <time>2013-05-09T17:23:29Z</time>
      </trkpt>
      <trkpt lat="59.9076732" lon="17.6437477">
        <ele>24.1703</ele>
        <time>2013-05-09T17:23:30Z</time>
      </trkpt>
      <trkpt lat="59.9076003" lon="17.6437343">
        <ele>24.1703</ele>
        <time>2013-05-09T17:23:31Z</time>
      </trkpt>
      <trkpt lat="59.9075264" lon="17.6437219">
        <ele>24.1703</ele>
        <time>2013-05-09T17:23:32Z</time>
      </trkpt>
      <trkpt lat="59.9074521" lon="17.6437085">
        <ele>23.6896</ele>
        <time>2013-05-09T17:23:33Z</time>
      </trkpt>
      <trkpt lat="59.9073775" lon="17.643695">
        <ele>23.6896</ele>
        <time>2013-05-09T17:23:34Z</time>
      </trkpt>
      <trkpt lat="59.9073025" lon="17.643683">
        <ele>23.6896</ele>
        <time>2013-05-09T17:23:35Z</time>
      </trkpt>
      <trkpt lat="59.907227" lon="17.6436683">
        <ele>23.209</ele>
        <time>2013-05-09T17:23:36Z</time>
      </trkpt>
      <trkpt lat="59.9071513" lon="17.6436515">
        <ele>23.209</ele>
        <time>2013-05-09T17:23:37Z</time>
      </trkpt>
      <trkpt lat="59.9070747" lon="17.6436345">
        <ele>23.209</ele>
        <time>2013-05-09T17:23:38Z</time>
      </trkpt>
      <trkpt lat="59.9069974" lon="17.6436158">
        <ele>22.7283</ele>
        <time>2013-05-09T17:23:39Z</time>
      </trkpt>
      <trkpt lat="59.9069195" lon="17.643596">
        <ele>22.7283</ele>
        <time>2013-05-09T17:23:40Z</time>
      </trkpt>
      <trkpt lat="59.9068405" lon="17.6435748">
        <ele>22.7283</ele>
        <time>2013-05-09T17:23:41Z</time>
      </trkpt>
      <trkpt lat="59.9067605" lon="17.6435525">
        <ele>22.2476</ele>
        <time>2013-05-09T17:23:42Z</time>
      </trkpt>
      <trkpt lat="59.9066799" lon="17.643529">
        <ele>22.2476</ele>
        <time>2013-05-09T17:23:43Z</time>
      </trkpt>
      <trkpt lat="59.9065982" lon="17.6435049">
        <ele>21.767</ele>
        <time>2013-05-09T17:23:44Z</time>
      </trkpt>
      <trkpt lat="59.9065156" lon="17.6434803">
        <ele>21.767</ele>
        <time>2013-05-09T17:23:45Z</time>
      </trkpt>
      <trkpt lat="59.9064322" lon="17.6434546">
        <ele>21.2864</ele>
        <time>2013-05-09T17:23:46Z</time>
      </trkpt>
      <trkpt lat="59.9063484" lon="17.6434273">
        <ele>21.2864</ele>
        <time>2013-05-09T17:23:47Z</time>
      </trkpt>
      <trkpt lat="59.9062644" lon="17.6433966">
        <ele>20.8057</ele>
        <time>2013-05-09T17:23:48Z</time>
      </trkpt>
      <trkpt lat="59.90618" lon="17.6433639">
        <ele>20.8057</ele>
        <time>2013-05-09T17:23:49Z</time>
      </trkpt>
      <trkpt lat="59.9060954" lon="17.6433303">
        <ele>20.8057</ele>
        <time>2013-05-09T17:23:50Z</time>
      </trkpt>
      <trkpt lat="59.9060099" lon="17.6432947">
        <ele>20.325</ele>
        <time>2013-05-09T17:23:51Z</time>
      </trkpt>
      <trkpt lat="59.9059244" lon="17.6432583">
        <ele>20.325</ele>
        <time>2013-05-09T17:23:52Z</time>
      </trkpt>
      <trkpt lat="59.9058385" lon="17.6432219">
        <ele>20.325</ele>
        <time>2013-05-09T17:23:53Z</time>
      </trkpt>
      <trkpt lat="59.9057528" lon="17.6431837">
        <ele>19.8444</ele>
        <time>2013-05-09T17:23:54Z</time>
      </trkpt>
      <trkpt lat="59.9056694" lon="17.6431443">
        <ele>19.8444</ele>
        <time>2013-05-09T17:23:55Z</time>
      </trkpt>
      <trkpt lat="59.9055873" lon="17.6431058">
        <ele>19.8444</ele>
        <time>2013-05-09T17:23:56Z</time>
      </trkpt>
      <trkpt lat="59.9055056" lon="17.6430718">
        <ele>19.3638</ele>
        <time>2013-05-09T17:23:57Z</time>
      </trkpt>
      <trkpt lat="59.9054235" lon="17.64304">
        <ele>19.3638</ele>
        <time>2013-05-09T17:23:58Z</time>
      </trkpt>
      <trkpt lat="59.905342" lon="17.6430045">
        <ele>19.3638</ele>
        <time>2013-05-09T17:23:59Z</time>
      </trkpt>
      <trkpt lat="59.9052605" lon="17.6429656">
        <ele>18.8831</ele>
        <time>2013-05-09T17:24:00Z</time>
      </trkpt>
      <trkpt lat="59.905179" lon="17.6429252">
        <ele>18.8831</ele>
        <time>2013-05-09T17:24:01Z</time>
      </trkpt>
      <trkpt lat="59.9050968" lon="17.6428853">
        <ele>18.8831</ele>
        <time>2013-05-09T17:24:02Z</time>
      </trkpt>
      <trkpt lat="59.905014" lon="17.6428459">
        <ele>18.4023</ele>
        <time>2013-05-09T17:24:03Z</time>
      </trkpt>
      <trkpt lat="59.9049311" lon="17.6428065">
        <ele>18.4023</ele>
        <time>2013-05-09T17:24:04Z</time>
      </trkpt>
      <trkpt lat="59.9048478" lon="17.6427662">
        <ele>18.4023</ele>
        <time>2013-05-09T17:24:05Z</time>
      </trkpt>
      <trkpt lat="59.9047654" lon="17.6427253">
        <ele>18.4023</ele>
        <time>2013-05-09T17:24:06Z</time>
      </trkpt>
      <trkpt lat="59.904683" lon="17.6426869">
        <ele>18.4023</ele>
        <time>2013-05-09T17:24:07Z</time>
      </trkpt>
      <trkpt lat="59.9046012" lon="17.6426491">
        <ele>18.8831</ele>
        <time>2013-05-09T17:24:08Z</time>
      </trkpt>
      <trkpt lat="59.9045219" lon="17.6426091">
        <ele>19.8444</ele>
        <time>2013-05-09T17:24:09Z</time>
      </trkpt>
      <trkpt lat="59.9044431" lon="17.6425692">
        <ele>20.325</ele>
        <time>2013-05-09T17:24:10Z</time>
      </trkpt>
      <trkpt lat="59.9043644" lon="17.6425289">
        <ele>20.8057</ele>
        <time>2013-05-09T17:24:11Z</time>
      </trkpt>
      <trkpt lat="59.9042862" lon="17.6424896">
        <ele>21.767</ele>
        <time>2013-05-09T17:24:12Z</time>
      </trkpt>
      <trkpt lat="59.904208" lon="17.64245">
        <ele>22.2476</ele>
        <time>2013-05-09T17:24:13Z</time>
      </trkpt>
      <trkpt lat="59.9041302" lon="17.6424103">
        <ele>22.7283</ele>
        <time>2013-05-09T17:24:14Z</time>
      </trkpt>
      <trkpt lat="59.9040532" lon="17.6423731">
        <ele>23.209</ele>
        <time>2013-05-09T17:24:15Z</time>
      </trkpt>
      <trkpt lat="59.9039757" lon="17.6423353">
        <ele>22.7283</ele>
        <time>2013-05-09T17:24:16Z</time>
      </trkpt>
      <trkpt lat="59.9038998" lon="17.6422987">
        <ele>22.7283</ele>
        <time>2013-05-09T17:24:17Z</time>
      </trkpt>
      <trkpt lat="59.9038263" lon="17.6422612">
        <ele>22.7283</ele>
        <time>2013-05-09T17:24:18Z</time>
      </trkpt>
      <trkpt lat="59.9037542" lon="17.6422232">
        <ele>22.7283</ele>
        <time>2013-05-09T17:24:19Z</time>
      </trkpt>
      <trkpt lat="59.9036825" lon="17.6421899">
        <ele>22.2476</ele>
        <time>2013-05-09T17:24:20Z</time>
      </trkpt>
      <trkpt lat="59.9036111" lon="17.6421592">
        <ele>22.2476</ele>
        <time>2013-05-09T17:24:21Z</time>
      </trkpt>
      <trkpt lat="59.90354" lon="17.6421265">
        <ele>21.767</ele>
        <time>2013-05-09T17:24:22Z</time>
      </trkpt>
      <trkpt lat="59.9034688" lon="17.6420928">
        <ele>21.767</ele>
        <time>2013-05-09T17:24:23Z</time>
      </trkpt>
      <trkpt lat="59.9033968" lon="17.642059">
        <ele>21.767</ele>
        <time>2013-05-09T17:24:24Z</time>
      </trkpt>
      <trkpt lat="59.9033253" lon="17.6420244">
        <ele>21.767</ele>
        <time>2013-05-09T17:24:25Z</time>
      </trkpt>
      <trkpt lat="59.9032542" lon="17.6419891">
        <ele>21.767</ele>
        <time>2013-05-09T17:24:26Z</time>
      </trkpt>
      <trkpt lat="59.9031836" lon="17.6419524">
        <ele>21.767</ele>
        <time>2013-05-09T17:24:27Z</time>
      </trkpt>
      <trkpt lat="59.903113" lon="17.6419166">
        <ele>21.767</ele>
        <time>2013-05-09T17:24:28Z</time>
      </trkpt>
      <trkpt lat="59.9030427" lon="17.6418814">
        <ele>21.767</ele>
        <time>2013-05-09T17:24:29Z</time>
      </trkpt>
      <trkpt lat="59.9029725" lon="17.6418465">
        <ele>21.767</ele>
        <time>2013-05-09T17:24:30Z</time>
      </trkpt>
      <trkpt lat="59.902903" lon="17.6418104">
        <ele>21.767</ele>
        <time>2013-05-09T17:24:31Z</time>
      </trkpt>
      <trkpt lat="59.9028342" lon="17.6417722">
        <ele>21.767</ele>
        <time>2013-05-09T17:24:32Z</time>
      </trkpt>
      <trkpt lat="59.9027666" lon="17.6417332">
        <ele>21.767</ele>
        <time>2013-05-09T17:24:33Z</time>
      </trkpt>
      <trkpt lat="59.9026996" lon="17.6416939">
        <ele>21.767</ele>
        <time>2013-05-09T17:24:34Z</time>
      </trkpt>
      <trkpt lat="59.9026338" lon="17.6416533">
        <ele>22.2476</ele>
        <time>2013-05-09T17:24:35Z</time>
      </trkpt>
      <trkpt lat="59.9025688" lon="17.64161">
        <ele>22.2476</ele>
        <time>2013-05-09T17:24:36Z</time>
      </trkpt>
      <trkpt lat="59.9025037" lon="17.6415666">
        <ele>22.2476</ele>
        <time>2013-05-09T17:24:37Z</time>
      </trkpt>
      <trkpt lat="59.9024384" lon="17.6415243">
        <ele>22.2476</ele>
        <time>2013-05-09T17:24:38Z</time>
      </trkpt>
      <trkpt lat="59.9023732" lon="17.6414818">
        <ele>22.2476</ele>
        <time>2013-05-09T17:24:39Z</time>
      </trkpt>
      <trkpt lat="59.9023085" lon="17.641438">
        <ele>22.2476</ele>
        <time>2013-05-09T17:24:40Z</time>
      </trkpt>
      <trkpt lat="59.9022446" lon="17.6413933">
        <ele>22.2476</ele>
        <time>2013-05-09T17:24:41Z</time>
      </trkpt>
      <trkpt lat="59.9021808" lon="17.6413494">
        <ele>22.2476</ele>
        <time>2013-05-09T17:24:42Z</time>
      </trkpt>
      <trkpt lat="59.9021171" lon="17.6413057">
        <ele>22.2476</ele>
        <time>2013-05-09T17:24:43Z</time>
      </trkpt>
      <trkpt lat="59.9020535" lon="17.6412598">
        <ele>22.2476</ele>
        <time>2013-05-09T17:24:44Z</time>
      </trkpt>
      <trkpt lat="59.9019902" lon="17.6412111">
        <ele>22.7283</ele>
        <time>2013-05-09T17:24:45Z</time>
      </trkpt>
      <trkpt lat="59.9019271" lon="17.6411596">
        <ele>22.7283</ele>
        <time>2013-05-09T17:24:46Z</time>
      </trkpt>
      <trkpt lat="59.9018645" lon="17.6411063">
        <ele>22.7283</ele>
        <time>2013-05-09T17:24:47Z</time>
      </trkpt>
      <trkpt lat="59.9018023" lon="17.6410531">
        <ele>22.7283</ele>
        <time>2013-05-09T17:24:48Z</time>
      </trkpt>
      <trkpt lat="59.9017399" lon="17.6410002">
        <ele>22.7283</ele>
        <time>2013-05-09T17:24:49Z</time>
      </trkpt>
      <trkpt lat="59.9016778" lon="17.6409455">
        <ele>22.7283</ele>
        <time>2013-05-09T17:24:50Z</time>
      </trkpt>
      <trkpt lat="59.9016156" lon="17.6408909">
        <ele>22.7283</ele>
        <time>2013-05-09T17:24:51Z</time>
      </trkpt>
      <trkpt lat="59.9015537" lon="17.6408367">
        <ele>23.209</ele>
        <time>2013-05-09T17:24:52Z</time>
      </trkpt>
      <trkpt lat="59.9014925" lon="17.6407818">
        <ele>23.209</ele>
        <time>2013-05-09T17:24:53Z</time>
      </trkpt>
      <trkpt lat="59.9014324" lon="17.6407257">
        <ele>23.209</ele>
        <time>2013-05-09T17:24:54Z</time>
      </trkpt>
      <trkpt lat="59.9013724" lon="17.6406683">
        <ele>23.209</ele>
        <time>2013-05-09T17:24:55Z</time>
      </trkpt>
      <trkpt lat="59.9013133" lon="17.6406092">
        <ele>23.209</ele>
        <time>2013-05-09T17:24:56Z</time>
      </trkpt>
      <trkpt lat="59.9012543" lon="17.6405499">
        <ele>23.209</ele>
        <time>2013-05-09T17:24:57Z</time>
      </trkpt>
      <trkpt lat="59.9011953" lon="17.6404927">
        <ele>23.6896</ele>
        <time>2013-05-09T17:24:58Z</time>
      </trkpt>
      <trkpt lat="59.9011368" lon="17.6404368">
        <ele>23.6896</ele>
        <time>2013-05-09T17:24:59Z</time>
      </trkpt>
      <trkpt lat="59.9010792" lon="17.64038">
        <ele>23.6896</ele>
        <time>2013-05-09T17:25:00Z</time>
      </trkpt>
      <trkpt lat="59.901022" lon="17.6403222">
        <ele>23.6896</ele>
        <time>2013-05-09T17:25:01Z</time>
      </trkpt>
      <trkpt lat="59.9009652" lon="17.6402647">
        <ele>23.6896</ele>
        <time>2013-05-09T17:25:02Z</time>
      </trkpt>
      <trkpt lat="59.9009087" lon="17.6402075">
        <ele>24.1703</ele>
        <time>2013-05-09T17:25:03Z</time>
      </trkpt>
      <trkpt lat="59.9008524" lon="17.6401513">
        <ele>24.1703</ele>
        <time>2013-05-09T17:25:04Z</time>
      </trkpt>
      <trkpt lat="59.9007963" lon="17.6400964">
        <ele>24.1703</ele>
        <time>2013-05-09T17:25:05Z</time>
      </trkpt>
      <trkpt lat="59.900741" lon="17.6400409">
        <ele>24.1703</ele>
        <time>2013-05-09T17:25:06Z</time>
      </trkpt>
      <trkpt lat="59.900686" lon="17.6399848">
        <ele>24.651</ele>
        <time>2013-05-09T17:25:07Z</time>
      </trkpt>
      <trkpt lat="59.900631" lon="17.6399291">
        <ele>24.651</ele>
        <time>2013-05-09T17:25:08Z</time>
      </trkpt>
      <trkpt lat="59.9005762" lon="17.6398741">
        <ele>24.651</ele>
        <time>2013-05-09T17:25:09Z</time>
      </trkpt>
      <trkpt lat="59.9005219" lon="17.6398202">
        <ele>25.1317</ele>
        <time>2013-05-09T17:25:10Z</time>
      </trkpt>
      <trkpt lat="59.9004679" lon="17.639768">
        <ele>25.1317</ele>
        <time>2013-05-09T17:25:11Z</time>
      </trkpt>
      <trkpt lat="59.9004145" lon="17.639717">
        <ele>25.1317</ele>
        <time>2013-05-09T17:25:12Z</time>
      </trkpt>
      <trkpt lat="59.9003617" lon="17.6396652">
        <ele>25.6123</ele>
        <time>2013-05-09T17:25:13Z</time>
      </trkpt>
      <trkpt lat="59.9003099" lon="17.6396129">
        <ele>25.6123</ele>
        <time>2013-05-09T17:25:14Z</time>
      </trkpt>
      <trkpt lat="59.9002585" lon="17.6395602">
        <ele>25.6123</ele>
        <time>2013-05-09T17:25:15Z</time>
      </trkpt>
      <trkpt lat="59.9002074" lon="17.6395063">
        <ele>26.0929</ele>
        <time>2013-05-09T17:25:16Z</time>
      </trkpt>
      <trkpt lat="59.9001561" lon="17.6394535">
        <ele>26.0929</ele>
        <time>2013-05-09T17:25:17Z</time>
      </trkpt>
      <trkpt lat="59.9001053" lon="17.6394022">
        <ele>26.0929</ele>
        <time>2013-05-09T17:25:18Z</time>
      </trkpt>
      <trkpt lat="59.9000544" lon="17.639351">
        <ele>26.0929</ele>
        <time>2013-05-09T17:25:19Z</time>
      </trkpt>
      <trkpt lat="59.9000047" lon="17.6392985">
        <ele>26.5736</ele>
        <time>2013-05-09T17:25:20Z</time>
      </trkpt>
      <trkpt lat="59.8999549" lon="17.6392462">
        <ele>26.5736</ele>
        <time>2013-05-09T17:25:21Z</time>
      </trkpt>
      <trkpt lat="59.8999053" lon="17.6391943">
        <ele>27.0543</ele>
        <time>2013-05-09T17:25:22Z</time>
      </trkpt>
      <trkpt lat="59.8998567" lon="17.6391454">
        <ele>27.0543</ele>
        <time>2013-05-09T17:25:23Z</time>
      </trkpt>
      <trkpt lat="59.8998099" lon="17.6390979">
        <ele>27.0543</ele>
        <time>2013-05-09T17:25:24Z</time>
      </trkpt>
      <trkpt lat="59.8997639" lon="17.6390495">
        <ele>27.5349</ele>
        <time>2013-05-09T17:25:25Z</time>
      </trkpt>
      <trkpt lat="59.8997173" lon="17.6390035">
        <ele>27.5349</ele>
        <time>2013-05-09T17:25:26Z</time>
      </trkpt>
      <trkpt lat="59.8996711" lon="17.6389581">
        <ele>27.5349</ele>
        <time>2013-05-09T17:25:27Z</time>
      </trkpt>
      <trkpt lat="59.8996254" lon="17.6389116">
        <ele>27.5349</ele>
        <time>2013-05-09T17:25:28Z</time>
      </trkpt>
      <trkpt lat="59.8995799" lon="17.6388656">
        <ele>27.5349</ele>
        <time>2013-05-09T17:25:29Z</time>
      </trkpt>
      <trkpt lat="59.8995341" lon="17.6388211">
        <ele>27.5349</ele>
        <time>2013-05-09T17:25:30Z</time>
      </trkpt>
      <trkpt lat="59.8994882" lon="17.638777">
        <ele>27.5349</ele>
        <time>2013-05-09T17:25:31Z</time>
      </trkpt>
      <trkpt lat="59.8994432" lon="17.6387302">
        <ele>28.0155</ele>
        <time>2013-05-09T17:25:32Z</time>
      </trkpt>
      <trkpt lat="59.8993985" lon="17.6386831">
        <ele>28.0155</ele>
        <time>2013-05-09T17:25:33Z</time>
      </trkpt>
      <trkpt lat="59.899353" lon="17.6386395">
        <ele>28.0155</ele>
        <time>2013-05-09T17:25:34Z</time>
      </trkpt>
      <trkpt lat="59.8993071" lon="17.638596">
        <ele>28.4962</ele>
        <time>2013-05-09T17:25:35Z</time>
      </trkpt>
      <trkpt lat="59.8992616" lon="17.6385502">
        <ele>28.4962</ele>
        <time>2013-05-09T17:25:36Z</time>
      </trkpt>
      <trkpt lat="59.8992167" lon="17.638504">
        <ele>28.4962</ele>
        <time>2013-05-09T17:25:37Z</time>
      </trkpt>
      <trkpt lat="59.8991713" lon="17.6384584">
        <ele>28.4962</ele>
        <time>2013-05-09T17:25:38Z</time>
      </trkpt>
      <trkpt lat="59.8991261" lon="17.6384136">
        <ele>28.9769</ele>
        <time>2013-05-09T17:25:39Z</time>
      </trkpt>
      <trkpt lat="59.8990795" lon="17.6383689">
        <ele>28.9769</ele>
        <time>2013-05-09T17:25:40Z</time>
      </trkpt>
      <trkpt lat="59.8990319" lon="17.6383238">
        <ele>28.9769</ele>
        <time>2013-05-09T17:25:41Z</time>
      </trkpt>
      <trkpt lat="59.8989841" lon="17.6382807">
        <ele>28.9769</ele>
        <time>2013-05-09T17:25:42Z</time>
      </trkpt>
      <trkpt lat="59.8989346" lon="17.6382415">
        <ele>28.9769</ele>
        <time>2013-05-09T17:25:43Z</time>
      </trkpt>
      <trkpt lat="59.8988827" lon="17.6382114">
        <ele>28.9769</ele>
        <time>2013-05-09T17:25:44Z</time>
      </trkpt>
      <trkpt lat="59.898828" lon="17.6381969">
        <ele>28.9769</ele>
        <time>2013-05-09T17:25:45Z</time>
      </trkpt>
      <trkpt lat="59.8987717" lon="17.6381977">
        <ele>28.9769</ele>
        <time>2013-05-09T17:25:46Z</time>
      </trkpt>
      <trkpt lat="59.8987134" lon="17.6382098">
        <ele>28.9769</ele>
        <time>2013-05-09T17:25:47Z</time>
      </trkpt>
      <trkpt lat="59.8986545" lon="17.6382202">
        <ele>29.4575</ele>
        <time>2013-05-09T17:25:48Z</time>
      </trkpt>
      <trkpt lat="59.8985974" lon="17.638214">
        <ele>29.9381</ele>
        <time>2013-05-09T17:25:49Z</time>
      </trkpt>
      <trkpt lat="59.8985435" lon="17.6381829">
        <ele>29.9381</ele>
        <time>2013-05-09T17:25:50Z</time>
      </trkpt>
      <trkpt lat="59.8984918" lon="17.638137">
        <ele>29.9381</ele>
        <time>2013-05-09T17:25:51Z</time>
      </trkpt>
      <trkpt lat="59.8984405" lon="17.6380895">
        <ele>29.9381</ele>
        <time>2013-05-09T17:25:52Z</time>
      </trkpt>
      <trkpt lat="59.898386" lon="17.6380388">
        <ele>29.9381</ele>
        <time>2013-05-09T17:25:53Z</time>
      </trkpt>
      <trkpt lat="59.8983318" lon="17.6379946">
        <ele>29.9381</ele>
        <time>2013-05-09T17:25:54Z</time>
      </trkpt>
      <trkpt lat="59.8982781" lon="17.637949">
        <ele>29.9381</ele>
        <time>2013-05-09T17:25:55Z</time>
      </trkpt>
      <trkpt lat="59.8982229" lon="17.6379027">
        <ele>29.9381</ele>
        <time>2013-05-09T17:25:56Z</time>
      </trkpt>
      <trkpt lat="59.8981679" lon="17.6378534">
        <ele>29.9381</ele>
        <time>2013-05-09T17:25:57Z</time>
      </trkpt>
      <trkpt lat="59.8981126" lon="17.6378001">
        <ele>29.9381</ele>
        <time>2013-05-09T17:25:58Z</time>
      </trkpt>
      <trkpt lat="59.8980571" lon="17.637744">
        <ele>29.9381</ele>
        <time>2013-05-09T17:25:59Z</time>
      </trkpt>
      <trkpt lat="59.8980025" lon="17.6376812">
        <ele>29.9381</ele>
        <time>2013-05-09T17:26:00Z</time>
      </trkpt>
      <trkpt lat="59.89795" lon="17.6376092">
        <ele>29.9381</ele>
        <time>2013-05-09T17:26:01Z</time>
      </trkpt>
      <trkpt lat="59.8979015" lon="17.6375286">
        <ele>29.9381</ele>
        <time>2013-05-09T17:26:02Z</time>
      </trkpt>
      <trkpt lat="59.8978566" lon="17.6374391">
        <ele>29.9381</ele>
        <time>2013-05-09T17:26:03Z</time>
      </trkpt>
      <trkpt lat="59.8978121" lon="17.6373496">
        <ele>30.4188</ele>
        <time>2013-05-09T17:26:04Z</time>
      </trkpt>
      <trkpt lat="59.8977634" lon="17.6372711">
        <ele>30.4188</ele>
        <time>2013-05-09T17:26:05Z</time>
      </trkpt>
      <trkpt lat="59.8977107" lon="17.6372064">
        <ele>30.4188</ele>
        <time>2013-05-09T17:26:06Z</time>
      </trkpt>
      <trkpt lat="59.8976542" lon="17.6371564">
        <ele>30.4188</ele>
        <time>2013-05-09T17:26:07Z</time>
      </trkpt>
      <trkpt lat="59.8975957" lon="17.6371152">
        <ele>30.8995</ele>
        <time>2013-05-09T17:26:08Z</time>
      </trkpt>
      <trkpt lat="59.8975365" lon="17.6370785">
        <ele>30.8995</ele>
        <time>2013-05-09T17:26:09Z</time>
      </trkpt>
      <trkpt lat="59.8974759" lon="17.6370448">
        <ele>30.8995</ele>
        <time>2013-05-09T17:26:10Z</time>
      </trkpt>
      <trkpt lat="59.8974163" lon="17.6370085">
        <ele>30.8995</ele>
        <time>2013-05-09T17:26:11Z</time>
      </trkpt>
      <trkpt lat="59.8973562" lon="17.6369727">
        <ele>31.3801</ele>
        <time>2013-05-09T17:26:12Z</time>
      </trkpt>
      <trkpt lat="59.8972963" lon="17.6369387">
        <ele>31.3801</ele>
        <time>2013-05-09T17:26:13Z</time>
      </trkpt>
      <trkpt lat="59.8972371" lon="17.6369074">
        <ele>31.3801</ele>
        <time>2013-05-09T17:26:14Z</time>
      </trkpt>
      <trkpt lat="59.8971773" lon="17.6368785">
        <ele>31.3801</ele>
        <time>2013-05-09T17:26:15Z</time>
      </trkpt>
      <trkpt lat="59.8971178" lon="17.6368505">
        <ele>31.8607</ele>
        <time>2013-05-09T17:26:16Z</time>
      </trkpt>
      <trkpt lat="59.8970588" lon="17.6368216">
        <ele>31.8607</ele>
        <time>2013-05-09T17:26:17Z</time>
      </trkpt>
      <trkpt lat="59.8970017" lon="17.6367869">
        <ele>31.8607</ele>
        <time>2013-05-09T17:26:18Z</time>
      </trkpt>
      <trkpt lat="59.8969465" lon="17.6367428">
        <ele>32.3416</ele>
        <time>2013-05-09T17:26:19Z</time>
      </trkpt>
      <trkpt lat="59.8968905" lon="17.6367049">
        <ele>32.3416</ele>
        <time>2013-05-09T17:26:20Z</time>
      </trkpt>
      <trkpt lat="59.8968329" lon="17.6366766">
        <ele>32.3416</ele>
        <time>2013-05-09T17:26:21Z</time>
      </trkpt>
      <trkpt lat="59.8967759" lon="17.6366443">
        <ele>31.8607</ele>
        <time>2013-05-09T17:26:22Z</time>
      </trkpt>
      <trkpt lat="59.8967186" lon="17.636613">
        <ele>31.8607</ele>
        <time>2013-05-09T17:26:23Z</time>
      </trkpt>
      <trkpt lat="59.8966605" lon="17.6365889">
        <ele>31.8607</ele>
        <time>2013-05-09T17:26:24Z</time>
      </trkpt>
      <trkpt lat="59.8966025" lon="17.636568">
        <ele>31.3801</ele>
        <time>2013-05-09T17:26:25Z</time>
      </trkpt>
      <trkpt lat="59.8965456" lon="17.6365495">
        <ele>31.3801</ele>
        <time>2013-05-09T17:26:26Z</time>
      </trkpt>
      <trkpt lat="59.8964891" lon="17.6365315">
        <ele>31.3801</ele>
        <time>2013-05-09T17:26:27Z</time>
      </trkpt>
      <trkpt lat="59.8964326" lon="17.6365112">
        <ele>31.3801</ele>
        <time>2013-05-09T17:26:28Z</time>
      </trkpt>
      <trkpt lat="59.8963761" lon="17.6364918">
        <ele>31.3801</ele>
        <time>2013-05-09T17:26:29Z</time>
      </trkpt>
      <trkpt lat="59.8963183" lon="17.6364729">
        <ele>30.8995</ele>
        <time>2013-05-09T17:26:30Z</time>
      </trkpt>
      <trkpt lat="59.8962599" lon="17.6364515">
        <ele>30.8995</ele>
        <time>2013-05-09T17:26:31Z</time>
      </trkpt>
      <trkpt lat="59.8962006" lon="17.6364268">
        <ele>30.8995</ele>
        <time>2013-05-09T17:26:32Z</time>
      </trkpt>
      <trkpt lat="59.8961406" lon="17.6364018">
        <ele>30.8995</ele>
        <time>2013-05-09T17:26:33Z</time>
      </trkpt>
      <trkpt lat="59.8960791" lon="17.6363766">
        <ele>30.8995</ele>
        <time>2013-05-09T17:26:34Z</time>
      </trkpt>
      <trkpt lat="59.8960165" lon="17.6363561">
        <ele>30.8995</ele>
        <time>2013-05-09T17:26:35Z</time>
      </trkpt>
      <trkpt lat="59.8959545" lon="17.6363469">
        <ele>30.8995</ele>
        <time>2013-05-09T17:26:36Z</time>
      </trkpt>
      <trkpt lat="59.8958923" lon="17.6363483">
        <ele>30.8995</ele>
        <time>2013-05-09T17:26:37Z</time>
      </trkpt>
      <trkpt lat="59.8958293" lon="17.6363548">
        <ele>30.8995</ele>
        <time>2013-05-09T17:26:38Z</time>
      </trkpt>
      <trkpt lat="59.8957653" lon="17.6363636">
        <ele>30.4188</ele>
        <time>2013-05-09T17:26:39Z</time>
      </trkpt>
      <trkpt lat="59.8957012" lon="17.6363771">
        <ele>30.4188</ele>
        <time>2013-05-09T17:26:40Z</time>
      </trkpt>
      <trkpt lat="59.8956369" lon="17.6363992">
        <ele>30.4188</ele>
        <time>2013-05-09T17:26:41Z</time>
      </trkpt>
      <trkpt lat="59.8955718" lon="17.6364283">
        <ele>30.4188</ele>
        <time>2013-05-09T17:26:42Z</time>
      </trkpt>
      <trkpt lat="59.8955067" lon="17.6364611">
        <ele>29.9381</ele>
        <time>2013-05-09T17:26:43Z</time>
      </trkpt>
      <trkpt lat="59.895442" lon="17.6364987">
        <ele>29.9381</ele>
        <time>2013-05-09T17:26:44Z</time>
      </trkpt>
      <trkpt lat="59.8953765" lon="17.6365396">
        <ele>29.9381</ele>
        <time>2013-05-09T17:26:45Z</time>
      </trkpt>
      <trkpt lat="59.89531" lon="17.6365801">
        <ele>29.4575</ele>
        <time>2013-05-09T17:26:46Z</time>
      </trkpt>
      <trkpt lat="59.8952421" lon="17.636621">
        <ele>29.4575</ele>
        <time>2013-05-09T17:26:47Z</time>
      </trkpt>
      <trkpt lat="59.8951737" lon="17.6366631">
        <ele>28.9769</ele>
        <time>2013-05-09T17:26:48Z</time>
      </trkpt>
      <trkpt lat="59.8951042" lon="17.6367065">
        <ele>28.9769</ele>
        <time>2013-05-09T17:26:49Z</time>
      </trkpt>
      <trkpt lat="59.8950335" lon="17.6367511">
        <ele>28.4962</ele>
        <time>2013-05-09T17:26:50Z</time>
      </trkpt>
      <trkpt lat="59.894962" lon="17.6367975">
        <ele>28.4962</ele>
        <time>2013-05-09T17:26:51Z</time>
      </trkpt>
      <trkpt lat="59.8948899" lon="17.6368422">
        <ele>28.4962</ele>
        <time>2013-05-09T17:26:52Z</time>
      </trkpt>
      <trkpt lat="59.8948162" lon="17.6368811">
        <ele>28.4962</ele>
        <time>2013-05-09T17:26:53Z</time>
      </trkpt>
      <trkpt lat="59.8947433" lon="17.6369203">
        <ele>28.0155</ele>
        <time>2013-05-09T17:26:54Z</time>
      </trkpt>
      <trkpt lat="59.8946724" lon="17.6369645">
        <ele>28.0155</ele>
        <time>2013-05-09T17:26:55Z</time>
      </trkpt>
      <trkpt lat="59.8946026" lon="17.6370147">
        <ele>28.0155</ele>
        <time>2013-05-09T17:26:56Z</time>
      </trkpt>
      <trkpt lat="59.8945339" lon="17.6370633">
        <ele>28.0155</ele>
        <time>2013-05-09T17:26:57Z</time>
      </trkpt>
      <trkpt lat="59.8944622" lon="17.6371098">
        <ele>28.4962</ele>
        <time>2013-05-09T17:26:58Z</time>
      </trkpt>
      <trkpt lat="59.8943932" lon="17.6371606">
        <ele>28.4962</ele>
        <time>2013-05-09T17:26:59Z</time>
      </trkpt>
      <trkpt lat="59.8943262" lon="17.637211">
        <ele>28.9769</ele>
        <time>2013-05-09T17:27:00Z</time>
      </trkpt>
      <trkpt lat="59.8942589" lon="17.6372587">
        <ele>28.9769</ele>
        <time>2013-05-09T17:27:01Z</time>
      </trkpt>
      <trkpt lat="59.8941928" lon="17.6373056">
        <ele>29.4575</ele>
        <time>2013-05-09T17:27:02Z</time>
      </trkpt>
      <trkpt lat="59.8941283" lon="17.6373488">
        <ele>29.4575</ele>
        <time>2013-05-09T17:27:03Z</time>
      </trkpt>
      <trkpt lat="59.8940657" lon="17.6373937">
        <ele>29.9381</ele>
        <time>2013-05-09T17:27:04Z</time>
      </trkpt>
      <trkpt lat="59.894005" lon="17.6374416">
        <ele>29.9381</ele>
        <time>2013-05-09T17:27:05Z</time>
      </trkpt>
      <trkpt lat="59.8939436" lon="17.6374892">
        <ele>30.4188</ele>
        <time>2013-05-09T17:27:06Z</time>
      </trkpt>
      <trkpt lat="59.8938815" lon="17.6375369">
        <ele>30.4188</ele>
        <time>2013-05-09T17:27:07Z</time>
      </trkpt>
      <trkpt lat="59.8938187" lon="17.6375833">
        <ele>30.4188</ele>
        <time>2013-05-09T17:27:08Z</time>
      </trkpt>
      <trkpt lat="59.8937538" lon="17.6376332">
        <ele>30.4188</ele>
        <time>2013-05-09T17:27:09Z</time>
      </trkpt>
      <trkpt lat="59.8936888" lon="17.6376827">
        <ele>29.9381</ele>
        <time>2013-05-09T17:27:10Z</time>
      </trkpt>
      <trkpt lat="59.893625" lon="17.6377332">
        <ele>29.9381</ele>
        <time>2013-05-09T17:27:11Z</time>
      </trkpt>
      <trkpt lat="59.89356" lon="17.6377783">
        <ele>29.9381</ele>
        <time>2013-05-09T17:27:12Z</time>
      </trkpt>
      <trkpt lat="59.8934965" lon="17.6378244">
        <ele>29.4575</ele>
        <time>2013-05-09T17:27:13Z</time>
      </trkpt>
      <trkpt lat="59.8934301" lon="17.637871">
        <ele>29.4575</ele>
        <time>2013-05-09T17:27:14Z</time>
      </trkpt>
      <trkpt lat="59.8933648" lon="17.6379192">
        <ele>29.4575</ele>
        <time>2013-05-09T17:27:15Z</time>
      </trkpt>
      <trkpt lat="59.8932987" lon="17.6379616">
        <ele>28.9769</ele>
        <time>2013-05-09T17:27:16Z</time>
      </trkpt>
      <trkpt lat="59.8932334" lon="17.638001">
        <ele>28.4962</ele>
        <time>2013-05-09T17:27:17Z</time>
      </trkpt>
      <trkpt lat="59.8931676" lon="17.6380352">
        <ele>28.4962</ele>
        <time>2013-05-09T17:27:18Z</time>
      </trkpt>
      <trkpt lat="59.8931008" lon="17.6380707">
        <ele>28.0155</ele>
        <time>2013-05-09T17:27:19Z</time>
      </trkpt>
      <trkpt lat="59.8930329" lon="17.6381032">
        <ele>27.5349</ele>
        <time>2013-05-09T17:27:20Z</time>
      </trkpt>
      <trkpt lat="59.8929692" lon="17.63813">
        <ele>27.0543</ele>
        <time>2013-05-09T17:27:21Z</time>
      </trkpt>
      <trkpt lat="59.8929115" lon="17.6381495">
        <ele>26.5736</ele>
        <time>2013-05-09T17:27:22Z</time>
      </trkpt>
      <trkpt lat="59.8928584" lon="17.6381662">
        <ele>26.5736</ele>
        <time>2013-05-09T17:27:23Z</time>
      </trkpt>
      <trkpt lat="59.8928053" lon="17.6381745">
        <ele>26.5736</ele>
        <time>2013-05-09T17:27:24Z</time>
      </trkpt>
      <trkpt lat="59.8927542" lon="17.6381797">
        <ele>26.5736</ele>
        <time>2013-05-09T17:27:25Z</time>
      </trkpt>
      <trkpt lat="59.8927045" lon="17.6381864">
        <ele>26.0929</ele>
        <time>2013-05-09T17:27:26Z</time>
      </trkpt>
      <trkpt lat="59.892658" lon="17.6382106">
        <ele>26.0929</ele>
        <time>2013-05-09T17:27:27Z</time>
      </trkpt>
      <trkpt lat="59.8926207" lon="17.6382563">
        <ele>26.0929</ele>
        <time>2013-05-09T17:27:28Z</time>
      </trkpt>
      <trkpt lat="59.8926002" lon="17.6383256">
        <ele>26.0929</ele>
        <time>2013-05-09T17:27:29Z</time>
      </trkpt>
      <trkpt lat="59.8925969" lon="17.638404">
        <ele>26.0929</ele>
        <time>2013-05-09T17:27:30Z</time>
      </trkpt>
      <trkpt lat="59.8926117" lon="17.6384774">
        <ele>26.0929</ele>
        <time>2013-05-09T17:27:31Z</time>
      </trkpt>
      <trkpt lat="59.8926309" lon="17.6385354">
        <ele>26.5736</ele>
        <time>2013-05-09T17:27:32Z</time>
      </trkpt>
      <trkpt lat="59.8926452" lon="17.6385883">
        <ele>26.5736</ele>
        <time>2013-05-09T17:27:33Z</time>
      </trkpt>
      <trkpt lat="59.8926528" lon="17.6386469">
        <ele>26.5736</ele>
        <time>2013-05-09T17:27:34Z</time>
      </trkpt>
      <trkpt lat="59.8926566" lon="17.6387195">
        <ele>26.0929</ele>
        <time>2013-05-09T17:27:35Z</time>
      </trkpt>
      <trkpt lat="59.8926587" lon="17.6388075">
        <ele>26.5736</ele>
        <time>2013-05-09T17:27:36Z</time>
      </trkpt>
      <trkpt lat="59.8926574" lon="17.6388998">
        <ele>26.5736</ele>
        <time>2013-05-09T17:27:37Z</time>
      </trkpt>
      <trkpt lat="59.8926568" lon="17.6389992">
        <ele>27.0543</ele>
        <time>2013-05-09T17:27:38Z</time>
      </trkpt>
      <trkpt lat="59.8926562" lon="17.6391036">
        <ele>27.0543</ele>
        <time>2013-05-09T17:27:39Z</time>
      </trkpt>
      <trkpt lat="59.8926558" lon="17.6392116">
        <ele>27.5349</ele>
        <time>2013-05-09T17:27:40Z</time>
      </trkpt>
      <trkpt lat="59.8926502" lon="17.6393328">
        <ele>28.0155</ele>
        <time>2013-05-09T17:27:41Z</time>
      </trkpt>
      <trkpt lat="59.8926501" lon="17.6394481">
        <ele>28.9769</ele>
        <time>2013-05-09T17:27:42Z</time>
      </trkpt>
      <trkpt lat="59.892652" lon="17.6395581">
        <ele>29.4575</ele>
        <time>2013-05-09T17:27:43Z</time>
      </trkpt>
      <trkpt lat="59.8926504" lon="17.6396757">
        <ele>30.4188</ele>
        <time>2013-05-09T17:27:44Z</time>
      </trkpt>
      <trkpt lat="59.8926492" lon="17.639795">
        <ele>30.8995</ele>
        <time>2013-05-09T17:27:45Z</time>
      </trkpt>
      <trkpt lat="59.8926512" lon="17.6399125">
        <ele>31.3801</ele>
        <time>2013-05-09T17:27:46Z</time>
      </trkpt>
      <trkpt lat="59.892649" lon="17.6400336">
        <ele>30.8995</ele>
        <time>2013-05-09T17:27:47Z</time>
      </trkpt>
      <trkpt lat="59.8926518" lon="17.6401601">
        <ele>31.3801</ele>
        <time>2013-05-09T17:27:48Z</time>
      </trkpt>
      <trkpt lat="59.8926574" lon="17.6402894">
        <ele>31.8607</ele>
        <time>2013-05-09T17:27:49Z</time>
      </trkpt>
      <trkpt lat="59.8926594" lon="17.6404251">
        <ele>32.8223</ele>
        <time>2013-05-09T17:27:50Z</time>
      </trkpt>
      <trkpt lat="59.8926579" lon="17.6405646">
        <ele>33.3029</ele>
        <time>2013-05-09T17:27:51Z</time>
      </trkpt>
      <trkpt lat="59.8926543" lon="17.6407048">
        <ele>33.7834</ele>
        <time>2013-05-09T17:27:52Z</time>
      </trkpt>
      <trkpt lat="59.8926499" lon="17.6408454">
        <ele>34.7449</ele>
        <time>2013-05-09T17:27:53Z</time>
      </trkpt>
      <trkpt lat="59.8926497" lon="17.6409955">
        <ele>35.7061</ele>
        <time>2013-05-09T17:27:54Z</time>
      </trkpt>
      <trkpt lat="59.8926456" lon="17.6411451">
        <ele>36.6675</ele>
        <time>2013-05-09T17:27:55Z</time>
      </trkpt>
      <trkpt lat="59.8926413" lon="17.6412971">
        <ele>37.1481</ele>
        <time>2013-05-09T17:27:56Z</time>
      </trkpt>
      <trkpt lat="59.8926398" lon="17.641453">
        <ele>38.1094</ele>
        <time>2013-05-09T17:27:57Z</time>
      </trkpt>
      <trkpt lat="59.8926341" lon="17.6416043">
        <ele>39.0707</ele>
        <time>2013-05-09T17:27:58Z</time>
      </trkpt>
      <trkpt lat="59.8926273" lon="17.6417576">
        <ele>39.5513</ele>
        <time>2013-05-09T17:27:59Z</time>
      </trkpt>
      <trkpt lat="59.8926188" lon="17.6419112">
        <ele>40.0321</ele>
        <time>2013-05-09T17:28:00Z</time>
      </trkpt>
      <trkpt lat="59.8926105" lon="17.6420637">
        <ele>40.9934</ele>
        <time>2013-05-09T17:28:01Z</time>
      </trkpt>
      <trkpt lat="59.892601" lon="17.6422148">
        <ele>40.9934</ele>
        <time>2013-05-09T17:28:02Z</time>
      </trkpt>
      <trkpt lat="59.8925915" lon="17.6423651">
        <ele>41.474</ele>
        <time>2013-05-09T17:28:03Z</time>
      </trkpt>
      <trkpt lat="59.8925807" lon="17.6425135">
        <ele>41.474</ele>
        <time>2013-05-09T17:28:04Z</time>
      </trkpt>
      <trkpt lat="59.8925698" lon="17.642663">
        <ele>41.9547</ele>
        <time>2013-05-09T17:28:05Z</time>
      </trkpt>
      <trkpt lat="59.8925584" lon="17.6428111">
        <ele>42.4354</ele>
        <time>2013-05-09T17:28:06Z</time>
      </trkpt>
      <trkpt lat="59.892548" lon="17.6429588">
        <ele>42.4354</ele>
        <time>2013-05-09T17:28:07Z</time>
      </trkpt>
      <trkpt lat="59.8925368" lon="17.643105">
        <ele>42.916</ele>
        <time>2013-05-09T17:28:08Z</time>
      </trkpt>
      <trkpt lat="59.8925238" lon="17.6432511">
        <ele>42.916</ele>
        <time>2013-05-09T17:28:09Z</time>
      </trkpt>
      <trkpt lat="59.89251" lon="17.6433966">
        <ele>43.3966</ele>
        <time>2013-05-09T17:28:10Z</time>
      </trkpt>
      <trkpt lat="59.8924957" lon="17.643541">
        <ele>43.3966</ele>
        <time>2013-05-09T17:28:11Z</time>
      </trkpt>
      <trkpt lat="59.8924834" lon="17.6436854">
        <ele>43.8773</ele>
        <time>2013-05-09T17:28:12Z</time>
      </trkpt>
      <trkpt lat="59.8924704" lon="17.6438316">
        <ele>44.358</ele>
        <time>2013-05-09T17:28:13Z</time>
      </trkpt>
      <trkpt lat="59.8924543" lon="17.6439779">
        <ele>43.8773</ele>
        <time>2013-05-09T17:28:14Z</time>
      </trkpt>
      <trkpt lat="59.8924372" lon="17.644127">
        <ele>43.3966</ele>
        <time>2013-05-09T17:28:15Z</time>
      </trkpt>
      <trkpt lat="59.8924191" lon="17.6442767">
        <ele>42.916</ele>
        <time>2013-05-09T17:28:16Z</time>
      </trkpt>
      <trkpt lat="59.8924003" lon="17.6444259">
        <ele>42.4354</ele>
        <time>2013-05-09T17:28:17Z</time>
      </trkpt>
      <trkpt lat="59.8923832" lon="17.6445761">
        <ele>41.9547</ele>
        <time>2013-05-09T17:28:18Z</time>
      </trkpt>
      <trkpt lat="59.8923658" lon="17.6447256">
        <ele>41.474</ele>
        <time>2013-05-09T17:28:19Z</time>
      </trkpt>
      <trkpt lat="59.8923466" lon="17.6448743">
        <ele>40.5128</ele>
        <time>2013-05-09T17:28:20Z</time>
      </trkpt>
      <trkpt lat="59.8923295" lon="17.6450294">
        <ele>40.5128</ele>
        <time>2013-05-09T17:28:21Z</time>
      </trkpt>
      <trkpt lat="59.8923149" lon="17.6451883">
        <ele>40.9934</ele>
        <time>2013-05-09T17:28:22Z</time>
      </trkpt>
      <trkpt lat="59.8922994" lon="17.6453483">
        <ele>40.9934</ele>
        <time>2013-05-09T17:28:23Z</time>
      </trkpt>
      <trkpt lat="59.8922869" lon="17.6455083">
        <ele>41.474</ele>
        <time>2013-05-09T17:28:24Z</time>
      </trkpt>
      <trkpt lat="59.8922695" lon="17.6456635">
        <ele>40.5128</ele>
        <time>2013-05-09T17:28:25Z</time>
      </trkpt>
      <trkpt lat="59.8922528" lon="17.6458166">
        <ele>40.5128</ele>
        <time>2013-05-09T17:28:26Z</time>
      </trkpt>
      <trkpt lat="59.8922362" lon="17.6459678">
        <ele>40.0321</ele>
        <time>2013-05-09T17:28:27Z</time>
      </trkpt>
      <trkpt lat="59.8922195" lon="17.646119">
        <ele>39.5513</ele>
        <time>2013-05-09T17:28:28Z</time>
      </trkpt>
      <trkpt lat="59.8922026" lon="17.646271">
        <ele>39.0707</ele>
        <time>2013-05-09T17:28:29Z</time>
      </trkpt>
      <trkpt lat="59.8921853" lon="17.6464228">
        <ele>39.0707</ele>
        <time>2013-05-09T17:28:30Z</time>
      </trkpt>
      <trkpt lat="59.8921676" lon="17.6465752">
        <ele>38.5901</ele>
        <time>2013-05-09T17:28:31Z</time>
      </trkpt>
      <trkpt lat="59.892149" lon="17.6467274">
        <ele>38.5901</ele>
        <time>2013-05-09T17:28:32Z</time>
      </trkpt>
      <trkpt lat="59.8921303" lon="17.6468791">
        <ele>38.5901</ele>
        <time>2013-05-09T17:28:33Z</time>
      </trkpt>
      <trkpt lat="59.8921115" lon="17.6470294">
        <ele>39.0707</ele>
        <time>2013-05-09T17:28:34Z</time>
      </trkpt>
      <trkpt lat="59.8920922" lon="17.6471804">
        <ele>39.0707</ele>
        <time>2013-05-09T17:28:35Z</time>
      </trkpt>
      <trkpt lat="59.8920725" lon="17.6473303">
        <ele>39.0707</ele>
        <time>2013-05-09T17:28:36Z</time>
      </trkpt>
      <trkpt lat="59.892057" lon="17.6474806">
        <ele>40.0321</ele>
        <time>2013-05-09T17:28:37Z</time>
      </trkpt>
      <trkpt lat="59.8920369" lon="17.6476308">
        <ele>40.0321</ele>
        <time>2013-05-09T17:28:38Z</time>
      </trkpt>
      <trkpt lat="59.8920171" lon="17.647782">
        <ele>40.9934</ele>
        <time>2013-05-09T17:28:39Z</time>
      </trkpt>
      <trkpt lat="59.8919946" lon="17.6479344">
        <ele>41.474</ele>
        <time>2013-05-09T17:28:40Z</time>
      </trkpt>
      <trkpt lat="59.8919727" lon="17.648089">
        <ele>42.4354</ele>
        <time>2013-05-09T17:28:41Z</time>
      </trkpt>
      <trkpt lat="59.8919497" lon="17.6482441">
        <ele>42.916</ele>
        <time>2013-05-09T17:28:42Z</time>
      </trkpt>
      <trkpt lat="59.891925" lon="17.6483964">
        <ele>43.3966</ele>
        <time>2013-05-09T17:28:43Z</time>
      </trkpt>
      <trkpt lat="59.8918998" lon="17.6485519">
        <ele>43.8773</ele>
        <time>2013-05-09T17:28:44Z</time>
      </trkpt>
      <trkpt lat="59.891871" lon="17.6487081">
        <ele>43.3966</ele>
        <time>2013-05-09T17:28:45Z</time>
      </trkpt>
      <trkpt lat="59.8918415" lon="17.6488647">
        <ele>42.916</ele>
        <time>2013-05-09T17:28:46Z</time>
      </trkpt>
      <trkpt lat="59.8918116" lon="17.6490222">
        <ele>42.916</ele>
        <time>2013-05-09T17:28:47Z</time>
      </trkpt>
      <trkpt lat="59.8917812" lon="17.649181">
        <ele>42.4354</ele>
        <time>2013-05-09T17:28:48Z</time>
      </trkpt>
      <trkpt lat="59.8917501" lon="17.6493402">
        <ele>41.9547</ele>
        <time>2013-05-09T17:28:49Z</time>
      </trkpt>
      <trkpt lat="59.8917152" lon="17.649494">
        <ele>40.9934</ele>
        <time>2013-05-09T17:28:50Z</time>
      </trkpt>
      <trkpt lat="59.8916788" lon="17.6496472">
        <ele>40.5128</ele>
        <time>2013-05-09T17:28:51Z</time>
      </trkpt>
      <trkpt lat="59.8916416" lon="17.6497959">
        <ele>40.0321</ele>
        <time>2013-05-09T17:28:52Z</time>
      </trkpt>
      <trkpt lat="59.8916033" lon="17.6499442">
        <ele>39.0707</ele>
        <time>2013-05-09T17:28:53Z</time>
      </trkpt>
      <trkpt lat="59.891565" lon="17.6500901">
        <ele>38.5901</ele>
        <time>2013-05-09T17:28:54Z</time>
      </trkpt>
      <trkpt lat="59.8915253" lon="17.6502313">
        <ele>38.1094</ele>
        <time>2013-05-09T17:28:55Z</time>
      </trkpt>
      <trkpt lat="59.8914831" lon="17.6503684">
        <ele>37.6287</ele>
        <time>2013-05-09T17:28:56Z</time>
      </trkpt>
      <trkpt lat="59.8914411" lon="17.6505016">
        <ele>37.6287</ele>
        <time>2013-05-09T17:28:57Z</time>
      </trkpt>
      <trkpt lat="59.8913982" lon="17.6506347">
        <ele>37.6287</ele>
        <time>2013-05-09T17:28:58Z</time>
      </trkpt>
      <trkpt lat="59.8913546" lon="17.6507673">
        <ele>37.1481</ele>
        <time>2013-05-09T17:28:59Z</time>
      </trkpt>
      <trkpt lat="59.8913095" lon="17.6508987">
        <ele>37.1481</ele>
        <time>2013-05-09T17:29:00Z</time>
      </trkpt>
      <trkpt lat="59.8912635" lon="17.6510284">
        <ele>36.6675</ele>
        <time>2013-05-09T17:29:01Z</time>
      </trkpt>
      <trkpt lat="59.891219" lon="17.6511611">
        <ele>36.6675</ele>
        <time>2013-05-09T17:29:02Z</time>
      </trkpt>
      <trkpt lat="59.8911743" lon="17.6512941">
        <ele>36.6675</ele>
        <time>2013-05-09T17:29:03Z</time>
      </trkpt>
      <trkpt lat="59.8911277" lon="17.6514248">
        <ele>36.6675</ele>
        <time>2013-05-09T17:29:04Z</time>
      </trkpt>
      <trkpt lat="59.8910801" lon="17.6515557">
        <ele>36.6675</ele>
        <time>2013-05-09T17:29:05Z</time>
      </trkpt>
      <trkpt lat="59.891032" lon="17.6516858">
        <ele>36.6675</ele>
        <time>2013-05-09T17:29:06Z</time>
      </trkpt>
      <trkpt lat="59.8909836" lon="17.6518163">
        <ele>36.6675</ele>
        <time>2013-05-09T17:29:07Z</time>
      </trkpt>
      <trkpt lat="59.8909355" lon="17.6519467">
        <ele>37.1481</ele>
        <time>2013-05-09T17:29:08Z</time>
      </trkpt>
      <trkpt lat="59.8908861" lon="17.6520739">
        <ele>37.1481</ele>
        <time>2013-05-09T17:29:09Z</time>
      </trkpt>
      <trkpt lat="59.8908371" lon="17.6522044">
        <ele>37.1481</ele>
        <time>2013-05-09T17:29:10Z</time>
      </trkpt>
      <trkpt lat="59.8907884" lon="17.652337">
        <ele>37.1481</ele>
        <time>2013-05-09T17:29:11Z</time>
      </trkpt>
      <trkpt lat="59.8907397" lon="17.6524719">
        <ele>37.1481</ele>
        <time>2013-05-09T17:29:12Z</time>
      </trkpt>
      <trkpt lat="59.8906905" lon="17.6526079">
        <ele>37.6287</ele>
        <time>2013-05-09T17:29:13Z</time>
      </trkpt>
      <trkpt lat="59.8906396" lon="17.652744">
        <ele>37.6287</ele>
        <time>2013-05-09T17:29:14Z</time>
      </trkpt>
      <trkpt lat="59.8905879" lon="17.6528803">
        <ele>37.6287</ele>
        <time>2013-05-09T17:29:15Z</time>
      </trkpt>
      <trkpt lat="59.8905366" lon="17.6530191">
        <ele>37.1481</ele>
        <time>2013-05-09T17:29:16Z</time>
      </trkpt>
      <trkpt lat="59.8904859" lon="17.6531598">
        <ele>37.1481</ele>
        <time>2013-05-09T17:29:17Z</time>
      </trkpt>
      <trkpt lat="59.8904356" lon="17.6532994">
        <ele>37.1481</ele>
        <time>2013-05-09T17:29:18Z</time>
      </trkpt>
      <trkpt lat="59.8903857" lon="17.6534357">
        <ele>37.1481</ele>
        <time>2013-05-09T17:29:19Z</time>
      </trkpt>
      <trkpt lat="59.890336" lon="17.6535698">
        <ele>37.1481</ele>
        <time>2013-05-09T17:29:20Z</time>
      </trkpt>
      <trkpt lat="59.8902864" lon="17.6537035">
        <ele>37.1481</ele>
        <time>2013-05-09T17:29:21Z</time>
      </trkpt>
      <trkpt lat="59.8902367" lon="17.6538386">
        <ele>37.1481</ele>
        <time>2013-05-09T17:29:22Z</time>
      </trkpt>
      <trkpt lat="59.8901865" lon="17.6539757">
        <ele>37.1481</ele>
        <time>2013-05-09T17:29:23Z</time>
      </trkpt>
      <trkpt lat="59.8901362" lon="17.6541148">
        <ele>37.6287</ele>
        <time>2013-05-09T17:29:24Z</time>
      </trkpt>
      <trkpt lat="59.8900855" lon="17.6542552">
        <ele>37.6287</ele>
        <time>2013-05-09T17:29:25Z</time>
      </trkpt>
      <trkpt lat="59.8900351" lon="17.6543956">
        <ele>37.6287</ele>
        <time>2013-05-09T17:29:26Z</time>
      </trkpt>
      <trkpt lat="59.8899839" lon="17.6545349">
        <ele>37.6287</ele>
        <time>2013-05-09T17:29:27Z</time>
      </trkpt>
      <trkpt lat="59.8899324" lon="17.6546748">
        <ele>37.6287</ele>
        <time>2013-05-09T17:29:28Z</time>
      </trkpt>
      <trkpt lat="59.8898802" lon="17.654815">
        <ele>37.6287</ele>
        <time>2013-05-09T17:29:29Z</time>
      </trkpt>
      <trkpt lat="59.8898285" lon="17.654956">
        <ele>37.6287</ele>
        <time>2013-05-09T17:29:30Z</time>
      </trkpt>
      <trkpt lat="59.8897761" lon="17.6550972">
        <ele>37.6287</ele>
        <time>2013-05-09T17:29:31Z</time>
      </trkpt>
      <trkpt lat="59.8897237" lon="17.6552393">
        <ele>37.6287</ele>
        <time>2013-05-09T17:29:32Z</time>
      </trkpt>
      <trkpt lat="59.889671" lon="17.6553824">
        <ele>37.6287</ele>
        <time>2013-05-09T17:29:33Z</time>
      </trkpt>
      <trkpt lat="59.8896177" lon="17.6555262">
        <ele>37.6287</ele>
        <time>2013-05-09T17:29:34Z</time>
      </trkpt>
      <trkpt lat="59.8895639" lon="17.6556717">
        <ele>37.6287</ele>
        <time>2013-05-09T17:29:35Z</time>
      </trkpt>
      <trkpt lat="59.8895103" lon="17.6558189">
        <ele>37.6287</ele>
        <time>2013-05-09T17:29:36Z</time>
      </trkpt>
      <trkpt lat="59.8894566" lon="17.6559656">
        <ele>37.6287</ele>
        <time>2013-05-09T17:29:37Z</time>
      </trkpt>
      <trkpt lat="59.8894022" lon="17.6561127">
        <ele>37.6287</ele>
        <time>2013-05-09T17:29:38Z</time>
      </trkpt>
      <trkpt lat="59.8893476" lon="17.6562624">
        <ele>37.6287</ele>
        <time>2013-05-09T17:29:39Z</time>
      </trkpt>
      <trkpt lat="59.8892925" lon="17.6564125">
        <ele>37.6287</ele>
        <time>2013-05-09T17:29:40Z</time>
      </trkpt>
      <trkpt lat="59.8892375" lon="17.6565628">
        <ele>37.6287</ele>
        <time>2013-05-09T17:29:41Z</time>
      </trkpt>
      <trkpt lat="59.8891826" lon="17.6567132">
        <ele>37.6287</ele>
        <time>2013-05-09T17:29:42Z</time>
      </trkpt>
      <trkpt lat="59.8891269" lon="17.6568633">
        <ele>37.1481</ele>
        <time>2013-05-09T17:29:43Z</time>
      </trkpt>
      <trkpt lat="59.8890716" lon="17.6570141">
        <ele>37.1481</ele>
        <time>2013-05-09T17:29:44Z</time>
      </trkpt>
      <trkpt lat="59.8890173" lon="17.6571612">
        <ele>36.6675</ele>
        <time>2013-05-09T17:29:45Z</time>
      </trkpt>
      <trkpt lat="59.8889644" lon="17.6573083">
        <ele>36.6675</ele>
        <time>2013-05-09T17:29:46Z</time>
      </trkpt>
      <trkpt lat="59.8889119" lon="17.6574518">
        <ele>36.6675</ele>
        <time>2013-05-09T17:29:47Z</time>
      </trkpt>
      <trkpt lat="59.8888603" lon="17.6575931">
        <ele>36.6675</ele>
        <time>2013-05-09T17:29:48Z</time>
      </trkpt>
      <trkpt lat="59.888809" lon="17.6577325">
        <ele>36.6675</ele>
        <time>2013-05-09T17:29:49Z</time>
      </trkpt>
      <trkpt lat="59.8887569" lon="17.6578701">
        <ele>36.6675</ele>
        <time>2013-05-09T17:29:50Z</time>
      </trkpt>
      <trkpt lat="59.8887048" lon="17.6580065">
        <ele>36.1868</ele>
        <time>2013-05-09T17:29:51Z</time>
      </trkpt>
      <trkpt lat="59.8886524" lon="17.6581428">
        <ele>36.1868</ele>
        <time>2013-05-09T17:29:52Z</time>
      </trkpt>
      <trkpt lat="59.8886003" lon="17.6582795">
        <ele>36.1868</ele>
        <time>2013-05-09T17:29:53Z</time>
      </trkpt>
      <trkpt lat="59.8885485" lon="17.6584159">
        <ele>35.7061</ele>
        <time>2013-05-09T17:29:54Z</time>
      </trkpt>
      <trkpt lat="59.8884977" lon="17.6585529">
        <ele>35.7061</ele>
        <time>2013-05-09T17:29:55Z</time>
      </trkpt>
      <trkpt lat="59.888447" lon="17.6586903">
        <ele>35.7061</ele>
        <time>2013-05-09T17:29:56Z</time>
      </trkpt>
      <trkpt lat="59.8883965" lon="17.6588281">
        <ele>35.7061</ele>
        <time>2013-05-09T17:29:57Z</time>
      </trkpt>
      <trkpt lat="59.8883455" lon="17.6589663">
        <ele>35.7061</ele>
        <time>2013-05-09T17:29:58Z</time>
      </trkpt>
      <trkpt lat="59.888295" lon="17.6591047">
        <ele>35.7061</ele>
        <time>2013-05-09T17:29:59Z</time>
      </trkpt>
      <trkpt lat="59.888245" lon="17.6592425">
        <ele>35.7061</ele>
        <time>2013-05-09T17:30:00Z</time>
      </trkpt>
      <trkpt lat="59.8881959" lon="17.6593792">
        <ele>35.7061</ele>
        <time>2013-05-09T17:30:01Z</time>
      </trkpt>
      <trkpt lat="59.8881477" lon="17.6595128">
        <ele>35.7061</ele>
        <time>2013-05-09T17:30:02Z</time>
      </trkpt>
      <trkpt lat="59.8880994" lon="17.6596434">
        <ele>35.7061</ele>
        <time>2013-05-09T17:30:03Z</time>
      </trkpt>
      <trkpt lat="59.8880517" lon="17.659774">
        <ele>35.7061</ele>
        <time>2013-05-09T17:30:04Z</time>
      </trkpt>
      <trkpt lat="59.8880046" lon="17.6599044">
        <ele>35.2255</ele>
        <time>2013-05-09T17:30:05Z</time>
      </trkpt>
      <trkpt lat="59.8879569" lon="17.6600349">
        <ele>35.2255</ele>
        <time>2013-05-09T17:30:06Z</time>
      </trkpt>
      <trkpt lat="59.8879081" lon="17.6601647">
        <ele>35.2255</ele>
        <time>2013-05-09T17:30:07Z</time>
      </trkpt>
      <trkpt lat="59.8878575" lon="17.6602924">
        <ele>35.2255</ele>
        <time>2013-05-09T17:30:08Z</time>
      </trkpt>
      <trkpt lat="59.8878058" lon="17.6604143">
        <ele>35.2255</ele>
        <time>2013-05-09T17:30:09Z</time>
      </trkpt>
      <trkpt lat="59.8877532" lon="17.6605262">
        <ele>35.2255</ele>
        <time>2013-05-09T17:30:10Z</time>
      </trkpt>
      <trkpt lat="59.8877004" lon="17.6606257">
        <ele>35.2255</ele>
        <time>2013-05-09T17:30:11Z</time>
      </trkpt>
      <trkpt lat="59.887648" lon="17.6607105">
        <ele>35.2255</ele>
        <time>2013-05-09T17:30:12Z</time>
      </trkpt>
      <trkpt lat="59.8875955" lon="17.6607824">
        <ele>35.2255</ele>
        <time>2013-05-09T17:30:13Z</time>
      </trkpt>
      <trkpt lat="59.8875431" lon="17.6608431">
        <ele>35.2255</ele>
        <time>2013-05-09T17:30:14Z</time>
      </trkpt>
      <trkpt lat="59.8874916" lon="17.6608904">
        <ele>35.2255</ele>
        <time>2013-05-09T17:30:15Z</time>
      </trkpt>
      <trkpt lat="59.8874421" lon="17.6609245">
        <ele>35.2255</ele>
        <time>2013-05-09T17:30:16Z</time>
      </trkpt>
      <trkpt lat="59.8873968" lon="17.6609463">
        <ele>35.2255</ele>
        <time>2013-05-09T17:30:17Z</time>
      </trkpt>
      <trkpt lat="59.8873596" lon="17.6609419">
        <ele>35.2255</ele>
        <time>2013-05-09T17:30:18Z</time>
      </trkpt>
      <trkpt lat="59.8873351" lon="17.6609026">
        <ele>35.2255</ele>
        <time>2013-05-09T17:30:19Z</time>
      </trkpt>
      <trkpt lat="59.8873245" lon="17.6608385">
        <ele>34.7449</ele>
        <time>2013-05-09T17:30:20Z</time>
      </trkpt>
      <trkpt lat="59.8873198" lon="17.6607642">
        <ele>34.7449</ele>
        <time>2013-05-09T17:30:21Z</time>
      </trkpt>
      <trkpt lat="59.8873129" lon="17.660692">
        <ele>34.2642</ele>
        <time>2013-05-09T17:30:22Z</time>
      </trkpt>
      <trkpt lat="59.8873022" lon="17.6606159">
        <ele>34.2642</ele>
        <time>2013-05-09T17:30:23Z</time>
      </trkpt>
      <trkpt lat="59.8872968" lon="17.6605292">
        <ele>33.7834</ele>
        <time>2013-05-09T17:30:24Z</time>
      </trkpt>
      <trkpt lat="59.8872959" lon="17.6604349">
        <ele>33.7834</ele>
        <time>2013-05-09T17:30:25Z</time>
      </trkpt>
      <trkpt lat="59.8872969" lon="17.6603329">
        <ele>33.3029</ele>
        <time>2013-05-09T17:30:26Z</time>
      </trkpt>
      <trkpt lat="59.8873016" lon="17.6602256">
        <ele>32.8223</ele>
        <time>2013-05-09T17:30:27Z</time>
      </trkpt>
      <trkpt lat="59.88731" lon="17.6601164">
        <ele>32.8223</ele>
        <time>2013-05-09T17:30:28Z</time>
      </trkpt>
      <trkpt lat="59.8873178" lon="17.6600065">
        <ele>32.3416</ele>
        <time>2013-05-09T17:30:29Z</time>
      </trkpt>
      <trkpt lat="59.887314" lon="17.6598929">
        <ele>32.3416</ele>
        <time>2013-05-09T17:30:30Z</time>
      </trkpt>
      <trkpt lat="59.8872893" lon="17.6597941">
        <ele>31.8607</ele>
        <time>2013-05-09T17:30:31Z</time>
      </trkpt>
      <trkpt lat="59.8872499" lon="17.6597066">
        <ele>31.8607</ele>
        <time>2013-05-09T17:30:32Z</time>
      </trkpt>
      <trkpt lat="59.8872026" lon="17.6596299">
        <ele>31.3801</ele>
        <time>2013-05-09T17:30:33Z</time>
      </trkpt>
      <trkpt lat="59.8871538" lon="17.6595541">
        <ele>31.3801</ele>
        <time>2013-05-09T17:30:34Z</time>
      </trkpt>
      <trkpt lat="59.8871028" lon="17.6594749">
        <ele>31.3801</ele>
        <time>2013-05-09T17:30:35Z</time>
      </trkpt>
      <trkpt lat="59.8870498" lon="17.6593941">
        <ele>30.8995</ele>
        <time>2013-05-09T17:30:36Z</time>
      </trkpt>
      <trkpt lat="59.8869949" lon="17.6593123">
        <ele>30.8995</ele>
        <time>2013-05-09T17:30:37Z</time>
      </trkpt>
      <trkpt lat="59.8869391" lon="17.659227">
        <ele>30.8995</ele>
        <time>2013-05-09T17:30:38Z</time>
      </trkpt>
      <trkpt lat="59.8868816" lon="17.6591419">
        <ele>30.8995</ele>
        <time>2013-05-09T17:30:39Z</time>
      </trkpt>
      <trkpt lat="59.8868207" lon="17.65906">
        <ele>30.4188</ele>
        <time>2013-05-09T17:30:40Z</time>
      </trkpt>
      <trkpt lat="59.8867639" lon="17.6589773">
        <ele>30.4188</ele>
        <time>2013-05-09T17:30:41Z</time>
      </trkpt>
      <trkpt lat="59.8867088" lon="17.6588921">
        <ele>30.4188</ele>
        <time>2013-05-09T17:30:42Z</time>
      </trkpt>
      <trkpt lat="59.886654" lon="17.6588054">
        <ele>30.4188</ele>
        <time>2013-05-09T17:30:43Z</time>
      </trkpt>
      <trkpt lat="59.8866004" lon="17.6587177">
        <ele>30.4188</ele>
        <time>2013-05-09T17:30:44Z</time>
      </trkpt>
      <trkpt lat="59.8865483" lon="17.6586312">
        <ele>29.9381</ele>
        <time>2013-05-09T17:30:45Z</time>
      </trkpt>
      <trkpt lat="59.8864978" lon="17.6585461">
        <ele>29.9381</ele>
        <time>2013-05-09T17:30:46Z</time>
      </trkpt>
      <trkpt lat="59.8864493" lon="17.6584594">
        <ele>29.9381</ele>
        <time>2013-05-09T17:30:47Z</time>
      </trkpt>
      <trkpt lat="59.8864006" lon="17.6583708">
        <ele>29.4575</ele>
        <time>2013-05-09T17:30:48Z</time>
      </trkpt>
      <trkpt lat="59.8863523" lon="17.6582824">
        <ele>29.4575</ele>
        <time>2013-05-09T17:30:49Z</time>
      </trkpt>
      <trkpt lat="59.8863035" lon="17.6581988">
        <ele>29.4575</ele>
        <time>2013-05-09T17:30:50Z</time>
      </trkpt>
      <trkpt lat="59.8862559" lon="17.6581158">
        <ele>29.4575</ele>
        <time>2013-05-09T17:30:51Z</time>
      </trkpt>
      <trkpt lat="59.8862112" lon="17.6580278">
        <ele>29.4575</ele>
        <time>2013-05-09T17:30:52Z</time>
      </trkpt>
      <trkpt lat="59.8861688" lon="17.6579382">
        <ele>29.4575</ele>
        <time>2013-05-09T17:30:53Z</time>
      </trkpt>
      <trkpt lat="59.8861269" lon="17.6578466">
        <ele>28.9769</ele>
        <time>2013-05-09T17:30:54Z</time>
      </trkpt>
      <trkpt lat="59.8860872" lon="17.6577489">
        <ele>28.9769</ele>
        <time>2013-05-09T17:30:55Z</time>
      </trkpt>
      <trkpt lat="59.88605" lon="17.6576496">
        <ele>28.9769</ele>
        <time>2013-05-09T17:30:56Z</time>
      </trkpt>
      <trkpt lat="59.8860174" lon="17.6575554">
        <ele>28.4962</ele>
        <time>2013-05-09T17:30:57Z</time>
      </trkpt>
      <trkpt lat="59.885994" lon="17.6574699">
        <ele>28.4962</ele>
        <time>2013-05-09T17:30:58Z</time>
      </trkpt>
      <trkpt lat="59.8859771" lon="17.6573977">
        <ele>28.0155</ele>
        <time>2013-05-09T17:30:59Z</time>
      </trkpt>
      <trkpt lat="59.8859574" lon="17.6573475">
        <ele>27.5349</ele>
        <time>2013-05-09T17:31:00Z</time>
      </trkpt>
      <trkpt lat="59.885929" lon="17.6573352">
        <ele>27.5349</ele>
        <time>2013-05-09T17:31:01Z</time>
      </trkpt>
      <trkpt lat="59.8859011" lon="17.6573656">
        <ele>27.5349</ele>
        <time>2013-05-09T17:31:02Z</time>
      </trkpt>
      <trkpt lat="59.885873" lon="17.6574234">
        <ele>27.5349</ele>
        <time>2013-05-09T17:31:03Z</time>
      </trkpt>
      <trkpt lat="59.8858391" lon="17.6574918">
        <ele>27.0543</ele>
        <time>2013-05-09T17:31:04Z</time>
      </trkpt>
      <trkpt lat="59.8858024" lon="17.6575656">
        <ele>27.0543</ele>
        <time>2013-05-09T17:31:05Z</time>
      </trkpt>
      <trkpt lat="59.8857679" lon="17.6576351">
        <ele>27.0543</ele>
        <time>2013-05-09T17:31:06Z</time>
      </trkpt>
      <trkpt lat="59.8857148" lon="17.6577333">
        <ele>26.5736</ele>
        <time>2013-05-09T17:31:07Z</time>
      </trkpt>
      <trkpt lat="59.8856543" lon="17.6578122">
        <ele>26.0929</ele>
        <time>2013-05-09T17:31:08Z</time>
      </trkpt>
      <trkpt lat="59.8856034" lon="17.6579076">
        <ele>26.5736</ele>
        <time>2013-05-09T17:31:09Z</time>
      </trkpt>
      <trkpt lat="59.8855597" lon="17.6580206">
        <ele>26.5736</ele>
        <time>2013-05-09T17:31:10Z</time>
      </trkpt>
      <trkpt lat="59.8855244" lon="17.6581551">
        <ele>27.0543</ele>
        <time>2013-05-09T17:31:11Z</time>
      </trkpt>
      <trkpt lat="59.8854989" lon="17.6582893">
        <ele>27.5349</ele>
        <time>2013-05-09T17:31:12Z</time>
      </trkpt>
      <trkpt lat="59.8854798" lon="17.6584205">
        <ele>28.0155</ele>
        <time>2013-05-09T17:31:13Z</time>
      </trkpt>
      <trkpt lat="59.8854683" lon="17.6585519">
        <ele>28.0155</ele>
        <time>2013-05-09T17:31:14Z</time>
      </trkpt>
      <trkpt lat="59.885461" lon="17.6586839">
        <ele>28.4962</ele>
        <time>2013-05-09T17:31:15Z</time>
      </trkpt>
      <trkpt lat="59.8854544" lon="17.6588245">
        <ele>28.4962</ele>
        <time>2013-05-09T17:31:16Z</time>
      </trkpt>
      <trkpt lat="59.8854486" lon="17.6589664">
        <ele>28.9769</ele>
        <time>2013-05-09T17:31:17Z</time>
      </trkpt>
      <trkpt lat="59.8854434" lon="17.6591064">
        <ele>28.9769</ele>
        <time>2013-05-09T17:31:18Z</time>
      </trkpt>
      <trkpt lat="59.8854384" lon="17.6592508">
        <ele>28.9769</ele>
        <time>2013-05-09T17:31:19Z</time>
      </trkpt>
      <trkpt lat="59.885433" lon="17.6593968">
        <ele>28.4962</ele>
        <time>2013-05-09T17:31:20Z</time>
      </trkpt>
      <trkpt lat="59.8854224" lon="17.6595496">
        <ele>28.4962</ele>
        <time>2013-05-09T17:31:21Z</time>
      </trkpt>
      <trkpt lat="59.8854071" lon="17.6597072">
        <ele>28.0155</ele>
        <time>2013-05-09T17:31:22Z</time>
      </trkpt>
      <trkpt lat="59.8853793" lon="17.6598646">
        <ele>28.0155</ele>
        <time>2013-05-09T17:31:23Z</time>
      </trkpt>
      <trkpt lat="59.8853383" lon="17.6600252">
        <ele>28.0155</ele>
        <time>2013-05-09T17:31:24Z</time>
      </trkpt>
      <trkpt lat="59.8852835" lon="17.6601785">
        <ele>28.4962</ele>
        <time>2013-05-09T17:31:25Z</time>
      </trkpt>
      <trkpt lat="59.8852168" lon="17.6603132">
        <ele>28.9769</ele>
        <time>2013-05-09T17:31:26Z</time>
      </trkpt>
      <trkpt lat="59.8851354" lon="17.6604189">
        <ele>28.9769</ele>
        <time>2013-05-09T17:31:27Z</time>
      </trkpt>
      <trkpt lat="59.8850462" lon="17.6604945">
        <ele>29.4575</ele>
        <time>2013-05-09T17:31:28Z</time>
      </trkpt>
      <trkpt lat="59.884958" lon="17.6605717">
        <ele>29.4575</ele>
        <time>2013-05-09T17:31:29Z</time>
      </trkpt>
      <trkpt lat="59.8848777" lon="17.6606419">
        <ele>29.4575</ele>
        <time>2013-05-09T17:31:30Z</time>
      </trkpt>
      <trkpt lat="59.8847839" lon="17.6606708">
        <ele>29.4575</ele>
        <time>2013-05-09T17:31:31Z</time>
      </trkpt>
      <trkpt lat="59.8846971" lon="17.6607504">
        <ele>29.4575</ele>
        <time>2013-05-09T17:31:32Z</time>
      </trkpt>
      <trkpt lat="59.8846235" lon="17.6608122">
        <ele>28.9769</ele>
        <time>2013-05-09T17:31:33Z</time>
      </trkpt>
      <trkpt lat="59.8845557" lon="17.660871">
        <ele>28.9769</ele>
        <time>2013-05-09T17:31:34Z</time>
      </trkpt>
      <trkpt lat="59.8844892" lon="17.6609285">
        <ele>28.4962</ele>
        <time>2013-05-09T17:31:35Z</time>
      </trkpt>
      <trkpt lat="59.884424" lon="17.6609805">
        <ele>28.4962</ele>
        <time>2013-05-09T17:31:36Z</time>
      </trkpt>
      <trkpt lat="59.884364" lon="17.6610303">
        <ele>28.4962</ele>
        <time>2013-05-09T17:31:37Z</time>
      </trkpt>
      <trkpt lat="59.8843035" lon="17.6610797">
        <ele>28.0155</ele>
        <time>2013-05-09T17:31:38Z</time>
      </trkpt>
      <trkpt lat="59.8842504" lon="17.6611372">
        <ele>28.0155</ele>
        <time>2013-05-09T17:31:39Z</time>
      </trkpt>
      <trkpt lat="59.8842014" lon="17.6611999">
        <ele>28.0155</ele>
        <time>2013-05-09T17:31:40Z</time>
      </trkpt>
      <trkpt lat="59.8841549" lon="17.6612653">
        <ele>28.0155</ele>
        <time>2013-05-09T17:31:41Z</time>
      </trkpt>
      <trkpt lat="59.8841118" lon="17.6613333">
        <ele>28.0155</ele>
        <time>2013-05-09T17:31:42Z</time>
      </trkpt>
      <trkpt lat="59.8840713" lon="17.6614048">
        <ele>27.5349</ele>
        <time>2013-05-09T17:31:43Z</time>
      </trkpt>
      <trkpt lat="59.8840335" lon="17.6614819">
        <ele>27.5349</ele>
        <time>2013-05-09T17:31:44Z</time>
      </trkpt>
      <trkpt lat="59.8839991" lon="17.6615654">
        <ele>27.5349</ele>
        <time>2013-05-09T17:31:45Z</time>
      </trkpt>
      <trkpt lat="59.8839677" lon="17.6616558">
        <ele>27.5349</ele>
        <time>2013-05-09T17:31:46Z</time>
      </trkpt>
      <trkpt lat="59.8839397" lon="17.6617517">
        <ele>27.5349</ele>
        <time>2013-05-09T17:31:47Z</time>
      </trkpt>
      <trkpt lat="59.8839147" lon="17.6618543">
        <ele>28.0155</ele>
        <time>2013-05-09T17:31:48Z</time>
      </trkpt>
      <trkpt lat="59.8838932" lon="17.6619632">
        <ele>28.0155</ele>
        <time>2013-05-09T17:31:49Z</time>
      </trkpt>
      <trkpt lat="59.883874" lon="17.6620782">
        <ele>28.4962</ele>
        <time>2013-05-09T17:31:50Z</time>
      </trkpt>
      <trkpt lat="59.8838584" lon="17.6621956">
        <ele>28.4962</ele>
        <time>2013-05-09T17:31:51Z</time>
      </trkpt>
      <trkpt lat="59.8838463" lon="17.6623205">
        <ele>29.4575</ele>
        <time>2013-05-09T17:31:52Z</time>
      </trkpt>
      <trkpt lat="59.8838345" lon="17.6624392">
        <ele>29.4575</ele>
        <time>2013-05-09T17:31:53Z</time>
      </trkpt>
      <trkpt lat="59.8838264" lon="17.6625664">
        <ele>29.9381</ele>
        <time>2013-05-09T17:31:54Z</time>
      </trkpt>
      <trkpt lat="59.8838166" lon="17.6626898">
        <ele>30.8995</ele>
        <time>2013-05-09T17:31:55Z</time>
      </trkpt>
      <trkpt lat="59.8838051" lon="17.6628172">
        <ele>31.8607</ele>
        <time>2013-05-09T17:31:56Z</time>
      </trkpt>
      <trkpt lat="59.8837899" lon="17.6629422">
        <ele>32.3416</ele>
        <time>2013-05-09T17:31:57Z</time>
      </trkpt>
      <trkpt lat="59.8837734" lon="17.663071">
        <ele>33.3029</ele>
        <time>2013-05-09T17:31:58Z</time>
      </trkpt>
      <trkpt lat="59.8837546" lon="17.6631934">
        <ele>33.7834</ele>
        <time>2013-05-09T17:31:59Z</time>
      </trkpt>
      <trkpt lat="59.8837299" lon="17.6633121">
        <ele>33.3029</ele>
        <time>2013-05-09T17:32:00Z</time>
      </trkpt>
      <trkpt lat="59.8837047" lon="17.6634342">
        <ele>34.2642</ele>
        <time>2013-05-09T17:32:01Z</time>
      </trkpt>
      <trkpt lat="59.8836756" lon="17.6635501">
        <ele>33.7834</ele>
        <time>2013-05-09T17:32:02Z</time>
      </trkpt>
      <trkpt lat="59.8836465" lon="17.6636638">
        <ele>33.7834</ele>
        <time>2013-05-09T17:32:03Z</time>
      </trkpt>
      <trkpt lat="59.8836159" lon="17.6637702">
        <ele>33.7834</ele>
        <time>2013-05-09T17:32:04Z</time>
      </trkpt>
      <trkpt lat="59.883584" lon="17.663876">
        <ele>33.3029</ele>
        <time>2013-05-09T17:32:05Z</time>
      </trkpt>
      <trkpt lat="59.8835512" lon="17.6639798">
        <ele>33.3029</ele>
        <time>2013-05-09T17:32:06Z</time>
      </trkpt>
      <trkpt lat="59.8835166" lon="17.6640805">
        <ele>32.8223</ele>
        <time>2013-05-09T17:32:07Z</time>
      </trkpt>
      <trkpt lat="59.8834803" lon="17.6641805">
        <ele>32.8223</ele>
        <time>2013-05-09T17:32:08Z</time>
      </trkpt>
      <trkpt lat="59.883442" lon="17.6642787">
        <ele>32.8223</ele>
        <time>2013-05-09T17:32:09Z</time>
      </trkpt>
      <trkpt lat="59.8833998" lon="17.6643723">
        <ele>32.3416</ele>
        <time>2013-05-09T17:32:10Z</time>
      </trkpt>
      <trkpt lat="59.8833512" lon="17.6644563">
        <ele>32.3416</ele>
        <time>2013-05-09T17:32:11Z</time>
      </trkpt>
      <trkpt lat="59.8832949" lon="17.6645216">
        <ele>31.8607</ele>
        <time>2013-05-09T17:32:12Z</time>
      </trkpt>
      <trkpt lat="59.8832327" lon="17.6645732">
        <ele>31.3801</ele>
        <time>2013-05-09T17:32:13Z</time>
      </trkpt>
      <trkpt lat="59.8831669" lon="17.6646089">
        <ele>30.8995</ele>
        <time>2013-05-09T17:32:14Z</time>
      </trkpt>
      <trkpt lat="59.883099" lon="17.6646376">
        <ele>30.8995</ele>
        <time>2013-05-09T17:32:15Z</time>
      </trkpt>
      <trkpt lat="59.8830301" lon="17.6646571">
        <ele>30.4188</ele>
        <time>2013-05-09T17:32:16Z</time>
      </trkpt>
      <trkpt lat="59.8829587" lon="17.6646701">
        <ele>29.9381</ele>
        <time>2013-05-09T17:32:17Z</time>
      </trkpt>
      <trkpt lat="59.882887" lon="17.6646809">
        <ele>29.9381</ele>
        <time>2013-05-09T17:32:18Z</time>
      </trkpt>
      <trkpt lat="59.8828155" lon="17.664693">
        <ele>29.4575</ele>
        <time>2013-05-09T17:32:19Z</time>
      </trkpt>
      <trkpt lat="59.8827437" lon="17.6647056">
        <ele>29.4575</ele>
        <time>2013-05-09T17:32:20Z</time>
      </trkpt>
      <trkpt lat="59.8826722" lon="17.6647172">
        <ele>28.9769</ele>
        <time>2013-05-09T17:32:21Z</time>
      </trkpt>
      <trkpt lat="59.8826015" lon="17.6647299">
        <ele>28.9769</ele>
        <time>2013-05-09T17:32:22Z</time>
      </trkpt>
      <trkpt lat="59.8825313" lon="17.6647459">
        <ele>28.9769</ele>
        <time>2013-05-09T17:32:23Z</time>
      </trkpt>
      <trkpt lat="59.8824613" lon="17.6647648">
        <ele>28.9769</ele>
        <time>2013-05-09T17:32:24Z</time>
      </trkpt>
      <trkpt lat="59.8823928" lon="17.6647877">
        <ele>28.4962</ele>
        <time>2013-05-09T17:32:25Z</time>
      </trkpt>
      <trkpt lat="59.8823249" lon="17.6648131">
        <ele>28.4962</ele>
        <time>2013-05-09T17:32:26Z</time>
      </trkpt>
      <trkpt lat="59.8822563" lon="17.6648437">
        <ele>28.4962</ele>
        <time>2013-05-09T17:32:27Z</time>
      </trkpt>
      <trkpt lat="59.8821866" lon="17.6648832">
        <ele>28.4962</ele>
        <time>2013-05-09T17:32:28Z</time>
      </trkpt>
      <trkpt lat="59.8821198" lon="17.6649386">
        <ele>28.4962</ele>
        <time>2013-05-09T17:32:29Z</time>
      </trkpt>
      <trkpt lat="59.8820578" lon="17.6650112">
        <ele>28.4962</ele>
        <time>2013-05-09T17:32:30Z</time>
      </trkpt>
      <trkpt lat="59.8820053" lon="17.6650996">
        <ele>28.4962</ele>
        <time>2013-05-09T17:32:31Z</time>
      </trkpt>
      <trkpt lat="59.8819592" lon="17.6651999">
        <ele>28.9769</ele>
        <time>2013-05-09T17:32:32Z</time>
      </trkpt>
      <trkpt lat="59.8819215" lon="17.6653155">
        <ele>28.9769</ele>
        <time>2013-05-09T17:32:33Z</time>
      </trkpt>
      <trkpt lat="59.8818885" lon="17.665442">
        <ele>28.9769</ele>
        <time>2013-05-09T17:32:34Z</time>
      </trkpt>
      <trkpt lat="59.8818558" lon="17.6655717">
        <ele>28.9769</ele>
        <time>2013-05-09T17:32:35Z</time>
      </trkpt>
      <trkpt lat="59.8818201" lon="17.665701">
        <ele>29.4575</ele>
        <time>2013-05-09T17:32:36Z</time>
      </trkpt>
      <trkpt lat="59.8817813" lon="17.6658298">
        <ele>29.4575</ele>
        <time>2013-05-09T17:32:37Z</time>
      </trkpt>
      <trkpt lat="59.8817427" lon="17.6659601">
        <ele>29.4575</ele>
        <time>2013-05-09T17:32:38Z</time>
      </trkpt>
      <trkpt lat="59.8817055" lon="17.6660899">
        <ele>29.4575</ele>
        <time>2013-05-09T17:32:39Z</time>
      </trkpt>
      <trkpt lat="59.8816684" lon="17.666217">
        <ele>29.4575</ele>
        <time>2013-05-09T17:32:40Z</time>
      </trkpt>
      <trkpt lat="59.8816313" lon="17.6663429">
        <ele>29.4575</ele>
        <time>2013-05-09T17:32:41Z</time>
      </trkpt>
      <trkpt lat="59.8815932" lon="17.6664691">
        <ele>29.4575</ele>
        <time>2013-05-09T17:32:42Z</time>
      </trkpt>
      <trkpt lat="59.8815543" lon="17.6665962">
        <ele>29.4575</ele>
        <time>2013-05-09T17:32:43Z</time>
      </trkpt>
      <trkpt lat="59.8815155" lon="17.6667248">
        <ele>29.4575</ele>
        <time>2013-05-09T17:32:44Z</time>
      </trkpt>
      <trkpt lat="59.8814772" lon="17.6668557">
        <ele>29.4575</ele>
        <time>2013-05-09T17:32:45Z</time>
      </trkpt>
      <trkpt lat="59.8814384" lon="17.6669881">
        <ele>28.9769</ele>
        <time>2013-05-09T17:32:46Z</time>
      </trkpt>
      <trkpt lat="59.8813993" lon="17.6671214">
        <ele>28.9769</ele>
        <time>2013-05-09T17:32:47Z</time>
      </trkpt>
      <trkpt lat="59.8813591" lon="17.6672541">
        <ele>28.9769</ele>
        <time>2013-05-09T17:32:48Z</time>
      </trkpt>
      <trkpt lat="59.8813195" lon="17.6673863">
        <ele>28.9769</ele>
        <time>2013-05-09T17:32:49Z</time>
      </trkpt>
      <trkpt lat="59.8812807" lon="17.6675208">
        <ele>28.9769</ele>
        <time>2013-05-09T17:32:50Z</time>
      </trkpt>
      <trkpt lat="59.881242" lon="17.6676566">
        <ele>29.4575</ele>
        <time>2013-05-09T17:32:51Z</time>
      </trkpt>
      <trkpt lat="59.8812022" lon="17.6677921">
        <ele>29.4575</ele>
        <time>2013-05-09T17:32:52Z</time>
      </trkpt>
      <trkpt lat="59.8811608" lon="17.6679268">
        <ele>29.4575</ele>
        <time>2013-05-09T17:32:53Z</time>
      </trkpt>
      <trkpt lat="59.8811191" lon="17.6680607">
        <ele>29.9381</ele>
        <time>2013-05-09T17:32:54Z</time>
      </trkpt>
      <trkpt lat="59.8810776" lon="17.6681947">
        <ele>29.9381</ele>
        <time>2013-05-09T17:32:55Z</time>
      </trkpt>
      <trkpt lat="59.8810364" lon="17.6683209">
        <ele>29.9381</ele>
        <time>2013-05-09T17:32:56Z</time>
      </trkpt>
      <trkpt lat="59.8809812" lon="17.6684365">
        <ele>30.8995</ele>
        <time>2013-05-09T17:32:57Z</time>
      </trkpt>
      <trkpt lat="59.8809326" lon="17.6685391">
        <ele>30.8995</ele>
        <time>2013-05-09T17:32:58Z</time>
      </trkpt>
      <trkpt lat="59.8808883" lon="17.6686335">
        <ele>31.3801</ele>
        <time>2013-05-09T17:32:59Z</time>
      </trkpt>
      <trkpt lat="59.8808524" lon="17.6687329">
        <ele>32.3416</ele>
        <time>2013-05-09T17:33:00Z</time>
      </trkpt>
      <trkpt lat="59.8808125" lon="17.6688084">
        <ele>32.8223</ele>
        <time>2013-05-09T17:33:01Z</time>
      </trkpt>
      <trkpt lat="59.880768" lon="17.6688693">
        <ele>32.8223</ele>
        <time>2013-05-09T17:33:02Z</time>
      </trkpt>
      <trkpt lat="59.8807254" lon="17.6689377">
        <ele>33.3029</ele>
        <time>2013-05-09T17:33:03Z</time>
      </trkpt>
      <trkpt lat="59.8806903" lon="17.6690223">
        <ele>34.2642</ele>
        <time>2013-05-09T17:33:04Z</time>
      </trkpt>
      <trkpt lat="59.8806602" lon="17.6691075">
        <ele>34.7449</ele>
        <time>2013-05-09T17:33:05Z</time>
      </trkpt>
      <trkpt lat="59.8806297" lon="17.6691926">
        <ele>35.2255</ele>
        <time>2013-05-09T17:33:06Z</time>
      </trkpt>
      <trkpt lat="59.8805997" lon="17.6692847">
        <ele>34.7449</ele>
        <time>2013-05-09T17:33:07Z</time>
      </trkpt>
      <trkpt lat="59.8805718" lon="17.6693959">
        <ele>35.7061</ele>
        <time>2013-05-09T17:33:08Z</time>
      </trkpt>
      <trkpt lat="59.8805396" lon="17.6694954">
        <ele>36.1868</ele>
        <time>2013-05-09T17:33:09Z</time>
      </trkpt>
      <trkpt lat="59.8805047" lon="17.6695872">
        <ele>36.1868</ele>
        <time>2013-05-09T17:33:10Z</time>
      </trkpt>
      <trkpt lat="59.8804665" lon="17.6696735">
        <ele>36.1868</ele>
        <time>2013-05-09T17:33:11Z</time>
      </trkpt>
      <trkpt lat="59.8804255" lon="17.6697569">
        <ele>36.1868</ele>
        <time>2013-05-09T17:33:12Z</time>
      </trkpt>
      <trkpt lat="59.8803816" lon="17.6698398">
        <ele>36.1868</ele>
        <time>2013-05-09T17:33:13Z</time>
      </trkpt>
      <trkpt lat="59.8803355" lon="17.6699232">
        <ele>36.1868</ele>
        <time>2013-05-09T17:33:14Z</time>
      </trkpt>
      <trkpt lat="59.8802864" lon="17.6700061">
        <ele>36.1868</ele>
        <time>2013-05-09T17:33:15Z</time>
      </trkpt>
      <trkpt lat="59.880237" lon="17.6700864">
        <ele>36.1868</ele>
        <time>2013-05-09T17:33:16Z</time>
      </trkpt>
      <trkpt lat="59.8801873" lon="17.6701622">
        <ele>36.1868</ele>
        <time>2013-05-09T17:33:17Z</time>
      </trkpt>
      <trkpt lat="59.8801322" lon="17.670236">
        <ele>36.1868</ele>
        <time>2013-05-09T17:33:18Z</time>
      </trkpt>
      <trkpt lat="59.8800775" lon="17.6703067">
        <ele>36.1868</ele>
        <time>2013-05-09T17:33:19Z</time>
      </trkpt>
      <trkpt lat="59.880024" lon="17.6703735">
        <ele>36.1868</ele>
        <time>2013-05-09T17:33:20Z</time>
      </trkpt>
      <trkpt lat="59.8799704" lon="17.6704345">
        <ele>36.1868</ele>
        <time>2013-05-09T17:33:21Z</time>
      </trkpt>
      <trkpt lat="59.8799231" lon="17.670493">
        <ele>36.1868</ele>
        <time>2013-05-09T17:33:22Z</time>
      </trkpt>
      <trkpt lat="59.8798796" lon="17.6705522">
        <ele>36.1868</ele>
        <time>2013-05-09T17:33:23Z</time>
      </trkpt>
      <trkpt lat="59.8798381" lon="17.6706158">
        <ele>36.6675</ele>
        <time>2013-05-09T17:33:24Z</time>
      </trkpt>
      <trkpt lat="59.8797988" lon="17.6706883">
        <ele>36.6675</ele>
        <time>2013-05-09T17:33:25Z</time>
      </trkpt>
      <trkpt lat="59.8797593" lon="17.670762">
        <ele>36.6675</ele>
        <time>2013-05-09T17:33:26Z</time>
      </trkpt>
      <trkpt lat="59.8797191" lon="17.6708238">
        <ele>36.6675</ele>
        <time>2013-05-09T17:33:27Z</time>
      </trkpt>
      <trkpt lat="59.8796782" lon="17.6708843">
        <ele>37.6287</ele>
        <time>2013-05-09T17:33:28Z</time>
      </trkpt>
      <trkpt lat="59.8796371" lon="17.670937">
        <ele>38.1094</ele>
        <time>2013-05-09T17:33:29Z</time>
      </trkpt>
      <trkpt lat="59.8795942" lon="17.670992">
        <ele>38.5901</ele>
        <time>2013-05-09T17:33:30Z</time>
      </trkpt>
      <trkpt lat="59.8795495" lon="17.6710419">
        <ele>38.5901</ele>
        <time>2013-05-09T17:33:31Z</time>
      </trkpt>
      <trkpt lat="59.8795056" lon="17.6710949">
        <ele>38.5901</ele>
        <time>2013-05-09T17:33:32Z</time>
      </trkpt>
      <trkpt lat="59.8794625" lon="17.6711364">
        <ele>38.1094</ele>
        <time>2013-05-09T17:33:33Z</time>
      </trkpt>
      <trkpt lat="59.8794186" lon="17.6711819">
        <ele>38.1094</ele>
        <time>2013-05-09T17:33:34Z</time>
      </trkpt>
      <trkpt lat="59.8793719" lon="17.671233">
        <ele>37.6287</ele>
        <time>2013-05-09T17:33:35Z</time>
      </trkpt>
      <trkpt lat="59.8793248" lon="17.6712857">
        <ele>37.1481</ele>
        <time>2013-05-09T17:33:36Z</time>
      </trkpt>
      <trkpt lat="59.8792708" lon="17.671337">
        <ele>36.6675</ele>
        <time>2013-05-09T17:33:37Z</time>
      </trkpt>
      <trkpt lat="59.8792165" lon="17.6713869">
        <ele>36.6675</ele>
        <time>2013-05-09T17:33:38Z</time>
      </trkpt>
      <trkpt lat="59.8791596" lon="17.6714075">
        <ele>36.6675</ele>
        <time>2013-05-09T17:33:39Z</time>
      </trkpt>
      <trkpt lat="59.8791005" lon="17.6713996">
        <ele>36.1868</ele>
        <time>2013-05-09T17:33:40Z</time>
      </trkpt>
      <trkpt lat="59.879046" lon="17.671369">
        <ele>35.7061</ele>
        <time>2013-05-09T17:33:41Z</time>
      </trkpt>
      <trkpt lat="59.8789934" lon="17.6713235">
        <ele>34.2642</ele>
        <time>2013-05-09T17:33:42Z</time>
      </trkpt>
      <trkpt lat="59.8789413" lon="17.6712867">
        <ele>34.2642</ele>
        <time>2013-05-09T17:33:43Z</time>
      </trkpt>
      <trkpt lat="59.8788881" lon="17.6712755">
        <ele>34.2642</ele>
        <time>2013-05-09T17:33:44Z</time>
      </trkpt>
      <trkpt lat="59.8788363" lon="17.6712978">
        <ele>33.3029</ele>
        <time>2013-05-09T17:33:45Z</time>
      </trkpt>
      <trkpt lat="59.8787908" lon="17.6713473">
        <ele>32.3416</ele>
        <time>2013-05-09T17:33:46Z</time>
      </trkpt>
      <trkpt lat="59.8787612" lon="17.6714282">
        <ele>31.8607</ele>
        <time>2013-05-09T17:33:47Z</time>
      </trkpt>
      <trkpt lat="59.8787448" lon="17.671525">
        <ele>31.8607</ele>
        <time>2013-05-09T17:33:48Z</time>
      </trkpt>
      <trkpt lat="59.8787394" lon="17.6716251">
        <ele>31.8607</ele>
        <time>2013-05-09T17:33:49Z</time>
      </trkpt>
      <trkpt lat="59.8787431" lon="17.6717246">
        <ele>31.3801</ele>
        <time>2013-05-09T17:33:50Z</time>
      </trkpt>
      <trkpt lat="59.8787493" lon="17.6718183">
        <ele>31.3801</ele>
        <time>2013-05-09T17:33:51Z</time>
      </trkpt>
      <trkpt lat="59.8787541" lon="17.6719057">
        <ele>30.8995</ele>
        <time>2013-05-09T17:33:52Z</time>
      </trkpt>
      <trkpt lat="59.8787534" lon="17.671983">
        <ele>30.8995</ele>
        <time>2013-05-09T17:33:53Z</time>
      </trkpt>
      <trkpt lat="59.8787448" lon="17.6720431">
        <ele>31.3801</ele>
        <time>2013-05-09T17:33:54Z</time>
      </trkpt>
      <trkpt lat="59.8787277" lon="17.672073">
        <ele>31.3801</ele>
        <time>2013-05-09T17:33:55Z</time>
      </trkpt>
      <trkpt lat="59.8786914" lon="17.6720534">
        <ele>30.8995</ele>
        <time>2013-05-09T17:33:56Z</time>
      </trkpt>
      <trkpt lat="59.8786576" lon="17.6720353">
        <ele>31.3801</ele>
        <time>2013-05-09T17:33:57Z</time>
      </trkpt>
      <trkpt lat="59.8786217" lon="17.6720193">
        <ele>30.8995</ele>
        <time>2013-05-09T17:33:58Z</time>
      </trkpt>
      <trkpt lat="59.8785836" lon="17.6720016">
        <ele>30.8995</ele>
        <time>2013-05-09T17:33:59Z</time>
      </trkpt>
      <trkpt lat="59.8785431" lon="17.6719773">
        <ele>30.8995</ele>
        <time>2013-05-09T17:34:00Z</time>
      </trkpt>
      <trkpt lat="59.8784982" lon="17.6719549">
        <ele>31.3801</ele>
        <time>2013-05-09T17:34:01Z</time>
      </trkpt>
      <trkpt lat="59.8784481" lon="17.6719442">
        <ele>31.3801</ele>
        <time>2013-05-09T17:34:02Z</time>
      </trkpt>
      <trkpt lat="59.878394" lon="17.6719384">
        <ele>31.3801</ele>
        <time>2013-05-09T17:34:03Z</time>
      </trkpt>
      <trkpt lat="59.878337" lon="17.6719359">
        <ele>30.8995</ele>
        <time>2013-05-09T17:34:04Z</time>
      </trkpt>
      <trkpt lat="59.8782779" lon="17.6719413">
        <ele>30.8995</ele>
        <time>2013-05-09T17:34:05Z</time>
      </trkpt>
      <trkpt lat="59.8782173" lon="17.6719546">
        <ele>30.8995</ele>
        <time>2013-05-09T17:34:06Z</time>
      </trkpt>
      <trkpt lat="59.8781571" lon="17.6719751">
        <ele>30.8995</ele>
        <time>2013-05-09T17:34:07Z</time>
      </trkpt>
      <trkpt lat="59.8780966" lon="17.6720059">
        <ele>30.4188</ele>
        <time>2013-05-09T17:34:08Z</time>
      </trkpt>
      <trkpt lat="59.8780339" lon="17.6720451">
        <ele>30.4188</ele>
        <time>2013-05-09T17:34:09Z</time>
      </trkpt>
      <trkpt lat="59.8779693" lon="17.6720893">
        <ele>30.4188</ele>
        <time>2013-05-09T17:34:10Z</time>
      </trkpt>
      <trkpt lat="59.8779034" lon="17.6721414">
        <ele>29.9381</ele>
        <time>2013-05-09T17:34:11Z</time>
      </trkpt>
      <trkpt lat="59.8778379" lon="17.6722005">
        <ele>29.9381</ele>
        <time>2013-05-09T17:34:12Z</time>
      </trkpt>
      <trkpt lat="59.8777716" lon="17.6722616">
        <ele>29.9381</ele>
        <time>2013-05-09T17:34:13Z</time>
      </trkpt>
      <trkpt lat="59.8777027" lon="17.672328">
        <ele>29.9381</ele>
        <time>2013-05-09T17:34:14Z</time>
      </trkpt>
      <trkpt lat="59.8776325" lon="17.6723932">
        <ele>29.9381</ele>
        <time>2013-05-09T17:34:15Z</time>
      </trkpt>
      <trkpt lat="59.8775615" lon="17.672449">
        <ele>29.9381</ele>
        <time>2013-05-09T17:34:16Z</time>
      </trkpt>
      <trkpt lat="59.8774915" lon="17.6724949">
        <ele>29.9381</ele>
        <time>2013-05-09T17:34:17Z</time>
      </trkpt>
      <trkpt lat="59.8774209" lon="17.6725325">
        <ele>29.9381</ele>
        <time>2013-05-09T17:34:18Z</time>
      </trkpt>
      <trkpt lat="59.8773521" lon="17.6725588">
        <ele>29.9381</ele>
        <time>2013-05-09T17:34:19Z</time>
      </trkpt>
      <trkpt lat="59.8772798" lon="17.67256">
        <ele>29.9381</ele>
        <time>2013-05-09T17:34:20Z</time>
      </trkpt>
      <trkpt lat="59.8772134" lon="17.6725394">
        <ele>29.9381</ele>
        <time>2013-05-09T17:34:21Z</time>
      </trkpt>
      <trkpt lat="59.8771609" lon="17.6725165">
        <ele>30.8995</ele>
        <time>2013-05-09T17:34:22Z</time>
      </trkpt>
      <trkpt lat="59.8771124" lon="17.6725062">
        <ele>31.8607</ele>
        <time>2013-05-09T17:34:23Z</time>
      </trkpt>
      <trkpt lat="59.877064" lon="17.672519">
        <ele>33.3029</ele>
        <time>2013-05-09T17:34:24Z</time>
      </trkpt>
      <trkpt lat="59.8770129" lon="17.672545">
        <ele>33.7834</ele>
        <time>2013-05-09T17:34:25Z</time>
      </trkpt>
      <trkpt lat="59.8769628" lon="17.6725766">
        <ele>35.2255</ele>
        <time>2013-05-09T17:34:26Z</time>
      </trkpt>
      <trkpt lat="59.876911" lon="17.6726091">
        <ele>36.1868</ele>
        <time>2013-05-09T17:34:27Z</time>
      </trkpt>
      <trkpt lat="59.8768576" lon="17.6726347">
        <ele>37.6287</ele>
        <time>2013-05-09T17:34:28Z</time>
      </trkpt>
      <trkpt lat="59.8768016" lon="17.672673">
        <ele>38.5901</ele>
        <time>2013-05-09T17:34:29Z</time>
      </trkpt>
      <trkpt lat="59.876746" lon="17.6727308">
        <ele>38.5901</ele>
        <time>2013-05-09T17:34:30Z</time>
      </trkpt>
      <trkpt lat="59.8766862" lon="17.6727761">
        <ele>39.0707</ele>
        <time>2013-05-09T17:34:31Z</time>
      </trkpt>
      <trkpt lat="59.8766317" lon="17.6728304">
        <ele>40.0321</ele>
        <time>2013-05-09T17:34:32Z</time>
      </trkpt>
      <trkpt lat="59.8765762" lon="17.672873">
        <ele>40.5128</ele>
        <time>2013-05-09T17:34:33Z</time>
      </trkpt>
      <trkpt lat="59.8765208" lon="17.6729114">
        <ele>40.5128</ele>
        <time>2013-05-09T17:34:34Z</time>
      </trkpt>
      <trkpt lat="59.876467" lon="17.672951">
        <ele>40.9934</ele>
        <time>2013-05-09T17:34:35Z</time>
      </trkpt>
      <trkpt lat="59.876411" lon="17.6729879">
        <ele>40.5128</ele>
        <time>2013-05-09T17:34:36Z</time>
      </trkpt>
      <trkpt lat="59.8763478" lon="17.6730185">
        <ele>40.0321</ele>
        <time>2013-05-09T17:34:37Z</time>
      </trkpt>
      <trkpt lat="59.8762906" lon="17.6730677">
        <ele>39.5513</ele>
        <time>2013-05-09T17:34:38Z</time>
      </trkpt>
      <trkpt lat="59.8762324" lon="17.6731335">
        <ele>39.5513</ele>
        <time>2013-05-09T17:34:39Z</time>
      </trkpt>
      <trkpt lat="59.8761847" lon="17.6732144">
        <ele>39.5513</ele>
        <time>2013-05-09T17:34:40Z</time>
      </trkpt>
      <trkpt lat="59.8761332" lon="17.6732961">
        <ele>40.5128</ele>
        <time>2013-05-09T17:34:41Z</time>
      </trkpt>
      <trkpt lat="59.8760863" lon="17.6733881">
        <ele>40.9934</ele>
        <time>2013-05-09T17:34:42Z</time>
      </trkpt>
      <trkpt lat="59.8760452" lon="17.6734954">
        <ele>40.5128</ele>
        <time>2013-05-09T17:34:43Z</time>
      </trkpt>
      <trkpt lat="59.8760073" lon="17.6736028">
        <ele>40.0321</ele>
        <time>2013-05-09T17:34:44Z</time>
      </trkpt>
      <trkpt lat="59.8759687" lon="17.6736887">
        <ele>40.0321</ele>
        <time>2013-05-09T17:34:45Z</time>
      </trkpt>
      <trkpt lat="59.8759448" lon="17.6737692">
        <ele>39.5513</ele>
        <time>2013-05-09T17:34:46Z</time>
      </trkpt>
      <trkpt lat="59.8759194" lon="17.6738411">
        <ele>39.0707</ele>
        <time>2013-05-09T17:34:47Z</time>
      </trkpt>
      <trkpt lat="59.8759032" lon="17.6739105">
        <ele>38.5901</ele>
        <time>2013-05-09T17:34:48Z</time>
      </trkpt>
      <trkpt lat="59.8759063" lon="17.6740021">
        <ele>38.1094</ele>
        <time>2013-05-09T17:34:49Z</time>
      </trkpt>
      <trkpt lat="59.8759003" lon="17.674057">
        <ele>38.1094</ele>
        <time>2013-05-09T17:34:50Z</time>
      </trkpt>
      <trkpt lat="59.8758811" lon="17.6740929">
        <ele>38.1094</ele>
        <time>2013-05-09T17:34:51Z</time>
      </trkpt>
      <trkpt lat="59.875852" lon="17.6741445">
        <ele>37.6287</ele>
        <time>2013-05-09T17:34:52Z</time>
      </trkpt>
      <trkpt lat="59.8758267" lon="17.6741793">
        <ele>36.6675</ele>
        <time>2013-05-09T17:34:53Z</time>
      </trkpt>
      <trkpt lat="59.8758018" lon="17.6742449">
        <ele>35.7061</ele>
        <time>2013-05-09T17:34:54Z</time>
      </trkpt>
      <trkpt lat="59.8757735" lon="17.6743201">
        <ele>35.2255</ele>
        <time>2013-05-09T17:34:55Z</time>
      </trkpt>
      <trkpt lat="59.8757475" lon="17.674399">
        <ele>34.7449</ele>
        <time>2013-05-09T17:34:56Z</time>
      </trkpt>
      <trkpt lat="59.8757232" lon="17.6744801">
        <ele>33.7834</ele>
        <time>2013-05-09T17:34:57Z</time>
      </trkpt>
      <trkpt lat="59.8756954" lon="17.6745601">
        <ele>33.3029</ele>
        <time>2013-05-09T17:34:58Z</time>
      </trkpt>
      <trkpt lat="59.875662" lon="17.6746404">
        <ele>32.3416</ele>
        <time>2013-05-09T17:34:59Z</time>
      </trkpt>
      <trkpt lat="59.8756221" lon="17.6747145">
        <ele>31.3801</ele>
        <time>2013-05-09T17:35:00Z</time>
      </trkpt>
      <trkpt lat="59.8755719" lon="17.6747823">
        <ele>30.8995</ele>
        <time>2013-05-09T17:35:01Z</time>
      </trkpt>
      <trkpt lat="59.8755121" lon="17.6748455">
        <ele>29.9381</ele>
        <time>2013-05-09T17:35:02Z</time>
      </trkpt>
      <trkpt lat="59.8754413" lon="17.6749108">
        <ele>29.4575</ele>
        <time>2013-05-09T17:35:03Z</time>
      </trkpt>
      <trkpt lat="59.875367" lon="17.6749723">
        <ele>28.9769</ele>
        <time>2013-05-09T17:35:04Z</time>
      </trkpt>
      <trkpt lat="59.8752903" lon="17.6750333">
        <ele>28.9769</ele>
        <time>2013-05-09T17:35:05Z</time>
      </trkpt>
      <trkpt lat="59.8752206" lon="17.6750889">
        <ele>28.4962</ele>
        <time>2013-05-09T17:35:06Z</time>
      </trkpt>
      <trkpt lat="59.8750953" lon="17.675205">
        <ele>28.9769</ele>
        <time>2013-05-09T17:35:07Z</time>
      </trkpt>
      <trkpt lat="59.8750057" lon="17.6752491">
        <ele>28.0155</ele>
        <time>2013-05-09T17:35:08Z</time>
      </trkpt>
      <trkpt lat="59.8749241" lon="17.6752949">
        <ele>28.0155</ele>
        <time>2013-05-09T17:35:09Z</time>
      </trkpt>
      <trkpt lat="59.87485" lon="17.6753537">
        <ele>28.4962</ele>
        <time>2013-05-09T17:35:10Z</time>
      </trkpt>
      <trkpt lat="59.8747834" lon="17.6754226">
        <ele>28.9769</ele>
        <time>2013-05-09T17:35:11Z</time>
      </trkpt>
      <trkpt lat="59.8747232" lon="17.6755049">
        <ele>28.9769</ele>
        <time>2013-05-09T17:35:12Z</time>
      </trkpt>
      <trkpt lat="59.8746674" lon="17.6755933">
        <ele>29.4575</ele>
        <time>2013-05-09T17:35:13Z</time>
      </trkpt>
      <trkpt lat="59.8746197" lon="17.6756852">
        <ele>29.4575</ele>
        <time>2013-05-09T17:35:14Z</time>
      </trkpt>
      <trkpt lat="59.8745791" lon="17.6757799">
        <ele>29.4575</ele>
        <time>2013-05-09T17:35:15Z</time>
      </trkpt>
      <trkpt lat="59.8745468" lon="17.675877">
        <ele>29.4575</ele>
        <time>2013-05-09T17:35:16Z</time>
      </trkpt>
      <trkpt lat="59.8745192" lon="17.6759771">
        <ele>29.4575</ele>
        <time>2013-05-09T17:35:17Z</time>
      </trkpt>
      <trkpt lat="59.8744945" lon="17.6760794">
        <ele>29.4575</ele>
        <time>2013-05-09T17:35:18Z</time>
      </trkpt>
      <trkpt lat="59.8744628" lon="17.6761772">
        <ele>29.4575</ele>
        <time>2013-05-09T17:35:19Z</time>
      </trkpt>
      <trkpt lat="59.8744218" lon="17.6762648">
        <ele>29.4575</ele>
        <time>2013-05-09T17:35:20Z</time>
      </trkpt>
      <trkpt lat="59.8743776" lon="17.67634">
        <ele>29.4575</ele>
        <time>2013-05-09T17:35:21Z</time>
      </trkpt>
      <trkpt lat="59.8743311" lon="17.6763949">
        <ele>29.9381</ele>
        <time>2013-05-09T17:35:22Z</time>
      </trkpt>
      <trkpt lat="59.8742792" lon="17.6764286">
        <ele>30.4188</ele>
        <time>2013-05-09T17:35:23Z</time>
      </trkpt>
      <trkpt lat="59.8742227" lon="17.6764556">
        <ele>30.8995</ele>
        <time>2013-05-09T17:35:24Z</time>
      </trkpt>
      <trkpt lat="59.8741648" lon="17.6764881">
        <ele>30.8995</ele>
        <time>2013-05-09T17:35:25Z</time>
      </trkpt>
      <trkpt lat="59.8741051" lon="17.6765269">
        <ele>30.4188</ele>
        <time>2013-05-09T17:35:26Z</time>
      </trkpt>
      <trkpt lat="59.8740463" lon="17.6765663">
        <ele>30.4188</ele>
        <time>2013-05-09T17:35:27Z</time>
      </trkpt>
      <trkpt lat="59.8739883" lon="17.6766067">
        <ele>30.4188</ele>
        <time>2013-05-09T17:35:28Z</time>
      </trkpt>
      <trkpt lat="59.8739288" lon="17.676643">
        <ele>29.9381</ele>
        <time>2013-05-09T17:35:29Z</time>
      </trkpt>
      <trkpt lat="59.8738669" lon="17.6766756">
        <ele>29.4575</ele>
        <time>2013-05-09T17:35:30Z</time>
      </trkpt>
      <trkpt lat="59.8738006" lon="17.6767006">
        <ele>28.9769</ele>
        <time>2013-05-09T17:35:31Z</time>
      </trkpt>
      <trkpt lat="59.8737299" lon="17.6767211">
        <ele>28.9769</ele>
        <time>2013-05-09T17:35:32Z</time>
      </trkpt>
      <trkpt lat="59.8736581" lon="17.6767462">
        <ele>28.4962</ele>
        <time>2013-05-09T17:35:33Z</time>
      </trkpt>
      <trkpt lat="59.8735828" lon="17.6767735">
        <ele>28.4962</ele>
        <time>2013-05-09T17:35:34Z</time>
      </trkpt>
      <trkpt lat="59.8735061" lon="17.6768041">
        <ele>28.4962</ele>
        <time>2013-05-09T17:35:35Z</time>
      </trkpt>
      <trkpt lat="59.8734278" lon="17.6768389">
        <ele>28.4962</ele>
        <time>2013-05-09T17:35:36Z</time>
      </trkpt>
      <trkpt lat="59.8733474" lon="17.6768756">
        <ele>28.4962</ele>
        <time>2013-05-09T17:35:37Z</time>
      </trkpt>
      <trkpt lat="59.873266" lon="17.6769116">
        <ele>28.4962</ele>
        <time>2013-05-09T17:35:38Z</time>
      </trkpt>
      <trkpt lat="59.8731834" lon="17.6769481">
        <ele>28.4962</ele>
        <time>2013-05-09T17:35:39Z</time>
      </trkpt>
      <trkpt lat="59.8731014" lon="17.6769849">
        <ele>28.9769</ele>
        <time>2013-05-09T17:35:40Z</time>
      </trkpt>
      <trkpt lat="59.8730179" lon="17.6770184">
        <ele>28.4962</ele>
        <time>2013-05-09T17:35:41Z</time>
      </trkpt>
      <trkpt lat="59.8729344" lon="17.6770522">
        <ele>28.0155</ele>
        <time>2013-05-09T17:35:42Z</time>
      </trkpt>
      <trkpt lat="59.8728511" lon="17.6770874">
        <ele>28.0155</ele>
        <time>2013-05-09T17:35:43Z</time>
      </trkpt>
      <trkpt lat="59.8727678" lon="17.6771236">
        <ele>27.5349</ele>
        <time>2013-05-09T17:35:44Z</time>
      </trkpt>
      <trkpt lat="59.8726837" lon="17.6771596">
        <ele>27.0543</ele>
        <time>2013-05-09T17:35:45Z</time>
      </trkpt>
      <trkpt lat="59.872599" lon="17.6771981">
        <ele>27.0543</ele>
        <time>2013-05-09T17:35:46Z</time>
      </trkpt>
      <trkpt lat="59.8725123" lon="17.6772382">
        <ele>27.0543</ele>
        <time>2013-05-09T17:35:47Z</time>
      </trkpt>
      <trkpt lat="59.8724273" lon="17.6772774">
        <ele>27.0543</ele>
        <time>2013-05-09T17:35:48Z</time>
      </trkpt>
      <trkpt lat="59.8723462" lon="17.6773131">
        <ele>27.0543</ele>
        <time>2013-05-09T17:35:49Z</time>
      </trkpt>
      <trkpt lat="59.8722653" lon="17.6773507">
        <ele>27.5349</ele>
        <time>2013-05-09T17:35:50Z</time>
      </trkpt>
      <trkpt lat="59.8721846" lon="17.677389">
        <ele>27.5349</ele>
        <time>2013-05-09T17:35:51Z</time>
      </trkpt>
      <trkpt lat="59.8721042" lon="17.677427">
        <ele>27.5349</ele>
        <time>2013-05-09T17:35:52Z</time>
      </trkpt>
      <trkpt lat="59.8720231" lon="17.6774635">
        <ele>27.5349</ele>
        <time>2013-05-09T17:35:53Z</time>
      </trkpt>
      <trkpt lat="59.8719436" lon="17.6775032">
        <ele>27.0543</ele>
        <time>2013-05-09T17:35:54Z</time>
      </trkpt>
      <trkpt lat="59.8718645" lon="17.6775417">
        <ele>27.0543</ele>
        <time>2013-05-09T17:35:55Z</time>
      </trkpt>
      <trkpt lat="59.8717873" lon="17.6775734">
        <ele>27.0543</ele>
        <time>2013-05-09T17:35:56Z</time>
      </trkpt>
      <trkpt lat="59.8717132" lon="17.6775903">
        <ele>26.5736</ele>
        <time>2013-05-09T17:35:57Z</time>
      </trkpt>
      <trkpt lat="59.8716449" lon="17.6775833">
        <ele>26.5736</ele>
        <time>2013-05-09T17:35:58Z</time>
      </trkpt>
      <trkpt lat="59.8715836" lon="17.6775519">
        <ele>26.5736</ele>
        <time>2013-05-09T17:35:59Z</time>
      </trkpt>
      <trkpt lat="59.8715277" lon="17.6775113">
        <ele>26.0929</ele>
        <time>2013-05-09T17:36:00Z</time>
      </trkpt>
      <trkpt lat="59.8714763" lon="17.6774842">
        <ele>26.0929</ele>
        <time>2013-05-09T17:36:01Z</time>
      </trkpt>
      <trkpt lat="59.8714277" lon="17.6774806">
        <ele>26.0929</ele>
        <time>2013-05-09T17:36:02Z</time>
      </trkpt>
      <trkpt lat="59.8713801" lon="17.6774885">
        <ele>26.0929</ele>
        <time>2013-05-09T17:36:03Z</time>
      </trkpt>
      <trkpt lat="59.8713325" lon="17.6774962">
        <ele>26.0929</ele>
        <time>2013-05-09T17:36:04Z</time>
      </trkpt>
      <trkpt lat="59.8712867" lon="17.6774942">
        <ele>26.0929</ele>
        <time>2013-05-09T17:36:05Z</time>
      </trkpt>
      <trkpt lat="59.8712474" lon="17.6774941">
        <ele>26.0929</ele>
        <time>2013-05-09T17:36:06Z</time>
      </trkpt>
      <trkpt lat="59.8712149" lon="17.6775137">
        <ele>26.0929</ele>
        <time>2013-05-09T17:36:07Z</time>
      </trkpt>
      <trkpt lat="59.871192" lon="17.6775599">
        <ele>26.0929</ele>
        <time>2013-05-09T17:36:08Z</time>
      </trkpt>
      <trkpt lat="59.8711678" lon="17.6776127">
        <ele>25.6123</ele>
        <time>2013-05-09T17:36:09Z</time>
      </trkpt>
      <trkpt lat="59.8711344" lon="17.67765">
        <ele>25.6123</ele>
        <time>2013-05-09T17:36:10Z</time>
      </trkpt>
      <trkpt lat="59.8710909" lon="17.6776655">
        <ele>25.6123</ele>
        <time>2013-05-09T17:36:11Z</time>
      </trkpt>
      <trkpt lat="59.8710401" lon="17.6776706">
        <ele>25.6123</ele>
        <time>2013-05-09T17:36:12Z</time>
      </trkpt>
      <trkpt lat="59.8709849" lon="17.6776763">
        <ele>25.1317</ele>
        <time>2013-05-09T17:36:13Z</time>
      </trkpt>
      <trkpt lat="59.870927" lon="17.6776888">
        <ele>25.1317</ele>
        <time>2013-05-09T17:36:14Z</time>
      </trkpt>
      <trkpt lat="59.8708668" lon="17.6777132">
        <ele>25.1317</ele>
        <time>2013-05-09T17:36:15Z</time>
      </trkpt>
      <trkpt lat="59.8708041" lon="17.6777436">
        <ele>24.651</ele>
        <time>2013-05-09T17:36:16Z</time>
      </trkpt>
      <trkpt lat="59.8707397" lon="17.6777749">
        <ele>24.651</ele>
        <time>2013-05-09T17:36:17Z</time>
      </trkpt>
      <trkpt lat="59.8706726" lon="17.6778029">
        <ele>24.1703</ele>
        <time>2013-05-09T17:36:18Z</time>
      </trkpt>
      <trkpt lat="59.8706036" lon="17.6778254">
        <ele>24.1703</ele>
        <time>2013-05-09T17:36:19Z</time>
      </trkpt>
      <trkpt lat="59.8705317" lon="17.6778448">
        <ele>23.6896</ele>
        <time>2013-05-09T17:36:20Z</time>
      </trkpt>
      <trkpt lat="59.8704585" lon="17.6778694">
        <ele>23.209</ele>
        <time>2013-05-09T17:36:21Z</time>
      </trkpt>
      <trkpt lat="59.8703848" lon="17.6779007">
        <ele>22.7283</ele>
        <time>2013-05-09T17:36:22Z</time>
      </trkpt>
      <trkpt lat="59.8703104" lon="17.6779353">
        <ele>22.7283</ele>
        <time>2013-05-09T17:36:23Z</time>
      </trkpt>
      <trkpt lat="59.8702348" lon="17.6779686">
        <ele>22.2476</ele>
        <time>2013-05-09T17:36:24Z</time>
      </trkpt>
      <trkpt lat="59.8701586" lon="17.6780033">
        <ele>22.2476</ele>
        <time>2013-05-09T17:36:25Z</time>
      </trkpt>
      <trkpt lat="59.8700824" lon="17.6780385">
        <ele>21.767</ele>
        <time>2013-05-09T17:36:26Z</time>
      </trkpt>
      <trkpt lat="59.8700056" lon="17.678078">
        <ele>21.767</ele>
        <time>2013-05-09T17:36:27Z</time>
      </trkpt>
      <trkpt lat="59.8699286" lon="17.6781183">
        <ele>22.2476</ele>
        <time>2013-05-09T17:36:28Z</time>
      </trkpt>
      <trkpt lat="59.8698504" lon="17.6781578">
        <ele>22.2476</ele>
        <time>2013-05-09T17:36:29Z</time>
      </trkpt>
      <trkpt lat="59.8697707" lon="17.678194">
        <ele>22.2476</ele>
        <time>2013-05-09T17:36:30Z</time>
      </trkpt>
      <trkpt lat="59.8696898" lon="17.678227">
        <ele>21.767</ele>
        <time>2013-05-09T17:36:31Z</time>
      </trkpt>
      <trkpt lat="59.8696078" lon="17.6782607">
        <ele>21.767</ele>
        <time>2013-05-09T17:36:32Z</time>
      </trkpt>
      <trkpt lat="59.869525" lon="17.6782958">
        <ele>21.2864</ele>
        <time>2013-05-09T17:36:33Z</time>
      </trkpt>
      <trkpt lat="59.8694427" lon="17.6783356">
        <ele>20.8057</ele>
        <time>2013-05-09T17:36:34Z</time>
      </trkpt>
      <trkpt lat="59.8693602" lon="17.6783756">
        <ele>20.8057</ele>
        <time>2013-05-09T17:36:35Z</time>
      </trkpt>
      <trkpt lat="59.8692759" lon="17.6784149">
        <ele>20.325</ele>
        <time>2013-05-09T17:36:36Z</time>
      </trkpt>
      <trkpt lat="59.8691915" lon="17.6784565">
        <ele>20.325</ele>
        <time>2013-05-09T17:36:37Z</time>
      </trkpt>
      <trkpt lat="59.8691072" lon="17.6785006">
        <ele>20.325</ele>
        <time>2013-05-09T17:36:38Z</time>
      </trkpt>
      <trkpt lat="59.8690226" lon="17.6785468">
        <ele>19.8444</ele>
        <time>2013-05-09T17:36:39Z</time>
      </trkpt>
      <trkpt lat="59.8689375" lon="17.6785897">
        <ele>19.8444</ele>
        <time>2013-05-09T17:36:40Z</time>
      </trkpt>
      <trkpt lat="59.8688512" lon="17.6786285">
        <ele>19.3638</ele>
        <time>2013-05-09T17:36:41Z</time>
      </trkpt>
      <trkpt lat="59.8687641" lon="17.6786683">
        <ele>18.8831</ele>
        <time>2013-05-09T17:36:42Z</time>
      </trkpt>
      <trkpt lat="59.8686766" lon="17.6787077">
        <ele>18.8831</ele>
        <time>2013-05-09T17:36:43Z</time>
      </trkpt>
      <trkpt lat="59.868589" lon="17.6787473">
        <ele>18.4023</ele>
        <time>2013-05-09T17:36:44Z</time>
      </trkpt>
      <trkpt lat="59.8685025" lon="17.67879">
        <ele>18.4023</ele>
        <time>2013-05-09T17:36:45Z</time>
      </trkpt>
      <trkpt lat="59.8684182" lon="17.6788368">
        <ele>18.4023</ele>
        <time>2013-05-09T17:36:46Z</time>
      </trkpt>
      <trkpt lat="59.8683363" lon="17.6788855">
        <ele>18.4023</ele>
        <time>2013-05-09T17:36:47Z</time>
      </trkpt>
      <trkpt lat="59.8682556" lon="17.678933">
        <ele>17.9218</ele>
        <time>2013-05-09T17:36:48Z</time>
      </trkpt>
      <trkpt lat="59.8681751" lon="17.6789787">
        <ele>17.9218</ele>
        <time>2013-05-09T17:36:49Z</time>
      </trkpt>
      <trkpt lat="59.8680929" lon="17.6790215">
        <ele>17.9218</ele>
        <time>2013-05-09T17:36:50Z</time>
      </trkpt>
      <trkpt lat="59.8680087" lon="17.6790568">
        <ele>17.4412</ele>
        <time>2013-05-09T17:36:51Z</time>
      </trkpt>
      <trkpt lat="59.8679228" lon="17.6790814">
        <ele>17.4412</ele>
        <time>2013-05-09T17:36:52Z</time>
      </trkpt>
      <trkpt lat="59.8678374" lon="17.6790994">
        <ele>17.4412</ele>
        <time>2013-05-09T17:36:53Z</time>
      </trkpt>
      <trkpt lat="59.8677514" lon="17.6791156">
        <ele>16.9604</ele>
        <time>2013-05-09T17:36:54Z</time>
      </trkpt>
      <trkpt lat="59.867666" lon="17.6791346">
        <ele>16.9604</ele>
        <time>2013-05-09T17:36:55Z</time>
      </trkpt>
      <trkpt lat="59.8675806" lon="17.679159">
        <ele>16.4797</ele>
        <time>2013-05-09T17:36:56Z</time>
      </trkpt>
      <trkpt lat="59.8674955" lon="17.6791868">
        <ele>16.4797</ele>
        <time>2013-05-09T17:36:57Z</time>
      </trkpt>
      <trkpt lat="59.8674109" lon="17.6792166">
        <ele>16.4797</ele>
        <time>2013-05-09T17:36:58Z</time>
      </trkpt>
      <trkpt lat="59.8673267" lon="17.6792501">
        <ele>15.999</ele>
        <time>2013-05-09T17:36:59Z</time>
      </trkpt>
      <trkpt lat="59.8672431" lon="17.6792874">
        <ele>15.999</ele>
        <time>2013-05-09T17:37:00Z</time>
      </trkpt>
      <trkpt lat="59.8671583" lon="17.6793189">
        <ele>15.5184</ele>
        <time>2013-05-09T17:37:01Z</time>
      </trkpt>
      <trkpt lat="59.8670742" lon="17.6793517">
        <ele>15.5184</ele>
        <time>2013-05-09T17:37:02Z</time>
      </trkpt>
      <trkpt lat="59.8669909" lon="17.6793891">
        <ele>15.5184</ele>
        <time>2013-05-09T17:37:03Z</time>
      </trkpt>
      <trkpt lat="59.8669071" lon="17.6794268">
        <ele>15.5184</ele>
        <time>2013-05-09T17:37:04Z</time>
      </trkpt>
      <trkpt lat="59.8668242" lon="17.6794681">
        <ele>15.5184</ele>
        <time>2013-05-09T17:37:05Z</time>
      </trkpt>
      <trkpt lat="59.8667424" lon="17.6795097">
        <ele>15.5184</ele>
        <time>2013-05-09T17:37:06Z</time>
      </trkpt>
      <trkpt lat="59.8666617" lon="17.6795505">
        <ele>15.5184</ele>
        <time>2013-05-09T17:37:07Z</time>
      </trkpt>
      <trkpt lat="59.8665817" lon="17.679589">
        <ele>15.5184</ele>
        <time>2013-05-09T17:37:08Z</time>
      </trkpt>
      <trkpt lat="59.8665032" lon="17.6796288">
        <ele>15.5184</ele>
        <time>2013-05-09T17:37:09Z</time>
      </trkpt>
      <trkpt lat="59.8664259" lon="17.6796714">
        <ele>15.5184</ele>
        <time>2013-05-09T17:37:10Z</time>
      </trkpt>
      <trkpt lat="59.8663479" lon="17.6797143">
        <ele>15.5184</ele>
        <time>2013-05-09T17:37:11Z</time>
      </trkpt>
      <trkpt lat="59.8662694" lon="17.6797557">
        <ele>15.5184</ele>
        <time>2013-05-09T17:37:12Z</time>
      </trkpt>
      <trkpt lat="59.8661906" lon="17.6797965">
        <ele>15.5184</ele>
        <time>2013-05-09T17:37:13Z</time>
      </trkpt>
      <trkpt lat="59.8661114" lon="17.6798394">
        <ele>15.5184</ele>
        <time>2013-05-09T17:37:14Z</time>
      </trkpt>
      <trkpt lat="59.8660332" lon="17.6798806">
        <ele>15.5184</ele>
        <time>2013-05-09T17:37:15Z</time>
      </trkpt>
      <trkpt lat="59.865955" lon="17.6799163">
        <ele>15.5184</ele>
        <time>2013-05-09T17:37:16Z</time>
      </trkpt>
      <trkpt lat="59.8658792" lon="17.6799566">
        <ele>15.5184</ele>
        <time>2013-05-09T17:37:17Z</time>
      </trkpt>
      <trkpt lat="59.8658068" lon="17.6800018">
        <ele>15.5184</ele>
        <time>2013-05-09T17:37:18Z</time>
      </trkpt>
      <trkpt lat="59.8657369" lon="17.680051">
        <ele>15.5184</ele>
        <time>2013-05-09T17:37:19Z</time>
      </trkpt>
      <trkpt lat="59.8656702" lon="17.6801053">
        <ele>15.5184</ele>
        <time>2013-05-09T17:37:20Z</time>
      </trkpt>
      <trkpt lat="59.8656089" lon="17.6801649">
        <ele>15.5184</ele>
        <time>2013-05-09T17:37:21Z</time>
      </trkpt>
      <trkpt lat="59.865553" lon="17.6802238">
        <ele>15.5184</ele>
        <time>2013-05-09T17:37:22Z</time>
      </trkpt>
      <trkpt lat="59.8654996" lon="17.6802688">
        <ele>15.0377</ele>
        <time>2013-05-09T17:37:23Z</time>
      </trkpt>
      <trkpt lat="59.8654479" lon="17.6802923">
        <ele>15.0377</ele>
        <time>2013-05-09T17:37:24Z</time>
      </trkpt>
      <trkpt lat="59.8654024" lon="17.6802944">
        <ele>15.0377</ele>
        <time>2013-05-09T17:37:25Z</time>
      </trkpt>
      <trkpt lat="59.8653638" lon="17.6802908">
        <ele>14.557</ele>
        <time>2013-05-09T17:37:26Z</time>
      </trkpt>
      <trkpt lat="59.8653313" lon="17.6803057">
        <ele>14.0764</ele>
        <time>2013-05-09T17:37:27Z</time>
      </trkpt>
      <trkpt lat="59.8653042" lon="17.6803421">
        <ele>14.0764</ele>
        <time>2013-05-09T17:37:28Z</time>
      </trkpt>
      <trkpt lat="59.8652758" lon="17.6803743">
        <ele>14.0764</ele>
        <time>2013-05-09T17:37:29Z</time>
      </trkpt>
      <trkpt lat="59.8652432" lon="17.6803918">
        <ele>14.0764</ele>
        <time>2013-05-09T17:37:30Z</time>
      </trkpt>
      <trkpt lat="59.8652071" lon="17.6804158">
        <ele>14.0764</ele>
        <time>2013-05-09T17:37:31Z</time>
      </trkpt>
      <trkpt lat="59.8651705" lon="17.6804566">
        <ele>14.0764</ele>
        <time>2013-05-09T17:37:32Z</time>
      </trkpt>
      <trkpt lat="59.865138" lon="17.6805139">
        <ele>14.0764</ele>
        <time>2013-05-09T17:37:33Z</time>
      </trkpt>
      <trkpt lat="59.8651118" lon="17.680586">
        <ele>14.0764</ele>
        <time>2013-05-09T17:37:34Z</time>
      </trkpt>
      <trkpt lat="59.8650926" lon="17.6806705">
        <ele>14.0764</ele>
        <time>2013-05-09T17:37:35Z</time>
      </trkpt>
      <trkpt lat="59.8650816" lon="17.6807627">
        <ele>14.0764</ele>
        <time>2013-05-09T17:37:36Z</time>
      </trkpt>
      <trkpt lat="59.8650752" lon="17.6808576">
        <ele>14.0764</ele>
        <time>2013-05-09T17:37:37Z</time>
      </trkpt>
      <trkpt lat="59.8650682" lon="17.6809539">
        <ele>14.0764</ele>
        <time>2013-05-09T17:37:38Z</time>
      </trkpt>
      <trkpt lat="59.8650562" lon="17.6810487">
        <ele>14.0764</ele>
        <time>2013-05-09T17:37:39Z</time>
      </trkpt>
      <trkpt lat="59.8650351" lon="17.6811429">
        <ele>14.0764</ele>
        <time>2013-05-09T17:37:40Z</time>
      </trkpt>
      <trkpt lat="59.8650029" lon="17.6812326">
        <ele>14.557</ele>
        <time>2013-05-09T17:37:41Z</time>
      </trkpt>
      <trkpt lat="59.8649613" lon="17.6813149">
        <ele>14.557</ele>
        <time>2013-05-09T17:37:42Z</time>
      </trkpt>
      <trkpt lat="59.8649155" lon="17.6813973">
        <ele>15.0377</ele>
        <time>2013-05-09T17:37:43Z</time>
      </trkpt>
      <trkpt lat="59.8648687" lon="17.6814848">
        <ele>15.0377</ele>
        <time>2013-05-09T17:37:44Z</time>
      </trkpt>
      <trkpt lat="59.8648215" lon="17.6815768">
        <ele>15.5184</ele>
        <time>2013-05-09T17:37:45Z</time>
      </trkpt>
      <trkpt lat="59.8647713" lon="17.6816657">
        <ele>15.5184</ele>
        <time>2013-05-09T17:37:46Z</time>
      </trkpt>
      <trkpt lat="59.8647154" lon="17.6817437">
        <ele>15.5184</ele>
        <time>2013-05-09T17:37:47Z</time>
      </trkpt>
      <trkpt lat="59.8646539" lon="17.6818111">
        <ele>15.999</ele>
        <time>2013-05-09T17:37:48Z</time>
      </trkpt>
      <trkpt lat="59.864589" lon="17.6818737">
        <ele>15.999</ele>
        <time>2013-05-09T17:37:49Z</time>
      </trkpt>
      <trkpt lat="59.8645214" lon="17.6819324">
        <ele>16.4797</ele>
        <time>2013-05-09T17:37:50Z</time>
      </trkpt>
      <trkpt lat="59.864451" lon="17.6819868">
        <ele>16.4797</ele>
        <time>2013-05-09T17:37:51Z</time>
      </trkpt>
      <trkpt lat="59.8643802" lon="17.6820395">
        <ele>16.4797</ele>
        <time>2013-05-09T17:37:52Z</time>
      </trkpt>
      <trkpt lat="59.8643083" lon="17.6820893">
        <ele>16.9604</ele>
        <time>2013-05-09T17:37:53Z</time>
      </trkpt>
      <trkpt lat="59.8642357" lon="17.6821392">
        <ele>16.9604</ele>
        <time>2013-05-09T17:37:54Z</time>
      </trkpt>
      <trkpt lat="59.8641637" lon="17.6821903">
        <ele>16.9604</ele>
        <time>2013-05-09T17:37:55Z</time>
      </trkpt>
      <trkpt lat="59.8640917" lon="17.682241">
        <ele>17.4412</ele>
        <time>2013-05-09T17:37:56Z</time>
      </trkpt>
      <trkpt lat="59.86402" lon="17.6822922">
        <ele>17.4412</ele>
        <time>2013-05-09T17:37:57Z</time>
      </trkpt>
      <trkpt lat="59.8639482" lon="17.6823454">
        <ele>17.4412</ele>
        <time>2013-05-09T17:37:58Z</time>
      </trkpt>
      <trkpt lat="59.8638778" lon="17.6824015">
        <ele>17.4412</ele>
        <time>2013-05-09T17:37:59Z</time>
      </trkpt>
      <trkpt lat="59.8638085" lon="17.6824561">
        <ele>17.9218</ele>
        <time>2013-05-09T17:38:00Z</time>
      </trkpt>
      <trkpt lat="59.8637399" lon="17.6825058">
        <ele>17.9218</ele>
        <time>2013-05-09T17:38:01Z</time>
      </trkpt>
      <trkpt lat="59.8636748" lon="17.6825508">
        <ele>17.9218</ele>
        <time>2013-05-09T17:38:02Z</time>
      </trkpt>
      <trkpt lat="59.8636186" lon="17.6825923">
        <ele>17.9218</ele>
        <time>2013-05-09T17:38:03Z</time>
      </trkpt>
      <trkpt lat="59.8635684" lon="17.6826274">
        <ele>17.9218</ele>
        <time>2013-05-09T17:38:04Z</time>
      </trkpt>
      <trkpt lat="59.8635225" lon="17.6826619">
        <ele>17.9218</ele>
        <time>2013-05-09T17:38:05Z</time>
      </trkpt>
      <trkpt lat="59.8634792" lon="17.6827002">
        <ele>18.4023</ele>
        <time>2013-05-09T17:38:06Z</time>
      </trkpt>
      <trkpt lat="59.8634348" lon="17.6827389">
        <ele>17.9218</ele>
        <time>2013-05-09T17:38:07Z</time>
      </trkpt>
      <trkpt lat="59.8633884" lon="17.6827751">
        <ele>17.9218</ele>
        <time>2013-05-09T17:38:08Z</time>
      </trkpt>
      <trkpt lat="59.8633404" lon="17.6828104">
        <ele>17.9218</ele>
        <time>2013-05-09T17:38:09Z</time>
      </trkpt>
      <trkpt lat="59.8632907" lon="17.6828519">
        <ele>17.9218</ele>
        <time>2013-05-09T17:38:10Z</time>
      </trkpt>
      <trkpt lat="59.863238" lon="17.6828973">
        <ele>17.9218</ele>
        <time>2013-05-09T17:38:11Z</time>
      </trkpt>
      <trkpt lat="59.863182" lon="17.6829416">
        <ele>17.9218</ele>
        <time>2013-05-09T17:38:12Z</time>
      </trkpt>
      <trkpt lat="59.8631246" lon="17.6829868">
        <ele>17.9218</ele>
        <time>2013-05-09T17:38:13Z</time>
      </trkpt>
      <trkpt lat="59.8630666" lon="17.683034">
        <ele>17.9218</ele>
        <time>2013-05-09T17:38:14Z</time>
      </trkpt>
      <trkpt lat="59.8630074" lon="17.6830787">
        <ele>17.9218</ele>
        <time>2013-05-09T17:38:15Z</time>
      </trkpt>
      <trkpt lat="59.8629455" lon="17.6831164">
        <ele>17.9218</ele>
        <time>2013-05-09T17:38:16Z</time>
      </trkpt>
      <trkpt lat="59.8628796" lon="17.6831502">
        <ele>18.4023</ele>
        <time>2013-05-09T17:38:17Z</time>
      </trkpt>
      <trkpt lat="59.8628148" lon="17.6831895">
        <ele>18.4023</ele>
        <time>2013-05-09T17:38:18Z</time>
      </trkpt>
      <trkpt lat="59.8627501" lon="17.6832334">
        <ele>18.8831</ele>
        <time>2013-05-09T17:38:19Z</time>
      </trkpt>
      <trkpt lat="59.8626851" lon="17.6832819">
        <ele>18.8831</ele>
        <time>2013-05-09T17:38:20Z</time>
      </trkpt>
      <trkpt lat="59.8626198" lon="17.6833326">
        <ele>19.3638</ele>
        <time>2013-05-09T17:38:21Z</time>
      </trkpt>
      <trkpt lat="59.862553" lon="17.6833836">
        <ele>18.8831</ele>
        <time>2013-05-09T17:38:22Z</time>
      </trkpt>
      <trkpt lat="59.8624848" lon="17.6834345">
        <ele>19.3638</ele>
        <time>2013-05-09T17:38:23Z</time>
      </trkpt>
      <trkpt lat="59.8624158" lon="17.6834876">
        <ele>19.3638</ele>
        <time>2013-05-09T17:38:24Z</time>
      </trkpt>
      <trkpt lat="59.8623486" lon="17.6835479">
        <ele>19.3638</ele>
        <time>2013-05-09T17:38:25Z</time>
      </trkpt>
      <trkpt lat="59.8622801" lon="17.6836083">
        <ele>18.8831</ele>
        <time>2013-05-09T17:38:26Z</time>
      </trkpt>
      <trkpt lat="59.8622075" lon="17.6836615">
        <ele>18.8831</ele>
        <time>2013-05-09T17:38:27Z</time>
      </trkpt>
      <trkpt lat="59.8621322" lon="17.6837115">
        <ele>18.8831</ele>
        <time>2013-05-09T17:38:28Z</time>
      </trkpt>
      <trkpt lat="59.862059" lon="17.6837642">
        <ele>18.4023</ele>
        <time>2013-05-09T17:38:29Z</time>
      </trkpt>
      <trkpt lat="59.8619886" lon="17.6838193">
        <ele>18.4023</ele>
        <time>2013-05-09T17:38:30Z</time>
      </trkpt>
      <trkpt lat="59.861918" lon="17.6838719">
        <ele>18.4023</ele>
        <time>2013-05-09T17:38:31Z</time>
      </trkpt>
      <trkpt lat="59.8618471" lon="17.683921">
        <ele>18.4023</ele>
        <time>2013-05-09T17:38:32Z</time>
      </trkpt>
      <trkpt lat="59.8617766" lon="17.6839672">
        <ele>17.9218</ele>
        <time>2013-05-09T17:38:33Z</time>
      </trkpt>
      <trkpt lat="59.8617043" lon="17.6840116">
        <ele>18.4023</ele>
        <time>2013-05-09T17:38:34Z</time>
      </trkpt>
      <trkpt lat="59.8616305" lon="17.6840546">
        <ele>18.4023</ele>
        <time>2013-05-09T17:38:35Z</time>
      </trkpt>
      <trkpt lat="59.8615571" lon="17.6840999">
        <ele>18.4023</ele>
        <time>2013-05-09T17:38:36Z</time>
      </trkpt>
      <trkpt lat="59.8614847" lon="17.6841477">
        <ele>18.4023</ele>
        <time>2013-05-09T17:38:37Z</time>
      </trkpt>
      <trkpt lat="59.8614156" lon="17.6842001">
        <ele>18.4023</ele>
        <time>2013-05-09T17:38:38Z</time>
      </trkpt>
      <trkpt lat="59.8613507" lon="17.6842572">
        <ele>17.9218</ele>
        <time>2013-05-09T17:38:39Z</time>
      </trkpt>
      <trkpt lat="59.8612862" lon="17.6843148">
        <ele>17.9218</ele>
        <time>2013-05-09T17:38:40Z</time>
      </trkpt>
      <trkpt lat="59.8612235" lon="17.6843697">
        <ele>17.9218</ele>
        <time>2013-05-09T17:38:41Z</time>
      </trkpt>
      <trkpt lat="59.8611623" lon="17.6843997">
        <ele>18.4023</ele>
        <time>2013-05-09T17:38:42Z</time>
      </trkpt>
      <trkpt lat="59.8611015" lon="17.6844447">
        <ele>17.9218</ele>
        <time>2013-05-09T17:38:43Z</time>
      </trkpt>
      <trkpt lat="59.8610415" lon="17.6844934">
        <ele>18.4023</ele>
        <time>2013-05-09T17:38:44Z</time>
      </trkpt>
      <trkpt lat="59.8609837" lon="17.6845487">
        <ele>18.4023</ele>
        <time>2013-05-09T17:38:45Z</time>
      </trkpt>
      <trkpt lat="59.8609173" lon="17.6846043">
        <ele>18.8831</ele>
        <time>2013-05-09T17:38:46Z</time>
      </trkpt>
      <trkpt lat="59.8608541" lon="17.6846633">
        <ele>19.8444</ele>
        <time>2013-05-09T17:38:47Z</time>
      </trkpt>
      <trkpt lat="59.8607935" lon="17.6847259">
        <ele>19.8444</ele>
        <time>2013-05-09T17:38:48Z</time>
      </trkpt>
      <trkpt lat="59.8607257" lon="17.6847851">
        <ele>19.8444</ele>
        <time>2013-05-09T17:38:49Z</time>
      </trkpt>
      <trkpt lat="59.8606555" lon="17.6848536">
        <ele>19.8444</ele>
        <time>2013-05-09T17:38:50Z</time>
      </trkpt>
      <trkpt lat="59.8605874" lon="17.6849252">
        <ele>20.325</ele>
        <time>2013-05-09T17:38:51Z</time>
      </trkpt>
      <trkpt lat="59.8605219" lon="17.685">
        <ele>20.325</ele>
        <time>2013-05-09T17:38:52Z</time>
      </trkpt>
      <trkpt lat="59.8604568" lon="17.6850752">
        <ele>20.325</ele>
        <time>2013-05-09T17:38:53Z</time>
      </trkpt>
      <trkpt lat="59.8603921" lon="17.6851438">
        <ele>20.325</ele>
        <time>2013-05-09T17:38:54Z</time>
      </trkpt>
      <trkpt lat="59.8603266" lon="17.6852128">
        <ele>20.325</ele>
        <time>2013-05-09T17:38:55Z</time>
      </trkpt>
      <trkpt lat="59.86026" lon="17.6852813">
        <ele>20.325</ele>
        <time>2013-05-09T17:38:56Z</time>
      </trkpt>
      <trkpt lat="59.8602008" lon="17.6853578">
        <ele>20.325</ele>
        <time>2013-05-09T17:38:57Z</time>
      </trkpt>
      <trkpt lat="59.8601414" lon="17.6854309">
        <ele>20.8057</ele>
        <time>2013-05-09T17:38:58Z</time>
      </trkpt>
      <trkpt lat="59.8600813" lon="17.6855031">
        <ele>20.8057</ele>
        <time>2013-05-09T17:38:59Z</time>
      </trkpt>
      <trkpt lat="59.8600213" lon="17.6855715">
        <ele>21.2864</ele>
        <time>2013-05-09T17:39:00Z</time>
      </trkpt>
      <trkpt lat="59.8599636" lon="17.6856402">
        <ele>20.8057</ele>
        <time>2013-05-09T17:39:01Z</time>
      </trkpt>
      <trkpt lat="59.8599076" lon="17.6857102">
        <ele>20.8057</ele>
        <time>2013-05-09T17:39:02Z</time>
      </trkpt>
      <trkpt lat="59.8598508" lon="17.6857797">
        <ele>21.2864</ele>
        <time>2013-05-09T17:39:03Z</time>
      </trkpt>
      <trkpt lat="59.8598005" lon="17.685853">
        <ele>21.2864</ele>
        <time>2013-05-09T17:39:04Z</time>
      </trkpt>
      <trkpt lat="59.8597488" lon="17.6859226">
        <ele>21.2864</ele>
        <time>2013-05-09T17:39:05Z</time>
      </trkpt>
      <trkpt lat="59.8596936" lon="17.6859828">
        <ele>21.2864</ele>
        <time>2013-05-09T17:39:06Z</time>
      </trkpt>
      <trkpt lat="59.8596435" lon="17.6860447">
        <ele>21.2864</ele>
        <time>2013-05-09T17:39:07Z</time>
      </trkpt>
      <trkpt lat="59.8596014" lon="17.6861086">
        <ele>21.2864</ele>
        <time>2013-05-09T17:39:08Z</time>
      </trkpt>
      <trkpt lat="59.8595682" lon="17.6861661">
        <ele>21.2864</ele>
        <time>2013-05-09T17:39:09Z</time>
      </trkpt>
      <trkpt lat="59.8595468" lon="17.6862143">
        <ele>21.2864</ele>
        <time>2013-05-09T17:39:10Z</time>
      </trkpt>
      <trkpt lat="59.8595342" lon="17.6862634">
        <ele>20.8057</ele>
        <time>2013-05-09T17:39:11Z</time>
      </trkpt>
      <trkpt lat="59.8595276" lon="17.6863096">
        <ele>20.325</ele>
        <time>2013-05-09T17:39:12Z</time>
      </trkpt>
      <trkpt lat="59.8595182" lon="17.6863503">
        <ele>20.325</ele>
        <time>2013-05-09T17:39:13Z</time>
      </trkpt>
      <trkpt lat="59.8595084" lon="17.6863753">
        <ele>20.325</ele>
        <time>2013-05-09T17:39:14Z</time>
      </trkpt>
      <trkpt lat="59.8595009" lon="17.6863936">
        <ele>19.8444</ele>
        <time>2013-05-09T17:39:15Z</time>
      </trkpt>
      <trkpt lat="59.8594944" lon="17.686408">
        <ele>19.8444</ele>
        <time>2013-05-09T17:39:16Z</time>
      </trkpt>
      <trkpt lat="59.8594928" lon="17.6864216">
        <ele>19.8444</ele>
        <time>2013-05-09T17:39:17Z</time>
      </trkpt>
      <trkpt lat="59.8594938" lon="17.686427">
        <ele>19.8444</ele>
        <time>2013-05-09T17:39:18Z</time>
      </trkpt>
      <trkpt lat="59.8595047" lon="17.6864578">
        <ele>16.4797</ele>
        <time>2013-05-09T17:39:32Z</time>
      </trkpt>
      <trkpt lat="59.8595063" lon="17.686468">
        <ele>16.4797</ele>
        <time>2013-05-09T17:39:33Z</time>
      </trkpt>
      <trkpt lat="59.8595014" lon="17.6864862">
        <ele>16.4797</ele>
        <time>2013-05-09T17:39:34Z</time>
      </trkpt>
      <trkpt lat="59.85949" lon="17.6865218">
        <ele>16.4797</ele>
        <time>2013-05-09T17:39:35Z</time>
      </trkpt>
      <trkpt lat="59.8594708" lon="17.6865677">
        <ele>16.9604</ele>
        <time>2013-05-09T17:39:36Z</time>
      </trkpt>
      <trkpt lat="59.8594453" lon="17.6866204">
        <ele>18.4023</ele>
        <time>2013-05-09T17:39:37Z</time>
      </trkpt>
      <trkpt lat="59.8594114" lon="17.6866629">
        <ele>19.3638</ele>
        <time>2013-05-09T17:39:38Z</time>
      </trkpt>
      <trkpt lat="59.8593676" lon="17.6866861">
        <ele>19.3638</ele>
        <time>2013-05-09T17:39:39Z</time>
      </trkpt>
      <trkpt lat="59.8593203" lon="17.6867099">
        <ele>20.8057</ele>
        <time>2013-05-09T17:39:40Z</time>
      </trkpt>
      <trkpt lat="59.8592704" lon="17.6867279">
        <ele>21.2864</ele>
        <time>2013-05-09T17:39:41Z</time>
      </trkpt>
      <trkpt lat="59.8592198" lon="17.6867415">
        <ele>21.767</ele>
        <time>2013-05-09T17:39:42Z</time>
      </trkpt>
      <trkpt lat="59.8591678" lon="17.6867499">
        <ele>21.767</ele>
        <time>2013-05-09T17:39:43Z</time>
      </trkpt>
      <trkpt lat="59.8591157" lon="17.6867611">
        <ele>21.767</ele>
        <time>2013-05-09T17:39:44Z</time>
      </trkpt>
      <trkpt lat="59.8590634" lon="17.6867731">
        <ele>21.2864</ele>
        <time>2013-05-09T17:39:45Z</time>
      </trkpt>
      <trkpt lat="59.8590125" lon="17.6867877">
        <ele>20.8057</ele>
        <time>2013-05-09T17:39:46Z</time>
      </trkpt>
      <trkpt lat="59.8589654" lon="17.6867924">
        <ele>20.325</ele>
        <time>2013-05-09T17:39:47Z</time>
      </trkpt>
      <trkpt lat="59.8589256" lon="17.6867628">
        <ele>19.8444</ele>
        <time>2013-05-09T17:39:48Z</time>
      </trkpt>
      <trkpt lat="59.8588985" lon="17.6866986">
        <ele>19.8444</ele>
        <time>2013-05-09T17:39:49Z</time>
      </trkpt>
      <trkpt lat="59.8588836" lon="17.6866157">
        <ele>19.3638</ele>
        <time>2013-05-09T17:39:50Z</time>
      </trkpt>
      <trkpt lat="59.8588738" lon="17.6865225">
        <ele>19.3638</ele>
        <time>2013-05-09T17:39:51Z</time>
      </trkpt>
      <trkpt lat="59.8588659" lon="17.6864153">
        <ele>18.8831</ele>
        <time>2013-05-09T17:39:52Z</time>
      </trkpt>
      <trkpt lat="59.8588588" lon="17.6862996">
        <ele>18.8831</ele>
        <time>2013-05-09T17:39:53Z</time>
      </trkpt>
      <trkpt lat="59.8588525" lon="17.6861833">
        <ele>18.8831</ele>
        <time>2013-05-09T17:39:54Z</time>
      </trkpt>
      <trkpt lat="59.8588482" lon="17.6860646">
        <ele>18.8831</ele>
        <time>2013-05-09T17:39:55Z</time>
      </trkpt>
      <trkpt lat="59.8588456" lon="17.6859454">
        <ele>18.8831</ele>
        <time>2013-05-09T17:39:56Z</time>
      </trkpt>
      <trkpt lat="59.8588437" lon="17.6858246">
        <ele>18.4023</ele>
        <time>2013-05-09T17:39:57Z</time>
      </trkpt>
      <trkpt lat="59.8588395" lon="17.6856971">
        <ele>18.4023</ele>
        <time>2013-05-09T17:39:58Z</time>
      </trkpt>
      <trkpt lat="59.8588309" lon="17.6855672">
        <ele>18.8831</ele>
        <time>2013-05-09T17:39:59Z</time>
      </trkpt>
      <trkpt lat="59.8588202" lon="17.685437">
        <ele>18.8831</ele>
        <time>2013-05-09T17:40:00Z</time>
      </trkpt>
      <trkpt lat="59.8588071" lon="17.6853082">
        <ele>18.8831</ele>
        <time>2013-05-09T17:40:01Z</time>
      </trkpt>
      <trkpt lat="59.8587914" lon="17.6851777">
        <ele>18.8831</ele>
        <time>2013-05-09T17:40:02Z</time>
      </trkpt>
      <trkpt lat="59.8587733" lon="17.6850468">
        <ele>18.8831</ele>
        <time>2013-05-09T17:40:03Z</time>
      </trkpt>
      <trkpt lat="59.8587532" lon="17.6849168">
        <ele>18.4023</ele>
        <time>2013-05-09T17:40:04Z</time>
      </trkpt>
      <trkpt lat="59.8587293" lon="17.6847887">
        <ele>18.4023</ele>
        <time>2013-05-09T17:40:05Z</time>
      </trkpt>
      <trkpt lat="59.8587002" lon="17.6846624">
        <ele>18.8831</ele>
        <time>2013-05-09T17:40:06Z</time>
      </trkpt>
      <trkpt lat="59.8586681" lon="17.6845388">
        <ele>18.8831</ele>
        <time>2013-05-09T17:40:07Z</time>
      </trkpt>
      <trkpt lat="59.8586351" lon="17.6844168">
        <ele>18.8831</ele>
        <time>2013-05-09T17:40:08Z</time>
      </trkpt>
      <trkpt lat="59.8586013" lon="17.6842959">
        <ele>19.3638</ele>
        <time>2013-05-09T17:40:09Z</time>
      </trkpt>
      <trkpt lat="59.858568" lon="17.6841749">
        <ele>19.3638</ele>
        <time>2013-05-09T17:40:10Z</time>
      </trkpt>
      <trkpt lat="59.8585345" lon="17.6840558">
        <ele>19.8444</ele>
        <time>2013-05-09T17:40:11Z</time>
      </trkpt>
      <trkpt lat="59.8585002" lon="17.6839397">
        <ele>19.8444</ele>
        <time>2013-05-09T17:40:12Z</time>
      </trkpt>
      <trkpt lat="59.8584664" lon="17.6838243">
        <ele>20.325</ele>
        <time>2013-05-09T17:40:13Z</time>
      </trkpt>
      <trkpt lat="59.8584344" lon="17.6837091">
        <ele>20.325</ele>
        <time>2013-05-09T17:40:14Z</time>
      </trkpt>
      <trkpt lat="59.8584001" lon="17.6835925">
        <ele>20.325</ele>
        <time>2013-05-09T17:40:15Z</time>
      </trkpt>
      <trkpt lat="59.8583701" lon="17.6834733">
        <ele>20.8057</ele>
        <time>2013-05-09T17:40:16Z</time>
      </trkpt>
      <trkpt lat="59.8583432" lon="17.6833508">
        <ele>20.8057</ele>
        <time>2013-05-09T17:40:17Z</time>
      </trkpt>
      <trkpt lat="59.858319" lon="17.6832269">
        <ele>20.8057</ele>
        <time>2013-05-09T17:40:18Z</time>
      </trkpt>
      <trkpt lat="59.8582976" lon="17.683104">
        <ele>20.8057</ele>
        <time>2013-05-09T17:40:19Z</time>
      </trkpt>
      <trkpt lat="59.8582755" lon="17.6829813">
        <ele>20.8057</ele>
        <time>2013-05-09T17:40:20Z</time>
      </trkpt>
      <trkpt lat="59.8582557" lon="17.6828587">
        <ele>20.8057</ele>
        <time>2013-05-09T17:40:21Z</time>
      </trkpt>
      <trkpt lat="59.8582378" lon="17.6827366">
        <ele>20.8057</ele>
        <time>2013-05-09T17:40:22Z</time>
      </trkpt>
      <trkpt lat="59.8582201" lon="17.6826136">
        <ele>20.8057</ele>
        <time>2013-05-09T17:40:23Z</time>
      </trkpt>
      <trkpt lat="59.858202" lon="17.6824903">
        <ele>20.8057</ele>
        <time>2013-05-09T17:40:24Z</time>
      </trkpt>
      <trkpt lat="59.8581833" lon="17.6823665">
        <ele>20.325</ele>
        <time>2013-05-09T17:40:25Z</time>
      </trkpt>
      <trkpt lat="59.8581644" lon="17.682241">
        <ele>20.8057</ele>
        <time>2013-05-09T17:40:26Z</time>
      </trkpt>
      <trkpt lat="59.8581475" lon="17.6821185">
        <ele>20.8057</ele>
        <time>2013-05-09T17:40:27Z</time>
      </trkpt>
      <trkpt lat="59.8581337" lon="17.6819987">
        <ele>20.8057</ele>
        <time>2013-05-09T17:40:28Z</time>
      </trkpt>
      <trkpt lat="59.8581154" lon="17.6818836">
        <ele>20.325</ele>
        <time>2013-05-09T17:40:29Z</time>
      </trkpt>
      <trkpt lat="59.8580901" lon="17.6818075">
        <ele>20.325</ele>
        <time>2013-05-09T17:40:30Z</time>
      </trkpt>
      <trkpt lat="59.858031" lon="17.6817744">
        <ele>20.325</ele>
        <time>2013-05-09T17:40:31Z</time>
      </trkpt>
      <trkpt lat="59.8579543" lon="17.6817491">
        <ele>19.8444</ele>
        <time>2013-05-09T17:40:32Z</time>
      </trkpt>
      <trkpt lat="59.8578891" lon="17.6817616">
        <ele>19.3638</ele>
        <time>2013-05-09T17:40:33Z</time>
      </trkpt>
      <trkpt lat="59.8578207" lon="17.6817713">
        <ele>19.3638</ele>
        <time>2013-05-09T17:40:34Z</time>
      </trkpt>
      <trkpt lat="59.857756" lon="17.6817871">
        <ele>18.8831</ele>
        <time>2013-05-09T17:40:35Z</time>
      </trkpt>
      <trkpt lat="59.8576885" lon="17.6818022">
        <ele>18.8831</ele>
        <time>2013-05-09T17:40:36Z</time>
      </trkpt>
      <trkpt lat="59.85762" lon="17.6818198">
        <ele>18.8831</ele>
        <time>2013-05-09T17:40:37Z</time>
      </trkpt>
      <trkpt lat="59.8575522" lon="17.6818417">
        <ele>18.4023</ele>
        <time>2013-05-09T17:40:38Z</time>
      </trkpt>
      <trkpt lat="59.857485" lon="17.6818717">
        <ele>18.4023</ele>
        <time>2013-05-09T17:40:39Z</time>
      </trkpt>
      <trkpt lat="59.8574198" lon="17.6819133">
        <ele>18.4023</ele>
        <time>2013-05-09T17:40:40Z</time>
      </trkpt>
      <trkpt lat="59.8573543" lon="17.6819638">
        <ele>18.4023</ele>
        <time>2013-05-09T17:40:41Z</time>
      </trkpt>
      <trkpt lat="59.8572918" lon="17.682025">
        <ele>18.8831</ele>
        <time>2013-05-09T17:40:42Z</time>
      </trkpt>
      <trkpt lat="59.8572316" lon="17.6820946">
        <ele>18.8831</ele>
        <time>2013-05-09T17:40:43Z</time>
      </trkpt>
      <trkpt lat="59.8571732" lon="17.6821722">
        <ele>18.8831</ele>
        <time>2013-05-09T17:40:44Z</time>
      </trkpt>
      <trkpt lat="59.8571175" lon="17.6822541">
        <ele>19.3638</ele>
        <time>2013-05-09T17:40:45Z</time>
      </trkpt>
      <trkpt lat="59.8570622" lon="17.682337">
        <ele>19.3638</ele>
        <time>2013-05-09T17:40:46Z</time>
      </trkpt>
      <trkpt lat="59.8570074" lon="17.6824212">
        <ele>19.3638</ele>
        <time>2013-05-09T17:40:47Z</time>
      </trkpt>
      <trkpt lat="59.8569534" lon="17.6825079">
        <ele>19.8444</ele>
        <time>2013-05-09T17:40:48Z</time>
      </trkpt>
      <trkpt lat="59.8569007" lon="17.6825973">
        <ele>19.8444</ele>
        <time>2013-05-09T17:40:49Z</time>
      </trkpt>
      <trkpt lat="59.856852" lon="17.6826928">
        <ele>20.325</ele>
        <time>2013-05-09T17:40:50Z</time>
      </trkpt>
      <trkpt lat="59.8568074" lon="17.6827941">
        <ele>20.325</ele>
        <time>2013-05-09T17:40:51Z</time>
      </trkpt>
      <trkpt lat="59.8567655" lon="17.6828963">
        <ele>20.8057</ele>
        <time>2013-05-09T17:40:52Z</time>
      </trkpt>
      <trkpt lat="59.8567246" lon="17.6829948">
        <ele>20.8057</ele>
        <time>2013-05-09T17:40:53Z</time>
      </trkpt>
      <trkpt lat="59.8566852" lon="17.6830887">
        <ele>20.8057</ele>
        <time>2013-05-09T17:40:54Z</time>
      </trkpt>
      <trkpt lat="59.8566484" lon="17.6831844">
        <ele>20.8057</ele>
        <time>2013-05-09T17:40:55Z</time>
      </trkpt>
      <trkpt lat="59.8566135" lon="17.6832839">
        <ele>20.8057</ele>
        <time>2013-05-09T17:40:56Z</time>
      </trkpt>
      <trkpt lat="59.856578" lon="17.6833842">
        <ele>21.2864</ele>
        <time>2013-05-09T17:40:57Z</time>
      </trkpt>
      <trkpt lat="59.8565413" lon="17.6834843">
        <ele>21.2864</ele>
        <time>2013-05-09T17:40:58Z</time>
      </trkpt>
      <trkpt lat="59.8565017" lon="17.6835807">
        <ele>21.2864</ele>
        <time>2013-05-09T17:40:59Z</time>
      </trkpt>
      <trkpt lat="59.8564582" lon="17.6836709">
        <ele>21.2864</ele>
        <time>2013-05-09T17:41:00Z</time>
      </trkpt>
      <trkpt lat="59.8564125" lon="17.6837578">
        <ele>21.2864</ele>
        <time>2013-05-09T17:41:01Z</time>
      </trkpt>
      <trkpt lat="59.8563665" lon="17.683847">
        <ele>21.2864</ele>
        <time>2013-05-09T17:41:02Z</time>
      </trkpt>
      <trkpt lat="59.8563208" lon="17.6839405">
        <ele>21.2864</ele>
        <time>2013-05-09T17:41:03Z</time>
      </trkpt>
      <trkpt lat="59.8562744" lon="17.684036">
        <ele>21.2864</ele>
        <time>2013-05-09T17:41:04Z</time>
      </trkpt>
      <trkpt lat="59.8562284" lon="17.6841313">
        <ele>21.2864</ele>
        <time>2013-05-09T17:41:05Z</time>
      </trkpt>
      <trkpt lat="59.8561839" lon="17.6842267">
        <ele>21.2864</ele>
        <time>2013-05-09T17:41:06Z</time>
      </trkpt>
      <trkpt lat="59.8561382" lon="17.6843219">
        <ele>20.8057</ele>
        <time>2013-05-09T17:41:07Z</time>
      </trkpt>
      <trkpt lat="59.856091" lon="17.6844168">
        <ele>20.8057</ele>
        <time>2013-05-09T17:41:08Z</time>
      </trkpt>
      <trkpt lat="59.8560429" lon="17.6845116">
        <ele>20.8057</ele>
        <time>2013-05-09T17:41:09Z</time>
      </trkpt>
      <trkpt lat="59.8559948" lon="17.6846064">
        <ele>20.8057</ele>
        <time>2013-05-09T17:41:10Z</time>
      </trkpt>
      <trkpt lat="59.8559459" lon="17.6847001">
        <ele>20.8057</ele>
        <time>2013-05-09T17:41:11Z</time>
      </trkpt>
      <trkpt lat="59.8558968" lon="17.6847928">
        <ele>20.325</ele>
        <time>2013-05-09T17:41:12Z</time>
      </trkpt>
      <trkpt lat="59.8558464" lon="17.6848857">
        <ele>20.325</ele>
        <time>2013-05-09T17:41:13Z</time>
      </trkpt>
      <trkpt lat="59.8557937" lon="17.6849752">
        <ele>20.325</ele>
        <time>2013-05-09T17:41:14Z</time>
      </trkpt>
      <trkpt lat="59.8557389" lon="17.685057">
        <ele>19.8444</ele>
        <time>2013-05-09T17:41:15Z</time>
      </trkpt>
      <trkpt lat="59.8556849" lon="17.6851293">
        <ele>19.8444</ele>
        <time>2013-05-09T17:41:16Z</time>
      </trkpt>
      <trkpt lat="59.8556247" lon="17.6851809">
        <ele>19.8444</ele>
        <time>2013-05-09T17:41:17Z</time>
      </trkpt>
      <trkpt lat="59.8555605" lon="17.6852042">
        <ele>19.3638</ele>
        <time>2013-05-09T17:41:18Z</time>
      </trkpt>
      <trkpt lat="59.8554953" lon="17.685189">
        <ele>18.8831</ele>
        <time>2013-05-09T17:41:19Z</time>
      </trkpt>
      <trkpt lat="59.8554387" lon="17.6851019">
        <ele>18.8831</ele>
        <time>2013-05-09T17:41:20Z</time>
      </trkpt>
      <trkpt lat="59.8553763" lon="17.6850181">
        <ele>18.8831</ele>
        <time>2013-05-09T17:41:21Z</time>
      </trkpt>
      <trkpt lat="59.8553099" lon="17.6849204">
        <ele>18.8831</ele>
        <time>2013-05-09T17:41:22Z</time>
      </trkpt>
      <trkpt lat="59.8552436" lon="17.684824">
        <ele>18.8831</ele>
        <time>2013-05-09T17:41:23Z</time>
      </trkpt>
      <trkpt lat="59.8552041" lon="17.6847266">
        <ele>19.8444</ele>
        <time>2013-05-09T17:41:24Z</time>
      </trkpt>
      <trkpt lat="59.8551597" lon="17.684611">
        <ele>20.325</ele>
        <time>2013-05-09T17:41:25Z</time>
      </trkpt>
      <trkpt lat="59.8551087" lon="17.6845293">
        <ele>21.2864</ele>
        <time>2013-05-09T17:41:26Z</time>
      </trkpt>
      <trkpt lat="59.8550336" lon="17.6843834">
        <ele>21.2864</ele>
        <time>2013-05-09T17:41:27Z</time>
      </trkpt>
      <trkpt lat="59.8549006" lon="17.6843327">
        <ele>20.325</ele>
        <time>2013-05-09T17:41:28Z</time>
      </trkpt>
      <trkpt lat="59.8548052" lon="17.6843691">
        <ele>19.8444</ele>
        <time>2013-05-09T17:41:29Z</time>
      </trkpt>
      <trkpt lat="59.8547147" lon="17.6843997">
        <ele>19.3638</ele>
        <time>2013-05-09T17:41:30Z</time>
      </trkpt>
      <trkpt lat="59.8546328" lon="17.6844297">
        <ele>18.8831</ele>
        <time>2013-05-09T17:41:31Z</time>
      </trkpt>
      <trkpt lat="59.8545655" lon="17.6844627">
        <ele>19.3638</ele>
        <time>2013-05-09T17:41:32Z</time>
      </trkpt>
      <trkpt lat="59.8544951" lon="17.6844949">
        <ele>19.3638</ele>
        <time>2013-05-09T17:41:33Z</time>
      </trkpt>
      <trkpt lat="59.8544303" lon="17.6845119">
        <ele>19.8444</ele>
        <time>2013-05-09T17:41:34Z</time>
      </trkpt>
      <trkpt lat="59.8543697" lon="17.6844948">
        <ele>20.8057</ele>
        <time>2013-05-09T17:41:35Z</time>
      </trkpt>
      <trkpt lat="59.8543113" lon="17.6844524">
        <ele>21.2864</ele>
        <time>2013-05-09T17:41:36Z</time>
      </trkpt>
      <trkpt lat="59.854255" lon="17.6843943">
        <ele>21.2864</ele>
        <time>2013-05-09T17:41:37Z</time>
      </trkpt>
      <trkpt lat="59.8541982" lon="17.6843332">
        <ele>21.2864</ele>
        <time>2013-05-09T17:41:38Z</time>
      </trkpt>
      <trkpt lat="59.8541459" lon="17.6842666">
        <ele>22.2476</ele>
        <time>2013-05-09T17:41:39Z</time>
      </trkpt>
      <trkpt lat="59.8540898" lon="17.6842018">
        <ele>22.7283</ele>
        <time>2013-05-09T17:41:40Z</time>
      </trkpt>
      <trkpt lat="59.8540325" lon="17.6841396">
        <ele>22.7283</ele>
        <time>2013-05-09T17:41:41Z</time>
      </trkpt>
      <trkpt lat="59.8539775" lon="17.6840851">
        <ele>23.209</ele>
        <time>2013-05-09T17:41:42Z</time>
      </trkpt>
      <trkpt lat="59.8539201" lon="17.6840298">
        <ele>22.7283</ele>
        <time>2013-05-09T17:41:43Z</time>
      </trkpt>
      <trkpt lat="59.853857" lon="17.6839697">
        <ele>22.7283</ele>
        <time>2013-05-09T17:41:44Z</time>
      </trkpt>
      <trkpt lat="59.8537992" lon="17.6839136">
        <ele>22.7283</ele>
        <time>2013-05-09T17:41:45Z</time>
      </trkpt>
      <trkpt lat="59.8537439" lon="17.6838599">
        <ele>22.7283</ele>
        <time>2013-05-09T17:41:46Z</time>
      </trkpt>
      <trkpt lat="59.8536926" lon="17.6838028">
        <ele>22.7283</ele>
        <time>2013-05-09T17:41:47Z</time>
      </trkpt>
      <trkpt lat="59.8536491" lon="17.6837292">
        <ele>22.7283</ele>
        <time>2013-05-09T17:41:48Z</time>
      </trkpt>
      <trkpt lat="59.853618" lon="17.6836355">
        <ele>22.7283</ele>
        <time>2013-05-09T17:41:49Z</time>
      </trkpt>
      <trkpt lat="59.8535994" lon="17.6835313">
        <ele>22.7283</ele>
        <time>2013-05-09T17:41:50Z</time>
      </trkpt>
      <trkpt lat="59.8535884" lon="17.6834259">
        <ele>22.2476</ele>
        <time>2013-05-09T17:41:51Z</time>
      </trkpt>
      <trkpt lat="59.8535801" lon="17.683322">
        <ele>22.2476</ele>
        <time>2013-05-09T17:41:52Z</time>
      </trkpt>
      <trkpt lat="59.8535738" lon="17.6832305">
        <ele>22.2476</ele>
        <time>2013-05-09T17:41:53Z</time>
      </trkpt>
      <trkpt lat="59.853572" lon="17.6831599">
        <ele>21.767</ele>
        <time>2013-05-09T17:41:54Z</time>
      </trkpt>
      <trkpt lat="59.8535719" lon="17.6830993">
        <ele>21.767</ele>
        <time>2013-05-09T17:41:55Z</time>
      </trkpt>
      <trkpt lat="59.8535683" lon="17.6830476">
        <ele>21.767</ele>
        <time>2013-05-09T17:41:56Z</time>
      </trkpt>
      <trkpt lat="59.8535572" lon="17.6830155">
        <ele>21.767</ele>
        <time>2013-05-09T17:41:57Z</time>
      </trkpt>
      <trkpt lat="59.8535466" lon="17.6830063">
        <ele>21.767</ele>
        <time>2013-05-09T17:41:58Z</time>
      </trkpt>
      <trkpt lat="59.8535435" lon="17.6830083">
        <ele>21.767</ele>
        <time>2013-05-09T17:41:59Z</time>
      </trkpt>
      <trkpt lat="59.8535394" lon="17.6830069">
        <ele>21.767</ele>
        <time>2013-05-09T17:42:00Z</time>
      </trkpt>
      <trkpt lat="59.8535234" lon="17.6829991">
        <ele>21.767</ele>
        <time>2013-05-09T17:42:01Z</time>
      </trkpt>
      <trkpt lat="59.8535015" lon="17.6829881">
        <ele>21.767</ele>
        <time>2013-05-09T17:42:02Z</time>
      </trkpt>
      <trkpt lat="59.8534746" lon="17.6829741">
        <ele>22.2476</ele>
        <time>2013-05-09T17:42:03Z</time>
      </trkpt>
      <trkpt lat="59.8534436" lon="17.6829684">
        <ele>22.2476</ele>
        <time>2013-05-09T17:42:04Z</time>
      </trkpt>
      <trkpt lat="59.8534078" lon="17.6829631">
        <ele>22.2476</ele>
        <time>2013-05-09T17:42:05Z</time>
      </trkpt>
      <trkpt lat="59.8533672" lon="17.6829682">
        <ele>21.767</ele>
        <time>2013-05-09T17:42:06Z</time>
      </trkpt>
      <trkpt lat="59.8533307" lon="17.6830093">
        <ele>21.767</ele>
        <time>2013-05-09T17:42:07Z</time>
      </trkpt>
      <trkpt lat="59.8533016" lon="17.6830803">
        <ele>21.767</ele>
        <time>2013-05-09T17:42:08Z</time>
      </trkpt>
      <trkpt lat="59.8532734" lon="17.6831607">
        <ele>21.767</ele>
        <time>2013-05-09T17:42:09Z</time>
      </trkpt>
      <trkpt lat="59.8532394" lon="17.6832341">
        <ele>21.767</ele>
        <time>2013-05-09T17:42:10Z</time>
      </trkpt>
      <trkpt lat="59.8531981" lon="17.683287">
        <ele>21.767</ele>
        <time>2013-05-09T17:42:11Z</time>
      </trkpt>
      <trkpt lat="59.8531539" lon="17.6833175">
        <ele>21.767</ele>
        <time>2013-05-09T17:42:12Z</time>
      </trkpt>
      <trkpt lat="59.8531116" lon="17.6833334">
        <ele>21.767</ele>
        <time>2013-05-09T17:42:13Z</time>
      </trkpt>
      <trkpt lat="59.8530762" lon="17.6833414">
        <ele>22.2476</ele>
        <time>2013-05-09T17:42:14Z</time>
      </trkpt>
      <trkpt lat="59.8530486" lon="17.6833472">
        <ele>22.2476</ele>
        <time>2013-05-09T17:42:15Z</time>
      </trkpt>
      <trkpt lat="59.8530299" lon="17.68335">
        <ele>21.767</ele>
        <time>2013-05-09T17:42:16Z</time>
      </trkpt>
      <trkpt lat="59.8530191" lon="17.6833516">
        <ele>21.767</ele>
        <time>2013-05-09T17:42:17Z</time>
      </trkpt>
      <trkpt lat="59.8530119" lon="17.6833574">
        <ele>21.767</ele>
        <time>2013-05-09T17:42:18Z</time>
      </trkpt>
      <trkpt lat="59.8530072" lon="17.6833704">
        <ele>21.767</ele>
        <time>2013-05-09T17:42:19Z</time>
      </trkpt>
      <trkpt lat="59.8530063" lon="17.6833869">
        <ele>21.767</ele>
        <time>2013-05-09T17:42:20Z</time>
      </trkpt>
      <trkpt lat="59.8530076" lon="17.6833982">
        <ele>22.2476</ele>
        <time>2013-05-09T17:42:21Z</time>
      </trkpt>
      <trkpt lat="59.8530072" lon="17.6834078">
        <ele>22.2476</ele>
        <time>2013-05-09T17:42:22Z</time>
      </trkpt>
      <trkpt lat="59.8530037" lon="17.6834336">
        <ele>22.2476</ele>
        <time>2013-05-09T17:42:23Z</time>
      </trkpt>
      <trkpt lat="59.8529973" lon="17.6834761">
        <ele>22.2476</ele>
        <time>2013-05-09T17:42:24Z</time>
      </trkpt>
      <trkpt lat="59.8529895" lon="17.6835227">
        <ele>22.2476</ele>
        <time>2013-05-09T17:42:25Z</time>
      </trkpt>
      <trkpt lat="59.8529843" lon="17.6835714">
        <ele>22.2476</ele>
        <time>2013-05-09T17:42:26Z</time>
      </trkpt>
      <trkpt lat="59.8529825" lon="17.683625">
        <ele>22.2476</ele>
        <time>2013-05-09T17:42:27Z</time>
      </trkpt>
      <trkpt lat="59.8529809" lon="17.6836815">
        <ele>21.767</ele>
        <time>2013-05-09T17:42:28Z</time>
      </trkpt>
      <trkpt lat="59.8529782" lon="17.683747">
        <ele>21.2864</ele>
        <time>2013-05-09T17:42:29Z</time>
      </trkpt>
      <trkpt lat="59.8529804" lon="17.6838118">
        <ele>20.8057</ele>
        <time>2013-05-09T17:42:30Z</time>
      </trkpt>
      <trkpt lat="59.8529947" lon="17.6838779">
        <ele>20.8057</ele>
        <time>2013-05-09T17:42:31Z</time>
      </trkpt>
      <trkpt lat="59.8530167" lon="17.6839364">
        <ele>20.8057</ele>
        <time>2013-05-09T17:42:32Z</time>
      </trkpt>
      <trkpt lat="59.8530401" lon="17.6839929">
        <ele>20.8057</ele>
        <time>2013-05-09T17:42:33Z</time>
      </trkpt>
      <trkpt lat="59.8530608" lon="17.6840563">
        <ele>21.2864</ele>
        <time>2013-05-09T17:42:34Z</time>
      </trkpt>
      <trkpt lat="59.8530783" lon="17.6841265">
        <ele>21.2864</ele>
        <time>2013-05-09T17:42:35Z</time>
      </trkpt>
      <trkpt lat="59.8530903" lon="17.6842023">
        <ele>21.2864</ele>
        <time>2013-05-09T17:42:36Z</time>
      </trkpt>
      <trkpt lat="59.853096" lon="17.6842826">
        <ele>21.2864</ele>
        <time>2013-05-09T17:42:37Z</time>
      </trkpt>
      <trkpt lat="59.8530949" lon="17.6843632">
        <ele>20.8057</ele>
        <time>2013-05-09T17:42:38Z</time>
      </trkpt>
      <trkpt lat="59.8530875" lon="17.6844415">
        <ele>20.8057</ele>
        <time>2013-05-09T17:42:39Z</time>
      </trkpt>
      <trkpt lat="59.8530757" lon="17.68452">
        <ele>20.8057</ele>
        <time>2013-05-09T17:42:40Z</time>
      </trkpt>
      <trkpt lat="59.8530633" lon="17.6846046">
        <ele>20.8057</ele>
        <time>2013-05-09T17:42:41Z</time>
      </trkpt>
      <trkpt lat="59.8530513" lon="17.6846917">
        <ele>20.8057</ele>
        <time>2013-05-09T17:42:42Z</time>
      </trkpt>
      <trkpt lat="59.8530343" lon="17.6847691">
        <ele>20.8057</ele>
        <time>2013-05-09T17:42:43Z</time>
      </trkpt>
      <trkpt lat="59.8530151" lon="17.6848422">
        <ele>21.2864</ele>
        <time>2013-05-09T17:42:44Z</time>
      </trkpt>
      <trkpt lat="59.8529945" lon="17.6849131">
        <ele>21.2864</ele>
        <time>2013-05-09T17:42:45Z</time>
      </trkpt>
      <trkpt lat="59.8529729" lon="17.6849907">
        <ele>21.2864</ele>
        <time>2013-05-09T17:42:46Z</time>
      </trkpt>
      <trkpt lat="59.8529488" lon="17.6850761">
        <ele>21.2864</ele>
        <time>2013-05-09T17:42:47Z</time>
      </trkpt>
      <trkpt lat="59.8529232" lon="17.6851701">
        <ele>21.767</ele>
        <time>2013-05-09T17:42:48Z</time>
      </trkpt>
      <trkpt lat="59.8528949" lon="17.6852631">
        <ele>21.767</ele>
        <time>2013-05-09T17:42:49Z</time>
      </trkpt>
      <trkpt lat="59.8528654" lon="17.6853565">
        <ele>21.767</ele>
        <time>2013-05-09T17:42:50Z</time>
      </trkpt>
      <trkpt lat="59.8528342" lon="17.6854481">
        <ele>21.767</ele>
        <time>2013-05-09T17:42:51Z</time>
      </trkpt>
      <trkpt lat="59.8528017" lon="17.6855393">
        <ele>21.767</ele>
        <time>2013-05-09T17:42:52Z</time>
      </trkpt>
      <trkpt lat="59.8527697" lon="17.6856311">
        <ele>22.2476</ele>
        <time>2013-05-09T17:42:53Z</time>
      </trkpt>
      <trkpt lat="59.8527344" lon="17.6857149">
        <ele>22.2476</ele>
        <time>2013-05-09T17:42:54Z</time>
      </trkpt>
      <trkpt lat="59.8526912" lon="17.6857719">
        <ele>22.7283</ele>
        <time>2013-05-09T17:42:55Z</time>
      </trkpt>
      <trkpt lat="59.852636" lon="17.6857641">
        <ele>21.2864</ele>
        <time>2013-05-09T17:42:56Z</time>
      </trkpt>
      <trkpt lat="59.8525851" lon="17.6857194">
        <ele>21.2864</ele>
        <time>2013-05-09T17:42:57Z</time>
      </trkpt>
      <trkpt lat="59.8525389" lon="17.6856538">
        <ele>20.8057</ele>
        <time>2013-05-09T17:42:58Z</time>
      </trkpt>
      <trkpt lat="59.8524902" lon="17.6855891">
        <ele>20.325</ele>
        <time>2013-05-09T17:42:59Z</time>
      </trkpt>
      <trkpt lat="59.8524401" lon="17.6855357">
        <ele>20.325</ele>
        <time>2013-05-09T17:43:00Z</time>
      </trkpt>
      <trkpt lat="59.8523893" lon="17.6854987">
        <ele>20.325</ele>
        <time>2013-05-09T17:43:01Z</time>
      </trkpt>
      <trkpt lat="59.8523399" lon="17.6854621">
        <ele>20.325</ele>
        <time>2013-05-09T17:43:02Z</time>
      </trkpt>
      <trkpt lat="59.852293" lon="17.6854505">
        <ele>20.8057</ele>
        <time>2013-05-09T17:43:03Z</time>
      </trkpt>
      <trkpt lat="59.8522615" lon="17.685472">
        <ele>20.8057</ele>
        <time>2013-05-09T17:43:04Z</time>
      </trkpt>
      <trkpt lat="59.8522477" lon="17.6855147">
        <ele>20.8057</ele>
        <time>2013-05-09T17:43:05Z</time>
      </trkpt>
      <trkpt lat="59.8522436" lon="17.6855678">
        <ele>20.8057</ele>
        <time>2013-05-09T17:43:06Z</time>
      </trkpt>
      <trkpt lat="59.8522423" lon="17.6856241">
        <ele>20.8057</ele>
        <time>2013-05-09T17:43:07Z</time>
      </trkpt>
      <trkpt lat="59.8522374" lon="17.6856823">
        <ele>20.8057</ele>
        <time>2013-05-09T17:43:08Z</time>
      </trkpt>
      <trkpt lat="59.8522315" lon="17.6857496">
        <ele>20.8057</ele>
        <time>2013-05-09T17:43:09Z</time>
      </trkpt>
      <trkpt lat="59.852225" lon="17.6858188">
        <ele>21.767</ele>
        <time>2013-05-09T17:43:10Z</time>
      </trkpt>
      <trkpt lat="59.8521928" lon="17.6858075">
        <ele>19.8444</ele>
        <time>2013-05-09T17:43:11Z</time>
      </trkpt>
      <trkpt lat="59.8521656" lon="17.6857872">
        <ele>19.8444</ele>
        <time>2013-05-09T17:43:12Z</time>
      </trkpt>
      <trkpt lat="59.8521552" lon="17.6857862">
        <ele>19.3638</ele>
        <time>2013-05-09T17:43:13Z</time>
      </trkpt>
      <trkpt lat="59.8521508" lon="17.6857865">
        <ele>19.3638</ele>
        <time>2013-05-09T17:43:14Z</time>
      </trkpt>
      <trkpt lat="59.8521474" lon="17.6857872">
        <ele>19.8444</ele>
        <time>2013-05-09T17:43:15Z</time>
      </trkpt>
      <trkpt lat="59.8521479" lon="17.6857935">
        <ele>20.8057</ele>
        <time>2013-05-09T17:43:16Z</time>
      </trkpt>
      <trkpt lat="59.8521257" lon="17.6854404">
        <ele>9.75061</ele>
        <time>2013-05-09T18:03:43Z</time>
      </trkpt>
      <trkpt lat="59.8521561" lon="17.6854376">
        <ele>11.6732</ele>
        <time>2013-05-09T18:03:44Z</time>
      </trkpt>
      <trkpt lat="59.8521835" lon="17.6854334">
        <ele>12.6344</ele>
        <time>2013-05-09T18:03:45Z</time>
      </trkpt>
      <trkpt lat="59.8522079" lon="17.6854236">
        <ele>13.5958</ele>
        <time>2013-05-09T18:03:46Z</time>
      </trkpt>
      <trkpt lat="59.8522281" lon="17.6854113">
        <ele>13.1151</ele>
        <time>2013-05-09T18:03:47Z</time>
      </trkpt>
      <trkpt lat="59.8522552" lon="17.6854076">
        <ele>13.5958</ele>
        <time>2013-05-09T18:03:48Z</time>
      </trkpt>
      <trkpt lat="59.8522824" lon="17.6854049">
        <ele>14.0764</ele>
        <time>2013-05-09T18:03:49Z</time>
      </trkpt>
      <trkpt lat="59.8523183" lon="17.6854269">
        <ele>15.5184</ele>
        <time>2013-05-09T18:03:50Z</time>
      </trkpt>
      <trkpt lat="59.8523603" lon="17.6854603">
        <ele>17.9218</ele>
        <time>2013-05-09T18:03:51Z</time>
      </trkpt>
      <trkpt lat="59.8523919" lon="17.6854911">
        <ele>17.9218</ele>
        <time>2013-05-09T18:03:52Z</time>
      </trkpt>
      <trkpt lat="59.8524224" lon="17.6855274">
        <ele>18.4023</ele>
        <time>2013-05-09T18:03:53Z</time>
      </trkpt>
      <trkpt lat="59.8524499" lon="17.6855605">
        <ele>18.4023</ele>
        <time>2013-05-09T18:03:54Z</time>
      </trkpt>
      <trkpt lat="59.8524763" lon="17.6855925">
        <ele>18.8831</ele>
        <time>2013-05-09T18:03:55Z</time>
      </trkpt>
      <trkpt lat="59.8525019" lon="17.6856248">
        <ele>19.3638</ele>
        <time>2013-05-09T18:03:56Z</time>
      </trkpt>
      <trkpt lat="59.8525281" lon="17.6856589">
        <ele>20.325</ele>
        <time>2013-05-09T18:03:57Z</time>
      </trkpt>
      <trkpt lat="59.8525482" lon="17.685689">
        <ele>20.325</ele>
        <time>2013-05-09T18:03:58Z</time>
      </trkpt>
      <trkpt lat="59.8525655" lon="17.6857202">
        <ele>20.325</ele>
        <time>2013-05-09T18:03:59Z</time>
      </trkpt>
      <trkpt lat="59.8525841" lon="17.6857568">
        <ele>20.8057</ele>
        <time>2013-05-09T18:04:00Z</time>
      </trkpt>
      <trkpt lat="59.8525997" lon="17.6857936">
        <ele>20.325</ele>
        <time>2013-05-09T18:04:01Z</time>
      </trkpt>
      <trkpt lat="59.8526147" lon="17.6858258">
        <ele>20.8057</ele>
        <time>2013-05-09T18:04:02Z</time>
      </trkpt>
      <trkpt lat="59.8526212" lon="17.6858573">
        <ele>20.325</ele>
        <time>2013-05-09T18:04:03Z</time>
      </trkpt>
      <trkpt lat="59.8526152" lon="17.6858908">
        <ele>19.3638</ele>
        <time>2013-05-09T18:04:04Z</time>
      </trkpt>
      <trkpt lat="59.8526012" lon="17.6859226">
        <ele>18.8831</ele>
        <time>2013-05-09T18:04:05Z</time>
      </trkpt>
      <trkpt lat="59.8525856" lon="17.6859559">
        <ele>17.9218</ele>
        <time>2013-05-09T18:04:06Z</time>
      </trkpt>
      <trkpt lat="59.8525697" lon="17.6859915">
        <ele>17.4412</ele>
        <time>2013-05-09T18:04:07Z</time>
      </trkpt>
      <trkpt lat="59.8525525" lon="17.6860298">
        <ele>16.9604</ele>
        <time>2013-05-09T18:04:08Z</time>
      </trkpt>
      <trkpt lat="59.8525354" lon="17.6860713">
        <ele>16.4797</ele>
        <time>2013-05-09T18:04:09Z</time>
      </trkpt>
      <trkpt lat="59.8525179" lon="17.6861144">
        <ele>15.999</ele>
        <time>2013-05-09T18:04:10Z</time>
      </trkpt>
      <trkpt lat="59.8524988" lon="17.6861652">
        <ele>16.4797</ele>
        <time>2013-05-09T18:04:11Z</time>
      </trkpt>
      <trkpt lat="59.8524765" lon="17.6862185">
        <ele>16.9604</ele>
        <time>2013-05-09T18:04:12Z</time>
      </trkpt>
      <trkpt lat="59.8524501" lon="17.6862666">
        <ele>16.9604</ele>
        <time>2013-05-09T18:04:13Z</time>
      </trkpt>
      <trkpt lat="59.8524246" lon="17.686319">
        <ele>16.9604</ele>
        <time>2013-05-09T18:04:14Z</time>
      </trkpt>
      <trkpt lat="59.8524013" lon="17.6863753">
        <ele>16.4797</ele>
        <time>2013-05-09T18:04:15Z</time>
      </trkpt>
      <trkpt lat="59.8523772" lon="17.6864329">
        <ele>15.999</ele>
        <time>2013-05-09T18:04:16Z</time>
      </trkpt>
      <trkpt lat="59.8523474" lon="17.6864893">
        <ele>15.999</ele>
        <time>2013-05-09T18:04:17Z</time>
      </trkpt>
      <trkpt lat="59.8523127" lon="17.6865458">
        <ele>15.5184</ele>
        <time>2013-05-09T18:04:18Z</time>
      </trkpt>
      <trkpt lat="59.8522781" lon="17.6866039">
        <ele>15.5184</ele>
        <time>2013-05-09T18:04:19Z</time>
      </trkpt>
      <trkpt lat="59.8522423" lon="17.6866621">
        <ele>15.0377</ele>
        <time>2013-05-09T18:04:20Z</time>
      </trkpt>
      <trkpt lat="59.8522056" lon="17.686724">
        <ele>15.0377</ele>
        <time>2013-05-09T18:04:21Z</time>
      </trkpt>
      <trkpt lat="59.8521687" lon="17.6867918">
        <ele>15.0377</ele>
        <time>2013-05-09T18:04:22Z</time>
      </trkpt>
      <trkpt lat="59.8521309" lon="17.6868597">
        <ele>15.0377</ele>
        <time>2013-05-09T18:04:23Z</time>
      </trkpt>
      <trkpt lat="59.852093" lon="17.6869239">
        <ele>14.557</ele>
        <time>2013-05-09T18:04:24Z</time>
      </trkpt>
      <trkpt lat="59.8520552" lon="17.6869906">
        <ele>14.0764</ele>
        <time>2013-05-09T18:04:25Z</time>
      </trkpt>
      <trkpt lat="59.8520169" lon="17.6870594">
        <ele>13.5958</ele>
        <time>2013-05-09T18:04:26Z</time>
      </trkpt>
      <trkpt lat="59.851978" lon="17.6871338">
        <ele>13.5958</ele>
        <time>2013-05-09T18:04:27Z</time>
      </trkpt>
      <trkpt lat="59.8519366" lon="17.6872078">
        <ele>13.5958</ele>
        <time>2013-05-09T18:04:28Z</time>
      </trkpt>
      <trkpt lat="59.8518946" lon="17.6872822">
        <ele>13.1151</ele>
        <time>2013-05-09T18:04:29Z</time>
      </trkpt>
      <trkpt lat="59.8518547" lon="17.6873627">
        <ele>13.1151</ele>
        <time>2013-05-09T18:04:30Z</time>
      </trkpt>
      <trkpt lat="59.8518126" lon="17.6874364">
        <ele>13.1151</ele>
        <time>2013-05-09T18:04:31Z</time>
      </trkpt>
      <trkpt lat="59.8517698" lon="17.6875113">
        <ele>13.1151</ele>
        <time>2013-05-09T18:04:32Z</time>
      </trkpt>
      <trkpt lat="59.8517262" lon="17.6875843">
        <ele>13.1151</ele>
        <time>2013-05-09T18:04:33Z</time>
      </trkpt>
      <trkpt lat="59.8516848" lon="17.6876614">
        <ele>13.1151</ele>
        <time>2013-05-09T18:04:34Z</time>
      </trkpt>
      <trkpt lat="59.8516461" lon="17.6877399">
        <ele>13.1151</ele>
        <time>2013-05-09T18:04:35Z</time>
      </trkpt>
      <trkpt lat="59.8516077" lon="17.6878189">
        <ele>12.6344</ele>
        <time>2013-05-09T18:04:36Z</time>
      </trkpt>
      <trkpt lat="59.8515703" lon="17.6878992">
        <ele>12.6344</ele>
        <time>2013-05-09T18:04:37Z</time>
      </trkpt>
      <trkpt lat="59.8515314" lon="17.6879781">
        <ele>12.6344</ele>
        <time>2013-05-09T18:04:38Z</time>
      </trkpt>
      <trkpt lat="59.8514906" lon="17.6880561">
        <ele>12.6344</ele>
        <time>2013-05-09T18:04:39Z</time>
      </trkpt>
      <trkpt lat="59.8514486" lon="17.6881353">
        <ele>12.6344</ele>
        <time>2013-05-09T18:04:40Z</time>
      </trkpt>
      <trkpt lat="59.8514062" lon="17.6882164">
        <ele>12.6344</ele>
        <time>2013-05-09T18:04:41Z</time>
      </trkpt>
      <trkpt lat="59.8513635" lon="17.6882983">
        <ele>12.6344</ele>
        <time>2013-05-09T18:04:42Z</time>
      </trkpt>
      <trkpt lat="59.8513215" lon="17.6883825">
        <ele>12.6344</ele>
        <time>2013-05-09T18:04:43Z</time>
      </trkpt>
      <trkpt lat="59.8512746" lon="17.6884503">
        <ele>11.6732</ele>
        <time>2013-05-09T18:04:44Z</time>
      </trkpt>
      <trkpt lat="59.8512295" lon="17.6885298">
        <ele>11.1925</ele>
        <time>2013-05-09T18:04:45Z</time>
      </trkpt>
      <trkpt lat="59.8511807" lon="17.6885981">
        <ele>10.7118</ele>
        <time>2013-05-09T18:04:46Z</time>
      </trkpt>
      <trkpt lat="59.8511353" lon="17.6886769">
        <ele>10.2312</ele>
        <time>2013-05-09T18:04:47Z</time>
      </trkpt>
      <trkpt lat="59.8510897" lon="17.6887557">
        <ele>10.2312</ele>
        <time>2013-05-09T18:04:48Z</time>
      </trkpt>
      <trkpt lat="59.8510465" lon="17.6888384">
        <ele>10.2312</ele>
        <time>2013-05-09T18:04:49Z</time>
      </trkpt>
      <trkpt lat="59.8510064" lon="17.6889287">
        <ele>10.2312</ele>
        <time>2013-05-09T18:04:50Z</time>
      </trkpt>
      <trkpt lat="59.8509674" lon="17.6890188">
        <ele>10.7118</ele>
        <time>2013-05-09T18:04:51Z</time>
      </trkpt>
      <trkpt lat="59.8509275" lon="17.6891037">
        <ele>11.1925</ele>
        <time>2013-05-09T18:04:52Z</time>
      </trkpt>
      <trkpt lat="59.8508881" lon="17.6891892">
        <ele>11.1925</ele>
        <time>2013-05-09T18:04:53Z</time>
      </trkpt>
      <trkpt lat="59.8508472" lon="17.6892629">
        <ele>11.1925</ele>
        <time>2013-05-09T18:04:54Z</time>
      </trkpt>
      <trkpt lat="59.8508058" lon="17.6893341">
        <ele>10.7118</ele>
        <time>2013-05-09T18:04:55Z</time>
      </trkpt>
      <trkpt lat="59.8507654" lon="17.6894036">
        <ele>10.7118</ele>
        <time>2013-05-09T18:04:56Z</time>
      </trkpt>
      <trkpt lat="59.8507258" lon="17.6894719">
        <ele>10.7118</ele>
        <time>2013-05-09T18:04:57Z</time>
      </trkpt>
      <trkpt lat="59.8506867" lon="17.6895404">
        <ele>10.2312</ele>
        <time>2013-05-09T18:04:58Z</time>
      </trkpt>
      <trkpt lat="59.8506487" lon="17.6896109">
        <ele>10.2312</ele>
        <time>2013-05-09T18:04:59Z</time>
      </trkpt>
      <trkpt lat="59.850609" lon="17.6896787">
        <ele>10.2312</ele>
        <time>2013-05-09T18:05:00Z</time>
      </trkpt>
      <trkpt lat="59.8505707" lon="17.6897496">
        <ele>9.75061</ele>
        <time>2013-05-09T18:05:01Z</time>
      </trkpt>
      <trkpt lat="59.8505333" lon="17.6898228">
        <ele>9.75061</ele>
        <time>2013-05-09T18:05:02Z</time>
      </trkpt>
      <trkpt lat="59.8504958" lon="17.6898973">
        <ele>9.2699</ele>
        <time>2013-05-09T18:05:03Z</time>
      </trkpt>
      <trkpt lat="59.8504586" lon="17.6899709">
        <ele>9.2699</ele>
        <time>2013-05-09T18:05:04Z</time>
      </trkpt>
      <trkpt lat="59.8504194" lon="17.6900399">
        <ele>9.2699</ele>
        <time>2013-05-09T18:05:05Z</time>
      </trkpt>
      <trkpt lat="59.8503803" lon="17.6901117">
        <ele>9.2699</ele>
        <time>2013-05-09T18:05:06Z</time>
      </trkpt>
      <trkpt lat="59.8503411" lon="17.6901857">
        <ele>8.78918</ele>
        <time>2013-05-09T18:05:07Z</time>
      </trkpt>
      <trkpt lat="59.8503014" lon="17.6902599">
        <ele>8.78918</ele>
        <time>2013-05-09T18:05:08Z</time>
      </trkpt>
      <trkpt lat="59.8502619" lon="17.6903366">
        <ele>8.78918</ele>
        <time>2013-05-09T18:05:09Z</time>
      </trkpt>
      <trkpt lat="59.8502225" lon="17.6904153">
        <ele>8.78918</ele>
        <time>2013-05-09T18:05:10Z</time>
      </trkpt>
      <trkpt lat="59.8501824" lon="17.6904907">
        <ele>8.78918</ele>
        <time>2013-05-09T18:05:11Z</time>
      </trkpt>
      <trkpt lat="59.8501405" lon="17.6905567">
        <ele>8.30859</ele>
        <time>2013-05-09T18:05:12Z</time>
      </trkpt>
      <trkpt lat="59.850098" lon="17.6906161">
        <ele>8.30859</ele>
        <time>2013-05-09T18:05:13Z</time>
      </trkpt>
      <trkpt lat="59.8500568" lon="17.6906785">
        <ele>8.30859</ele>
        <time>2013-05-09T18:05:14Z</time>
      </trkpt>
      <trkpt lat="59.8500188" lon="17.6907422">
        <ele>8.30859</ele>
        <time>2013-05-09T18:05:15Z</time>
      </trkpt>
      <trkpt lat="59.8499825" lon="17.6907988">
        <ele>8.30859</ele>
        <time>2013-05-09T18:05:16Z</time>
      </trkpt>
      <trkpt lat="59.8499484" lon="17.6908525">
        <ele>7.82788</ele>
        <time>2013-05-09T18:05:17Z</time>
      </trkpt>
      <trkpt lat="59.8499141" lon="17.690901">
        <ele>7.82788</ele>
        <time>2013-05-09T18:05:18Z</time>
      </trkpt>
      <trkpt lat="59.8498827" lon="17.6909397">
        <ele>7.82788</ele>
        <time>2013-05-09T18:05:19Z</time>
      </trkpt>
      <trkpt lat="59.8498592" lon="17.6909737">
        <ele>8.30859</ele>
        <time>2013-05-09T18:05:20Z</time>
      </trkpt>
      <trkpt lat="59.8498423" lon="17.691001">
        <ele>9.2699</ele>
        <time>2013-05-09T18:05:21Z</time>
      </trkpt>
      <trkpt lat="59.8498262" lon="17.6910148">
        <ele>9.2699</ele>
        <time>2013-05-09T18:05:22Z</time>
      </trkpt>
      <trkpt lat="59.8498148" lon="17.6910322">
        <ele>9.75061</ele>
        <time>2013-05-09T18:05:23Z</time>
      </trkpt>
      <trkpt lat="59.8498029" lon="17.6910483">
        <ele>9.75061</ele>
        <time>2013-05-09T18:05:24Z</time>
      </trkpt>
      <trkpt lat="59.84979" lon="17.6910654">
        <ele>10.7118</ele>
        <time>2013-05-09T18:05:25Z</time>
      </trkpt>
      <trkpt lat="59.8497774" lon="17.6910808">
        <ele>11.1925</ele>
        <time>2013-05-09T18:05:26Z</time>
      </trkpt>
      <trkpt lat="59.8497675" lon="17.6910953">
        <ele>12.1538</ele>
        <time>2013-05-09T18:05:27Z</time>
      </trkpt>
      <trkpt lat="59.8497582" lon="17.6911056">
        <ele>13.1151</ele>
        <time>2013-05-09T18:05:28Z</time>
      </trkpt>
      <trkpt lat="59.8497457" lon="17.6911093">
        <ele>13.5958</ele>
        <time>2013-05-09T18:05:29Z</time>
      </trkpt>
      <trkpt lat="59.8497344" lon="17.691112">
        <ele>14.0764</ele>
        <time>2013-05-09T18:05:30Z</time>
      </trkpt>
      <trkpt lat="59.8497237" lon="17.691112">
        <ele>14.0764</ele>
        <time>2013-05-09T18:05:31Z</time>
      </trkpt>
      <trkpt lat="59.8497134" lon="17.6911127">
        <ele>14.557</ele>
        <time>2013-05-09T18:05:32Z</time>
      </trkpt>
      <trkpt lat="59.849703" lon="17.691112">
        <ele>14.557</ele>
        <time>2013-05-09T18:05:33Z</time>
      </trkpt>
      <trkpt lat="59.8496931" lon="17.6911092">
        <ele>15.0377</ele>
        <time>2013-05-09T18:05:34Z</time>
      </trkpt>
      <trkpt lat="59.8496826" lon="17.691102">
        <ele>14.557</ele>
        <time>2013-05-09T18:05:35Z</time>
      </trkpt>
      <trkpt lat="59.8496735" lon="17.6910925">
        <ele>13.1151</ele>
        <time>2013-05-09T18:05:36Z</time>
      </trkpt>
      <trkpt lat="59.8496702" lon="17.6910873">
        <ele>12.6344</ele>
        <time>2013-05-09T18:05:37Z</time>
      </trkpt>
      <trkpt lat="59.8496688" lon="17.6910811">
        <ele>12.6344</ele>
        <time>2013-05-09T18:05:38Z</time>
      </trkpt>
      <trkpt lat="59.8496667" lon="17.6910671">
        <ele>11.6732</ele>
        <time>2013-05-09T18:05:39Z</time>
      </trkpt>
      <trkpt lat="59.8496651" lon="17.6910566">
        <ele>10.7118</ele>
        <time>2013-05-09T18:05:40Z</time>
      </trkpt>
      <trkpt lat="59.8496641" lon="17.6910484">
        <ele>10.7118</ele>
        <time>2013-05-09T18:05:41Z</time>
      </trkpt>
      <trkpt lat="59.849664" lon="17.6910425">
        <ele>10.2312</ele>
        <time>2013-05-09T18:05:42Z</time>
      </trkpt>
      <trkpt lat="59.8496626" lon="17.6910385">
        <ele>10.2312</ele>
        <time>2013-05-09T18:05:43Z</time>
      </trkpt>
      <trkpt lat="59.8496611" lon="17.6910349">
        <ele>10.2312</ele>
        <time>2013-05-09T18:05:44Z</time>
      </trkpt>
      <trkpt lat="59.8496599" lon="17.6910353">
        <ele>9.75061</ele>
        <time>2013-05-09T18:05:45Z</time>
      </trkpt>
      <trkpt lat="59.8496582" lon="17.6910318">
        <ele>9.75061</ele>
        <time>2013-05-09T18:05:46Z</time>
      </trkpt>
      <trkpt lat="59.8496578" lon="17.6910342">
        <ele>9.75061</ele>
        <time>2013-05-09T18:05:47Z</time>
      </trkpt>
      <trkpt lat="59.8496583" lon="17.6910357">
        <ele>10.2312</ele>
        <time>2013-05-09T18:05:48Z</time>
      </trkpt>
      <trkpt lat="59.8496593" lon="17.691036">
        <ele>10.7118</ele>
        <time>2013-05-09T18:05:49Z</time>
      </trkpt>
      <trkpt lat="59.8496603" lon="17.6910367">
        <ele>10.7118</ele>
        <time>2013-05-09T18:05:50Z</time>
      </trkpt>
      <trkpt lat="59.8496598" lon="17.6910363">
        <ele>11.1925</ele>
        <time>2013-05-09T18:05:51Z</time>
      </trkpt>
      <trkpt lat="59.8496589" lon="17.6910364">
        <ele>11.6732</ele>
        <time>2013-05-09T18:05:52Z</time>
      </trkpt>
      <trkpt lat="59.849659" lon="17.6910374">
        <ele>11.6732</ele>
        <time>2013-05-09T18:05:53Z</time>
      </trkpt>
      <trkpt lat="59.8496594" lon="17.6910358">
        <ele>11.6732</ele>
        <time>2013-05-09T18:05:54Z</time>
      </trkpt>
      <trkpt lat="59.8496595" lon="17.6910341">
        <ele>12.1538</ele>
        <time>2013-05-09T18:05:55Z</time>
      </trkpt>
      <trkpt lat="59.8496599" lon="17.6910332">
        <ele>12.1538</ele>
        <time>2013-05-09T18:05:56Z</time>
      </trkpt>
      <trkpt lat="59.8496601" lon="17.6910318">
        <ele>12.6344</ele>
        <time>2013-05-09T18:05:57Z</time>
      </trkpt>
      <trkpt lat="59.8496608" lon="17.6910246">
        <ele>12.1538</ele>
        <time>2013-05-09T18:05:58Z</time>
      </trkpt>
      <trkpt lat="59.8496584" lon="17.6910258">
        <ele>12.6344</ele>
        <time>2013-05-09T18:05:59Z</time>
      </trkpt>
      <trkpt lat="59.8496486" lon="17.6910359">
        <ele>13.1151</ele>
        <time>2013-05-09T18:06:00Z</time>
      </trkpt>
      <trkpt lat="59.8496335" lon="17.691049">
        <ele>13.5958</ele>
        <time>2013-05-09T18:06:01Z</time>
      </trkpt>
      <trkpt lat="59.8496185" lon="17.691064">
        <ele>15.0377</ele>
        <time>2013-05-09T18:06:02Z</time>
      </trkpt>
      <trkpt lat="59.8496046" lon="17.6910783">
        <ele>15.5184</ele>
        <time>2013-05-09T18:06:03Z</time>
      </trkpt>
      <trkpt lat="59.8495908" lon="17.6910902">
        <ele>15.999</ele>
        <time>2013-05-09T18:06:04Z</time>
      </trkpt>
      <trkpt lat="59.8495767" lon="17.6911057">
        <ele>16.4797</ele>
        <time>2013-05-09T18:06:05Z</time>
      </trkpt>
      <trkpt lat="59.8495635" lon="17.6911251">
        <ele>16.9604</ele>
        <time>2013-05-09T18:06:06Z</time>
      </trkpt>
      <trkpt lat="59.8495484" lon="17.6911373">
        <ele>15.999</ele>
        <time>2013-05-09T18:06:07Z</time>
      </trkpt>
      <trkpt lat="59.849531" lon="17.6911422">
        <ele>14.0764</ele>
        <time>2013-05-09T18:06:08Z</time>
      </trkpt>
      <trkpt lat="59.8495216" lon="17.6911535">
        <ele>14.557</ele>
        <time>2013-05-09T18:06:09Z</time>
      </trkpt>
      <trkpt lat="59.8495114" lon="17.6911602">
        <ele>14.557</ele>
        <time>2013-05-09T18:06:10Z</time>
      </trkpt>
      <trkpt lat="59.849502" lon="17.6911701">
        <ele>14.557</ele>
        <time>2013-05-09T18:06:11Z</time>
      </trkpt>
      <trkpt lat="59.8494963" lon="17.6911789">
        <ele>14.557</ele>
        <time>2013-05-09T18:06:12Z</time>
      </trkpt>
      <trkpt lat="59.8494938" lon="17.6911835">
        <ele>14.557</ele>
        <time>2013-05-09T18:06:13Z</time>
      </trkpt>
      <trkpt lat="59.8494926" lon="17.6911841">
        <ele>14.0764</ele>
        <time>2013-05-09T18:06:14Z</time>
      </trkpt>
      <trkpt lat="59.8494919" lon="17.6911839">
        <ele>14.0764</ele>
        <time>2013-05-09T18:06:15Z</time>
      </trkpt>
      <trkpt lat="59.8494867" lon="17.6911571">
        <ele>10.7118</ele>
        <time>2013-05-09T18:06:24Z</time>
      </trkpt>
      <trkpt lat="59.8494858" lon="17.691154">
        <ele>10.7118</ele>
        <time>2013-05-09T18:06:25Z</time>
      </trkpt>
      <trkpt lat="59.8494843" lon="17.6911518">
        <ele>10.2312</ele>
        <time>2013-05-09T18:06:26Z</time>
      </trkpt>
      <trkpt lat="59.8494815" lon="17.6911551">
        <ele>10.7118</ele>
        <time>2013-05-09T18:06:27Z</time>
      </trkpt>
      <trkpt lat="59.8494795" lon="17.6911664">
        <ele>11.1925</ele>
        <time>2013-05-09T18:06:28Z</time>
      </trkpt>
      <trkpt lat="59.8494719" lon="17.6911802">
        <ele>11.1925</ele>
        <time>2013-05-09T18:06:29Z</time>
      </trkpt>
      <trkpt lat="59.84946" lon="17.6912001">
        <ele>11.1925</ele>
        <time>2013-05-09T18:06:30Z</time>
      </trkpt>
      <trkpt lat="59.849446" lon="17.6912248">
        <ele>11.1925</ele>
        <time>2013-05-09T18:06:31Z</time>
      </trkpt>
      <trkpt lat="59.84943" lon="17.6912545">
        <ele>10.7118</ele>
        <time>2013-05-09T18:06:32Z</time>
      </trkpt>
      <trkpt lat="59.849414" lon="17.6912965">
        <ele>10.2312</ele>
        <time>2013-05-09T18:06:33Z</time>
      </trkpt>
      <trkpt lat="59.8493993" lon="17.6913436">
        <ele>10.2312</ele>
        <time>2013-05-09T18:06:34Z</time>
      </trkpt>
      <trkpt lat="59.8493848" lon="17.6913911">
        <ele>9.75061</ele>
        <time>2013-05-09T18:06:35Z</time>
      </trkpt>
      <trkpt lat="59.8493693" lon="17.6914405">
        <ele>9.75061</ele>
        <time>2013-05-09T18:06:36Z</time>
      </trkpt>
      <trkpt lat="59.8493542" lon="17.6914911">
        <ele>9.2699</ele>
        <time>2013-05-09T18:06:37Z</time>
      </trkpt>
      <trkpt lat="59.8493394" lon="17.6915454">
        <ele>9.2699</ele>
        <time>2013-05-09T18:06:38Z</time>
      </trkpt>
      <trkpt lat="59.8493236" lon="17.691601">
        <ele>8.78918</ele>
        <time>2013-05-09T18:06:39Z</time>
      </trkpt>
      <trkpt lat="59.8493041" lon="17.6916555">
        <ele>8.78918</ele>
        <time>2013-05-09T18:06:40Z</time>
      </trkpt>
      <trkpt lat="59.8492792" lon="17.6917047">
        <ele>9.2699</ele>
        <time>2013-05-09T18:06:41Z</time>
      </trkpt>
      <trkpt lat="59.8492446" lon="17.6917154">
        <ele>9.2699</ele>
        <time>2013-05-09T18:06:42Z</time>
      </trkpt>
      <trkpt lat="59.8492071" lon="17.6916938">
        <ele>9.75061</ele>
        <time>2013-05-09T18:06:43Z</time>
      </trkpt>
      <trkpt lat="59.8491697" lon="17.6916537">
        <ele>9.2699</ele>
        <time>2013-05-09T18:06:44Z</time>
      </trkpt>
      <trkpt lat="59.8491342" lon="17.6916029">
        <ele>9.2699</ele>
        <time>2013-05-09T18:06:45Z</time>
      </trkpt>
      <trkpt lat="59.8490985" lon="17.6915534">
        <ele>9.2699</ele>
        <time>2013-05-09T18:06:46Z</time>
      </trkpt>
      <trkpt lat="59.8490592" lon="17.6915037">
        <ele>9.2699</ele>
        <time>2013-05-09T18:06:47Z</time>
      </trkpt>
      <trkpt lat="59.8490166" lon="17.6914566">
        <ele>9.75061</ele>
        <time>2013-05-09T18:06:48Z</time>
      </trkpt>
      <trkpt lat="59.8489757" lon="17.6914131">
        <ele>9.75061</ele>
        <time>2013-05-09T18:06:49Z</time>
      </trkpt>
      <trkpt lat="59.8489321" lon="17.691369">
        <ele>9.75061</ele>
        <time>2013-05-09T18:06:50Z</time>
      </trkpt>
      <trkpt lat="59.8488882" lon="17.6913275">
        <ele>9.2699</ele>
        <time>2013-05-09T18:06:51Z</time>
      </trkpt>
      <trkpt lat="59.8488451" lon="17.6912895">
        <ele>9.2699</ele>
        <time>2013-05-09T18:06:52Z</time>
      </trkpt>
      <trkpt lat="59.8488012" lon="17.6912633">
        <ele>10.2312</ele>
        <time>2013-05-09T18:06:53Z</time>
      </trkpt>
      <trkpt lat="59.8487569" lon="17.6912274">
        <ele>9.75061</ele>
        <time>2013-05-09T18:06:54Z</time>
      </trkpt>
      <trkpt lat="59.8487085" lon="17.691189">
        <ele>9.75061</ele>
        <time>2013-05-09T18:06:55Z</time>
      </trkpt>
      <trkpt lat="59.8486581" lon="17.6911509">
        <ele>9.2699</ele>
        <time>2013-05-09T18:06:56Z</time>
      </trkpt>
      <trkpt lat="59.8486069" lon="17.691117">
        <ele>9.2699</ele>
        <time>2013-05-09T18:06:57Z</time>
      </trkpt>
      <trkpt lat="59.8485546" lon="17.6910834">
        <ele>8.78918</ele>
        <time>2013-05-09T18:06:58Z</time>
      </trkpt>
      <trkpt lat="59.8485016" lon="17.6910499">
        <ele>8.30859</ele>
        <time>2013-05-09T18:06:59Z</time>
      </trkpt>
      <trkpt lat="59.8484473" lon="17.6910202">
        <ele>8.30859</ele>
        <time>2013-05-09T18:07:00Z</time>
      </trkpt>
      <trkpt lat="59.8483919" lon="17.6909891">
        <ele>8.30859</ele>
        <time>2013-05-09T18:07:01Z</time>
      </trkpt>
      <trkpt lat="59.8483344" lon="17.6909581">
        <ele>8.30859</ele>
        <time>2013-05-09T18:07:02Z</time>
      </trkpt>
      <trkpt lat="59.8482747" lon="17.6909306">
        <ele>8.78918</ele>
        <time>2013-05-09T18:07:03Z</time>
      </trkpt>
      <trkpt lat="59.8482178" lon="17.6909054">
        <ele>9.75061</ele>
        <time>2013-05-09T18:07:04Z</time>
      </trkpt>
      <trkpt lat="59.8481585" lon="17.6908795">
        <ele>9.75061</ele>
        <time>2013-05-09T18:07:05Z</time>
      </trkpt>
      <trkpt lat="59.8480983" lon="17.6908545">
        <ele>9.75061</ele>
        <time>2013-05-09T18:07:06Z</time>
      </trkpt>
      <trkpt lat="59.8480392" lon="17.6908327">
        <ele>9.75061</ele>
        <time>2013-05-09T18:07:07Z</time>
      </trkpt>
      <trkpt lat="59.8479814" lon="17.690814">
        <ele>9.2699</ele>
        <time>2013-05-09T18:07:08Z</time>
      </trkpt>
      <trkpt lat="59.847924" lon="17.6907955">
        <ele>9.2699</ele>
        <time>2013-05-09T18:07:09Z</time>
      </trkpt>
      <trkpt lat="59.8478661" lon="17.6907772">
        <ele>8.78918</ele>
        <time>2013-05-09T18:07:10Z</time>
      </trkpt>
      <trkpt lat="59.8478112" lon="17.6907596">
        <ele>8.78918</ele>
        <time>2013-05-09T18:07:11Z</time>
      </trkpt>
      <trkpt lat="59.8477571" lon="17.6907396">
        <ele>8.78918</ele>
        <time>2013-05-09T18:07:12Z</time>
      </trkpt>
      <trkpt lat="59.8477059" lon="17.6907234">
        <ele>8.78918</ele>
        <time>2013-05-09T18:07:13Z</time>
      </trkpt>
      <trkpt lat="59.847654" lon="17.690721">
        <ele>8.78918</ele>
        <time>2013-05-09T18:07:14Z</time>
      </trkpt>
      <trkpt lat="59.8476024" lon="17.690722">
        <ele>8.78918</ele>
        <time>2013-05-09T18:07:15Z</time>
      </trkpt>
      <trkpt lat="59.847553" lon="17.6907405">
        <ele>8.78918</ele>
        <time>2013-05-09T18:07:16Z</time>
      </trkpt>
      <trkpt lat="59.8475061" lon="17.690781">
        <ele>8.30859</ele>
        <time>2013-05-09T18:07:17Z</time>
      </trkpt>
      <trkpt lat="59.8474625" lon="17.6908308">
        <ele>7.82788</ele>
        <time>2013-05-09T18:07:18Z</time>
      </trkpt>
      <trkpt lat="59.8474191" lon="17.6908673">
        <ele>8.30859</ele>
        <time>2013-05-09T18:07:19Z</time>
      </trkpt>
      <trkpt lat="59.8473719" lon="17.6908806">
        <ele>8.30859</ele>
        <time>2013-05-09T18:07:20Z</time>
      </trkpt>
      <trkpt lat="59.8473243" lon="17.6908805">
        <ele>8.30859</ele>
        <time>2013-05-09T18:07:21Z</time>
      </trkpt>
      <trkpt lat="59.8472767" lon="17.6908607">
        <ele>7.82788</ele>
        <time>2013-05-09T18:07:22Z</time>
      </trkpt>
      <trkpt lat="59.8472299" lon="17.6908272">
        <ele>7.34717</ele>
        <time>2013-05-09T18:07:23Z</time>
      </trkpt>
      <trkpt lat="59.8471849" lon="17.6907739">
        <ele>7.34717</ele>
        <time>2013-05-09T18:07:24Z</time>
      </trkpt>
      <trkpt lat="59.8471384" lon="17.6907168">
        <ele>6.86646</ele>
        <time>2013-05-09T18:07:25Z</time>
      </trkpt>
      <trkpt lat="59.847086" lon="17.6906741">
        <ele>6.86646</ele>
        <time>2013-05-09T18:07:26Z</time>
      </trkpt>
      <trkpt lat="59.8470267" lon="17.6906488">
        <ele>6.38586</ele>
        <time>2013-05-09T18:07:27Z</time>
      </trkpt>
      <trkpt lat="59.8469648" lon="17.6906354">
        <ele>6.38586</ele>
        <time>2013-05-09T18:07:28Z</time>
      </trkpt>
      <trkpt lat="59.8469017" lon="17.6906277">
        <ele>6.38586</ele>
        <time>2013-05-09T18:07:29Z</time>
      </trkpt>
      <trkpt lat="59.8468378" lon="17.6906189">
        <ele>5.90527</ele>
        <time>2013-05-09T18:07:30Z</time>
      </trkpt>
      <trkpt lat="59.8467729" lon="17.6906104">
        <ele>5.42456</ele>
        <time>2013-05-09T18:07:31Z</time>
      </trkpt>
      <trkpt lat="59.8467072" lon="17.6906045">
        <ele>5.42456</ele>
        <time>2013-05-09T18:07:32Z</time>
      </trkpt>
      <trkpt lat="59.8466421" lon="17.6905988">
        <ele>4.94385</ele>
        <time>2013-05-09T18:07:33Z</time>
      </trkpt>
      <trkpt lat="59.8465807" lon="17.6905957">
        <ele>5.42456</ele>
        <time>2013-05-09T18:07:34Z</time>
      </trkpt>
      <trkpt lat="59.8465232" lon="17.6905933">
        <ele>5.42456</ele>
        <time>2013-05-09T18:07:35Z</time>
      </trkpt>
      <trkpt lat="59.8464686" lon="17.6905909">
        <ele>5.42456</ele>
        <time>2013-05-09T18:07:36Z</time>
      </trkpt>
      <trkpt lat="59.8464154" lon="17.6905867">
        <ele>5.90527</ele>
        <time>2013-05-09T18:07:37Z</time>
      </trkpt>
      <trkpt lat="59.8463628" lon="17.6905824">
        <ele>6.38586</ele>
        <time>2013-05-09T18:07:38Z</time>
      </trkpt>
      <trkpt lat="59.846309" lon="17.6905784">
        <ele>6.38586</ele>
        <time>2013-05-09T18:07:39Z</time>
      </trkpt>
      <trkpt lat="59.8462531" lon="17.6905765">
        <ele>6.38586</ele>
        <time>2013-05-09T18:07:40Z</time>
      </trkpt>
      <trkpt lat="59.846195" lon="17.6905749">
        <ele>6.38586</ele>
        <time>2013-05-09T18:07:41Z</time>
      </trkpt>
      <trkpt lat="59.8461363" lon="17.6905696">
        <ele>6.38586</ele>
        <time>2013-05-09T18:07:42Z</time>
      </trkpt>
      <trkpt lat="59.8460768" lon="17.6905624">
        <ele>6.38586</ele>
        <time>2013-05-09T18:07:43Z</time>
      </trkpt>
      <trkpt lat="59.8460169" lon="17.6905556">
        <ele>6.38586</ele>
        <time>2013-05-09T18:07:44Z</time>
      </trkpt>
      <trkpt lat="59.8459582" lon="17.6905479">
        <ele>6.38586</ele>
        <time>2013-05-09T18:07:45Z</time>
      </trkpt>
      <trkpt lat="59.8459003" lon="17.69054">
        <ele>6.38586</ele>
        <time>2013-05-09T18:07:46Z</time>
      </trkpt>
      <trkpt lat="59.8458441" lon="17.690533">
        <ele>6.38586</ele>
        <time>2013-05-09T18:07:47Z</time>
      </trkpt>
      <trkpt lat="59.8457889" lon="17.6905287">
        <ele>6.86646</ele>
        <time>2013-05-09T18:07:48Z</time>
      </trkpt>
      <trkpt lat="59.8457361" lon="17.6905271">
        <ele>6.86646</ele>
        <time>2013-05-09T18:07:49Z</time>
      </trkpt>
      <trkpt lat="59.8456868" lon="17.6905355">
        <ele>6.86646</ele>
        <time>2013-05-09T18:07:50Z</time>
      </trkpt>
      <trkpt lat="59.8456428" lon="17.6905687">
        <ele>6.86646</ele>
        <time>2013-05-09T18:07:51Z</time>
      </trkpt>
      <trkpt lat="59.8456019" lon="17.6906175">
        <ele>6.86646</ele>
        <time>2013-05-09T18:07:52Z</time>
      </trkpt>
      <trkpt lat="59.8455594" lon="17.6906663">
        <ele>6.86646</ele>
        <time>2013-05-09T18:07:53Z</time>
      </trkpt>
      <trkpt lat="59.8455115" lon="17.6906902">
        <ele>6.86646</ele>
        <time>2013-05-09T18:07:54Z</time>
      </trkpt>
      <trkpt lat="59.84546" lon="17.6906912">
        <ele>6.38586</ele>
        <time>2013-05-09T18:07:55Z</time>
      </trkpt>
      <trkpt lat="59.8454103" lon="17.6906883">
        <ele>6.38586</ele>
        <time>2013-05-09T18:07:56Z</time>
      </trkpt>
      <trkpt lat="59.8453606" lon="17.6906785">
        <ele>6.86646</ele>
        <time>2013-05-09T18:07:57Z</time>
      </trkpt>
      <trkpt lat="59.8453119" lon="17.6906562">
        <ele>6.86646</ele>
        <time>2013-05-09T18:07:58Z</time>
      </trkpt>
      <trkpt lat="59.8452663" lon="17.6906107">
        <ele>7.34717</ele>
        <time>2013-05-09T18:07:59Z</time>
      </trkpt>
      <trkpt lat="59.8452251" lon="17.6905525">
        <ele>7.82788</ele>
        <time>2013-05-09T18:08:00Z</time>
      </trkpt>
      <trkpt lat="59.8451818" lon="17.6904951">
        <ele>7.82788</ele>
        <time>2013-05-09T18:08:01Z</time>
      </trkpt>
      <trkpt lat="59.8451315" lon="17.6904605">
        <ele>7.34717</ele>
        <time>2013-05-09T18:08:02Z</time>
      </trkpt>
      <trkpt lat="59.8450756" lon="17.6904401">
        <ele>7.34717</ele>
        <time>2013-05-09T18:08:03Z</time>
      </trkpt>
      <trkpt lat="59.8450158" lon="17.6904273">
        <ele>7.34717</ele>
        <time>2013-05-09T18:08:04Z</time>
      </trkpt>
      <trkpt lat="59.8449528" lon="17.6904179">
        <ele>7.34717</ele>
        <time>2013-05-09T18:08:05Z</time>
      </trkpt>
      <trkpt lat="59.8448891" lon="17.6904117">
        <ele>7.34717</ele>
        <time>2013-05-09T18:08:06Z</time>
      </trkpt>
      <trkpt lat="59.8448255" lon="17.6904054">
        <ele>7.82788</ele>
        <time>2013-05-09T18:08:07Z</time>
      </trkpt>
      <trkpt lat="59.8447602" lon="17.6903977">
        <ele>7.34717</ele>
        <time>2013-05-09T18:08:08Z</time>
      </trkpt>
      <trkpt lat="59.8446962" lon="17.6903895">
        <ele>6.86646</ele>
        <time>2013-05-09T18:08:09Z</time>
      </trkpt>
      <trkpt lat="59.8446347" lon="17.6903873">
        <ele>6.86646</ele>
        <time>2013-05-09T18:08:10Z</time>
      </trkpt>
      <trkpt lat="59.8445745" lon="17.6903858">
        <ele>7.34717</ele>
        <time>2013-05-09T18:08:11Z</time>
      </trkpt>
      <trkpt lat="59.8445146" lon="17.6903816">
        <ele>7.34717</ele>
        <time>2013-05-09T18:08:12Z</time>
      </trkpt>
      <trkpt lat="59.8444563" lon="17.6903766">
        <ele>7.82788</ele>
        <time>2013-05-09T18:08:13Z</time>
      </trkpt>
      <trkpt lat="59.8444001" lon="17.6903711">
        <ele>7.82788</ele>
        <time>2013-05-09T18:08:14Z</time>
      </trkpt>
      <trkpt lat="59.8443452" lon="17.6903661">
        <ele>8.30859</ele>
        <time>2013-05-09T18:08:15Z</time>
      </trkpt>
      <trkpt lat="59.8442897" lon="17.6903599">
        <ele>8.30859</ele>
        <time>2013-05-09T18:08:16Z</time>
      </trkpt>
      <trkpt lat="59.8442355" lon="17.6903568">
        <ele>8.30859</ele>
        <time>2013-05-09T18:08:17Z</time>
      </trkpt>
      <trkpt lat="59.8441835" lon="17.690355">
        <ele>8.78918</ele>
        <time>2013-05-09T18:08:18Z</time>
      </trkpt>
      <trkpt lat="59.8441337" lon="17.6903543">
        <ele>8.78918</ele>
        <time>2013-05-09T18:08:19Z</time>
      </trkpt>
      <trkpt lat="59.8440863" lon="17.6903537">
        <ele>9.2699</ele>
        <time>2013-05-09T18:08:20Z</time>
      </trkpt>
      <trkpt lat="59.8440432" lon="17.6903533">
        <ele>9.75061</ele>
        <time>2013-05-09T18:08:21Z</time>
      </trkpt>
      <trkpt lat="59.8440028" lon="17.6903548">
        <ele>10.2312</ele>
        <time>2013-05-09T18:08:22Z</time>
      </trkpt>
      <trkpt lat="59.8439649" lon="17.6903541">
        <ele>10.7118</ele>
        <time>2013-05-09T18:08:23Z</time>
      </trkpt>
      <trkpt lat="59.8439302" lon="17.6903516">
        <ele>11.1925</ele>
        <time>2013-05-09T18:08:24Z</time>
      </trkpt>
      <trkpt lat="59.8439011" lon="17.6903436">
        <ele>11.6732</ele>
        <time>2013-05-09T18:08:25Z</time>
      </trkpt>
      <trkpt lat="59.8438772" lon="17.690334">
        <ele>11.6732</ele>
        <time>2013-05-09T18:08:26Z</time>
      </trkpt>
      <trkpt lat="59.8438572" lon="17.6903251">
        <ele>12.6344</ele>
        <time>2013-05-09T18:08:27Z</time>
      </trkpt>
      <trkpt lat="59.843838" lon="17.6903152">
        <ele>13.1151</ele>
        <time>2013-05-09T18:08:28Z</time>
      </trkpt>
      <trkpt lat="59.8438241" lon="17.6903068">
        <ele>13.1151</ele>
        <time>2013-05-09T18:08:29Z</time>
      </trkpt>
      <trkpt lat="59.8438177" lon="17.6903063">
        <ele>13.1151</ele>
        <time>2013-05-09T18:08:30Z</time>
      </trkpt>
      <trkpt lat="59.843813" lon="17.6903148">
        <ele>11.6732</ele>
        <time>2013-05-09T18:08:31Z</time>
      </trkpt>
      <trkpt lat="59.8438105" lon="17.690323">
        <ele>10.7118</ele>
        <time>2013-05-09T18:08:32Z</time>
      </trkpt>
      <trkpt lat="59.843809" lon="17.6903308">
        <ele>10.2312</ele>
        <time>2013-05-09T18:08:33Z</time>
      </trkpt>
      <trkpt lat="59.843808" lon="17.690338">
        <ele>10.2312</ele>
        <time>2013-05-09T18:08:34Z</time>
      </trkpt>
      <trkpt lat="59.8438075" lon="17.6903438">
        <ele>9.75061</ele>
        <time>2013-05-09T18:08:35Z</time>
      </trkpt>
      <trkpt lat="59.8438075" lon="17.690349">
        <ele>9.75061</ele>
        <time>2013-05-09T18:08:36Z</time>
      </trkpt>
      <trkpt lat="59.8438075" lon="17.6903537">
        <ele>9.75061</ele>
        <time>2013-05-09T18:08:37Z</time>
      </trkpt>
      <trkpt lat="59.8438078" lon="17.6903578">
        <ele>9.75061</ele>
        <time>2013-05-09T18:08:38Z</time>
      </trkpt>
      <trkpt lat="59.8438078" lon="17.6903612">
        <ele>9.75061</ele>
        <time>2013-05-09T18:08:39Z</time>
      </trkpt>
      <trkpt lat="59.8438078" lon="17.690364">
        <ele>9.75061</ele>
        <time>2013-05-09T18:08:40Z</time>
      </trkpt>
      <trkpt lat="59.8438078" lon="17.6903666">
        <ele>9.75061</ele>
        <time>2013-05-09T18:08:41Z</time>
      </trkpt>
      <trkpt lat="59.8438078" lon="17.6903691">
        <ele>9.75061</ele>
        <time>2013-05-09T18:08:42Z</time>
      </trkpt>
      <trkpt lat="59.843808" lon="17.6903713">
        <ele>9.75061</ele>
        <time>2013-05-09T18:08:43Z</time>
      </trkpt>
      <trkpt lat="59.8438083" lon="17.6903737">
        <ele>9.75061</ele>
        <time>2013-05-09T18:08:44Z</time>
      </trkpt>
      <trkpt lat="59.8438085" lon="17.690376">
        <ele>10.2312</ele>
        <time>2013-05-09T18:08:45Z</time>
      </trkpt>
      <trkpt lat="59.8438086" lon="17.6903784">
        <ele>10.2312</ele>
        <time>2013-05-09T18:08:46Z</time>
      </trkpt>
      <trkpt lat="59.8438085" lon="17.6903811">
        <ele>10.2312</ele>
        <time>2013-05-09T18:08:47Z</time>
      </trkpt>
      <trkpt lat="59.8438086" lon="17.6903832">
        <ele>10.2312</ele>
        <time>2013-05-09T18:08:48Z</time>
      </trkpt>
      <trkpt lat="59.8438089" lon="17.6903849">
        <ele>10.2312</ele>
        <time>2013-05-09T18:08:49Z</time>
      </trkpt>
      <trkpt lat="59.8438089" lon="17.6903868">
        <ele>10.7118</ele>
        <time>2013-05-09T18:08:50Z</time>
      </trkpt>
      <trkpt lat="59.8438089" lon="17.6903888">
        <ele>10.7118</ele>
        <time>2013-05-09T18:08:51Z</time>
      </trkpt>
      <trkpt lat="59.843809" lon="17.6903908">
        <ele>10.7118</ele>
        <time>2013-05-09T18:08:52Z</time>
      </trkpt>
      <trkpt lat="59.843809" lon="17.6903928">
        <ele>10.7118</ele>
        <time>2013-05-09T18:08:53Z</time>
      </trkpt>
      <trkpt lat="59.8438093" lon="17.6903947">
        <ele>11.1925</ele>
        <time>2013-05-09T18:08:54Z</time>
      </trkpt>
      <trkpt lat="59.8438095" lon="17.690397">
        <ele>11.1925</ele>
        <time>2013-05-09T18:08:55Z</time>
      </trkpt>
      <trkpt lat="59.8438095" lon="17.6903993">
        <ele>11.1925</ele>
        <time>2013-05-09T18:08:56Z</time>
      </trkpt>
      <trkpt lat="59.8438091" lon="17.6904018">
        <ele>11.6732</ele>
        <time>2013-05-09T18:08:57Z</time>
      </trkpt>
      <trkpt lat="59.8438088" lon="17.6904042">
        <ele>11.6732</ele>
        <time>2013-05-09T18:08:58Z</time>
      </trkpt>
      <trkpt lat="59.843809" lon="17.6904061">
        <ele>11.6732</ele>
        <time>2013-05-09T18:08:59Z</time>
      </trkpt>
      <trkpt lat="59.8438101" lon="17.6904046">
        <ele>11.6732</ele>
        <time>2013-05-09T18:09:00Z</time>
      </trkpt>
      <trkpt lat="59.8438121" lon="17.6904024">
        <ele>11.6732</ele>
        <time>2013-05-09T18:09:01Z</time>
      </trkpt>
      <trkpt lat="59.8438137" lon="17.6904008">
        <ele>11.6732</ele>
        <time>2013-05-09T18:09:02Z</time>
      </trkpt>
      <trkpt lat="59.8438152" lon="17.6904009">
        <ele>12.1538</ele>
        <time>2013-05-09T18:09:03Z</time>
      </trkpt>
      <trkpt lat="59.8438147" lon="17.6903982">
        <ele>12.1538</ele>
        <time>2013-05-09T18:09:04Z</time>
      </trkpt>
      <trkpt lat="59.8438093" lon="17.6903856">
        <ele>12.6344</ele>
        <time>2013-05-09T18:09:05Z</time>
      </trkpt>
      <trkpt lat="59.843794" lon="17.6903703">
        <ele>12.6344</ele>
        <time>2013-05-09T18:09:06Z</time>
      </trkpt>
      <trkpt lat="59.8437748" lon="17.6903522">
        <ele>12.1538</ele>
        <time>2013-05-09T18:09:07Z</time>
      </trkpt>
      <trkpt lat="59.8437526" lon="17.6903397">
        <ele>12.1538</ele>
        <time>2013-05-09T18:09:08Z</time>
      </trkpt>
      <trkpt lat="59.843722" lon="17.6903318">
        <ele>11.6732</ele>
        <time>2013-05-09T18:09:09Z</time>
      </trkpt>
      <trkpt lat="59.843689" lon="17.6903247">
        <ele>11.6732</ele>
        <time>2013-05-09T18:09:10Z</time>
      </trkpt>
      <trkpt lat="59.8436558" lon="17.6903196">
        <ele>11.1925</ele>
        <time>2013-05-09T18:09:11Z</time>
      </trkpt>
      <trkpt lat="59.8436244" lon="17.6903046">
        <ele>10.7118</ele>
        <time>2013-05-09T18:09:12Z</time>
      </trkpt>
      <trkpt lat="59.8435904" lon="17.6902973">
        <ele>10.7118</ele>
        <time>2013-05-09T18:09:13Z</time>
      </trkpt>
      <trkpt lat="59.8435569" lon="17.690293">
        <ele>10.2312</ele>
        <time>2013-05-09T18:09:14Z</time>
      </trkpt>
      <trkpt lat="59.8435262" lon="17.6902909">
        <ele>10.2312</ele>
        <time>2013-05-09T18:09:15Z</time>
      </trkpt>
      <trkpt lat="59.8434986" lon="17.690292">
        <ele>10.2312</ele>
        <time>2013-05-09T18:09:16Z</time>
      </trkpt>
      <trkpt lat="59.8434733" lon="17.6902951">
        <ele>10.2312</ele>
        <time>2013-05-09T18:09:17Z</time>
      </trkpt>
      <trkpt lat="59.8434473" lon="17.6903184">
        <ele>10.2312</ele>
        <time>2013-05-09T18:09:18Z</time>
      </trkpt>
      <trkpt lat="59.8434216" lon="17.69036">
        <ele>10.2312</ele>
        <time>2013-05-09T18:09:19Z</time>
      </trkpt>
      <trkpt lat="59.8433944" lon="17.6904069">
        <ele>10.2312</ele>
        <time>2013-05-09T18:09:20Z</time>
      </trkpt>
      <trkpt lat="59.8433618" lon="17.6904465">
        <ele>9.75061</ele>
        <time>2013-05-09T18:09:21Z</time>
      </trkpt>
      <trkpt lat="59.8433246" lon="17.6904763">
        <ele>10.2312</ele>
        <time>2013-05-09T18:09:22Z</time>
      </trkpt>
      <trkpt lat="59.8432836" lon="17.6904863">
        <ele>10.2312</ele>
        <time>2013-05-09T18:09:23Z</time>
      </trkpt>
      <trkpt lat="59.8432412" lon="17.6904665">
        <ele>10.2312</ele>
        <time>2013-05-09T18:09:24Z</time>
      </trkpt>
      <trkpt lat="59.8431984" lon="17.6904293">
        <ele>10.7118</ele>
        <time>2013-05-09T18:09:25Z</time>
      </trkpt>
      <trkpt lat="59.8431527" lon="17.6904003">
        <ele>10.2312</ele>
        <time>2013-05-09T18:09:26Z</time>
      </trkpt>
      <trkpt lat="59.8431023" lon="17.6903796">
        <ele>10.2312</ele>
        <time>2013-05-09T18:09:27Z</time>
      </trkpt>
      <trkpt lat="59.8430485" lon="17.6903665">
        <ele>9.75061</ele>
        <time>2013-05-09T18:09:28Z</time>
      </trkpt>
      <trkpt lat="59.8429932" lon="17.6903553">
        <ele>9.75061</ele>
        <time>2013-05-09T18:09:29Z</time>
      </trkpt>
      <trkpt lat="59.8429366" lon="17.6903406">
        <ele>9.75061</ele>
        <time>2013-05-09T18:09:30Z</time>
      </trkpt>
      <trkpt lat="59.8428777" lon="17.69033">
        <ele>9.2699</ele>
        <time>2013-05-09T18:09:31Z</time>
      </trkpt>
      <trkpt lat="59.8428185" lon="17.6903185">
        <ele>9.2699</ele>
        <time>2013-05-09T18:09:32Z</time>
      </trkpt>
      <trkpt lat="59.8427604" lon="17.6903059">
        <ele>9.2699</ele>
        <time>2013-05-09T18:09:33Z</time>
      </trkpt>
      <trkpt lat="59.8427037" lon="17.6902904">
        <ele>8.78918</ele>
        <time>2013-05-09T18:09:34Z</time>
      </trkpt>
      <trkpt lat="59.84265" lon="17.6902718">
        <ele>8.78918</ele>
        <time>2013-05-09T18:09:35Z</time>
      </trkpt>
      <trkpt lat="59.842599" lon="17.6902517">
        <ele>8.78918</ele>
        <time>2013-05-09T18:09:36Z</time>
      </trkpt>
      <trkpt lat="59.8425491" lon="17.6902294">
        <ele>8.78918</ele>
        <time>2013-05-09T18:09:37Z</time>
      </trkpt>
      <trkpt lat="59.8424985" lon="17.690207">
        <ele>9.2699</ele>
        <time>2013-05-09T18:09:38Z</time>
      </trkpt>
      <trkpt lat="59.8424465" lon="17.6901869">
        <ele>8.78918</ele>
        <time>2013-05-09T18:09:39Z</time>
      </trkpt>
      <trkpt lat="59.8423932" lon="17.690167">
        <ele>8.78918</ele>
        <time>2013-05-09T18:09:40Z</time>
      </trkpt>
      <trkpt lat="59.8423384" lon="17.6901454">
        <ele>8.78918</ele>
        <time>2013-05-09T18:09:41Z</time>
      </trkpt>
      <trkpt lat="59.842282" lon="17.6901247">
        <ele>8.78918</ele>
        <time>2013-05-09T18:09:42Z</time>
      </trkpt>
      <trkpt lat="59.8422244" lon="17.6901055">
        <ele>8.78918</ele>
        <time>2013-05-09T18:09:43Z</time>
      </trkpt>
      <trkpt lat="59.8421654" lon="17.6900874">
        <ele>8.78918</ele>
        <time>2013-05-09T18:09:44Z</time>
      </trkpt>
      <trkpt lat="59.8421058" lon="17.6900712">
        <ele>8.30859</ele>
        <time>2013-05-09T18:09:45Z</time>
      </trkpt>
      <trkpt lat="59.8420458" lon="17.6900564">
        <ele>8.30859</ele>
        <time>2013-05-09T18:09:46Z</time>
      </trkpt>
      <trkpt lat="59.8419849" lon="17.6900444">
        <ele>8.30859</ele>
        <time>2013-05-09T18:09:47Z</time>
      </trkpt>
      <trkpt lat="59.841923" lon="17.6900335">
        <ele>8.30859</ele>
        <time>2013-05-09T18:09:48Z</time>
      </trkpt>
      <trkpt lat="59.8418611" lon="17.6900222">
        <ele>8.30859</ele>
        <time>2013-05-09T18:09:49Z</time>
      </trkpt>
      <trkpt lat="59.8417986" lon="17.6900108">
        <ele>7.82788</ele>
        <time>2013-05-09T18:09:50Z</time>
      </trkpt>
      <trkpt lat="59.8417359" lon="17.6899999">
        <ele>7.82788</ele>
        <time>2013-05-09T18:09:51Z</time>
      </trkpt>
      <trkpt lat="59.8416736" lon="17.6899895">
        <ele>7.82788</ele>
        <time>2013-05-09T18:09:52Z</time>
      </trkpt>
      <trkpt lat="59.8416121" lon="17.6899792">
        <ele>7.82788</ele>
        <time>2013-05-09T18:09:53Z</time>
      </trkpt>
      <trkpt lat="59.8415513" lon="17.6899682">
        <ele>7.82788</ele>
        <time>2013-05-09T18:09:54Z</time>
      </trkpt>
      <trkpt lat="59.8414914" lon="17.6899568">
        <ele>7.82788</ele>
        <time>2013-05-09T18:09:55Z</time>
      </trkpt>
      <trkpt lat="59.8414323" lon="17.689947">
        <ele>7.82788</ele>
        <time>2013-05-09T18:09:56Z</time>
      </trkpt>
      <trkpt lat="59.8413735" lon="17.689938">
        <ele>7.82788</ele>
        <time>2013-05-09T18:09:57Z</time>
      </trkpt>
      <trkpt lat="59.8413152" lon="17.6899274">
        <ele>7.82788</ele>
        <time>2013-05-09T18:09:58Z</time>
      </trkpt>
      <trkpt lat="59.8412564" lon="17.6899176">
        <ele>7.82788</ele>
        <time>2013-05-09T18:09:59Z</time>
      </trkpt>
      <trkpt lat="59.8411978" lon="17.6899087">
        <ele>7.34717</ele>
        <time>2013-05-09T18:10:00Z</time>
      </trkpt>
      <trkpt lat="59.8411398" lon="17.6898992">
        <ele>7.34717</ele>
        <time>2013-05-09T18:10:01Z</time>
      </trkpt>
      <trkpt lat="59.8410823" lon="17.6898893">
        <ele>7.34717</ele>
        <time>2013-05-09T18:10:02Z</time>
      </trkpt>
      <trkpt lat="59.8410247" lon="17.6898788">
        <ele>7.34717</ele>
        <time>2013-05-09T18:10:03Z</time>
      </trkpt>
      <trkpt lat="59.840967" lon="17.6898684">
        <ele>7.34717</ele>
        <time>2013-05-09T18:10:04Z</time>
      </trkpt>
      <trkpt lat="59.8409087" lon="17.6898591">
        <ele>7.34717</ele>
        <time>2013-05-09T18:10:05Z</time>
      </trkpt>
      <trkpt lat="59.8408497" lon="17.6898502">
        <ele>6.86646</ele>
        <time>2013-05-09T18:10:06Z</time>
      </trkpt>
      <trkpt lat="59.8407906" lon="17.6898406">
        <ele>6.86646</ele>
        <time>2013-05-09T18:10:07Z</time>
      </trkpt>
      <trkpt lat="59.8407324" lon="17.689831">
        <ele>6.86646</ele>
        <time>2013-05-09T18:10:08Z</time>
      </trkpt>
      <trkpt lat="59.8406747" lon="17.6898202">
        <ele>6.86646</ele>
        <time>2013-05-09T18:10:09Z</time>
      </trkpt>
      <trkpt lat="59.840617" lon="17.6898087">
        <ele>6.86646</ele>
        <time>2013-05-09T18:10:10Z</time>
      </trkpt>
      <trkpt lat="59.8405584" lon="17.6897984">
        <ele>6.38586</ele>
        <time>2013-05-09T18:10:11Z</time>
      </trkpt>
      <trkpt lat="59.8404992" lon="17.6897896">
        <ele>6.38586</ele>
        <time>2013-05-09T18:10:12Z</time>
      </trkpt>
      <trkpt lat="59.8404403" lon="17.6897818">
        <ele>6.38586</ele>
        <time>2013-05-09T18:10:13Z</time>
      </trkpt>
      <trkpt lat="59.8403819" lon="17.689772">
        <ele>6.38586</ele>
        <time>2013-05-09T18:10:14Z</time>
      </trkpt>
      <trkpt lat="59.8403231" lon="17.6897601">
        <ele>6.38586</ele>
        <time>2013-05-09T18:10:15Z</time>
      </trkpt>
      <trkpt lat="59.8402638" lon="17.6897492">
        <ele>6.38586</ele>
        <time>2013-05-09T18:10:16Z</time>
      </trkpt>
      <trkpt lat="59.8402047" lon="17.6897404">
        <ele>6.38586</ele>
        <time>2013-05-09T18:10:17Z</time>
      </trkpt>
      <trkpt lat="59.840146" lon="17.6897316">
        <ele>6.38586</ele>
        <time>2013-05-09T18:10:18Z</time>
      </trkpt>
      <trkpt lat="59.8400877" lon="17.6897212">
        <ele>6.38586</ele>
        <time>2013-05-09T18:10:19Z</time>
      </trkpt>
      <trkpt lat="59.8400294" lon="17.6897097">
        <ele>6.38586</ele>
        <time>2013-05-09T18:10:20Z</time>
      </trkpt>
      <trkpt lat="59.8399705" lon="17.6896954">
        <ele>6.38586</ele>
        <time>2013-05-09T18:10:21Z</time>
      </trkpt>
      <trkpt lat="59.8399098" lon="17.689685">
        <ele>6.38586</ele>
        <time>2013-05-09T18:10:22Z</time>
      </trkpt>
      <trkpt lat="59.8398481" lon="17.6896755">
        <ele>6.86646</ele>
        <time>2013-05-09T18:10:23Z</time>
      </trkpt>
      <trkpt lat="59.839786" lon="17.6896681">
        <ele>6.38586</ele>
        <time>2013-05-09T18:10:24Z</time>
      </trkpt>
      <trkpt lat="59.8397248" lon="17.6896621">
        <ele>6.38586</ele>
        <time>2013-05-09T18:10:25Z</time>
      </trkpt>
      <trkpt lat="59.8396639" lon="17.6896578">
        <ele>6.38586</ele>
        <time>2013-05-09T18:10:26Z</time>
      </trkpt>
      <trkpt lat="59.8396022" lon="17.6896609">
        <ele>6.38586</ele>
        <time>2013-05-09T18:10:27Z</time>
      </trkpt>
      <trkpt lat="59.8395402" lon="17.6896673">
        <ele>5.90527</ele>
        <time>2013-05-09T18:10:28Z</time>
      </trkpt>
      <trkpt lat="59.8394785" lon="17.6896756">
        <ele>5.90527</ele>
        <time>2013-05-09T18:10:29Z</time>
      </trkpt>
      <trkpt lat="59.8394171" lon="17.6896868">
        <ele>5.90527</ele>
        <time>2013-05-09T18:10:30Z</time>
      </trkpt>
      <trkpt lat="59.8393562" lon="17.6896999">
        <ele>6.38586</ele>
        <time>2013-05-09T18:10:31Z</time>
      </trkpt>
      <trkpt lat="59.8392961" lon="17.6897144">
        <ele>6.38586</ele>
        <time>2013-05-09T18:10:32Z</time>
      </trkpt>
      <trkpt lat="59.839236" lon="17.6897305">
        <ele>6.86646</ele>
        <time>2013-05-09T18:10:33Z</time>
      </trkpt>
      <trkpt lat="59.8391759" lon="17.6897502">
        <ele>6.86646</ele>
        <time>2013-05-09T18:10:34Z</time>
      </trkpt>
      <trkpt lat="59.839116" lon="17.6897735">
        <ele>6.86646</ele>
        <time>2013-05-09T18:10:35Z</time>
      </trkpt>
      <trkpt lat="59.8390569" lon="17.6897987">
        <ele>6.86646</ele>
        <time>2013-05-09T18:10:36Z</time>
      </trkpt>
      <trkpt lat="59.8389981" lon="17.6898256">
        <ele>6.86646</ele>
        <time>2013-05-09T18:10:37Z</time>
      </trkpt>
      <trkpt lat="59.8389392" lon="17.6898554">
        <ele>7.34717</ele>
        <time>2013-05-09T18:10:38Z</time>
      </trkpt>
      <trkpt lat="59.8388802" lon="17.689889">
        <ele>7.34717</ele>
        <time>2013-05-09T18:10:39Z</time>
      </trkpt>
      <trkpt lat="59.8388202" lon="17.6899252">
        <ele>7.34717</ele>
        <time>2013-05-09T18:10:40Z</time>
      </trkpt>
      <trkpt lat="59.838758" lon="17.6899639">
        <ele>7.34717</ele>
        <time>2013-05-09T18:10:41Z</time>
      </trkpt>
      <trkpt lat="59.8386959" lon="17.6900061">
        <ele>7.34717</ele>
        <time>2013-05-09T18:10:42Z</time>
      </trkpt>
      <trkpt lat="59.8386354" lon="17.6900531">
        <ele>7.34717</ele>
        <time>2013-05-09T18:10:43Z</time>
      </trkpt>
      <trkpt lat="59.8385761" lon="17.6901019">
        <ele>7.34717</ele>
        <time>2013-05-09T18:10:44Z</time>
      </trkpt>
      <trkpt lat="59.8385184" lon="17.690153">
        <ele>7.34717</ele>
        <time>2013-05-09T18:10:45Z</time>
      </trkpt>
      <trkpt lat="59.838462" lon="17.6902055">
        <ele>7.34717</ele>
        <time>2013-05-09T18:10:46Z</time>
      </trkpt>
      <trkpt lat="59.8384063" lon="17.6902589">
        <ele>7.34717</ele>
        <time>2013-05-09T18:10:47Z</time>
      </trkpt>
      <trkpt lat="59.8383518" lon="17.6903125">
        <ele>6.86646</ele>
        <time>2013-05-09T18:10:48Z</time>
      </trkpt>
      <trkpt lat="59.8383001" lon="17.6903671">
        <ele>6.38586</ele>
        <time>2013-05-09T18:10:49Z</time>
      </trkpt>
      <trkpt lat="59.8382496" lon="17.6904226">
        <ele>6.38586</ele>
        <time>2013-05-09T18:10:50Z</time>
      </trkpt>
      <trkpt lat="59.8381991" lon="17.6904786">
        <ele>5.90527</ele>
        <time>2013-05-09T18:10:51Z</time>
      </trkpt>
      <trkpt lat="59.8381492" lon="17.6905354">
        <ele>6.38586</ele>
        <time>2013-05-09T18:10:52Z</time>
      </trkpt>
      <trkpt lat="59.8380984" lon="17.6905929">
        <ele>6.38586</ele>
        <time>2013-05-09T18:10:53Z</time>
      </trkpt>
      <trkpt lat="59.8380465" lon="17.6906541">
        <ele>6.38586</ele>
        <time>2013-05-09T18:10:54Z</time>
      </trkpt>
      <trkpt lat="59.8379938" lon="17.6907166">
        <ele>6.38586</ele>
        <time>2013-05-09T18:10:55Z</time>
      </trkpt>
      <trkpt lat="59.8379411" lon="17.6907791">
        <ele>6.38586</ele>
        <time>2013-05-09T18:10:56Z</time>
      </trkpt>
      <trkpt lat="59.8378877" lon="17.6908418">
        <ele>6.38586</ele>
        <time>2013-05-09T18:10:57Z</time>
      </trkpt>
      <trkpt lat="59.8378333" lon="17.6909011">
        <ele>6.38586</ele>
        <time>2013-05-09T18:10:58Z</time>
      </trkpt>
      <trkpt lat="59.8377782" lon="17.6909581">
        <ele>6.38586</ele>
        <time>2013-05-09T18:10:59Z</time>
      </trkpt>
      <trkpt lat="59.8377225" lon="17.6910158">
        <ele>6.38586</ele>
        <time>2013-05-09T18:11:00Z</time>
      </trkpt>
      <trkpt lat="59.8376659" lon="17.6910743">
        <ele>5.90527</ele>
        <time>2013-05-09T18:11:01Z</time>
      </trkpt>
      <trkpt lat="59.837609" lon="17.6911316">
        <ele>5.90527</ele>
        <time>2013-05-09T18:11:02Z</time>
      </trkpt>
      <trkpt lat="59.837552" lon="17.691193">
        <ele>5.42456</ele>
        <time>2013-05-09T18:11:03Z</time>
      </trkpt>
      <trkpt lat="59.8374943" lon="17.6912498">
        <ele>4.94385</ele>
        <time>2013-05-09T18:11:04Z</time>
      </trkpt>
      <trkpt lat="59.8374361" lon="17.6913028">
        <ele>4.94385</ele>
        <time>2013-05-09T18:11:05Z</time>
      </trkpt>
      <trkpt lat="59.8373784" lon="17.6913541">
        <ele>4.94385</ele>
        <time>2013-05-09T18:11:06Z</time>
      </trkpt>
      <trkpt lat="59.8373207" lon="17.6914026">
        <ele>4.94385</ele>
        <time>2013-05-09T18:11:07Z</time>
      </trkpt>
      <trkpt lat="59.8372641" lon="17.6914489">
        <ele>4.94385</ele>
        <time>2013-05-09T18:11:08Z</time>
      </trkpt>
      <trkpt lat="59.8372075" lon="17.6914944">
        <ele>4.94385</ele>
        <time>2013-05-09T18:11:09Z</time>
      </trkpt>
      <trkpt lat="59.8371505" lon="17.6915389">
        <ele>4.94385</ele>
        <time>2013-05-09T18:11:10Z</time>
      </trkpt>
      <trkpt lat="59.837094" lon="17.6915781">
        <ele>4.46326</ele>
        <time>2013-05-09T18:11:11Z</time>
      </trkpt>
      <trkpt lat="59.8370376" lon="17.6916143">
        <ele>4.46326</ele>
        <time>2013-05-09T18:11:12Z</time>
      </trkpt>
      <trkpt lat="59.836982" lon="17.6916472">
        <ele>4.46326</ele>
        <time>2013-05-09T18:11:13Z</time>
      </trkpt>
      <trkpt lat="59.8369273" lon="17.6916762">
        <ele>3.98267</ele>
        <time>2013-05-09T18:11:14Z</time>
      </trkpt>
      <trkpt lat="59.8368748" lon="17.6917009">
        <ele>3.98267</ele>
        <time>2013-05-09T18:11:15Z</time>
      </trkpt>
      <trkpt lat="59.836824" lon="17.6917224">
        <ele>3.98267</ele>
        <time>2013-05-09T18:11:16Z</time>
      </trkpt>
      <trkpt lat="59.8367732" lon="17.6917438">
        <ele>3.98267</ele>
        <time>2013-05-09T18:11:17Z</time>
      </trkpt>
      <trkpt lat="59.8367227" lon="17.6917623">
        <ele>3.98267</ele>
        <time>2013-05-09T18:11:18Z</time>
      </trkpt>
      <trkpt lat="59.8366728" lon="17.6917733">
        <ele>3.98267</ele>
        <time>2013-05-09T18:11:19Z</time>
      </trkpt>
      <trkpt lat="59.8366241" lon="17.6917728">
        <ele>3.98267</ele>
        <time>2013-05-09T18:11:20Z</time>
      </trkpt>
      <trkpt lat="59.8365782" lon="17.6917637">
        <ele>3.98267</ele>
        <time>2013-05-09T18:11:21Z</time>
      </trkpt>
      <trkpt lat="59.8365344" lon="17.6917548">
        <ele>3.50195</ele>
        <time>2013-05-09T18:11:22Z</time>
      </trkpt>
      <trkpt lat="59.8364928" lon="17.6917506">
        <ele>3.50195</ele>
        <time>2013-05-09T18:11:23Z</time>
      </trkpt>
      <trkpt lat="59.8364524" lon="17.6917538">
        <ele>3.02124</ele>
        <time>2013-05-09T18:11:24Z</time>
      </trkpt>
      <trkpt lat="59.8364144" lon="17.6917751">
        <ele>3.02124</ele>
        <time>2013-05-09T18:11:25Z</time>
      </trkpt>
      <trkpt lat="59.8363809" lon="17.6918155">
        <ele>3.02124</ele>
        <time>2013-05-09T18:11:26Z</time>
      </trkpt>
      <trkpt lat="59.8363523" lon="17.6918663">
        <ele>3.02124</ele>
        <time>2013-05-09T18:11:27Z</time>
      </trkpt>
      <trkpt lat="59.8363275" lon="17.6919227">
        <ele>3.02124</ele>
        <time>2013-05-09T18:11:28Z</time>
      </trkpt>
      <trkpt lat="59.8363034" lon="17.6919808">
        <ele>3.02124</ele>
        <time>2013-05-09T18:11:29Z</time>
      </trkpt>
      <trkpt lat="59.8362785" lon="17.6920388">
        <ele>3.02124</ele>
        <time>2013-05-09T18:11:30Z</time>
      </trkpt>
      <trkpt lat="59.8362513" lon="17.6920995">
        <ele>3.50195</ele>
        <time>2013-05-09T18:11:31Z</time>
      </trkpt>
      <trkpt lat="59.8362187" lon="17.6921584">
        <ele>3.02124</ele>
        <time>2013-05-09T18:11:32Z</time>
      </trkpt>
      <trkpt lat="59.8361791" lon="17.6922111">
        <ele>3.50195</ele>
        <time>2013-05-09T18:11:33Z</time>
      </trkpt>
      <trkpt lat="59.8361321" lon="17.6922548">
        <ele>3.50195</ele>
        <time>2013-05-09T18:11:34Z</time>
      </trkpt>
      <trkpt lat="59.8360802" lon="17.6922856">
        <ele>3.50195</ele>
        <time>2013-05-09T18:11:35Z</time>
      </trkpt>
      <trkpt lat="59.8360285" lon="17.692304">
        <ele>3.50195</ele>
        <time>2013-05-09T18:11:36Z</time>
      </trkpt>
      <trkpt lat="59.8359736" lon="17.692309">
        <ele>3.50195</ele>
        <time>2013-05-09T18:11:37Z</time>
      </trkpt>
      <trkpt lat="59.8359154" lon="17.6923019">
        <ele>3.50195</ele>
        <time>2013-05-09T18:11:38Z</time>
      </trkpt>
      <trkpt lat="59.8358554" lon="17.6923138">
        <ele>3.50195</ele>
        <time>2013-05-09T18:11:39Z</time>
      </trkpt>
      <trkpt lat="59.8357973" lon="17.69232">
        <ele>3.98267</ele>
        <time>2013-05-09T18:11:40Z</time>
      </trkpt>
      <trkpt lat="59.8357395" lon="17.6923257">
        <ele>3.98267</ele>
        <time>2013-05-09T18:11:41Z</time>
      </trkpt>
      <trkpt lat="59.835682" lon="17.692331">
        <ele>3.98267</ele>
        <time>2013-05-09T18:11:42Z</time>
      </trkpt>
      <trkpt lat="59.8356255" lon="17.6923366">
        <ele>4.46326</ele>
        <time>2013-05-09T18:11:43Z</time>
      </trkpt>
      <trkpt lat="59.8355696" lon="17.6923416">
        <ele>4.46326</ele>
        <time>2013-05-09T18:11:44Z</time>
      </trkpt>
      <trkpt lat="59.8355144" lon="17.6923457">
        <ele>4.46326</ele>
        <time>2013-05-09T18:11:45Z</time>
      </trkpt>
      <trkpt lat="59.8354593" lon="17.692351">
        <ele>4.46326</ele>
        <time>2013-05-09T18:11:46Z</time>
      </trkpt>
      <trkpt lat="59.8354034" lon="17.6923518">
        <ele>4.46326</ele>
        <time>2013-05-09T18:11:47Z</time>
      </trkpt>
      <trkpt lat="59.8353489" lon="17.6923574">
        <ele>4.46326</ele>
        <time>2013-05-09T18:11:48Z</time>
      </trkpt>
      <trkpt lat="59.8352951" lon="17.6923663">
        <ele>4.46326</ele>
        <time>2013-05-09T18:11:49Z</time>
      </trkpt>
      <trkpt lat="59.8352411" lon="17.6923759">
        <ele>4.46326</ele>
        <time>2013-05-09T18:11:50Z</time>
      </trkpt>
      <trkpt lat="59.8351866" lon="17.6923853">
        <ele>4.46326</ele>
        <time>2013-05-09T18:11:51Z</time>
      </trkpt>
      <trkpt lat="59.8351316" lon="17.6923946">
        <ele>4.94385</ele>
        <time>2013-05-09T18:11:52Z</time>
      </trkpt>
      <trkpt lat="59.835076" lon="17.692405">
        <ele>4.94385</ele>
        <time>2013-05-09T18:11:53Z</time>
      </trkpt>
      <trkpt lat="59.8350199" lon="17.6924144">
        <ele>4.94385</ele>
        <time>2013-05-09T18:11:54Z</time>
      </trkpt>
      <trkpt lat="59.8349641" lon="17.6924262">
        <ele>5.42456</ele>
        <time>2013-05-09T18:11:55Z</time>
      </trkpt>
      <trkpt lat="59.8349089" lon="17.6924418">
        <ele>5.42456</ele>
        <time>2013-05-09T18:11:56Z</time>
      </trkpt>
      <trkpt lat="59.8348546" lon="17.6924585">
        <ele>5.90527</ele>
        <time>2013-05-09T18:11:57Z</time>
      </trkpt>
      <trkpt lat="59.8348004" lon="17.6924806">
        <ele>5.90527</ele>
        <time>2013-05-09T18:11:58Z</time>
      </trkpt>
      <trkpt lat="59.834746" lon="17.6925065">
        <ele>5.90527</ele>
        <time>2013-05-09T18:11:59Z</time>
      </trkpt>
      <trkpt lat="59.834692" lon="17.6925371">
        <ele>5.90527</ele>
        <time>2013-05-09T18:12:00Z</time>
      </trkpt>
      <trkpt lat="59.8346367" lon="17.6925739">
        <ele>5.42456</ele>
        <time>2013-05-09T18:12:01Z</time>
      </trkpt>
      <trkpt lat="59.8345805" lon="17.6926125">
        <ele>5.42456</ele>
        <time>2013-05-09T18:12:02Z</time>
      </trkpt>
      <trkpt lat="59.8345248" lon="17.6926556">
        <ele>4.94385</ele>
        <time>2013-05-09T18:12:03Z</time>
      </trkpt>
      <trkpt lat="59.834471" lon="17.6927049">
        <ele>4.94385</ele>
        <time>2013-05-09T18:12:04Z</time>
      </trkpt>
      <trkpt lat="59.8344169" lon="17.6927624">
        <ele>4.46326</ele>
        <time>2013-05-09T18:12:05Z</time>
      </trkpt>
      <trkpt lat="59.8343634" lon="17.6928231">
        <ele>4.46326</ele>
        <time>2013-05-09T18:12:06Z</time>
      </trkpt>
      <trkpt lat="59.8343108" lon="17.6928883">
        <ele>4.46326</ele>
        <time>2013-05-09T18:12:07Z</time>
      </trkpt>
      <trkpt lat="59.8342579" lon="17.6929586">
        <ele>4.46326</ele>
        <time>2013-05-09T18:12:08Z</time>
      </trkpt>
      <trkpt lat="59.8342072" lon="17.6930314">
        <ele>3.98267</ele>
        <time>2013-05-09T18:12:09Z</time>
      </trkpt>
      <trkpt lat="59.8341595" lon="17.6931077">
        <ele>3.98267</ele>
        <time>2013-05-09T18:12:10Z</time>
      </trkpt>
      <trkpt lat="59.8341145" lon="17.6931867">
        <ele>3.98267</ele>
        <time>2013-05-09T18:12:11Z</time>
      </trkpt>
      <trkpt lat="59.8340718" lon="17.6932664">
        <ele>3.98267</ele>
        <time>2013-05-09T18:12:12Z</time>
      </trkpt>
      <trkpt lat="59.8340301" lon="17.6933456">
        <ele>3.98267</ele>
        <time>2013-05-09T18:12:13Z</time>
      </trkpt>
      <trkpt lat="59.8339876" lon="17.6934248">
        <ele>3.98267</ele>
        <time>2013-05-09T18:12:14Z</time>
      </trkpt>
      <trkpt lat="59.8339433" lon="17.6935063">
        <ele>3.50195</ele>
        <time>2013-05-09T18:12:15Z</time>
      </trkpt>
      <trkpt lat="59.8338985" lon="17.6935905">
        <ele>3.50195</ele>
        <time>2013-05-09T18:12:16Z</time>
      </trkpt>
      <trkpt lat="59.8338539" lon="17.6936763">
        <ele>3.50195</ele>
        <time>2013-05-09T18:12:17Z</time>
      </trkpt>
      <trkpt lat="59.8338078" lon="17.6937595">
        <ele>3.02124</ele>
        <time>2013-05-09T18:12:18Z</time>
      </trkpt>
      <trkpt lat="59.8337617" lon="17.693846">
        <ele>3.02124</ele>
        <time>2013-05-09T18:12:19Z</time>
      </trkpt>
      <trkpt lat="59.8337146" lon="17.693932">
        <ele>3.02124</ele>
        <time>2013-05-09T18:12:20Z</time>
      </trkpt>
      <trkpt lat="59.8336685" lon="17.6940217">
        <ele>3.02124</ele>
        <time>2013-05-09T18:12:21Z</time>
      </trkpt>
      <trkpt lat="59.8336222" lon="17.6941117">
        <ele>3.02124</ele>
        <time>2013-05-09T18:12:22Z</time>
      </trkpt>
      <trkpt lat="59.8335747" lon="17.6941989">
        <ele>3.02124</ele>
        <time>2013-05-09T18:12:23Z</time>
      </trkpt>
      <trkpt lat="59.8335281" lon="17.6942873">
        <ele>2.54065</ele>
        <time>2013-05-09T18:12:24Z</time>
      </trkpt>
      <trkpt lat="59.8334846" lon="17.6943974">
        <ele>1.57935</ele>
        <time>2013-05-09T18:12:25Z</time>
      </trkpt>
      <trkpt lat="59.8334474" lon="17.6945163">
        <ele>0.137451</ele>
        <time>2013-05-09T18:12:26Z</time>
      </trkpt>
      <trkpt lat="59.8334073" lon="17.6946128">
        <ele>0</ele>
        <time>2013-05-09T18:12:27Z</time>
      </trkpt>
      <trkpt lat="59.8333608" lon="17.6947029">
        <ele>0</ele>
        <time>2013-05-09T18:12:28Z</time>
      </trkpt>
      <trkpt lat="59.8333158" lon="17.6947841">
        <ele>0</ele>
        <time>2013-05-09T18:12:29Z</time>
      </trkpt>
      <trkpt lat="59.8332697" lon="17.694865">
        <ele>0</ele>
        <time>2013-05-09T18:12:30Z</time>
      </trkpt>
      <trkpt lat="59.8332245" lon="17.6949458">
        <ele>0</ele>
        <time>2013-05-09T18:12:31Z</time>
      </trkpt>
      <trkpt lat="59.8331795" lon="17.695026">
        <ele>0</ele>
        <time>2013-05-09T18:12:32Z</time>
      </trkpt>
      <trkpt lat="59.8331338" lon="17.6951062">
        <ele>0</ele>
        <time>2013-05-09T18:12:33Z</time>
      </trkpt>
      <trkpt lat="59.8330913" lon="17.695187">
        <ele>0</ele>
        <time>2013-05-09T18:12:34Z</time>
      </trkpt>
      <trkpt lat="59.833047" lon="17.6952696">
        <ele>0</ele>
        <time>2013-05-09T18:12:35Z</time>
      </trkpt>
      <trkpt lat="59.8330039" lon="17.6953525">
        <ele>0</ele>
        <time>2013-05-09T18:12:36Z</time>
      </trkpt>
      <trkpt lat="59.8329605" lon="17.6954343">
        <ele>0</ele>
        <time>2013-05-09T18:12:37Z</time>
      </trkpt>
      <trkpt lat="59.8329182" lon="17.6955116">
        <ele>0</ele>
        <time>2013-05-09T18:12:38Z</time>
      </trkpt>
      <trkpt lat="59.8328753" lon="17.6955895">
        <ele>0.137451</ele>
        <time>2013-05-09T18:12:39Z</time>
      </trkpt>
      <trkpt lat="59.8328324" lon="17.6956704">
        <ele>0.618042</ele>
        <time>2013-05-09T18:12:40Z</time>
      </trkpt>
      <trkpt lat="59.8327899" lon="17.6957514">
        <ele>1.09863</ele>
        <time>2013-05-09T18:12:41Z</time>
      </trkpt>
      <trkpt lat="59.8327477" lon="17.6958377">
        <ele>1.57935</ele>
        <time>2013-05-09T18:12:42Z</time>
      </trkpt>
      <trkpt lat="59.8327059" lon="17.6959244">
        <ele>2.06006</ele>
        <time>2013-05-09T18:12:43Z</time>
      </trkpt>
      <trkpt lat="59.8326655" lon="17.6960114">
        <ele>2.54065</ele>
        <time>2013-05-09T18:12:44Z</time>
      </trkpt>
      <trkpt lat="59.8326267" lon="17.6961046">
        <ele>3.02124</ele>
        <time>2013-05-09T18:12:45Z</time>
      </trkpt>
      <trkpt lat="59.8325885" lon="17.6962">
        <ele>3.50195</ele>
        <time>2013-05-09T18:12:46Z</time>
      </trkpt>
      <trkpt lat="59.832551" lon="17.6962927">
        <ele>3.98267</ele>
        <time>2013-05-09T18:12:47Z</time>
      </trkpt>
      <trkpt lat="59.8325138" lon="17.6963818">
        <ele>4.46326</ele>
        <time>2013-05-09T18:12:48Z</time>
      </trkpt>
      <trkpt lat="59.8324466" lon="17.6965574">
        <ele>4.94385</ele>
        <time>2013-05-09T18:12:49Z</time>
      </trkpt>
      <trkpt lat="59.8324163" lon="17.696644">
        <ele>5.42456</ele>
        <time>2013-05-09T18:12:50Z</time>
      </trkpt>
      <trkpt lat="59.8323859" lon="17.6967328">
        <ele>5.90527</ele>
        <time>2013-05-09T18:12:51Z</time>
      </trkpt>
      <trkpt lat="59.8323548" lon="17.6968239">
        <ele>6.38586</ele>
        <time>2013-05-09T18:12:52Z</time>
      </trkpt>
      <trkpt lat="59.8323232" lon="17.6969168">
        <ele>6.38586</ele>
        <time>2013-05-09T18:12:53Z</time>
      </trkpt>
      <trkpt lat="59.8322916" lon="17.6970116">
        <ele>6.86646</ele>
        <time>2013-05-09T18:12:54Z</time>
      </trkpt>
      <trkpt lat="59.8322604" lon="17.6971083">
        <ele>6.86646</ele>
        <time>2013-05-09T18:12:55Z</time>
      </trkpt>
      <trkpt lat="59.832228" lon="17.6972059">
        <ele>6.86646</ele>
        <time>2013-05-09T18:12:56Z</time>
      </trkpt>
      <trkpt lat="59.8321952" lon="17.6973058">
        <ele>6.86646</ele>
        <time>2013-05-09T18:12:57Z</time>
      </trkpt>
      <trkpt lat="59.8321627" lon="17.697408">
        <ele>6.86646</ele>
        <time>2013-05-09T18:12:58Z</time>
      </trkpt>
      <trkpt lat="59.832131" lon="17.6975122">
        <ele>7.34717</ele>
        <time>2013-05-09T18:12:59Z</time>
      </trkpt>
      <trkpt lat="59.8320997" lon="17.6976176">
        <ele>7.34717</ele>
        <time>2013-05-09T18:13:00Z</time>
      </trkpt>
      <trkpt lat="59.8320688" lon="17.6977237">
        <ele>7.82788</ele>
        <time>2013-05-09T18:13:01Z</time>
      </trkpt>
      <trkpt lat="59.8320383" lon="17.6978301">
        <ele>8.30859</ele>
        <time>2013-05-09T18:13:02Z</time>
      </trkpt>
      <trkpt lat="59.8320078" lon="17.6979358">
        <ele>8.30859</ele>
        <time>2013-05-09T18:13:03Z</time>
      </trkpt>
      <trkpt lat="59.8319783" lon="17.6980428">
        <ele>8.30859</ele>
        <time>2013-05-09T18:13:04Z</time>
      </trkpt>
      <trkpt lat="59.8319487" lon="17.6981534">
        <ele>8.78918</ele>
        <time>2013-05-09T18:13:05Z</time>
      </trkpt>
      <trkpt lat="59.8319174" lon="17.6982683">
        <ele>8.30859</ele>
        <time>2013-05-09T18:13:06Z</time>
      </trkpt>
      <trkpt lat="59.8318835" lon="17.6983844">
        <ele>8.30859</ele>
        <time>2013-05-09T18:13:07Z</time>
      </trkpt>
      <trkpt lat="59.8318497" lon="17.6985035">
        <ele>8.30859</ele>
        <time>2013-05-09T18:13:08Z</time>
      </trkpt>
      <trkpt lat="59.8318167" lon="17.6986248">
        <ele>8.30859</ele>
        <time>2013-05-09T18:13:09Z</time>
      </trkpt>
      <trkpt lat="59.8317834" lon="17.698746">
        <ele>7.82788</ele>
        <time>2013-05-09T18:13:10Z</time>
      </trkpt>
      <trkpt lat="59.8317496" lon="17.6988657">
        <ele>7.82788</ele>
        <time>2013-05-09T18:13:11Z</time>
      </trkpt>
      <trkpt lat="59.8317162" lon="17.6989851">
        <ele>7.82788</ele>
        <time>2013-05-09T18:13:12Z</time>
      </trkpt>
      <trkpt lat="59.8316841" lon="17.6991056">
        <ele>7.82788</ele>
        <time>2013-05-09T18:13:13Z</time>
      </trkpt>
      <trkpt lat="59.8316519" lon="17.6992262">
        <ele>7.34717</ele>
        <time>2013-05-09T18:13:14Z</time>
      </trkpt>
      <trkpt lat="59.8316192" lon="17.6993464">
        <ele>7.34717</ele>
        <time>2013-05-09T18:13:15Z</time>
      </trkpt>
      <trkpt lat="59.831587" lon="17.6994665">
        <ele>7.34717</ele>
        <time>2013-05-09T18:13:16Z</time>
      </trkpt>
      <trkpt lat="59.8315555" lon="17.6995839">
        <ele>6.86646</ele>
        <time>2013-05-09T18:13:17Z</time>
      </trkpt>
      <trkpt lat="59.8315243" lon="17.6997004">
        <ele>6.86646</ele>
        <time>2013-05-09T18:13:18Z</time>
      </trkpt>
      <trkpt lat="59.8314919" lon="17.6998178">
        <ele>6.86646</ele>
        <time>2013-05-09T18:13:19Z</time>
      </trkpt>
      <trkpt lat="59.8314592" lon="17.6999357">
        <ele>6.86646</ele>
        <time>2013-05-09T18:13:20Z</time>
      </trkpt>
      <trkpt lat="59.8314256" lon="17.7000555">
        <ele>6.38586</ele>
        <time>2013-05-09T18:13:21Z</time>
      </trkpt>
      <trkpt lat="59.8313927" lon="17.7001791">
        <ele>6.38586</ele>
        <time>2013-05-09T18:13:22Z</time>
      </trkpt>
      <trkpt lat="59.8313602" lon="17.7003036">
        <ele>6.38586</ele>
        <time>2013-05-09T18:13:23Z</time>
      </trkpt>
      <trkpt lat="59.8313279" lon="17.7004285">
        <ele>6.38586</ele>
        <time>2013-05-09T18:13:24Z</time>
      </trkpt>
      <trkpt lat="59.8312944" lon="17.7005544">
        <ele>6.38586</ele>
        <time>2013-05-09T18:13:25Z</time>
      </trkpt>
      <trkpt lat="59.8312603" lon="17.7006803">
        <ele>6.38586</ele>
        <time>2013-05-09T18:13:26Z</time>
      </trkpt>
      <trkpt lat="59.8312255" lon="17.7008059">
        <ele>6.38586</ele>
        <time>2013-05-09T18:13:27Z</time>
      </trkpt>
      <trkpt lat="59.8311913" lon="17.7009325">
        <ele>6.86646</ele>
        <time>2013-05-09T18:13:28Z</time>
      </trkpt>
      <trkpt lat="59.8311583" lon="17.7010615">
        <ele>6.86646</ele>
        <time>2013-05-09T18:13:29Z</time>
      </trkpt>
      <trkpt lat="59.8311249" lon="17.701191">
        <ele>6.86646</ele>
        <time>2013-05-09T18:13:30Z</time>
      </trkpt>
      <trkpt lat="59.8310902" lon="17.7013215">
        <ele>7.34717</ele>
        <time>2013-05-09T18:13:31Z</time>
      </trkpt>
      <trkpt lat="59.8310547" lon="17.7014537">
        <ele>7.34717</ele>
        <time>2013-05-09T18:13:32Z</time>
      </trkpt>
      <trkpt lat="59.8310192" lon="17.7015865">
        <ele>7.34717</ele>
        <time>2013-05-09T18:13:33Z</time>
      </trkpt>
      <trkpt lat="59.8309844" lon="17.7017189">
        <ele>7.34717</ele>
        <time>2013-05-09T18:13:34Z</time>
      </trkpt>
      <trkpt lat="59.8309499" lon="17.7018504">
        <ele>7.34717</ele>
        <time>2013-05-09T18:13:35Z</time>
      </trkpt>
      <trkpt lat="59.8309148" lon="17.701981">
        <ele>7.82788</ele>
        <time>2013-05-09T18:13:36Z</time>
      </trkpt>
      <trkpt lat="59.8308795" lon="17.7021115">
        <ele>7.82788</ele>
        <time>2013-05-09T18:13:37Z</time>
      </trkpt>
      <trkpt lat="59.8308453" lon="17.702241">
        <ele>7.82788</ele>
        <time>2013-05-09T18:13:38Z</time>
      </trkpt>
      <trkpt lat="59.8308117" lon="17.7023694">
        <ele>7.82788</ele>
        <time>2013-05-09T18:13:39Z</time>
      </trkpt>
      <trkpt lat="59.8307785" lon="17.7024961">
        <ele>7.82788</ele>
        <time>2013-05-09T18:13:40Z</time>
      </trkpt>
      <trkpt lat="59.8307438" lon="17.702618">
        <ele>7.82788</ele>
        <time>2013-05-09T18:13:41Z</time>
      </trkpt>
      <trkpt lat="59.8307096" lon="17.7027403">
        <ele>7.82788</ele>
        <time>2013-05-09T18:13:42Z</time>
      </trkpt>
      <trkpt lat="59.8306759" lon="17.7028636">
        <ele>7.82788</ele>
        <time>2013-05-09T18:13:43Z</time>
      </trkpt>
      <trkpt lat="59.8306431" lon="17.7029879">
        <ele>8.30859</ele>
        <time>2013-05-09T18:13:44Z</time>
      </trkpt>
      <trkpt lat="59.8306101" lon="17.7031126">
        <ele>8.30859</ele>
        <time>2013-05-09T18:13:45Z</time>
      </trkpt>
      <trkpt lat="59.8305766" lon="17.7032371">
        <ele>8.30859</ele>
        <time>2013-05-09T18:13:46Z</time>
      </trkpt>
      <trkpt lat="59.8305431" lon="17.7033618">
        <ele>8.30859</ele>
        <time>2013-05-09T18:13:47Z</time>
      </trkpt>
      <trkpt lat="59.83051" lon="17.7034863">
        <ele>8.30859</ele>
        <time>2013-05-09T18:13:48Z</time>
      </trkpt>
      <trkpt lat="59.8304769" lon="17.7036094">
        <ele>8.78918</ele>
        <time>2013-05-09T18:13:49Z</time>
      </trkpt>
      <trkpt lat="59.8304443" lon="17.7037326">
        <ele>8.78918</ele>
        <time>2013-05-09T18:13:50Z</time>
      </trkpt>
      <trkpt lat="59.830412" lon="17.7038555">
        <ele>9.2699</ele>
        <time>2013-05-09T18:13:51Z</time>
      </trkpt>
      <trkpt lat="59.8303796" lon="17.7039779">
        <ele>9.75061</ele>
        <time>2013-05-09T18:13:52Z</time>
      </trkpt>
      <trkpt lat="59.8303465" lon="17.7041007">
        <ele>9.75061</ele>
        <time>2013-05-09T18:13:53Z</time>
      </trkpt>
      <trkpt lat="59.8303126" lon="17.7042242">
        <ele>10.2312</ele>
        <time>2013-05-09T18:13:54Z</time>
      </trkpt>
      <trkpt lat="59.8302787" lon="17.7043492">
        <ele>10.2312</ele>
        <time>2013-05-09T18:13:55Z</time>
      </trkpt>
      <trkpt lat="59.8302445" lon="17.704478">
        <ele>10.7118</ele>
        <time>2013-05-09T18:13:56Z</time>
      </trkpt>
      <trkpt lat="59.8302102" lon="17.7046109">
        <ele>10.7118</ele>
        <time>2013-05-09T18:13:57Z</time>
      </trkpt>
      <trkpt lat="59.830175" lon="17.7047453">
        <ele>10.7118</ele>
        <time>2013-05-09T18:13:58Z</time>
      </trkpt>
      <trkpt lat="59.8301394" lon="17.7048782">
        <ele>11.1925</ele>
        <time>2013-05-09T18:13:59Z</time>
      </trkpt>
      <trkpt lat="59.8301043" lon="17.7050118">
        <ele>11.1925</ele>
        <time>2013-05-09T18:14:00Z</time>
      </trkpt>
      <trkpt lat="59.8300686" lon="17.7051463">
        <ele>11.6732</ele>
        <time>2013-05-09T18:14:01Z</time>
      </trkpt>
      <trkpt lat="59.8300324" lon="17.7052805">
        <ele>11.6732</ele>
        <time>2013-05-09T18:14:02Z</time>
      </trkpt>
      <trkpt lat="59.8299968" lon="17.7054141">
        <ele>11.6732</ele>
        <time>2013-05-09T18:14:03Z</time>
      </trkpt>
      <trkpt lat="59.829961" lon="17.705549">
        <ele>11.6732</ele>
        <time>2013-05-09T18:14:04Z</time>
      </trkpt>
      <trkpt lat="59.8299249" lon="17.7056872">
        <ele>12.1538</ele>
        <time>2013-05-09T18:14:05Z</time>
      </trkpt>
      <trkpt lat="59.829889" lon="17.7058262">
        <ele>12.1538</ele>
        <time>2013-05-09T18:14:06Z</time>
      </trkpt>
      <trkpt lat="59.8298529" lon="17.7059637">
        <ele>12.1538</ele>
        <time>2013-05-09T18:14:07Z</time>
      </trkpt>
      <trkpt lat="59.8298171" lon="17.7061001">
        <ele>12.6344</ele>
        <time>2013-05-09T18:14:08Z</time>
      </trkpt>
      <trkpt lat="59.8297818" lon="17.7062364">
        <ele>12.6344</ele>
        <time>2013-05-09T18:14:09Z</time>
      </trkpt>
      <trkpt lat="59.8297461" lon="17.7063712">
        <ele>12.6344</ele>
        <time>2013-05-09T18:14:10Z</time>
      </trkpt>
      <trkpt lat="59.8297104" lon="17.7065053">
        <ele>12.6344</ele>
        <time>2013-05-09T18:14:11Z</time>
      </trkpt>
      <trkpt lat="59.8296751" lon="17.7066402">
        <ele>12.6344</ele>
        <time>2013-05-09T18:14:12Z</time>
      </trkpt>
      <trkpt lat="59.8296397" lon="17.7067766">
        <ele>12.6344</ele>
        <time>2013-05-09T18:14:13Z</time>
      </trkpt>
      <trkpt lat="59.8296041" lon="17.7069142">
        <ele>13.1151</ele>
        <time>2013-05-09T18:14:14Z</time>
      </trkpt>
      <trkpt lat="59.8295687" lon="17.7070512">
        <ele>13.1151</ele>
        <time>2013-05-09T18:14:15Z</time>
      </trkpt>
      <trkpt lat="59.8295337" lon="17.7071876">
        <ele>13.1151</ele>
        <time>2013-05-09T18:14:16Z</time>
      </trkpt>
      <trkpt lat="59.8294983" lon="17.7073226">
        <ele>13.1151</ele>
        <time>2013-05-09T18:14:17Z</time>
      </trkpt>
      <trkpt lat="59.8294622" lon="17.7074561">
        <ele>13.1151</ele>
        <time>2013-05-09T18:14:18Z</time>
      </trkpt>
      <trkpt lat="59.8294268" lon="17.7075892">
        <ele>13.1151</ele>
        <time>2013-05-09T18:14:19Z</time>
      </trkpt>
      <trkpt lat="59.8293926" lon="17.7077223">
        <ele>13.1151</ele>
        <time>2013-05-09T18:14:20Z</time>
      </trkpt>
      <trkpt lat="59.8293592" lon="17.7078551">
        <ele>13.1151</ele>
        <time>2013-05-09T18:14:21Z</time>
      </trkpt>
      <trkpt lat="59.8293245" lon="17.7079827">
        <ele>13.1151</ele>
        <time>2013-05-09T18:14:22Z</time>
      </trkpt>
      <trkpt lat="59.8292902" lon="17.7081131">
        <ele>13.5958</ele>
        <time>2013-05-09T18:14:23Z</time>
      </trkpt>
      <trkpt lat="59.8292575" lon="17.7082453">
        <ele>13.5958</ele>
        <time>2013-05-09T18:14:24Z</time>
      </trkpt>
      <trkpt lat="59.8292263" lon="17.7083803">
        <ele>13.5958</ele>
        <time>2013-05-09T18:14:25Z</time>
      </trkpt>
      <trkpt lat="59.8291971" lon="17.708517">
        <ele>13.5958</ele>
        <time>2013-05-09T18:14:26Z</time>
      </trkpt>
      <trkpt lat="59.8291702" lon="17.7086539">
        <ele>13.5958</ele>
        <time>2013-05-09T18:14:27Z</time>
      </trkpt>
      <trkpt lat="59.8291457" lon="17.7087902">
        <ele>14.0764</ele>
        <time>2013-05-09T18:14:28Z</time>
      </trkpt>
      <trkpt lat="59.8291222" lon="17.7089269">
        <ele>14.0764</ele>
        <time>2013-05-09T18:14:29Z</time>
      </trkpt>
      <trkpt lat="59.8290989" lon="17.7090622">
        <ele>14.0764</ele>
        <time>2013-05-09T18:14:30Z</time>
      </trkpt>
      <trkpt lat="59.8290764" lon="17.7091962">
        <ele>13.5958</ele>
        <time>2013-05-09T18:14:31Z</time>
      </trkpt>
      <trkpt lat="59.8290562" lon="17.7093295">
        <ele>14.0764</ele>
        <time>2013-05-09T18:14:32Z</time>
      </trkpt>
      <trkpt lat="59.8290347" lon="17.709458">
        <ele>13.5958</ele>
        <time>2013-05-09T18:14:33Z</time>
      </trkpt>
      <trkpt lat="59.8290131" lon="17.7095833">
        <ele>13.5958</ele>
        <time>2013-05-09T18:14:34Z</time>
      </trkpt>
      <trkpt lat="59.8289918" lon="17.7097071">
        <ele>13.5958</ele>
        <time>2013-05-09T18:14:35Z</time>
      </trkpt>
      <trkpt lat="59.8289713" lon="17.7098298">
        <ele>13.5958</ele>
        <time>2013-05-09T18:14:36Z</time>
      </trkpt>
      <trkpt lat="59.8289519" lon="17.7099515">
        <ele>13.5958</ele>
        <time>2013-05-09T18:14:37Z</time>
      </trkpt>
      <trkpt lat="59.8289332" lon="17.7100744">
        <ele>13.5958</ele>
        <time>2013-05-09T18:14:38Z</time>
      </trkpt>
      <trkpt lat="59.8289147" lon="17.7101991">
        <ele>13.5958</ele>
        <time>2013-05-09T18:14:39Z</time>
      </trkpt>
      <trkpt lat="59.828896" lon="17.7103233">
        <ele>13.5958</ele>
        <time>2013-05-09T18:14:40Z</time>
      </trkpt>
      <trkpt lat="59.8288764" lon="17.7104471">
        <ele>13.5958</ele>
        <time>2013-05-09T18:14:41Z</time>
      </trkpt>
      <trkpt lat="59.8288572" lon="17.7105716">
        <ele>13.5958</ele>
        <time>2013-05-09T18:14:42Z</time>
      </trkpt>
      <trkpt lat="59.828838" lon="17.7106965">
        <ele>13.5958</ele>
        <time>2013-05-09T18:14:43Z</time>
      </trkpt>
      <trkpt lat="59.8288188" lon="17.7108213">
        <ele>13.5958</ele>
        <time>2013-05-09T18:14:44Z</time>
      </trkpt>
      <trkpt lat="59.8287997" lon="17.7109459">
        <ele>13.5958</ele>
        <time>2013-05-09T18:14:45Z</time>
      </trkpt>
      <trkpt lat="59.8287795" lon="17.7110715">
        <ele>13.5958</ele>
        <time>2013-05-09T18:14:46Z</time>
      </trkpt>
      <trkpt lat="59.8287593" lon="17.7111979">
        <ele>13.5958</ele>
        <time>2013-05-09T18:14:47Z</time>
      </trkpt>
      <trkpt lat="59.8287395" lon="17.7113257">
        <ele>13.5958</ele>
        <time>2013-05-09T18:14:48Z</time>
      </trkpt>
      <trkpt lat="59.8287172" lon="17.7114553">
        <ele>13.1151</ele>
        <time>2013-05-09T18:14:49Z</time>
      </trkpt>
      <trkpt lat="59.8286957" lon="17.71159">
        <ele>12.6344</ele>
        <time>2013-05-09T18:14:50Z</time>
      </trkpt>
      <trkpt lat="59.8286757" lon="17.7117247">
        <ele>12.6344</ele>
        <time>2013-05-09T18:14:51Z</time>
      </trkpt>
      <trkpt lat="59.8286544" lon="17.7118572">
        <ele>12.1538</ele>
        <time>2013-05-09T18:14:52Z</time>
      </trkpt>
      <trkpt lat="59.8286327" lon="17.7119882">
        <ele>12.1538</ele>
        <time>2013-05-09T18:14:53Z</time>
      </trkpt>
      <trkpt lat="59.8286116" lon="17.71212">
        <ele>12.1538</ele>
        <time>2013-05-09T18:14:54Z</time>
      </trkpt>
      <trkpt lat="59.8285903" lon="17.7122525">
        <ele>12.1538</ele>
        <time>2013-05-09T18:14:55Z</time>
      </trkpt>
      <trkpt lat="59.8285696" lon="17.7123826">
        <ele>12.1538</ele>
        <time>2013-05-09T18:14:56Z</time>
      </trkpt>
      <trkpt lat="59.8285484" lon="17.7125134">
        <ele>12.1538</ele>
        <time>2013-05-09T18:14:57Z</time>
      </trkpt>
      <trkpt lat="59.8285267" lon="17.7126427">
        <ele>12.1538</ele>
        <time>2013-05-09T18:14:58Z</time>
      </trkpt>
      <trkpt lat="59.8285054" lon="17.712772">
        <ele>12.1538</ele>
        <time>2013-05-09T18:14:59Z</time>
      </trkpt>
      <trkpt lat="59.8284842" lon="17.7129015">
        <ele>12.1538</ele>
        <time>2013-05-09T18:15:00Z</time>
      </trkpt>
      <trkpt lat="59.8284628" lon="17.7130306">
        <ele>12.1538</ele>
        <time>2013-05-09T18:15:01Z</time>
      </trkpt>
      <trkpt lat="59.8284416" lon="17.7131606">
        <ele>12.1538</ele>
        <time>2013-05-09T18:15:02Z</time>
      </trkpt>
      <trkpt lat="59.8284205" lon="17.713291">
        <ele>12.1538</ele>
        <time>2013-05-09T18:15:03Z</time>
      </trkpt>
      <trkpt lat="59.8283986" lon="17.7134212">
        <ele>12.1538</ele>
        <time>2013-05-09T18:15:04Z</time>
      </trkpt>
      <trkpt lat="59.8283774" lon="17.7135513">
        <ele>12.1538</ele>
        <time>2013-05-09T18:15:05Z</time>
      </trkpt>
      <trkpt lat="59.8283566" lon="17.7136803">
        <ele>12.1538</ele>
        <time>2013-05-09T18:15:06Z</time>
      </trkpt>
      <trkpt lat="59.8283362" lon="17.7138097">
        <ele>12.1538</ele>
        <time>2013-05-09T18:15:07Z</time>
      </trkpt>
      <trkpt lat="59.8283169" lon="17.7139403">
        <ele>12.1538</ele>
        <time>2013-05-09T18:15:08Z</time>
      </trkpt>
      <trkpt lat="59.8282967" lon="17.7140723">
        <ele>12.1538</ele>
        <time>2013-05-09T18:15:09Z</time>
      </trkpt>
      <trkpt lat="59.8282755" lon="17.7142049">
        <ele>12.1538</ele>
        <time>2013-05-09T18:15:10Z</time>
      </trkpt>
      <trkpt lat="59.8282536" lon="17.7143379">
        <ele>11.6732</ele>
        <time>2013-05-09T18:15:11Z</time>
      </trkpt>
      <trkpt lat="59.8282308" lon="17.7144707">
        <ele>11.6732</ele>
        <time>2013-05-09T18:15:12Z</time>
      </trkpt>
      <trkpt lat="59.8282075" lon="17.7146036">
        <ele>11.6732</ele>
        <time>2013-05-09T18:15:13Z</time>
      </trkpt>
      <trkpt lat="59.8281843" lon="17.7147378">
        <ele>11.6732</ele>
        <time>2013-05-09T18:15:14Z</time>
      </trkpt>
      <trkpt lat="59.8281619" lon="17.7148721">
        <ele>11.6732</ele>
        <time>2013-05-09T18:15:15Z</time>
      </trkpt>
      <trkpt lat="59.8281395" lon="17.715005">
        <ele>11.6732</ele>
        <time>2013-05-09T18:15:16Z</time>
      </trkpt>
      <trkpt lat="59.8281168" lon="17.7151359">
        <ele>11.6732</ele>
        <time>2013-05-09T18:15:17Z</time>
      </trkpt>
      <trkpt lat="59.8280939" lon="17.7152668">
        <ele>12.1538</ele>
        <time>2013-05-09T18:15:18Z</time>
      </trkpt>
      <trkpt lat="59.8280714" lon="17.7153965">
        <ele>12.1538</ele>
        <time>2013-05-09T18:15:19Z</time>
      </trkpt>
      <trkpt lat="59.8280496" lon="17.7155223">
        <ele>12.1538</ele>
        <time>2013-05-09T18:15:20Z</time>
      </trkpt>
      <trkpt lat="59.8280268" lon="17.7156479">
        <ele>12.1538</ele>
        <time>2013-05-09T18:15:21Z</time>
      </trkpt>
      <trkpt lat="59.8280039" lon="17.7157735">
        <ele>12.1538</ele>
        <time>2013-05-09T18:15:22Z</time>
      </trkpt>
      <trkpt lat="59.8279819" lon="17.7159004">
        <ele>12.1538</ele>
        <time>2013-05-09T18:15:23Z</time>
      </trkpt>
      <trkpt lat="59.8279606" lon="17.7160267">
        <ele>12.1538</ele>
        <time>2013-05-09T18:15:24Z</time>
      </trkpt>
      <trkpt lat="59.8279388" lon="17.7161515">
        <ele>12.1538</ele>
        <time>2013-05-09T18:15:25Z</time>
      </trkpt>
      <trkpt lat="59.8279165" lon="17.7162763">
        <ele>11.6732</ele>
        <time>2013-05-09T18:15:26Z</time>
      </trkpt>
      <trkpt lat="59.8278941" lon="17.7164014">
        <ele>11.6732</ele>
        <time>2013-05-09T18:15:27Z</time>
      </trkpt>
      <trkpt lat="59.8278718" lon="17.7165275">
        <ele>11.6732</ele>
        <time>2013-05-09T18:15:28Z</time>
      </trkpt>
      <trkpt lat="59.827849" lon="17.7166537">
        <ele>11.6732</ele>
        <time>2013-05-09T18:15:29Z</time>
      </trkpt>
      <trkpt lat="59.8278264" lon="17.7167804">
        <ele>11.6732</ele>
        <time>2013-05-09T18:15:30Z</time>
      </trkpt>
      <trkpt lat="59.8278045" lon="17.7169083">
        <ele>11.6732</ele>
        <time>2013-05-09T18:15:31Z</time>
      </trkpt>
      <trkpt lat="59.8277824" lon="17.7170372">
        <ele>11.6732</ele>
        <time>2013-05-09T18:15:32Z</time>
      </trkpt>
      <trkpt lat="59.8277603" lon="17.717166">
        <ele>11.6732</ele>
        <time>2013-05-09T18:15:33Z</time>
      </trkpt>
      <trkpt lat="59.8277377" lon="17.7172949">
        <ele>11.6732</ele>
        <time>2013-05-09T18:15:34Z</time>
      </trkpt>
      <trkpt lat="59.8277148" lon="17.7174243">
        <ele>11.6732</ele>
        <time>2013-05-09T18:15:35Z</time>
      </trkpt>
      <trkpt lat="59.8276917" lon="17.7175529">
        <ele>11.6732</ele>
        <time>2013-05-09T18:15:36Z</time>
      </trkpt>
      <trkpt lat="59.8276685" lon="17.7176802">
        <ele>11.6732</ele>
        <time>2013-05-09T18:15:37Z</time>
      </trkpt>
      <trkpt lat="59.8276456" lon="17.7178068">
        <ele>11.6732</ele>
        <time>2013-05-09T18:15:38Z</time>
      </trkpt>
      <trkpt lat="59.8276229" lon="17.7179335">
        <ele>11.6732</ele>
        <time>2013-05-09T18:15:39Z</time>
      </trkpt>
      <trkpt lat="59.8276005" lon="17.7180598">
        <ele>11.6732</ele>
        <time>2013-05-09T18:15:40Z</time>
      </trkpt>
      <trkpt lat="59.8275787" lon="17.7181848">
        <ele>11.6732</ele>
        <time>2013-05-09T18:15:41Z</time>
      </trkpt>
      <trkpt lat="59.827557" lon="17.7183091">
        <ele>11.6732</ele>
        <time>2013-05-09T18:15:42Z</time>
      </trkpt>
      <trkpt lat="59.8275356" lon="17.7184328">
        <ele>11.6732</ele>
        <time>2013-05-09T18:15:43Z</time>
      </trkpt>
      <trkpt lat="59.827514" lon="17.7185558">
        <ele>11.6732</ele>
        <time>2013-05-09T18:15:44Z</time>
      </trkpt>
      <trkpt lat="59.8274929" lon="17.7186786">
        <ele>11.6732</ele>
        <time>2013-05-09T18:15:45Z</time>
      </trkpt>
      <trkpt lat="59.8274718" lon="17.7188023">
        <ele>11.6732</ele>
        <time>2013-05-09T18:15:46Z</time>
      </trkpt>
      <trkpt lat="59.8274509" lon="17.7189272">
        <ele>11.6732</ele>
        <time>2013-05-09T18:15:47Z</time>
      </trkpt>
      <trkpt lat="59.8274304" lon="17.7190519">
        <ele>11.6732</ele>
        <time>2013-05-09T18:15:48Z</time>
      </trkpt>
      <trkpt lat="59.8274093" lon="17.7191704">
        <ele>11.6732</ele>
        <time>2013-05-09T18:15:49Z</time>
      </trkpt>
      <trkpt lat="59.8273876" lon="17.7192897">
        <ele>12.1538</ele>
        <time>2013-05-09T18:15:50Z</time>
      </trkpt>
      <trkpt lat="59.8273662" lon="17.7194121">
        <ele>12.1538</ele>
        <time>2013-05-09T18:15:51Z</time>
      </trkpt>
      <trkpt lat="59.8273451" lon="17.7195342">
        <ele>11.6732</ele>
        <time>2013-05-09T18:15:52Z</time>
      </trkpt>
      <trkpt lat="59.8273239" lon="17.7196573">
        <ele>11.6732</ele>
        <time>2013-05-09T18:15:53Z</time>
      </trkpt>
      <trkpt lat="59.8273031" lon="17.7197811">
        <ele>11.6732</ele>
        <time>2013-05-09T18:15:54Z</time>
      </trkpt>
      <trkpt lat="59.8272819" lon="17.7199042">
        <ele>11.6732</ele>
        <time>2013-05-09T18:15:55Z</time>
      </trkpt>
      <trkpt lat="59.82726" lon="17.7200251">
        <ele>11.6732</ele>
        <time>2013-05-09T18:15:56Z</time>
      </trkpt>
      <trkpt lat="59.8272374" lon="17.720146">
        <ele>11.6732</ele>
        <time>2013-05-09T18:15:57Z</time>
      </trkpt>
      <trkpt lat="59.8272162" lon="17.7202688">
        <ele>11.1925</ele>
        <time>2013-05-09T18:15:58Z</time>
      </trkpt>
      <trkpt lat="59.8271962" lon="17.7203904">
        <ele>11.1925</ele>
        <time>2013-05-09T18:15:59Z</time>
      </trkpt>
      <trkpt lat="59.8271752" lon="17.7205107">
        <ele>10.7118</ele>
        <time>2013-05-09T18:16:00Z</time>
      </trkpt>
      <trkpt lat="59.827153" lon="17.720632">
        <ele>10.7118</ele>
        <time>2013-05-09T18:16:01Z</time>
      </trkpt>
      <trkpt lat="59.8271307" lon="17.7207545">
        <ele>10.7118</ele>
        <time>2013-05-09T18:16:02Z</time>
      </trkpt>
      <trkpt lat="59.8271079" lon="17.7208785">
        <ele>10.7118</ele>
        <time>2013-05-09T18:16:03Z</time>
      </trkpt>
      <trkpt lat="59.8270854" lon="17.7210043">
        <ele>10.7118</ele>
        <time>2013-05-09T18:16:04Z</time>
      </trkpt>
      <trkpt lat="59.8270639" lon="17.7211311">
        <ele>10.7118</ele>
        <time>2013-05-09T18:16:05Z</time>
      </trkpt>
      <trkpt lat="59.8270429" lon="17.721257">
        <ele>10.7118</ele>
        <time>2013-05-09T18:16:06Z</time>
      </trkpt>
      <trkpt lat="59.8270206" lon="17.721382">
        <ele>10.7118</ele>
        <time>2013-05-09T18:16:07Z</time>
      </trkpt>
      <trkpt lat="59.826998" lon="17.7215063">
        <ele>11.1925</ele>
        <time>2013-05-09T18:16:08Z</time>
      </trkpt>
      <trkpt lat="59.8269759" lon="17.7216294">
        <ele>11.1925</ele>
        <time>2013-05-09T18:16:09Z</time>
      </trkpt>
      <trkpt lat="59.8269545" lon="17.7217526">
        <ele>11.1925</ele>
        <time>2013-05-09T18:16:10Z</time>
      </trkpt>
      <trkpt lat="59.8269333" lon="17.7218752">
        <ele>11.1925</ele>
        <time>2013-05-09T18:16:11Z</time>
      </trkpt>
      <trkpt lat="59.826912" lon="17.7219953">
        <ele>11.1925</ele>
        <time>2013-05-09T18:16:12Z</time>
      </trkpt>
      <trkpt lat="59.8268912" lon="17.7221153">
        <ele>11.1925</ele>
        <time>2013-05-09T18:16:13Z</time>
      </trkpt>
      <trkpt lat="59.8268702" lon="17.722235">
        <ele>11.1925</ele>
        <time>2013-05-09T18:16:14Z</time>
      </trkpt>
      <trkpt lat="59.826849" lon="17.722353">
        <ele>11.1925</ele>
        <time>2013-05-09T18:16:15Z</time>
      </trkpt>
      <trkpt lat="59.8268276" lon="17.7224712">
        <ele>11.1925</ele>
        <time>2013-05-09T18:16:16Z</time>
      </trkpt>
      <trkpt lat="59.8268069" lon="17.722591">
        <ele>11.1925</ele>
        <time>2013-05-09T18:16:17Z</time>
      </trkpt>
      <trkpt lat="59.8267861" lon="17.7227128">
        <ele>11.1925</ele>
        <time>2013-05-09T18:16:18Z</time>
      </trkpt>
      <trkpt lat="59.8267651" lon="17.7228346">
        <ele>11.6732</ele>
        <time>2013-05-09T18:16:19Z</time>
      </trkpt>
      <trkpt lat="59.8267436" lon="17.7229562">
        <ele>11.1925</ele>
        <time>2013-05-09T18:16:20Z</time>
      </trkpt>
      <trkpt lat="59.8267223" lon="17.7230795">
        <ele>11.1925</ele>
        <time>2013-05-09T18:16:21Z</time>
      </trkpt>
      <trkpt lat="59.8267013" lon="17.7232043">
        <ele>11.1925</ele>
        <time>2013-05-09T18:16:22Z</time>
      </trkpt>
      <trkpt lat="59.8266805" lon="17.7233295">
        <ele>11.1925</ele>
        <time>2013-05-09T18:16:23Z</time>
      </trkpt>
      <trkpt lat="59.8266594" lon="17.7234548">
        <ele>11.1925</ele>
        <time>2013-05-09T18:16:24Z</time>
      </trkpt>
      <trkpt lat="59.8266389" lon="17.72358">
        <ele>11.1925</ele>
        <time>2013-05-09T18:16:25Z</time>
      </trkpt>
      <trkpt lat="59.8266188" lon="17.7237042">
        <ele>11.1925</ele>
        <time>2013-05-09T18:16:26Z</time>
      </trkpt>
      <trkpt lat="59.8265993" lon="17.7238285">
        <ele>11.6732</ele>
        <time>2013-05-09T18:16:27Z</time>
      </trkpt>
      <trkpt lat="59.8265795" lon="17.7239519">
        <ele>11.6732</ele>
        <time>2013-05-09T18:16:28Z</time>
      </trkpt>
      <trkpt lat="59.8265603" lon="17.7240744">
        <ele>11.6732</ele>
        <time>2013-05-09T18:16:29Z</time>
      </trkpt>
      <trkpt lat="59.8265423" lon="17.7241971">
        <ele>11.6732</ele>
        <time>2013-05-09T18:16:30Z</time>
      </trkpt>
      <trkpt lat="59.8265252" lon="17.7243201">
        <ele>11.6732</ele>
        <time>2013-05-09T18:16:31Z</time>
      </trkpt>
      <trkpt lat="59.8265104" lon="17.7244429">
        <ele>11.6732</ele>
        <time>2013-05-09T18:16:32Z</time>
      </trkpt>
      <trkpt lat="59.8264969" lon="17.724565">
        <ele>11.6732</ele>
        <time>2013-05-09T18:16:33Z</time>
      </trkpt>
      <trkpt lat="59.8264833" lon="17.7246849">
        <ele>11.6732</ele>
        <time>2013-05-09T18:16:34Z</time>
      </trkpt>
      <trkpt lat="59.8264697" lon="17.724804">
        <ele>11.6732</ele>
        <time>2013-05-09T18:16:35Z</time>
      </trkpt>
      <trkpt lat="59.8264578" lon="17.7249241">
        <ele>12.1538</ele>
        <time>2013-05-09T18:16:36Z</time>
      </trkpt>
      <trkpt lat="59.8264475" lon="17.7250447">
        <ele>12.1538</ele>
        <time>2013-05-09T18:16:37Z</time>
      </trkpt>
      <trkpt lat="59.8264387" lon="17.7251664">
        <ele>11.6732</ele>
        <time>2013-05-09T18:16:38Z</time>
      </trkpt>
      <trkpt lat="59.8264308" lon="17.7252896">
        <ele>11.6732</ele>
        <time>2013-05-09T18:16:39Z</time>
      </trkpt>
      <trkpt lat="59.8264236" lon="17.7254126">
        <ele>11.6732</ele>
        <time>2013-05-09T18:16:40Z</time>
      </trkpt>
      <trkpt lat="59.8264173" lon="17.725536">
        <ele>11.6732</ele>
        <time>2013-05-09T18:16:41Z</time>
      </trkpt>
      <trkpt lat="59.8264116" lon="17.7256616">
        <ele>11.6732</ele>
        <time>2013-05-09T18:16:42Z</time>
      </trkpt>
      <trkpt lat="59.8264065" lon="17.7257881">
        <ele>12.1538</ele>
        <time>2013-05-09T18:16:43Z</time>
      </trkpt>
      <trkpt lat="59.8264018" lon="17.7259155">
        <ele>12.1538</ele>
        <time>2013-05-09T18:16:44Z</time>
      </trkpt>
      <trkpt lat="59.8263972" lon="17.7260447">
        <ele>12.1538</ele>
        <time>2013-05-09T18:16:45Z</time>
      </trkpt>
      <trkpt lat="59.826393" lon="17.7261746">
        <ele>12.1538</ele>
        <time>2013-05-09T18:16:46Z</time>
      </trkpt>
      <trkpt lat="59.8263892" lon="17.726305">
        <ele>12.1538</ele>
        <time>2013-05-09T18:16:47Z</time>
      </trkpt>
      <trkpt lat="59.8263858" lon="17.7264362">
        <ele>12.1538</ele>
        <time>2013-05-09T18:16:48Z</time>
      </trkpt>
      <trkpt lat="59.8263817" lon="17.7265678">
        <ele>12.1538</ele>
        <time>2013-05-09T18:16:49Z</time>
      </trkpt>
      <trkpt lat="59.8263767" lon="17.7266981">
        <ele>12.1538</ele>
        <time>2013-05-09T18:16:50Z</time>
      </trkpt>
      <trkpt lat="59.8263727" lon="17.7268278">
        <ele>12.6344</ele>
        <time>2013-05-09T18:16:51Z</time>
      </trkpt>
      <trkpt lat="59.8263686" lon="17.7269577">
        <ele>12.6344</ele>
        <time>2013-05-09T18:16:52Z</time>
      </trkpt>
      <trkpt lat="59.8263641" lon="17.7270867">
        <ele>12.6344</ele>
        <time>2013-05-09T18:16:53Z</time>
      </trkpt>
      <trkpt lat="59.8263588" lon="17.7272142">
        <ele>12.6344</ele>
        <time>2013-05-09T18:16:54Z</time>
      </trkpt>
      <trkpt lat="59.8263534" lon="17.7273402">
        <ele>13.1151</ele>
        <time>2013-05-09T18:16:55Z</time>
      </trkpt>
      <trkpt lat="59.8263484" lon="17.727466">
        <ele>13.1151</ele>
        <time>2013-05-09T18:16:56Z</time>
      </trkpt>
      <trkpt lat="59.8263437" lon="17.7275927">
        <ele>13.1151</ele>
        <time>2013-05-09T18:16:57Z</time>
      </trkpt>
      <trkpt lat="59.8263389" lon="17.7277198">
        <ele>13.1151</ele>
        <time>2013-05-09T18:16:58Z</time>
      </trkpt>
      <trkpt lat="59.8263348" lon="17.7278479">
        <ele>13.1151</ele>
        <time>2013-05-09T18:16:59Z</time>
      </trkpt>
      <trkpt lat="59.8263308" lon="17.7279755">
        <ele>13.5958</ele>
        <time>2013-05-09T18:17:00Z</time>
      </trkpt>
      <trkpt lat="59.8263266" lon="17.7281005">
        <ele>13.5958</ele>
        <time>2013-05-09T18:17:01Z</time>
      </trkpt>
      <trkpt lat="59.826322" lon="17.7282232">
        <ele>13.5958</ele>
        <time>2013-05-09T18:17:02Z</time>
      </trkpt>
      <trkpt lat="59.8263163" lon="17.728345">
        <ele>13.5958</ele>
        <time>2013-05-09T18:17:03Z</time>
      </trkpt>
      <trkpt lat="59.8263096" lon="17.7284661">
        <ele>13.5958</ele>
        <time>2013-05-09T18:17:04Z</time>
      </trkpt>
      <trkpt lat="59.8263018" lon="17.728587">
        <ele>13.5958</ele>
        <time>2013-05-09T18:17:05Z</time>
      </trkpt>
      <trkpt lat="59.8262936" lon="17.7287082">
        <ele>13.1151</ele>
        <time>2013-05-09T18:17:06Z</time>
      </trkpt>
      <trkpt lat="59.8262837" lon="17.7288288">
        <ele>13.5958</ele>
        <time>2013-05-09T18:17:07Z</time>
      </trkpt>
      <trkpt lat="59.8262713" lon="17.7289485">
        <ele>13.5958</ele>
        <time>2013-05-09T18:17:08Z</time>
      </trkpt>
      <trkpt lat="59.8262561" lon="17.7290683">
        <ele>13.5958</ele>
        <time>2013-05-09T18:17:09Z</time>
      </trkpt>
      <trkpt lat="59.8262379" lon="17.7291884">
        <ele>13.1151</ele>
        <time>2013-05-09T18:17:10Z</time>
      </trkpt>
      <trkpt lat="59.8262177" lon="17.7293076">
        <ele>13.1151</ele>
        <time>2013-05-09T18:17:11Z</time>
      </trkpt>
      <trkpt lat="59.8261956" lon="17.7294261">
        <ele>13.1151</ele>
        <time>2013-05-09T18:17:12Z</time>
      </trkpt>
      <trkpt lat="59.8261703" lon="17.7295425">
        <ele>13.1151</ele>
        <time>2013-05-09T18:17:13Z</time>
      </trkpt>
      <trkpt lat="59.8261413" lon="17.729655">
        <ele>13.1151</ele>
        <time>2013-05-09T18:17:14Z</time>
      </trkpt>
      <trkpt lat="59.8261092" lon="17.7297633">
        <ele>13.1151</ele>
        <time>2013-05-09T18:17:15Z</time>
      </trkpt>
      <trkpt lat="59.8260745" lon="17.7298666">
        <ele>12.6344</ele>
        <time>2013-05-09T18:17:16Z</time>
      </trkpt>
      <trkpt lat="59.8260377" lon="17.7299665">
        <ele>12.6344</ele>
        <time>2013-05-09T18:17:17Z</time>
      </trkpt>
      <trkpt lat="59.8259992" lon="17.7300655">
        <ele>12.6344</ele>
        <time>2013-05-09T18:17:18Z</time>
      </trkpt>
      <trkpt lat="59.8259583" lon="17.7301632">
        <ele>12.6344</ele>
        <time>2013-05-09T18:17:19Z</time>
      </trkpt>
      <trkpt lat="59.8259143" lon="17.7302566">
        <ele>12.6344</ele>
        <time>2013-05-09T18:17:20Z</time>
      </trkpt>
      <trkpt lat="59.8258683" lon="17.7303456">
        <ele>12.1538</ele>
        <time>2013-05-09T18:17:21Z</time>
      </trkpt>
      <trkpt lat="59.825821" lon="17.7304296">
        <ele>12.1538</ele>
        <time>2013-05-09T18:17:22Z</time>
      </trkpt>
      <trkpt lat="59.8257616" lon="17.730517">
        <ele>11.1925</ele>
        <time>2013-05-09T18:17:23Z</time>
      </trkpt>
      <trkpt lat="59.8257072" lon="17.7305972">
        <ele>10.7118</ele>
        <time>2013-05-09T18:17:24Z</time>
      </trkpt>
      <trkpt lat="59.8256544" lon="17.7306717">
        <ele>10.2312</ele>
        <time>2013-05-09T18:17:25Z</time>
      </trkpt>
      <trkpt lat="59.8256035" lon="17.7307415">
        <ele>9.75061</ele>
        <time>2013-05-09T18:17:26Z</time>
      </trkpt>
      <trkpt lat="59.8255532" lon="17.7308082">
        <ele>9.75061</ele>
        <time>2013-05-09T18:17:27Z</time>
      </trkpt>
      <trkpt lat="59.8255035" lon="17.7308727">
        <ele>9.2699</ele>
        <time>2013-05-09T18:17:28Z</time>
      </trkpt>
      <trkpt lat="59.825455" lon="17.7309195">
        <ele>8.78918</ele>
        <time>2013-05-09T18:17:29Z</time>
      </trkpt>
      <trkpt lat="59.8254066" lon="17.7309805">
        <ele>8.78918</ele>
        <time>2013-05-09T18:17:30Z</time>
      </trkpt>
      <trkpt lat="59.8253585" lon="17.7310428">
        <ele>8.30859</ele>
        <time>2013-05-09T18:17:31Z</time>
      </trkpt>
      <trkpt lat="59.8253118" lon="17.731105">
        <ele>7.82788</ele>
        <time>2013-05-09T18:17:32Z</time>
      </trkpt>
      <trkpt lat="59.8252664" lon="17.7311656">
        <ele>7.82788</ele>
        <time>2013-05-09T18:17:33Z</time>
      </trkpt>
      <trkpt lat="59.8252202" lon="17.7312288">
        <ele>7.34717</ele>
        <time>2013-05-09T18:17:34Z</time>
      </trkpt>
      <trkpt lat="59.8251677" lon="17.7312776">
        <ele>7.34717</ele>
        <time>2013-05-09T18:17:35Z</time>
      </trkpt>
      <trkpt lat="59.8251181" lon="17.7313328">
        <ele>6.86646</ele>
        <time>2013-05-09T18:17:36Z</time>
      </trkpt>
      <trkpt lat="59.8250701" lon="17.7313904">
        <ele>6.86646</ele>
        <time>2013-05-09T18:17:37Z</time>
      </trkpt>
      <trkpt lat="59.8250243" lon="17.7314473">
        <ele>6.38586</ele>
        <time>2013-05-09T18:17:38Z</time>
      </trkpt>
      <trkpt lat="59.8249789" lon="17.7314988">
        <ele>6.38586</ele>
        <time>2013-05-09T18:17:39Z</time>
      </trkpt>
      <trkpt lat="59.824936" lon="17.731557">
        <ele>6.38586</ele>
        <time>2013-05-09T18:17:40Z</time>
      </trkpt>
      <trkpt lat="59.8248966" lon="17.7316197">
        <ele>5.90527</ele>
        <time>2013-05-09T18:17:41Z</time>
      </trkpt>
      <trkpt lat="59.8248577" lon="17.73168">
        <ele>5.90527</ele>
        <time>2013-05-09T18:17:42Z</time>
      </trkpt>
      <trkpt lat="59.8248183" lon="17.7317396">
        <ele>5.42456</ele>
        <time>2013-05-09T18:17:43Z</time>
      </trkpt>
      <trkpt lat="59.8247784" lon="17.7317955">
        <ele>5.42456</ele>
        <time>2013-05-09T18:17:44Z</time>
      </trkpt>
      <trkpt lat="59.8247391" lon="17.7318485">
        <ele>5.42456</ele>
        <time>2013-05-09T18:17:45Z</time>
      </trkpt>
      <trkpt lat="59.8247031" lon="17.7319008">
        <ele>5.42456</ele>
        <time>2013-05-09T18:17:46Z</time>
      </trkpt>
      <trkpt lat="59.8246692" lon="17.7319518">
        <ele>5.42456</ele>
        <time>2013-05-09T18:17:47Z</time>
      </trkpt>
      <trkpt lat="59.8246354" lon="17.7319989">
        <ele>5.42456</ele>
        <time>2013-05-09T18:17:48Z</time>
      </trkpt>
      <trkpt lat="59.8246028" lon="17.7320416">
        <ele>5.90527</ele>
        <time>2013-05-09T18:17:49Z</time>
      </trkpt>
      <trkpt lat="59.8245712" lon="17.7320838">
        <ele>5.90527</ele>
        <time>2013-05-09T18:17:50Z</time>
      </trkpt>
      <trkpt lat="59.8245397" lon="17.732125">
        <ele>5.90527</ele>
        <time>2013-05-09T18:17:51Z</time>
      </trkpt>
      <trkpt lat="59.824508" lon="17.7321681">
        <ele>5.90527</ele>
        <time>2013-05-09T18:17:52Z</time>
      </trkpt>
      <trkpt lat="59.8244769" lon="17.7322089">
        <ele>5.90527</ele>
        <time>2013-05-09T18:17:53Z</time>
      </trkpt>
      <trkpt lat="59.8244462" lon="17.7322447">
        <ele>5.90527</ele>
        <time>2013-05-09T18:17:54Z</time>
      </trkpt>
      <trkpt lat="59.8244163" lon="17.7322732">
        <ele>5.90527</ele>
        <time>2013-05-09T18:17:55Z</time>
      </trkpt>
      <trkpt lat="59.8243893" lon="17.7322975">
        <ele>5.90527</ele>
        <time>2013-05-09T18:17:56Z</time>
      </trkpt>
      <trkpt lat="59.824365" lon="17.7323223">
        <ele>5.90527</ele>
        <time>2013-05-09T18:17:57Z</time>
      </trkpt>
      <trkpt lat="59.8243431" lon="17.732348">
        <ele>5.90527</ele>
        <time>2013-05-09T18:17:58Z</time>
      </trkpt>
      <trkpt lat="59.8243239" lon="17.7323737">
        <ele>5.90527</ele>
        <time>2013-05-09T18:17:59Z</time>
      </trkpt>
      <trkpt lat="59.8243065" lon="17.7323974">
        <ele>5.90527</ele>
        <time>2013-05-09T18:18:00Z</time>
      </trkpt>
      <trkpt lat="59.8242903" lon="17.732417">
        <ele>5.90527</ele>
        <time>2013-05-09T18:18:01Z</time>
      </trkpt>
      <trkpt lat="59.8242764" lon="17.7324338">
        <ele>5.90527</ele>
        <time>2013-05-09T18:18:02Z</time>
      </trkpt>
      <trkpt lat="59.8242653" lon="17.7324482">
        <ele>5.90527</ele>
        <time>2013-05-09T18:18:03Z</time>
      </trkpt>
      <trkpt lat="59.8242557" lon="17.7324601">
        <ele>5.90527</ele>
        <time>2013-05-09T18:18:04Z</time>
      </trkpt>
      <trkpt lat="59.8242475" lon="17.73247">
        <ele>5.90527</ele>
        <time>2013-05-09T18:18:05Z</time>
      </trkpt>
      <trkpt lat="59.8242429" lon="17.732471">
        <ele>5.90527</ele>
        <time>2013-05-09T18:18:06Z</time>
      </trkpt>
      <trkpt lat="59.8242418" lon="17.7324685">
        <ele>6.38586</ele>
        <time>2013-05-09T18:18:07Z</time>
      </trkpt>
      <trkpt lat="59.8242423" lon="17.7324679">
        <ele>6.38586</ele>
        <time>2013-05-09T18:18:08Z</time>
      </trkpt>
      <trkpt lat="59.8242437" lon="17.7324659">
        <ele>5.90527</ele>
        <time>2013-05-09T18:18:09Z</time>
      </trkpt>
      <trkpt lat="59.7946346" lon="17.7883103">
        <ele>10.7118</ele>
        <time>2013-05-09T18:31:04Z</time>
      </trkpt>
      <trkpt lat="59.7946384" lon="17.7883022">
        <ele>11.1925</ele>
        <time>2013-05-09T18:31:05Z</time>
      </trkpt>
      <trkpt lat="59.7946385" lon="17.7882989">
        <ele>11.6732</ele>
        <time>2013-05-09T18:31:06Z</time>
      </trkpt>
      <trkpt lat="59.7946378" lon="17.7882974">
        <ele>12.6344</ele>
        <time>2013-05-09T18:31:07Z</time>
      </trkpt>
      <trkpt lat="59.7946358" lon="17.7882957">
        <ele>12.6344</ele>
        <time>2013-05-09T18:31:08Z</time>
      </trkpt>
      <trkpt lat="59.7946391" lon="17.7882888">
        <ele>13.1151</ele>
        <time>2013-05-09T18:31:09Z</time>
      </trkpt>
      <trkpt lat="59.7946388" lon="17.7882859">
        <ele>13.5958</ele>
        <time>2013-05-09T18:31:10Z</time>
      </trkpt>
      <trkpt lat="59.7946359" lon="17.7882833">
        <ele>13.5958</ele>
        <time>2013-05-09T18:31:11Z</time>
      </trkpt>
      <trkpt lat="59.7946363" lon="17.7882798">
        <ele>13.5958</ele>
        <time>2013-05-09T18:31:12Z</time>
      </trkpt>
      <trkpt lat="59.7946358" lon="17.7882755">
        <ele>13.5958</ele>
        <time>2013-05-09T18:31:13Z</time>
      </trkpt>
      <trkpt lat="59.7946363" lon="17.7882835">
        <ele>13.1151</ele>
        <time>2013-05-09T18:31:14Z</time>
      </trkpt>
      <trkpt lat="59.7946328" lon="17.7882915">
        <ele>12.1538</ele>
        <time>2013-05-09T18:31:15Z</time>
      </trkpt>
      <trkpt lat="59.7946289" lon="17.7882967">
        <ele>11.1925</ele>
        <time>2013-05-09T18:31:16Z</time>
      </trkpt>
      <trkpt lat="59.7946248" lon="17.7882985">
        <ele>10.7118</ele>
        <time>2013-05-09T18:31:17Z</time>
      </trkpt>
      <trkpt lat="59.7946238" lon="17.7883001">
        <ele>10.2312</ele>
        <time>2013-05-09T18:31:18Z</time>
      </trkpt>
      <trkpt lat="59.7946253" lon="17.7883">
        <ele>10.2312</ele>
        <time>2013-05-09T18:31:19Z</time>
      </trkpt>
      <trkpt lat="59.7946275" lon="17.788299">
        <ele>10.2312</ele>
        <time>2013-05-09T18:31:20Z</time>
      </trkpt>
      <trkpt lat="59.7946307" lon="17.7882928">
        <ele>10.2312</ele>
        <time>2013-05-09T18:31:21Z</time>
      </trkpt>
      <trkpt lat="59.7946355" lon="17.788285">
        <ele>10.2312</ele>
        <time>2013-05-09T18:31:22Z</time>
      </trkpt>
      <trkpt lat="59.7946364" lon="17.788268">
        <ele>9.2699</ele>
        <time>2013-05-09T18:31:23Z</time>
      </trkpt>
      <trkpt lat="59.7946468" lon="17.7882488">
        <ele>9.75061</ele>
        <time>2013-05-09T18:31:24Z</time>
      </trkpt>
      <trkpt lat="59.7946596" lon="17.7882353">
        <ele>10.7118</ele>
        <time>2013-05-09T18:31:25Z</time>
      </trkpt>
      <trkpt lat="59.7946685" lon="17.7882218">
        <ele>10.7118</ele>
        <time>2013-05-09T18:31:26Z</time>
      </trkpt>
      <trkpt lat="59.794678" lon="17.7882042">
        <ele>11.1925</ele>
        <time>2013-05-09T18:31:27Z</time>
      </trkpt>
      <trkpt lat="59.7946878" lon="17.7881891">
        <ele>10.7118</ele>
        <time>2013-05-09T18:31:28Z</time>
      </trkpt>
      <trkpt lat="59.794701" lon="17.7881726">
        <ele>11.1925</ele>
        <time>2013-05-09T18:31:29Z</time>
      </trkpt>
      <trkpt lat="59.7947079" lon="17.7881721">
        <ele>11.1925</ele>
        <time>2013-05-09T18:31:30Z</time>
      </trkpt>
      <trkpt lat="59.7947069" lon="17.788173">
        <ele>10.2312</ele>
        <time>2013-05-09T18:31:31Z</time>
      </trkpt>
      <trkpt lat="59.7947048" lon="17.7881738">
        <ele>9.75061</ele>
        <time>2013-05-09T18:31:32Z</time>
      </trkpt>
      <trkpt lat="59.7947012" lon="17.788172">
        <ele>9.2699</ele>
        <time>2013-05-09T18:31:33Z</time>
      </trkpt>
      <trkpt lat="59.7946973" lon="17.7881663">
        <ele>8.78918</ele>
        <time>2013-05-09T18:31:34Z</time>
      </trkpt>
      <trkpt lat="59.7946955" lon="17.7881643">
        <ele>8.78918</ele>
        <time>2013-05-09T18:31:35Z</time>
      </trkpt>
      <trkpt lat="59.794696" lon="17.7881638">
        <ele>8.30859</ele>
        <time>2013-05-09T18:31:36Z</time>
      </trkpt>
      <trkpt lat="59.7946974" lon="17.7881641">
        <ele>8.30859</ele>
        <time>2013-05-09T18:31:37Z</time>
      </trkpt>
      <trkpt lat="59.7946981" lon="17.7881631">
        <ele>8.30859</ele>
        <time>2013-05-09T18:31:38Z</time>
      </trkpt>
      <trkpt lat="59.7947008" lon="17.7881646">
        <ele>8.30859</ele>
        <time>2013-05-09T18:31:39Z</time>
      </trkpt>
      <trkpt lat="59.7947017" lon="17.788185">
        <ele>7.34717</ele>
        <time>2013-05-09T18:31:40Z</time>
      </trkpt>
      <trkpt lat="59.7946987" lon="17.7882154">
        <ele>7.82788</ele>
        <time>2013-05-09T18:31:41Z</time>
      </trkpt>
      <trkpt lat="59.7946974" lon="17.7882431">
        <ele>8.78918</ele>
        <time>2013-05-09T18:31:42Z</time>
      </trkpt>
      <trkpt lat="59.7987784" lon="17.795135">
        <ele>8.30859</ele>
        <time>2013-05-09T18:32:55Z</time>
      </trkpt>
      <trkpt lat="59.7988376" lon="17.7952155">
        <ele>8.30859</ele>
        <time>2013-05-09T18:32:56Z</time>
      </trkpt>
      <trkpt lat="59.7988949" lon="17.7952963">
        <ele>8.30859</ele>
        <time>2013-05-09T18:32:57Z</time>
      </trkpt>
      <trkpt lat="59.7989502" lon="17.7953798">
        <ele>8.30859</ele>
        <time>2013-05-09T18:32:58Z</time>
      </trkpt>
      <trkpt lat="59.7990056" lon="17.7954637">
        <ele>8.30859</ele>
        <time>2013-05-09T18:32:59Z</time>
      </trkpt>
      <trkpt lat="59.7990622" lon="17.7955453">
        <ele>8.30859</ele>
        <time>2013-05-09T18:33:00Z</time>
      </trkpt>
      <trkpt lat="59.7991196" lon="17.7956257">
        <ele>8.78918</ele>
        <time>2013-05-09T18:33:01Z</time>
      </trkpt>
      <trkpt lat="59.7991773" lon="17.7957074">
        <ele>8.78918</ele>
        <time>2013-05-09T18:33:02Z</time>
      </trkpt>
      <trkpt lat="59.7992353" lon="17.795791">
        <ele>8.78918</ele>
        <time>2013-05-09T18:33:03Z</time>
      </trkpt>
      <trkpt lat="59.7992943" lon="17.795876">
        <ele>8.78918</ele>
        <time>2013-05-09T18:33:04Z</time>
      </trkpt>
      <trkpt lat="59.7993539" lon="17.7959625">
        <ele>8.78918</ele>
        <time>2013-05-09T18:33:05Z</time>
      </trkpt>
      <trkpt lat="59.7994135" lon="17.7960511">
        <ele>8.78918</ele>
        <time>2013-05-09T18:33:06Z</time>
      </trkpt>
      <trkpt lat="59.7994725" lon="17.7961418">
        <ele>8.78918</ele>
        <time>2013-05-09T18:33:07Z</time>
      </trkpt>
      <trkpt lat="59.7995315" lon="17.7962349">
        <ele>8.78918</ele>
        <time>2013-05-09T18:33:08Z</time>
      </trkpt>
      <trkpt lat="59.7995907" lon="17.7963307">
        <ele>8.78918</ele>
        <time>2013-05-09T18:33:09Z</time>
      </trkpt>
      <trkpt lat="59.7996486" lon="17.7964313">
        <ele>8.78918</ele>
        <time>2013-05-09T18:33:10Z</time>
      </trkpt>
      <trkpt lat="59.7997042" lon="17.7965379">
        <ele>8.78918</ele>
        <time>2013-05-09T18:33:11Z</time>
      </trkpt>
      <trkpt lat="59.7997576" lon="17.7966499">
        <ele>8.78918</ele>
        <time>2013-05-09T18:33:12Z</time>
      </trkpt>
      <trkpt lat="59.7998083" lon="17.7967677">
        <ele>8.78918</ele>
        <time>2013-05-09T18:33:13Z</time>
      </trkpt>
      <trkpt lat="59.7998554" lon="17.7968907">
        <ele>8.78918</ele>
        <time>2013-05-09T18:33:14Z</time>
      </trkpt>
      <trkpt lat="59.7998993" lon="17.797018">
        <ele>8.78918</ele>
        <time>2013-05-09T18:33:15Z</time>
      </trkpt>
      <trkpt lat="59.7999401" lon="17.7971493">
        <ele>8.78918</ele>
        <time>2013-05-09T18:33:16Z</time>
      </trkpt>
      <trkpt lat="59.7999775" lon="17.797284">
        <ele>8.78918</ele>
        <time>2013-05-09T18:33:17Z</time>
      </trkpt>
      <trkpt lat="59.8000104" lon="17.7974231">
        <ele>8.78918</ele>
        <time>2013-05-09T18:33:18Z</time>
      </trkpt>
      <trkpt lat="59.8000403" lon="17.797565">
        <ele>8.78918</ele>
        <time>2013-05-09T18:33:19Z</time>
      </trkpt>
      <trkpt lat="59.8000679" lon="17.7977082">
        <ele>9.2699</ele>
        <time>2013-05-09T18:33:20Z</time>
      </trkpt>
      <trkpt lat="59.8000919" lon="17.7978532">
        <ele>9.2699</ele>
        <time>2013-05-09T18:33:21Z</time>
      </trkpt>
      <trkpt lat="59.8001108" lon="17.7980003">
        <ele>9.75061</ele>
        <time>2013-05-09T18:33:22Z</time>
      </trkpt>
      <trkpt lat="59.8001254" lon="17.798148">
        <ele>9.75061</ele>
        <time>2013-05-09T18:33:23Z</time>
      </trkpt>
      <trkpt lat="59.8001355" lon="17.7982965">
        <ele>9.75061</ele>
        <time>2013-05-09T18:33:24Z</time>
      </trkpt>
      <trkpt lat="59.8001424" lon="17.7984456">
        <ele>9.75061</ele>
        <time>2013-05-09T18:33:25Z</time>
      </trkpt>
      <trkpt lat="59.8001495" lon="17.7985954">
        <ele>10.2312</ele>
        <time>2013-05-09T18:33:26Z</time>
      </trkpt>
      <trkpt lat="59.8001563" lon="17.7987463">
        <ele>9.75061</ele>
        <time>2013-05-09T18:33:27Z</time>
      </trkpt>
      <trkpt lat="59.800164" lon="17.7988986">
        <ele>10.2312</ele>
        <time>2013-05-09T18:33:28Z</time>
      </trkpt>
      <trkpt lat="59.8001712" lon="17.7990519">
        <ele>9.75061</ele>
        <time>2013-05-09T18:33:29Z</time>
      </trkpt>
      <trkpt lat="59.8001771" lon="17.7992067">
        <ele>9.75061</ele>
        <time>2013-05-09T18:33:30Z</time>
      </trkpt>
      <trkpt lat="59.8001823" lon="17.7993628">
        <ele>9.75061</ele>
        <time>2013-05-09T18:33:31Z</time>
      </trkpt>
      <trkpt lat="59.8001888" lon="17.7995204">
        <ele>9.75061</ele>
        <time>2013-05-09T18:33:32Z</time>
      </trkpt>
      <trkpt lat="59.8001968" lon="17.7996792">
        <ele>9.75061</ele>
        <time>2013-05-09T18:33:33Z</time>
      </trkpt>
      <trkpt lat="59.8002049" lon="17.7998387">
        <ele>9.75061</ele>
        <time>2013-05-09T18:33:34Z</time>
      </trkpt>
      <trkpt lat="59.8002134" lon="17.7999983">
        <ele>9.75061</ele>
        <time>2013-05-09T18:33:35Z</time>
      </trkpt>
      <trkpt lat="59.8002246" lon="17.8001568">
        <ele>9.75061</ele>
        <time>2013-05-09T18:33:36Z</time>
      </trkpt>
      <trkpt lat="59.8002382" lon="17.8003114">
        <ele>9.75061</ele>
        <time>2013-05-09T18:33:37Z</time>
      </trkpt>
      <trkpt lat="59.8002549" lon="17.8004594">
        <ele>9.75061</ele>
        <time>2013-05-09T18:33:38Z</time>
      </trkpt>
      <trkpt lat="59.8002747" lon="17.8006022">
        <ele>9.75061</ele>
        <time>2013-05-09T18:33:39Z</time>
      </trkpt>
      <trkpt lat="59.8002936" lon="17.8007422">
        <ele>9.2699</ele>
        <time>2013-05-09T18:33:40Z</time>
      </trkpt>
      <trkpt lat="59.8003143" lon="17.8008798">
        <ele>9.2699</ele>
        <time>2013-05-09T18:33:41Z</time>
      </trkpt>
      <trkpt lat="59.8003371" lon="17.801017">
        <ele>9.2699</ele>
        <time>2013-05-09T18:33:42Z</time>
      </trkpt>
      <trkpt lat="59.8003625" lon="17.8011529">
        <ele>9.2699</ele>
        <time>2013-05-09T18:33:43Z</time>
      </trkpt>
      <trkpt lat="59.8003868" lon="17.8012892">
        <ele>8.78918</ele>
        <time>2013-05-09T18:33:44Z</time>
      </trkpt>
      <trkpt lat="59.8004133" lon="17.8014243">
        <ele>9.2699</ele>
        <time>2013-05-09T18:33:45Z</time>
      </trkpt>
      <trkpt lat="59.8004407" lon="17.8015588">
        <ele>9.2699</ele>
        <time>2013-05-09T18:33:46Z</time>
      </trkpt>
      <trkpt lat="59.8004688" lon="17.801693">
        <ele>9.2699</ele>
        <time>2013-05-09T18:33:47Z</time>
      </trkpt>
      <trkpt lat="59.8004961" lon="17.8018275">
        <ele>9.2699</ele>
        <time>2013-05-09T18:33:48Z</time>
      </trkpt>
      <trkpt lat="59.8005226" lon="17.8019615">
        <ele>9.2699</ele>
        <time>2013-05-09T18:33:49Z</time>
      </trkpt>
      <trkpt lat="59.8005498" lon="17.8020929">
        <ele>9.2699</ele>
        <time>2013-05-09T18:33:50Z</time>
      </trkpt>
      <trkpt lat="59.8005769" lon="17.8022232">
        <ele>9.2699</ele>
        <time>2013-05-09T18:33:51Z</time>
      </trkpt>
      <trkpt lat="59.8006039" lon="17.8023527">
        <ele>9.75061</ele>
        <time>2013-05-09T18:33:52Z</time>
      </trkpt>
      <trkpt lat="59.8006314" lon="17.8024812">
        <ele>9.75061</ele>
        <time>2013-05-09T18:33:53Z</time>
      </trkpt>
      <trkpt lat="59.8006583" lon="17.8026097">
        <ele>9.75061</ele>
        <time>2013-05-09T18:33:54Z</time>
      </trkpt>
      <trkpt lat="59.800684" lon="17.8027388">
        <ele>9.75061</ele>
        <time>2013-05-09T18:33:55Z</time>
      </trkpt>
      <trkpt lat="59.8007101" lon="17.8028685">
        <ele>9.75061</ele>
        <time>2013-05-09T18:33:56Z</time>
      </trkpt>
      <trkpt lat="59.8007371" lon="17.8029987">
        <ele>10.2312</ele>
        <time>2013-05-09T18:33:57Z</time>
      </trkpt>
      <trkpt lat="59.8007645" lon="17.8031289">
        <ele>10.2312</ele>
        <time>2013-05-09T18:33:58Z</time>
      </trkpt>
      <trkpt lat="59.8007913" lon="17.803258">
        <ele>10.2312</ele>
        <time>2013-05-09T18:33:59Z</time>
      </trkpt>
      <trkpt lat="59.8008181" lon="17.803386">
        <ele>10.2312</ele>
        <time>2013-05-09T18:34:00Z</time>
      </trkpt>
      <trkpt lat="59.8008454" lon="17.8035122">
        <ele>10.2312</ele>
        <time>2013-05-09T18:34:01Z</time>
      </trkpt>
      <trkpt lat="59.8008722" lon="17.8036352">
        <ele>10.7118</ele>
        <time>2013-05-09T18:34:02Z</time>
      </trkpt>
      <trkpt lat="59.8008981" lon="17.8037557">
        <ele>10.7118</ele>
        <time>2013-05-09T18:34:03Z</time>
      </trkpt>
      <trkpt lat="59.8009244" lon="17.8038736">
        <ele>10.7118</ele>
        <time>2013-05-09T18:34:04Z</time>
      </trkpt>
      <trkpt lat="59.8009504" lon="17.8039901">
        <ele>10.7118</ele>
        <time>2013-05-09T18:34:05Z</time>
      </trkpt>
      <trkpt lat="59.8009758" lon="17.8041061">
        <ele>10.7118</ele>
        <time>2013-05-09T18:34:06Z</time>
      </trkpt>
      <trkpt lat="59.8010017" lon="17.8042212">
        <ele>11.1925</ele>
        <time>2013-05-09T18:34:07Z</time>
      </trkpt>
      <trkpt lat="59.8010287" lon="17.8043362">
        <ele>11.1925</ele>
        <time>2013-05-09T18:34:08Z</time>
      </trkpt>
      <trkpt lat="59.8010559" lon="17.8044526">
        <ele>11.1925</ele>
        <time>2013-05-09T18:34:09Z</time>
      </trkpt>
      <trkpt lat="59.8010829" lon="17.8045695">
        <ele>11.6732</ele>
        <time>2013-05-09T18:34:10Z</time>
      </trkpt>
      <trkpt lat="59.8011105" lon="17.8046867">
        <ele>11.6732</ele>
        <time>2013-05-09T18:34:11Z</time>
      </trkpt>
      <trkpt lat="59.8011375" lon="17.8048055">
        <ele>11.6732</ele>
        <time>2013-05-09T18:34:12Z</time>
      </trkpt>
      <trkpt lat="59.8011681" lon="17.8049252">
        <ele>12.1538</ele>
        <time>2013-05-09T18:34:13Z</time>
      </trkpt>
      <trkpt lat="59.8011986" lon="17.8050478">
        <ele>13.1151</ele>
        <time>2013-05-09T18:34:14Z</time>
      </trkpt>
      <trkpt lat="59.8012266" lon="17.8051732">
        <ele>13.1151</ele>
        <time>2013-05-09T18:34:15Z</time>
      </trkpt>
      <trkpt lat="59.8012539" lon="17.8053014">
        <ele>13.1151</ele>
        <time>2013-05-09T18:34:16Z</time>
      </trkpt>
      <trkpt lat="59.8012823" lon="17.8054305">
        <ele>13.5958</ele>
        <time>2013-05-09T18:34:17Z</time>
      </trkpt>
      <trkpt lat="59.8013097" lon="17.8055604">
        <ele>14.0764</ele>
        <time>2013-05-09T18:34:18Z</time>
      </trkpt>
      <trkpt lat="59.8013382" lon="17.8056905">
        <ele>14.0764</ele>
        <time>2013-05-09T18:34:19Z</time>
      </trkpt>
      <trkpt lat="59.8013672" lon="17.8058198">
        <ele>14.557</ele>
        <time>2013-05-09T18:34:20Z</time>
      </trkpt>
      <trkpt lat="59.8013975" lon="17.8059485">
        <ele>15.0377</ele>
        <time>2013-05-09T18:34:21Z</time>
      </trkpt>
      <trkpt lat="59.8014296" lon="17.8060776">
        <ele>15.5184</ele>
        <time>2013-05-09T18:34:22Z</time>
      </trkpt>
      <trkpt lat="59.801457" lon="17.8062023">
        <ele>15.5184</ele>
        <time>2013-05-09T18:34:23Z</time>
      </trkpt>
      <trkpt lat="59.8014803" lon="17.8063185">
        <ele>15.5184</ele>
        <time>2013-05-09T18:34:24Z</time>
      </trkpt>
      <trkpt lat="59.8015029" lon="17.8064261">
        <ele>15.5184</ele>
        <time>2013-05-09T18:34:25Z</time>
      </trkpt>
      <trkpt lat="59.8015239" lon="17.8065257">
        <ele>15.5184</ele>
        <time>2013-05-09T18:34:26Z</time>
      </trkpt>
      <trkpt lat="59.8015431" lon="17.8066168">
        <ele>15.5184</ele>
        <time>2013-05-09T18:34:27Z</time>
      </trkpt>
      <trkpt lat="59.8015632" lon="17.8066966">
        <ele>15.999</ele>
        <time>2013-05-09T18:34:28Z</time>
      </trkpt>
      <trkpt lat="59.8015812" lon="17.8067697">
        <ele>15.999</ele>
        <time>2013-05-09T18:34:29Z</time>
      </trkpt>
      <trkpt lat="59.8015963" lon="17.8068371">
        <ele>15.999</ele>
        <time>2013-05-09T18:34:30Z</time>
      </trkpt>
      <trkpt lat="59.8016114" lon="17.8068971">
        <ele>16.4797</ele>
        <time>2013-05-09T18:34:31Z</time>
      </trkpt>
      <trkpt lat="59.8016275" lon="17.806951">
        <ele>16.4797</ele>
        <time>2013-05-09T18:34:32Z</time>
      </trkpt>
      <trkpt lat="59.8016447" lon="17.8069987">
        <ele>16.4797</ele>
        <time>2013-05-09T18:34:33Z</time>
      </trkpt>
      <trkpt lat="59.8016564" lon="17.8070436">
        <ele>16.9604</ele>
        <time>2013-05-09T18:34:34Z</time>
      </trkpt>
      <trkpt lat="59.8016672" lon="17.8070769">
        <ele>16.9604</ele>
        <time>2013-05-09T18:34:35Z</time>
      </trkpt>
      <trkpt lat="59.8016802" lon="17.8070849">
        <ele>17.4412</ele>
        <time>2013-05-09T18:34:36Z</time>
      </trkpt>
      <trkpt lat="59.8016886" lon="17.8070671">
        <ele>17.4412</ele>
        <time>2013-05-09T18:34:37Z</time>
      </trkpt>
      <trkpt lat="59.8016887" lon="17.807034">
        <ele>17.4412</ele>
        <time>2013-05-09T18:34:38Z</time>
      </trkpt>
      <trkpt lat="59.8016752" lon="17.8069995">
        <ele>16.9604</ele>
        <time>2013-05-09T18:34:39Z</time>
      </trkpt>
      <trkpt lat="59.801657" lon="17.8069645">
        <ele>17.4412</ele>
        <time>2013-05-09T18:34:40Z</time>
      </trkpt>
      <trkpt lat="59.8016372" lon="17.8069159">
        <ele>17.4412</ele>
        <time>2013-05-09T18:34:41Z</time>
      </trkpt>
      <trkpt lat="59.8016183" lon="17.8068493">
        <ele>16.9604</ele>
        <time>2013-05-09T18:34:42Z</time>
      </trkpt>
      <trkpt lat="59.8015993" lon="17.8067676">
        <ele>16.9604</ele>
        <time>2013-05-09T18:34:43Z</time>
      </trkpt>
      <trkpt lat="59.8015803" lon="17.8066747">
        <ele>17.4412</ele>
        <time>2013-05-09T18:34:44Z</time>
      </trkpt>
      <trkpt lat="59.8015585" lon="17.8065713">
        <ele>17.4412</ele>
        <time>2013-05-09T18:34:45Z</time>
      </trkpt>
      <trkpt lat="59.8015337" lon="17.8064604">
        <ele>17.4412</ele>
        <time>2013-05-09T18:34:46Z</time>
      </trkpt>
      <trkpt lat="59.8015086" lon="17.8063413">
        <ele>17.4412</ele>
        <time>2013-05-09T18:34:47Z</time>
      </trkpt>
      <trkpt lat="59.8014823" lon="17.8062143">
        <ele>17.4412</ele>
        <time>2013-05-09T18:34:48Z</time>
      </trkpt>
      <trkpt lat="59.8014539" lon="17.8060819">
        <ele>17.4412</ele>
        <time>2013-05-09T18:34:49Z</time>
      </trkpt>
      <trkpt lat="59.801424" lon="17.8059455">
        <ele>16.9604</ele>
        <time>2013-05-09T18:34:50Z</time>
      </trkpt>
      <trkpt lat="59.8013933" lon="17.805806">
        <ele>16.9604</ele>
        <time>2013-05-09T18:34:51Z</time>
      </trkpt>
      <trkpt lat="59.8013623" lon="17.8056625">
        <ele>16.9604</ele>
        <time>2013-05-09T18:34:52Z</time>
      </trkpt>
      <trkpt lat="59.8013305" lon="17.8055138">
        <ele>16.4797</ele>
        <time>2013-05-09T18:34:53Z</time>
      </trkpt>
      <trkpt lat="59.8012989" lon="17.8053626">
        <ele>16.4797</ele>
        <time>2013-05-09T18:34:54Z</time>
      </trkpt>
      <trkpt lat="59.8012664" lon="17.8052095">
        <ele>15.999</ele>
        <time>2013-05-09T18:34:55Z</time>
      </trkpt>
      <trkpt lat="59.8012327" lon="17.805054">
        <ele>15.5184</ele>
        <time>2013-05-09T18:34:56Z</time>
      </trkpt>
      <trkpt lat="59.8011983" lon="17.804895">
        <ele>15.5184</ele>
        <time>2013-05-09T18:34:57Z</time>
      </trkpt>
      <trkpt lat="59.8011633" lon="17.8047335">
        <ele>15.0377</ele>
        <time>2013-05-09T18:34:58Z</time>
      </trkpt>
      <trkpt lat="59.8011267" lon="17.8045695">
        <ele>14.557</ele>
        <time>2013-05-09T18:34:59Z</time>
      </trkpt>
      <trkpt lat="59.8010894" lon="17.8044033">
        <ele>14.557</ele>
        <time>2013-05-09T18:35:00Z</time>
      </trkpt>
      <trkpt lat="59.801052" lon="17.8042362">
        <ele>14.0764</ele>
        <time>2013-05-09T18:35:01Z</time>
      </trkpt>
      <trkpt lat="59.8010141" lon="17.8040684">
        <ele>13.5958</ele>
        <time>2013-05-09T18:35:02Z</time>
      </trkpt>
      <trkpt lat="59.8009763" lon="17.803901">
        <ele>13.5958</ele>
        <time>2013-05-09T18:35:03Z</time>
      </trkpt>
      <trkpt lat="59.8009393" lon="17.8037332">
        <ele>13.1151</ele>
        <time>2013-05-09T18:35:04Z</time>
      </trkpt>
      <trkpt lat="59.8009024" lon="17.803563">
        <ele>12.6344</ele>
        <time>2013-05-09T18:35:05Z</time>
      </trkpt>
      <trkpt lat="59.8008663" lon="17.8033911">
        <ele>12.6344</ele>
        <time>2013-05-09T18:35:06Z</time>
      </trkpt>
      <trkpt lat="59.8008297" lon="17.8032171">
        <ele>12.1538</ele>
        <time>2013-05-09T18:35:07Z</time>
      </trkpt>
      <trkpt lat="59.8007924" lon="17.8030431">
        <ele>11.6732</ele>
        <time>2013-05-09T18:35:08Z</time>
      </trkpt>
      <trkpt lat="59.8007555" lon="17.8028692">
        <ele>11.6732</ele>
        <time>2013-05-09T18:35:09Z</time>
      </trkpt>
      <trkpt lat="59.8007188" lon="17.8026934">
        <ele>11.1925</ele>
        <time>2013-05-09T18:35:10Z</time>
      </trkpt>
      <trkpt lat="59.800683" lon="17.8025188">
        <ele>11.1925</ele>
        <time>2013-05-09T18:35:11Z</time>
      </trkpt>
      <trkpt lat="59.8006479" lon="17.8023486">
        <ele>11.1925</ele>
        <time>2013-05-09T18:35:12Z</time>
      </trkpt>
      <trkpt lat="59.8006138" lon="17.8021827">
        <ele>10.7118</ele>
        <time>2013-05-09T18:35:13Z</time>
      </trkpt>
      <trkpt lat="59.8005809" lon="17.80202">
        <ele>10.7118</ele>
        <time>2013-05-09T18:35:14Z</time>
      </trkpt>
      <trkpt lat="59.8005485" lon="17.80186">
        <ele>10.2312</ele>
        <time>2013-05-09T18:35:15Z</time>
      </trkpt>
      <trkpt lat="59.8005166" lon="17.8017028">
        <ele>10.2312</ele>
        <time>2013-05-09T18:35:16Z</time>
      </trkpt>
      <trkpt lat="59.8004854" lon="17.8015469">
        <ele>9.75061</ele>
        <time>2013-05-09T18:35:17Z</time>
      </trkpt>
      <trkpt lat="59.8004547" lon="17.8013916">
        <ele>9.75061</ele>
        <time>2013-05-09T18:35:18Z</time>
      </trkpt>
      <trkpt lat="59.8004237" lon="17.8012361">
        <ele>9.2699</ele>
        <time>2013-05-09T18:35:19Z</time>
      </trkpt>
      <trkpt lat="59.8003926" lon="17.8010804">
        <ele>8.78918</ele>
        <time>2013-05-09T18:35:20Z</time>
      </trkpt>
      <trkpt lat="59.8003625" lon="17.8009244">
        <ele>8.78918</ele>
        <time>2013-05-09T18:35:21Z</time>
      </trkpt>
      <trkpt lat="59.8003335" lon="17.8007661">
        <ele>8.30859</ele>
        <time>2013-05-09T18:35:22Z</time>
      </trkpt>
      <trkpt lat="59.8003065" lon="17.8006038">
        <ele>7.82788</ele>
        <time>2013-05-09T18:35:23Z</time>
      </trkpt>
      <trkpt lat="59.8002827" lon="17.800437">
        <ele>7.82788</ele>
        <time>2013-05-09T18:35:24Z</time>
      </trkpt>
      <trkpt lat="59.8002626" lon="17.8002675">
        <ele>7.34717</ele>
        <time>2013-05-09T18:35:25Z</time>
      </trkpt>
      <trkpt lat="59.8002454" lon="17.8000961">
        <ele>7.34717</ele>
        <time>2013-05-09T18:35:26Z</time>
      </trkpt>
      <trkpt lat="59.8002313" lon="17.7999251">
        <ele>6.86646</ele>
        <time>2013-05-09T18:35:27Z</time>
      </trkpt>
      <trkpt lat="59.8002211" lon="17.7997553">
        <ele>6.86646</ele>
        <time>2013-05-09T18:35:28Z</time>
      </trkpt>
      <trkpt lat="59.8002138" lon="17.7995863">
        <ele>6.86646</ele>
        <time>2013-05-09T18:35:29Z</time>
      </trkpt>
      <trkpt lat="59.8002079" lon="17.79942">
        <ele>6.86646</ele>
        <time>2013-05-09T18:35:30Z</time>
      </trkpt>
      <trkpt lat="59.8002018" lon="17.7992539">
        <ele>6.86646</ele>
        <time>2013-05-09T18:35:31Z</time>
      </trkpt>
      <trkpt lat="59.8001948" lon="17.7990892">
        <ele>6.38586</ele>
        <time>2013-05-09T18:35:32Z</time>
      </trkpt>
      <trkpt lat="59.8001859" lon="17.7989265">
        <ele>6.38586</ele>
        <time>2013-05-09T18:35:33Z</time>
      </trkpt>
      <trkpt lat="59.8001774" lon="17.798768">
        <ele>6.38586</ele>
        <time>2013-05-09T18:35:34Z</time>
      </trkpt>
      <trkpt lat="59.8001699" lon="17.7986136">
        <ele>6.38586</ele>
        <time>2013-05-09T18:35:35Z</time>
      </trkpt>
      <trkpt lat="59.8001636" lon="17.7984635">
        <ele>5.90527</ele>
        <time>2013-05-09T18:35:36Z</time>
      </trkpt>
      <trkpt lat="59.8001574" lon="17.7983179">
        <ele>5.90527</ele>
        <time>2013-05-09T18:35:37Z</time>
      </trkpt>
      <trkpt lat="59.8001511" lon="17.7981764">
        <ele>5.90527</ele>
        <time>2013-05-09T18:35:38Z</time>
      </trkpt>
      <trkpt lat="59.8001433" lon="17.7980381">
        <ele>5.42456</ele>
        <time>2013-05-09T18:35:39Z</time>
      </trkpt>
      <trkpt lat="59.800133" lon="17.7979034">
        <ele>5.42456</ele>
        <time>2013-05-09T18:35:40Z</time>
      </trkpt>
      <trkpt lat="59.800118" lon="17.7977729">
        <ele>5.42456</ele>
        <time>2013-05-09T18:35:41Z</time>
      </trkpt>
      <trkpt lat="59.8000986" lon="17.7976475">
        <ele>5.42456</ele>
        <time>2013-05-09T18:35:42Z</time>
      </trkpt>
      <trkpt lat="59.8000754" lon="17.7975261">
        <ele>5.42456</ele>
        <time>2013-05-09T18:35:43Z</time>
      </trkpt>
      <trkpt lat="59.8000482" lon="17.7974099">
        <ele>4.94385</ele>
        <time>2013-05-09T18:35:44Z</time>
      </trkpt>
      <trkpt lat="59.8000185" lon="17.7972974">
        <ele>4.94385</ele>
        <time>2013-05-09T18:35:45Z</time>
      </trkpt>
      <trkpt lat="59.7999889" lon="17.7971871">
        <ele>4.94385</ele>
        <time>2013-05-09T18:35:46Z</time>
      </trkpt>
      <trkpt lat="59.7999575" lon="17.7970767">
        <ele>4.46326</ele>
        <time>2013-05-09T18:35:47Z</time>
      </trkpt>
      <trkpt lat="59.7999248" lon="17.7969688">
        <ele>3.98267</ele>
        <time>2013-05-09T18:35:48Z</time>
      </trkpt>
      <trkpt lat="59.7998896" lon="17.7968659">
        <ele>3.98267</ele>
        <time>2013-05-09T18:35:49Z</time>
      </trkpt>
      <trkpt lat="59.7998533" lon="17.7967659">
        <ele>3.98267</ele>
        <time>2013-05-09T18:35:50Z</time>
      </trkpt>
      <trkpt lat="59.7998147" lon="17.7966685">
        <ele>3.98267</ele>
        <time>2013-05-09T18:35:51Z</time>
      </trkpt>
      <trkpt lat="59.7997734" lon="17.7965728">
        <ele>3.98267</ele>
        <time>2013-05-09T18:35:52Z</time>
      </trkpt>
      <trkpt lat="59.7997303" lon="17.79648">
        <ele>4.46326</ele>
        <time>2013-05-09T18:35:53Z</time>
      </trkpt>
      <trkpt lat="59.7996844" lon="17.7963924">
        <ele>3.98267</ele>
        <time>2013-05-09T18:35:54Z</time>
      </trkpt>
      <trkpt lat="59.7996369" lon="17.7963083">
        <ele>3.98267</ele>
        <time>2013-05-09T18:35:55Z</time>
      </trkpt>
      <trkpt lat="59.799588" lon="17.7962252">
        <ele>3.98267</ele>
        <time>2013-05-09T18:35:56Z</time>
      </trkpt>
      <trkpt lat="59.7995374" lon="17.7961453">
        <ele>3.98267</ele>
        <time>2013-05-09T18:35:57Z</time>
      </trkpt>
      <trkpt lat="59.7994861" lon="17.7960681">
        <ele>3.98267</ele>
        <time>2013-05-09T18:35:58Z</time>
      </trkpt>
      <trkpt lat="59.7994336" lon="17.7959935">
        <ele>3.98267</ele>
        <time>2013-05-09T18:35:59Z</time>
      </trkpt>
      <trkpt lat="59.7993819" lon="17.7959157">
        <ele>3.98267</ele>
        <time>2013-05-09T18:36:00Z</time>
      </trkpt>
      <trkpt lat="59.7993306" lon="17.7958366">
        <ele>3.98267</ele>
        <time>2013-05-09T18:36:01Z</time>
      </trkpt>
      <trkpt lat="59.7992779" lon="17.7957605">
        <ele>3.98267</ele>
        <time>2013-05-09T18:36:02Z</time>
      </trkpt>
      <trkpt lat="59.7992245" lon="17.7956847">
        <ele>3.98267</ele>
        <time>2013-05-09T18:36:03Z</time>
      </trkpt>
      <trkpt lat="59.7991711" lon="17.7956067">
        <ele>3.98267</ele>
        <time>2013-05-09T18:36:04Z</time>
      </trkpt>
      <trkpt lat="59.799117" lon="17.7955278">
        <ele>3.98267</ele>
        <time>2013-05-09T18:36:05Z</time>
      </trkpt>
      <trkpt lat="59.7990622" lon="17.795449">
        <ele>3.98267</ele>
        <time>2013-05-09T18:36:06Z</time>
      </trkpt>
      <trkpt lat="59.7990068" lon="17.7953698">
        <ele>3.98267</ele>
        <time>2013-05-09T18:36:07Z</time>
      </trkpt>
      <trkpt lat="59.7989509" lon="17.7952888">
        <ele>4.46326</ele>
        <time>2013-05-09T18:36:08Z</time>
      </trkpt>
      <trkpt lat="59.7988946" lon="17.7952062">
        <ele>4.46326</ele>
        <time>2013-05-09T18:36:09Z</time>
      </trkpt>
      <trkpt lat="59.7988375" lon="17.7951243">
        <ele>4.46326</ele>
        <time>2013-05-09T18:36:10Z</time>
      </trkpt>
      <trkpt lat="59.7987794" lon="17.795043">
        <ele>4.46326</ele>
        <time>2013-05-09T18:36:11Z</time>
      </trkpt>
      <trkpt lat="59.798721" lon="17.7949604">
        <ele>4.46326</ele>
        <time>2013-05-09T18:36:12Z</time>
      </trkpt>
      <trkpt lat="59.7986638" lon="17.7948747">
        <ele>4.46326</ele>
        <time>2013-05-09T18:36:13Z</time>
      </trkpt>
      <trkpt lat="59.7986069" lon="17.7947881">
        <ele>4.46326</ele>
        <time>2013-05-09T18:36:14Z</time>
      </trkpt>
      <trkpt lat="59.7985494" lon="17.7947033">
        <ele>4.94385</ele>
        <time>2013-05-09T18:36:15Z</time>
      </trkpt>
      <trkpt lat="59.7984914" lon="17.7946213">
        <ele>4.94385</ele>
        <time>2013-05-09T18:36:16Z</time>
      </trkpt>
      <trkpt lat="59.7984335" lon="17.7945387">
        <ele>4.94385</ele>
        <time>2013-05-09T18:36:17Z</time>
      </trkpt>
      <trkpt lat="59.7983765" lon="17.7944546">
        <ele>4.94385</ele>
        <time>2013-05-09T18:36:18Z</time>
      </trkpt>
      <trkpt lat="59.7983191" lon="17.7943696">
        <ele>5.42456</ele>
        <time>2013-05-09T18:36:19Z</time>
      </trkpt>
      <trkpt lat="59.7982613" lon="17.7942821">
        <ele>5.42456</ele>
        <time>2013-05-09T18:36:20Z</time>
      </trkpt>
      <trkpt lat="59.7982029" lon="17.7941928">
        <ele>5.42456</ele>
        <time>2013-05-09T18:36:21Z</time>
      </trkpt>
      <trkpt lat="59.7981436" lon="17.7941038">
        <ele>5.42456</ele>
        <time>2013-05-09T18:36:22Z</time>
      </trkpt>
      <trkpt lat="59.7980831" lon="17.7940158">
        <ele>5.42456</ele>
        <time>2013-05-09T18:36:23Z</time>
      </trkpt>
      <trkpt lat="59.798022" lon="17.7939287">
        <ele>5.42456</ele>
        <time>2013-05-09T18:36:24Z</time>
      </trkpt>
      <trkpt lat="59.7979605" lon="17.7938413">
        <ele>5.90527</ele>
        <time>2013-05-09T18:36:25Z</time>
      </trkpt>
      <trkpt lat="59.7978993" lon="17.793753">
        <ele>5.90527</ele>
        <time>2013-05-09T18:36:26Z</time>
      </trkpt>
      <trkpt lat="59.7978387" lon="17.7936633">
        <ele>5.90527</ele>
        <time>2013-05-09T18:36:27Z</time>
      </trkpt>
      <trkpt lat="59.7977793" lon="17.7935739">
        <ele>5.90527</ele>
        <time>2013-05-09T18:36:28Z</time>
      </trkpt>
      <trkpt lat="59.7977202" lon="17.7934848">
        <ele>5.90527</ele>
        <time>2013-05-09T18:36:29Z</time>
      </trkpt>
      <trkpt lat="59.7976612" lon="17.7933952">
        <ele>6.38586</ele>
        <time>2013-05-09T18:36:30Z</time>
      </trkpt>
      <trkpt lat="59.797602" lon="17.7933077">
        <ele>6.38586</ele>
        <time>2013-05-09T18:36:31Z</time>
      </trkpt>
      <trkpt lat="59.7975429" lon="17.7932222">
        <ele>6.38586</ele>
        <time>2013-05-09T18:36:32Z</time>
      </trkpt>
      <trkpt lat="59.7974839" lon="17.7931357">
        <ele>6.38586</ele>
        <time>2013-05-09T18:36:33Z</time>
      </trkpt>
      <trkpt lat="59.7974249" lon="17.793049">
        <ele>6.38586</ele>
        <time>2013-05-09T18:36:34Z</time>
      </trkpt>
      <trkpt lat="59.7973659" lon="17.7929611">
        <ele>6.86646</ele>
        <time>2013-05-09T18:36:35Z</time>
      </trkpt>
      <trkpt lat="59.7973067" lon="17.792873">
        <ele>6.86646</ele>
        <time>2013-05-09T18:36:36Z</time>
      </trkpt>
      <trkpt lat="59.7972471" lon="17.792786">
        <ele>6.86646</ele>
        <time>2013-05-09T18:36:37Z</time>
      </trkpt>
      <trkpt lat="59.7971872" lon="17.7926984">
        <ele>6.86646</ele>
        <time>2013-05-09T18:36:38Z</time>
      </trkpt>
      <trkpt lat="59.7971275" lon="17.7926097">
        <ele>6.86646</ele>
        <time>2013-05-09T18:36:39Z</time>
      </trkpt>
      <trkpt lat="59.7970679" lon="17.7925203">
        <ele>7.34717</ele>
        <time>2013-05-09T18:36:40Z</time>
      </trkpt>
      <trkpt lat="59.7970079" lon="17.7924339">
        <ele>7.34717</ele>
        <time>2013-05-09T18:36:41Z</time>
      </trkpt>
      <trkpt lat="59.7969488" lon="17.7923463">
        <ele>7.34717</ele>
        <time>2013-05-09T18:36:42Z</time>
      </trkpt>
      <trkpt lat="59.7968898" lon="17.7922577">
        <ele>7.34717</ele>
        <time>2013-05-09T18:36:43Z</time>
      </trkpt>
      <trkpt lat="59.7968303" lon="17.7921704">
        <ele>7.34717</ele>
        <time>2013-05-09T18:36:44Z</time>
      </trkpt>
      <trkpt lat="59.796771" lon="17.7920845">
        <ele>7.82788</ele>
        <time>2013-05-09T18:36:45Z</time>
      </trkpt>
      <trkpt lat="59.796713" lon="17.7919979">
        <ele>7.82788</ele>
        <time>2013-05-09T18:36:46Z</time>
      </trkpt>
      <trkpt lat="59.7966556" lon="17.7919112">
        <ele>7.82788</ele>
        <time>2013-05-09T18:36:47Z</time>
      </trkpt>
      <trkpt lat="59.7965979" lon="17.7918247">
        <ele>7.82788</ele>
        <time>2013-05-09T18:36:48Z</time>
      </trkpt>
      <trkpt lat="59.7965394" lon="17.7917394">
        <ele>7.82788</ele>
        <time>2013-05-09T18:36:49Z</time>
      </trkpt>
      <trkpt lat="59.7964805" lon="17.7916557">
        <ele>8.30859</ele>
        <time>2013-05-09T18:36:50Z</time>
      </trkpt>
      <trkpt lat="59.796422" lon="17.7915709">
        <ele>8.30859</ele>
        <time>2013-05-09T18:36:51Z</time>
      </trkpt>
      <trkpt lat="59.7963641" lon="17.7914853">
        <ele>8.30859</ele>
        <time>2013-05-09T18:36:52Z</time>
      </trkpt>
      <trkpt lat="59.7963061" lon="17.7913994">
        <ele>8.30859</ele>
        <time>2013-05-09T18:36:53Z</time>
      </trkpt>
      <trkpt lat="59.7962479" lon="17.7913149">
        <ele>8.30859</ele>
        <time>2013-05-09T18:36:54Z</time>
      </trkpt>
      <trkpt lat="59.7961897" lon="17.7912324">
        <ele>8.30859</ele>
        <time>2013-05-09T18:36:55Z</time>
      </trkpt>
      <trkpt lat="59.7961314" lon="17.7911496">
        <ele>8.78918</ele>
        <time>2013-05-09T18:36:56Z</time>
      </trkpt>
      <trkpt lat="59.7960729" lon="17.791064">
        <ele>8.78918</ele>
        <time>2013-05-09T18:36:57Z</time>
      </trkpt>
      <trkpt lat="59.7960134" lon="17.7909765">
        <ele>8.78918</ele>
        <time>2013-05-09T18:36:58Z</time>
      </trkpt>
      <trkpt lat="59.795953" lon="17.7908894">
        <ele>8.78918</ele>
        <time>2013-05-09T18:36:59Z</time>
      </trkpt>
      <trkpt lat="59.7958916" lon="17.790802">
        <ele>8.78918</ele>
        <time>2013-05-09T18:37:00Z</time>
      </trkpt>
      <trkpt lat="59.7958299" lon="17.7907136">
        <ele>8.78918</ele>
        <time>2013-05-09T18:37:01Z</time>
      </trkpt>
      <trkpt lat="59.7957688" lon="17.7906237">
        <ele>8.78918</ele>
        <time>2013-05-09T18:37:02Z</time>
      </trkpt>
      <trkpt lat="59.7957082" lon="17.7905316">
        <ele>8.78918</ele>
        <time>2013-05-09T18:37:03Z</time>
      </trkpt>
      <trkpt lat="59.7956471" lon="17.7904394">
        <ele>8.78918</ele>
        <time>2013-05-09T18:37:04Z</time>
      </trkpt>
      <trkpt lat="59.795585" lon="17.7903497">
        <ele>8.78918</ele>
        <time>2013-05-09T18:37:05Z</time>
      </trkpt>
      <trkpt lat="59.7955239" lon="17.7902616">
        <ele>9.2699</ele>
        <time>2013-05-09T18:37:06Z</time>
      </trkpt>
      <trkpt lat="59.7954643" lon="17.7901767">
        <ele>9.2699</ele>
        <time>2013-05-09T18:37:07Z</time>
      </trkpt>
      <trkpt lat="59.7954067" lon="17.790095">
        <ele>9.2699</ele>
        <time>2013-05-09T18:37:08Z</time>
      </trkpt>
      <trkpt lat="59.7953517" lon="17.790014">
        <ele>9.2699</ele>
        <time>2013-05-09T18:37:09Z</time>
      </trkpt>
      <trkpt lat="59.7952972" lon="17.7899336">
        <ele>9.2699</ele>
        <time>2013-05-09T18:37:10Z</time>
      </trkpt>
      <trkpt lat="59.7952424" lon="17.7898515">
        <ele>9.2699</ele>
        <time>2013-05-09T18:37:11Z</time>
      </trkpt>
      <trkpt lat="59.7951874" lon="17.7897666">
        <ele>9.2699</ele>
        <time>2013-05-09T18:37:12Z</time>
      </trkpt>
      <trkpt lat="59.7951325" lon="17.789681">
        <ele>9.2699</ele>
        <time>2013-05-09T18:37:13Z</time>
      </trkpt>
      <trkpt lat="59.7950783" lon="17.789596">
        <ele>9.2699</ele>
        <time>2013-05-09T18:37:14Z</time>
      </trkpt>
      <trkpt lat="59.7950213" lon="17.789511">
        <ele>9.75061</ele>
        <time>2013-05-09T18:37:15Z</time>
      </trkpt>
      <trkpt lat="59.7949638" lon="17.7894249">
        <ele>9.75061</ele>
        <time>2013-05-09T18:37:16Z</time>
      </trkpt>
      <trkpt lat="59.7949036" lon="17.7893417">
        <ele>10.2312</ele>
        <time>2013-05-09T18:37:17Z</time>
      </trkpt>
      <trkpt lat="59.7948435" lon="17.7892599">
        <ele>10.7118</ele>
        <time>2013-05-09T18:37:18Z</time>
      </trkpt>
      <trkpt lat="59.7947846" lon="17.7891797">
        <ele>11.1925</ele>
        <time>2013-05-09T18:37:19Z</time>
      </trkpt>
      <trkpt lat="59.79473" lon="17.7891044">
        <ele>11.6732</ele>
        <time>2013-05-09T18:37:20Z</time>
      </trkpt>
      <trkpt lat="59.7946847" lon="17.7890304">
        <ele>12.1538</ele>
        <time>2013-05-09T18:37:21Z</time>
      </trkpt>
      <trkpt lat="59.7946517" lon="17.7889505">
        <ele>12.1538</ele>
        <time>2013-05-09T18:37:22Z</time>
      </trkpt>
      <trkpt lat="59.7946339" lon="17.7888627">
        <ele>12.6344</ele>
        <time>2013-05-09T18:37:23Z</time>
      </trkpt>
      <trkpt lat="59.7946293" lon="17.7887749">
        <ele>12.6344</ele>
        <time>2013-05-09T18:37:24Z</time>
      </trkpt>
      <trkpt lat="59.7946355" lon="17.7886942">
        <ele>12.6344</ele>
        <time>2013-05-09T18:37:25Z</time>
      </trkpt>
      <trkpt lat="59.794651" lon="17.7886231">
        <ele>12.6344</ele>
        <time>2013-05-09T18:37:26Z</time>
      </trkpt>
      <trkpt lat="59.7946721" lon="17.7885533">
        <ele>12.6344</ele>
        <time>2013-05-09T18:37:27Z</time>
      </trkpt>
      <trkpt lat="59.794696" lon="17.7884782">
        <ele>12.6344</ele>
        <time>2013-05-09T18:37:28Z</time>
      </trkpt>
      <trkpt lat="59.7947225" lon="17.7883995">
        <ele>12.6344</ele>
        <time>2013-05-09T18:37:29Z</time>
      </trkpt>
      <trkpt lat="59.79475" lon="17.788318">
        <ele>12.1538</ele>
        <time>2013-05-09T18:37:30Z</time>
      </trkpt>
      <trkpt lat="59.7947809" lon="17.7882354">
        <ele>12.1538</ele>
        <time>2013-05-09T18:37:31Z</time>
      </trkpt>
      <trkpt lat="59.7948156" lon="17.7881598">
        <ele>11.6732</ele>
        <time>2013-05-09T18:37:32Z</time>
      </trkpt>
      <trkpt lat="59.7948525" lon="17.7880901">
        <ele>11.1925</ele>
        <time>2013-05-09T18:37:33Z</time>
      </trkpt>
      <trkpt lat="59.7948886" lon="17.7880161">
        <ele>11.1925</ele>
        <time>2013-05-09T18:37:34Z</time>
      </trkpt>
      <trkpt lat="59.7949233" lon="17.7879414">
        <ele>11.1925</ele>
        <time>2013-05-09T18:37:35Z</time>
      </trkpt>
      <trkpt lat="59.7949565" lon="17.7878669">
        <ele>11.1925</ele>
        <time>2013-05-09T18:37:36Z</time>
      </trkpt>
      <trkpt lat="59.7949898" lon="17.7877943">
        <ele>10.7118</ele>
        <time>2013-05-09T18:37:37Z</time>
      </trkpt>
      <trkpt lat="59.7950239" lon="17.7877246">
        <ele>10.7118</ele>
        <time>2013-05-09T18:37:38Z</time>
      </trkpt>
      <trkpt lat="59.7950587" lon="17.7876604">
        <ele>10.7118</ele>
        <time>2013-05-09T18:37:39Z</time>
      </trkpt>
      <trkpt lat="59.7950928" lon="17.787601">
        <ele>10.2312</ele>
        <time>2013-05-09T18:37:40Z</time>
      </trkpt>
      <trkpt lat="59.7951239" lon="17.787548">
        <ele>10.2312</ele>
        <time>2013-05-09T18:37:41Z</time>
      </trkpt>
      <trkpt lat="59.7951513" lon="17.7875047">
        <ele>10.2312</ele>
        <time>2013-05-09T18:37:42Z</time>
      </trkpt>
      <trkpt lat="59.7951737" lon="17.7874736">
        <ele>10.2312</ele>
        <time>2013-05-09T18:37:43Z</time>
      </trkpt>
      <trkpt lat="59.7951891" lon="17.7874531">
        <ele>10.2312</ele>
        <time>2013-05-09T18:37:44Z</time>
      </trkpt>
      <trkpt lat="59.7951967" lon="17.7874438">
        <ele>9.75061</ele>
        <time>2013-05-09T18:37:45Z</time>
      </trkpt>
      <trkpt lat="59.7953873" lon="17.7870874">
        <ele>5.90527</ele>
        <time>2013-05-09T18:55:19Z</time>
      </trkpt>
      <trkpt lat="59.7954239" lon="17.7870111">
        <ele>5.90527</ele>
        <time>2013-05-09T18:55:20Z</time>
      </trkpt>
      <trkpt lat="59.7954648" lon="17.7869303">
        <ele>5.90527</ele>
        <time>2013-05-09T18:55:21Z</time>
      </trkpt>
      <trkpt lat="59.7955107" lon="17.7868487">
        <ele>5.90527</ele>
        <time>2013-05-09T18:55:22Z</time>
      </trkpt>
      <trkpt lat="59.795561" lon="17.7867683">
        <ele>6.38586</ele>
        <time>2013-05-09T18:55:23Z</time>
      </trkpt>
      <trkpt lat="59.7956126" lon="17.7866807">
        <ele>6.38586</ele>
        <time>2013-05-09T18:55:24Z</time>
      </trkpt>
      <trkpt lat="59.7956655" lon="17.786588">
        <ele>6.38586</ele>
        <time>2013-05-09T18:55:25Z</time>
      </trkpt>
      <trkpt lat="59.7957196" lon="17.7864909">
        <ele>6.38586</ele>
        <time>2013-05-09T18:55:26Z</time>
      </trkpt>
      <trkpt lat="59.7957735" lon="17.78639">
        <ele>6.38586</ele>
        <time>2013-05-09T18:55:27Z</time>
      </trkpt>
      <trkpt lat="59.7958252" lon="17.7862833">
        <ele>6.38586</ele>
        <time>2013-05-09T18:55:28Z</time>
      </trkpt>
      <trkpt lat="59.7958775" lon="17.7861724">
        <ele>5.90527</ele>
        <time>2013-05-09T18:55:29Z</time>
      </trkpt>
      <trkpt lat="59.7959307" lon="17.7860568">
        <ele>6.38586</ele>
        <time>2013-05-09T18:55:30Z</time>
      </trkpt>
      <trkpt lat="59.7959816" lon="17.7859339">
        <ele>6.38586</ele>
        <time>2013-05-09T18:55:31Z</time>
      </trkpt>
      <trkpt lat="59.7960293" lon="17.7858051">
        <ele>6.38586</ele>
        <time>2013-05-09T18:55:32Z</time>
      </trkpt>
      <trkpt lat="59.7960733" lon="17.7856696">
        <ele>6.38586</ele>
        <time>2013-05-09T18:55:33Z</time>
      </trkpt>
      <trkpt lat="59.7961115" lon="17.7855271">
        <ele>5.90527</ele>
        <time>2013-05-09T18:55:34Z</time>
      </trkpt>
      <trkpt lat="59.7961489" lon="17.7853836">
        <ele>5.90527</ele>
        <time>2013-05-09T18:55:35Z</time>
      </trkpt>
      <trkpt lat="59.7961847" lon="17.7852382">
        <ele>5.90527</ele>
        <time>2013-05-09T18:55:36Z</time>
      </trkpt>
      <trkpt lat="59.79622" lon="17.7850935">
        <ele>5.90527</ele>
        <time>2013-05-09T18:55:37Z</time>
      </trkpt>
      <trkpt lat="59.7962546" lon="17.78495">
        <ele>5.90527</ele>
        <time>2013-05-09T18:55:38Z</time>
      </trkpt>
      <trkpt lat="59.7962877" lon="17.7848071">
        <ele>5.90527</ele>
        <time>2013-05-09T18:55:39Z</time>
      </trkpt>
      <trkpt lat="59.7963224" lon="17.7846667">
        <ele>5.90527</ele>
        <time>2013-05-09T18:55:40Z</time>
      </trkpt>
      <trkpt lat="59.7963566" lon="17.7845277">
        <ele>5.90527</ele>
        <time>2013-05-09T18:55:41Z</time>
      </trkpt>
      <trkpt lat="59.7963894" lon="17.7843916">
        <ele>5.42456</ele>
        <time>2013-05-09T18:55:42Z</time>
      </trkpt>
      <trkpt lat="59.7964244" lon="17.7842566">
        <ele>5.42456</ele>
        <time>2013-05-09T18:55:43Z</time>
      </trkpt>
      <trkpt lat="59.7964629" lon="17.7841237">
        <ele>5.42456</ele>
        <time>2013-05-09T18:55:44Z</time>
      </trkpt>
      <trkpt lat="59.7965038" lon="17.7839933">
        <ele>5.42456</ele>
        <time>2013-05-09T18:55:45Z</time>
      </trkpt>
      <trkpt lat="59.7965473" lon="17.7838658">
        <ele>5.42456</ele>
        <time>2013-05-09T18:55:46Z</time>
      </trkpt>
      <trkpt lat="59.7965918" lon="17.7837395">
        <ele>5.42456</ele>
        <time>2013-05-09T18:55:47Z</time>
      </trkpt>
      <trkpt lat="59.7966371" lon="17.7836147">
        <ele>5.42456</ele>
        <time>2013-05-09T18:55:48Z</time>
      </trkpt>
      <trkpt lat="59.7966837" lon="17.7834932">
        <ele>5.42456</ele>
        <time>2013-05-09T18:55:49Z</time>
      </trkpt>
      <trkpt lat="59.7967305" lon="17.7833732">
        <ele>5.42456</ele>
        <time>2013-05-09T18:55:50Z</time>
      </trkpt>
      <trkpt lat="59.7967774" lon="17.7832527">
        <ele>5.42456</ele>
        <time>2013-05-09T18:55:51Z</time>
      </trkpt>
      <trkpt lat="59.7968259" lon="17.7831325">
        <ele>5.42456</ele>
        <time>2013-05-09T18:55:52Z</time>
      </trkpt>
      <trkpt lat="59.7968747" lon="17.7830122">
        <ele>5.42456</ele>
        <time>2013-05-09T18:55:53Z</time>
      </trkpt>
      <trkpt lat="59.7969229" lon="17.78289">
        <ele>5.42456</ele>
        <time>2013-05-09T18:55:54Z</time>
      </trkpt>
      <trkpt lat="59.7969706" lon="17.782767">
        <ele>5.90527</ele>
        <time>2013-05-09T18:55:55Z</time>
      </trkpt>
      <trkpt lat="59.7970172" lon="17.7826429">
        <ele>5.42456</ele>
        <time>2013-05-09T18:55:56Z</time>
      </trkpt>
      <trkpt lat="59.7970615" lon="17.7825183">
        <ele>5.42456</ele>
        <time>2013-05-09T18:55:57Z</time>
      </trkpt>
      <trkpt lat="59.7971051" lon="17.7823937">
        <ele>5.42456</ele>
        <time>2013-05-09T18:55:58Z</time>
      </trkpt>
      <trkpt lat="59.7971502" lon="17.7822709">
        <ele>5.42456</ele>
        <time>2013-05-09T18:55:59Z</time>
      </trkpt>
      <trkpt lat="59.7971965" lon="17.7821481">
        <ele>5.42456</ele>
        <time>2013-05-09T18:56:00Z</time>
      </trkpt>
      <trkpt lat="59.7972408" lon="17.7820237">
        <ele>5.90527</ele>
        <time>2013-05-09T18:56:01Z</time>
      </trkpt>
      <trkpt lat="59.797284" lon="17.7818994">
        <ele>5.90527</ele>
        <time>2013-05-09T18:56:02Z</time>
      </trkpt>
      <trkpt lat="59.7973275" lon="17.781776">
        <ele>6.38586</ele>
        <time>2013-05-09T18:56:03Z</time>
      </trkpt>
      <trkpt lat="59.7973706" lon="17.7816532">
        <ele>6.38586</ele>
        <time>2013-05-09T18:56:04Z</time>
      </trkpt>
      <trkpt lat="59.7974131" lon="17.7815312">
        <ele>6.38586</ele>
        <time>2013-05-09T18:56:05Z</time>
      </trkpt>
      <trkpt lat="59.7974553" lon="17.7814101">
        <ele>6.38586</ele>
        <time>2013-05-09T18:56:06Z</time>
      </trkpt>
      <trkpt lat="59.7974975" lon="17.7812894">
        <ele>6.38586</ele>
        <time>2013-05-09T18:56:07Z</time>
      </trkpt>
      <trkpt lat="59.7975392" lon="17.7811692">
        <ele>6.38586</ele>
        <time>2013-05-09T18:56:08Z</time>
      </trkpt>
      <trkpt lat="59.7975799" lon="17.7810489">
        <ele>6.38586</ele>
        <time>2013-05-09T18:56:09Z</time>
      </trkpt>
      <trkpt lat="59.7976186" lon="17.7809258">
        <ele>6.38586</ele>
        <time>2013-05-09T18:56:10Z</time>
      </trkpt>
      <trkpt lat="59.7976589" lon="17.7808032">
        <ele>6.38586</ele>
        <time>2013-05-09T18:56:11Z</time>
      </trkpt>
      <trkpt lat="59.7976985" lon="17.7806779">
        <ele>6.38586</ele>
        <time>2013-05-09T18:56:12Z</time>
      </trkpt>
      <trkpt lat="59.7977367" lon="17.7805567">
        <ele>6.38586</ele>
        <time>2013-05-09T18:56:13Z</time>
      </trkpt>
      <trkpt lat="59.7977761" lon="17.7804366">
        <ele>6.38586</ele>
        <time>2013-05-09T18:56:14Z</time>
      </trkpt>
      <trkpt lat="59.7978158" lon="17.7803171">
        <ele>6.38586</ele>
        <time>2013-05-09T18:56:15Z</time>
      </trkpt>
      <trkpt lat="59.7978565" lon="17.7801974">
        <ele>6.38586</ele>
        <time>2013-05-09T18:56:16Z</time>
      </trkpt>
      <trkpt lat="59.7978972" lon="17.780079">
        <ele>6.38586</ele>
        <time>2013-05-09T18:56:17Z</time>
      </trkpt>
      <trkpt lat="59.7979395" lon="17.7799623">
        <ele>6.86646</ele>
        <time>2013-05-09T18:56:18Z</time>
      </trkpt>
      <trkpt lat="59.7979836" lon="17.7798466">
        <ele>6.86646</ele>
        <time>2013-05-09T18:56:19Z</time>
      </trkpt>
      <trkpt lat="59.7980287" lon="17.7797336">
        <ele>6.86646</ele>
        <time>2013-05-09T18:56:20Z</time>
      </trkpt>
      <trkpt lat="59.7980755" lon="17.7796229">
        <ele>6.86646</ele>
        <time>2013-05-09T18:56:21Z</time>
      </trkpt>
      <trkpt lat="59.7981252" lon="17.7795156">
        <ele>6.86646</ele>
        <time>2013-05-09T18:56:22Z</time>
      </trkpt>
      <trkpt lat="59.7981765" lon="17.77941">
        <ele>6.86646</ele>
        <time>2013-05-09T18:56:23Z</time>
      </trkpt>
      <trkpt lat="59.7982277" lon="17.7793046">
        <ele>6.86646</ele>
        <time>2013-05-09T18:56:24Z</time>
      </trkpt>
      <trkpt lat="59.7982816" lon="17.7792012">
        <ele>6.38586</ele>
        <time>2013-05-09T18:56:25Z</time>
      </trkpt>
      <trkpt lat="59.7983392" lon="17.7790996">
        <ele>6.38586</ele>
        <time>2013-05-09T18:56:26Z</time>
      </trkpt>
      <trkpt lat="59.7983993" lon="17.7789996">
        <ele>6.86646</ele>
        <time>2013-05-09T18:56:27Z</time>
      </trkpt>
      <trkpt lat="59.7984618" lon="17.7789011">
        <ele>6.86646</ele>
        <time>2013-05-09T18:56:28Z</time>
      </trkpt>
      <trkpt lat="59.7985252" lon="17.7788049">
        <ele>6.86646</ele>
        <time>2013-05-09T18:56:29Z</time>
      </trkpt>
      <trkpt lat="59.7985895" lon="17.7787111">
        <ele>6.86646</ele>
        <time>2013-05-09T18:56:30Z</time>
      </trkpt>
      <trkpt lat="59.7986551" lon="17.7786194">
        <ele>6.86646</ele>
        <time>2013-05-09T18:56:31Z</time>
      </trkpt>
      <trkpt lat="59.798722" lon="17.7785292">
        <ele>6.86646</ele>
        <time>2013-05-09T18:56:32Z</time>
      </trkpt>
      <trkpt lat="59.7987889" lon="17.7784393">
        <ele>7.34717</ele>
        <time>2013-05-09T18:56:33Z</time>
      </trkpt>
      <trkpt lat="59.7988552" lon="17.778351">
        <ele>7.34717</ele>
        <time>2013-05-09T18:56:34Z</time>
      </trkpt>
      <trkpt lat="59.7989208" lon="17.7782626">
        <ele>7.34717</ele>
        <time>2013-05-09T18:56:35Z</time>
      </trkpt>
      <trkpt lat="59.7989859" lon="17.7781714">
        <ele>6.86646</ele>
        <time>2013-05-09T18:56:36Z</time>
      </trkpt>
      <trkpt lat="59.7990509" lon="17.7780782">
        <ele>6.86646</ele>
        <time>2013-05-09T18:56:37Z</time>
      </trkpt>
      <trkpt lat="59.7991146" lon="17.7779821">
        <ele>6.86646</ele>
        <time>2013-05-09T18:56:38Z</time>
      </trkpt>
      <trkpt lat="59.7991809" lon="17.7778848">
        <ele>7.34717</ele>
        <time>2013-05-09T18:56:39Z</time>
      </trkpt>
      <trkpt lat="59.7992472" lon="17.777783">
        <ele>7.34717</ele>
        <time>2013-05-09T18:56:40Z</time>
      </trkpt>
      <trkpt lat="59.7993103" lon="17.7776756">
        <ele>6.86646</ele>
        <time>2013-05-09T18:56:41Z</time>
      </trkpt>
      <trkpt lat="59.7993713" lon="17.7775638">
        <ele>6.86646</ele>
        <time>2013-05-09T18:56:42Z</time>
      </trkpt>
      <trkpt lat="59.7994342" lon="17.7774488">
        <ele>6.86646</ele>
        <time>2013-05-09T18:56:43Z</time>
      </trkpt>
      <trkpt lat="59.7994995" lon="17.7773339">
        <ele>6.86646</ele>
        <time>2013-05-09T18:56:44Z</time>
      </trkpt>
      <trkpt lat="59.7995653" lon="17.7772176">
        <ele>6.38586</ele>
        <time>2013-05-09T18:56:45Z</time>
      </trkpt>
      <trkpt lat="59.7996362" lon="17.7770996">
        <ele>6.38586</ele>
        <time>2013-05-09T18:56:46Z</time>
      </trkpt>
      <trkpt lat="59.7997082" lon="17.7769813">
        <ele>6.38586</ele>
        <time>2013-05-09T18:56:47Z</time>
      </trkpt>
      <trkpt lat="59.7997772" lon="17.7768619">
        <ele>5.90527</ele>
        <time>2013-05-09T18:56:48Z</time>
      </trkpt>
      <trkpt lat="59.7998449" lon="17.7767422">
        <ele>5.90527</ele>
        <time>2013-05-09T18:56:49Z</time>
      </trkpt>
      <trkpt lat="59.7999099" lon="17.7766246">
        <ele>5.42456</ele>
        <time>2013-05-09T18:56:50Z</time>
      </trkpt>
      <trkpt lat="59.7999771" lon="17.7765091">
        <ele>4.94385</ele>
        <time>2013-05-09T18:56:51Z</time>
      </trkpt>
      <trkpt lat="59.8000435" lon="17.7763949">
        <ele>4.46326</ele>
        <time>2013-05-09T18:56:52Z</time>
      </trkpt>
      <trkpt lat="59.8001108" lon="17.7762834">
        <ele>3.98267</ele>
        <time>2013-05-09T18:56:53Z</time>
      </trkpt>
      <trkpt lat="59.8001769" lon="17.7761717">
        <ele>3.50195</ele>
        <time>2013-05-09T18:56:54Z</time>
      </trkpt>
      <trkpt lat="59.8002414" lon="17.7760562">
        <ele>3.50195</ele>
        <time>2013-05-09T18:56:55Z</time>
      </trkpt>
      <trkpt lat="59.800305" lon="17.7759414">
        <ele>3.50195</ele>
        <time>2013-05-09T18:56:56Z</time>
      </trkpt>
      <trkpt lat="59.800369" lon="17.7758278">
        <ele>3.50195</ele>
        <time>2013-05-09T18:56:57Z</time>
      </trkpt>
      <trkpt lat="59.8004322" lon="17.7757124">
        <ele>3.50195</ele>
        <time>2013-05-09T18:56:58Z</time>
      </trkpt>
      <trkpt lat="59.8004923" lon="17.7755944">
        <ele>3.50195</ele>
        <time>2013-05-09T18:56:59Z</time>
      </trkpt>
      <trkpt lat="59.8005536" lon="17.7754749">
        <ele>3.50195</ele>
        <time>2013-05-09T18:57:00Z</time>
      </trkpt>
      <trkpt lat="59.8006157" lon="17.7753543">
        <ele>3.50195</ele>
        <time>2013-05-09T18:57:01Z</time>
      </trkpt>
      <trkpt lat="59.8006788" lon="17.7752326">
        <ele>3.98267</ele>
        <time>2013-05-09T18:57:02Z</time>
      </trkpt>
      <trkpt lat="59.8007418" lon="17.7751106">
        <ele>4.46326</ele>
        <time>2013-05-09T18:57:03Z</time>
      </trkpt>
      <trkpt lat="59.8008045" lon="17.7749872">
        <ele>4.46326</ele>
        <time>2013-05-09T18:57:04Z</time>
      </trkpt>
      <trkpt lat="59.8008665" lon="17.7748614">
        <ele>4.46326</ele>
        <time>2013-05-09T18:57:05Z</time>
      </trkpt>
      <trkpt lat="59.8009285" lon="17.7747344">
        <ele>4.46326</ele>
        <time>2013-05-09T18:57:06Z</time>
      </trkpt>
      <trkpt lat="59.8009909" lon="17.7746065">
        <ele>4.46326</ele>
        <time>2013-05-09T18:57:07Z</time>
      </trkpt>
      <trkpt lat="59.8010534" lon="17.7744776">
        <ele>4.46326</ele>
        <time>2013-05-09T18:57:08Z</time>
      </trkpt>
      <trkpt lat="59.8011161" lon="17.7743479">
        <ele>4.46326</ele>
        <time>2013-05-09T18:57:09Z</time>
      </trkpt>
      <trkpt lat="59.8011789" lon="17.7742169">
        <ele>4.46326</ele>
        <time>2013-05-09T18:57:10Z</time>
      </trkpt>
      <trkpt lat="59.8012421" lon="17.7740854">
        <ele>4.46326</ele>
        <time>2013-05-09T18:57:11Z</time>
      </trkpt>
      <trkpt lat="59.8013056" lon="17.7739543">
        <ele>4.46326</ele>
        <time>2013-05-09T18:57:12Z</time>
      </trkpt>
      <trkpt lat="59.8013683" lon="17.7738232">
        <ele>4.46326</ele>
        <time>2013-05-09T18:57:13Z</time>
      </trkpt>
      <trkpt lat="59.8014306" lon="17.7736918">
        <ele>4.46326</ele>
        <time>2013-05-09T18:57:14Z</time>
      </trkpt>
      <trkpt lat="59.8014928" lon="17.7735617">
        <ele>3.98267</ele>
        <time>2013-05-09T18:57:15Z</time>
      </trkpt>
      <trkpt lat="59.8015553" lon="17.7734327">
        <ele>3.98267</ele>
        <time>2013-05-09T18:57:16Z</time>
      </trkpt>
      <trkpt lat="59.8016174" lon="17.7733038">
        <ele>3.98267</ele>
        <time>2013-05-09T18:57:17Z</time>
      </trkpt>
      <trkpt lat="59.8016792" lon="17.7731752">
        <ele>3.98267</ele>
        <time>2013-05-09T18:57:18Z</time>
      </trkpt>
      <trkpt lat="59.8017414" lon="17.7730473">
        <ele>3.98267</ele>
        <time>2013-05-09T18:57:19Z</time>
      </trkpt>
      <trkpt lat="59.8018032" lon="17.7729189">
        <ele>3.50195</ele>
        <time>2013-05-09T18:57:20Z</time>
      </trkpt>
      <trkpt lat="59.801865" lon="17.7727893">
        <ele>3.50195</ele>
        <time>2013-05-09T18:57:21Z</time>
      </trkpt>
      <trkpt lat="59.8019268" lon="17.7726593">
        <ele>3.50195</ele>
        <time>2013-05-09T18:57:22Z</time>
      </trkpt>
      <trkpt lat="59.8019891" lon="17.7725307">
        <ele>3.50195</ele>
        <time>2013-05-09T18:57:23Z</time>
      </trkpt>
      <trkpt lat="59.802052" lon="17.7724017">
        <ele>3.50195</ele>
        <time>2013-05-09T18:57:24Z</time>
      </trkpt>
      <trkpt lat="59.8021149" lon="17.7722713">
        <ele>3.50195</ele>
        <time>2013-05-09T18:57:25Z</time>
      </trkpt>
      <trkpt lat="59.8021776" lon="17.77214">
        <ele>3.02124</ele>
        <time>2013-05-09T18:57:26Z</time>
      </trkpt>
      <trkpt lat="59.8022397" lon="17.772008">
        <ele>3.02124</ele>
        <time>2013-05-09T18:57:27Z</time>
      </trkpt>
      <trkpt lat="59.8023014" lon="17.7718761">
        <ele>3.02124</ele>
        <time>2013-05-09T18:57:28Z</time>
      </trkpt>
      <trkpt lat="59.8023637" lon="17.7717455">
        <ele>3.02124</ele>
        <time>2013-05-09T18:57:29Z</time>
      </trkpt>
      <trkpt lat="59.8024267" lon="17.7716161">
        <ele>2.54065</ele>
        <time>2013-05-09T18:57:30Z</time>
      </trkpt>
      <trkpt lat="59.8024894" lon="17.7714861">
        <ele>2.54065</ele>
        <time>2013-05-09T18:57:31Z</time>
      </trkpt>
      <trkpt lat="59.8025521" lon="17.7713563">
        <ele>2.54065</ele>
        <time>2013-05-09T18:57:32Z</time>
      </trkpt>
      <trkpt lat="59.8026146" lon="17.7712259">
        <ele>2.54065</ele>
        <time>2013-05-09T18:57:33Z</time>
      </trkpt>
      <trkpt lat="59.8026768" lon="17.7710949">
        <ele>2.54065</ele>
        <time>2013-05-09T18:57:34Z</time>
      </trkpt>
      <trkpt lat="59.8027394" lon="17.7709646">
        <ele>2.54065</ele>
        <time>2013-05-09T18:57:35Z</time>
      </trkpt>
      <trkpt lat="59.8028023" lon="17.7708348">
        <ele>2.54065</ele>
        <time>2013-05-09T18:57:36Z</time>
      </trkpt>
      <trkpt lat="59.802865" lon="17.7707048">
        <ele>2.54065</ele>
        <time>2013-05-09T18:57:37Z</time>
      </trkpt>
      <trkpt lat="59.8029272" lon="17.7705751">
        <ele>2.54065</ele>
        <time>2013-05-09T18:57:38Z</time>
      </trkpt>
      <trkpt lat="59.8029896" lon="17.7704454">
        <ele>2.54065</ele>
        <time>2013-05-09T18:57:39Z</time>
      </trkpt>
      <trkpt lat="59.8030529" lon="17.7703159">
        <ele>2.54065</ele>
        <time>2013-05-09T18:57:40Z</time>
      </trkpt>
      <trkpt lat="59.8031162" lon="17.7701853">
        <ele>2.54065</ele>
        <time>2013-05-09T18:57:41Z</time>
      </trkpt>
      <trkpt lat="59.8031789" lon="17.7700537">
        <ele>2.54065</ele>
        <time>2013-05-09T18:57:42Z</time>
      </trkpt>
      <trkpt lat="59.803242" lon="17.7699229">
        <ele>2.54065</ele>
        <time>2013-05-09T18:57:43Z</time>
      </trkpt>
      <trkpt lat="59.8033053" lon="17.769793">
        <ele>2.54065</ele>
        <time>2013-05-09T18:57:44Z</time>
      </trkpt>
      <trkpt lat="59.8033684" lon="17.7696624">
        <ele>2.54065</ele>
        <time>2013-05-09T18:57:45Z</time>
      </trkpt>
      <trkpt lat="59.8034308" lon="17.7695316">
        <ele>2.54065</ele>
        <time>2013-05-09T18:57:46Z</time>
      </trkpt>
      <trkpt lat="59.8034933" lon="17.7694011">
        <ele>2.06006</ele>
        <time>2013-05-09T18:57:47Z</time>
      </trkpt>
      <trkpt lat="59.8035555" lon="17.7692713">
        <ele>2.06006</ele>
        <time>2013-05-09T18:57:48Z</time>
      </trkpt>
      <trkpt lat="59.8036177" lon="17.7691429">
        <ele>2.06006</ele>
        <time>2013-05-09T18:57:49Z</time>
      </trkpt>
      <trkpt lat="59.8036796" lon="17.7690145">
        <ele>2.06006</ele>
        <time>2013-05-09T18:57:50Z</time>
      </trkpt>
      <trkpt lat="59.8037411" lon="17.7688855">
        <ele>2.06006</ele>
        <time>2013-05-09T18:57:51Z</time>
      </trkpt>
      <trkpt lat="59.8038022" lon="17.7687569">
        <ele>2.06006</ele>
        <time>2013-05-09T18:57:52Z</time>
      </trkpt>
      <trkpt lat="59.8038632" lon="17.7686286">
        <ele>2.06006</ele>
        <time>2013-05-09T18:57:53Z</time>
      </trkpt>
      <trkpt lat="59.8039238" lon="17.768499">
        <ele>2.06006</ele>
        <time>2013-05-09T18:57:54Z</time>
      </trkpt>
      <trkpt lat="59.8039835" lon="17.7683669">
        <ele>2.06006</ele>
        <time>2013-05-09T18:57:55Z</time>
      </trkpt>
      <trkpt lat="59.8040425" lon="17.7682326">
        <ele>2.06006</ele>
        <time>2013-05-09T18:57:56Z</time>
      </trkpt>
      <trkpt lat="59.8041005" lon="17.7680962">
        <ele>2.06006</ele>
        <time>2013-05-09T18:57:57Z</time>
      </trkpt>
      <trkpt lat="59.8041577" lon="17.7679583">
        <ele>2.06006</ele>
        <time>2013-05-09T18:57:58Z</time>
      </trkpt>
      <trkpt lat="59.8042139" lon="17.7678184">
        <ele>1.57935</ele>
        <time>2013-05-09T18:57:59Z</time>
      </trkpt>
      <trkpt lat="59.8042687" lon="17.7676763">
        <ele>1.57935</ele>
        <time>2013-05-09T18:58:00Z</time>
      </trkpt>
      <trkpt lat="59.8043216" lon="17.7675315">
        <ele>1.57935</ele>
        <time>2013-05-09T18:58:01Z</time>
      </trkpt>
      <trkpt lat="59.8043734" lon="17.7673852">
        <ele>1.57935</ele>
        <time>2013-05-09T18:58:02Z</time>
      </trkpt>
      <trkpt lat="59.8044242" lon="17.767237">
        <ele>1.57935</ele>
        <time>2013-05-09T18:58:03Z</time>
      </trkpt>
      <trkpt lat="59.804473" lon="17.7670865">
        <ele>1.57935</ele>
        <time>2013-05-09T18:58:04Z</time>
      </trkpt>
      <trkpt lat="59.8045196" lon="17.7669341">
        <ele>1.57935</ele>
        <time>2013-05-09T18:58:05Z</time>
      </trkpt>
      <trkpt lat="59.8045646" lon="17.7667804">
        <ele>1.57935</ele>
        <time>2013-05-09T18:58:06Z</time>
      </trkpt>
      <trkpt lat="59.8046077" lon="17.7666256">
        <ele>2.06006</ele>
        <time>2013-05-09T18:58:07Z</time>
      </trkpt>
      <trkpt lat="59.8046493" lon="17.7664696">
        <ele>2.06006</ele>
        <time>2013-05-09T18:58:08Z</time>
      </trkpt>
      <trkpt lat="59.8046895" lon="17.7663137">
        <ele>2.06006</ele>
        <time>2013-05-09T18:58:09Z</time>
      </trkpt>
      <trkpt lat="59.8047279" lon="17.7661567">
        <ele>2.06006</ele>
        <time>2013-05-09T18:58:10Z</time>
      </trkpt>
      <trkpt lat="59.8047645" lon="17.7659976">
        <ele>1.57935</ele>
        <time>2013-05-09T18:58:11Z</time>
      </trkpt>
      <trkpt lat="59.8048001" lon="17.7658377">
        <ele>1.57935</ele>
        <time>2013-05-09T18:58:12Z</time>
      </trkpt>
      <trkpt lat="59.804834" lon="17.7656773">
        <ele>1.57935</ele>
        <time>2013-05-09T18:58:13Z</time>
      </trkpt>
      <trkpt lat="59.8048662" lon="17.7655154">
        <ele>1.57935</ele>
        <time>2013-05-09T18:58:14Z</time>
      </trkpt>
      <trkpt lat="59.8048967" lon="17.765353">
        <ele>1.57935</ele>
        <time>2013-05-09T18:58:15Z</time>
      </trkpt>
      <trkpt lat="59.8049247" lon="17.7651895">
        <ele>1.57935</ele>
        <time>2013-05-09T18:58:16Z</time>
      </trkpt>
      <trkpt lat="59.804951" lon="17.7650258">
        <ele>2.06006</ele>
        <time>2013-05-09T18:58:17Z</time>
      </trkpt>
      <trkpt lat="59.8049763" lon="17.7648602">
        <ele>1.57935</ele>
        <time>2013-05-09T18:58:18Z</time>
      </trkpt>
      <trkpt lat="59.8050001" lon="17.7646934">
        <ele>1.57935</ele>
        <time>2013-05-09T18:58:19Z</time>
      </trkpt>
      <trkpt lat="59.8050234" lon="17.7645274">
        <ele>1.57935</ele>
        <time>2013-05-09T18:58:20Z</time>
      </trkpt>
      <trkpt lat="59.8050449" lon="17.7643603">
        <ele>1.57935</ele>
        <time>2013-05-09T18:58:21Z</time>
      </trkpt>
      <trkpt lat="59.8050628" lon="17.7641918">
        <ele>1.57935</ele>
        <time>2013-05-09T18:58:22Z</time>
      </trkpt>
      <trkpt lat="59.8050795" lon="17.764024">
        <ele>1.57935</ele>
        <time>2013-05-09T18:58:23Z</time>
      </trkpt>
      <trkpt lat="59.8050961" lon="17.7638551">
        <ele>1.09863</ele>
        <time>2013-05-09T18:58:24Z</time>
      </trkpt>
      <trkpt lat="59.8051125" lon="17.7636845">
        <ele>1.09863</ele>
        <time>2013-05-09T18:58:25Z</time>
      </trkpt>
      <trkpt lat="59.8051273" lon="17.7635122">
        <ele>0.618042</ele>
        <time>2013-05-09T18:58:26Z</time>
      </trkpt>
      <trkpt lat="59.805141" lon="17.7633387">
        <ele>0.618042</ele>
        <time>2013-05-09T18:58:27Z</time>
      </trkpt>
      <trkpt lat="59.8051554" lon="17.7631661">
        <ele>0.618042</ele>
        <time>2013-05-09T18:58:28Z</time>
      </trkpt>
      <trkpt lat="59.8051731" lon="17.7629932">
        <ele>0.618042</ele>
        <time>2013-05-09T18:58:29Z</time>
      </trkpt>
      <trkpt lat="59.805186" lon="17.7628141">
        <ele>0.137451</ele>
        <time>2013-05-09T18:58:30Z</time>
      </trkpt>
      <trkpt lat="59.8051989" lon="17.7626472">
        <ele>0.618042</ele>
        <time>2013-05-09T18:58:31Z</time>
      </trkpt>
      <trkpt lat="59.8052121" lon="17.7624819">
        <ele>1.09863</ele>
        <time>2013-05-09T18:58:32Z</time>
      </trkpt>
      <trkpt lat="59.8052204" lon="17.7623238">
        <ele>1.09863</ele>
        <time>2013-05-09T18:58:33Z</time>
      </trkpt>
      <trkpt lat="59.8052026" lon="17.762196">
        <ele>3.02124</ele>
        <time>2013-05-09T18:58:34Z</time>
      </trkpt>
      <trkpt lat="59.805162" lon="17.7620153">
        <ele>3.50195</ele>
        <time>2013-05-09T18:58:35Z</time>
      </trkpt>
      <trkpt lat="59.8051567" lon="17.7618229">
        <ele>4.46326</ele>
        <time>2013-05-09T18:58:36Z</time>
      </trkpt>
      <trkpt lat="59.8051665" lon="17.7616494">
        <ele>4.46326</ele>
        <time>2013-05-09T18:58:37Z</time>
      </trkpt>
      <trkpt lat="59.8051907" lon="17.7614759">
        <ele>5.42456</ele>
        <time>2013-05-09T18:58:38Z</time>
      </trkpt>
      <trkpt lat="59.8052178" lon="17.7613153">
        <ele>6.38586</ele>
        <time>2013-05-09T18:58:39Z</time>
      </trkpt>
      <trkpt lat="59.8052266" lon="17.7611535">
        <ele>6.38586</ele>
        <time>2013-05-09T18:58:40Z</time>
      </trkpt>
      <trkpt lat="59.8052314" lon="17.7609919">
        <ele>6.86646</ele>
        <time>2013-05-09T18:58:41Z</time>
      </trkpt>
      <trkpt lat="59.8052401" lon="17.7608332">
        <ele>6.38586</ele>
        <time>2013-05-09T18:58:42Z</time>
      </trkpt>
      <trkpt lat="59.8052557" lon="17.7606766">
        <ele>6.38586</ele>
        <time>2013-05-09T18:58:43Z</time>
      </trkpt>
      <trkpt lat="59.8052647" lon="17.7605259">
        <ele>6.86646</ele>
        <time>2013-05-09T18:58:44Z</time>
      </trkpt>
      <trkpt lat="59.8052794" lon="17.7603814">
        <ele>6.86646</ele>
        <time>2013-05-09T18:58:45Z</time>
      </trkpt>
      <trkpt lat="59.8052892" lon="17.760229">
        <ele>7.34717</ele>
        <time>2013-05-09T18:58:46Z</time>
      </trkpt>
      <trkpt lat="59.8053091" lon="17.7600857">
        <ele>8.30859</ele>
        <time>2013-05-09T18:58:47Z</time>
      </trkpt>
      <trkpt lat="59.8053344" lon="17.7599493">
        <ele>8.30859</ele>
        <time>2013-05-09T18:58:48Z</time>
      </trkpt>
      <trkpt lat="59.8053706" lon="17.759811">
        <ele>7.82788</ele>
        <time>2013-05-09T18:58:49Z</time>
      </trkpt>
      <trkpt lat="59.8054062" lon="17.7596726">
        <ele>7.82788</ele>
        <time>2013-05-09T18:58:50Z</time>
      </trkpt>
      <trkpt lat="59.805441" lon="17.7595344">
        <ele>7.34717</ele>
        <time>2013-05-09T18:58:51Z</time>
      </trkpt>
      <trkpt lat="59.8054895" lon="17.7594045">
        <ele>7.82788</ele>
        <time>2013-05-09T18:58:52Z</time>
      </trkpt>
      <trkpt lat="59.8055338" lon="17.759275">
        <ele>8.30859</ele>
        <time>2013-05-09T18:58:53Z</time>
      </trkpt>
      <trkpt lat="59.8055779" lon="17.7591471">
        <ele>8.30859</ele>
        <time>2013-05-09T18:58:54Z</time>
      </trkpt>
      <trkpt lat="59.8056228" lon="17.7590215">
        <ele>8.30859</ele>
        <time>2013-05-09T18:58:55Z</time>
      </trkpt>
      <trkpt lat="59.8056689" lon="17.7588982">
        <ele>8.30859</ele>
        <time>2013-05-09T18:58:56Z</time>
      </trkpt>
      <trkpt lat="59.8057172" lon="17.7587749">
        <ele>8.78918</ele>
        <time>2013-05-09T18:58:57Z</time>
      </trkpt>
      <trkpt lat="59.8057679" lon="17.7586517">
        <ele>8.78918</ele>
        <time>2013-05-09T18:58:58Z</time>
      </trkpt>
      <trkpt lat="59.8058209" lon="17.7585299">
        <ele>8.78918</ele>
        <time>2013-05-09T18:58:59Z</time>
      </trkpt>
      <trkpt lat="59.8058762" lon="17.7584101">
        <ele>8.78918</ele>
        <time>2013-05-09T18:59:00Z</time>
      </trkpt>
      <trkpt lat="59.8059337" lon="17.7582916">
        <ele>8.78918</ele>
        <time>2013-05-09T18:59:01Z</time>
      </trkpt>
      <trkpt lat="59.8059926" lon="17.7581756">
        <ele>8.78918</ele>
        <time>2013-05-09T18:59:02Z</time>
      </trkpt>
      <trkpt lat="59.8060529" lon="17.7580628">
        <ele>8.78918</ele>
        <time>2013-05-09T18:59:03Z</time>
      </trkpt>
      <trkpt lat="59.8061153" lon="17.7579523">
        <ele>8.78918</ele>
        <time>2013-05-09T18:59:04Z</time>
      </trkpt>
      <trkpt lat="59.8061802" lon="17.7578453">
        <ele>8.30859</ele>
        <time>2013-05-09T18:59:05Z</time>
      </trkpt>
      <trkpt lat="59.8062476" lon="17.7577425">
        <ele>8.30859</ele>
        <time>2013-05-09T18:59:06Z</time>
      </trkpt>
      <trkpt lat="59.8063169" lon="17.7576411">
        <ele>8.30859</ele>
        <time>2013-05-09T18:59:07Z</time>
      </trkpt>
      <trkpt lat="59.8063865" lon="17.7575414">
        <ele>8.30859</ele>
        <time>2013-05-09T18:59:08Z</time>
      </trkpt>
      <trkpt lat="59.8064584" lon="17.7574468">
        <ele>8.30859</ele>
        <time>2013-05-09T18:59:09Z</time>
      </trkpt>
      <trkpt lat="59.8065325" lon="17.7573586">
        <ele>7.82788</ele>
        <time>2013-05-09T18:59:10Z</time>
      </trkpt>
      <trkpt lat="59.8066087" lon="17.7572749">
        <ele>7.82788</ele>
        <time>2013-05-09T18:59:11Z</time>
      </trkpt>
      <trkpt lat="59.8066873" lon="17.7571964">
        <ele>7.82788</ele>
        <time>2013-05-09T18:59:12Z</time>
      </trkpt>
      <trkpt lat="59.806767" lon="17.7571224">
        <ele>7.82788</ele>
        <time>2013-05-09T18:59:13Z</time>
      </trkpt>
      <trkpt lat="59.8068472" lon="17.7570515">
        <ele>7.82788</ele>
        <time>2013-05-09T18:59:14Z</time>
      </trkpt>
      <trkpt lat="59.8069281" lon="17.7569849">
        <ele>7.82788</ele>
        <time>2013-05-09T18:59:15Z</time>
      </trkpt>
      <trkpt lat="59.8070104" lon="17.7569251">
        <ele>7.82788</ele>
        <time>2013-05-09T18:59:16Z</time>
      </trkpt>
      <trkpt lat="59.8070938" lon="17.7568698">
        <ele>7.82788</ele>
        <time>2013-05-09T18:59:17Z</time>
      </trkpt>
      <trkpt lat="59.8071778" lon="17.7568191">
        <ele>7.82788</ele>
        <time>2013-05-09T18:59:18Z</time>
      </trkpt>
      <trkpt lat="59.8072629" lon="17.7567751">
        <ele>8.30859</ele>
        <time>2013-05-09T18:59:19Z</time>
      </trkpt>
      <trkpt lat="59.8073482" lon="17.7567364">
        <ele>8.30859</ele>
        <time>2013-05-09T18:59:20Z</time>
      </trkpt>
      <trkpt lat="59.8074339" lon="17.7567028">
        <ele>8.30859</ele>
        <time>2013-05-09T18:59:21Z</time>
      </trkpt>
      <trkpt lat="59.8075202" lon="17.756674">
        <ele>8.78918</ele>
        <time>2013-05-09T18:59:22Z</time>
      </trkpt>
      <trkpt lat="59.8076067" lon="17.7566501">
        <ele>8.78918</ele>
        <time>2013-05-09T18:59:23Z</time>
      </trkpt>
      <trkpt lat="59.8076933" lon="17.756631">
        <ele>8.78918</ele>
        <time>2013-05-09T18:59:24Z</time>
      </trkpt>
      <trkpt lat="59.8077797" lon="17.7566165">
        <ele>9.2699</ele>
        <time>2013-05-09T18:59:25Z</time>
      </trkpt>
      <trkpt lat="59.8078653" lon="17.756607">
        <ele>9.2699</ele>
        <time>2013-05-09T18:59:26Z</time>
      </trkpt>
      <trkpt lat="59.8079512" lon="17.7566012">
        <ele>9.75061</ele>
        <time>2013-05-09T18:59:27Z</time>
      </trkpt>
      <trkpt lat="59.8080373" lon="17.7565979">
        <ele>9.75061</ele>
        <time>2013-05-09T18:59:28Z</time>
      </trkpt>
      <trkpt lat="59.8081236" lon="17.7565972">
        <ele>10.2312</ele>
        <time>2013-05-09T18:59:29Z</time>
      </trkpt>
      <trkpt lat="59.8082098" lon="17.7565974">
        <ele>10.2312</ele>
        <time>2013-05-09T18:59:30Z</time>
      </trkpt>
      <trkpt lat="59.8082957" lon="17.7565964">
        <ele>10.7118</ele>
        <time>2013-05-09T18:59:31Z</time>
      </trkpt>
      <trkpt lat="59.8083808" lon="17.7565941">
        <ele>10.7118</ele>
        <time>2013-05-09T18:59:32Z</time>
      </trkpt>
      <trkpt lat="59.8084652" lon="17.7565902">
        <ele>11.1925</ele>
        <time>2013-05-09T18:59:33Z</time>
      </trkpt>
      <trkpt lat="59.8085494" lon="17.7565842">
        <ele>11.1925</ele>
        <time>2013-05-09T18:59:34Z</time>
      </trkpt>
      <trkpt lat="59.808633" lon="17.7565745">
        <ele>11.1925</ele>
        <time>2013-05-09T18:59:35Z</time>
      </trkpt>
      <trkpt lat="59.808716" lon="17.7565601">
        <ele>11.1925</ele>
        <time>2013-05-09T18:59:36Z</time>
      </trkpt>
      <trkpt lat="59.8087984" lon="17.7565403">
        <ele>11.1925</ele>
        <time>2013-05-09T18:59:37Z</time>
      </trkpt>
      <trkpt lat="59.8088804" lon="17.7565163">
        <ele>11.1925</ele>
        <time>2013-05-09T18:59:38Z</time>
      </trkpt>
      <trkpt lat="59.8089618" lon="17.7564885">
        <ele>11.1925</ele>
        <time>2013-05-09T18:59:39Z</time>
      </trkpt>
      <trkpt lat="59.8090423" lon="17.756456">
        <ele>11.1925</ele>
        <time>2013-05-09T18:59:40Z</time>
      </trkpt>
      <trkpt lat="59.8091223" lon="17.7564186">
        <ele>11.6732</ele>
        <time>2013-05-09T18:59:41Z</time>
      </trkpt>
      <trkpt lat="59.8092012" lon="17.7563757">
        <ele>11.6732</ele>
        <time>2013-05-09T18:59:42Z</time>
      </trkpt>
      <trkpt lat="59.8092796" lon="17.7563272">
        <ele>11.6732</ele>
        <time>2013-05-09T18:59:43Z</time>
      </trkpt>
      <trkpt lat="59.8093577" lon="17.756275">
        <ele>11.6732</ele>
        <time>2013-05-09T18:59:44Z</time>
      </trkpt>
      <trkpt lat="59.809435" lon="17.7562191">
        <ele>11.6732</ele>
        <time>2013-05-09T18:59:45Z</time>
      </trkpt>
      <trkpt lat="59.8095114" lon="17.7561584">
        <ele>11.6732</ele>
        <time>2013-05-09T18:59:46Z</time>
      </trkpt>
      <trkpt lat="59.8095867" lon="17.7560918">
        <ele>11.6732</ele>
        <time>2013-05-09T18:59:47Z</time>
      </trkpt>
      <trkpt lat="59.8096609" lon="17.7560203">
        <ele>11.6732</ele>
        <time>2013-05-09T18:59:48Z</time>
      </trkpt>
      <trkpt lat="59.8097343" lon="17.7559462">
        <ele>11.6732</ele>
        <time>2013-05-09T18:59:49Z</time>
      </trkpt>
      <trkpt lat="59.8098068" lon="17.7558681">
        <ele>11.6732</ele>
        <time>2013-05-09T18:59:50Z</time>
      </trkpt>
      <trkpt lat="59.8098778" lon="17.7557851">
        <ele>11.6732</ele>
        <time>2013-05-09T18:59:51Z</time>
      </trkpt>
      <trkpt lat="59.8099476" lon="17.7556974">
        <ele>11.6732</ele>
        <time>2013-05-09T18:59:52Z</time>
      </trkpt>
      <trkpt lat="59.8100161" lon="17.7556046">
        <ele>11.6732</ele>
        <time>2013-05-09T18:59:53Z</time>
      </trkpt>
      <trkpt lat="59.8100835" lon="17.755508">
        <ele>11.1925</ele>
        <time>2013-05-09T18:59:54Z</time>
      </trkpt>
      <trkpt lat="59.8101493" lon="17.7554074">
        <ele>11.1925</ele>
        <time>2013-05-09T18:59:55Z</time>
      </trkpt>
      <trkpt lat="59.8102135" lon="17.7553013">
        <ele>11.1925</ele>
        <time>2013-05-09T18:59:56Z</time>
      </trkpt>
      <trkpt lat="59.8102765" lon="17.755192">
        <ele>10.7118</ele>
        <time>2013-05-09T18:59:57Z</time>
      </trkpt>
      <trkpt lat="59.8103381" lon="17.7550785">
        <ele>10.7118</ele>
        <time>2013-05-09T18:59:58Z</time>
      </trkpt>
      <trkpt lat="59.8103984" lon="17.7549609">
        <ele>10.7118</ele>
        <time>2013-05-09T18:59:59Z</time>
      </trkpt>
      <trkpt lat="59.810458" lon="17.7548401">
        <ele>10.2312</ele>
        <time>2013-05-09T19:00:00Z</time>
      </trkpt>
      <trkpt lat="59.8105165" lon="17.7547172">
        <ele>10.2312</ele>
        <time>2013-05-09T19:00:01Z</time>
      </trkpt>
      <trkpt lat="59.8105745" lon="17.7545929">
        <ele>10.2312</ele>
        <time>2013-05-09T19:00:02Z</time>
      </trkpt>
      <trkpt lat="59.8106331" lon="17.7544678">
        <ele>9.75061</ele>
        <time>2013-05-09T19:00:03Z</time>
      </trkpt>
      <trkpt lat="59.8106919" lon="17.7543449">
        <ele>9.75061</ele>
        <time>2013-05-09T19:00:04Z</time>
      </trkpt>
      <trkpt lat="59.8107507" lon="17.7542226">
        <ele>9.75061</ele>
        <time>2013-05-09T19:00:05Z</time>
      </trkpt>
      <trkpt lat="59.8108092" lon="17.7541">
        <ele>9.75061</ele>
        <time>2013-05-09T19:00:06Z</time>
      </trkpt>
      <trkpt lat="59.8108671" lon="17.7539771">
        <ele>9.75061</ele>
        <time>2013-05-09T19:00:07Z</time>
      </trkpt>
      <trkpt lat="59.8109247" lon="17.7538539">
        <ele>9.75061</ele>
        <time>2013-05-09T19:00:08Z</time>
      </trkpt>
      <trkpt lat="59.8109818" lon="17.7537308">
        <ele>9.75061</ele>
        <time>2013-05-09T19:00:09Z</time>
      </trkpt>
      <trkpt lat="59.8110386" lon="17.7536088">
        <ele>10.2312</ele>
        <time>2013-05-09T19:00:10Z</time>
      </trkpt>
      <trkpt lat="59.8110958" lon="17.7534882">
        <ele>10.2312</ele>
        <time>2013-05-09T19:00:11Z</time>
      </trkpt>
      <trkpt lat="59.8111533" lon="17.7533674">
        <ele>10.2312</ele>
        <time>2013-05-09T19:00:12Z</time>
      </trkpt>
      <trkpt lat="59.8112107" lon="17.7532466">
        <ele>10.2312</ele>
        <time>2013-05-09T19:00:13Z</time>
      </trkpt>
      <trkpt lat="59.8112682" lon="17.7531265">
        <ele>10.2312</ele>
        <time>2013-05-09T19:00:14Z</time>
      </trkpt>
      <trkpt lat="59.8113257" lon="17.7530057">
        <ele>10.2312</ele>
        <time>2013-05-09T19:00:15Z</time>
      </trkpt>
      <trkpt lat="59.8113832" lon="17.7528858">
        <ele>9.2699</ele>
        <time>2013-05-09T19:00:16Z</time>
      </trkpt>
      <trkpt lat="59.8114412" lon="17.752766">
        <ele>8.30859</ele>
        <time>2013-05-09T19:00:17Z</time>
      </trkpt>
      <trkpt lat="59.8114992" lon="17.7526454">
        <ele>7.82788</ele>
        <time>2013-05-09T19:00:18Z</time>
      </trkpt>
      <trkpt lat="59.8115566" lon="17.7525242">
        <ele>6.86646</ele>
        <time>2013-05-09T19:00:19Z</time>
      </trkpt>
      <trkpt lat="59.8116133" lon="17.752404">
        <ele>6.38586</ele>
        <time>2013-05-09T19:00:20Z</time>
      </trkpt>
      <trkpt lat="59.8116699" lon="17.7522847">
        <ele>5.90527</ele>
        <time>2013-05-09T19:00:21Z</time>
      </trkpt>
      <trkpt lat="59.8117264" lon="17.7521667">
        <ele>5.42456</ele>
        <time>2013-05-09T19:00:22Z</time>
      </trkpt>
      <trkpt lat="59.8117831" lon="17.7520492">
        <ele>4.94385</ele>
        <time>2013-05-09T19:00:23Z</time>
      </trkpt>
      <trkpt lat="59.8118395" lon="17.7519309">
        <ele>4.46326</ele>
        <time>2013-05-09T19:00:24Z</time>
      </trkpt>
      <trkpt lat="59.8118955" lon="17.7518113">
        <ele>3.98267</ele>
        <time>2013-05-09T19:00:25Z</time>
      </trkpt>
      <trkpt lat="59.8119519" lon="17.7516915">
        <ele>3.98267</ele>
        <time>2013-05-09T19:00:26Z</time>
      </trkpt>
      <trkpt lat="59.8120088" lon="17.7515724">
        <ele>3.50195</ele>
        <time>2013-05-09T19:00:27Z</time>
      </trkpt>
      <trkpt lat="59.8120658" lon="17.7514539">
        <ele>3.50195</ele>
        <time>2013-05-09T19:00:28Z</time>
      </trkpt>
      <trkpt lat="59.8121227" lon="17.7513355">
        <ele>3.02124</ele>
        <time>2013-05-09T19:00:29Z</time>
      </trkpt>
      <trkpt lat="59.8121793" lon="17.7512168">
        <ele>2.54065</ele>
        <time>2013-05-09T19:00:30Z</time>
      </trkpt>
      <trkpt lat="59.8122342" lon="17.7510945">
        <ele>2.54065</ele>
        <time>2013-05-09T19:00:31Z</time>
      </trkpt>
      <trkpt lat="59.8122874" lon="17.750968">
        <ele>2.06006</ele>
        <time>2013-05-09T19:00:32Z</time>
      </trkpt>
      <trkpt lat="59.8123435" lon="17.7508451">
        <ele>2.06006</ele>
        <time>2013-05-09T19:00:33Z</time>
      </trkpt>
      <trkpt lat="59.8124032" lon="17.7507271">
        <ele>2.06006</ele>
        <time>2013-05-09T19:00:34Z</time>
      </trkpt>
      <trkpt lat="59.8124643" lon="17.7506102">
        <ele>2.06006</ele>
        <time>2013-05-09T19:00:35Z</time>
      </trkpt>
      <trkpt lat="59.8125248" lon="17.750491">
        <ele>1.57935</ele>
        <time>2013-05-09T19:00:36Z</time>
      </trkpt>
      <trkpt lat="59.8125844" lon="17.7503691">
        <ele>1.57935</ele>
        <time>2013-05-09T19:00:37Z</time>
      </trkpt>
      <trkpt lat="59.8126433" lon="17.750245">
        <ele>1.57935</ele>
        <time>2013-05-09T19:00:38Z</time>
      </trkpt>
      <trkpt lat="59.8127025" lon="17.7501207">
        <ele>1.57935</ele>
        <time>2013-05-09T19:00:39Z</time>
      </trkpt>
      <trkpt lat="59.8127632" lon="17.7499975">
        <ele>1.09863</ele>
        <time>2013-05-09T19:00:40Z</time>
      </trkpt>
      <trkpt lat="59.8128232" lon="17.7498731">
        <ele>1.09863</ele>
        <time>2013-05-09T19:00:41Z</time>
      </trkpt>
      <trkpt lat="59.8128827" lon="17.7497476">
        <ele>1.09863</ele>
        <time>2013-05-09T19:00:42Z</time>
      </trkpt>
      <trkpt lat="59.8129424" lon="17.7496214">
        <ele>1.09863</ele>
        <time>2013-05-09T19:00:43Z</time>
      </trkpt>
      <trkpt lat="59.813002" lon="17.7494954">
        <ele>1.09863</ele>
        <time>2013-05-09T19:00:44Z</time>
      </trkpt>
      <trkpt lat="59.8130621" lon="17.7493701">
        <ele>1.09863</ele>
        <time>2013-05-09T19:00:45Z</time>
      </trkpt>
      <trkpt lat="59.8131221" lon="17.7492447">
        <ele>0.618042</ele>
        <time>2013-05-09T19:00:46Z</time>
      </trkpt>
      <trkpt lat="59.8131817" lon="17.7491183">
        <ele>0.618042</ele>
        <time>2013-05-09T19:00:47Z</time>
      </trkpt>
      <trkpt lat="59.8132417" lon="17.748992">
        <ele>0.618042</ele>
        <time>2013-05-09T19:00:48Z</time>
      </trkpt>
      <trkpt lat="59.813302" lon="17.7488676">
        <ele>0.618042</ele>
        <time>2013-05-09T19:00:49Z</time>
      </trkpt>
      <trkpt lat="59.8133623" lon="17.7487438">
        <ele>0.618042</ele>
        <time>2013-05-09T19:00:50Z</time>
      </trkpt>
      <trkpt lat="59.8134215" lon="17.748619">
        <ele>0.618042</ele>
        <time>2013-05-09T19:00:51Z</time>
      </trkpt>
      <trkpt lat="59.8134801" lon="17.7484946">
        <ele>0.618042</ele>
        <time>2013-05-09T19:00:52Z</time>
      </trkpt>
      <trkpt lat="59.8135389" lon="17.7483717">
        <ele>0.618042</ele>
        <time>2013-05-09T19:00:53Z</time>
      </trkpt>
      <trkpt lat="59.8135971" lon="17.7482501">
        <ele>0.618042</ele>
        <time>2013-05-09T19:00:54Z</time>
      </trkpt>
      <trkpt lat="59.8136546" lon="17.7481295">
        <ele>0.618042</ele>
        <time>2013-05-09T19:00:55Z</time>
      </trkpt>
      <trkpt lat="59.813712" lon="17.7480099">
        <ele>0.618042</ele>
        <time>2013-05-09T19:00:56Z</time>
      </trkpt>
      <trkpt lat="59.8137694" lon="17.7478909">
        <ele>1.09863</ele>
        <time>2013-05-09T19:00:57Z</time>
      </trkpt>
      <trkpt lat="59.8138262" lon="17.747773">
        <ele>1.09863</ele>
        <time>2013-05-09T19:00:58Z</time>
      </trkpt>
      <trkpt lat="59.8138826" lon="17.7476563">
        <ele>1.09863</ele>
        <time>2013-05-09T19:00:59Z</time>
      </trkpt>
      <trkpt lat="59.8139388" lon="17.7475399">
        <ele>1.09863</ele>
        <time>2013-05-09T19:01:00Z</time>
      </trkpt>
      <trkpt lat="59.8139948" lon="17.7474235">
        <ele>1.09863</ele>
        <time>2013-05-09T19:01:01Z</time>
      </trkpt>
      <trkpt lat="59.81405" lon="17.7473062">
        <ele>1.09863</ele>
        <time>2013-05-09T19:01:02Z</time>
      </trkpt>
      <trkpt lat="59.8141049" lon="17.7471883">
        <ele>1.09863</ele>
        <time>2013-05-09T19:01:03Z</time>
      </trkpt>
      <trkpt lat="59.8141597" lon="17.7470716">
        <ele>1.09863</ele>
        <time>2013-05-09T19:01:04Z</time>
      </trkpt>
      <trkpt lat="59.8142144" lon="17.7469557">
        <ele>1.09863</ele>
        <time>2013-05-09T19:01:05Z</time>
      </trkpt>
      <trkpt lat="59.8142689" lon="17.7468405">
        <ele>1.09863</ele>
        <time>2013-05-09T19:01:06Z</time>
      </trkpt>
      <trkpt lat="59.8143229" lon="17.7467256">
        <ele>1.09863</ele>
        <time>2013-05-09T19:01:07Z</time>
      </trkpt>
      <trkpt lat="59.8143765" lon="17.7466122">
        <ele>1.57935</ele>
        <time>2013-05-09T19:01:08Z</time>
      </trkpt>
      <trkpt lat="59.8144296" lon="17.7465002">
        <ele>1.57935</ele>
        <time>2013-05-09T19:01:09Z</time>
      </trkpt>
      <trkpt lat="59.8144823" lon="17.7463889">
        <ele>1.57935</ele>
        <time>2013-05-09T19:01:10Z</time>
      </trkpt>
      <trkpt lat="59.8145343" lon="17.7462787">
        <ele>1.57935</ele>
        <time>2013-05-09T19:01:11Z</time>
      </trkpt>
      <trkpt lat="59.8145858" lon="17.7461703">
        <ele>2.06006</ele>
        <time>2013-05-09T19:01:12Z</time>
      </trkpt>
      <trkpt lat="59.8146367" lon="17.7460636">
        <ele>2.06006</ele>
        <time>2013-05-09T19:01:13Z</time>
      </trkpt>
      <trkpt lat="59.814687" lon="17.7459572">
        <ele>2.06006</ele>
        <time>2013-05-09T19:01:14Z</time>
      </trkpt>
      <trkpt lat="59.8147362" lon="17.7458511">
        <ele>2.54065</ele>
        <time>2013-05-09T19:01:15Z</time>
      </trkpt>
      <trkpt lat="59.814785" lon="17.7457466">
        <ele>2.54065</ele>
        <time>2013-05-09T19:01:16Z</time>
      </trkpt>
      <trkpt lat="59.8148336" lon="17.7456443">
        <ele>2.54065</ele>
        <time>2013-05-09T19:01:17Z</time>
      </trkpt>
      <trkpt lat="59.8148818" lon="17.7455441">
        <ele>3.02124</ele>
        <time>2013-05-09T19:01:18Z</time>
      </trkpt>
      <trkpt lat="59.8149292" lon="17.7454459">
        <ele>3.02124</ele>
        <time>2013-05-09T19:01:19Z</time>
      </trkpt>
      <trkpt lat="59.8149759" lon="17.7453491">
        <ele>3.50195</ele>
        <time>2013-05-09T19:01:20Z</time>
      </trkpt>
      <trkpt lat="59.8150217" lon="17.7452529">
        <ele>3.50195</ele>
        <time>2013-05-09T19:01:21Z</time>
      </trkpt>
      <trkpt lat="59.8150657" lon="17.7451571">
        <ele>3.50195</ele>
        <time>2013-05-09T19:01:22Z</time>
      </trkpt>
      <trkpt lat="59.8151092" lon="17.7450636">
        <ele>3.98267</ele>
        <time>2013-05-09T19:01:23Z</time>
      </trkpt>
      <trkpt lat="59.8151526" lon="17.7449724">
        <ele>3.98267</ele>
        <time>2013-05-09T19:01:24Z</time>
      </trkpt>
      <trkpt lat="59.8151952" lon="17.7448815">
        <ele>4.46326</ele>
        <time>2013-05-09T19:01:25Z</time>
      </trkpt>
      <trkpt lat="59.8152373" lon="17.7447909">
        <ele>4.46326</ele>
        <time>2013-05-09T19:01:26Z</time>
      </trkpt>
      <trkpt lat="59.8152794" lon="17.7447017">
        <ele>4.46326</ele>
        <time>2013-05-09T19:01:27Z</time>
      </trkpt>
      <trkpt lat="59.8153211" lon="17.7446143">
        <ele>4.94385</ele>
        <time>2013-05-09T19:01:28Z</time>
      </trkpt>
      <trkpt lat="59.8153635" lon="17.7445257">
        <ele>4.94385</ele>
        <time>2013-05-09T19:01:29Z</time>
      </trkpt>
      <trkpt lat="59.8154058" lon="17.7444322">
        <ele>5.42456</ele>
        <time>2013-05-09T19:01:30Z</time>
      </trkpt>
      <trkpt lat="59.8154484" lon="17.744338">
        <ele>5.42456</ele>
        <time>2013-05-09T19:01:31Z</time>
      </trkpt>
      <trkpt lat="59.8154925" lon="17.7442428">
        <ele>5.90527</ele>
        <time>2013-05-09T19:01:32Z</time>
      </trkpt>
      <trkpt lat="59.8155374" lon="17.7441488">
        <ele>5.90527</ele>
        <time>2013-05-09T19:01:33Z</time>
      </trkpt>
      <trkpt lat="59.8155827" lon="17.7440547">
        <ele>6.38586</ele>
        <time>2013-05-09T19:01:34Z</time>
      </trkpt>
      <trkpt lat="59.8156272" lon="17.7439584">
        <ele>6.38586</ele>
        <time>2013-05-09T19:01:35Z</time>
      </trkpt>
      <trkpt lat="59.8156722" lon="17.743862">
        <ele>6.38586</ele>
        <time>2013-05-09T19:01:36Z</time>
      </trkpt>
      <trkpt lat="59.8157175" lon="17.7437657">
        <ele>6.86646</ele>
        <time>2013-05-09T19:01:37Z</time>
      </trkpt>
      <trkpt lat="59.815763" lon="17.7436683">
        <ele>6.86646</ele>
        <time>2013-05-09T19:01:38Z</time>
      </trkpt>
      <trkpt lat="59.8158084" lon="17.7435724">
        <ele>7.34717</ele>
        <time>2013-05-09T19:01:39Z</time>
      </trkpt>
      <trkpt lat="59.8158537" lon="17.7434812">
        <ele>7.34717</ele>
        <time>2013-05-09T19:01:40Z</time>
      </trkpt>
      <trkpt lat="59.8158987" lon="17.7433907">
        <ele>7.82788</ele>
        <time>2013-05-09T19:01:41Z</time>
      </trkpt>
      <trkpt lat="59.8159427" lon="17.7433031">
        <ele>8.30859</ele>
        <time>2013-05-09T19:01:42Z</time>
      </trkpt>
      <trkpt lat="59.8159858" lon="17.7432181">
        <ele>8.78918</ele>
        <time>2013-05-09T19:01:43Z</time>
      </trkpt>
      <trkpt lat="59.8160274" lon="17.7431361">
        <ele>9.2699</ele>
        <time>2013-05-09T19:01:44Z</time>
      </trkpt>
      <trkpt lat="59.816066" lon="17.7430566">
        <ele>9.75061</ele>
        <time>2013-05-09T19:01:45Z</time>
      </trkpt>
      <trkpt lat="59.8161037" lon="17.7429819">
        <ele>10.2312</ele>
        <time>2013-05-09T19:01:46Z</time>
      </trkpt>
      <trkpt lat="59.8161411" lon="17.742909">
        <ele>10.2312</ele>
        <time>2013-05-09T19:01:47Z</time>
      </trkpt>
      <trkpt lat="59.8161753" lon="17.7428346">
        <ele>10.7118</ele>
        <time>2013-05-09T19:01:48Z</time>
      </trkpt>
      <trkpt lat="59.8162075" lon="17.7427627">
        <ele>11.1925</ele>
        <time>2013-05-09T19:01:49Z</time>
      </trkpt>
      <trkpt lat="59.8162404" lon="17.7426937">
        <ele>11.6732</ele>
        <time>2013-05-09T19:01:50Z</time>
      </trkpt>
      <trkpt lat="59.8162752" lon="17.7426271">
        <ele>11.6732</ele>
        <time>2013-05-09T19:01:51Z</time>
      </trkpt>
      <trkpt lat="59.8163114" lon="17.7425566">
        <ele>11.6732</ele>
        <time>2013-05-09T19:01:52Z</time>
      </trkpt>
      <trkpt lat="59.8163504" lon="17.7424877">
        <ele>12.1538</ele>
        <time>2013-05-09T19:01:53Z</time>
      </trkpt>
      <trkpt lat="59.8163917" lon="17.742423">
        <ele>12.1538</ele>
        <time>2013-05-09T19:01:54Z</time>
      </trkpt>
      <trkpt lat="59.8164342" lon="17.7423565">
        <ele>12.6344</ele>
        <time>2013-05-09T19:01:55Z</time>
      </trkpt>
      <trkpt lat="59.8164783" lon="17.7422904">
        <ele>12.6344</ele>
        <time>2013-05-09T19:01:56Z</time>
      </trkpt>
      <trkpt lat="59.8165245" lon="17.7422275">
        <ele>12.6344</ele>
        <time>2013-05-09T19:01:57Z</time>
      </trkpt>
      <trkpt lat="59.8165715" lon="17.7421687">
        <ele>12.6344</ele>
        <time>2013-05-09T19:01:58Z</time>
      </trkpt>
      <trkpt lat="59.8166187" lon="17.7421153">
        <ele>13.1151</ele>
        <time>2013-05-09T19:01:59Z</time>
      </trkpt>
      <trkpt lat="59.8166649" lon="17.7420635">
        <ele>13.1151</ele>
        <time>2013-05-09T19:02:00Z</time>
      </trkpt>
      <trkpt lat="59.8167097" lon="17.7420117">
        <ele>13.5958</ele>
        <time>2013-05-09T19:02:01Z</time>
      </trkpt>
      <trkpt lat="59.8167527" lon="17.7419603">
        <ele>13.5958</ele>
        <time>2013-05-09T19:02:02Z</time>
      </trkpt>
      <trkpt lat="59.8167952" lon="17.741911">
        <ele>13.5958</ele>
        <time>2013-05-09T19:02:03Z</time>
      </trkpt>
      <trkpt lat="59.8168377" lon="17.7418645">
        <ele>13.5958</ele>
        <time>2013-05-09T19:02:04Z</time>
      </trkpt>
      <trkpt lat="59.8168811" lon="17.7418204">
        <ele>14.0764</ele>
        <time>2013-05-09T19:02:05Z</time>
      </trkpt>
      <trkpt lat="59.8169247" lon="17.7417769">
        <ele>14.0764</ele>
        <time>2013-05-09T19:02:06Z</time>
      </trkpt>
      <trkpt lat="59.8169683" lon="17.7417309">
        <ele>14.0764</ele>
        <time>2013-05-09T19:02:07Z</time>
      </trkpt>
      <trkpt lat="59.8170114" lon="17.7416785">
        <ele>14.0764</ele>
        <time>2013-05-09T19:02:08Z</time>
      </trkpt>
      <trkpt lat="59.8170554" lon="17.7416232">
        <ele>14.0764</ele>
        <time>2013-05-09T19:02:09Z</time>
      </trkpt>
      <trkpt lat="59.8171005" lon="17.7415641">
        <ele>14.557</ele>
        <time>2013-05-09T19:02:10Z</time>
      </trkpt>
      <trkpt lat="59.8171506" lon="17.7415103">
        <ele>14.557</ele>
        <time>2013-05-09T19:02:11Z</time>
      </trkpt>
      <trkpt lat="59.8172031" lon="17.7414591">
        <ele>14.557</ele>
        <time>2013-05-09T19:02:12Z</time>
      </trkpt>
      <trkpt lat="59.8172584" lon="17.7414036">
        <ele>15.0377</ele>
        <time>2013-05-09T19:02:13Z</time>
      </trkpt>
      <trkpt lat="59.8173149" lon="17.7413507">
        <ele>14.557</ele>
        <time>2013-05-09T19:02:14Z</time>
      </trkpt>
      <trkpt lat="59.8173729" lon="17.7412891">
        <ele>15.0377</ele>
        <time>2013-05-09T19:02:15Z</time>
      </trkpt>
      <trkpt lat="59.8174318" lon="17.7412241">
        <ele>15.0377</ele>
        <time>2013-05-09T19:02:16Z</time>
      </trkpt>
      <trkpt lat="59.8174913" lon="17.7411575">
        <ele>15.0377</ele>
        <time>2013-05-09T19:02:17Z</time>
      </trkpt>
      <trkpt lat="59.8175511" lon="17.7410921">
        <ele>14.557</ele>
        <time>2013-05-09T19:02:18Z</time>
      </trkpt>
      <trkpt lat="59.8176101" lon="17.7410268">
        <ele>14.557</ele>
        <time>2013-05-09T19:02:19Z</time>
      </trkpt>
      <trkpt lat="59.8176702" lon="17.7409571">
        <ele>14.0764</ele>
        <time>2013-05-09T19:02:20Z</time>
      </trkpt>
      <trkpt lat="59.8177291" lon="17.740887">
        <ele>13.5958</ele>
        <time>2013-05-09T19:02:21Z</time>
      </trkpt>
      <trkpt lat="59.8177873" lon="17.7408175">
        <ele>13.5958</ele>
        <time>2013-05-09T19:02:22Z</time>
      </trkpt>
      <trkpt lat="59.8178459" lon="17.7407496">
        <ele>13.5958</ele>
        <time>2013-05-09T19:02:23Z</time>
      </trkpt>
      <trkpt lat="59.8179054" lon="17.7406815">
        <ele>13.1151</ele>
        <time>2013-05-09T19:02:24Z</time>
      </trkpt>
      <trkpt lat="59.817967" lon="17.7406111">
        <ele>12.6344</ele>
        <time>2013-05-09T19:02:25Z</time>
      </trkpt>
      <trkpt lat="59.8180311" lon="17.740538">
        <ele>12.6344</ele>
        <time>2013-05-09T19:02:26Z</time>
      </trkpt>
      <trkpt lat="59.8180975" lon="17.7404616">
        <ele>12.1538</ele>
        <time>2013-05-09T19:02:27Z</time>
      </trkpt>
      <trkpt lat="59.8181661" lon="17.7403831">
        <ele>11.6732</ele>
        <time>2013-05-09T19:02:28Z</time>
      </trkpt>
      <trkpt lat="59.8182368" lon="17.7403045">
        <ele>11.6732</ele>
        <time>2013-05-09T19:02:29Z</time>
      </trkpt>
      <trkpt lat="59.8183084" lon="17.7402251">
        <ele>11.1925</ele>
        <time>2013-05-09T19:02:30Z</time>
      </trkpt>
      <trkpt lat="59.8183804" lon="17.7401443">
        <ele>11.1925</ele>
        <time>2013-05-09T19:02:31Z</time>
      </trkpt>
      <trkpt lat="59.8184529" lon="17.7400624">
        <ele>10.7118</ele>
        <time>2013-05-09T19:02:32Z</time>
      </trkpt>
      <trkpt lat="59.818525" lon="17.7399789">
        <ele>10.7118</ele>
        <time>2013-05-09T19:02:33Z</time>
      </trkpt>
      <trkpt lat="59.8185973" lon="17.7398996">
        <ele>10.7118</ele>
        <time>2013-05-09T19:02:34Z</time>
      </trkpt>
      <trkpt lat="59.818669" lon="17.7398195">
        <ele>10.7118</ele>
        <time>2013-05-09T19:02:35Z</time>
      </trkpt>
      <trkpt lat="59.8187399" lon="17.7397392">
        <ele>10.7118</ele>
        <time>2013-05-09T19:02:36Z</time>
      </trkpt>
      <trkpt lat="59.8188105" lon="17.7396604">
        <ele>10.7118</ele>
        <time>2013-05-09T19:02:37Z</time>
      </trkpt>
      <trkpt lat="59.8188808" lon="17.7395813">
        <ele>10.2312</ele>
        <time>2013-05-09T19:02:38Z</time>
      </trkpt>
      <trkpt lat="59.8189493" lon="17.7395039">
        <ele>9.75061</ele>
        <time>2013-05-09T19:02:39Z</time>
      </trkpt>
      <trkpt lat="59.8190169" lon="17.7394272">
        <ele>10.2312</ele>
        <time>2013-05-09T19:02:40Z</time>
      </trkpt>
      <trkpt lat="59.8190837" lon="17.7393484">
        <ele>11.6732</ele>
        <time>2013-05-09T19:02:41Z</time>
      </trkpt>
      <trkpt lat="59.8191508" lon="17.7392681">
        <ele>12.6344</ele>
        <time>2013-05-09T19:02:42Z</time>
      </trkpt>
      <trkpt lat="59.8192182" lon="17.7391858">
        <ele>13.5958</ele>
        <time>2013-05-09T19:02:43Z</time>
      </trkpt>
      <trkpt lat="59.8192858" lon="17.7391057">
        <ele>14.557</ele>
        <time>2013-05-09T19:02:44Z</time>
      </trkpt>
      <trkpt lat="59.8193522" lon="17.7390274">
        <ele>15.0377</ele>
        <time>2013-05-09T19:02:45Z</time>
      </trkpt>
      <trkpt lat="59.8194179" lon="17.7389507">
        <ele>15.999</ele>
        <time>2013-05-09T19:02:46Z</time>
      </trkpt>
      <trkpt lat="59.8194838" lon="17.7388753">
        <ele>16.4797</ele>
        <time>2013-05-09T19:02:47Z</time>
      </trkpt>
      <trkpt lat="59.8195492" lon="17.7388012">
        <ele>17.4412</ele>
        <time>2013-05-09T19:02:48Z</time>
      </trkpt>
      <trkpt lat="59.8196133" lon="17.7387268">
        <ele>17.9218</ele>
        <time>2013-05-09T19:02:49Z</time>
      </trkpt>
      <trkpt lat="59.8196763" lon="17.7386538">
        <ele>18.8831</ele>
        <time>2013-05-09T19:02:50Z</time>
      </trkpt>
      <trkpt lat="59.819738" lon="17.7385846">
        <ele>19.3638</ele>
        <time>2013-05-09T19:02:51Z</time>
      </trkpt>
      <trkpt lat="59.8197993" lon="17.7385157">
        <ele>20.325</ele>
        <time>2013-05-09T19:02:52Z</time>
      </trkpt>
      <trkpt lat="59.8198595" lon="17.7384458">
        <ele>20.8057</ele>
        <time>2013-05-09T19:02:53Z</time>
      </trkpt>
      <trkpt lat="59.8199205" lon="17.7383803">
        <ele>21.2864</ele>
        <time>2013-05-09T19:02:54Z</time>
      </trkpt>
      <trkpt lat="59.8199816" lon="17.7383072">
        <ele>21.767</ele>
        <time>2013-05-09T19:02:55Z</time>
      </trkpt>
      <trkpt lat="59.8200417" lon="17.738239">
        <ele>22.2476</ele>
        <time>2013-05-09T19:02:56Z</time>
      </trkpt>
      <trkpt lat="59.8201021" lon="17.738171">
        <ele>22.2476</ele>
        <time>2013-05-09T19:02:57Z</time>
      </trkpt>
      <trkpt lat="59.8201633" lon="17.7381014">
        <ele>22.2476</ele>
        <time>2013-05-09T19:02:58Z</time>
      </trkpt>
      <trkpt lat="59.8202261" lon="17.7380311">
        <ele>21.767</ele>
        <time>2013-05-09T19:02:59Z</time>
      </trkpt>
      <trkpt lat="59.8202917" lon="17.7379576">
        <ele>22.2476</ele>
        <time>2013-05-09T19:03:00Z</time>
      </trkpt>
      <trkpt lat="59.8203588" lon="17.7378712">
        <ele>22.2476</ele>
        <time>2013-05-09T19:03:01Z</time>
      </trkpt>
      <trkpt lat="59.8204281" lon="17.7377801">
        <ele>22.2476</ele>
        <time>2013-05-09T19:03:02Z</time>
      </trkpt>
      <trkpt lat="59.8204996" lon="17.7376848">
        <ele>21.2864</ele>
        <time>2013-05-09T19:03:03Z</time>
      </trkpt>
      <trkpt lat="59.8205746" lon="17.7375961">
        <ele>20.8057</ele>
        <time>2013-05-09T19:03:04Z</time>
      </trkpt>
      <trkpt lat="59.8206514" lon="17.7375012">
        <ele>21.2864</ele>
        <time>2013-05-09T19:03:05Z</time>
      </trkpt>
      <trkpt lat="59.8207294" lon="17.7374039">
        <ele>20.325</ele>
        <time>2013-05-09T19:03:06Z</time>
      </trkpt>
      <trkpt lat="59.820809" lon="17.737299">
        <ele>19.8444</ele>
        <time>2013-05-09T19:03:07Z</time>
      </trkpt>
      <trkpt lat="59.820891" lon="17.7371916">
        <ele>18.4023</ele>
        <time>2013-05-09T19:03:08Z</time>
      </trkpt>
      <trkpt lat="59.8209753" lon="17.7370853">
        <ele>16.9604</ele>
        <time>2013-05-09T19:03:09Z</time>
      </trkpt>
      <trkpt lat="59.8210615" lon="17.7369771">
        <ele>16.4797</ele>
        <time>2013-05-09T19:03:10Z</time>
      </trkpt>
      <trkpt lat="59.8211487" lon="17.736864">
        <ele>15.5184</ele>
        <time>2013-05-09T19:03:11Z</time>
      </trkpt>
      <trkpt lat="59.8212374" lon="17.7367481">
        <ele>15.0377</ele>
        <time>2013-05-09T19:03:12Z</time>
      </trkpt>
      <trkpt lat="59.8213274" lon="17.7366316">
        <ele>14.0764</ele>
        <time>2013-05-09T19:03:13Z</time>
      </trkpt>
      <trkpt lat="59.8214174" lon="17.7365154">
        <ele>13.5958</ele>
        <time>2013-05-09T19:03:14Z</time>
      </trkpt>
      <trkpt lat="59.8215062" lon="17.7363947">
        <ele>12.6344</ele>
        <time>2013-05-09T19:03:15Z</time>
      </trkpt>
      <trkpt lat="59.8215947" lon="17.7362737">
        <ele>12.1538</ele>
        <time>2013-05-09T19:03:16Z</time>
      </trkpt>
      <trkpt lat="59.8216833" lon="17.7361552">
        <ele>11.1925</ele>
        <time>2013-05-09T19:03:17Z</time>
      </trkpt>
      <trkpt lat="59.8217714" lon="17.736036">
        <ele>10.7118</ele>
        <time>2013-05-09T19:03:18Z</time>
      </trkpt>
      <trkpt lat="59.8218598" lon="17.7359152">
        <ele>9.75061</ele>
        <time>2013-05-09T19:03:19Z</time>
      </trkpt>
      <trkpt lat="59.8219495" lon="17.735792">
        <ele>9.2699</ele>
        <time>2013-05-09T19:03:20Z</time>
      </trkpt>
      <trkpt lat="59.8220415" lon="17.7356685">
        <ele>8.30859</ele>
        <time>2013-05-09T19:03:21Z</time>
      </trkpt>
      <trkpt lat="59.822136" lon="17.7355441">
        <ele>7.82788</ele>
        <time>2013-05-09T19:03:22Z</time>
      </trkpt>
      <trkpt lat="59.8222344" lon="17.7354189">
        <ele>6.86646</ele>
        <time>2013-05-09T19:03:23Z</time>
      </trkpt>
      <trkpt lat="59.8223344" lon="17.7352908">
        <ele>6.38586</ele>
        <time>2013-05-09T19:03:24Z</time>
      </trkpt>
      <trkpt lat="59.8224348" lon="17.73516">
        <ele>5.90527</ele>
        <time>2013-05-09T19:03:25Z</time>
      </trkpt>
      <trkpt lat="59.8225341" lon="17.7350236">
        <ele>5.42456</ele>
        <time>2013-05-09T19:03:26Z</time>
      </trkpt>
      <trkpt lat="59.8226342" lon="17.7348871">
        <ele>4.94385</ele>
        <time>2013-05-09T19:03:27Z</time>
      </trkpt>
      <trkpt lat="59.8227346" lon="17.7347483">
        <ele>4.46326</ele>
        <time>2013-05-09T19:03:28Z</time>
      </trkpt>
      <trkpt lat="59.8228356" lon="17.7346102">
        <ele>4.46326</ele>
        <time>2013-05-09T19:03:29Z</time>
      </trkpt>
      <trkpt lat="59.8229372" lon="17.7344714">
        <ele>3.98267</ele>
        <time>2013-05-09T19:03:30Z</time>
      </trkpt>
      <trkpt lat="59.8230394" lon="17.7343321">
        <ele>3.50195</ele>
        <time>2013-05-09T19:03:31Z</time>
      </trkpt>
      <trkpt lat="59.8231418" lon="17.7341929">
        <ele>3.02124</ele>
        <time>2013-05-09T19:03:32Z</time>
      </trkpt>
      <trkpt lat="59.8232445" lon="17.734053">
        <ele>3.02124</ele>
        <time>2013-05-09T19:03:33Z</time>
      </trkpt>
      <trkpt lat="59.8233482" lon="17.7339146">
        <ele>2.54065</ele>
        <time>2013-05-09T19:03:34Z</time>
      </trkpt>
      <trkpt lat="59.8234527" lon="17.7337774">
        <ele>2.06006</ele>
        <time>2013-05-09T19:03:35Z</time>
      </trkpt>
      <trkpt lat="59.8235569" lon="17.7336408">
        <ele>2.06006</ele>
        <time>2013-05-09T19:03:36Z</time>
      </trkpt>
      <trkpt lat="59.823661" lon="17.7335035">
        <ele>1.57935</ele>
        <time>2013-05-09T19:03:37Z</time>
      </trkpt>
      <trkpt lat="59.8237651" lon="17.7333654">
        <ele>1.09863</ele>
        <time>2013-05-09T19:03:38Z</time>
      </trkpt>
      <trkpt lat="59.8238682" lon="17.7332255">
        <ele>1.09863</ele>
        <time>2013-05-09T19:03:39Z</time>
      </trkpt>
      <trkpt lat="59.8239701" lon="17.7330838">
        <ele>1.09863</ele>
        <time>2013-05-09T19:03:40Z</time>
      </trkpt>
      <trkpt lat="59.8240718" lon="17.7329434">
        <ele>0.618042</ele>
        <time>2013-05-09T19:03:41Z</time>
      </trkpt>
      <trkpt lat="59.8241742" lon="17.7328044">
        <ele>0.137451</ele>
        <time>2013-05-09T19:03:42Z</time>
      </trkpt>
      <trkpt lat="59.8242774" lon="17.7326672">
        <ele>0.137451</ele>
        <time>2013-05-09T19:03:43Z</time>
      </trkpt>
      <trkpt lat="59.8243806" lon="17.7325306">
        <ele>0</ele>
        <time>2013-05-09T19:03:44Z</time>
      </trkpt>
      <trkpt lat="59.8244836" lon="17.7323929">
        <ele>0</ele>
        <time>2013-05-09T19:03:45Z</time>
      </trkpt>
      <trkpt lat="59.8245846" lon="17.7322582">
        <ele>0</ele>
        <time>2013-05-09T19:03:46Z</time>
      </trkpt>
      <trkpt lat="59.8246788" lon="17.7321295">
        <ele>0</ele>
        <time>2013-05-09T19:03:47Z</time>
      </trkpt>
      <trkpt lat="59.8247606" lon="17.7320167">
        <ele>0</ele>
        <time>2013-05-09T19:03:48Z</time>
      </trkpt>
      <trkpt lat="59.8248336" lon="17.7319183">
        <ele>0</ele>
        <time>2013-05-09T19:03:49Z</time>
      </trkpt>
      <trkpt lat="59.8248992" lon="17.7318329">
        <ele>0</ele>
        <time>2013-05-09T19:03:50Z</time>
      </trkpt>
      <trkpt lat="59.8249518" lon="17.7317681">
        <ele>0</ele>
        <time>2013-05-09T19:03:51Z</time>
      </trkpt>
      <trkpt lat="59.82499" lon="17.7317229">
        <ele>0</ele>
        <time>2013-05-09T19:03:52Z</time>
      </trkpt>
      <trkpt lat="59.8250123" lon="17.7316972">
        <ele>0</ele>
        <time>2013-05-09T19:03:53Z</time>
      </trkpt>
      <trkpt lat="59.8250265" lon="17.7316754">
        <ele>0</ele>
        <time>2013-05-09T19:03:54Z</time>
      </trkpt>
      <trkpt lat="59.8250325" lon="17.7316469">
        <ele>0</ele>
        <time>2013-05-09T19:03:55Z</time>
      </trkpt>
      <trkpt lat="59.8250244" lon="17.7316183">
        <ele>0.137451</ele>
        <time>2013-05-09T19:03:56Z</time>
      </trkpt>
      <trkpt lat="59.8250042" lon="17.7316011">
        <ele>0.137451</ele>
        <time>2013-05-09T19:03:57Z</time>
      </trkpt>
      <trkpt lat="59.8249778" lon="17.7316013">
        <ele>0.137451</ele>
        <time>2013-05-09T19:03:58Z</time>
      </trkpt>
      <trkpt lat="59.8249478" lon="17.7316235">
        <ele>0.137451</ele>
        <time>2013-05-09T19:03:59Z</time>
      </trkpt>
      <trkpt lat="59.8249172" lon="17.731664">
        <ele>0</ele>
        <time>2013-05-09T19:04:00Z</time>
      </trkpt>
      <trkpt lat="59.8248846" lon="17.7317141">
        <ele>0</ele>
        <time>2013-05-09T19:04:01Z</time>
      </trkpt>
      <trkpt lat="59.8248498" lon="17.7317686">
        <ele>0</ele>
        <time>2013-05-09T19:04:02Z</time>
      </trkpt>
      <trkpt lat="59.8248167" lon="17.7318302">
        <ele>0</ele>
        <time>2013-05-09T19:04:03Z</time>
      </trkpt>
      <trkpt lat="59.8247882" lon="17.7319037">
        <ele>0</ele>
        <time>2013-05-09T19:04:04Z</time>
      </trkpt>
      <trkpt lat="59.8247626" lon="17.7319818">
        <ele>0</ele>
        <time>2013-05-09T19:04:05Z</time>
      </trkpt>
      <trkpt lat="59.8247329" lon="17.7320535">
        <ele>0</ele>
        <time>2013-05-09T19:04:06Z</time>
      </trkpt>
      <trkpt lat="59.8246986" lon="17.7321161">
        <ele>0</ele>
        <time>2013-05-09T19:04:07Z</time>
      </trkpt>
      <trkpt lat="59.8246634" lon="17.7321731">
        <ele>0</ele>
        <time>2013-05-09T19:04:08Z</time>
      </trkpt>
      <trkpt lat="59.8246274" lon="17.7322265">
        <ele>0.137451</ele>
        <time>2013-05-09T19:04:09Z</time>
      </trkpt>
      <trkpt lat="59.8245909" lon="17.7322766">
        <ele>0.137451</ele>
        <time>2013-05-09T19:04:10Z</time>
      </trkpt>
      <trkpt lat="59.8245561" lon="17.732324">
        <ele>0.137451</ele>
        <time>2013-05-09T19:04:11Z</time>
      </trkpt>
      <trkpt lat="59.8245236" lon="17.7323713">
        <ele>0.618042</ele>
        <time>2013-05-09T19:04:12Z</time>
      </trkpt>
      <trkpt lat="59.8244905" lon="17.7324134">
        <ele>0.618042</ele>
        <time>2013-05-09T19:04:13Z</time>
      </trkpt>
      <trkpt lat="59.8244582" lon="17.7324518">
        <ele>0.618042</ele>
        <time>2013-05-09T19:04:14Z</time>
      </trkpt>
      <trkpt lat="59.8244277" lon="17.732492">
        <ele>0.618042</ele>
        <time>2013-05-09T19:04:15Z</time>
      </trkpt>
      <trkpt lat="59.8244009" lon="17.7325309">
        <ele>1.09863</ele>
        <time>2013-05-09T19:04:16Z</time>
      </trkpt>
      <trkpt lat="59.8243775" lon="17.7325606">
        <ele>1.09863</ele>
        <time>2013-05-09T19:04:17Z</time>
      </trkpt>
      <trkpt lat="59.8243596" lon="17.7325833">
        <ele>1.09863</ele>
        <time>2013-05-09T19:04:18Z</time>
      </trkpt>
      <trkpt lat="59.8243484" lon="17.7326021">
        <ele>1.09863</ele>
        <time>2013-05-09T19:04:19Z</time>
      </trkpt>
      <trkpt lat="59.8243443" lon="17.7326117">
        <ele>1.57935</ele>
        <time>2013-05-09T19:04:20Z</time>
      </trkpt>
      <trkpt lat="59.8243436" lon="17.7326133">
        <ele>1.57935</ele>
        <time>2013-05-09T19:04:21Z</time>
      </trkpt>
      <trkpt lat="59.8243433" lon="17.7326129">
        <ele>1.57935</ele>
        <time>2013-05-09T19:04:22Z</time>
      </trkpt>
      <trkpt lat="59.8243434" lon="17.7326122">
        <ele>1.57935</ele>
        <time>2013-05-09T19:04:23Z</time>
      </trkpt>
      <trkpt lat="59.8243412" lon="17.7326088">
        <ele>1.57935</ele>
        <time>2013-05-09T19:04:24Z</time>
      </trkpt>
      <trkpt lat="59.8243369" lon="17.7325995">
        <ele>2.06006</ele>
        <time>2013-05-09T19:04:25Z</time>
      </trkpt>
      <trkpt lat="59.8243374" lon="17.7325905">
        <ele>2.06006</ele>
        <time>2013-05-09T19:04:26Z</time>
      </trkpt>
      <trkpt lat="59.8243404" lon="17.7325866">
        <ele>2.06006</ele>
        <time>2013-05-09T19:04:27Z</time>
      </trkpt>
      <trkpt lat="59.8243395" lon="17.7325858">
        <ele>2.06006</ele>
        <time>2013-05-09T19:04:28Z</time>
      </trkpt>
      <trkpt lat="59.8243375" lon="17.7325876">
        <ele>2.54065</ele>
        <time>2013-05-09T19:04:29Z</time>
      </trkpt>
      <trkpt lat="59.8243369" lon="17.7325875">
        <ele>3.02124</ele>
        <time>2013-05-09T19:04:30Z</time>
      </trkpt>
      <trkpt lat="59.8243458" lon="17.732577">
        <ele>3.02124</ele>
        <time>2013-05-09T19:04:31Z</time>
      </trkpt>
      <trkpt lat="59.8243617" lon="17.7325643">
        <ele>3.02124</ele>
        <time>2013-05-09T19:04:32Z</time>
      </trkpt>
      <trkpt lat="59.8243807" lon="17.7325477">
        <ele>3.02124</ele>
        <time>2013-05-09T19:04:33Z</time>
      </trkpt>
      <trkpt lat="59.8244029" lon="17.7325217">
        <ele>3.02124</ele>
        <time>2013-05-09T19:04:34Z</time>
      </trkpt>
      <trkpt lat="59.8244282" lon="17.732486">
        <ele>3.02124</ele>
        <time>2013-05-09T19:04:35Z</time>
      </trkpt>
      <trkpt lat="59.8244554" lon="17.7324394">
        <ele>3.02124</ele>
        <time>2013-05-09T19:04:36Z</time>
      </trkpt>
      <trkpt lat="59.8245188" lon="17.7323331">
        <ele>3.50195</ele>
        <time>2013-05-09T19:04:39Z</time>
      </trkpt>
      <trkpt lat="59.8245542" lon="17.7322745">
        <ele>3.50195</ele>
        <time>2013-05-09T19:04:40Z</time>
      </trkpt>
      <trkpt lat="59.8245927" lon="17.732213">
        <ele>3.50195</ele>
        <time>2013-05-09T19:04:41Z</time>
      </trkpt>
      <trkpt lat="59.8246353" lon="17.7321524">
        <ele>3.50195</ele>
        <time>2013-05-09T19:04:42Z</time>
      </trkpt>
      <trkpt lat="59.824682" lon="17.7320917">
        <ele>3.50195</ele>
        <time>2013-05-09T19:04:43Z</time>
      </trkpt>
      <trkpt lat="59.8247306" lon="17.7320296">
        <ele>3.50195</ele>
        <time>2013-05-09T19:04:44Z</time>
      </trkpt>
      <trkpt lat="59.8247799" lon="17.7319623">
        <ele>3.50195</ele>
        <time>2013-05-09T19:04:45Z</time>
      </trkpt>
      <trkpt lat="59.8248286" lon="17.7318951">
        <ele>3.50195</ele>
        <time>2013-05-09T19:04:46Z</time>
      </trkpt>
      <trkpt lat="59.8248794" lon="17.731825">
        <ele>3.98267</ele>
        <time>2013-05-09T19:04:47Z</time>
      </trkpt>
      <trkpt lat="59.8249308" lon="17.7317552">
        <ele>3.98267</ele>
        <time>2013-05-09T19:04:48Z</time>
      </trkpt>
      <trkpt lat="59.8249824" lon="17.7316856">
        <ele>3.98267</ele>
        <time>2013-05-09T19:04:49Z</time>
      </trkpt>
      <trkpt lat="59.8250356" lon="17.7316152">
        <ele>3.98267</ele>
        <time>2013-05-09T19:04:50Z</time>
      </trkpt>
      <trkpt lat="59.825089" lon="17.7315443">
        <ele>4.46326</ele>
        <time>2013-05-09T19:04:51Z</time>
      </trkpt>
      <trkpt lat="59.8251431" lon="17.7314664">
        <ele>4.46326</ele>
        <time>2013-05-09T19:04:52Z</time>
      </trkpt>
      <trkpt lat="59.825199" lon="17.7313894">
        <ele>4.94385</ele>
        <time>2013-05-09T19:04:53Z</time>
      </trkpt>
      <trkpt lat="59.8252539" lon="17.731307">
        <ele>5.42456</ele>
        <time>2013-05-09T19:04:54Z</time>
      </trkpt>
      <trkpt lat="59.825311" lon="17.7312261">
        <ele>5.42456</ele>
        <time>2013-05-09T19:04:55Z</time>
      </trkpt>
      <trkpt lat="59.8253675" lon="17.7311442">
        <ele>5.42456</ele>
        <time>2013-05-09T19:04:56Z</time>
      </trkpt>
      <trkpt lat="59.8254218" lon="17.7310728">
        <ele>5.42456</ele>
        <time>2013-05-09T19:04:57Z</time>
      </trkpt>
      <trkpt lat="59.8254755" lon="17.7310004">
        <ele>5.42456</ele>
        <time>2013-05-09T19:04:58Z</time>
      </trkpt>
      <trkpt lat="59.8255282" lon="17.7309287">
        <ele>5.42456</ele>
        <time>2013-05-09T19:04:59Z</time>
      </trkpt>
      <trkpt lat="59.8255807" lon="17.7308521">
        <ele>5.42456</ele>
        <time>2013-05-09T19:05:00Z</time>
      </trkpt>
      <trkpt lat="59.825631" lon="17.73079">
        <ele>5.42456</ele>
        <time>2013-05-09T19:05:01Z</time>
      </trkpt>
      <trkpt lat="59.8256865" lon="17.7307619">
        <ele>5.42456</ele>
        <time>2013-05-09T19:05:02Z</time>
      </trkpt>
      <trkpt lat="59.8257439" lon="17.7307858">
        <ele>5.42456</ele>
        <time>2013-05-09T19:05:03Z</time>
      </trkpt>
      <trkpt lat="59.825792" lon="17.7308588">
        <ele>5.42456</ele>
        <time>2013-05-09T19:05:04Z</time>
      </trkpt>
      <trkpt lat="59.8258292" lon="17.730958">
        <ele>5.90527</ele>
        <time>2013-05-09T19:05:05Z</time>
      </trkpt>
      <trkpt lat="59.8258583" lon="17.7310682">
        <ele>5.90527</ele>
        <time>2013-05-09T19:05:06Z</time>
      </trkpt>
      <trkpt lat="59.8258847" lon="17.7311823">
        <ele>5.90527</ele>
        <time>2013-05-09T19:05:07Z</time>
      </trkpt>
      <trkpt lat="59.8259123" lon="17.7312959">
        <ele>5.90527</ele>
        <time>2013-05-09T19:05:08Z</time>
      </trkpt>
      <trkpt lat="59.8259418" lon="17.7314075">
        <ele>5.90527</ele>
        <time>2013-05-09T19:05:09Z</time>
      </trkpt>
      <trkpt lat="59.8259734" lon="17.7315187">
        <ele>6.38586</ele>
        <time>2013-05-09T19:05:10Z</time>
      </trkpt>
      <trkpt lat="59.8260045" lon="17.7316309">
        <ele>6.38586</ele>
        <time>2013-05-09T19:05:11Z</time>
      </trkpt>
      <trkpt lat="59.8260349" lon="17.7317437">
        <ele>6.38586</ele>
        <time>2013-05-09T19:05:12Z</time>
      </trkpt>
      <trkpt lat="59.8260663" lon="17.7318566">
        <ele>6.38586</ele>
        <time>2013-05-09T19:05:13Z</time>
      </trkpt>
      <trkpt lat="59.8260988" lon="17.7319697">
        <ele>6.38586</ele>
        <time>2013-05-09T19:05:14Z</time>
      </trkpt>
      <trkpt lat="59.8261314" lon="17.732082">
        <ele>6.38586</ele>
        <time>2013-05-09T19:05:15Z</time>
      </trkpt>
      <trkpt lat="59.8261644" lon="17.7321949">
        <ele>6.38586</ele>
        <time>2013-05-09T19:05:16Z</time>
      </trkpt>
      <trkpt lat="59.8261982" lon="17.7323084">
        <ele>5.90527</ele>
        <time>2013-05-09T19:05:17Z</time>
      </trkpt>
      <trkpt lat="59.826234" lon="17.7324213">
        <ele>6.38586</ele>
        <time>2013-05-09T19:05:18Z</time>
      </trkpt>
      <trkpt lat="59.8262701" lon="17.7325341">
        <ele>5.90527</ele>
        <time>2013-05-09T19:05:19Z</time>
      </trkpt>
      <trkpt lat="59.8263059" lon="17.7326459">
        <ele>5.90527</ele>
        <time>2013-05-09T19:05:20Z</time>
      </trkpt>
      <trkpt lat="59.8263438" lon="17.732756">
        <ele>5.90527</ele>
        <time>2013-05-09T19:05:21Z</time>
      </trkpt>
      <trkpt lat="59.8263827" lon="17.7328647">
        <ele>5.42456</ele>
        <time>2013-05-09T19:05:22Z</time>
      </trkpt>
      <trkpt lat="59.8264229" lon="17.7329708">
        <ele>5.42456</ele>
        <time>2013-05-09T19:05:23Z</time>
      </trkpt>
      <trkpt lat="59.8264624" lon="17.7330781">
        <ele>5.42456</ele>
        <time>2013-05-09T19:05:24Z</time>
      </trkpt>
      <trkpt lat="59.8265026" lon="17.7331859">
        <ele>4.94385</ele>
        <time>2013-05-09T19:05:25Z</time>
      </trkpt>
      <trkpt lat="59.8265439" lon="17.7332937">
        <ele>4.94385</ele>
        <time>2013-05-09T19:05:26Z</time>
      </trkpt>
      <trkpt lat="59.8265867" lon="17.7333998">
        <ele>4.94385</ele>
        <time>2013-05-09T19:05:27Z</time>
      </trkpt>
      <trkpt lat="59.8266306" lon="17.7335042">
        <ele>4.94385</ele>
        <time>2013-05-09T19:05:28Z</time>
      </trkpt>
      <trkpt lat="59.8266754" lon="17.7336074">
        <ele>4.46326</ele>
        <time>2013-05-09T19:05:29Z</time>
      </trkpt>
      <trkpt lat="59.8267209" lon="17.7337097">
        <ele>4.46326</ele>
        <time>2013-05-09T19:05:30Z</time>
      </trkpt>
      <trkpt lat="59.8267671" lon="17.7338111">
        <ele>4.46326</ele>
        <time>2013-05-09T19:05:31Z</time>
      </trkpt>
      <trkpt lat="59.8268124" lon="17.7339156">
        <ele>3.98267</ele>
        <time>2013-05-09T19:05:32Z</time>
      </trkpt>
      <trkpt lat="59.826857" lon="17.7340217">
        <ele>3.50195</ele>
        <time>2013-05-09T19:05:33Z</time>
      </trkpt>
      <trkpt lat="59.826902" lon="17.7341286">
        <ele>3.02124</ele>
        <time>2013-05-09T19:05:34Z</time>
      </trkpt>
      <trkpt lat="59.8269473" lon="17.7342328">
        <ele>3.02124</ele>
        <time>2013-05-09T19:05:35Z</time>
      </trkpt>
      <trkpt lat="59.8269923" lon="17.7343341">
        <ele>2.54065</ele>
        <time>2013-05-09T19:05:36Z</time>
      </trkpt>
      <trkpt lat="59.827036" lon="17.7344354">
        <ele>2.54065</ele>
        <time>2013-05-09T19:05:37Z</time>
      </trkpt>
      <trkpt lat="59.8270795" lon="17.7345363">
        <ele>2.06006</ele>
        <time>2013-05-09T19:05:38Z</time>
      </trkpt>
      <trkpt lat="59.827123" lon="17.7346363">
        <ele>1.57935</ele>
        <time>2013-05-09T19:05:39Z</time>
      </trkpt>
      <trkpt lat="59.8271669" lon="17.7347356">
        <ele>1.57935</ele>
        <time>2013-05-09T19:05:40Z</time>
      </trkpt>
      <trkpt lat="59.8272116" lon="17.7348329">
        <ele>1.09863</ele>
        <time>2013-05-09T19:05:41Z</time>
      </trkpt>
      <trkpt lat="59.827256" lon="17.7349305">
        <ele>1.09863</ele>
        <time>2013-05-09T19:05:42Z</time>
      </trkpt>
      <trkpt lat="59.8273001" lon="17.7350285">
        <ele>0.618042</ele>
        <time>2013-05-09T19:05:43Z</time>
      </trkpt>
      <trkpt lat="59.8273442" lon="17.7351258">
        <ele>0.618042</ele>
        <time>2013-05-09T19:05:44Z</time>
      </trkpt>
      <trkpt lat="59.8273881" lon="17.7352232">
        <ele>0.618042</ele>
        <time>2013-05-09T19:05:45Z</time>
      </trkpt>
      <trkpt lat="59.8274311" lon="17.7353216">
        <ele>0.137451</ele>
        <time>2013-05-09T19:05:46Z</time>
      </trkpt>
      <trkpt lat="59.8274744" lon="17.7354196">
        <ele>0.137451</ele>
        <time>2013-05-09T19:05:47Z</time>
      </trkpt>
      <trkpt lat="59.8275188" lon="17.7355169">
        <ele>0.137451</ele>
        <time>2013-05-09T19:05:48Z</time>
      </trkpt>
      <trkpt lat="59.827564" lon="17.7356143">
        <ele>0</ele>
        <time>2013-05-09T19:05:49Z</time>
      </trkpt>
      <trkpt lat="59.8276093" lon="17.7357126">
        <ele>0</ele>
        <time>2013-05-09T19:05:50Z</time>
      </trkpt>
      <trkpt lat="59.8276547" lon="17.7358123">
        <ele>0</ele>
        <time>2013-05-09T19:05:51Z</time>
      </trkpt>
      <trkpt lat="59.8276999" lon="17.7359133">
        <ele>0</ele>
        <time>2013-05-09T19:05:52Z</time>
      </trkpt>
      <trkpt lat="59.8277458" lon="17.7360143">
        <ele>0</ele>
        <time>2013-05-09T19:05:53Z</time>
      </trkpt>
      <trkpt lat="59.8277922" lon="17.736115">
        <ele>0</ele>
        <time>2013-05-09T19:05:54Z</time>
      </trkpt>
      <trkpt lat="59.8278386" lon="17.7362161">
        <ele>0</ele>
        <time>2013-05-09T19:05:55Z</time>
      </trkpt>
      <trkpt lat="59.8278844" lon="17.736318">
        <ele>0</ele>
        <time>2013-05-09T19:05:56Z</time>
      </trkpt>
      <trkpt lat="59.8279299" lon="17.7364201">
        <ele>0</ele>
        <time>2013-05-09T19:05:57Z</time>
      </trkpt>
      <trkpt lat="59.8279759" lon="17.7365224">
        <ele>0</ele>
        <time>2013-05-09T19:05:58Z</time>
      </trkpt>
      <trkpt lat="59.8280228" lon="17.7366239">
        <ele>0</ele>
        <time>2013-05-09T19:05:59Z</time>
      </trkpt>
      <trkpt lat="59.8280707" lon="17.7367257">
        <ele>0</ele>
        <time>2013-05-09T19:06:00Z</time>
      </trkpt>
      <trkpt lat="59.8281174" lon="17.7368301">
        <ele>0</ele>
        <time>2013-05-09T19:06:01Z</time>
      </trkpt>
      <trkpt lat="59.8281645" lon="17.7369357">
        <ele>0</ele>
        <time>2013-05-09T19:06:02Z</time>
      </trkpt>
      <trkpt lat="59.8282117" lon="17.737042">
        <ele>0</ele>
        <time>2013-05-09T19:06:03Z</time>
      </trkpt>
      <trkpt lat="59.8282599" lon="17.7371492">
        <ele>0</ele>
        <time>2013-05-09T19:06:04Z</time>
      </trkpt>
      <trkpt lat="59.8283102" lon="17.7372563">
        <ele>0</ele>
        <time>2013-05-09T19:06:05Z</time>
      </trkpt>
      <trkpt lat="59.8283625" lon="17.7373615">
        <ele>0</ele>
        <time>2013-05-09T19:06:06Z</time>
      </trkpt>
      <trkpt lat="59.8284149" lon="17.7374654">
        <ele>0</ele>
        <time>2013-05-09T19:06:07Z</time>
      </trkpt>
      <trkpt lat="59.8284677" lon="17.7375682">
        <ele>0</ele>
        <time>2013-05-09T19:06:08Z</time>
      </trkpt>
      <trkpt lat="59.8285204" lon="17.7376696">
        <ele>0</ele>
        <time>2013-05-09T19:06:09Z</time>
      </trkpt>
      <trkpt lat="59.8285722" lon="17.7377723">
        <ele>0</ele>
        <time>2013-05-09T19:06:10Z</time>
      </trkpt>
      <trkpt lat="59.8286272" lon="17.7378744">
        <ele>0</ele>
        <time>2013-05-09T19:06:11Z</time>
      </trkpt>
      <trkpt lat="59.8286829" lon="17.737978">
        <ele>0</ele>
        <time>2013-05-09T19:06:12Z</time>
      </trkpt>
      <trkpt lat="59.8287417" lon="17.7380757">
        <ele>0</ele>
        <time>2013-05-09T19:06:13Z</time>
      </trkpt>
      <trkpt lat="59.8287877" lon="17.7381172">
        <ele>0</ele>
        <time>2013-05-09T19:06:14Z</time>
      </trkpt>
      <trkpt lat="59.8288513" lon="17.7382085">
        <ele>0</ele>
        <time>2013-05-09T19:06:15Z</time>
      </trkpt>
      <trkpt lat="59.8289264" lon="17.7383106">
        <ele>0</ele>
        <time>2013-05-09T19:06:16Z</time>
      </trkpt>
      <trkpt lat="59.8289949" lon="17.7384312">
        <ele>0</ele>
        <time>2013-05-09T19:06:17Z</time>
      </trkpt>
      <trkpt lat="59.8290706" lon="17.7385575">
        <ele>0</ele>
        <time>2013-05-09T19:06:18Z</time>
      </trkpt>
      <trkpt lat="59.8291327" lon="17.7386322">
        <ele>0</ele>
        <time>2013-05-09T19:06:19Z</time>
      </trkpt>
      <trkpt lat="59.8291873" lon="17.7386971">
        <ele>0</ele>
        <time>2013-05-09T19:06:20Z</time>
      </trkpt>
      <trkpt lat="59.829239" lon="17.7387788">
        <ele>0</ele>
        <time>2013-05-09T19:06:21Z</time>
      </trkpt>
      <trkpt lat="59.8292996" lon="17.7388451">
        <ele>0</ele>
        <time>2013-05-09T19:06:22Z</time>
      </trkpt>
      <trkpt lat="59.8293581" lon="17.7389233">
        <ele>0</ele>
        <time>2013-05-09T19:06:23Z</time>
      </trkpt>
      <trkpt lat="59.8294183" lon="17.7389959">
        <ele>0</ele>
        <time>2013-05-09T19:06:24Z</time>
      </trkpt>
      <trkpt lat="59.829471" lon="17.7390668">
        <ele>0</ele>
        <time>2013-05-09T19:06:25Z</time>
      </trkpt>
      <trkpt lat="59.8295232" lon="17.7391352">
        <ele>0</ele>
        <time>2013-05-09T19:06:26Z</time>
      </trkpt>
      <trkpt lat="59.8295762" lon="17.7392085">
        <ele>0</ele>
        <time>2013-05-09T19:06:27Z</time>
      </trkpt>
      <trkpt lat="59.8296265" lon="17.7392627">
        <ele>0</ele>
        <time>2013-05-09T19:06:28Z</time>
      </trkpt>
      <trkpt lat="59.829675" lon="17.7393117">
        <ele>0.618042</ele>
        <time>2013-05-09T19:06:29Z</time>
      </trkpt>
      <trkpt lat="59.8297239" lon="17.7393699">
        <ele>1.57935</ele>
        <time>2013-05-09T19:06:30Z</time>
      </trkpt>
      <trkpt lat="59.8297713" lon="17.7394246">
        <ele>1.57935</ele>
        <time>2013-05-09T19:06:31Z</time>
      </trkpt>
      <trkpt lat="59.8298192" lon="17.7394745">
        <ele>2.06006</ele>
        <time>2013-05-09T19:06:32Z</time>
      </trkpt>
      <trkpt lat="59.8298673" lon="17.7395207">
        <ele>2.06006</ele>
        <time>2013-05-09T19:06:33Z</time>
      </trkpt>
      <trkpt lat="59.829916" lon="17.7395672">
        <ele>2.06006</ele>
        <time>2013-05-09T19:06:34Z</time>
      </trkpt>
      <trkpt lat="59.8299625" lon="17.7396133">
        <ele>2.54065</ele>
        <time>2013-05-09T19:06:35Z</time>
      </trkpt>
      <trkpt lat="59.8300076" lon="17.739659">
        <ele>3.50195</ele>
        <time>2013-05-09T19:06:36Z</time>
      </trkpt>
      <trkpt lat="59.830052" lon="17.7397046">
        <ele>3.50195</ele>
        <time>2013-05-09T19:06:37Z</time>
      </trkpt>
      <trkpt lat="59.8300968" lon="17.7397511">
        <ele>3.98267</ele>
        <time>2013-05-09T19:06:38Z</time>
      </trkpt>
      <trkpt lat="59.8301418" lon="17.7397945">
        <ele>3.98267</ele>
        <time>2013-05-09T19:06:39Z</time>
      </trkpt>
      <trkpt lat="59.8301885" lon="17.7398282">
        <ele>6.38586</ele>
        <time>2013-05-09T19:06:40Z</time>
      </trkpt>
      <trkpt lat="59.8302349" lon="17.7398614">
        <ele>6.86646</ele>
        <time>2013-05-09T19:06:41Z</time>
      </trkpt>
      <trkpt lat="59.8302768" lon="17.7398904">
        <ele>7.34717</ele>
        <time>2013-05-09T19:06:42Z</time>
      </trkpt>
      <trkpt lat="59.8303153" lon="17.7399283">
        <ele>7.34717</ele>
        <time>2013-05-09T19:06:43Z</time>
      </trkpt>
      <trkpt lat="59.83035" lon="17.7399685">
        <ele>8.30859</ele>
        <time>2013-05-09T19:06:44Z</time>
      </trkpt>
      <trkpt lat="59.8303838" lon="17.7400101">
        <ele>8.30859</ele>
        <time>2013-05-09T19:06:45Z</time>
      </trkpt>
      <trkpt lat="59.8304172" lon="17.7400496">
        <ele>8.78918</ele>
        <time>2013-05-09T19:06:46Z</time>
      </trkpt>
      <trkpt lat="59.8304516" lon="17.7400869">
        <ele>8.78918</ele>
        <time>2013-05-09T19:06:47Z</time>
      </trkpt>
      <trkpt lat="59.8304878" lon="17.7401203">
        <ele>9.2699</ele>
        <time>2013-05-09T19:06:48Z</time>
      </trkpt>
      <trkpt lat="59.8305229" lon="17.7401499">
        <ele>9.75061</ele>
        <time>2013-05-09T19:06:49Z</time>
      </trkpt>
      <trkpt lat="59.8305581" lon="17.7401816">
        <ele>10.7118</ele>
        <time>2013-05-09T19:06:50Z</time>
      </trkpt>
      <trkpt lat="59.8305926" lon="17.7402163">
        <ele>11.1925</ele>
        <time>2013-05-09T19:06:51Z</time>
      </trkpt>
      <trkpt lat="59.8306293" lon="17.7402525">
        <ele>11.6732</ele>
        <time>2013-05-09T19:06:52Z</time>
      </trkpt>
      <trkpt lat="59.8306666" lon="17.7402871">
        <ele>12.1538</ele>
        <time>2013-05-09T19:06:53Z</time>
      </trkpt>
      <trkpt lat="59.8307039" lon="17.7403256">
        <ele>14.0764</ele>
        <time>2013-05-09T19:06:54Z</time>
      </trkpt>
      <trkpt lat="59.8307412" lon="17.7403649">
        <ele>15.999</ele>
        <time>2013-05-09T19:06:55Z</time>
      </trkpt>
      <trkpt lat="59.8307772" lon="17.7404047">
        <ele>17.9218</ele>
        <time>2013-05-09T19:06:56Z</time>
      </trkpt>
      <trkpt lat="59.8308145" lon="17.740441">
        <ele>19.3638</ele>
        <time>2013-05-09T19:06:57Z</time>
      </trkpt>
      <trkpt lat="59.830852" lon="17.7404768">
        <ele>20.325</ele>
        <time>2013-05-09T19:06:58Z</time>
      </trkpt>
      <trkpt lat="59.8308902" lon="17.7405132">
        <ele>21.767</ele>
        <time>2013-05-09T19:06:59Z</time>
      </trkpt>
      <trkpt lat="59.8309302" lon="17.7405503">
        <ele>22.7283</ele>
        <time>2013-05-09T19:07:00Z</time>
      </trkpt>
      <trkpt lat="59.8309705" lon="17.7405846">
        <ele>24.1703</ele>
        <time>2013-05-09T19:07:01Z</time>
      </trkpt>
      <trkpt lat="59.8310106" lon="17.7406229">
        <ele>24.651</ele>
        <time>2013-05-09T19:07:02Z</time>
      </trkpt>
      <trkpt lat="59.8310499" lon="17.7406636">
        <ele>25.6123</ele>
        <time>2013-05-09T19:07:03Z</time>
      </trkpt>
      <trkpt lat="59.8310888" lon="17.7407035">
        <ele>26.5736</ele>
        <time>2013-05-09T19:07:04Z</time>
      </trkpt>
      <trkpt lat="59.8311285" lon="17.7407491">
        <ele>26.5736</ele>
        <time>2013-05-09T19:07:05Z</time>
      </trkpt>
      <trkpt lat="59.831172" lon="17.7408007">
        <ele>26.5736</ele>
        <time>2013-05-09T19:07:06Z</time>
      </trkpt>
      <trkpt lat="59.8312151" lon="17.7408484">
        <ele>27.0543</ele>
        <time>2013-05-09T19:07:07Z</time>
      </trkpt>
      <trkpt lat="59.8312561" lon="17.7408954">
        <ele>27.0543</ele>
        <time>2013-05-09T19:07:08Z</time>
      </trkpt>
      <trkpt lat="59.8312959" lon="17.7409434">
        <ele>27.5349</ele>
        <time>2013-05-09T19:07:09Z</time>
      </trkpt>
      <trkpt lat="59.831336" lon="17.7409918">
        <ele>27.5349</ele>
        <time>2013-05-09T19:07:10Z</time>
      </trkpt>
      <trkpt lat="59.8313743" lon="17.741039">
        <ele>28.0155</ele>
        <time>2013-05-09T19:07:11Z</time>
      </trkpt>
      <trkpt lat="59.8314079" lon="17.741077">
        <ele>26.0929</ele>
        <time>2013-05-09T19:07:12Z</time>
      </trkpt>
      <trkpt lat="59.8314358" lon="17.7410879">
        <ele>25.6123</ele>
        <time>2013-05-09T19:07:13Z</time>
      </trkpt>
      <trkpt lat="59.831452" lon="17.74107">
        <ele>25.1317</ele>
        <time>2013-05-09T19:07:14Z</time>
      </trkpt>
      <trkpt lat="59.8314538" lon="17.7410446">
        <ele>24.651</ele>
        <time>2013-05-09T19:07:15Z</time>
      </trkpt>
      <trkpt lat="59.8314416" lon="17.7410187">
        <ele>24.1703</ele>
        <time>2013-05-09T19:07:16Z</time>
      </trkpt>
      <trkpt lat="59.8314186" lon="17.7409962">
        <ele>24.1703</ele>
        <time>2013-05-09T19:07:17Z</time>
      </trkpt>
      <trkpt lat="59.8313892" lon="17.7409745">
        <ele>23.209</ele>
        <time>2013-05-09T19:07:18Z</time>
      </trkpt>
      <trkpt lat="59.8313559" lon="17.7409445">
        <ele>22.7283</ele>
        <time>2013-05-09T19:07:19Z</time>
      </trkpt>
      <trkpt lat="59.8313201" lon="17.7409048">
        <ele>22.2476</ele>
        <time>2013-05-09T19:07:20Z</time>
      </trkpt>
      <trkpt lat="59.8312818" lon="17.7408591">
        <ele>21.767</ele>
        <time>2013-05-09T19:07:21Z</time>
      </trkpt>
      <trkpt lat="59.8312406" lon="17.7408102">
        <ele>21.2864</ele>
        <time>2013-05-09T19:07:22Z</time>
      </trkpt>
      <trkpt lat="59.8311973" lon="17.7407597">
        <ele>20.8057</ele>
        <time>2013-05-09T19:07:23Z</time>
      </trkpt>
      <trkpt lat="59.8311516" lon="17.7407123">
        <ele>20.325</ele>
        <time>2013-05-09T19:07:24Z</time>
      </trkpt>
      <trkpt lat="59.8311033" lon="17.740667">
        <ele>19.8444</ele>
        <time>2013-05-09T19:07:25Z</time>
      </trkpt>
      <trkpt lat="59.831053" lon="17.7406181">
        <ele>19.3638</ele>
        <time>2013-05-09T19:07:26Z</time>
      </trkpt>
      <trkpt lat="59.8310018" lon="17.740565">
        <ele>18.8831</ele>
        <time>2013-05-09T19:07:27Z</time>
      </trkpt>
      <trkpt lat="59.830948" lon="17.7405116">
        <ele>18.4023</ele>
        <time>2013-05-09T19:07:28Z</time>
      </trkpt>
      <trkpt lat="59.8308928" lon="17.7404551">
        <ele>17.9218</ele>
        <time>2013-05-09T19:07:29Z</time>
      </trkpt>
      <trkpt lat="59.8308374" lon="17.7403939">
        <ele>17.4412</ele>
        <time>2013-05-09T19:07:30Z</time>
      </trkpt>
      <trkpt lat="59.8307819" lon="17.7403313">
        <ele>16.9604</ele>
        <time>2013-05-09T19:07:31Z</time>
      </trkpt>
      <trkpt lat="59.830725" lon="17.7402712">
        <ele>16.9604</ele>
        <time>2013-05-09T19:07:32Z</time>
      </trkpt>
      <trkpt lat="59.8306667" lon="17.7402133">
        <ele>16.4797</ele>
        <time>2013-05-09T19:07:33Z</time>
      </trkpt>
      <trkpt lat="59.8306075" lon="17.7401566">
        <ele>15.999</ele>
        <time>2013-05-09T19:07:34Z</time>
      </trkpt>
      <trkpt lat="59.830548" lon="17.740097">
        <ele>15.999</ele>
        <time>2013-05-09T19:07:35Z</time>
      </trkpt>
      <trkpt lat="59.8304889" lon="17.740035">
        <ele>15.5184</ele>
        <time>2013-05-09T19:07:36Z</time>
      </trkpt>
      <trkpt lat="59.8304291" lon="17.7399732">
        <ele>15.0377</ele>
        <time>2013-05-09T19:07:37Z</time>
      </trkpt>
      <trkpt lat="59.8303685" lon="17.7399101">
        <ele>15.0377</ele>
        <time>2013-05-09T19:07:38Z</time>
      </trkpt>
      <trkpt lat="59.8303065" lon="17.7398465">
        <ele>14.557</ele>
        <time>2013-05-09T19:07:39Z</time>
      </trkpt>
      <trkpt lat="59.8302428" lon="17.7397836">
        <ele>14.0764</ele>
        <time>2013-05-09T19:07:40Z</time>
      </trkpt>
      <trkpt lat="59.8301771" lon="17.739721">
        <ele>13.5958</ele>
        <time>2013-05-09T19:07:41Z</time>
      </trkpt>
      <trkpt lat="59.8301104" lon="17.7396563">
        <ele>13.5958</ele>
        <time>2013-05-09T19:07:42Z</time>
      </trkpt>
      <trkpt lat="59.830043" lon="17.7395879">
        <ele>13.1151</ele>
        <time>2013-05-09T19:07:43Z</time>
      </trkpt>
      <trkpt lat="59.8299745" lon="17.7395159">
        <ele>12.6344</ele>
        <time>2013-05-09T19:07:44Z</time>
      </trkpt>
      <trkpt lat="59.829904" lon="17.7394408">
        <ele>12.1538</ele>
        <time>2013-05-09T19:07:45Z</time>
      </trkpt>
      <trkpt lat="59.8298316" lon="17.7393634">
        <ele>11.6732</ele>
        <time>2013-05-09T19:07:46Z</time>
      </trkpt>
      <trkpt lat="59.8297571" lon="17.739284">
        <ele>11.1925</ele>
        <time>2013-05-09T19:07:47Z</time>
      </trkpt>
      <trkpt lat="59.8296817" lon="17.7391999">
        <ele>10.7118</ele>
        <time>2013-05-09T19:07:48Z</time>
      </trkpt>
      <trkpt lat="59.8296052" lon="17.7391097">
        <ele>10.2312</ele>
        <time>2013-05-09T19:07:49Z</time>
      </trkpt>
      <trkpt lat="59.8295283" lon="17.7390154">
        <ele>9.75061</ele>
        <time>2013-05-09T19:07:50Z</time>
      </trkpt>
      <trkpt lat="59.8294498" lon="17.7389183">
        <ele>9.2699</ele>
        <time>2013-05-09T19:07:51Z</time>
      </trkpt>
      <trkpt lat="59.8293703" lon="17.7388176">
        <ele>8.78918</ele>
        <time>2013-05-09T19:07:52Z</time>
      </trkpt>
      <trkpt lat="59.8292886" lon="17.7387111">
        <ele>8.30859</ele>
        <time>2013-05-09T19:07:53Z</time>
      </trkpt>
      <trkpt lat="59.8292087" lon="17.7386026">
        <ele>7.82788</ele>
        <time>2013-05-09T19:07:54Z</time>
      </trkpt>
      <trkpt lat="59.8291297" lon="17.7384917">
        <ele>7.82788</ele>
        <time>2013-05-09T19:07:55Z</time>
      </trkpt>
      <trkpt lat="59.8290517" lon="17.7383783">
        <ele>7.34717</ele>
        <time>2013-05-09T19:07:56Z</time>
      </trkpt>
      <trkpt lat="59.8289727" lon="17.7382687">
        <ele>6.86646</ele>
        <time>2013-05-09T19:07:57Z</time>
      </trkpt>
      <trkpt lat="59.8288909" lon="17.7381618">
        <ele>5.90527</ele>
        <time>2013-05-09T19:07:58Z</time>
      </trkpt>
      <trkpt lat="59.8288157" lon="17.7380504">
        <ele>5.90527</ele>
        <time>2013-05-09T19:07:59Z</time>
      </trkpt>
      <trkpt lat="59.8287527" lon="17.737933">
        <ele>5.90527</ele>
        <time>2013-05-09T19:08:00Z</time>
      </trkpt>
      <trkpt lat="59.8286951" lon="17.7378237">
        <ele>6.38586</ele>
        <time>2013-05-09T19:08:01Z</time>
      </trkpt>
      <trkpt lat="59.8286396" lon="17.737716">
        <ele>6.86646</ele>
        <time>2013-05-09T19:08:02Z</time>
      </trkpt>
      <trkpt lat="59.8285852" lon="17.7376159">
        <ele>7.34717</ele>
        <time>2013-05-09T19:08:03Z</time>
      </trkpt>
      <trkpt lat="59.8285332" lon="17.7375159">
        <ele>7.82788</ele>
        <time>2013-05-09T19:08:04Z</time>
      </trkpt>
      <trkpt lat="59.828483" lon="17.7374165">
        <ele>7.82788</ele>
        <time>2013-05-09T19:08:05Z</time>
      </trkpt>
      <trkpt lat="59.8284333" lon="17.7373195">
        <ele>8.30859</ele>
        <time>2013-05-09T19:08:06Z</time>
      </trkpt>
      <trkpt lat="59.828384" lon="17.7372222">
        <ele>8.30859</ele>
        <time>2013-05-09T19:08:07Z</time>
      </trkpt>
      <trkpt lat="59.8283361" lon="17.7371238">
        <ele>8.78918</ele>
        <time>2013-05-09T19:08:08Z</time>
      </trkpt>
      <trkpt lat="59.8282896" lon="17.7370253">
        <ele>8.78918</ele>
        <time>2013-05-09T19:08:09Z</time>
      </trkpt>
      <trkpt lat="59.8282429" lon="17.7369288">
        <ele>8.78918</ele>
        <time>2013-05-09T19:08:10Z</time>
      </trkpt>
      <trkpt lat="59.8281972" lon="17.7368322">
        <ele>9.2699</ele>
        <time>2013-05-09T19:08:11Z</time>
      </trkpt>
      <trkpt lat="59.8281511" lon="17.7367374">
        <ele>9.2699</ele>
        <time>2013-05-09T19:08:12Z</time>
      </trkpt>
      <trkpt lat="59.8281053" lon="17.7366459">
        <ele>9.2699</ele>
        <time>2013-05-09T19:08:13Z</time>
      </trkpt>
      <trkpt lat="59.828062" lon="17.7365541">
        <ele>9.2699</ele>
        <time>2013-05-09T19:08:14Z</time>
      </trkpt>
      <trkpt lat="59.8280207" lon="17.7364607">
        <ele>9.75061</ele>
        <time>2013-05-09T19:08:15Z</time>
      </trkpt>
      <trkpt lat="59.8279797" lon="17.7363669">
        <ele>9.75061</ele>
        <time>2013-05-09T19:08:16Z</time>
      </trkpt>
      <trkpt lat="59.8279381" lon="17.7362723">
        <ele>9.75061</ele>
        <time>2013-05-09T19:08:17Z</time>
      </trkpt>
      <trkpt lat="59.8278963" lon="17.7361764">
        <ele>9.75061</ele>
        <time>2013-05-09T19:08:18Z</time>
      </trkpt>
      <trkpt lat="59.8278537" lon="17.7360793">
        <ele>9.75061</ele>
        <time>2013-05-09T19:08:19Z</time>
      </trkpt>
      <trkpt lat="59.8278101" lon="17.735981">
        <ele>9.75061</ele>
        <time>2013-05-09T19:08:20Z</time>
      </trkpt>
      <trkpt lat="59.827766" lon="17.7358829">
        <ele>9.75061</ele>
        <time>2013-05-09T19:08:21Z</time>
      </trkpt>
      <trkpt lat="59.8277208" lon="17.7357847">
        <ele>10.2312</ele>
        <time>2013-05-09T19:08:22Z</time>
      </trkpt>
      <trkpt lat="59.8276747" lon="17.7356871">
        <ele>10.2312</ele>
        <time>2013-05-09T19:08:23Z</time>
      </trkpt>
      <trkpt lat="59.8276291" lon="17.7355883">
        <ele>10.2312</ele>
        <time>2013-05-09T19:08:24Z</time>
      </trkpt>
      <trkpt lat="59.8275839" lon="17.7354874">
        <ele>10.2312</ele>
        <time>2013-05-09T19:08:25Z</time>
      </trkpt>
      <trkpt lat="59.8275383" lon="17.7353874">
        <ele>10.2312</ele>
        <time>2013-05-09T19:08:26Z</time>
      </trkpt>
      <trkpt lat="59.8274927" lon="17.7352895">
        <ele>10.2312</ele>
        <time>2013-05-09T19:08:27Z</time>
      </trkpt>
      <trkpt lat="59.8274466" lon="17.735192">
        <ele>10.2312</ele>
        <time>2013-05-09T19:08:28Z</time>
      </trkpt>
      <trkpt lat="59.8274" lon="17.7350921">
        <ele>10.2312</ele>
        <time>2013-05-09T19:08:29Z</time>
      </trkpt>
      <trkpt lat="59.8273539" lon="17.7349899">
        <ele>10.2312</ele>
        <time>2013-05-09T19:08:30Z</time>
      </trkpt>
      <trkpt lat="59.8273077" lon="17.7348899">
        <ele>10.2312</ele>
        <time>2013-05-09T19:08:31Z</time>
      </trkpt>
      <trkpt lat="59.8272613" lon="17.7347926">
        <ele>10.2312</ele>
        <time>2013-05-09T19:08:32Z</time>
      </trkpt>
      <trkpt lat="59.827216" lon="17.7346956">
        <ele>9.75061</ele>
        <time>2013-05-09T19:08:33Z</time>
      </trkpt>
      <trkpt lat="59.827172" lon="17.734598">
        <ele>9.75061</ele>
        <time>2013-05-09T19:08:34Z</time>
      </trkpt>
      <trkpt lat="59.8271291" lon="17.7345004">
        <ele>9.75061</ele>
        <time>2013-05-09T19:08:35Z</time>
      </trkpt>
      <trkpt lat="59.8270864" lon="17.7344052">
        <ele>9.75061</ele>
        <time>2013-05-09T19:08:36Z</time>
      </trkpt>
      <trkpt lat="59.8270436" lon="17.7343114">
        <ele>9.75061</ele>
        <time>2013-05-09T19:08:37Z</time>
      </trkpt>
      <trkpt lat="59.8270011" lon="17.7342171">
        <ele>9.75061</ele>
        <time>2013-05-09T19:08:38Z</time>
      </trkpt>
      <trkpt lat="59.8269592" lon="17.734124">
        <ele>9.75061</ele>
        <time>2013-05-09T19:08:39Z</time>
      </trkpt>
      <trkpt lat="59.8269172" lon="17.7340334">
        <ele>9.75061</ele>
        <time>2013-05-09T19:08:40Z</time>
      </trkpt>
      <trkpt lat="59.8268762" lon="17.7339437">
        <ele>9.75061</ele>
        <time>2013-05-09T19:08:41Z</time>
      </trkpt>
      <trkpt lat="59.826836" lon="17.7338542">
        <ele>9.75061</ele>
        <time>2013-05-09T19:08:42Z</time>
      </trkpt>
      <trkpt lat="59.8267954" lon="17.7337659">
        <ele>9.75061</ele>
        <time>2013-05-09T19:08:43Z</time>
      </trkpt>
      <trkpt lat="59.8267539" lon="17.733677">
        <ele>9.75061</ele>
        <time>2013-05-09T19:08:44Z</time>
      </trkpt>
      <trkpt lat="59.8267112" lon="17.7335873">
        <ele>9.75061</ele>
        <time>2013-05-09T19:08:45Z</time>
      </trkpt>
      <trkpt lat="59.8266673" lon="17.7334964">
        <ele>9.75061</ele>
        <time>2013-05-09T19:08:46Z</time>
      </trkpt>
      <trkpt lat="59.8266229" lon="17.7334034">
        <ele>9.75061</ele>
        <time>2013-05-09T19:08:47Z</time>
      </trkpt>
      <trkpt lat="59.8265799" lon="17.7333065">
        <ele>9.75061</ele>
        <time>2013-05-09T19:08:48Z</time>
      </trkpt>
      <trkpt lat="59.8265371" lon="17.7332061">
        <ele>9.75061</ele>
        <time>2013-05-09T19:08:49Z</time>
      </trkpt>
      <trkpt lat="59.8264938" lon="17.7331039">
        <ele>9.75061</ele>
        <time>2013-05-09T19:08:50Z</time>
      </trkpt>
      <trkpt lat="59.8264509" lon="17.7329983">
        <ele>9.75061</ele>
        <time>2013-05-09T19:08:51Z</time>
      </trkpt>
      <trkpt lat="59.8264089" lon="17.7328895">
        <ele>9.75061</ele>
        <time>2013-05-09T19:08:52Z</time>
      </trkpt>
      <trkpt lat="59.8263681" lon="17.7327782">
        <ele>9.75061</ele>
        <time>2013-05-09T19:08:53Z</time>
      </trkpt>
      <trkpt lat="59.8263289" lon="17.7326657">
        <ele>9.75061</ele>
        <time>2013-05-09T19:08:54Z</time>
      </trkpt>
      <trkpt lat="59.8262919" lon="17.7325532">
        <ele>9.75061</ele>
        <time>2013-05-09T19:08:55Z</time>
      </trkpt>
      <trkpt lat="59.8262564" lon="17.7324389">
        <ele>9.2699</ele>
        <time>2013-05-09T19:08:56Z</time>
      </trkpt>
      <trkpt lat="59.8262215" lon="17.7323219">
        <ele>9.2699</ele>
        <time>2013-05-09T19:08:57Z</time>
      </trkpt>
      <trkpt lat="59.826187" lon="17.7322054">
        <ele>9.2699</ele>
        <time>2013-05-09T19:08:58Z</time>
      </trkpt>
      <trkpt lat="59.8261527" lon="17.7320926">
        <ele>9.2699</ele>
        <time>2013-05-09T19:08:59Z</time>
      </trkpt>
      <trkpt lat="59.8261191" lon="17.7319825">
        <ele>9.2699</ele>
        <time>2013-05-09T19:09:00Z</time>
      </trkpt>
      <trkpt lat="59.8260872" lon="17.7318743">
        <ele>9.2699</ele>
        <time>2013-05-09T19:09:01Z</time>
      </trkpt>
      <trkpt lat="59.8260566" lon="17.7317681">
        <ele>9.75061</ele>
        <time>2013-05-09T19:09:02Z</time>
      </trkpt>
      <trkpt lat="59.8260273" lon="17.7316638">
        <ele>9.75061</ele>
        <time>2013-05-09T19:09:03Z</time>
      </trkpt>
      <trkpt lat="59.8259988" lon="17.7315617">
        <ele>9.75061</ele>
        <time>2013-05-09T19:09:04Z</time>
      </trkpt>
      <trkpt lat="59.8259709" lon="17.7314615">
        <ele>9.75061</ele>
        <time>2013-05-09T19:09:05Z</time>
      </trkpt>
      <trkpt lat="59.8259438" lon="17.7313631">
        <ele>9.75061</ele>
        <time>2013-05-09T19:09:06Z</time>
      </trkpt>
      <trkpt lat="59.825915" lon="17.7312691">
        <ele>9.2699</ele>
        <time>2013-05-09T19:09:07Z</time>
      </trkpt>
      <trkpt lat="59.8258896" lon="17.7311782">
        <ele>9.2699</ele>
        <time>2013-05-09T19:09:08Z</time>
      </trkpt>
      <trkpt lat="59.8258675" lon="17.7310908">
        <ele>9.2699</ele>
        <time>2013-05-09T19:09:09Z</time>
      </trkpt>
      <trkpt lat="59.825847" lon="17.7310085">
        <ele>8.78918</ele>
        <time>2013-05-09T19:09:10Z</time>
      </trkpt>
      <trkpt lat="59.8258277" lon="17.7309316">
        <ele>8.78918</ele>
        <time>2013-05-09T19:09:11Z</time>
      </trkpt>
      <trkpt lat="59.8258111" lon="17.7308626">
        <ele>8.30859</ele>
        <time>2013-05-09T19:09:12Z</time>
      </trkpt>
      <trkpt lat="59.8257953" lon="17.7308045">
        <ele>8.30859</ele>
        <time>2013-05-09T19:09:13Z</time>
      </trkpt>
      <trkpt lat="59.8257873" lon="17.7307572">
        <ele>8.30859</ele>
        <time>2013-05-09T19:09:14Z</time>
      </trkpt>
      <trkpt lat="59.8257823" lon="17.7307192">
        <ele>8.30859</ele>
        <time>2013-05-09T19:09:15Z</time>
      </trkpt>
      <trkpt lat="59.82578" lon="17.7306902">
        <ele>8.30859</ele>
        <time>2013-05-09T19:09:16Z</time>
      </trkpt>
      <trkpt lat="59.8257803" lon="17.7306698">
        <ele>8.30859</ele>
        <time>2013-05-09T19:09:17Z</time>
      </trkpt>
      <trkpt lat="59.8257745" lon="17.7306611">
        <ele>8.30859</ele>
        <time>2013-05-09T19:09:18Z</time>
      </trkpt>
      <trkpt lat="59.8257651" lon="17.7306564">
        <ele>7.82788</ele>
        <time>2013-05-09T19:09:19Z</time>
      </trkpt>
      <trkpt lat="59.8257495" lon="17.7306491">
        <ele>7.82788</ele>
        <time>2013-05-09T19:09:20Z</time>
      </trkpt>
      <trkpt lat="59.8257303" lon="17.7306348">
        <ele>7.34717</ele>
        <time>2013-05-09T19:09:21Z</time>
      </trkpt>
      <trkpt lat="59.825708" lon="17.7306201">
        <ele>7.82788</ele>
        <time>2013-05-09T19:09:22Z</time>
      </trkpt>
      <trkpt lat="59.825679" lon="17.7306166">
        <ele>7.82788</ele>
        <time>2013-05-09T19:09:23Z</time>
      </trkpt>
      <trkpt lat="59.8256463" lon="17.7306305">
        <ele>7.82788</ele>
        <time>2013-05-09T19:09:24Z</time>
      </trkpt>
      <trkpt lat="59.8256129" lon="17.7306606">
        <ele>7.82788</ele>
        <time>2013-05-09T19:09:25Z</time>
      </trkpt>
      <trkpt lat="59.8255792" lon="17.7306976">
        <ele>7.82788</ele>
        <time>2013-05-09T19:09:26Z</time>
      </trkpt>
      <trkpt lat="59.8255436" lon="17.7307401">
        <ele>7.82788</ele>
        <time>2013-05-09T19:09:27Z</time>
      </trkpt>
      <trkpt lat="59.8255071" lon="17.730787">
        <ele>7.82788</ele>
        <time>2013-05-09T19:09:28Z</time>
      </trkpt>
      <trkpt lat="59.8254699" lon="17.7308361">
        <ele>7.82788</ele>
        <time>2013-05-09T19:09:29Z</time>
      </trkpt>
      <trkpt lat="59.8254304" lon="17.730888">
        <ele>7.82788</ele>
        <time>2013-05-09T19:09:30Z</time>
      </trkpt>
      <trkpt lat="59.8253891" lon="17.7309432">
        <ele>7.82788</ele>
        <time>2013-05-09T19:09:31Z</time>
      </trkpt>
      <trkpt lat="59.8253457" lon="17.7310008">
        <ele>7.82788</ele>
        <time>2013-05-09T19:09:32Z</time>
      </trkpt>
      <trkpt lat="59.825301" lon="17.7310599">
        <ele>7.82788</ele>
        <time>2013-05-09T19:09:33Z</time>
      </trkpt>
      <trkpt lat="59.8252549" lon="17.7311205">
        <ele>7.82788</ele>
        <time>2013-05-09T19:09:34Z</time>
      </trkpt>
      <trkpt lat="59.8252072" lon="17.7311838">
        <ele>8.30859</ele>
        <time>2013-05-09T19:09:35Z</time>
      </trkpt>
      <trkpt lat="59.8251591" lon="17.7312484">
        <ele>8.30859</ele>
        <time>2013-05-09T19:09:36Z</time>
      </trkpt>
      <trkpt lat="59.8251114" lon="17.7313133">
        <ele>7.82788</ele>
        <time>2013-05-09T19:09:37Z</time>
      </trkpt>
      <trkpt lat="59.8250651" lon="17.7313815">
        <ele>7.82788</ele>
        <time>2013-05-09T19:09:38Z</time>
      </trkpt>
      <trkpt lat="59.8250204" lon="17.7314517">
        <ele>7.82788</ele>
        <time>2013-05-09T19:09:39Z</time>
      </trkpt>
      <trkpt lat="59.8249774" lon="17.7315277">
        <ele>7.82788</ele>
        <time>2013-05-09T19:09:40Z</time>
      </trkpt>
      <trkpt lat="59.8249364" lon="17.7316101">
        <ele>7.82788</ele>
        <time>2013-05-09T19:09:41Z</time>
      </trkpt>
      <trkpt lat="59.8248961" lon="17.7316929">
        <ele>7.34717</ele>
        <time>2013-05-09T19:09:42Z</time>
      </trkpt>
      <trkpt lat="59.8248549" lon="17.7317712">
        <ele>7.34717</ele>
        <time>2013-05-09T19:09:43Z</time>
      </trkpt>
      <trkpt lat="59.8248121" lon="17.7318437">
        <ele>7.34717</ele>
        <time>2013-05-09T19:09:44Z</time>
      </trkpt>
      <trkpt lat="59.8247695" lon="17.7319121">
        <ele>6.86646</ele>
        <time>2013-05-09T19:09:45Z</time>
      </trkpt>
      <trkpt lat="59.8247258" lon="17.7319736">
        <ele>6.86646</ele>
        <time>2013-05-09T19:09:46Z</time>
      </trkpt>
      <trkpt lat="59.8246825" lon="17.7320312">
        <ele>6.86646</ele>
        <time>2013-05-09T19:09:47Z</time>
      </trkpt>
      <trkpt lat="59.8246409" lon="17.7320872">
        <ele>6.38586</ele>
        <time>2013-05-09T19:09:48Z</time>
      </trkpt>
      <trkpt lat="59.8246007" lon="17.7321415">
        <ele>6.38586</ele>
        <time>2013-05-09T19:09:49Z</time>
      </trkpt>
      <trkpt lat="59.824563" lon="17.7321934">
        <ele>6.38586</ele>
        <time>2013-05-09T19:09:50Z</time>
      </trkpt>
      <trkpt lat="59.824529" lon="17.7322456">
        <ele>6.38586</ele>
        <time>2013-05-09T19:09:51Z</time>
      </trkpt>
      <trkpt lat="59.8244977" lon="17.7322973">
        <ele>6.38586</ele>
        <time>2013-05-09T19:09:52Z</time>
      </trkpt>
      <trkpt lat="59.8244685" lon="17.7323466">
        <ele>5.90527</ele>
        <time>2013-05-09T19:09:53Z</time>
      </trkpt>
      <trkpt lat="59.8244396" lon="17.7323912">
        <ele>6.38586</ele>
        <time>2013-05-09T19:09:54Z</time>
      </trkpt>
      <trkpt lat="59.8521108" lon="17.6857698">
        <ele>18.4023</ele>
        <time>2013-05-09T19:28:43Z</time>
      </trkpt>
      <trkpt lat="59.8521127" lon="17.6857693">
        <ele>18.4023</ele>
        <time>2013-05-09T19:28:44Z</time>
      </trkpt>
      <trkpt lat="59.8521153" lon="17.6857683">
        <ele>19.8444</ele>
        <time>2013-05-09T19:28:45Z</time>
      </trkpt>
      <trkpt lat="59.8524969" lon="17.6861472">
        <ele>13.1151</ele>
        <time>2013-05-09T19:52:10Z</time>
      </trkpt>
      <trkpt lat="59.8525445" lon="17.6861009">
        <ele>16.9604</ele>
        <time>2013-05-09T19:52:11Z</time>
      </trkpt>
      <trkpt lat="59.8525821" lon="17.6860423">
        <ele>18.4023</ele>
        <time>2013-05-09T19:52:12Z</time>
      </trkpt>
      <trkpt lat="59.8526192" lon="17.6859812">
        <ele>19.8444</ele>
        <time>2013-05-09T19:52:13Z</time>
      </trkpt>
      <trkpt lat="59.8526556" lon="17.6859183">
        <ele>21.767</ele>
        <time>2013-05-09T19:52:14Z</time>
      </trkpt>
      <trkpt lat="59.8526909" lon="17.6858532">
        <ele>22.7283</ele>
        <time>2013-05-09T19:52:15Z</time>
      </trkpt>
      <trkpt lat="59.8527238" lon="17.6857909">
        <ele>23.6896</ele>
        <time>2013-05-09T19:52:16Z</time>
      </trkpt>
      <trkpt lat="59.8527534" lon="17.685728">
        <ele>25.1317</ele>
        <time>2013-05-09T19:52:17Z</time>
      </trkpt>
      <trkpt lat="59.8527815" lon="17.6856605">
        <ele>25.1317</ele>
        <time>2013-05-09T19:52:18Z</time>
      </trkpt>
      <trkpt lat="59.8528089" lon="17.6855927">
        <ele>26.0929</ele>
        <time>2013-05-09T19:52:19Z</time>
      </trkpt>
      <trkpt lat="59.8528362" lon="17.6855264">
        <ele>26.5736</ele>
        <time>2013-05-09T19:52:20Z</time>
      </trkpt>
      <trkpt lat="59.8528674" lon="17.685462">
        <ele>27.5349</ele>
        <time>2013-05-09T19:52:21Z</time>
      </trkpt>
      <trkpt lat="59.8528923" lon="17.6853944">
        <ele>28.0155</ele>
        <time>2013-05-09T19:52:22Z</time>
      </trkpt>
      <trkpt lat="59.8529161" lon="17.6853269">
        <ele>28.0155</ele>
        <time>2013-05-09T19:52:23Z</time>
      </trkpt>
      <trkpt lat="59.8529363" lon="17.6852633">
        <ele>28.0155</ele>
        <time>2013-05-09T19:52:24Z</time>
      </trkpt>
      <trkpt lat="59.852954" lon="17.6851939">
        <ele>27.5349</ele>
        <time>2013-05-09T19:52:25Z</time>
      </trkpt>
      <trkpt lat="59.8529691" lon="17.6851197">
        <ele>27.5349</ele>
        <time>2013-05-09T19:52:26Z</time>
      </trkpt>
      <trkpt lat="59.8529891" lon="17.6850409">
        <ele>28.0155</ele>
        <time>2013-05-09T19:52:27Z</time>
      </trkpt>
      <trkpt lat="59.853011" lon="17.6849643">
        <ele>28.4962</ele>
        <time>2013-05-09T19:52:28Z</time>
      </trkpt>
      <trkpt lat="59.8530285" lon="17.6848834">
        <ele>28.0155</ele>
        <time>2013-05-09T19:52:29Z</time>
      </trkpt>
      <trkpt lat="59.8530427" lon="17.6848074">
        <ele>27.5349</ele>
        <time>2013-05-09T19:52:30Z</time>
      </trkpt>
      <trkpt lat="59.8530572" lon="17.6847334">
        <ele>27.0543</ele>
        <time>2013-05-09T19:52:31Z</time>
      </trkpt>
      <trkpt lat="59.8530703" lon="17.6846601">
        <ele>26.0929</ele>
        <time>2013-05-09T19:52:32Z</time>
      </trkpt>
      <trkpt lat="59.8530897" lon="17.6845984">
        <ele>27.5349</ele>
        <time>2013-05-09T19:52:33Z</time>
      </trkpt>
      <trkpt lat="59.8531037" lon="17.6845347">
        <ele>28.0155</ele>
        <time>2013-05-09T19:52:34Z</time>
      </trkpt>
      <trkpt lat="59.8531181" lon="17.6844751">
        <ele>28.9769</ele>
        <time>2013-05-09T19:52:35Z</time>
      </trkpt>
      <trkpt lat="59.853128" lon="17.6844153">
        <ele>29.4575</ele>
        <time>2013-05-09T19:52:36Z</time>
      </trkpt>
      <trkpt lat="59.8531347" lon="17.6843511">
        <ele>29.9381</ele>
        <time>2013-05-09T19:52:37Z</time>
      </trkpt>
      <trkpt lat="59.8531349" lon="17.6842908">
        <ele>29.9381</ele>
        <time>2013-05-09T19:52:38Z</time>
      </trkpt>
      <trkpt lat="59.853129" lon="17.6842343">
        <ele>30.4188</ele>
        <time>2013-05-09T19:52:39Z</time>
      </trkpt>
      <trkpt lat="59.8531183" lon="17.6841799">
        <ele>30.4188</ele>
        <time>2013-05-09T19:52:40Z</time>
      </trkpt>
      <trkpt lat="59.8531047" lon="17.6841285">
        <ele>30.8995</ele>
        <time>2013-05-09T19:52:41Z</time>
      </trkpt>
      <trkpt lat="59.853098" lon="17.6840763">
        <ele>31.8607</ele>
        <time>2013-05-09T19:52:42Z</time>
      </trkpt>
      <trkpt lat="59.8530879" lon="17.6840288">
        <ele>32.8223</ele>
        <time>2013-05-09T19:52:43Z</time>
      </trkpt>
      <trkpt lat="59.8530757" lon="17.6839897">
        <ele>32.8223</ele>
        <time>2013-05-09T19:52:44Z</time>
      </trkpt>
      <trkpt lat="59.8530633" lon="17.6839566">
        <ele>33.3029</ele>
        <time>2013-05-09T19:52:45Z</time>
      </trkpt>
      <trkpt lat="59.8530503" lon="17.6839257">
        <ele>33.7834</ele>
        <time>2013-05-09T19:52:46Z</time>
      </trkpt>
      <trkpt lat="59.8530392" lon="17.6838935">
        <ele>34.2642</ele>
        <time>2013-05-09T19:52:47Z</time>
      </trkpt>
      <trkpt lat="59.8530302" lon="17.6838589">
        <ele>34.7449</ele>
        <time>2013-05-09T19:52:48Z</time>
      </trkpt>
      <trkpt lat="59.8530156" lon="17.6838216">
        <ele>35.2255</ele>
        <time>2013-05-09T19:52:49Z</time>
      </trkpt>
      <trkpt lat="59.8530014" lon="17.6837894">
        <ele>35.2255</ele>
        <time>2013-05-09T19:52:50Z</time>
      </trkpt>
      <trkpt lat="59.8529955" lon="17.6837626">
        <ele>35.2255</ele>
        <time>2013-05-09T19:52:51Z</time>
      </trkpt>
      <trkpt lat="59.8529919" lon="17.6837408">
        <ele>35.2255</ele>
        <time>2013-05-09T19:52:52Z</time>
      </trkpt>
      <trkpt lat="59.8529887" lon="17.6837205">
        <ele>35.2255</ele>
        <time>2013-05-09T19:52:53Z</time>
      </trkpt>
      <trkpt lat="59.8529866" lon="17.6837013">
        <ele>35.2255</ele>
        <time>2013-05-09T19:52:54Z</time>
      </trkpt>
      <trkpt lat="59.8529861" lon="17.6836766">
        <ele>35.2255</ele>
        <time>2013-05-09T19:52:55Z</time>
      </trkpt>
      <trkpt lat="59.8529845" lon="17.683645">
        <ele>35.2255</ele>
        <time>2013-05-09T19:52:56Z</time>
      </trkpt>
      <trkpt lat="59.8529819" lon="17.683605">
        <ele>35.7061</ele>
        <time>2013-05-09T19:52:57Z</time>
      </trkpt>
      <trkpt lat="59.8529833" lon="17.6835532">
        <ele>36.1868</ele>
        <time>2013-05-09T19:52:58Z</time>
      </trkpt>
      <trkpt lat="59.8529908" lon="17.6834926">
        <ele>37.1481</ele>
        <time>2013-05-09T19:52:59Z</time>
      </trkpt>
      <trkpt lat="59.8530085" lon="17.683432">
        <ele>37.1481</ele>
        <time>2013-05-09T19:53:00Z</time>
      </trkpt>
      <trkpt lat="59.8530281" lon="17.683388">
        <ele>37.6287</ele>
        <time>2013-05-09T19:53:01Z</time>
      </trkpt>
      <trkpt lat="59.8530515" lon="17.6833661">
        <ele>37.6287</ele>
        <time>2013-05-09T19:53:02Z</time>
      </trkpt>
      <trkpt lat="59.8530793" lon="17.6833471">
        <ele>36.6675</ele>
        <time>2013-05-09T19:53:03Z</time>
      </trkpt>
      <trkpt lat="59.8531081" lon="17.6833365">
        <ele>36.6675</ele>
        <time>2013-05-09T19:53:04Z</time>
      </trkpt>
      <trkpt lat="59.8531357" lon="17.6833177">
        <ele>34.7449</ele>
        <time>2013-05-09T19:53:05Z</time>
      </trkpt>
      <trkpt lat="59.853172" lon="17.6832973">
        <ele>34.7449</ele>
        <time>2013-05-09T19:53:06Z</time>
      </trkpt>
      <trkpt lat="59.8532146" lon="17.6832652">
        <ele>35.7061</ele>
        <time>2013-05-09T19:53:07Z</time>
      </trkpt>
      <trkpt lat="59.8532504" lon="17.6832268">
        <ele>36.6675</ele>
        <time>2013-05-09T19:53:08Z</time>
      </trkpt>
      <trkpt lat="59.8532808" lon="17.6831823">
        <ele>37.1481</ele>
        <time>2013-05-09T19:53:09Z</time>
      </trkpt>
      <trkpt lat="59.853303" lon="17.6831321">
        <ele>37.6287</ele>
        <time>2013-05-09T19:53:10Z</time>
      </trkpt>
      <trkpt lat="59.8533234" lon="17.6830776">
        <ele>37.6287</ele>
        <time>2013-05-09T19:53:11Z</time>
      </trkpt>
      <trkpt lat="59.853346" lon="17.6830148">
        <ele>37.6287</ele>
        <time>2013-05-09T19:53:12Z</time>
      </trkpt>
      <trkpt lat="59.8533716" lon="17.6829441">
        <ele>37.6287</ele>
        <time>2013-05-09T19:53:13Z</time>
      </trkpt>
      <trkpt lat="59.8533961" lon="17.6828679">
        <ele>38.1094</ele>
        <time>2013-05-09T19:53:14Z</time>
      </trkpt>
      <trkpt lat="59.8534179" lon="17.6827848">
        <ele>38.1094</ele>
        <time>2013-05-09T19:53:15Z</time>
      </trkpt>
      <trkpt lat="59.8534341" lon="17.6827037">
        <ele>38.1094</ele>
        <time>2013-05-09T19:53:16Z</time>
      </trkpt>
      <trkpt lat="59.8534481" lon="17.6826268">
        <ele>38.5901</ele>
        <time>2013-05-09T19:53:17Z</time>
      </trkpt>
      <trkpt lat="59.8534585" lon="17.6825447">
        <ele>38.1094</ele>
        <time>2013-05-09T19:53:18Z</time>
      </trkpt>
      <trkpt lat="59.8534653" lon="17.6824588">
        <ele>37.6287</ele>
        <time>2013-05-09T19:53:19Z</time>
      </trkpt>
      <trkpt lat="59.8534793" lon="17.6823726">
        <ele>38.1094</ele>
        <time>2013-05-09T19:53:20Z</time>
      </trkpt>
      <trkpt lat="59.85349" lon="17.6822855">
        <ele>38.1094</ele>
        <time>2013-05-09T19:53:21Z</time>
      </trkpt>
      <trkpt lat="59.8534948" lon="17.6821938">
        <ele>38.1094</ele>
        <time>2013-05-09T19:53:22Z</time>
      </trkpt>
      <trkpt lat="59.8534994" lon="17.6820964">
        <ele>37.1481</ele>
        <time>2013-05-09T19:53:23Z</time>
      </trkpt>
      <trkpt lat="59.8535093" lon="17.6820116">
        <ele>38.1094</ele>
        <time>2013-05-09T19:53:24Z</time>
      </trkpt>
      <trkpt lat="59.8535135" lon="17.6819226">
        <ele>38.1094</ele>
        <time>2013-05-09T19:53:25Z</time>
      </trkpt>
      <trkpt lat="59.8535132" lon="17.6818265">
        <ele>37.1481</ele>
        <time>2013-05-09T19:53:26Z</time>
      </trkpt>
      <trkpt lat="59.8535163" lon="17.6817382">
        <ele>36.6675</ele>
        <time>2013-05-09T19:53:27Z</time>
      </trkpt>
      <trkpt lat="59.85352" lon="17.6816494">
        <ele>36.1868</ele>
        <time>2013-05-09T19:53:28Z</time>
      </trkpt>
      <trkpt lat="59.8535258" lon="17.6815631">
        <ele>36.1868</ele>
        <time>2013-05-09T19:53:29Z</time>
      </trkpt>
      <trkpt lat="59.853529" lon="17.6814786">
        <ele>36.1868</ele>
        <time>2013-05-09T19:53:30Z</time>
      </trkpt>
      <trkpt lat="59.8535314" lon="17.6813958">
        <ele>36.1868</ele>
        <time>2013-05-09T19:53:31Z</time>
      </trkpt>
      <trkpt lat="59.8535372" lon="17.6813129">
        <ele>36.1868</ele>
        <time>2013-05-09T19:53:32Z</time>
      </trkpt>
      <trkpt lat="59.8535429" lon="17.6812233">
        <ele>36.1868</ele>
        <time>2013-05-09T19:53:33Z</time>
      </trkpt>
      <trkpt lat="59.8535434" lon="17.6811358">
        <ele>34.7449</ele>
        <time>2013-05-09T19:53:34Z</time>
      </trkpt>
      <trkpt lat="59.8535396" lon="17.681049">
        <ele>33.3029</ele>
        <time>2013-05-09T19:53:35Z</time>
      </trkpt>
      <trkpt lat="59.8535388" lon="17.6809595">
        <ele>32.3416</ele>
        <time>2013-05-09T19:53:36Z</time>
      </trkpt>
      <trkpt lat="59.8535321" lon="17.6808772">
        <ele>31.3801</ele>
        <time>2013-05-09T19:53:37Z</time>
      </trkpt>
      <trkpt lat="59.853529" lon="17.6807901">
        <ele>29.9381</ele>
        <time>2013-05-09T19:53:38Z</time>
      </trkpt>
      <trkpt lat="59.8535381" lon="17.6807121">
        <ele>31.8607</ele>
        <time>2013-05-09T19:53:39Z</time>
      </trkpt>
      <trkpt lat="59.85354" lon="17.6806216">
        <ele>29.9381</ele>
        <time>2013-05-09T19:53:40Z</time>
      </trkpt>
      <trkpt lat="59.8535427" lon="17.6805367">
        <ele>30.4188</ele>
        <time>2013-05-09T19:53:41Z</time>
      </trkpt>
      <trkpt lat="59.853544" lon="17.6804499">
        <ele>30.4188</ele>
        <time>2013-05-09T19:53:42Z</time>
      </trkpt>
      <trkpt lat="59.8535466" lon="17.6803653">
        <ele>31.3801</ele>
        <time>2013-05-09T19:53:43Z</time>
      </trkpt>
      <trkpt lat="59.8535451" lon="17.6802701">
        <ele>30.8995</ele>
        <time>2013-05-09T19:53:44Z</time>
      </trkpt>
      <trkpt lat="59.8535471" lon="17.6801774">
        <ele>30.4188</ele>
        <time>2013-05-09T19:53:45Z</time>
      </trkpt>
      <trkpt lat="59.8535477" lon="17.6800789">
        <ele>29.4575</ele>
        <time>2013-05-09T19:53:46Z</time>
      </trkpt>
      <trkpt lat="59.8535521" lon="17.6799861">
        <ele>29.4575</ele>
        <time>2013-05-09T19:53:47Z</time>
      </trkpt>
      <trkpt lat="59.853557" lon="17.6798894">
        <ele>29.4575</ele>
        <time>2013-05-09T19:53:48Z</time>
      </trkpt>
      <trkpt lat="59.8535619" lon="17.6797872">
        <ele>28.4962</ele>
        <time>2013-05-09T19:53:49Z</time>
      </trkpt>
      <trkpt lat="59.853565" lon="17.6796869">
        <ele>28.0155</ele>
        <time>2013-05-09T19:53:50Z</time>
      </trkpt>
      <trkpt lat="59.8535712" lon="17.67959">
        <ele>28.4962</ele>
        <time>2013-05-09T19:53:51Z</time>
      </trkpt>
      <trkpt lat="59.8535764" lon="17.6794905">
        <ele>28.0155</ele>
        <time>2013-05-09T19:53:52Z</time>
      </trkpt>
      <trkpt lat="59.8535823" lon="17.6793915">
        <ele>28.0155</ele>
        <time>2013-05-09T19:53:53Z</time>
      </trkpt>
      <trkpt lat="59.853589" lon="17.679292">
        <ele>28.0155</ele>
        <time>2013-05-09T19:53:54Z</time>
      </trkpt>
      <trkpt lat="59.8535997" lon="17.6791994">
        <ele>28.9769</ele>
        <time>2013-05-09T19:53:55Z</time>
      </trkpt>
      <trkpt lat="59.8536073" lon="17.6791019">
        <ele>28.9769</ele>
        <time>2013-05-09T19:53:56Z</time>
      </trkpt>
      <trkpt lat="59.8536098" lon="17.6789994">
        <ele>28.4962</ele>
        <time>2013-05-09T19:53:57Z</time>
      </trkpt>
      <trkpt lat="59.853612" lon="17.6788974">
        <ele>27.5349</ele>
        <time>2013-05-09T19:53:58Z</time>
      </trkpt>
      <trkpt lat="59.8536077" lon="17.6787905">
        <ele>24.651</ele>
        <time>2013-05-09T19:53:59Z</time>
      </trkpt>
      <trkpt lat="59.8536137" lon="17.6786969">
        <ele>25.6123</ele>
        <time>2013-05-09T19:54:00Z</time>
      </trkpt>
      <trkpt lat="59.8536155" lon="17.6786026">
        <ele>25.1317</ele>
        <time>2013-05-09T19:54:01Z</time>
      </trkpt>
      <trkpt lat="59.853617" lon="17.6785069">
        <ele>25.1317</ele>
        <time>2013-05-09T19:54:02Z</time>
      </trkpt>
      <trkpt lat="59.8536213" lon="17.678401">
        <ele>25.1317</ele>
        <time>2013-05-09T19:54:03Z</time>
      </trkpt>
      <trkpt lat="59.8536277" lon="17.6782918">
        <ele>25.1317</ele>
        <time>2013-05-09T19:54:04Z</time>
      </trkpt>
      <trkpt lat="59.8536378" lon="17.678188">
        <ele>26.0929</ele>
        <time>2013-05-09T19:54:05Z</time>
      </trkpt>
      <trkpt lat="59.8536491" lon="17.6780881">
        <ele>27.0543</ele>
        <time>2013-05-09T19:54:06Z</time>
      </trkpt>
      <trkpt lat="59.8536568" lon="17.6779837">
        <ele>26.5736</ele>
        <time>2013-05-09T19:54:07Z</time>
      </trkpt>
      <trkpt lat="59.8536627" lon="17.6778758">
        <ele>26.0929</ele>
        <time>2013-05-09T19:54:08Z</time>
      </trkpt>
      <trkpt lat="59.8536714" lon="17.6777752">
        <ele>26.5736</ele>
        <time>2013-05-09T19:54:09Z</time>
      </trkpt>
      <trkpt lat="59.853678" lon="17.6776743">
        <ele>25.6123</ele>
        <time>2013-05-09T19:54:10Z</time>
      </trkpt>
      <trkpt lat="59.8536848" lon="17.6775731">
        <ele>24.1703</ele>
        <time>2013-05-09T19:54:11Z</time>
      </trkpt>
      <trkpt lat="59.8536927" lon="17.6774792">
        <ele>24.651</ele>
        <time>2013-05-09T19:54:12Z</time>
      </trkpt>
      <trkpt lat="59.8536971" lon="17.6773867">
        <ele>25.1317</ele>
        <time>2013-05-09T19:54:13Z</time>
      </trkpt>
      <trkpt lat="59.8537011" lon="17.6772921">
        <ele>24.1703</ele>
        <time>2013-05-09T19:54:14Z</time>
      </trkpt>
      <trkpt lat="59.8537062" lon="17.6771936">
        <ele>23.209</ele>
        <time>2013-05-09T19:54:15Z</time>
      </trkpt>
      <trkpt lat="59.8537081" lon="17.6770952">
        <ele>21.767</ele>
        <time>2013-05-09T19:54:16Z</time>
      </trkpt>
      <trkpt lat="59.8537124" lon="17.6769958">
        <ele>20.325</ele>
        <time>2013-05-09T19:54:17Z</time>
      </trkpt>
      <trkpt lat="59.8537199" lon="17.6768952">
        <ele>19.8444</ele>
        <time>2013-05-09T19:54:18Z</time>
      </trkpt>
      <trkpt lat="59.8537301" lon="17.676801">
        <ele>20.325</ele>
        <time>2013-05-09T19:54:19Z</time>
      </trkpt>
      <trkpt lat="59.8537362" lon="17.6767051">
        <ele>20.325</ele>
        <time>2013-05-09T19:54:20Z</time>
      </trkpt>
      <trkpt lat="59.8537428" lon="17.6766089">
        <ele>19.8444</ele>
        <time>2013-05-09T19:54:21Z</time>
      </trkpt>
      <trkpt lat="59.8537491" lon="17.6765156">
        <ele>19.8444</ele>
        <time>2013-05-09T19:54:22Z</time>
      </trkpt>
      <trkpt lat="59.8537548" lon="17.6764169">
        <ele>20.325</ele>
        <time>2013-05-09T19:54:23Z</time>
      </trkpt>
      <trkpt lat="59.8537552" lon="17.6763089">
        <ele>18.8831</ele>
        <time>2013-05-09T19:54:24Z</time>
      </trkpt>
      <trkpt lat="59.8537613" lon="17.6762063">
        <ele>18.8831</ele>
        <time>2013-05-09T19:54:25Z</time>
      </trkpt>
      <trkpt lat="59.8537679" lon="17.6761026">
        <ele>18.4023</ele>
        <time>2013-05-09T19:54:26Z</time>
      </trkpt>
      <trkpt lat="59.853779" lon="17.676007">
        <ele>19.3638</ele>
        <time>2013-05-09T19:54:27Z</time>
      </trkpt>
      <trkpt lat="59.8537859" lon="17.6759117">
        <ele>18.8831</ele>
        <time>2013-05-09T19:54:28Z</time>
      </trkpt>
      <trkpt lat="59.853792" lon="17.6758199">
        <ele>19.8444</ele>
        <time>2013-05-09T19:54:29Z</time>
      </trkpt>
      <trkpt lat="59.8537976" lon="17.6757269">
        <ele>20.8057</ele>
        <time>2013-05-09T19:54:30Z</time>
      </trkpt>
      <trkpt lat="59.8538067" lon="17.6756355">
        <ele>21.767</ele>
        <time>2013-05-09T19:54:31Z</time>
      </trkpt>
      <trkpt lat="59.8538132" lon="17.6755413">
        <ele>21.767</ele>
        <time>2013-05-09T19:54:32Z</time>
      </trkpt>
      <trkpt lat="59.8538189" lon="17.6754477">
        <ele>21.767</ele>
        <time>2013-05-09T19:54:33Z</time>
      </trkpt>
      <trkpt lat="59.8538268" lon="17.6753563">
        <ele>22.7283</ele>
        <time>2013-05-09T19:54:34Z</time>
      </trkpt>
      <trkpt lat="59.8538339" lon="17.6752644">
        <ele>23.209</ele>
        <time>2013-05-09T19:54:35Z</time>
      </trkpt>
      <trkpt lat="59.8538418" lon="17.6751734">
        <ele>23.6896</ele>
        <time>2013-05-09T19:54:36Z</time>
      </trkpt>
      <trkpt lat="59.8538515" lon="17.6750841">
        <ele>23.6896</ele>
        <time>2013-05-09T19:54:37Z</time>
      </trkpt>
      <trkpt lat="59.853862" lon="17.6749997">
        <ele>24.651</ele>
        <time>2013-05-09T19:54:38Z</time>
      </trkpt>
      <trkpt lat="59.8538734" lon="17.6749107">
        <ele>25.6123</ele>
        <time>2013-05-09T19:54:39Z</time>
      </trkpt>
      <trkpt lat="59.8538846" lon="17.6748268">
        <ele>26.5736</ele>
        <time>2013-05-09T19:54:40Z</time>
      </trkpt>
      <trkpt lat="59.8538974" lon="17.6747471">
        <ele>27.5349</ele>
        <time>2013-05-09T19:54:41Z</time>
      </trkpt>
      <trkpt lat="59.8539081" lon="17.6746693">
        <ele>28.0155</ele>
        <time>2013-05-09T19:54:42Z</time>
      </trkpt>
      <trkpt lat="59.8539143" lon="17.6745937">
        <ele>27.5349</ele>
        <time>2013-05-09T19:54:43Z</time>
      </trkpt>
      <trkpt lat="59.8539188" lon="17.6745156">
        <ele>27.0543</ele>
        <time>2013-05-09T19:54:44Z</time>
      </trkpt>
      <trkpt lat="59.8539254" lon="17.6744402">
        <ele>26.5736</ele>
        <time>2013-05-09T19:54:45Z</time>
      </trkpt>
      <trkpt lat="59.8539314" lon="17.6743606">
        <ele>26.0929</ele>
        <time>2013-05-09T19:54:46Z</time>
      </trkpt>
      <trkpt lat="59.8539421" lon="17.674285">
        <ele>26.0929</ele>
        <time>2013-05-09T19:54:47Z</time>
      </trkpt>
      <trkpt lat="59.8539542" lon="17.6742089">
        <ele>25.6123</ele>
        <time>2013-05-09T19:54:48Z</time>
      </trkpt>
      <trkpt lat="59.8539672" lon="17.674131">
        <ele>25.6123</ele>
        <time>2013-05-09T19:54:49Z</time>
      </trkpt>
      <trkpt lat="59.8539799" lon="17.6740567">
        <ele>25.6123</ele>
        <time>2013-05-09T19:54:50Z</time>
      </trkpt>
      <trkpt lat="59.8539941" lon="17.673985">
        <ele>25.6123</ele>
        <time>2013-05-09T19:54:51Z</time>
      </trkpt>
      <trkpt lat="59.8540055" lon="17.6739098">
        <ele>25.6123</ele>
        <time>2013-05-09T19:54:52Z</time>
      </trkpt>
      <trkpt lat="59.8540154" lon="17.6738259">
        <ele>25.6123</ele>
        <time>2013-05-09T19:54:53Z</time>
      </trkpt>
      <trkpt lat="59.854024" lon="17.6737478">
        <ele>24.651</ele>
        <time>2013-05-09T19:54:54Z</time>
      </trkpt>
      <trkpt lat="59.8540344" lon="17.673671">
        <ele>24.1703</ele>
        <time>2013-05-09T19:54:55Z</time>
      </trkpt>
      <trkpt lat="59.8540462" lon="17.6735929">
        <ele>24.1703</ele>
        <time>2013-05-09T19:54:56Z</time>
      </trkpt>
      <trkpt lat="59.8540602" lon="17.6735178">
        <ele>24.651</ele>
        <time>2013-05-09T19:54:57Z</time>
      </trkpt>
      <trkpt lat="59.8540759" lon="17.6734447">
        <ele>24.651</ele>
        <time>2013-05-09T19:54:58Z</time>
      </trkpt>
      <trkpt lat="59.8540956" lon="17.6733718">
        <ele>25.1317</ele>
        <time>2013-05-09T19:54:59Z</time>
      </trkpt>
      <trkpt lat="59.8541179" lon="17.6732982">
        <ele>25.6123</ele>
        <time>2013-05-09T19:55:00Z</time>
      </trkpt>
      <trkpt lat="59.8541406" lon="17.6732208">
        <ele>26.0929</ele>
        <time>2013-05-09T19:55:01Z</time>
      </trkpt>
      <trkpt lat="59.8541616" lon="17.6731401">
        <ele>26.5736</ele>
        <time>2013-05-09T19:55:02Z</time>
      </trkpt>
      <trkpt lat="59.8541842" lon="17.6730567">
        <ele>27.0543</ele>
        <time>2013-05-09T19:55:03Z</time>
      </trkpt>
      <trkpt lat="59.8542081" lon="17.6729636">
        <ele>28.4962</ele>
        <time>2013-05-09T19:55:04Z</time>
      </trkpt>
      <trkpt lat="59.8542324" lon="17.6728748">
        <ele>29.9381</ele>
        <time>2013-05-09T19:55:05Z</time>
      </trkpt>
      <trkpt lat="59.8542569" lon="17.6727817">
        <ele>32.3416</ele>
        <time>2013-05-09T19:55:06Z</time>
      </trkpt>
      <trkpt lat="59.8542826" lon="17.672688">
        <ele>34.7449</ele>
        <time>2013-05-09T19:55:07Z</time>
      </trkpt>
      <trkpt lat="59.8543049" lon="17.6725964">
        <ele>34.7449</ele>
        <time>2013-05-09T19:55:08Z</time>
      </trkpt>
      <trkpt lat="59.8543278" lon="17.6725015">
        <ele>35.2255</ele>
        <time>2013-05-09T19:55:09Z</time>
      </trkpt>
      <trkpt lat="59.8543495" lon="17.6724053">
        <ele>35.7061</ele>
        <time>2013-05-09T19:55:10Z</time>
      </trkpt>
      <trkpt lat="59.8543696" lon="17.6723107">
        <ele>36.1868</ele>
        <time>2013-05-09T19:55:11Z</time>
      </trkpt>
      <trkpt lat="59.8543897" lon="17.6722159">
        <ele>36.6675</ele>
        <time>2013-05-09T19:55:12Z</time>
      </trkpt>
      <trkpt lat="59.8544111" lon="17.6721265">
        <ele>38.1094</ele>
        <time>2013-05-09T19:55:13Z</time>
      </trkpt>
      <trkpt lat="59.854432" lon="17.6720379">
        <ele>39.5513</ele>
        <time>2013-05-09T19:55:14Z</time>
      </trkpt>
      <trkpt lat="59.854454" lon="17.6719503">
        <ele>40.9934</ele>
        <time>2013-05-09T19:55:15Z</time>
      </trkpt>
      <trkpt lat="59.8544754" lon="17.6718655">
        <ele>41.9547</ele>
        <time>2013-05-09T19:55:16Z</time>
      </trkpt>
      <trkpt lat="59.8544929" lon="17.6717825">
        <ele>42.916</ele>
        <time>2013-05-09T19:55:17Z</time>
      </trkpt>
      <trkpt lat="59.8545111" lon="17.6717079">
        <ele>43.8773</ele>
        <time>2013-05-09T19:55:18Z</time>
      </trkpt>
      <trkpt lat="59.8545292" lon="17.6716398">
        <ele>44.358</ele>
        <time>2013-05-09T19:55:19Z</time>
      </trkpt>
      <trkpt lat="59.8545427" lon="17.671568">
        <ele>44.358</ele>
        <time>2013-05-09T19:55:20Z</time>
      </trkpt>
      <trkpt lat="59.8545584" lon="17.6715">
        <ele>44.8386</ele>
        <time>2013-05-09T19:55:21Z</time>
      </trkpt>
      <trkpt lat="59.8545717" lon="17.6714271">
        <ele>45.3192</ele>
        <time>2013-05-09T19:55:22Z</time>
      </trkpt>
      <trkpt lat="59.8545862" lon="17.6713494">
        <ele>45.3192</ele>
        <time>2013-05-09T19:55:23Z</time>
      </trkpt>
      <trkpt lat="59.8546064" lon="17.671266">
        <ele>46.7612</ele>
        <time>2013-05-09T19:55:24Z</time>
      </trkpt>
      <trkpt lat="59.8546313" lon="17.6711874">
        <ele>46.2806</ele>
        <time>2013-05-09T19:55:25Z</time>
      </trkpt>
      <trkpt lat="59.8546611" lon="17.6711159">
        <ele>47.2418</ele>
        <time>2013-05-09T19:55:26Z</time>
      </trkpt>
      <trkpt lat="59.8546889" lon="17.6710386">
        <ele>46.7612</ele>
        <time>2013-05-09T19:55:27Z</time>
      </trkpt>
      <trkpt lat="59.8547161" lon="17.6709537">
        <ele>45.3192</ele>
        <time>2013-05-09T19:55:28Z</time>
      </trkpt>
      <trkpt lat="59.8547426" lon="17.6708616">
        <ele>44.358</ele>
        <time>2013-05-09T19:55:29Z</time>
      </trkpt>
      <trkpt lat="59.8547694" lon="17.6707605">
        <ele>42.916</ele>
        <time>2013-05-09T19:55:30Z</time>
      </trkpt>
      <trkpt lat="59.8547966" lon="17.6706569">
        <ele>42.4354</ele>
        <time>2013-05-09T19:55:31Z</time>
      </trkpt>
      <trkpt lat="59.8548196" lon="17.6705526">
        <ele>41.9547</ele>
        <time>2013-05-09T19:55:32Z</time>
      </trkpt>
      <trkpt lat="59.8548432" lon="17.6704506">
        <ele>40.5128</ele>
        <time>2013-05-09T19:55:33Z</time>
      </trkpt>
      <trkpt lat="59.854871" lon="17.670345">
        <ele>39.0707</ele>
        <time>2013-05-09T19:55:34Z</time>
      </trkpt>
      <trkpt lat="59.8548981" lon="17.6702374">
        <ele>38.1094</ele>
        <time>2013-05-09T19:55:35Z</time>
      </trkpt>
      <trkpt lat="59.8549234" lon="17.6701265">
        <ele>36.1868</ele>
        <time>2013-05-09T19:55:36Z</time>
      </trkpt>
      <trkpt lat="59.8549473" lon="17.6700121">
        <ele>35.2255</ele>
        <time>2013-05-09T19:55:37Z</time>
      </trkpt>
      <trkpt lat="59.8549715" lon="17.6698998">
        <ele>34.2642</ele>
        <time>2013-05-09T19:55:38Z</time>
      </trkpt>
      <trkpt lat="59.8549918" lon="17.6697975">
        <ele>33.7834</ele>
        <time>2013-05-09T19:55:39Z</time>
      </trkpt>
      <trkpt lat="59.8550171" lon="17.6696948">
        <ele>33.7834</ele>
        <time>2013-05-09T19:55:40Z</time>
      </trkpt>
      <trkpt lat="59.8550467" lon="17.6695934">
        <ele>33.7834</ele>
        <time>2013-05-09T19:55:41Z</time>
      </trkpt>
      <trkpt lat="59.8550766" lon="17.6694935">
        <ele>33.3029</ele>
        <time>2013-05-09T19:55:42Z</time>
      </trkpt>
      <trkpt lat="59.8551063" lon="17.6693985">
        <ele>32.3416</ele>
        <time>2013-05-09T19:55:43Z</time>
      </trkpt>
      <trkpt lat="59.8551339" lon="17.6693049">
        <ele>31.3801</ele>
        <time>2013-05-09T19:55:44Z</time>
      </trkpt>
      <trkpt lat="59.8551611" lon="17.669207">
        <ele>30.8995</ele>
        <time>2013-05-09T19:55:45Z</time>
      </trkpt>
      <trkpt lat="59.855183" lon="17.6690988">
        <ele>30.4188</ele>
        <time>2013-05-09T19:55:46Z</time>
      </trkpt>
      <trkpt lat="59.8552061" lon="17.6689942">
        <ele>29.9381</ele>
        <time>2013-05-09T19:55:47Z</time>
      </trkpt>
      <trkpt lat="59.8552304" lon="17.6688936">
        <ele>29.9381</ele>
        <time>2013-05-09T19:55:48Z</time>
      </trkpt>
      <trkpt lat="59.8552525" lon="17.6687934">
        <ele>29.4575</ele>
        <time>2013-05-09T19:55:49Z</time>
      </trkpt>
      <trkpt lat="59.8552755" lon="17.6686936">
        <ele>29.4575</ele>
        <time>2013-05-09T19:55:50Z</time>
      </trkpt>
      <trkpt lat="59.855298" lon="17.6685961">
        <ele>29.4575</ele>
        <time>2013-05-09T19:55:51Z</time>
      </trkpt>
      <trkpt lat="59.8553206" lon="17.6684925">
        <ele>28.9769</ele>
        <time>2013-05-09T19:55:52Z</time>
      </trkpt>
      <trkpt lat="59.855342" lon="17.6684005">
        <ele>28.4962</ele>
        <time>2013-05-09T19:55:53Z</time>
      </trkpt>
      <trkpt lat="59.8553642" lon="17.668304">
        <ele>26.0929</ele>
        <time>2013-05-09T19:55:54Z</time>
      </trkpt>
      <trkpt lat="59.8553891" lon="17.6682113">
        <ele>25.6123</ele>
        <time>2013-05-09T19:55:55Z</time>
      </trkpt>
      <trkpt lat="59.8554131" lon="17.6681207">
        <ele>24.651</ele>
        <time>2013-05-09T19:55:56Z</time>
      </trkpt>
      <trkpt lat="59.8554373" lon="17.6680306">
        <ele>24.651</ele>
        <time>2013-05-09T19:55:57Z</time>
      </trkpt>
      <trkpt lat="59.855456" lon="17.6679398">
        <ele>23.6896</ele>
        <time>2013-05-09T19:55:58Z</time>
      </trkpt>
      <trkpt lat="59.8554694" lon="17.667863">
        <ele>21.767</ele>
        <time>2013-05-09T19:55:59Z</time>
      </trkpt>
      <trkpt lat="59.8554866" lon="17.6678055">
        <ele>21.2864</ele>
        <time>2013-05-09T19:56:00Z</time>
      </trkpt>
      <trkpt lat="59.8555062" lon="17.6677669">
        <ele>21.2864</ele>
        <time>2013-05-09T19:56:01Z</time>
      </trkpt>
      <trkpt lat="59.8555216" lon="17.6677331">
        <ele>21.2864</ele>
        <time>2013-05-09T19:56:02Z</time>
      </trkpt>
      <trkpt lat="59.8555364" lon="17.6676922">
        <ele>21.2864</ele>
        <time>2013-05-09T19:56:03Z</time>
      </trkpt>
      <trkpt lat="59.8555474" lon="17.667647">
        <ele>21.2864</ele>
        <time>2013-05-09T19:56:04Z</time>
      </trkpt>
      <trkpt lat="59.8555591" lon="17.6675803">
        <ele>20.8057</ele>
        <time>2013-05-09T19:56:05Z</time>
      </trkpt>
      <trkpt lat="59.8555704" lon="17.6675038">
        <ele>19.8444</ele>
        <time>2013-05-09T19:56:06Z</time>
      </trkpt>
      <trkpt lat="59.8555821" lon="17.6674271">
        <ele>19.3638</ele>
        <time>2013-05-09T19:56:07Z</time>
      </trkpt>
      <trkpt lat="59.8555941" lon="17.6673458">
        <ele>18.4023</ele>
        <time>2013-05-09T19:56:08Z</time>
      </trkpt>
      <trkpt lat="59.8556118" lon="17.667272">
        <ele>17.9218</ele>
        <time>2013-05-09T19:56:09Z</time>
      </trkpt>
      <trkpt lat="59.8556274" lon="17.6671989">
        <ele>16.9604</ele>
        <time>2013-05-09T19:56:10Z</time>
      </trkpt>
      <trkpt lat="59.8556493" lon="17.6671405">
        <ele>17.4412</ele>
        <time>2013-05-09T19:56:11Z</time>
      </trkpt>
      <trkpt lat="59.8556709" lon="17.6670816">
        <ele>17.4412</ele>
        <time>2013-05-09T19:56:12Z</time>
      </trkpt>
      <trkpt lat="59.8556883" lon="17.6670125">
        <ele>16.9604</ele>
        <time>2013-05-09T19:56:13Z</time>
      </trkpt>
      <trkpt lat="59.8557054" lon="17.6669431">
        <ele>17.4412</ele>
        <time>2013-05-09T19:56:14Z</time>
      </trkpt>
      <trkpt lat="59.8557205" lon="17.6668815">
        <ele>16.9604</ele>
        <time>2013-05-09T19:56:15Z</time>
      </trkpt>
      <trkpt lat="59.8557362" lon="17.6668244">
        <ele>16.9604</ele>
        <time>2013-05-09T19:56:16Z</time>
      </trkpt>
      <trkpt lat="59.8557471" lon="17.6667835">
        <ele>17.4412</ele>
        <time>2013-05-09T19:56:17Z</time>
      </trkpt>
      <trkpt lat="59.8557575" lon="17.6667567">
        <ele>18.4023</ele>
        <time>2013-05-09T19:56:18Z</time>
      </trkpt>
      <trkpt lat="59.8557661" lon="17.6667324">
        <ele>18.8831</ele>
        <time>2013-05-09T19:56:19Z</time>
      </trkpt>
      <trkpt lat="59.8557735" lon="17.6667017">
        <ele>17.4412</ele>
        <time>2013-05-09T19:56:20Z</time>
      </trkpt>
      <trkpt lat="59.8557873" lon="17.6666582">
        <ele>16.9604</ele>
        <time>2013-05-09T19:56:21Z</time>
      </trkpt>
      <trkpt lat="59.8558059" lon="17.6665998">
        <ele>16.9604</ele>
        <time>2013-05-09T19:56:22Z</time>
      </trkpt>
      <trkpt lat="59.8558258" lon="17.6665241">
        <ele>15.999</ele>
        <time>2013-05-09T19:56:23Z</time>
      </trkpt>
      <trkpt lat="59.8558444" lon="17.6664466">
        <ele>15.0377</ele>
        <time>2013-05-09T19:56:24Z</time>
      </trkpt>
      <trkpt lat="59.8558658" lon="17.6663641">
        <ele>14.557</ele>
        <time>2013-05-09T19:56:25Z</time>
      </trkpt>
      <trkpt lat="59.8558915" lon="17.6662697">
        <ele>14.557</ele>
        <time>2013-05-09T19:56:26Z</time>
      </trkpt>
      <trkpt lat="59.8559165" lon="17.6661793">
        <ele>13.5958</ele>
        <time>2013-05-09T19:56:27Z</time>
      </trkpt>
      <trkpt lat="59.8559337" lon="17.6660869">
        <ele>14.557</ele>
        <time>2013-05-09T19:56:28Z</time>
      </trkpt>
      <trkpt lat="59.8559559" lon="17.666">
        <ele>15.5184</ele>
        <time>2013-05-09T19:56:29Z</time>
      </trkpt>
      <trkpt lat="59.8559789" lon="17.6659087">
        <ele>15.5184</ele>
        <time>2013-05-09T19:56:30Z</time>
      </trkpt>
      <trkpt lat="59.8560007" lon="17.6658181">
        <ele>15.999</ele>
        <time>2013-05-09T19:56:31Z</time>
      </trkpt>
      <trkpt lat="59.8560232" lon="17.6657322">
        <ele>16.4797</ele>
        <time>2013-05-09T19:56:32Z</time>
      </trkpt>
      <trkpt lat="59.856058" lon="17.665647">
        <ele>16.9604</ele>
        <time>2013-05-09T19:56:33Z</time>
      </trkpt>
      <trkpt lat="59.8560953" lon="17.6655954">
        <ele>17.4412</ele>
        <time>2013-05-09T19:56:34Z</time>
      </trkpt>
      <trkpt lat="59.8561356" lon="17.6655488">
        <ele>17.4412</ele>
        <time>2013-05-09T19:56:35Z</time>
      </trkpt>
      <trkpt lat="59.8561708" lon="17.6654869">
        <ele>16.9604</ele>
        <time>2013-05-09T19:56:36Z</time>
      </trkpt>
      <trkpt lat="59.8562027" lon="17.6654175">
        <ele>16.4797</ele>
        <time>2013-05-09T19:56:37Z</time>
      </trkpt>
      <trkpt lat="59.856235" lon="17.6653484">
        <ele>16.4797</ele>
        <time>2013-05-09T19:56:38Z</time>
      </trkpt>
      <trkpt lat="59.8562692" lon="17.665287">
        <ele>16.4797</ele>
        <time>2013-05-09T19:56:39Z</time>
      </trkpt>
      <trkpt lat="59.8563059" lon="17.6652336">
        <ele>15.999</ele>
        <time>2013-05-09T19:56:40Z</time>
      </trkpt>
      <trkpt lat="59.8563376" lon="17.6651852">
        <ele>15.999</ele>
        <time>2013-05-09T19:56:41Z</time>
      </trkpt>
      <trkpt lat="59.8563745" lon="17.6651436">
        <ele>16.4797</ele>
        <time>2013-05-09T19:56:42Z</time>
      </trkpt>
      <trkpt lat="59.8564196" lon="17.6651188">
        <ele>16.9604</ele>
        <time>2013-05-09T19:56:43Z</time>
      </trkpt>
      <trkpt lat="59.8564744" lon="17.6651083">
        <ele>16.9604</ele>
        <time>2013-05-09T19:56:44Z</time>
      </trkpt>
      <trkpt lat="59.8565354" lon="17.665098">
        <ele>17.4412</ele>
        <time>2013-05-09T19:56:45Z</time>
      </trkpt>
      <trkpt lat="59.8565991" lon="17.6650849">
        <ele>17.9218</ele>
        <time>2013-05-09T19:56:46Z</time>
      </trkpt>
      <trkpt lat="59.8566602" lon="17.6650761">
        <ele>17.9218</ele>
        <time>2013-05-09T19:56:47Z</time>
      </trkpt>
      <trkpt lat="59.8567195" lon="17.6650701">
        <ele>17.9218</ele>
        <time>2013-05-09T19:56:48Z</time>
      </trkpt>
      <trkpt lat="59.856779" lon="17.665065">
        <ele>18.4023</ele>
        <time>2013-05-09T19:56:49Z</time>
      </trkpt>
      <trkpt lat="59.8568375" lon="17.6650588">
        <ele>18.4023</ele>
        <time>2013-05-09T19:56:50Z</time>
      </trkpt>
      <trkpt lat="59.856895" lon="17.6650534">
        <ele>18.4023</ele>
        <time>2013-05-09T19:56:51Z</time>
      </trkpt>
      <trkpt lat="59.856952" lon="17.6650515">
        <ele>18.8831</ele>
        <time>2013-05-09T19:56:52Z</time>
      </trkpt>
      <trkpt lat="59.857009" lon="17.66505">
        <ele>18.8831</ele>
        <time>2013-05-09T19:56:53Z</time>
      </trkpt>
      <trkpt lat="59.8570665" lon="17.6650458">
        <ele>18.8831</ele>
        <time>2013-05-09T19:56:54Z</time>
      </trkpt>
      <trkpt lat="59.8571227" lon="17.6650401">
        <ele>18.8831</ele>
        <time>2013-05-09T19:56:55Z</time>
      </trkpt>
      <trkpt lat="59.8571767" lon="17.6650339">
        <ele>19.3638</ele>
        <time>2013-05-09T19:56:56Z</time>
      </trkpt>
      <trkpt lat="59.8572292" lon="17.6650292">
        <ele>19.3638</ele>
        <time>2013-05-09T19:56:57Z</time>
      </trkpt>
      <trkpt lat="59.8572793" lon="17.6650255">
        <ele>19.8444</ele>
        <time>2013-05-09T19:56:58Z</time>
      </trkpt>
      <trkpt lat="59.8573271" lon="17.6650208">
        <ele>19.8444</ele>
        <time>2013-05-09T19:56:59Z</time>
      </trkpt>
      <trkpt lat="59.8573722" lon="17.6650111">
        <ele>19.8444</ele>
        <time>2013-05-09T19:57:00Z</time>
      </trkpt>
      <trkpt lat="59.8574107" lon="17.6650012">
        <ele>19.8444</ele>
        <time>2013-05-09T19:57:01Z</time>
      </trkpt>
      <trkpt lat="59.8574435" lon="17.6649941">
        <ele>19.8444</ele>
        <time>2013-05-09T19:57:02Z</time>
      </trkpt>
      <trkpt lat="59.8574719" lon="17.6649892">
        <ele>19.8444</ele>
        <time>2013-05-09T19:57:03Z</time>
      </trkpt>
      <trkpt lat="59.8574979" lon="17.6649884">
        <ele>19.8444</ele>
        <time>2013-05-09T19:57:04Z</time>
      </trkpt>
      <trkpt lat="59.8575219" lon="17.6649893">
        <ele>19.8444</ele>
        <time>2013-05-09T19:57:05Z</time>
      </trkpt>
      <trkpt lat="59.8575446" lon="17.6649872">
        <ele>19.8444</ele>
        <time>2013-05-09T19:57:06Z</time>
      </trkpt>
      <trkpt lat="59.8575689" lon="17.6649736">
        <ele>19.8444</ele>
        <time>2013-05-09T19:57:07Z</time>
      </trkpt>
      <trkpt lat="59.8575928" lon="17.6649366">
        <ele>19.8444</ele>
        <time>2013-05-09T19:57:08Z</time>
      </trkpt>
      <trkpt lat="59.8576123" lon="17.6648748">
        <ele>19.8444</ele>
        <time>2013-05-09T19:57:09Z</time>
      </trkpt>
      <trkpt lat="59.8576226" lon="17.6647964">
        <ele>19.3638</ele>
        <time>2013-05-09T19:57:10Z</time>
      </trkpt>
      <trkpt lat="59.8576254" lon="17.6647079">
        <ele>18.8831</ele>
        <time>2013-05-09T19:57:11Z</time>
      </trkpt>
      <trkpt lat="59.8576239" lon="17.6646116">
        <ele>18.4023</ele>
        <time>2013-05-09T19:57:12Z</time>
      </trkpt>
      <trkpt lat="59.8576201" lon="17.6645096">
        <ele>17.9218</ele>
        <time>2013-05-09T19:57:13Z</time>
      </trkpt>
      <trkpt lat="59.8576159" lon="17.6644017">
        <ele>17.9218</ele>
        <time>2013-05-09T19:57:14Z</time>
      </trkpt>
      <trkpt lat="59.8576108" lon="17.6642904">
        <ele>17.4412</ele>
        <time>2013-05-09T19:57:15Z</time>
      </trkpt>
      <trkpt lat="59.8576037" lon="17.6641793">
        <ele>16.9604</ele>
        <time>2013-05-09T19:57:16Z</time>
      </trkpt>
      <trkpt lat="59.8575969" lon="17.6640677">
        <ele>16.4797</ele>
        <time>2013-05-09T19:57:17Z</time>
      </trkpt>
      <trkpt lat="59.8575917" lon="17.6639549">
        <ele>15.999</ele>
        <time>2013-05-09T19:57:18Z</time>
      </trkpt>
      <trkpt lat="59.857586" lon="17.6638419">
        <ele>15.5184</ele>
        <time>2013-05-09T19:57:19Z</time>
      </trkpt>
      <trkpt lat="59.8575799" lon="17.66373">
        <ele>15.0377</ele>
        <time>2013-05-09T19:57:20Z</time>
      </trkpt>
      <trkpt lat="59.8575746" lon="17.6636175">
        <ele>14.557</ele>
        <time>2013-05-09T19:57:21Z</time>
      </trkpt>
      <trkpt lat="59.8575689" lon="17.6635026">
        <ele>14.0764</ele>
        <time>2013-05-09T19:57:22Z</time>
      </trkpt>
      <trkpt lat="59.8575632" lon="17.6633882">
        <ele>14.557</ele>
        <time>2013-05-09T19:57:23Z</time>
      </trkpt>
      <trkpt lat="59.8575571" lon="17.6632742">
        <ele>14.557</ele>
        <time>2013-05-09T19:57:24Z</time>
      </trkpt>
      <trkpt lat="59.8575497" lon="17.6631579">
        <ele>14.557</ele>
        <time>2013-05-09T19:57:25Z</time>
      </trkpt>
      <trkpt lat="59.857543" lon="17.6630398">
        <ele>14.0764</ele>
        <time>2013-05-09T19:57:26Z</time>
      </trkpt>
      <trkpt lat="59.8575366" lon="17.6629212">
        <ele>13.5958</ele>
        <time>2013-05-09T19:57:27Z</time>
      </trkpt>
      <trkpt lat="59.8575299" lon="17.6628028">
        <ele>13.1151</ele>
        <time>2013-05-09T19:57:28Z</time>
      </trkpt>
      <trkpt lat="59.8575234" lon="17.6626856">
        <ele>12.6344</ele>
        <time>2013-05-09T19:57:29Z</time>
      </trkpt>
      <trkpt lat="59.8575172" lon="17.6625677">
        <ele>12.1538</ele>
        <time>2013-05-09T19:57:30Z</time>
      </trkpt>
      <trkpt lat="59.8575108" lon="17.6624483">
        <ele>12.1538</ele>
        <time>2013-05-09T19:57:31Z</time>
      </trkpt>
      <trkpt lat="59.8575042" lon="17.6623293">
        <ele>11.6732</ele>
        <time>2013-05-09T19:57:32Z</time>
      </trkpt>
      <trkpt lat="59.8574975" lon="17.6622107">
        <ele>11.1925</ele>
        <time>2013-05-09T19:57:33Z</time>
      </trkpt>
      <trkpt lat="59.8574902" lon="17.6620911">
        <ele>11.1925</ele>
        <time>2013-05-09T19:57:34Z</time>
      </trkpt>
      <trkpt lat="59.857483" lon="17.6619715">
        <ele>11.1925</ele>
        <time>2013-05-09T19:57:35Z</time>
      </trkpt>
      <trkpt lat="59.8574765" lon="17.6618517">
        <ele>11.1925</ele>
        <time>2013-05-09T19:57:36Z</time>
      </trkpt>
      <trkpt lat="59.8574689" lon="17.6617301">
        <ele>11.6732</ele>
        <time>2013-05-09T19:57:37Z</time>
      </trkpt>
      <trkpt lat="59.8574612" lon="17.6616086">
        <ele>11.1925</ele>
        <time>2013-05-09T19:57:38Z</time>
      </trkpt>
      <trkpt lat="59.8574548" lon="17.6614876">
        <ele>11.1925</ele>
        <time>2013-05-09T19:57:39Z</time>
      </trkpt>
      <trkpt lat="59.8574499" lon="17.6613657">
        <ele>11.6732</ele>
        <time>2013-05-09T19:57:40Z</time>
      </trkpt>
      <trkpt lat="59.8574462" lon="17.6612435">
        <ele>11.6732</ele>
        <time>2013-05-09T19:57:41Z</time>
      </trkpt>
      <trkpt lat="59.8574446" lon="17.6611213">
        <ele>11.6732</ele>
        <time>2013-05-09T19:57:42Z</time>
      </trkpt>
      <trkpt lat="59.8574456" lon="17.6609976">
        <ele>11.6732</ele>
        <time>2013-05-09T19:57:43Z</time>
      </trkpt>
      <trkpt lat="59.8574491" lon="17.6608737">
        <ele>11.6732</ele>
        <time>2013-05-09T19:57:44Z</time>
      </trkpt>
      <trkpt lat="59.8574551" lon="17.6607525">
        <ele>11.6732</ele>
        <time>2013-05-09T19:57:45Z</time>
      </trkpt>
      <trkpt lat="59.8574641" lon="17.6606356">
        <ele>11.6732</ele>
        <time>2013-05-09T19:57:46Z</time>
      </trkpt>
      <trkpt lat="59.8574746" lon="17.6605189">
        <ele>12.1538</ele>
        <time>2013-05-09T19:57:47Z</time>
      </trkpt>
      <trkpt lat="59.857486" lon="17.6604002">
        <ele>12.1538</ele>
        <time>2013-05-09T19:57:48Z</time>
      </trkpt>
      <trkpt lat="59.8574995" lon="17.6602828">
        <ele>12.1538</ele>
        <time>2013-05-09T19:57:49Z</time>
      </trkpt>
      <trkpt lat="59.857515" lon="17.6601677">
        <ele>12.1538</ele>
        <time>2013-05-09T19:57:50Z</time>
      </trkpt>
      <trkpt lat="59.857532" lon="17.6600552">
        <ele>12.6344</ele>
        <time>2013-05-09T19:57:51Z</time>
      </trkpt>
      <trkpt lat="59.8575503" lon="17.6599423">
        <ele>12.6344</ele>
        <time>2013-05-09T19:57:52Z</time>
      </trkpt>
      <trkpt lat="59.85757" lon="17.6598299">
        <ele>13.1151</ele>
        <time>2013-05-09T19:57:53Z</time>
      </trkpt>
      <trkpt lat="59.8575907" lon="17.6597175">
        <ele>13.1151</ele>
        <time>2013-05-09T19:57:54Z</time>
      </trkpt>
      <trkpt lat="59.857613" lon="17.6596051">
        <ele>13.5958</ele>
        <time>2013-05-09T19:57:55Z</time>
      </trkpt>
      <trkpt lat="59.8576355" lon="17.6594913">
        <ele>13.5958</ele>
        <time>2013-05-09T19:57:56Z</time>
      </trkpt>
      <trkpt lat="59.857657" lon="17.6593772">
        <ele>13.5958</ele>
        <time>2013-05-09T19:57:57Z</time>
      </trkpt>
      <trkpt lat="59.8576804" lon="17.6592651">
        <ele>14.0764</ele>
        <time>2013-05-09T19:57:58Z</time>
      </trkpt>
      <trkpt lat="59.8577026" lon="17.6591527">
        <ele>14.557</ele>
        <time>2013-05-09T19:57:59Z</time>
      </trkpt>
      <trkpt lat="59.8577212" lon="17.6590339">
        <ele>14.557</ele>
        <time>2013-05-09T19:58:00Z</time>
      </trkpt>
      <trkpt lat="59.8577425" lon="17.6589178">
        <ele>15.0377</ele>
        <time>2013-05-09T19:58:01Z</time>
      </trkpt>
      <trkpt lat="59.8577632" lon="17.6588032">
        <ele>15.5184</ele>
        <time>2013-05-09T19:58:02Z</time>
      </trkpt>
      <trkpt lat="59.8577839" lon="17.6586907">
        <ele>16.4797</ele>
        <time>2013-05-09T19:58:03Z</time>
      </trkpt>
      <trkpt lat="59.8578009" lon="17.6585707">
        <ele>16.4797</ele>
        <time>2013-05-09T19:58:04Z</time>
      </trkpt>
      <trkpt lat="59.8578211" lon="17.6584526">
        <ele>16.9604</ele>
        <time>2013-05-09T19:58:05Z</time>
      </trkpt>
      <trkpt lat="59.8578414" lon="17.6583339">
        <ele>17.9218</ele>
        <time>2013-05-09T19:58:06Z</time>
      </trkpt>
      <trkpt lat="59.8578616" lon="17.6582157">
        <ele>18.8831</ele>
        <time>2013-05-09T19:58:07Z</time>
      </trkpt>
      <trkpt lat="59.8578797" lon="17.6580972">
        <ele>18.8831</ele>
        <time>2013-05-09T19:58:08Z</time>
      </trkpt>
      <trkpt lat="59.8578998" lon="17.6579769">
        <ele>20.325</ele>
        <time>2013-05-09T19:58:09Z</time>
      </trkpt>
      <trkpt lat="59.8578931" lon="17.6578096">
        <ele>20.8057</ele>
        <time>2013-05-09T19:58:10Z</time>
      </trkpt>
      <trkpt lat="59.8579086" lon="17.6577202">
        <ele>20.325</ele>
        <time>2013-05-09T19:58:11Z</time>
      </trkpt>
      <trkpt lat="59.8579461" lon="17.6575983">
        <ele>20.325</ele>
        <time>2013-05-09T19:58:12Z</time>
      </trkpt>
      <trkpt lat="59.857961" lon="17.6574723">
        <ele>19.8444</ele>
        <time>2013-05-09T19:58:13Z</time>
      </trkpt>
      <trkpt lat="59.8579629" lon="17.6573622">
        <ele>20.325</ele>
        <time>2013-05-09T19:58:14Z</time>
      </trkpt>
      <trkpt lat="59.8579553" lon="17.6572485">
        <ele>20.325</ele>
        <time>2013-05-09T19:58:15Z</time>
      </trkpt>
      <trkpt lat="59.8579605" lon="17.6571254">
        <ele>20.8057</ele>
        <time>2013-05-09T19:58:16Z</time>
      </trkpt>
      <trkpt lat="59.8579963" lon="17.6570367">
        <ele>19.8444</ele>
        <time>2013-05-09T19:58:17Z</time>
      </trkpt>
      <trkpt lat="59.8580178" lon="17.6569326">
        <ele>18.4023</ele>
        <time>2013-05-09T19:58:18Z</time>
      </trkpt>
      <trkpt lat="59.8580352" lon="17.6568424">
        <ele>17.9218</ele>
        <time>2013-05-09T19:58:19Z</time>
      </trkpt>
      <trkpt lat="59.8580439" lon="17.6567364">
        <ele>16.4797</ele>
        <time>2013-05-09T19:58:20Z</time>
      </trkpt>
      <trkpt lat="59.8580529" lon="17.6566286">
        <ele>15.5184</ele>
        <time>2013-05-09T19:58:21Z</time>
      </trkpt>
      <trkpt lat="59.8580671" lon="17.6565297">
        <ele>15.999</ele>
        <time>2013-05-09T19:58:22Z</time>
      </trkpt>
      <trkpt lat="59.8580906" lon="17.656444">
        <ele>16.4797</ele>
        <time>2013-05-09T19:58:23Z</time>
      </trkpt>
      <trkpt lat="59.8581169" lon="17.6563705">
        <ele>17.4412</ele>
        <time>2013-05-09T19:58:24Z</time>
      </trkpt>
      <trkpt lat="59.8581297" lon="17.6563059">
        <ele>16.4797</ele>
        <time>2013-05-09T19:58:25Z</time>
      </trkpt>
      <trkpt lat="59.8581461" lon="17.656249">
        <ele>16.4797</ele>
        <time>2013-05-09T19:58:26Z</time>
      </trkpt>
      <trkpt lat="59.8581615" lon="17.6561882">
        <ele>16.9604</ele>
        <time>2013-05-09T19:58:27Z</time>
      </trkpt>
      <trkpt lat="59.8581776" lon="17.6561237">
        <ele>16.9604</ele>
        <time>2013-05-09T19:58:28Z</time>
      </trkpt>
      <trkpt lat="59.8581925" lon="17.6560541">
        <ele>17.9218</ele>
        <time>2013-05-09T19:58:29Z</time>
      </trkpt>
      <trkpt lat="59.8582107" lon="17.6559796">
        <ele>19.8444</ele>
        <time>2013-05-09T19:58:30Z</time>
      </trkpt>
      <trkpt lat="59.8582279" lon="17.6558986">
        <ele>22.2476</ele>
        <time>2013-05-09T19:58:31Z</time>
      </trkpt>
      <trkpt lat="59.8582509" lon="17.6558129">
        <ele>22.2476</ele>
        <time>2013-05-09T19:58:32Z</time>
      </trkpt>
      <trkpt lat="59.8582795" lon="17.655722">
        <ele>23.209</ele>
        <time>2013-05-09T19:58:33Z</time>
      </trkpt>
      <trkpt lat="59.8583029" lon="17.6556307">
        <ele>23.209</ele>
        <time>2013-05-09T19:58:34Z</time>
      </trkpt>
      <trkpt lat="59.8583257" lon="17.6555346">
        <ele>22.7283</ele>
        <time>2013-05-09T19:58:35Z</time>
      </trkpt>
      <trkpt lat="59.8583489" lon="17.655435">
        <ele>22.2476</ele>
        <time>2013-05-09T19:58:36Z</time>
      </trkpt>
      <trkpt lat="59.8583703" lon="17.6553279">
        <ele>21.2864</ele>
        <time>2013-05-09T19:58:37Z</time>
      </trkpt>
      <trkpt lat="59.8583883" lon="17.6552195">
        <ele>20.325</ele>
        <time>2013-05-09T19:58:38Z</time>
      </trkpt>
      <trkpt lat="59.8584124" lon="17.655113">
        <ele>20.325</ele>
        <time>2013-05-09T19:58:39Z</time>
      </trkpt>
      <trkpt lat="59.858432" lon="17.6550082">
        <ele>19.3638</ele>
        <time>2013-05-09T19:58:40Z</time>
      </trkpt>
      <trkpt lat="59.8584541" lon="17.6549053">
        <ele>18.8831</ele>
        <time>2013-05-09T19:58:41Z</time>
      </trkpt>
      <trkpt lat="59.8584775" lon="17.6548016">
        <ele>17.9218</ele>
        <time>2013-05-09T19:58:42Z</time>
      </trkpt>
      <trkpt lat="59.8584977" lon="17.654697">
        <ele>17.4412</ele>
        <time>2013-05-09T19:58:43Z</time>
      </trkpt>
      <trkpt lat="59.8585199" lon="17.6545913">
        <ele>16.9604</ele>
        <time>2013-05-09T19:58:44Z</time>
      </trkpt>
      <trkpt lat="59.8585431" lon="17.6544877">
        <ele>16.9604</ele>
        <time>2013-05-09T19:58:45Z</time>
      </trkpt>
      <trkpt lat="59.8585636" lon="17.6543803">
        <ele>16.9604</ele>
        <time>2013-05-09T19:58:46Z</time>
      </trkpt>
      <trkpt lat="59.8585914" lon="17.6542767">
        <ele>16.9604</ele>
        <time>2013-05-09T19:58:47Z</time>
      </trkpt>
      <trkpt lat="59.8586163" lon="17.6541791">
        <ele>15.999</ele>
        <time>2013-05-09T19:58:48Z</time>
      </trkpt>
      <trkpt lat="59.8586448" lon="17.6540907">
        <ele>14.557</ele>
        <time>2013-05-09T19:58:49Z</time>
      </trkpt>
      <trkpt lat="59.8586786" lon="17.654011">
        <ele>14.0764</ele>
        <time>2013-05-09T19:58:50Z</time>
      </trkpt>
      <trkpt lat="59.8587142" lon="17.6539337">
        <ele>13.5958</ele>
        <time>2013-05-09T19:58:51Z</time>
      </trkpt>
      <trkpt lat="59.8587541" lon="17.6538531">
        <ele>13.5958</ele>
        <time>2013-05-09T19:58:52Z</time>
      </trkpt>
      <trkpt lat="59.8588065" lon="17.6537787">
        <ele>14.0764</ele>
        <time>2013-05-09T19:58:53Z</time>
      </trkpt>
      <trkpt lat="59.8588534" lon="17.653698">
        <ele>13.5958</ele>
        <time>2013-05-09T19:58:54Z</time>
      </trkpt>
      <trkpt lat="59.8589023" lon="17.6536105">
        <ele>14.0764</ele>
        <time>2013-05-09T19:58:55Z</time>
      </trkpt>
      <trkpt lat="59.8589494" lon="17.6535211">
        <ele>15.0377</ele>
        <time>2013-05-09T19:58:56Z</time>
      </trkpt>
      <trkpt lat="59.8589964" lon="17.6534351">
        <ele>15.999</ele>
        <time>2013-05-09T19:58:57Z</time>
      </trkpt>
      <trkpt lat="59.8590417" lon="17.6533511">
        <ele>16.9604</ele>
        <time>2013-05-09T19:58:58Z</time>
      </trkpt>
      <trkpt lat="59.8590861" lon="17.6532674">
        <ele>17.4412</ele>
        <time>2013-05-09T19:58:59Z</time>
      </trkpt>
      <trkpt lat="59.8591344" lon="17.6531854">
        <ele>18.8831</ele>
        <time>2013-05-09T19:59:00Z</time>
      </trkpt>
      <trkpt lat="59.8591856" lon="17.653102">
        <ele>20.8057</ele>
        <time>2013-05-09T19:59:01Z</time>
      </trkpt>
      <trkpt lat="59.859231" lon="17.6530233">
        <ele>21.2864</ele>
        <time>2013-05-09T19:59:02Z</time>
      </trkpt>
      <trkpt lat="59.8592738" lon="17.6529518">
        <ele>20.325</ele>
        <time>2013-05-09T19:59:03Z</time>
      </trkpt>
      <trkpt lat="59.8593187" lon="17.6528768">
        <ele>20.325</ele>
        <time>2013-05-09T19:59:04Z</time>
      </trkpt>
      <trkpt lat="59.8593669" lon="17.652797">
        <ele>22.2476</ele>
        <time>2013-05-09T19:59:05Z</time>
      </trkpt>
      <trkpt lat="59.8594136" lon="17.6527161">
        <ele>23.209</ele>
        <time>2013-05-09T19:59:06Z</time>
      </trkpt>
      <trkpt lat="59.8594684" lon="17.6525455">
        <ele>25.6123</ele>
        <time>2013-05-09T19:59:07Z</time>
      </trkpt>
      <trkpt lat="59.8595216" lon="17.6524105">
        <ele>28.0155</ele>
        <time>2013-05-09T19:59:08Z</time>
      </trkpt>
      <trkpt lat="59.8595586" lon="17.6523271">
        <ele>29.4575</ele>
        <time>2013-05-09T19:59:09Z</time>
      </trkpt>
      <trkpt lat="59.8596037" lon="17.6522566">
        <ele>29.9381</ele>
        <time>2013-05-09T19:59:10Z</time>
      </trkpt>
      <trkpt lat="59.8596368" lon="17.652236">
        <ele>29.9381</ele>
        <time>2013-05-09T19:59:11Z</time>
      </trkpt>
      <trkpt lat="59.8596778" lon="17.6521639">
        <ele>30.8995</ele>
        <time>2013-05-09T19:59:12Z</time>
      </trkpt>
      <trkpt lat="59.8597165" lon="17.6520784">
        <ele>31.3801</ele>
        <time>2013-05-09T19:59:13Z</time>
      </trkpt>
      <trkpt lat="59.8597563" lon="17.6519846">
        <ele>32.3416</ele>
        <time>2013-05-09T19:59:14Z</time>
      </trkpt>
      <trkpt lat="59.8597944" lon="17.6518903">
        <ele>33.3029</ele>
        <time>2013-05-09T19:59:15Z</time>
      </trkpt>
      <trkpt lat="59.8598412" lon="17.6518023">
        <ele>34.2642</ele>
        <time>2013-05-09T19:59:16Z</time>
      </trkpt>
      <trkpt lat="59.8598736" lon="17.6516942">
        <ele>36.1868</ele>
        <time>2013-05-09T19:59:17Z</time>
      </trkpt>
      <trkpt lat="59.8599108" lon="17.6515899">
        <ele>38.1094</ele>
        <time>2013-05-09T19:59:18Z</time>
      </trkpt>
      <trkpt lat="59.8599485" lon="17.6514895">
        <ele>39.0707</ele>
        <time>2013-05-09T19:59:19Z</time>
      </trkpt>
      <trkpt lat="59.8599923" lon="17.6513884">
        <ele>40.0321</ele>
        <time>2013-05-09T19:59:20Z</time>
      </trkpt>
      <trkpt lat="59.8600436" lon="17.6512926">
        <ele>43.3966</ele>
        <time>2013-05-09T19:59:21Z</time>
      </trkpt>
      <trkpt lat="59.8601035" lon="17.6512139">
        <ele>44.358</ele>
        <time>2013-05-09T19:59:22Z</time>
      </trkpt>
      <trkpt lat="59.8601641" lon="17.6511551">
        <ele>41.9547</ele>
        <time>2013-05-09T19:59:23Z</time>
      </trkpt>
      <trkpt lat="59.8602424" lon="17.6511388">
        <ele>41.474</ele>
        <time>2013-05-09T19:59:24Z</time>
      </trkpt>
      <trkpt lat="59.8602909" lon="17.6510726">
        <ele>40.0321</ele>
        <time>2013-05-09T19:59:25Z</time>
      </trkpt>
      <trkpt lat="59.860332" lon="17.6509854">
        <ele>39.5513</ele>
        <time>2013-05-09T19:59:26Z</time>
      </trkpt>
      <trkpt lat="59.8603723" lon="17.6508896">
        <ele>40.0321</ele>
        <time>2013-05-09T19:59:27Z</time>
      </trkpt>
      <trkpt lat="59.8604137" lon="17.6507973">
        <ele>40.0321</ele>
        <time>2013-05-09T19:59:28Z</time>
      </trkpt>
      <trkpt lat="59.8604602" lon="17.6507078">
        <ele>40.9934</ele>
        <time>2013-05-09T19:59:29Z</time>
      </trkpt>
      <trkpt lat="59.8605096" lon="17.6506237">
        <ele>41.9547</ele>
        <time>2013-05-09T19:59:30Z</time>
      </trkpt>
      <trkpt lat="59.8605589" lon="17.6505476">
        <ele>42.4354</ele>
        <time>2013-05-09T19:59:31Z</time>
      </trkpt>
      <trkpt lat="59.860607" lon="17.6504703">
        <ele>42.4354</ele>
        <time>2013-05-09T19:59:32Z</time>
      </trkpt>
      <trkpt lat="59.860648" lon="17.6503875">
        <ele>41.474</ele>
        <time>2013-05-09T19:59:33Z</time>
      </trkpt>
      <trkpt lat="59.8606915" lon="17.6502984">
        <ele>41.9547</ele>
        <time>2013-05-09T19:59:34Z</time>
      </trkpt>
      <trkpt lat="59.8607376" lon="17.6502155">
        <ele>41.474</ele>
        <time>2013-05-09T19:59:35Z</time>
      </trkpt>
      <trkpt lat="59.8607854" lon="17.650126">
        <ele>41.9547</ele>
        <time>2013-05-09T19:59:36Z</time>
      </trkpt>
      <trkpt lat="59.8608334" lon="17.6500389">
        <ele>41.474</ele>
        <time>2013-05-09T19:59:37Z</time>
      </trkpt>
      <trkpt lat="59.8608812" lon="17.6499484">
        <ele>41.474</ele>
        <time>2013-05-09T19:59:38Z</time>
      </trkpt>
      <trkpt lat="59.8609324" lon="17.6498671">
        <ele>40.5128</ele>
        <time>2013-05-09T19:59:39Z</time>
      </trkpt>
      <trkpt lat="59.860985" lon="17.6497899">
        <ele>40.0321</ele>
        <time>2013-05-09T19:59:40Z</time>
      </trkpt>
      <trkpt lat="59.8610371" lon="17.6497111">
        <ele>40.0321</ele>
        <time>2013-05-09T19:59:41Z</time>
      </trkpt>
      <trkpt lat="59.8610836" lon="17.6496313">
        <ele>39.5513</ele>
        <time>2013-05-09T19:59:42Z</time>
      </trkpt>
      <trkpt lat="59.8611318" lon="17.6495597">
        <ele>38.1094</ele>
        <time>2013-05-09T19:59:43Z</time>
      </trkpt>
      <trkpt lat="59.8611774" lon="17.6494817">
        <ele>37.1481</ele>
        <time>2013-05-09T19:59:44Z</time>
      </trkpt>
      <trkpt lat="59.8612193" lon="17.6493919">
        <ele>37.6287</ele>
        <time>2013-05-09T19:59:45Z</time>
      </trkpt>
      <trkpt lat="59.8612668" lon="17.6493079">
        <ele>37.6287</ele>
        <time>2013-05-09T19:59:46Z</time>
      </trkpt>
      <trkpt lat="59.8613146" lon="17.6492283">
        <ele>37.6287</ele>
        <time>2013-05-09T19:59:47Z</time>
      </trkpt>
      <trkpt lat="59.8613587" lon="17.6491434">
        <ele>37.6287</ele>
        <time>2013-05-09T19:59:48Z</time>
      </trkpt>
      <trkpt lat="59.8614025" lon="17.6490569">
        <ele>38.1094</ele>
        <time>2013-05-09T19:59:49Z</time>
      </trkpt>
      <trkpt lat="59.8614483" lon="17.6489756">
        <ele>37.6287</ele>
        <time>2013-05-09T19:59:50Z</time>
      </trkpt>
      <trkpt lat="59.8614862" lon="17.6488909">
        <ele>37.1481</ele>
        <time>2013-05-09T19:59:51Z</time>
      </trkpt>
      <trkpt lat="59.8615277" lon="17.6488093">
        <ele>36.1868</ele>
        <time>2013-05-09T19:59:52Z</time>
      </trkpt>
      <trkpt lat="59.8615712" lon="17.6487348">
        <ele>35.2255</ele>
        <time>2013-05-09T19:59:53Z</time>
      </trkpt>
      <trkpt lat="59.8616176" lon="17.6486586">
        <ele>33.7834</ele>
        <time>2013-05-09T19:59:54Z</time>
      </trkpt>
      <trkpt lat="59.8616633" lon="17.6485801">
        <ele>32.3416</ele>
        <time>2013-05-09T19:59:55Z</time>
      </trkpt>
      <trkpt lat="59.861709" lon="17.6485014">
        <ele>30.8995</ele>
        <time>2013-05-09T19:59:56Z</time>
      </trkpt>
      <trkpt lat="59.8617535" lon="17.6484198">
        <ele>30.4188</ele>
        <time>2013-05-09T19:59:57Z</time>
      </trkpt>
      <trkpt lat="59.8617988" lon="17.6483442">
        <ele>30.4188</ele>
        <time>2013-05-09T19:59:58Z</time>
      </trkpt>
      <trkpt lat="59.8618387" lon="17.6482611">
        <ele>30.8995</ele>
        <time>2013-05-09T19:59:59Z</time>
      </trkpt>
      <trkpt lat="59.8618754" lon="17.648175">
        <ele>30.8995</ele>
        <time>2013-05-09T20:00:00Z</time>
      </trkpt>
      <trkpt lat="59.8619123" lon="17.6480871">
        <ele>30.8995</ele>
        <time>2013-05-09T20:00:01Z</time>
      </trkpt>
      <trkpt lat="59.8619518" lon="17.6480068">
        <ele>30.8995</ele>
        <time>2013-05-09T20:00:02Z</time>
      </trkpt>
      <trkpt lat="59.8619901" lon="17.6479298">
        <ele>30.4188</ele>
        <time>2013-05-09T20:00:03Z</time>
      </trkpt>
      <trkpt lat="59.8620304" lon="17.6478673">
        <ele>31.3801</ele>
        <time>2013-05-09T20:00:04Z</time>
      </trkpt>
      <trkpt lat="59.8620615" lon="17.6478093">
        <ele>30.4188</ele>
        <time>2013-05-09T20:00:05Z</time>
      </trkpt>
      <trkpt lat="59.8620922" lon="17.6477645">
        <ele>30.4188</ele>
        <time>2013-05-09T20:00:06Z</time>
      </trkpt>
      <trkpt lat="59.8621182" lon="17.6477251">
        <ele>30.4188</ele>
        <time>2013-05-09T20:00:07Z</time>
      </trkpt>
      <trkpt lat="59.8621373" lon="17.6476981">
        <ele>30.4188</ele>
        <time>2013-05-09T20:00:08Z</time>
      </trkpt>
      <trkpt lat="59.8621523" lon="17.6476805">
        <ele>29.9381</ele>
        <time>2013-05-09T20:00:09Z</time>
      </trkpt>
      <trkpt lat="59.8621661" lon="17.6476659">
        <ele>29.9381</ele>
        <time>2013-05-09T20:00:10Z</time>
      </trkpt>
      <trkpt lat="59.8621775" lon="17.6476535">
        <ele>29.9381</ele>
        <time>2013-05-09T20:00:11Z</time>
      </trkpt>
      <trkpt lat="59.8621859" lon="17.6476428">
        <ele>29.4575</ele>
        <time>2013-05-09T20:00:12Z</time>
      </trkpt>
      <trkpt lat="59.8621951" lon="17.6476221">
        <ele>31.3801</ele>
        <time>2013-05-09T20:00:13Z</time>
      </trkpt>
      <trkpt lat="59.862201" lon="17.6476057">
        <ele>31.8607</ele>
        <time>2013-05-09T20:00:14Z</time>
      </trkpt>
      <trkpt lat="59.8622071" lon="17.6476005">
        <ele>32.3416</ele>
        <time>2013-05-09T20:00:15Z</time>
      </trkpt>
      <trkpt lat="59.8622087" lon="17.6475945">
        <ele>32.3416</ele>
        <time>2013-05-09T20:00:16Z</time>
      </trkpt>
      <trkpt lat="59.8622087" lon="17.6475899">
        <ele>31.8607</ele>
        <time>2013-05-09T20:00:17Z</time>
      </trkpt>
      <trkpt lat="59.8622138" lon="17.6475814">
        <ele>31.8607</ele>
        <time>2013-05-09T20:00:18Z</time>
      </trkpt>
      <trkpt lat="59.8622227" lon="17.6475645">
        <ele>32.8223</ele>
        <time>2013-05-09T20:00:19Z</time>
      </trkpt>
      <trkpt lat="59.8622282" lon="17.6475553">
        <ele>32.3416</ele>
        <time>2013-05-09T20:00:20Z</time>
      </trkpt>
      <trkpt lat="59.8622326" lon="17.6475417">
        <ele>32.8223</ele>
        <time>2013-05-09T20:00:21Z</time>
      </trkpt>
      <trkpt lat="59.8622397" lon="17.6475251">
        <ele>33.3029</ele>
        <time>2013-05-09T20:00:22Z</time>
      </trkpt>
      <trkpt lat="59.8622466" lon="17.6475105">
        <ele>34.2642</ele>
        <time>2013-05-09T20:00:23Z</time>
      </trkpt>
      <trkpt lat="59.8622513" lon="17.6474973">
        <ele>34.7449</ele>
        <time>2013-05-09T20:00:24Z</time>
      </trkpt>
      <trkpt lat="59.8622529" lon="17.6474894">
        <ele>34.7449</ele>
        <time>2013-05-09T20:00:25Z</time>
      </trkpt>
      <trkpt lat="59.8622448" lon="17.6474723">
        <ele>35.2255</ele>
        <time>2013-05-09T20:00:26Z</time>
      </trkpt>
      <trkpt lat="59.8622438" lon="17.6474676">
        <ele>35.2255</ele>
        <time>2013-05-09T20:00:27Z</time>
      </trkpt>
      <trkpt lat="59.8622428" lon="17.6474624">
        <ele>35.2255</ele>
        <time>2013-05-09T20:00:28Z</time>
      </trkpt>
      <trkpt lat="59.8622417" lon="17.6474571">
        <ele>35.7061</ele>
        <time>2013-05-09T20:00:29Z</time>
      </trkpt>
      <trkpt lat="59.8622403" lon="17.6474515">
        <ele>36.1868</ele>
        <time>2013-05-09T20:00:30Z</time>
      </trkpt>
      <trkpt lat="59.8622393" lon="17.6474464">
        <ele>36.1868</ele>
        <time>2013-05-09T20:00:31Z</time>
      </trkpt>
      <trkpt lat="59.8622383" lon="17.6474411">
        <ele>36.6675</ele>
        <time>2013-05-09T20:00:32Z</time>
      </trkpt>
      <trkpt lat="59.8622367" lon="17.6474345">
        <ele>37.1481</ele>
        <time>2013-05-09T20:00:33Z</time>
      </trkpt>
      <trkpt lat="59.862236" lon="17.6474292">
        <ele>38.1094</ele>
        <time>2013-05-09T20:00:34Z</time>
      </trkpt>
      <trkpt lat="59.862237" lon="17.6474272">
        <ele>38.5901</ele>
        <time>2013-05-09T20:00:35Z</time>
      </trkpt>
      <trkpt lat="59.8622383" lon="17.6474266">
        <ele>38.5901</ele>
        <time>2013-05-09T20:00:36Z</time>
      </trkpt>
      <trkpt lat="59.8622399" lon="17.6474267">
        <ele>39.5513</ele>
        <time>2013-05-09T20:00:37Z</time>
      </trkpt>
      <trkpt lat="59.8622427" lon="17.6474262">
        <ele>40.5128</ele>
        <time>2013-05-09T20:00:38Z</time>
      </trkpt>
      <trkpt lat="59.8622469" lon="17.6474262">
        <ele>42.4354</ele>
        <time>2013-05-09T20:00:39Z</time>
      </trkpt>
      <trkpt lat="59.8622512" lon="17.6474244">
        <ele>44.8386</ele>
        <time>2013-05-09T20:00:40Z</time>
      </trkpt>
      <trkpt lat="59.8622549" lon="17.647422">
        <ele>46.7612</ele>
        <time>2013-05-09T20:00:41Z</time>
      </trkpt>
      <trkpt lat="59.8622578" lon="17.6474184">
        <ele>48.684</ele>
        <time>2013-05-09T20:00:42Z</time>
      </trkpt>
      <trkpt lat="59.862258" lon="17.6474116">
        <ele>49.6453</ele>
        <time>2013-05-09T20:00:43Z</time>
      </trkpt>
      <trkpt lat="59.8622573" lon="17.6474039">
        <ele>50.6066</ele>
        <time>2013-05-09T20:00:44Z</time>
      </trkpt>
      <trkpt lat="59.8622528" lon="17.6473871">
        <ele>52.0486</ele>
        <time>2013-05-09T20:00:45Z</time>
      </trkpt>
      <trkpt lat="59.8622471" lon="17.6473717">
        <ele>53.0098</ele>
        <time>2013-05-09T20:00:46Z</time>
      </trkpt>
      <trkpt lat="59.8622413" lon="17.647355">
        <ele>53.9712</ele>
        <time>2013-05-09T20:00:47Z</time>
      </trkpt>
      <trkpt lat="59.8622367" lon="17.6473412">
        <ele>54.9324</ele>
        <time>2013-05-09T20:00:48Z</time>
      </trkpt>
      <trkpt lat="59.8622357" lon="17.6473355">
        <ele>55.4131</ele>
        <time>2013-05-09T20:00:49Z</time>
      </trkpt>
      <trkpt lat="59.8622339" lon="17.6473324">
        <ele>54.9324</ele>
        <time>2013-05-09T20:00:50Z</time>
      </trkpt>
      <trkpt lat="59.8622329" lon="17.6473286">
        <ele>54.9324</ele>
        <time>2013-05-09T20:00:51Z</time>
      </trkpt>
      <trkpt lat="59.862233" lon="17.6473213">
        <ele>55.4131</ele>
        <time>2013-05-09T20:00:52Z</time>
      </trkpt>
      <trkpt lat="59.8622325" lon="17.6473165">
        <ele>55.4131</ele>
        <time>2013-05-09T20:00:53Z</time>
      </trkpt>
      <trkpt lat="59.8622341" lon="17.6473089">
        <ele>55.4131</ele>
        <time>2013-05-09T20:00:54Z</time>
      </trkpt>
      <trkpt lat="59.8622445" lon="17.6472775">
        <ele>56.8551</ele>
        <time>2013-05-09T20:00:55Z</time>
      </trkpt>
      <trkpt lat="59.86226" lon="17.6472277">
        <ele>58.2971</ele>
        <time>2013-05-09T20:00:56Z</time>
      </trkpt>
      <trkpt lat="59.8622828" lon="17.6472034">
        <ele>57.3358</ele>
        <time>2013-05-09T20:00:57Z</time>
      </trkpt>
      <trkpt lat="59.8623144" lon="17.6471671">
        <ele>55.8938</ele>
        <time>2013-05-09T20:00:58Z</time>
      </trkpt>
      <trkpt lat="59.8623662" lon="17.6471034">
        <ele>57.3358</ele>
        <time>2013-05-09T20:00:59Z</time>
      </trkpt>
      <trkpt lat="59.8624232" lon="17.6470352">
        <ele>57.8165</ele>
        <time>2013-05-09T20:01:00Z</time>
      </trkpt>
      <trkpt lat="59.8624791" lon="17.6469567">
        <ele>56.3745</ele>
        <time>2013-05-09T20:01:01Z</time>
      </trkpt>
      <trkpt lat="59.8625536" lon="17.6469584">
        <ele>54.4518</ele>
        <time>2013-05-09T20:01:02Z</time>
      </trkpt>
      <trkpt lat="59.862594" lon="17.6468658">
        <ele>52.0486</ele>
        <time>2013-05-09T20:01:03Z</time>
      </trkpt>
      <trkpt lat="59.8626755" lon="17.6467709">
        <ele>49.6453</ele>
        <time>2013-05-09T20:01:04Z</time>
      </trkpt>
      <trkpt lat="59.8627583" lon="17.6466769">
        <ele>47.7225</ele>
        <time>2013-05-09T20:01:05Z</time>
      </trkpt>
      <trkpt lat="59.8628298" lon="17.646573">
        <ele>45.7999</ele>
        <time>2013-05-09T20:01:06Z</time>
      </trkpt>
      <trkpt lat="59.8628765" lon="17.646448">
        <ele>44.8386</ele>
        <time>2013-05-09T20:01:07Z</time>
      </trkpt>
      <trkpt lat="59.8629097" lon="17.6462757">
        <ele>43.8773</ele>
        <time>2013-05-09T20:01:08Z</time>
      </trkpt>
      <trkpt lat="59.8629516" lon="17.6461099">
        <ele>44.358</ele>
        <time>2013-05-09T20:01:09Z</time>
      </trkpt>
      <trkpt lat="59.8630014" lon="17.6460043">
        <ele>43.8773</ele>
        <time>2013-05-09T20:01:10Z</time>
      </trkpt>
      <trkpt lat="59.8630386" lon="17.6458922">
        <ele>43.8773</ele>
        <time>2013-05-09T20:01:11Z</time>
      </trkpt>
      <trkpt lat="59.8630624" lon="17.6458525">
        <ele>42.916</ele>
        <time>2013-05-09T20:01:12Z</time>
      </trkpt>
      <trkpt lat="59.8630884" lon="17.6457986">
        <ele>40.9934</ele>
        <time>2013-05-09T20:01:13Z</time>
      </trkpt>
      <trkpt lat="59.8631205" lon="17.6457367">
        <ele>40.0321</ele>
        <time>2013-05-09T20:01:14Z</time>
      </trkpt>
      <trkpt lat="59.863133" lon="17.6456958">
        <ele>38.1094</ele>
        <time>2013-05-09T20:01:15Z</time>
      </trkpt>
      <trkpt lat="59.8631469" lon="17.6456467">
        <ele>38.5901</ele>
        <time>2013-05-09T20:01:16Z</time>
      </trkpt>
      <trkpt lat="59.8631717" lon="17.6456214">
        <ele>37.6287</ele>
        <time>2013-05-09T20:01:17Z</time>
      </trkpt>
      <trkpt lat="59.8631917" lon="17.6456017">
        <ele>36.6675</ele>
        <time>2013-05-09T20:01:18Z</time>
      </trkpt>
      <trkpt lat="59.8632044" lon="17.6455908">
        <ele>35.2255</ele>
        <time>2013-05-09T20:01:19Z</time>
      </trkpt>
      <trkpt lat="59.8632203" lon="17.6455827">
        <ele>33.3029</ele>
        <time>2013-05-09T20:01:20Z</time>
      </trkpt>
      <trkpt lat="59.8632383" lon="17.6455874">
        <ele>31.8607</ele>
        <time>2013-05-09T20:01:21Z</time>
      </trkpt>
      <trkpt lat="59.8632549" lon="17.645594">
        <ele>30.8995</ele>
        <time>2013-05-09T20:01:22Z</time>
      </trkpt>
      <trkpt lat="59.863281" lon="17.6455907">
        <ele>32.3416</ele>
        <time>2013-05-09T20:01:23Z</time>
      </trkpt>
      <trkpt lat="59.8633031" lon="17.6455867">
        <ele>34.2642</ele>
        <time>2013-05-09T20:01:24Z</time>
      </trkpt>
      <trkpt lat="59.8633164" lon="17.6455842">
        <ele>34.7449</ele>
        <time>2013-05-09T20:01:25Z</time>
      </trkpt>
      <trkpt lat="59.8633245" lon="17.6455855">
        <ele>33.7834</ele>
        <time>2013-05-09T20:01:26Z</time>
      </trkpt>
      <trkpt lat="59.8633327" lon="17.6455913">
        <ele>33.3029</ele>
        <time>2013-05-09T20:01:27Z</time>
      </trkpt>
      <trkpt lat="59.8633427" lon="17.6455889">
        <ele>32.8223</ele>
        <time>2013-05-09T20:01:28Z</time>
      </trkpt>
      <trkpt lat="59.8633578" lon="17.6455649">
        <ele>32.8223</ele>
        <time>2013-05-09T20:01:29Z</time>
      </trkpt>
      <trkpt lat="59.8633785" lon="17.6455202">
        <ele>31.8607</ele>
        <time>2013-05-09T20:01:30Z</time>
      </trkpt>
      <trkpt lat="59.8634079" lon="17.645462">
        <ele>31.8607</ele>
        <time>2013-05-09T20:01:31Z</time>
      </trkpt>
      <trkpt lat="59.8634363" lon="17.6453952">
        <ele>31.3801</ele>
        <time>2013-05-09T20:01:32Z</time>
      </trkpt>
      <trkpt lat="59.8634695" lon="17.6453252">
        <ele>30.4188</ele>
        <time>2013-05-09T20:01:33Z</time>
      </trkpt>
      <trkpt lat="59.8635059" lon="17.6452443">
        <ele>29.4575</ele>
        <time>2013-05-09T20:01:34Z</time>
      </trkpt>
      <trkpt lat="59.8635445" lon="17.6451547">
        <ele>27.5349</ele>
        <time>2013-05-09T20:01:35Z</time>
      </trkpt>
      <trkpt lat="59.8635919" lon="17.6450599">
        <ele>27.0543</ele>
        <time>2013-05-09T20:01:36Z</time>
      </trkpt>
      <trkpt lat="59.8636406" lon="17.6449634">
        <ele>26.0929</ele>
        <time>2013-05-09T20:01:37Z</time>
      </trkpt>
      <trkpt lat="59.8636928" lon="17.6448641">
        <ele>26.5736</ele>
        <time>2013-05-09T20:01:38Z</time>
      </trkpt>
      <trkpt lat="59.8637449" lon="17.6447634">
        <ele>25.6123</ele>
        <time>2013-05-09T20:01:39Z</time>
      </trkpt>
      <trkpt lat="59.8637993" lon="17.6446601">
        <ele>24.651</ele>
        <time>2013-05-09T20:01:40Z</time>
      </trkpt>
      <trkpt lat="59.863855" lon="17.6445559">
        <ele>24.1703</ele>
        <time>2013-05-09T20:01:41Z</time>
      </trkpt>
      <trkpt lat="59.86391" lon="17.6444528">
        <ele>23.209</ele>
        <time>2013-05-09T20:01:42Z</time>
      </trkpt>
      <trkpt lat="59.8639648" lon="17.6443518">
        <ele>22.2476</ele>
        <time>2013-05-09T20:01:43Z</time>
      </trkpt>
      <trkpt lat="59.8640273" lon="17.6442456">
        <ele>22.2476</ele>
        <time>2013-05-09T20:01:44Z</time>
      </trkpt>
      <trkpt lat="59.8640813" lon="17.6441575">
        <ele>21.767</ele>
        <time>2013-05-09T20:01:45Z</time>
      </trkpt>
      <trkpt lat="59.8641222" lon="17.6440556">
        <ele>21.767</ele>
        <time>2013-05-09T20:01:46Z</time>
      </trkpt>
      <trkpt lat="59.8641579" lon="17.6439601">
        <ele>21.767</ele>
        <time>2013-05-09T20:01:47Z</time>
      </trkpt>
      <trkpt lat="59.86419" lon="17.6438555">
        <ele>21.767</ele>
        <time>2013-05-09T20:01:48Z</time>
      </trkpt>
      <trkpt lat="59.8642237" lon="17.6437686">
        <ele>20.8057</ele>
        <time>2013-05-09T20:01:49Z</time>
      </trkpt>
      <trkpt lat="59.8642568" lon="17.6436846">
        <ele>20.325</ele>
        <time>2013-05-09T20:01:50Z</time>
      </trkpt>
      <trkpt lat="59.8643023" lon="17.6436057">
        <ele>21.767</ele>
        <time>2013-05-09T20:01:51Z</time>
      </trkpt>
      <trkpt lat="59.8643414" lon="17.6435329">
        <ele>23.6896</ele>
        <time>2013-05-09T20:01:52Z</time>
      </trkpt>
      <trkpt lat="59.8643923" lon="17.6434562">
        <ele>23.6896</ele>
        <time>2013-05-09T20:01:53Z</time>
      </trkpt>
      <trkpt lat="59.8644554" lon="17.6433751">
        <ele>23.6896</ele>
        <time>2013-05-09T20:01:54Z</time>
      </trkpt>
      <trkpt lat="59.8645149" lon="17.6432914">
        <ele>22.2476</ele>
        <time>2013-05-09T20:01:55Z</time>
      </trkpt>
      <trkpt lat="59.8645724" lon="17.6432018">
        <ele>21.2864</ele>
        <time>2013-05-09T20:01:56Z</time>
      </trkpt>
      <trkpt lat="59.864632" lon="17.6431034">
        <ele>21.2864</ele>
        <time>2013-05-09T20:01:57Z</time>
      </trkpt>
      <trkpt lat="59.8646735" lon="17.6429963">
        <ele>20.8057</ele>
        <time>2013-05-09T20:01:58Z</time>
      </trkpt>
      <trkpt lat="59.8647491" lon="17.6428747">
        <ele>22.2476</ele>
        <time>2013-05-09T20:01:59Z</time>
      </trkpt>
      <trkpt lat="59.8648339" lon="17.6427589">
        <ele>24.1703</ele>
        <time>2013-05-09T20:02:00Z</time>
      </trkpt>
      <trkpt lat="59.8649108" lon="17.6426496">
        <ele>25.1317</ele>
        <time>2013-05-09T20:02:01Z</time>
      </trkpt>
      <trkpt lat="59.8649708" lon="17.6425425">
        <ele>24.651</ele>
        <time>2013-05-09T20:02:02Z</time>
      </trkpt>
      <trkpt lat="59.8650296" lon="17.6424246">
        <ele>23.6896</ele>
        <time>2013-05-09T20:02:03Z</time>
      </trkpt>
      <trkpt lat="59.8651033" lon="17.6423008">
        <ele>24.1703</ele>
        <time>2013-05-09T20:02:04Z</time>
      </trkpt>
      <trkpt lat="59.8651736" lon="17.6421772">
        <ele>24.1703</ele>
        <time>2013-05-09T20:02:05Z</time>
      </trkpt>
      <trkpt lat="59.865248" lon="17.6420606">
        <ele>23.6896</ele>
        <time>2013-05-09T20:02:06Z</time>
      </trkpt>
      <trkpt lat="59.8653054" lon="17.6419175">
        <ele>23.6896</ele>
        <time>2013-05-09T20:02:07Z</time>
      </trkpt>
      <trkpt lat="59.8653878" lon="17.6417773">
        <ele>25.1317</ele>
        <time>2013-05-09T20:02:08Z</time>
      </trkpt>
      <trkpt lat="59.8654523" lon="17.641665">
        <ele>24.651</ele>
        <time>2013-05-09T20:02:09Z</time>
      </trkpt>
      <trkpt lat="59.865513" lon="17.641552">
        <ele>24.651</ele>
        <time>2013-05-09T20:02:10Z</time>
      </trkpt>
      <trkpt lat="59.8655679" lon="17.6414385">
        <ele>24.651</ele>
        <time>2013-05-09T20:02:11Z</time>
      </trkpt>
      <trkpt lat="59.8656429" lon="17.6413381">
        <ele>26.0929</ele>
        <time>2013-05-09T20:02:12Z</time>
      </trkpt>
      <trkpt lat="59.8657067" lon="17.6412397">
        <ele>26.0929</ele>
        <time>2013-05-09T20:02:13Z</time>
      </trkpt>
      <trkpt lat="59.8657755" lon="17.6411417">
        <ele>27.5349</ele>
        <time>2013-05-09T20:02:14Z</time>
      </trkpt>
      <trkpt lat="59.8658317" lon="17.6410572">
        <ele>28.4962</ele>
        <time>2013-05-09T20:02:15Z</time>
      </trkpt>
      <trkpt lat="59.8658805" lon="17.6409847">
        <ele>28.0155</ele>
        <time>2013-05-09T20:02:16Z</time>
      </trkpt>
      <trkpt lat="59.865919" lon="17.6409257">
        <ele>27.5349</ele>
        <time>2013-05-09T20:02:17Z</time>
      </trkpt>
      <trkpt lat="59.8659462" lon="17.6408835">
        <ele>26.5736</ele>
        <time>2013-05-09T20:02:18Z</time>
      </trkpt>
      <trkpt lat="59.8659595" lon="17.6408614">
        <ele>25.6123</ele>
        <time>2013-05-09T20:02:19Z</time>
      </trkpt>
      <trkpt lat="59.8659653" lon="17.64085">
        <ele>24.1703</ele>
        <time>2013-05-09T20:02:20Z</time>
      </trkpt>
      <trkpt lat="59.8659688" lon="17.6408433">
        <ele>23.6896</ele>
        <time>2013-05-09T20:02:21Z</time>
      </trkpt>
      <trkpt lat="59.8659706" lon="17.6408375">
        <ele>22.7283</ele>
        <time>2013-05-09T20:02:22Z</time>
      </trkpt>
      <trkpt lat="59.8659731" lon="17.6408318">
        <ele>22.2476</ele>
        <time>2013-05-09T20:02:23Z</time>
      </trkpt>
      <trkpt lat="59.8659747" lon="17.6408277">
        <ele>21.767</ele>
        <time>2013-05-09T20:02:24Z</time>
      </trkpt>
      <trkpt lat="59.8659778" lon="17.6408209">
        <ele>22.2476</ele>
        <time>2013-05-09T20:02:25Z</time>
      </trkpt>
      <trkpt lat="59.8659804" lon="17.6408138">
        <ele>22.2476</ele>
        <time>2013-05-09T20:02:26Z</time>
      </trkpt>
      <trkpt lat="59.8659808" lon="17.6408133">
        <ele>21.767</ele>
        <time>2013-05-09T20:02:27Z</time>
      </trkpt>
      <trkpt lat="59.8659823" lon="17.6408139">
        <ele>21.2864</ele>
        <time>2013-05-09T20:02:28Z</time>
      </trkpt>
      <trkpt lat="59.8659848" lon="17.640812">
        <ele>21.2864</ele>
        <time>2013-05-09T20:02:29Z</time>
      </trkpt>
      <trkpt lat="59.8659861" lon="17.6408086">
        <ele>20.8057</ele>
        <time>2013-05-09T20:02:30Z</time>
      </trkpt>
      <trkpt lat="59.865986" lon="17.6408081">
        <ele>20.325</ele>
        <time>2013-05-09T20:02:31Z</time>
      </trkpt>
      <trkpt lat="59.8659845" lon="17.64081">
        <ele>19.8444</ele>
        <time>2013-05-09T20:02:32Z</time>
      </trkpt>
      <trkpt lat="59.8659831" lon="17.640812">
        <ele>19.8444</ele>
        <time>2013-05-09T20:02:33Z</time>
      </trkpt>
      <trkpt lat="59.8659826" lon="17.6408138">
        <ele>19.3638</ele>
        <time>2013-05-09T20:02:34Z</time>
      </trkpt>
      <trkpt lat="59.865985" lon="17.6408153">
        <ele>18.8831</ele>
        <time>2013-05-09T20:02:35Z</time>
      </trkpt>
      <trkpt lat="59.8659884" lon="17.6408139">
        <ele>18.4023</ele>
        <time>2013-05-09T20:02:36Z</time>
      </trkpt>
      <trkpt lat="59.8659896" lon="17.6408126">
        <ele>18.4023</ele>
        <time>2013-05-09T20:02:37Z</time>
      </trkpt>
      <trkpt lat="59.8659887" lon="17.6408138">
        <ele>17.9218</ele>
        <time>2013-05-09T20:02:38Z</time>
      </trkpt>
      <trkpt lat="59.8659879" lon="17.6408152">
        <ele>17.9218</ele>
        <time>2013-05-09T20:02:39Z</time>
      </trkpt>
      <trkpt lat="59.8659861" lon="17.6408162">
        <ele>17.4412</ele>
        <time>2013-05-09T20:02:40Z</time>
      </trkpt>
      <trkpt lat="59.8659846" lon="17.6408169">
        <ele>16.9604</ele>
        <time>2013-05-09T20:02:41Z</time>
      </trkpt>
      <trkpt lat="59.8659844" lon="17.6408173">
        <ele>16.4797</ele>
        <time>2013-05-09T20:02:42Z</time>
      </trkpt>
      <trkpt lat="59.865985" lon="17.6408152">
        <ele>15.999</ele>
        <time>2013-05-09T20:02:43Z</time>
      </trkpt>
      <trkpt lat="59.8659872" lon="17.6408111">
        <ele>15.999</ele>
        <time>2013-05-09T20:02:44Z</time>
      </trkpt>
      <trkpt lat="59.86599" lon="17.6408105">
        <ele>15.999</ele>
        <time>2013-05-09T20:02:45Z</time>
      </trkpt>
      <trkpt lat="59.8659902" lon="17.6408117">
        <ele>15.999</ele>
        <time>2013-05-09T20:02:46Z</time>
      </trkpt>
      <trkpt lat="59.8659907" lon="17.6408125">
        <ele>15.999</ele>
        <time>2013-05-09T20:02:47Z</time>
      </trkpt>
      <trkpt lat="59.8659914" lon="17.6408133">
        <ele>16.4797</ele>
        <time>2013-05-09T20:02:48Z</time>
      </trkpt>
      <trkpt lat="59.8659918" lon="17.6408136">
        <ele>16.4797</ele>
        <time>2013-05-09T20:02:49Z</time>
      </trkpt>
      <trkpt lat="59.8659918" lon="17.6408136">
        <ele>16.4797</ele>
        <time>2013-05-09T20:02:50Z</time>
      </trkpt>
      <trkpt lat="59.8659926" lon="17.6408138">
        <ele>16.4797</ele>
        <time>2013-05-09T20:02:51Z</time>
      </trkpt>
      <trkpt lat="59.8659939" lon="17.6408146">
        <ele>16.9604</ele>
        <time>2013-05-09T20:02:52Z</time>
      </trkpt>
      <trkpt lat="59.865995" lon="17.6408147">
        <ele>16.9604</ele>
        <time>2013-05-09T20:02:53Z</time>
      </trkpt>
      <trkpt lat="59.865998" lon="17.6408128">
        <ele>16.9604</ele>
        <time>2013-05-09T20:02:54Z</time>
      </trkpt>
      <trkpt lat="59.8660025" lon="17.640808">
        <ele>16.9604</ele>
        <time>2013-05-09T20:02:55Z</time>
      </trkpt>
      <trkpt lat="59.8660085" lon="17.6407981">
        <ele>16.9604</ele>
        <time>2013-05-09T20:02:56Z</time>
      </trkpt>
      <trkpt lat="59.8660164" lon="17.6407861">
        <ele>16.9604</ele>
        <time>2013-05-09T20:02:57Z</time>
      </trkpt>
      <trkpt lat="59.866023" lon="17.640776">
        <ele>16.9604</ele>
        <time>2013-05-09T20:02:58Z</time>
      </trkpt>
      <trkpt lat="59.8660297" lon="17.6407685">
        <ele>16.9604</ele>
        <time>2013-05-09T20:02:59Z</time>
      </trkpt>
      <trkpt lat="59.8660359" lon="17.6407625">
        <ele>16.9604</ele>
        <time>2013-05-09T20:03:00Z</time>
      </trkpt>
      <trkpt lat="59.8660399" lon="17.6407583">
        <ele>16.9604</ele>
        <time>2013-05-09T20:03:01Z</time>
      </trkpt>
      <trkpt lat="59.866043" lon="17.6407568">
        <ele>17.4412</ele>
        <time>2013-05-09T20:03:02Z</time>
      </trkpt>
      <trkpt lat="59.8660466" lon="17.6407566">
        <ele>17.4412</ele>
        <time>2013-05-09T20:03:03Z</time>
      </trkpt>
      <trkpt lat="59.8660497" lon="17.6407542">
        <ele>17.9218</ele>
        <time>2013-05-09T20:03:04Z</time>
      </trkpt>
      <trkpt lat="59.8660511" lon="17.6407532">
        <ele>17.9218</ele>
        <time>2013-05-09T20:03:05Z</time>
      </trkpt>
      <trkpt lat="59.8660518" lon="17.6407532">
        <ele>17.4412</ele>
        <time>2013-05-09T20:03:06Z</time>
      </trkpt>
      <trkpt lat="59.8660524" lon="17.6407536">
        <ele>17.4412</ele>
        <time>2013-05-09T20:03:07Z</time>
      </trkpt>
      <trkpt lat="59.8660534" lon="17.6407542">
        <ele>17.9218</ele>
        <time>2013-05-09T20:03:08Z</time>
      </trkpt>
      <trkpt lat="59.866055" lon="17.6407511">
        <ele>17.9218</ele>
        <time>2013-05-09T20:03:09Z</time>
      </trkpt>
      <trkpt lat="59.8660568" lon="17.6407473">
        <ele>17.9218</ele>
        <time>2013-05-09T20:03:10Z</time>
      </trkpt>
      <trkpt lat="59.8660577" lon="17.6407466">
        <ele>17.9218</ele>
        <time>2013-05-09T20:03:11Z</time>
      </trkpt>
      <trkpt lat="59.8660587" lon="17.6407465">
        <ele>17.9218</ele>
        <time>2013-05-09T20:03:12Z</time>
      </trkpt>
      <trkpt lat="59.8660606" lon="17.6407465">
        <ele>17.9218</ele>
        <time>2013-05-09T20:03:13Z</time>
      </trkpt>
      <trkpt lat="59.8660628" lon="17.6407457">
        <ele>18.4023</ele>
        <time>2013-05-09T20:03:14Z</time>
      </trkpt>
      <trkpt lat="59.8660639" lon="17.6407447">
        <ele>18.4023</ele>
        <time>2013-05-09T20:03:15Z</time>
      </trkpt>
      <trkpt lat="59.8660649" lon="17.6407443">
        <ele>18.4023</ele>
        <time>2013-05-09T20:03:16Z</time>
      </trkpt>
      <trkpt lat="59.8660658" lon="17.6407433">
        <ele>18.8831</ele>
        <time>2013-05-09T20:03:17Z</time>
      </trkpt>
      <trkpt lat="59.866067" lon="17.6407428">
        <ele>18.8831</ele>
        <time>2013-05-09T20:03:18Z</time>
      </trkpt>
      <trkpt lat="59.8660682" lon="17.6407419">
        <ele>19.3638</ele>
        <time>2013-05-09T20:03:19Z</time>
      </trkpt>
      <trkpt lat="59.8660744" lon="17.6407317">
        <ele>19.3638</ele>
        <time>2013-05-09T20:03:20Z</time>
      </trkpt>
      <trkpt lat="59.8660921" lon="17.6407053">
        <ele>19.3638</ele>
        <time>2013-05-09T20:03:21Z</time>
      </trkpt>
      <trkpt lat="59.8661202" lon="17.6406665">
        <ele>19.8444</ele>
        <time>2013-05-09T20:03:22Z</time>
      </trkpt>
      <trkpt lat="59.8661545" lon="17.640621">
        <ele>20.325</ele>
        <time>2013-05-09T20:03:23Z</time>
      </trkpt>
      <trkpt lat="59.8661959" lon="17.6405724">
        <ele>20.325</ele>
        <time>2013-05-09T20:03:24Z</time>
      </trkpt>
      <trkpt lat="59.866243" lon="17.6405178">
        <ele>20.325</ele>
        <time>2013-05-09T20:03:25Z</time>
      </trkpt>
      <trkpt lat="59.866291" lon="17.6404551">
        <ele>19.8444</ele>
        <time>2013-05-09T20:03:26Z</time>
      </trkpt>
      <trkpt lat="59.8663398" lon="17.6403842">
        <ele>19.3638</ele>
        <time>2013-05-09T20:03:27Z</time>
      </trkpt>
      <trkpt lat="59.8663889" lon="17.640307">
        <ele>18.8831</ele>
        <time>2013-05-09T20:03:28Z</time>
      </trkpt>
      <trkpt lat="59.8664396" lon="17.6402277">
        <ele>18.4023</ele>
        <time>2013-05-09T20:03:29Z</time>
      </trkpt>
      <trkpt lat="59.8664922" lon="17.640145">
        <ele>17.9218</ele>
        <time>2013-05-09T20:03:30Z</time>
      </trkpt>
      <trkpt lat="59.8665466" lon="17.6400604">
        <ele>17.4412</ele>
        <time>2013-05-09T20:03:31Z</time>
      </trkpt>
      <trkpt lat="59.866603" lon="17.639978">
        <ele>16.9604</ele>
        <time>2013-05-09T20:03:32Z</time>
      </trkpt>
      <trkpt lat="59.8666647" lon="17.6399034">
        <ele>16.4797</ele>
        <time>2013-05-09T20:03:33Z</time>
      </trkpt>
      <trkpt lat="59.866734" lon="17.6398405">
        <ele>16.9604</ele>
        <time>2013-05-09T20:03:34Z</time>
      </trkpt>
      <trkpt lat="59.8668048" lon="17.6397902">
        <ele>16.9604</ele>
        <time>2013-05-09T20:03:35Z</time>
      </trkpt>
      <trkpt lat="59.8668781" lon="17.6397493">
        <ele>16.9604</ele>
        <time>2013-05-09T20:03:36Z</time>
      </trkpt>
      <trkpt lat="59.8669532" lon="17.639715">
        <ele>16.4797</ele>
        <time>2013-05-09T20:03:37Z</time>
      </trkpt>
      <trkpt lat="59.8670288" lon="17.639686">
        <ele>16.4797</ele>
        <time>2013-05-09T20:03:38Z</time>
      </trkpt>
      <trkpt lat="59.8671055" lon="17.6396642">
        <ele>16.4797</ele>
        <time>2013-05-09T20:03:39Z</time>
      </trkpt>
      <trkpt lat="59.8671835" lon="17.6396465">
        <ele>16.4797</ele>
        <time>2013-05-09T20:03:40Z</time>
      </trkpt>
      <trkpt lat="59.8672618" lon="17.6396307">
        <ele>16.4797</ele>
        <time>2013-05-09T20:03:41Z</time>
      </trkpt>
      <trkpt lat="59.8673391" lon="17.6396177">
        <ele>16.4797</ele>
        <time>2013-05-09T20:03:42Z</time>
      </trkpt>
      <trkpt lat="59.8674182" lon="17.639612">
        <ele>16.9604</ele>
        <time>2013-05-09T20:03:43Z</time>
      </trkpt>
      <trkpt lat="59.8675" lon="17.6396142">
        <ele>17.4412</ele>
        <time>2013-05-09T20:03:44Z</time>
      </trkpt>
      <trkpt lat="59.8675842" lon="17.6396166">
        <ele>17.9218</ele>
        <time>2013-05-09T20:03:45Z</time>
      </trkpt>
      <trkpt lat="59.8676682" lon="17.6396167">
        <ele>18.8831</ele>
        <time>2013-05-09T20:03:46Z</time>
      </trkpt>
      <trkpt lat="59.8677483" lon="17.6396149">
        <ele>19.8444</ele>
        <time>2013-05-09T20:03:47Z</time>
      </trkpt>
      <trkpt lat="59.8678245" lon="17.6396109">
        <ele>19.8444</ele>
        <time>2013-05-09T20:03:48Z</time>
      </trkpt>
      <trkpt lat="59.8679017" lon="17.6396077">
        <ele>20.325</ele>
        <time>2013-05-09T20:03:49Z</time>
      </trkpt>
      <trkpt lat="59.8679798" lon="17.6396089">
        <ele>20.8057</ele>
        <time>2013-05-09T20:03:50Z</time>
      </trkpt>
      <trkpt lat="59.8680572" lon="17.6396135">
        <ele>20.8057</ele>
        <time>2013-05-09T20:03:51Z</time>
      </trkpt>
      <trkpt lat="59.8681338" lon="17.6396168">
        <ele>21.2864</ele>
        <time>2013-05-09T20:03:52Z</time>
      </trkpt>
      <trkpt lat="59.8682102" lon="17.6396172">
        <ele>21.2864</ele>
        <time>2013-05-09T20:03:53Z</time>
      </trkpt>
      <trkpt lat="59.8682866" lon="17.6396146">
        <ele>21.2864</ele>
        <time>2013-05-09T20:03:54Z</time>
      </trkpt>
      <trkpt lat="59.8683627" lon="17.6396111">
        <ele>21.767</ele>
        <time>2013-05-09T20:03:55Z</time>
      </trkpt>
      <trkpt lat="59.8684395" lon="17.63961">
        <ele>21.767</ele>
        <time>2013-05-09T20:03:56Z</time>
      </trkpt>
      <trkpt lat="59.8685163" lon="17.6396079">
        <ele>21.767</ele>
        <time>2013-05-09T20:03:57Z</time>
      </trkpt>
      <trkpt lat="59.868593" lon="17.6396062">
        <ele>21.767</ele>
        <time>2013-05-09T20:03:58Z</time>
      </trkpt>
      <trkpt lat="59.8686687" lon="17.6396048">
        <ele>21.767</ele>
        <time>2013-05-09T20:03:59Z</time>
      </trkpt>
      <trkpt lat="59.8687432" lon="17.639602">
        <ele>21.767</ele>
        <time>2013-05-09T20:04:00Z</time>
      </trkpt>
      <trkpt lat="59.8688157" lon="17.6395996">
        <ele>21.767</ele>
        <time>2013-05-09T20:04:01Z</time>
      </trkpt>
      <trkpt lat="59.8688894" lon="17.639597">
        <ele>21.767</ele>
        <time>2013-05-09T20:04:02Z</time>
      </trkpt>
      <trkpt lat="59.8689649" lon="17.639595">
        <ele>21.767</ele>
        <time>2013-05-09T20:04:03Z</time>
      </trkpt>
      <trkpt lat="59.8690429" lon="17.6395923">
        <ele>22.2476</ele>
        <time>2013-05-09T20:04:04Z</time>
      </trkpt>
      <trkpt lat="59.8691191" lon="17.6395851">
        <ele>22.7283</ele>
        <time>2013-05-09T20:04:05Z</time>
      </trkpt>
      <trkpt lat="59.8691952" lon="17.6395767">
        <ele>22.7283</ele>
        <time>2013-05-09T20:04:06Z</time>
      </trkpt>
      <trkpt lat="59.8692718" lon="17.6395727">
        <ele>23.209</ele>
        <time>2013-05-09T20:04:07Z</time>
      </trkpt>
      <trkpt lat="59.8693474" lon="17.6395711">
        <ele>23.209</ele>
        <time>2013-05-09T20:04:08Z</time>
      </trkpt>
      <trkpt lat="59.8694211" lon="17.6395695">
        <ele>23.209</ele>
        <time>2013-05-09T20:04:09Z</time>
      </trkpt>
      <trkpt lat="59.8694996" lon="17.6395669">
        <ele>23.209</ele>
        <time>2013-05-09T20:04:10Z</time>
      </trkpt>
      <trkpt lat="59.8695783" lon="17.6395606">
        <ele>23.209</ele>
        <time>2013-05-09T20:04:11Z</time>
      </trkpt>
      <trkpt lat="59.8696561" lon="17.6395536">
        <ele>23.209</ele>
        <time>2013-05-09T20:04:12Z</time>
      </trkpt>
      <trkpt lat="59.8697318" lon="17.6395519">
        <ele>23.6896</ele>
        <time>2013-05-09T20:04:13Z</time>
      </trkpt>
      <trkpt lat="59.8698081" lon="17.6395499">
        <ele>23.6896</ele>
        <time>2013-05-09T20:04:14Z</time>
      </trkpt>
      <trkpt lat="59.8698836" lon="17.6395434">
        <ele>23.6896</ele>
        <time>2013-05-09T20:04:15Z</time>
      </trkpt>
      <trkpt lat="59.8699592" lon="17.6395363">
        <ele>23.6896</ele>
        <time>2013-05-09T20:04:16Z</time>
      </trkpt>
      <trkpt lat="59.8700357" lon="17.6395321">
        <ele>23.6896</ele>
        <time>2013-05-09T20:04:17Z</time>
      </trkpt>
      <trkpt lat="59.8701135" lon="17.6395302">
        <ele>23.6896</ele>
        <time>2013-05-09T20:04:18Z</time>
      </trkpt>
      <trkpt lat="59.8701916" lon="17.6395276">
        <ele>23.6896</ele>
        <time>2013-05-09T20:04:19Z</time>
      </trkpt>
      <trkpt lat="59.8702686" lon="17.6395224">
        <ele>24.1703</ele>
        <time>2013-05-09T20:04:20Z</time>
      </trkpt>
      <trkpt lat="59.8703444" lon="17.6395151">
        <ele>24.1703</ele>
        <time>2013-05-09T20:04:21Z</time>
      </trkpt>
      <trkpt lat="59.8704192" lon="17.6395077">
        <ele>23.6896</ele>
        <time>2013-05-09T20:04:22Z</time>
      </trkpt>
      <trkpt lat="59.8704952" lon="17.6395017">
        <ele>23.6896</ele>
        <time>2013-05-09T20:04:23Z</time>
      </trkpt>
      <trkpt lat="59.8705714" lon="17.6394944">
        <ele>24.1703</ele>
        <time>2013-05-09T20:04:24Z</time>
      </trkpt>
      <trkpt lat="59.8706482" lon="17.6394887">
        <ele>24.1703</ele>
        <time>2013-05-09T20:04:25Z</time>
      </trkpt>
      <trkpt lat="59.8707249" lon="17.6394841">
        <ele>24.1703</ele>
        <time>2013-05-09T20:04:26Z</time>
      </trkpt>
      <trkpt lat="59.8708015" lon="17.6394805">
        <ele>24.1703</ele>
        <time>2013-05-09T20:04:27Z</time>
      </trkpt>
      <trkpt lat="59.8708776" lon="17.6394758">
        <ele>23.6896</ele>
        <time>2013-05-09T20:04:28Z</time>
      </trkpt>
      <trkpt lat="59.8709513" lon="17.6394678">
        <ele>24.1703</ele>
        <time>2013-05-09T20:04:29Z</time>
      </trkpt>
      <trkpt lat="59.8710249" lon="17.6394578">
        <ele>23.6896</ele>
        <time>2013-05-09T20:04:30Z</time>
      </trkpt>
      <trkpt lat="59.8710983" lon="17.6394462">
        <ele>23.6896</ele>
        <time>2013-05-09T20:04:31Z</time>
      </trkpt>
      <trkpt lat="59.8711727" lon="17.6394285">
        <ele>23.6896</ele>
        <time>2013-05-09T20:04:32Z</time>
      </trkpt>
      <trkpt lat="59.871247" lon="17.6394105">
        <ele>24.1703</ele>
        <time>2013-05-09T20:04:33Z</time>
      </trkpt>
      <trkpt lat="59.871321" lon="17.6393929">
        <ele>24.1703</ele>
        <time>2013-05-09T20:04:34Z</time>
      </trkpt>
      <trkpt lat="59.8713931" lon="17.6393743">
        <ele>24.1703</ele>
        <time>2013-05-09T20:04:35Z</time>
      </trkpt>
      <trkpt lat="59.8714667" lon="17.6393528">
        <ele>24.651</ele>
        <time>2013-05-09T20:04:36Z</time>
      </trkpt>
      <trkpt lat="59.871541" lon="17.6393303">
        <ele>25.1317</ele>
        <time>2013-05-09T20:04:37Z</time>
      </trkpt>
      <trkpt lat="59.8716146" lon="17.6393036">
        <ele>25.6123</ele>
        <time>2013-05-09T20:04:38Z</time>
      </trkpt>
      <trkpt lat="59.8716856" lon="17.6392758">
        <ele>25.6123</ele>
        <time>2013-05-09T20:04:39Z</time>
      </trkpt>
      <trkpt lat="59.8717562" lon="17.6392504">
        <ele>25.6123</ele>
        <time>2013-05-09T20:04:40Z</time>
      </trkpt>
      <trkpt lat="59.8718281" lon="17.6392282">
        <ele>26.0929</ele>
        <time>2013-05-09T20:04:41Z</time>
      </trkpt>
      <trkpt lat="59.8719013" lon="17.6392064">
        <ele>27.0543</ele>
        <time>2013-05-09T20:04:42Z</time>
      </trkpt>
      <trkpt lat="59.8719707" lon="17.6391758">
        <ele>26.5736</ele>
        <time>2013-05-09T20:04:43Z</time>
      </trkpt>
      <trkpt lat="59.8720336" lon="17.6391374">
        <ele>25.6123</ele>
        <time>2013-05-09T20:04:44Z</time>
      </trkpt>
      <trkpt lat="59.8720949" lon="17.6390982">
        <ele>24.1703</ele>
        <time>2013-05-09T20:04:45Z</time>
      </trkpt>
      <trkpt lat="59.8721653" lon="17.6390702">
        <ele>24.651</ele>
        <time>2013-05-09T20:04:46Z</time>
      </trkpt>
      <trkpt lat="59.8722353" lon="17.6390428">
        <ele>25.1317</ele>
        <time>2013-05-09T20:04:47Z</time>
      </trkpt>
      <trkpt lat="59.8723041" lon="17.6390163">
        <ele>25.1317</ele>
        <time>2013-05-09T20:04:48Z</time>
      </trkpt>
      <trkpt lat="59.8723704" lon="17.6389882">
        <ele>24.651</ele>
        <time>2013-05-09T20:04:49Z</time>
      </trkpt>
      <trkpt lat="59.87243" lon="17.6389532">
        <ele>23.6896</ele>
        <time>2013-05-09T20:04:50Z</time>
      </trkpt>
      <trkpt lat="59.8724897" lon="17.6389192">
        <ele>22.7283</ele>
        <time>2013-05-09T20:04:51Z</time>
      </trkpt>
      <trkpt lat="59.8725525" lon="17.6388924">
        <ele>23.209</ele>
        <time>2013-05-09T20:04:52Z</time>
      </trkpt>
      <trkpt lat="59.8726072" lon="17.6388604">
        <ele>22.2476</ele>
        <time>2013-05-09T20:04:53Z</time>
      </trkpt>
      <trkpt lat="59.8726586" lon="17.6388293">
        <ele>22.2476</ele>
        <time>2013-05-09T20:04:54Z</time>
      </trkpt>
      <trkpt lat="59.872705" lon="17.6387966">
        <ele>21.2864</ele>
        <time>2013-05-09T20:04:55Z</time>
      </trkpt>
      <trkpt lat="59.8727488" lon="17.6387695">
        <ele>21.2864</ele>
        <time>2013-05-09T20:04:56Z</time>
      </trkpt>
      <trkpt lat="59.8727856" lon="17.6387398">
        <ele>20.8057</ele>
        <time>2013-05-09T20:04:57Z</time>
      </trkpt>
      <trkpt lat="59.8728114" lon="17.6387097">
        <ele>19.3638</ele>
        <time>2013-05-09T20:04:58Z</time>
      </trkpt>
      <trkpt lat="59.8728301" lon="17.6386835">
        <ele>17.9218</ele>
        <time>2013-05-09T20:04:59Z</time>
      </trkpt>
      <trkpt lat="59.8728518" lon="17.6386729">
        <ele>17.9218</ele>
        <time>2013-05-09T20:05:00Z</time>
      </trkpt>
      <trkpt lat="59.8728659" lon="17.6386597">
        <ele>17.9218</ele>
        <time>2013-05-09T20:05:01Z</time>
      </trkpt>
      <trkpt lat="59.8728804" lon="17.6386501">
        <ele>17.9218</ele>
        <time>2013-05-09T20:05:02Z</time>
      </trkpt>
      <trkpt lat="59.8728915" lon="17.6386392">
        <ele>17.4412</ele>
        <time>2013-05-09T20:05:03Z</time>
      </trkpt>
      <trkpt lat="59.8728999" lon="17.6386251">
        <ele>16.9604</ele>
        <time>2013-05-09T20:05:04Z</time>
      </trkpt>
      <trkpt lat="59.8729061" lon="17.6386113">
        <ele>15.999</ele>
        <time>2013-05-09T20:05:05Z</time>
      </trkpt>
      <trkpt lat="59.8729148" lon="17.6386036">
        <ele>15.5184</ele>
        <time>2013-05-09T20:05:06Z</time>
      </trkpt>
      <trkpt lat="59.8729222" lon="17.6385951">
        <ele>15.5184</ele>
        <time>2013-05-09T20:05:07Z</time>
      </trkpt>
      <trkpt lat="59.8729202" lon="17.6385755">
        <ele>13.1151</ele>
        <time>2013-05-09T20:05:08Z</time>
      </trkpt>
      <trkpt lat="59.872927" lon="17.6385676">
        <ele>12.6344</ele>
        <time>2013-05-09T20:05:09Z</time>
      </trkpt>
      <trkpt lat="59.8729361" lon="17.6385633">
        <ele>13.1151</ele>
        <time>2013-05-09T20:05:10Z</time>
      </trkpt>
      <trkpt lat="59.8729498" lon="17.6385576">
        <ele>14.0764</ele>
        <time>2013-05-09T20:05:11Z</time>
      </trkpt>
      <trkpt lat="59.872959" lon="17.6385501">
        <ele>14.0764</ele>
        <time>2013-05-09T20:05:12Z</time>
      </trkpt>
      <trkpt lat="59.8729631" lon="17.6385356">
        <ele>13.1151</ele>
        <time>2013-05-09T20:05:13Z</time>
      </trkpt>
      <trkpt lat="59.8729715" lon="17.6385253">
        <ele>13.1151</ele>
        <time>2013-05-09T20:05:14Z</time>
      </trkpt>
      <trkpt lat="59.8729809" lon="17.6385162">
        <ele>13.1151</ele>
        <time>2013-05-09T20:05:15Z</time>
      </trkpt>
      <trkpt lat="59.8729915" lon="17.6385076">
        <ele>13.1151</ele>
        <time>2013-05-09T20:05:16Z</time>
      </trkpt>
      <trkpt lat="59.8730034" lon="17.638504">
        <ele>14.0764</ele>
        <time>2013-05-09T20:05:17Z</time>
      </trkpt>
      <trkpt lat="59.8730175" lon="17.6385056">
        <ele>15.0377</ele>
        <time>2013-05-09T20:05:18Z</time>
      </trkpt>
      <trkpt lat="59.873032" lon="17.6385045">
        <ele>15.999</ele>
        <time>2013-05-09T20:05:19Z</time>
      </trkpt>
      <trkpt lat="59.8730446" lon="17.6385023">
        <ele>16.4797</ele>
        <time>2013-05-09T20:05:20Z</time>
      </trkpt>
      <trkpt lat="59.8730531" lon="17.6384977">
        <ele>16.9604</ele>
        <time>2013-05-09T20:05:21Z</time>
      </trkpt>
      <trkpt lat="59.8730598" lon="17.6384906">
        <ele>16.9604</ele>
        <time>2013-05-09T20:05:22Z</time>
      </trkpt>
      <trkpt lat="59.8730637" lon="17.6384869">
        <ele>16.9604</ele>
        <time>2013-05-09T20:05:23Z</time>
      </trkpt>
      <trkpt lat="59.8730567" lon="17.6384776">
        <ele>15.5184</ele>
        <time>2013-05-09T20:05:24Z</time>
      </trkpt>
      <trkpt lat="59.8730553" lon="17.6384776">
        <ele>15.5184</ele>
        <time>2013-05-09T20:05:25Z</time>
      </trkpt>
      <trkpt lat="59.8730559" lon="17.6384807">
        <ele>15.5184</ele>
        <time>2013-05-09T20:05:26Z</time>
      </trkpt>
      <trkpt lat="59.873057" lon="17.6384853">
        <ele>16.4797</ele>
        <time>2013-05-09T20:05:27Z</time>
      </trkpt>
      <trkpt lat="59.8730591" lon="17.6384899">
        <ele>16.9604</ele>
        <time>2013-05-09T20:05:28Z</time>
      </trkpt>
      <trkpt lat="59.8730617" lon="17.6384952">
        <ele>17.4412</ele>
        <time>2013-05-09T20:05:29Z</time>
      </trkpt>
      <trkpt lat="59.8730652" lon="17.6384989">
        <ele>18.4023</ele>
        <time>2013-05-09T20:05:30Z</time>
      </trkpt>
      <trkpt lat="59.8730724" lon="17.6384962">
        <ele>19.3638</ele>
        <time>2013-05-09T20:05:31Z</time>
      </trkpt>
      <trkpt lat="59.8730898" lon="17.6384879">
        <ele>20.8057</ele>
        <time>2013-05-09T20:05:32Z</time>
      </trkpt>
      <trkpt lat="59.873113" lon="17.6384777">
        <ele>21.767</ele>
        <time>2013-05-09T20:05:33Z</time>
      </trkpt>
      <trkpt lat="59.873145" lon="17.638461">
        <ele>22.7283</ele>
        <time>2013-05-09T20:05:34Z</time>
      </trkpt>
      <trkpt lat="59.8731802" lon="17.6384361">
        <ele>23.209</ele>
        <time>2013-05-09T20:05:35Z</time>
      </trkpt>
      <trkpt lat="59.8732211" lon="17.6384035">
        <ele>22.7283</ele>
        <time>2013-05-09T20:05:36Z</time>
      </trkpt>
      <trkpt lat="59.8732727" lon="17.6383596">
        <ele>22.7283</ele>
        <time>2013-05-09T20:05:37Z</time>
      </trkpt>
      <trkpt lat="59.8733294" lon="17.6383035">
        <ele>22.7283</ele>
        <time>2013-05-09T20:05:38Z</time>
      </trkpt>
      <trkpt lat="59.8733906" lon="17.6382406">
        <ele>22.7283</ele>
        <time>2013-05-09T20:05:39Z</time>
      </trkpt>
      <trkpt lat="59.8734528" lon="17.6381668">
        <ele>22.2476</ele>
        <time>2013-05-09T20:05:40Z</time>
      </trkpt>
      <trkpt lat="59.8735168" lon="17.6380777">
        <ele>21.767</ele>
        <time>2013-05-09T20:05:41Z</time>
      </trkpt>
      <trkpt lat="59.8735823" lon="17.6379855">
        <ele>21.2864</ele>
        <time>2013-05-09T20:05:42Z</time>
      </trkpt>
      <trkpt lat="59.8736453" lon="17.6378958">
        <ele>20.8057</ele>
        <time>2013-05-09T20:05:43Z</time>
      </trkpt>
      <trkpt lat="59.8737065" lon="17.6378088">
        <ele>20.8057</ele>
        <time>2013-05-09T20:05:44Z</time>
      </trkpt>
      <trkpt lat="59.8737676" lon="17.6377252">
        <ele>20.8057</ele>
        <time>2013-05-09T20:05:45Z</time>
      </trkpt>
      <trkpt lat="59.8738287" lon="17.6376431">
        <ele>20.8057</ele>
        <time>2013-05-09T20:05:46Z</time>
      </trkpt>
      <trkpt lat="59.8738884" lon="17.6375601">
        <ele>20.8057</ele>
        <time>2013-05-09T20:05:47Z</time>
      </trkpt>
      <trkpt lat="59.8739474" lon="17.6374766">
        <ele>21.2864</ele>
        <time>2013-05-09T20:05:48Z</time>
      </trkpt>
      <trkpt lat="59.8740057" lon="17.637396">
        <ele>21.2864</ele>
        <time>2013-05-09T20:05:49Z</time>
      </trkpt>
      <trkpt lat="59.8740643" lon="17.6373182">
        <ele>21.2864</ele>
        <time>2013-05-09T20:05:50Z</time>
      </trkpt>
      <trkpt lat="59.8741269" lon="17.6372421">
        <ele>22.2476</ele>
        <time>2013-05-09T20:05:51Z</time>
      </trkpt>
      <trkpt lat="59.8741901" lon="17.6371713">
        <ele>22.7283</ele>
        <time>2013-05-09T20:05:52Z</time>
      </trkpt>
      <trkpt lat="59.8742587" lon="17.6371031">
        <ele>24.651</ele>
        <time>2013-05-09T20:05:53Z</time>
      </trkpt>
      <trkpt lat="59.8743245" lon="17.6370353">
        <ele>25.1317</ele>
        <time>2013-05-09T20:05:54Z</time>
      </trkpt>
      <trkpt lat="59.8743994" lon="17.6369666">
        <ele>27.0543</ele>
        <time>2013-05-09T20:05:55Z</time>
      </trkpt>
      <trkpt lat="59.874472" lon="17.636898">
        <ele>28.9769</ele>
        <time>2013-05-09T20:05:56Z</time>
      </trkpt>
      <trkpt lat="59.8745339" lon="17.6368271">
        <ele>28.4962</ele>
        <time>2013-05-09T20:05:57Z</time>
      </trkpt>
      <trkpt lat="59.8745988" lon="17.6367582">
        <ele>27.5349</ele>
        <time>2013-05-09T20:05:58Z</time>
      </trkpt>
      <trkpt lat="59.874677" lon="17.636691">
        <ele>30.4188</ele>
        <time>2013-05-09T20:05:59Z</time>
      </trkpt>
      <trkpt lat="59.8747475" lon="17.6366252">
        <ele>30.4188</ele>
        <time>2013-05-09T20:06:00Z</time>
      </trkpt>
      <trkpt lat="59.8748171" lon="17.6365594">
        <ele>29.9381</ele>
        <time>2013-05-09T20:06:01Z</time>
      </trkpt>
      <trkpt lat="59.8748897" lon="17.6364988">
        <ele>31.3801</ele>
        <time>2013-05-09T20:06:02Z</time>
      </trkpt>
      <trkpt lat="59.8749653" lon="17.6364481">
        <ele>33.3029</ele>
        <time>2013-05-09T20:06:03Z</time>
      </trkpt>
      <trkpt lat="59.8750361" lon="17.6363961">
        <ele>34.2642</ele>
        <time>2013-05-09T20:06:04Z</time>
      </trkpt>
      <trkpt lat="59.8751063" lon="17.6363445">
        <ele>35.2255</ele>
        <time>2013-05-09T20:06:05Z</time>
      </trkpt>
      <trkpt lat="59.8751765" lon="17.6362952">
        <ele>36.1868</ele>
        <time>2013-05-09T20:06:06Z</time>
      </trkpt>
      <trkpt lat="59.8752463" lon="17.636248">
        <ele>36.1868</ele>
        <time>2013-05-09T20:06:07Z</time>
      </trkpt>
      <trkpt lat="59.8753159" lon="17.6362041">
        <ele>36.6675</ele>
        <time>2013-05-09T20:06:08Z</time>
      </trkpt>
      <trkpt lat="59.8753758" lon="17.6361502">
        <ele>34.2642</ele>
        <time>2013-05-09T20:06:09Z</time>
      </trkpt>
      <trkpt lat="59.8754361" lon="17.6360994">
        <ele>32.3416</ele>
        <time>2013-05-09T20:06:10Z</time>
      </trkpt>
      <trkpt lat="59.8754992" lon="17.6360544">
        <ele>30.8995</ele>
        <time>2013-05-09T20:06:11Z</time>
      </trkpt>
      <trkpt lat="59.8755691" lon="17.6360205">
        <ele>30.8995</ele>
        <time>2013-05-09T20:06:12Z</time>
      </trkpt>
      <trkpt lat="59.8756412" lon="17.6359915">
        <ele>31.3801</ele>
        <time>2013-05-09T20:06:13Z</time>
      </trkpt>
      <trkpt lat="59.8757099" lon="17.6359564">
        <ele>30.8995</ele>
        <time>2013-05-09T20:06:14Z</time>
      </trkpt>
      <trkpt lat="59.8757903" lon="17.6359356">
        <ele>32.3416</ele>
        <time>2013-05-09T20:06:15Z</time>
      </trkpt>
      <trkpt lat="59.8758713" lon="17.6359165">
        <ele>33.7834</ele>
        <time>2013-05-09T20:06:16Z</time>
      </trkpt>
      <trkpt lat="59.8759438" lon="17.6358885">
        <ele>33.3029</ele>
        <time>2013-05-09T20:06:17Z</time>
      </trkpt>
      <trkpt lat="59.8760199" lon="17.6358652">
        <ele>32.8223</ele>
        <time>2013-05-09T20:06:18Z</time>
      </trkpt>
      <trkpt lat="59.8760979" lon="17.6358482">
        <ele>33.7834</ele>
        <time>2013-05-09T20:06:19Z</time>
      </trkpt>
      <trkpt lat="59.8761782" lon="17.6358384">
        <ele>34.7449</ele>
        <time>2013-05-09T20:06:20Z</time>
      </trkpt>
      <trkpt lat="59.8762567" lon="17.635829">
        <ele>35.2255</ele>
        <time>2013-05-09T20:06:21Z</time>
      </trkpt>
      <trkpt lat="59.8763303" lon="17.6358158">
        <ele>34.7449</ele>
        <time>2013-05-09T20:06:22Z</time>
      </trkpt>
      <trkpt lat="59.8764104" lon="17.6358128">
        <ele>35.2255</ele>
        <time>2013-05-09T20:06:23Z</time>
      </trkpt>
      <trkpt lat="59.8764862" lon="17.6358098">
        <ele>35.2255</ele>
        <time>2013-05-09T20:06:24Z</time>
      </trkpt>
      <trkpt lat="59.8765638" lon="17.635801">
        <ele>35.7061</ele>
        <time>2013-05-09T20:06:25Z</time>
      </trkpt>
      <trkpt lat="59.8766337" lon="17.6357794">
        <ele>34.2642</ele>
        <time>2013-05-09T20:06:26Z</time>
      </trkpt>
      <trkpt lat="59.8767051" lon="17.6357601">
        <ele>33.3029</ele>
        <time>2013-05-09T20:06:27Z</time>
      </trkpt>
      <trkpt lat="59.8767777" lon="17.6357506">
        <ele>32.8223</ele>
        <time>2013-05-09T20:06:28Z</time>
      </trkpt>
      <trkpt lat="59.8768509" lon="17.6357461">
        <ele>31.8607</ele>
        <time>2013-05-09T20:06:29Z</time>
      </trkpt>
      <trkpt lat="59.8769223" lon="17.6357384">
        <ele>29.9381</ele>
        <time>2013-05-09T20:06:30Z</time>
      </trkpt>
      <trkpt lat="59.8769929" lon="17.6357285">
        <ele>28.4962</ele>
        <time>2013-05-09T20:06:31Z</time>
      </trkpt>
      <trkpt lat="59.8770674" lon="17.6357224">
        <ele>27.5349</ele>
        <time>2013-05-09T20:06:32Z</time>
      </trkpt>
      <trkpt lat="59.8771471" lon="17.6357155">
        <ele>28.4962</ele>
        <time>2013-05-09T20:06:33Z</time>
      </trkpt>
      <trkpt lat="59.8772305" lon="17.635715">
        <ele>29.9381</ele>
        <time>2013-05-09T20:06:34Z</time>
      </trkpt>
      <trkpt lat="59.8773127" lon="17.6357167">
        <ele>31.3801</ele>
        <time>2013-05-09T20:06:35Z</time>
      </trkpt>
      <trkpt lat="59.8773976" lon="17.6357273">
        <ele>32.8223</ele>
        <time>2013-05-09T20:06:36Z</time>
      </trkpt>
      <trkpt lat="59.8774829" lon="17.6357414">
        <ele>34.7449</ele>
        <time>2013-05-09T20:06:37Z</time>
      </trkpt>
      <trkpt lat="59.8775683" lon="17.6357555">
        <ele>35.7061</ele>
        <time>2013-05-09T20:06:38Z</time>
      </trkpt>
      <trkpt lat="59.8776552" lon="17.6357684">
        <ele>37.1481</ele>
        <time>2013-05-09T20:06:39Z</time>
      </trkpt>
      <trkpt lat="59.8777376" lon="17.6357749">
        <ele>38.1094</ele>
        <time>2013-05-09T20:06:40Z</time>
      </trkpt>
      <trkpt lat="59.8778128" lon="17.6357773">
        <ele>37.6287</ele>
        <time>2013-05-09T20:06:41Z</time>
      </trkpt>
      <trkpt lat="59.8778873" lon="17.6357787">
        <ele>37.1481</ele>
        <time>2013-05-09T20:06:42Z</time>
      </trkpt>
      <trkpt lat="59.8779629" lon="17.6357803">
        <ele>36.6675</ele>
        <time>2013-05-09T20:06:43Z</time>
      </trkpt>
      <trkpt lat="59.8780365" lon="17.6357796">
        <ele>35.7061</ele>
        <time>2013-05-09T20:06:44Z</time>
      </trkpt>
      <trkpt lat="59.8781101" lon="17.6357768">
        <ele>34.7449</ele>
        <time>2013-05-09T20:06:45Z</time>
      </trkpt>
      <trkpt lat="59.8781863" lon="17.6357776">
        <ele>34.2642</ele>
        <time>2013-05-09T20:06:46Z</time>
      </trkpt>
      <trkpt lat="59.8782573" lon="17.6357724">
        <ele>32.3416</ele>
        <time>2013-05-09T20:06:47Z</time>
      </trkpt>
      <trkpt lat="59.8783359" lon="17.6357749">
        <ele>32.8223</ele>
        <time>2013-05-09T20:06:48Z</time>
      </trkpt>
      <trkpt lat="59.8784134" lon="17.6357762">
        <ele>32.8223</ele>
        <time>2013-05-09T20:06:49Z</time>
      </trkpt>
      <trkpt lat="59.8784902" lon="17.6357759">
        <ele>32.8223</ele>
        <time>2013-05-09T20:06:50Z</time>
      </trkpt>
      <trkpt lat="59.8785668" lon="17.6357756">
        <ele>32.8223</ele>
        <time>2013-05-09T20:06:51Z</time>
      </trkpt>
      <trkpt lat="59.8786401" lon="17.6357725">
        <ele>32.8223</ele>
        <time>2013-05-09T20:06:52Z</time>
      </trkpt>
      <trkpt lat="59.8786996" lon="17.6357508">
        <ele>27.5349</ele>
        <time>2013-05-09T20:06:53Z</time>
      </trkpt>
      <trkpt lat="59.8787627" lon="17.6357394">
        <ele>24.1703</ele>
        <time>2013-05-09T20:06:54Z</time>
      </trkpt>
      <trkpt lat="59.8788259" lon="17.63573">
        <ele>20.325</ele>
        <time>2013-05-09T20:06:55Z</time>
      </trkpt>
      <trkpt lat="59.8788922" lon="17.6357262">
        <ele>17.9218</ele>
        <time>2013-05-09T20:06:56Z</time>
      </trkpt>
      <trkpt lat="59.8789603" lon="17.6357241">
        <ele>15.5184</ele>
        <time>2013-05-09T20:06:57Z</time>
      </trkpt>
      <trkpt lat="59.879029" lon="17.6357193">
        <ele>13.5958</ele>
        <time>2013-05-09T20:06:58Z</time>
      </trkpt>
      <trkpt lat="59.879099" lon="17.6357134">
        <ele>11.6732</ele>
        <time>2013-05-09T20:06:59Z</time>
      </trkpt>
      <trkpt lat="59.8791709" lon="17.6356994">
        <ele>9.75061</ele>
        <time>2013-05-09T20:07:00Z</time>
      </trkpt>
      <trkpt lat="59.879243" lon="17.6356999">
        <ele>8.78918</ele>
        <time>2013-05-09T20:07:01Z</time>
      </trkpt>
      <trkpt lat="59.8793164" lon="17.6357016">
        <ele>7.82788</ele>
        <time>2013-05-09T20:07:02Z</time>
      </trkpt>
      <trkpt lat="59.879388" lon="17.6356989">
        <ele>6.86646</ele>
        <time>2013-05-09T20:07:03Z</time>
      </trkpt>
      <trkpt lat="59.8794593" lon="17.6356964">
        <ele>6.38586</ele>
        <time>2013-05-09T20:07:04Z</time>
      </trkpt>
      <trkpt lat="59.8795306" lon="17.6356934">
        <ele>5.90527</ele>
        <time>2013-05-09T20:07:05Z</time>
      </trkpt>
      <trkpt lat="59.8796025" lon="17.6356903">
        <ele>5.42456</ele>
        <time>2013-05-09T20:07:06Z</time>
      </trkpt>
      <trkpt lat="59.8796754" lon="17.6356863">
        <ele>4.94385</ele>
        <time>2013-05-09T20:07:07Z</time>
      </trkpt>
      <trkpt lat="59.8797489" lon="17.6356819">
        <ele>4.46326</ele>
        <time>2013-05-09T20:07:08Z</time>
      </trkpt>
      <trkpt lat="59.8798229" lon="17.6356762">
        <ele>4.46326</ele>
        <time>2013-05-09T20:07:09Z</time>
      </trkpt>
      <trkpt lat="59.8798973" lon="17.6356701">
        <ele>4.46326</ele>
        <time>2013-05-09T20:07:10Z</time>
      </trkpt>
      <trkpt lat="59.8799722" lon="17.6356661">
        <ele>3.98267</ele>
        <time>2013-05-09T20:07:11Z</time>
      </trkpt>
      <trkpt lat="59.8800475" lon="17.6356613">
        <ele>3.98267</ele>
        <time>2013-05-09T20:07:12Z</time>
      </trkpt>
      <trkpt lat="59.8801224" lon="17.6356566">
        <ele>3.98267</ele>
        <time>2013-05-09T20:07:13Z</time>
      </trkpt>
      <trkpt lat="59.8801966" lon="17.6356523">
        <ele>4.46326</ele>
        <time>2013-05-09T20:07:14Z</time>
      </trkpt>
      <trkpt lat="59.8802711" lon="17.635648">
        <ele>4.46326</ele>
        <time>2013-05-09T20:07:15Z</time>
      </trkpt>
      <trkpt lat="59.8803461" lon="17.6356428">
        <ele>4.94385</ele>
        <time>2013-05-09T20:07:16Z</time>
      </trkpt>
      <trkpt lat="59.880421" lon="17.6356354">
        <ele>4.94385</ele>
        <time>2013-05-09T20:07:17Z</time>
      </trkpt>
      <trkpt lat="59.880495" lon="17.6356301">
        <ele>4.46326</ele>
        <time>2013-05-09T20:07:18Z</time>
      </trkpt>
      <trkpt lat="59.8805709" lon="17.6356311">
        <ele>4.94385</ele>
        <time>2013-05-09T20:07:19Z</time>
      </trkpt>
      <trkpt lat="59.8806455" lon="17.6356295">
        <ele>4.94385</ele>
        <time>2013-05-09T20:07:20Z</time>
      </trkpt>
      <trkpt lat="59.8807245" lon="17.6356207">
        <ele>5.90527</ele>
        <time>2013-05-09T20:07:21Z</time>
      </trkpt>
      <trkpt lat="59.8808022" lon="17.635614">
        <ele>6.86646</ele>
        <time>2013-05-09T20:07:22Z</time>
      </trkpt>
      <trkpt lat="59.8808797" lon="17.6356084">
        <ele>7.82788</ele>
        <time>2013-05-09T20:07:23Z</time>
      </trkpt>
      <trkpt lat="59.8809569" lon="17.6356026">
        <ele>8.30859</ele>
        <time>2013-05-09T20:07:24Z</time>
      </trkpt>
      <trkpt lat="59.881034" lon="17.635596">
        <ele>8.78918</ele>
        <time>2013-05-09T20:07:25Z</time>
      </trkpt>
      <trkpt lat="59.8811114" lon="17.6355886">
        <ele>9.2699</ele>
        <time>2013-05-09T20:07:26Z</time>
      </trkpt>
      <trkpt lat="59.8811893" lon="17.6355792">
        <ele>9.2699</ele>
        <time>2013-05-09T20:07:27Z</time>
      </trkpt>
      <trkpt lat="59.8812651" lon="17.6355706">
        <ele>9.2699</ele>
        <time>2013-05-09T20:07:28Z</time>
      </trkpt>
      <trkpt lat="59.881339" lon="17.635563">
        <ele>9.75061</ele>
        <time>2013-05-09T20:07:29Z</time>
      </trkpt>
      <trkpt lat="59.8814125" lon="17.6355554">
        <ele>9.75061</ele>
        <time>2013-05-09T20:07:30Z</time>
      </trkpt>
      <trkpt lat="59.8814863" lon="17.6355472">
        <ele>9.75061</ele>
        <time>2013-05-09T20:07:31Z</time>
      </trkpt>
      <trkpt lat="59.8815603" lon="17.6355395">
        <ele>9.75061</ele>
        <time>2013-05-09T20:07:32Z</time>
      </trkpt>
      <trkpt lat="59.8816342" lon="17.635532">
        <ele>9.75061</ele>
        <time>2013-05-09T20:07:33Z</time>
      </trkpt>
      <trkpt lat="59.8817085" lon="17.6355227">
        <ele>9.75061</ele>
        <time>2013-05-09T20:07:34Z</time>
      </trkpt>
      <trkpt lat="59.8817826" lon="17.6355133">
        <ele>9.75061</ele>
        <time>2013-05-09T20:07:35Z</time>
      </trkpt>
      <trkpt lat="59.8818563" lon="17.6355056">
        <ele>9.75061</ele>
        <time>2013-05-09T20:07:36Z</time>
      </trkpt>
      <trkpt lat="59.8819298" lon="17.6354979">
        <ele>10.2312</ele>
        <time>2013-05-09T20:07:37Z</time>
      </trkpt>
      <trkpt lat="59.8820029" lon="17.6354864">
        <ele>10.2312</ele>
        <time>2013-05-09T20:07:38Z</time>
      </trkpt>
      <trkpt lat="59.8820747" lon="17.6354694">
        <ele>10.7118</ele>
        <time>2013-05-09T20:07:39Z</time>
      </trkpt>
      <trkpt lat="59.882147" lon="17.6354541">
        <ele>10.7118</ele>
        <time>2013-05-09T20:07:40Z</time>
      </trkpt>
      <trkpt lat="59.8822201" lon="17.6354441">
        <ele>11.1925</ele>
        <time>2013-05-09T20:07:41Z</time>
      </trkpt>
      <trkpt lat="59.8822935" lon="17.635439">
        <ele>11.1925</ele>
        <time>2013-05-09T20:07:42Z</time>
      </trkpt>
      <trkpt lat="59.8823697" lon="17.6354233">
        <ele>11.6732</ele>
        <time>2013-05-09T20:07:43Z</time>
      </trkpt>
      <trkpt lat="59.8824438" lon="17.6354182">
        <ele>12.1538</ele>
        <time>2013-05-09T20:07:44Z</time>
      </trkpt>
      <trkpt lat="59.8825158" lon="17.6354126">
        <ele>12.6344</ele>
        <time>2013-05-09T20:07:45Z</time>
      </trkpt>
      <trkpt lat="59.8825867" lon="17.6354079">
        <ele>12.6344</ele>
        <time>2013-05-09T20:07:46Z</time>
      </trkpt>
      <trkpt lat="59.8826593" lon="17.6354023">
        <ele>12.6344</ele>
        <time>2013-05-09T20:07:47Z</time>
      </trkpt>
      <trkpt lat="59.8827313" lon="17.635394">
        <ele>12.6344</ele>
        <time>2013-05-09T20:07:48Z</time>
      </trkpt>
      <trkpt lat="59.8828033" lon="17.6353867">
        <ele>12.1538</ele>
        <time>2013-05-09T20:07:49Z</time>
      </trkpt>
      <trkpt lat="59.8828733" lon="17.6353812">
        <ele>11.6732</ele>
        <time>2013-05-09T20:07:50Z</time>
      </trkpt>
      <trkpt lat="59.8829415" lon="17.63537">
        <ele>11.1925</ele>
        <time>2013-05-09T20:07:51Z</time>
      </trkpt>
      <trkpt lat="59.8830099" lon="17.6353576">
        <ele>10.7118</ele>
        <time>2013-05-09T20:07:52Z</time>
      </trkpt>
      <trkpt lat="59.8830786" lon="17.6353463">
        <ele>10.2312</ele>
        <time>2013-05-09T20:07:53Z</time>
      </trkpt>
      <trkpt lat="59.8831477" lon="17.6353368">
        <ele>9.75061</ele>
        <time>2013-05-09T20:07:54Z</time>
      </trkpt>
      <trkpt lat="59.8832162" lon="17.635329">
        <ele>8.78918</ele>
        <time>2013-05-09T20:07:55Z</time>
      </trkpt>
      <trkpt lat="59.8832839" lon="17.635323">
        <ele>8.30859</ele>
        <time>2013-05-09T20:07:56Z</time>
      </trkpt>
      <trkpt lat="59.8833465" lon="17.6353235">
        <ele>6.86646</ele>
        <time>2013-05-09T20:07:57Z</time>
      </trkpt>
      <trkpt lat="59.8834124" lon="17.6353277">
        <ele>6.38586</ele>
        <time>2013-05-09T20:07:58Z</time>
      </trkpt>
      <trkpt lat="59.8834783" lon="17.6353347">
        <ele>5.90527</ele>
        <time>2013-05-09T20:07:59Z</time>
      </trkpt>
      <trkpt lat="59.8835544" lon="17.635323">
        <ele>5.90527</ele>
        <time>2013-05-09T20:08:00Z</time>
      </trkpt>
      <trkpt lat="59.8836299" lon="17.6353189">
        <ele>5.90527</ele>
        <time>2013-05-09T20:08:01Z</time>
      </trkpt>
      <trkpt lat="59.8837041" lon="17.6353218">
        <ele>5.90527</ele>
        <time>2013-05-09T20:08:02Z</time>
      </trkpt>
      <trkpt lat="59.8837766" lon="17.6353302">
        <ele>5.90527</ele>
        <time>2013-05-09T20:08:03Z</time>
      </trkpt>
      <trkpt lat="59.8838477" lon="17.6353509">
        <ele>6.86646</ele>
        <time>2013-05-09T20:08:04Z</time>
      </trkpt>
      <trkpt lat="59.8839159" lon="17.6353781">
        <ele>7.34717</ele>
        <time>2013-05-09T20:08:05Z</time>
      </trkpt>
      <trkpt lat="59.8839884" lon="17.635399">
        <ele>7.82788</ele>
        <time>2013-05-09T20:08:06Z</time>
      </trkpt>
      <trkpt lat="59.8840599" lon="17.6354301">
        <ele>8.78918</ele>
        <time>2013-05-09T20:08:07Z</time>
      </trkpt>
      <trkpt lat="59.8841279" lon="17.6354653">
        <ele>9.2699</ele>
        <time>2013-05-09T20:08:08Z</time>
      </trkpt>
      <trkpt lat="59.8841984" lon="17.6354962">
        <ele>9.75061</ele>
        <time>2013-05-09T20:08:09Z</time>
      </trkpt>
      <trkpt lat="59.8842666" lon="17.6355367">
        <ele>10.7118</ele>
        <time>2013-05-09T20:08:10Z</time>
      </trkpt>
      <trkpt lat="59.8843331" lon="17.6355801">
        <ele>10.7118</ele>
        <time>2013-05-09T20:08:11Z</time>
      </trkpt>
      <trkpt lat="59.8843998" lon="17.6356216">
        <ele>11.1925</ele>
        <time>2013-05-09T20:08:12Z</time>
      </trkpt>
      <trkpt lat="59.8844665" lon="17.6356669">
        <ele>11.1925</ele>
        <time>2013-05-09T20:08:13Z</time>
      </trkpt>
      <trkpt lat="59.8845314" lon="17.6357195">
        <ele>11.6732</ele>
        <time>2013-05-09T20:08:14Z</time>
      </trkpt>
      <trkpt lat="59.8845949" lon="17.6357725">
        <ele>12.1538</ele>
        <time>2013-05-09T20:08:15Z</time>
      </trkpt>
      <trkpt lat="59.8846558" lon="17.635829">
        <ele>12.6344</ele>
        <time>2013-05-09T20:08:16Z</time>
      </trkpt>
      <trkpt lat="59.8847204" lon="17.6358834">
        <ele>13.5958</ele>
        <time>2013-05-09T20:08:17Z</time>
      </trkpt>
      <trkpt lat="59.8847836" lon="17.6359347">
        <ele>13.5958</ele>
        <time>2013-05-09T20:08:18Z</time>
      </trkpt>
      <trkpt lat="59.8848437" lon="17.6359923">
        <ele>13.5958</ele>
        <time>2013-05-09T20:08:19Z</time>
      </trkpt>
      <trkpt lat="59.8849064" lon="17.6360492">
        <ele>13.5958</ele>
        <time>2013-05-09T20:08:20Z</time>
      </trkpt>
      <trkpt lat="59.8849705" lon="17.6361066">
        <ele>14.0764</ele>
        <time>2013-05-09T20:08:21Z</time>
      </trkpt>
      <trkpt lat="59.8850354" lon="17.6361624">
        <ele>14.557</ele>
        <time>2013-05-09T20:08:22Z</time>
      </trkpt>
      <trkpt lat="59.8851037" lon="17.6362159">
        <ele>15.5184</ele>
        <time>2013-05-09T20:08:23Z</time>
      </trkpt>
      <trkpt lat="59.8851618" lon="17.636277">
        <ele>15.5184</ele>
        <time>2013-05-09T20:08:24Z</time>
      </trkpt>
      <trkpt lat="59.8852258" lon="17.6363383">
        <ele>16.4797</ele>
        <time>2013-05-09T20:08:25Z</time>
      </trkpt>
      <trkpt lat="59.88529" lon="17.6363961">
        <ele>16.9604</ele>
        <time>2013-05-09T20:08:26Z</time>
      </trkpt>
      <trkpt lat="59.8853533" lon="17.6364562">
        <ele>17.9218</ele>
        <time>2013-05-09T20:08:27Z</time>
      </trkpt>
      <trkpt lat="59.8854191" lon="17.6365127">
        <ele>18.8831</ele>
        <time>2013-05-09T20:08:28Z</time>
      </trkpt>
      <trkpt lat="59.8854859" lon="17.6365659">
        <ele>20.325</ele>
        <time>2013-05-09T20:08:29Z</time>
      </trkpt>
      <trkpt lat="59.8855528" lon="17.6366262">
        <ele>21.767</ele>
        <time>2013-05-09T20:08:30Z</time>
      </trkpt>
      <trkpt lat="59.8856131" lon="17.6366914">
        <ele>22.2476</ele>
        <time>2013-05-09T20:08:31Z</time>
      </trkpt>
      <trkpt lat="59.8856687" lon="17.636749">
        <ele>21.767</ele>
        <time>2013-05-09T20:08:32Z</time>
      </trkpt>
      <trkpt lat="59.8857258" lon="17.6368029">
        <ele>21.767</ele>
        <time>2013-05-09T20:08:33Z</time>
      </trkpt>
      <trkpt lat="59.8857833" lon="17.6368583">
        <ele>22.2476</ele>
        <time>2013-05-09T20:08:34Z</time>
      </trkpt>
      <trkpt lat="59.8858493" lon="17.6369137">
        <ele>23.209</ele>
        <time>2013-05-09T20:08:35Z</time>
      </trkpt>
      <trkpt lat="59.8859159" lon="17.6369671">
        <ele>24.1703</ele>
        <time>2013-05-09T20:08:36Z</time>
      </trkpt>
      <trkpt lat="59.8859795" lon="17.6370199">
        <ele>24.651</ele>
        <time>2013-05-09T20:08:37Z</time>
      </trkpt>
      <trkpt lat="59.8860433" lon="17.6370747">
        <ele>24.651</ele>
        <time>2013-05-09T20:08:38Z</time>
      </trkpt>
      <trkpt lat="59.8860995" lon="17.6371264">
        <ele>24.1703</ele>
        <time>2013-05-09T20:08:39Z</time>
      </trkpt>
      <trkpt lat="59.8861605" lon="17.6371721">
        <ele>23.6896</ele>
        <time>2013-05-09T20:08:40Z</time>
      </trkpt>
      <trkpt lat="59.8862212" lon="17.6372105">
        <ele>23.6896</ele>
        <time>2013-05-09T20:08:41Z</time>
      </trkpt>
      <trkpt lat="59.8862847" lon="17.6372513">
        <ele>23.6896</ele>
        <time>2013-05-09T20:08:42Z</time>
      </trkpt>
      <trkpt lat="59.8863393" lon="17.6372872">
        <ele>22.2476</ele>
        <time>2013-05-09T20:08:43Z</time>
      </trkpt>
      <trkpt lat="59.8863998" lon="17.6373193">
        <ele>22.2476</ele>
        <time>2013-05-09T20:08:44Z</time>
      </trkpt>
      <trkpt lat="59.8864634" lon="17.6373405">
        <ele>21.767</ele>
        <time>2013-05-09T20:08:45Z</time>
      </trkpt>
      <trkpt lat="59.8865356" lon="17.6373647">
        <ele>22.7283</ele>
        <time>2013-05-09T20:08:46Z</time>
      </trkpt>
      <trkpt lat="59.8866044" lon="17.6373876">
        <ele>23.209</ele>
        <time>2013-05-09T20:08:47Z</time>
      </trkpt>
      <trkpt lat="59.8866728" lon="17.6374129">
        <ele>23.209</ele>
        <time>2013-05-09T20:08:48Z</time>
      </trkpt>
      <trkpt lat="59.8867397" lon="17.6374441">
        <ele>22.7283</ele>
        <time>2013-05-09T20:08:49Z</time>
      </trkpt>
      <trkpt lat="59.8868064" lon="17.6374741">
        <ele>22.7283</ele>
        <time>2013-05-09T20:08:50Z</time>
      </trkpt>
      <trkpt lat="59.8868769" lon="17.6375119">
        <ele>23.209</ele>
        <time>2013-05-09T20:08:51Z</time>
      </trkpt>
      <trkpt lat="59.8869506" lon="17.6375427">
        <ele>23.6896</ele>
        <time>2013-05-09T20:08:52Z</time>
      </trkpt>
      <trkpt lat="59.8870163" lon="17.637571">
        <ele>23.209</ele>
        <time>2013-05-09T20:08:53Z</time>
      </trkpt>
      <trkpt lat="59.8870842" lon="17.637603">
        <ele>23.209</ele>
        <time>2013-05-09T20:08:54Z</time>
      </trkpt>
      <trkpt lat="59.8871502" lon="17.6376373">
        <ele>23.209</ele>
        <time>2013-05-09T20:08:55Z</time>
      </trkpt>
      <trkpt lat="59.8872183" lon="17.6376736">
        <ele>23.6896</ele>
        <time>2013-05-09T20:08:56Z</time>
      </trkpt>
      <trkpt lat="59.8872864" lon="17.6377083">
        <ele>23.6896</ele>
        <time>2013-05-09T20:08:57Z</time>
      </trkpt>
      <trkpt lat="59.8873519" lon="17.637742">
        <ele>23.209</ele>
        <time>2013-05-09T20:08:58Z</time>
      </trkpt>
      <trkpt lat="59.8874162" lon="17.6377757">
        <ele>22.7283</ele>
        <time>2013-05-09T20:08:59Z</time>
      </trkpt>
      <trkpt lat="59.8874836" lon="17.6378086">
        <ele>23.209</ele>
        <time>2013-05-09T20:09:00Z</time>
      </trkpt>
      <trkpt lat="59.887553" lon="17.6378395">
        <ele>23.209</ele>
        <time>2013-05-09T20:09:01Z</time>
      </trkpt>
      <trkpt lat="59.8876191" lon="17.6378649">
        <ele>22.7283</ele>
        <time>2013-05-09T20:09:02Z</time>
      </trkpt>
      <trkpt lat="59.8876864" lon="17.637886">
        <ele>22.7283</ele>
        <time>2013-05-09T20:09:03Z</time>
      </trkpt>
      <trkpt lat="59.8877528" lon="17.637907">
        <ele>22.7283</ele>
        <time>2013-05-09T20:09:04Z</time>
      </trkpt>
      <trkpt lat="59.8878273" lon="17.6379275">
        <ele>23.6896</ele>
        <time>2013-05-09T20:09:05Z</time>
      </trkpt>
      <trkpt lat="59.8879015" lon="17.6379465">
        <ele>24.1703</ele>
        <time>2013-05-09T20:09:06Z</time>
      </trkpt>
      <trkpt lat="59.8879738" lon="17.6379606">
        <ele>24.1703</ele>
        <time>2013-05-09T20:09:07Z</time>
      </trkpt>
      <trkpt lat="59.8880467" lon="17.6379719">
        <ele>24.1703</ele>
        <time>2013-05-09T20:09:08Z</time>
      </trkpt>
      <trkpt lat="59.8881197" lon="17.6379797">
        <ele>24.1703</ele>
        <time>2013-05-09T20:09:09Z</time>
      </trkpt>
      <trkpt lat="59.8881926" lon="17.6379832">
        <ele>24.1703</ele>
        <time>2013-05-09T20:09:10Z</time>
      </trkpt>
      <trkpt lat="59.8882668" lon="17.6379844">
        <ele>24.1703</ele>
        <time>2013-05-09T20:09:11Z</time>
      </trkpt>
      <trkpt lat="59.8883398" lon="17.6379809">
        <ele>24.1703</ele>
        <time>2013-05-09T20:09:12Z</time>
      </trkpt>
      <trkpt lat="59.8884159" lon="17.6379741">
        <ele>25.1317</ele>
        <time>2013-05-09T20:09:13Z</time>
      </trkpt>
      <trkpt lat="59.8884883" lon="17.6379666">
        <ele>25.1317</ele>
        <time>2013-05-09T20:09:14Z</time>
      </trkpt>
      <trkpt lat="59.8885618" lon="17.6379568">
        <ele>24.651</ele>
        <time>2013-05-09T20:09:15Z</time>
      </trkpt>
      <trkpt lat="59.8886371" lon="17.6379483">
        <ele>25.1317</ele>
        <time>2013-05-09T20:09:16Z</time>
      </trkpt>
      <trkpt lat="59.8887132" lon="17.6379425">
        <ele>25.1317</ele>
        <time>2013-05-09T20:09:17Z</time>
      </trkpt>
      <trkpt lat="59.888789" lon="17.6379395">
        <ele>25.1317</ele>
        <time>2013-05-09T20:09:18Z</time>
      </trkpt>
      <trkpt lat="59.8888655" lon="17.6379383">
        <ele>25.1317</ele>
        <time>2013-05-09T20:09:19Z</time>
      </trkpt>
      <trkpt lat="59.8889426" lon="17.6379397">
        <ele>25.6123</ele>
        <time>2013-05-09T20:09:20Z</time>
      </trkpt>
      <trkpt lat="59.8890241" lon="17.6379338">
        <ele>26.0929</ele>
        <time>2013-05-09T20:09:21Z</time>
      </trkpt>
      <trkpt lat="59.8891024" lon="17.637936">
        <ele>25.6123</ele>
        <time>2013-05-09T20:09:22Z</time>
      </trkpt>
      <trkpt lat="59.8891823" lon="17.6379448">
        <ele>25.6123</ele>
        <time>2013-05-09T20:09:23Z</time>
      </trkpt>
      <trkpt lat="59.8892613" lon="17.6379611">
        <ele>25.6123</ele>
        <time>2013-05-09T20:09:24Z</time>
      </trkpt>
      <trkpt lat="59.8893406" lon="17.637979">
        <ele>25.1317</ele>
        <time>2013-05-09T20:09:25Z</time>
      </trkpt>
      <trkpt lat="59.8894206" lon="17.6380018">
        <ele>25.1317</ele>
        <time>2013-05-09T20:09:26Z</time>
      </trkpt>
      <trkpt lat="59.8894989" lon="17.6380254">
        <ele>25.1317</ele>
        <time>2013-05-09T20:09:27Z</time>
      </trkpt>
      <trkpt lat="59.8895773" lon="17.638049">
        <ele>25.1317</ele>
        <time>2013-05-09T20:09:28Z</time>
      </trkpt>
      <trkpt lat="59.8896514" lon="17.6380752">
        <ele>24.651</ele>
        <time>2013-05-09T20:09:29Z</time>
      </trkpt>
      <trkpt lat="59.8897268" lon="17.6381057">
        <ele>24.651</ele>
        <time>2013-05-09T20:09:30Z</time>
      </trkpt>
      <trkpt lat="59.8898026" lon="17.6381393">
        <ele>24.651</ele>
        <time>2013-05-09T20:09:31Z</time>
      </trkpt>
      <trkpt lat="59.8898786" lon="17.6381717">
        <ele>24.651</ele>
        <time>2013-05-09T20:09:32Z</time>
      </trkpt>
      <trkpt lat="59.889954" lon="17.6382054">
        <ele>24.1703</ele>
        <time>2013-05-09T20:09:33Z</time>
      </trkpt>
      <trkpt lat="59.8900306" lon="17.6382404">
        <ele>24.1703</ele>
        <time>2013-05-09T20:09:34Z</time>
      </trkpt>
      <trkpt lat="59.8901066" lon="17.6382712">
        <ele>24.1703</ele>
        <time>2013-05-09T20:09:35Z</time>
      </trkpt>
      <trkpt lat="59.8901804" lon="17.638302">
        <ele>24.1703</ele>
        <time>2013-05-09T20:09:36Z</time>
      </trkpt>
      <trkpt lat="59.8902541" lon="17.6383341">
        <ele>24.1703</ele>
        <time>2013-05-09T20:09:37Z</time>
      </trkpt>
      <trkpt lat="59.8903277" lon="17.6383642">
        <ele>24.1703</ele>
        <time>2013-05-09T20:09:38Z</time>
      </trkpt>
      <trkpt lat="59.8904091" lon="17.6383865">
        <ele>25.1317</ele>
        <time>2013-05-09T20:09:39Z</time>
      </trkpt>
      <trkpt lat="59.8904886" lon="17.6384064">
        <ele>26.0929</ele>
        <time>2013-05-09T20:09:40Z</time>
      </trkpt>
      <trkpt lat="59.8905631" lon="17.6384263">
        <ele>26.5736</ele>
        <time>2013-05-09T20:09:41Z</time>
      </trkpt>
      <trkpt lat="59.8906377" lon="17.6384481">
        <ele>27.5349</ele>
        <time>2013-05-09T20:09:42Z</time>
      </trkpt>
      <trkpt lat="59.8907103" lon="17.6384655">
        <ele>28.0155</ele>
        <time>2013-05-09T20:09:43Z</time>
      </trkpt>
      <trkpt lat="59.8907853" lon="17.6384768">
        <ele>28.9769</ele>
        <time>2013-05-09T20:09:44Z</time>
      </trkpt>
      <trkpt lat="59.8908602" lon="17.6384863">
        <ele>29.9381</ele>
        <time>2013-05-09T20:09:45Z</time>
      </trkpt>
      <trkpt lat="59.8909319" lon="17.6384937">
        <ele>29.9381</ele>
        <time>2013-05-09T20:09:46Z</time>
      </trkpt>
      <trkpt lat="59.8910029" lon="17.6385014">
        <ele>29.9381</ele>
        <time>2013-05-09T20:09:47Z</time>
      </trkpt>
      <trkpt lat="59.8910742" lon="17.6385093">
        <ele>29.9381</ele>
        <time>2013-05-09T20:09:48Z</time>
      </trkpt>
      <trkpt lat="59.8911444" lon="17.6385163">
        <ele>29.9381</ele>
        <time>2013-05-09T20:09:49Z</time>
      </trkpt>
      <trkpt lat="59.8912138" lon="17.6385227">
        <ele>29.9381</ele>
        <time>2013-05-09T20:09:50Z</time>
      </trkpt>
      <trkpt lat="59.891281" lon="17.638529">
        <ele>29.4575</ele>
        <time>2013-05-09T20:09:51Z</time>
      </trkpt>
      <trkpt lat="59.8913518" lon="17.6385371">
        <ele>29.4575</ele>
        <time>2013-05-09T20:09:52Z</time>
      </trkpt>
      <trkpt lat="59.891426" lon="17.6385386">
        <ele>29.4575</ele>
        <time>2013-05-09T20:09:53Z</time>
      </trkpt>
      <trkpt lat="59.8915025" lon="17.6385374">
        <ele>29.9381</ele>
        <time>2013-05-09T20:09:54Z</time>
      </trkpt>
      <trkpt lat="59.8915804" lon="17.6385361">
        <ele>30.8995</ele>
        <time>2013-05-09T20:09:55Z</time>
      </trkpt>
      <trkpt lat="59.8916571" lon="17.6385315">
        <ele>32.3416</ele>
        <time>2013-05-09T20:09:56Z</time>
      </trkpt>
      <trkpt lat="59.8917315" lon="17.638524">
        <ele>32.3416</ele>
        <time>2013-05-09T20:09:57Z</time>
      </trkpt>
      <trkpt lat="59.8918031" lon="17.6385184">
        <ele>33.3029</ele>
        <time>2013-05-09T20:09:58Z</time>
      </trkpt>
      <trkpt lat="59.8918735" lon="17.6385117">
        <ele>34.2642</ele>
        <time>2013-05-09T20:09:59Z</time>
      </trkpt>
      <trkpt lat="59.8919428" lon="17.6385041">
        <ele>34.7449</ele>
        <time>2013-05-09T20:10:00Z</time>
      </trkpt>
      <trkpt lat="59.892013" lon="17.638495">
        <ele>35.2255</ele>
        <time>2013-05-09T20:10:01Z</time>
      </trkpt>
      <trkpt lat="59.8920809" lon="17.6384841">
        <ele>34.7449</ele>
        <time>2013-05-09T20:10:02Z</time>
      </trkpt>
      <trkpt lat="59.8921476" lon="17.6384689">
        <ele>34.7449</ele>
        <time>2013-05-09T20:10:03Z</time>
      </trkpt>
      <trkpt lat="59.8922122" lon="17.6384528">
        <ele>34.7449</ele>
        <time>2013-05-09T20:10:04Z</time>
      </trkpt>
      <trkpt lat="59.8922751" lon="17.6384366">
        <ele>34.7449</ele>
        <time>2013-05-09T20:10:05Z</time>
      </trkpt>
      <trkpt lat="59.8923382" lon="17.6384205">
        <ele>34.7449</ele>
        <time>2013-05-09T20:10:06Z</time>
      </trkpt>
      <trkpt lat="59.8924014" lon="17.6384062">
        <ele>34.2642</ele>
        <time>2013-05-09T20:10:07Z</time>
      </trkpt>
      <trkpt lat="59.892462" lon="17.6383938">
        <ele>34.2642</ele>
        <time>2013-05-09T20:10:08Z</time>
      </trkpt>
      <trkpt lat="59.8925216" lon="17.6383841">
        <ele>34.2642</ele>
        <time>2013-05-09T20:10:09Z</time>
      </trkpt>
      <trkpt lat="59.8925807" lon="17.63838">
        <ele>34.7449</ele>
        <time>2013-05-09T20:10:10Z</time>
      </trkpt>
      <trkpt lat="59.8926372" lon="17.6383886">
        <ele>34.7449</ele>
        <time>2013-05-09T20:10:11Z</time>
      </trkpt>
      <trkpt lat="59.8926921" lon="17.6384014">
        <ele>34.7449</ele>
        <time>2013-05-09T20:10:12Z</time>
      </trkpt>
      <trkpt lat="59.8927445" lon="17.6383926">
        <ele>34.7449</ele>
        <time>2013-05-09T20:10:13Z</time>
      </trkpt>
      <trkpt lat="59.8927949" lon="17.6383603">
        <ele>34.7449</ele>
        <time>2013-05-09T20:10:14Z</time>
      </trkpt>
      <trkpt lat="59.8928439" lon="17.6383218">
        <ele>34.2642</ele>
        <time>2013-05-09T20:10:15Z</time>
      </trkpt>
      <trkpt lat="59.8928927" lon="17.6382865">
        <ele>34.2642</ele>
        <time>2013-05-09T20:10:16Z</time>
      </trkpt>
      <trkpt lat="59.8929412" lon="17.6382573">
        <ele>34.2642</ele>
        <time>2013-05-09T20:10:17Z</time>
      </trkpt>
      <trkpt lat="59.8929902" lon="17.6382306">
        <ele>33.7834</ele>
        <time>2013-05-09T20:10:18Z</time>
      </trkpt>
      <trkpt lat="59.8930385" lon="17.6382029">
        <ele>33.7834</ele>
        <time>2013-05-09T20:10:19Z</time>
      </trkpt>
      <trkpt lat="59.8930854" lon="17.6381741">
        <ele>33.7834</ele>
        <time>2013-05-09T20:10:20Z</time>
      </trkpt>
      <trkpt lat="59.8931328" lon="17.6381459">
        <ele>33.3029</ele>
        <time>2013-05-09T20:10:21Z</time>
      </trkpt>
      <trkpt lat="59.8931836" lon="17.6381186">
        <ele>33.7834</ele>
        <time>2013-05-09T20:10:22Z</time>
      </trkpt>
      <trkpt lat="59.893234" lon="17.638089">
        <ele>33.7834</ele>
        <time>2013-05-09T20:10:23Z</time>
      </trkpt>
      <trkpt lat="59.893285" lon="17.6380595">
        <ele>33.7834</ele>
        <time>2013-05-09T20:10:24Z</time>
      </trkpt>
      <trkpt lat="59.8933375" lon="17.6380301">
        <ele>33.7834</ele>
        <time>2013-05-09T20:10:25Z</time>
      </trkpt>
      <trkpt lat="59.8933938" lon="17.6379964">
        <ele>34.2642</ele>
        <time>2013-05-09T20:10:26Z</time>
      </trkpt>
      <trkpt lat="59.893449" lon="17.6379652">
        <ele>34.7449</ele>
        <time>2013-05-09T20:10:27Z</time>
      </trkpt>
      <trkpt lat="59.8935077" lon="17.6379352">
        <ele>35.2255</ele>
        <time>2013-05-09T20:10:28Z</time>
      </trkpt>
      <trkpt lat="59.893567" lon="17.6379035">
        <ele>35.2255</ele>
        <time>2013-05-09T20:10:29Z</time>
      </trkpt>
      <trkpt lat="59.8936266" lon="17.6378703">
        <ele>35.2255</ele>
        <time>2013-05-09T20:10:30Z</time>
      </trkpt>
      <trkpt lat="59.8936852" lon="17.6378326">
        <ele>35.2255</ele>
        <time>2013-05-09T20:10:31Z</time>
      </trkpt>
      <trkpt lat="59.8937431" lon="17.6377908">
        <ele>35.2255</ele>
        <time>2013-05-09T20:10:32Z</time>
      </trkpt>
      <trkpt lat="59.8938006" lon="17.6377478">
        <ele>35.2255</ele>
        <time>2013-05-09T20:10:33Z</time>
      </trkpt>
      <trkpt lat="59.8938579" lon="17.637705">
        <ele>34.7449</ele>
        <time>2013-05-09T20:10:34Z</time>
      </trkpt>
      <trkpt lat="59.8939161" lon="17.6376577">
        <ele>34.2642</ele>
        <time>2013-05-09T20:10:35Z</time>
      </trkpt>
      <trkpt lat="59.8939747" lon="17.63761">
        <ele>33.7834</ele>
        <time>2013-05-09T20:10:36Z</time>
      </trkpt>
      <trkpt lat="59.8940352" lon="17.6375641">
        <ele>33.7834</ele>
        <time>2013-05-09T20:10:37Z</time>
      </trkpt>
      <trkpt lat="59.8940973" lon="17.6375181">
        <ele>33.3029</ele>
        <time>2013-05-09T20:10:38Z</time>
      </trkpt>
      <trkpt lat="59.894161" lon="17.637473">
        <ele>33.3029</ele>
        <time>2013-05-09T20:10:39Z</time>
      </trkpt>
      <trkpt lat="59.8942252" lon="17.6374276">
        <ele>33.3029</ele>
        <time>2013-05-09T20:10:40Z</time>
      </trkpt>
      <trkpt lat="59.8942891" lon="17.6373825">
        <ele>33.3029</ele>
        <time>2013-05-09T20:10:41Z</time>
      </trkpt>
      <trkpt lat="59.8943527" lon="17.6373395">
        <ele>33.3029</ele>
        <time>2013-05-09T20:10:42Z</time>
      </trkpt>
      <trkpt lat="59.8944169" lon="17.6372981">
        <ele>33.3029</ele>
        <time>2013-05-09T20:10:43Z</time>
      </trkpt>
      <trkpt lat="59.8944824" lon="17.6372571">
        <ele>33.3029</ele>
        <time>2013-05-09T20:10:44Z</time>
      </trkpt>
      <trkpt lat="59.8945466" lon="17.6372167">
        <ele>32.8223</ele>
        <time>2013-05-09T20:10:45Z</time>
      </trkpt>
      <trkpt lat="59.8946119" lon="17.6371761">
        <ele>32.3416</ele>
        <time>2013-05-09T20:10:46Z</time>
      </trkpt>
      <trkpt lat="59.8946815" lon="17.6371381">
        <ele>32.3416</ele>
        <time>2013-05-09T20:10:47Z</time>
      </trkpt>
      <trkpt lat="59.8947485" lon="17.6370981">
        <ele>32.3416</ele>
        <time>2013-05-09T20:10:48Z</time>
      </trkpt>
      <trkpt lat="59.894816" lon="17.6370572">
        <ele>32.3416</ele>
        <time>2013-05-09T20:10:49Z</time>
      </trkpt>
      <trkpt lat="59.8948828" lon="17.6370162">
        <ele>32.3416</ele>
        <time>2013-05-09T20:10:50Z</time>
      </trkpt>
      <trkpt lat="59.8949507" lon="17.6369736">
        <ele>32.8223</ele>
        <time>2013-05-09T20:10:51Z</time>
      </trkpt>
      <trkpt lat="59.8950204" lon="17.6369261">
        <ele>33.3029</ele>
        <time>2013-05-09T20:10:52Z</time>
      </trkpt>
      <trkpt lat="59.8950842" lon="17.6368769">
        <ele>32.8223</ele>
        <time>2013-05-09T20:10:53Z</time>
      </trkpt>
      <trkpt lat="59.8951489" lon="17.6368298">
        <ele>32.8223</ele>
        <time>2013-05-09T20:10:54Z</time>
      </trkpt>
      <trkpt lat="59.8952141" lon="17.6367832">
        <ele>32.8223</ele>
        <time>2013-05-09T20:10:55Z</time>
      </trkpt>
      <trkpt lat="59.8952795" lon="17.6367355">
        <ele>33.3029</ele>
        <time>2013-05-09T20:10:56Z</time>
      </trkpt>
      <trkpt lat="59.8953449" lon="17.6366894">
        <ele>32.8223</ele>
        <time>2013-05-09T20:10:57Z</time>
      </trkpt>
      <trkpt lat="59.895414" lon="17.6366464">
        <ele>32.8223</ele>
        <time>2013-05-09T20:10:58Z</time>
      </trkpt>
      <trkpt lat="59.8954827" lon="17.6366071">
        <ele>33.3029</ele>
        <time>2013-05-09T20:10:59Z</time>
      </trkpt>
      <trkpt lat="59.8955504" lon="17.6365697">
        <ele>33.3029</ele>
        <time>2013-05-09T20:11:00Z</time>
      </trkpt>
      <trkpt lat="59.8956184" lon="17.6365353">
        <ele>33.3029</ele>
        <time>2013-05-09T20:11:01Z</time>
      </trkpt>
      <trkpt lat="59.895688" lon="17.6365055">
        <ele>33.3029</ele>
        <time>2013-05-09T20:11:02Z</time>
      </trkpt>
      <trkpt lat="59.8957577" lon="17.6364832">
        <ele>33.7834</ele>
        <time>2013-05-09T20:11:03Z</time>
      </trkpt>
      <trkpt lat="59.8958286" lon="17.6364692">
        <ele>34.7449</ele>
        <time>2013-05-09T20:11:04Z</time>
      </trkpt>
      <trkpt lat="59.895901" lon="17.6364652">
        <ele>35.2255</ele>
        <time>2013-05-09T20:11:05Z</time>
      </trkpt>
      <trkpt lat="59.8959773" lon="17.6364692">
        <ele>36.6675</ele>
        <time>2013-05-09T20:11:06Z</time>
      </trkpt>
      <trkpt lat="59.8960508" lon="17.6364853">
        <ele>37.6287</ele>
        <time>2013-05-09T20:11:07Z</time>
      </trkpt>
      <trkpt lat="59.8961302" lon="17.636509">
        <ele>39.0707</ele>
        <time>2013-05-09T20:11:08Z</time>
      </trkpt>
      <trkpt lat="59.8962133" lon="17.6365365">
        <ele>41.9547</ele>
        <time>2013-05-09T20:11:09Z</time>
      </trkpt>
      <trkpt lat="59.8962933" lon="17.6365704">
        <ele>43.8773</ele>
        <time>2013-05-09T20:11:10Z</time>
      </trkpt>
      <trkpt lat="59.896368" lon="17.6366115">
        <ele>45.3192</ele>
        <time>2013-05-09T20:11:11Z</time>
      </trkpt>
      <trkpt lat="59.8964435" lon="17.6366525">
        <ele>46.7612</ele>
        <time>2013-05-09T20:11:12Z</time>
      </trkpt>
      <trkpt lat="59.8965169" lon="17.6366908">
        <ele>47.7225</ele>
        <time>2013-05-09T20:11:13Z</time>
      </trkpt>
      <trkpt lat="59.8965899" lon="17.6367282">
        <ele>49.1646</ele>
        <time>2013-05-09T20:11:14Z</time>
      </trkpt>
      <trkpt lat="59.8966637" lon="17.6367635">
        <ele>50.126</ele>
        <time>2013-05-09T20:11:15Z</time>
      </trkpt>
      <trkpt lat="59.896738" lon="17.6367971">
        <ele>51.0872</ele>
        <time>2013-05-09T20:11:16Z</time>
      </trkpt>
      <trkpt lat="59.8968121" lon="17.6368318">
        <ele>52.0486</ele>
        <time>2013-05-09T20:11:17Z</time>
      </trkpt>
      <trkpt lat="59.8968859" lon="17.6368663">
        <ele>52.5292</ele>
        <time>2013-05-09T20:11:18Z</time>
      </trkpt>
      <trkpt lat="59.8969603" lon="17.6369002">
        <ele>53.0098</ele>
        <time>2013-05-09T20:11:19Z</time>
      </trkpt>
      <trkpt lat="59.8970352" lon="17.636937">
        <ele>53.4905</ele>
        <time>2013-05-09T20:11:20Z</time>
      </trkpt>
      <trkpt lat="59.8971107" lon="17.6369738">
        <ele>53.9712</ele>
        <time>2013-05-09T20:11:21Z</time>
      </trkpt>
      <trkpt lat="59.8971858" lon="17.6370059">
        <ele>53.9712</ele>
        <time>2013-05-09T20:11:22Z</time>
      </trkpt>
      <trkpt lat="59.8972609" lon="17.6370395">
        <ele>53.9712</ele>
        <time>2013-05-09T20:11:23Z</time>
      </trkpt>
      <trkpt lat="59.8973355" lon="17.6370818">
        <ele>53.9712</ele>
        <time>2013-05-09T20:11:24Z</time>
      </trkpt>
      <trkpt lat="59.8974137" lon="17.6371153">
        <ele>53.9712</ele>
        <time>2013-05-09T20:11:25Z</time>
      </trkpt>
      <trkpt lat="59.8974904" lon="17.637159">
        <ele>53.4905</ele>
        <time>2013-05-09T20:11:26Z</time>
      </trkpt>
      <trkpt lat="59.8975672" lon="17.6372016">
        <ele>53.0098</ele>
        <time>2013-05-09T20:11:27Z</time>
      </trkpt>
      <trkpt lat="59.8976432" lon="17.6372488">
        <ele>52.5292</ele>
        <time>2013-05-09T20:11:28Z</time>
      </trkpt>
      <trkpt lat="59.8977176" lon="17.6372995">
        <ele>51.5679</ele>
        <time>2013-05-09T20:11:29Z</time>
      </trkpt>
      <trkpt lat="59.8977877" lon="17.6373747">
        <ele>50.6066</ele>
        <time>2013-05-09T20:11:30Z</time>
      </trkpt>
      <trkpt lat="59.8978529" lon="17.6374665">
        <ele>50.126</ele>
        <time>2013-05-09T20:11:31Z</time>
      </trkpt>
      <trkpt lat="59.897912" lon="17.6375691">
        <ele>49.1646</ele>
        <time>2013-05-09T20:11:32Z</time>
      </trkpt>
      <trkpt lat="59.8979683" lon="17.6376724">
        <ele>48.2034</ele>
        <time>2013-05-09T20:11:33Z</time>
      </trkpt>
      <trkpt lat="59.8980265" lon="17.637767">
        <ele>47.2418</ele>
        <time>2013-05-09T20:11:34Z</time>
      </trkpt>
      <trkpt lat="59.8980886" lon="17.6378503">
        <ele>46.2806</ele>
        <time>2013-05-09T20:11:35Z</time>
      </trkpt>
      <trkpt lat="59.8981535" lon="17.6379238">
        <ele>45.7999</ele>
        <time>2013-05-09T20:11:36Z</time>
      </trkpt>
      <trkpt lat="59.8982211" lon="17.6379896">
        <ele>44.8386</ele>
        <time>2013-05-09T20:11:37Z</time>
      </trkpt>
      <trkpt lat="59.8982902" lon="17.6380511">
        <ele>43.8773</ele>
        <time>2013-05-09T20:11:38Z</time>
      </trkpt>
      <trkpt lat="59.8983596" lon="17.6381109">
        <ele>43.3966</ele>
        <time>2013-05-09T20:11:39Z</time>
      </trkpt>
      <trkpt lat="59.898428" lon="17.6381697">
        <ele>42.4354</ele>
        <time>2013-05-09T20:11:40Z</time>
      </trkpt>
      <trkpt lat="59.898496" lon="17.6382243">
        <ele>41.474</ele>
        <time>2013-05-09T20:11:41Z</time>
      </trkpt>
      <trkpt lat="59.8985663" lon="17.6382676">
        <ele>40.9934</ele>
        <time>2013-05-09T20:11:42Z</time>
      </trkpt>
      <trkpt lat="59.89864" lon="17.6382898">
        <ele>40.0321</ele>
        <time>2013-05-09T20:11:43Z</time>
      </trkpt>
      <trkpt lat="59.8987163" lon="17.6382896">
        <ele>39.5513</ele>
        <time>2013-05-09T20:11:44Z</time>
      </trkpt>
      <trkpt lat="59.8987957" lon="17.6382884">
        <ele>39.0707</ele>
        <time>2013-05-09T20:11:45Z</time>
      </trkpt>
      <trkpt lat="59.8988731" lon="17.6383066">
        <ele>38.1094</ele>
        <time>2013-05-09T20:11:46Z</time>
      </trkpt>
      <trkpt lat="59.8989471" lon="17.6383433">
        <ele>36.1868</ele>
        <time>2013-05-09T20:11:47Z</time>
      </trkpt>
      <trkpt lat="59.8990179" lon="17.6383927">
        <ele>34.7449</ele>
        <time>2013-05-09T20:11:48Z</time>
      </trkpt>
      <trkpt lat="59.8990874" lon="17.6384518">
        <ele>33.3029</ele>
        <time>2013-05-09T20:11:49Z</time>
      </trkpt>
      <trkpt lat="59.8991504" lon="17.6385226">
        <ele>31.3801</ele>
        <time>2013-05-09T20:11:50Z</time>
      </trkpt>
      <trkpt lat="59.8992185" lon="17.6385915">
        <ele>30.8995</ele>
        <time>2013-05-09T20:11:51Z</time>
      </trkpt>
      <trkpt lat="59.8992817" lon="17.6386597">
        <ele>29.9381</ele>
        <time>2013-05-09T20:11:52Z</time>
      </trkpt>
      <trkpt lat="59.899349" lon="17.638733">
        <ele>28.9769</ele>
        <time>2013-05-09T20:11:53Z</time>
      </trkpt>
      <trkpt lat="59.89942" lon="17.6388078">
        <ele>28.0155</ele>
        <time>2013-05-09T20:11:54Z</time>
      </trkpt>
      <trkpt lat="59.8994921" lon="17.6388827">
        <ele>28.0155</ele>
        <time>2013-05-09T20:11:55Z</time>
      </trkpt>
      <trkpt lat="59.8995638" lon="17.6389573">
        <ele>27.5349</ele>
        <time>2013-05-09T20:11:56Z</time>
      </trkpt>
      <trkpt lat="59.8996355" lon="17.6390322">
        <ele>27.0543</ele>
        <time>2013-05-09T20:11:57Z</time>
      </trkpt>
      <trkpt lat="59.8997084" lon="17.6391">
        <ele>26.5736</ele>
        <time>2013-05-09T20:11:58Z</time>
      </trkpt>
      <trkpt lat="59.8997798" lon="17.639165">
        <ele>26.0929</ele>
        <time>2013-05-09T20:11:59Z</time>
      </trkpt>
      <trkpt lat="59.8998542" lon="17.6392293">
        <ele>26.5736</ele>
        <time>2013-05-09T20:12:00Z</time>
      </trkpt>
      <trkpt lat="59.899925" lon="17.6392986">
        <ele>26.0929</ele>
        <time>2013-05-09T20:12:01Z</time>
      </trkpt>
      <trkpt lat="59.8999971" lon="17.6393701">
        <ele>25.6123</ele>
        <time>2013-05-09T20:12:02Z</time>
      </trkpt>
      <trkpt lat="59.9000686" lon="17.6394436">
        <ele>25.1317</ele>
        <time>2013-05-09T20:12:03Z</time>
      </trkpt>
      <trkpt lat="59.9001396" lon="17.6395175">
        <ele>24.651</ele>
        <time>2013-05-09T20:12:04Z</time>
      </trkpt>
      <trkpt lat="59.9002142" lon="17.6395918">
        <ele>24.1703</ele>
        <time>2013-05-09T20:12:05Z</time>
      </trkpt>
      <trkpt lat="59.9002904" lon="17.6396673">
        <ele>24.1703</ele>
        <time>2013-05-09T20:12:06Z</time>
      </trkpt>
      <trkpt lat="59.9003657" lon="17.6397425">
        <ele>24.1703</ele>
        <time>2013-05-09T20:12:07Z</time>
      </trkpt>
      <trkpt lat="59.9004406" lon="17.6398166">
        <ele>24.1703</ele>
        <time>2013-05-09T20:12:08Z</time>
      </trkpt>
      <trkpt lat="59.9005154" lon="17.6398895">
        <ele>24.1703</ele>
        <time>2013-05-09T20:12:09Z</time>
      </trkpt>
      <trkpt lat="59.9005849" lon="17.639963">
        <ele>22.7283</ele>
        <time>2013-05-09T20:12:10Z</time>
      </trkpt>
      <trkpt lat="59.9006611" lon="17.6400361">
        <ele>23.209</ele>
        <time>2013-05-09T20:12:11Z</time>
      </trkpt>
      <trkpt lat="59.9007341" lon="17.6401107">
        <ele>22.2476</ele>
        <time>2013-05-09T20:12:12Z</time>
      </trkpt>
      <trkpt lat="59.9008088" lon="17.6401838">
        <ele>22.7283</ele>
        <time>2013-05-09T20:12:13Z</time>
      </trkpt>
      <trkpt lat="59.9008821" lon="17.6402562">
        <ele>22.2476</ele>
        <time>2013-05-09T20:12:14Z</time>
      </trkpt>
      <trkpt lat="59.9009515" lon="17.6403274">
        <ele>21.767</ele>
        <time>2013-05-09T20:12:15Z</time>
      </trkpt>
      <trkpt lat="59.9010231" lon="17.6403979">
        <ele>21.2864</ele>
        <time>2013-05-09T20:12:16Z</time>
      </trkpt>
      <trkpt lat="59.901095" lon="17.6404682">
        <ele>21.2864</ele>
        <time>2013-05-09T20:12:17Z</time>
      </trkpt>
      <trkpt lat="59.901165" lon="17.6405366">
        <ele>21.2864</ele>
        <time>2013-05-09T20:12:18Z</time>
      </trkpt>
      <trkpt lat="59.9012346" lon="17.6406015">
        <ele>21.2864</ele>
        <time>2013-05-09T20:12:19Z</time>
      </trkpt>
      <trkpt lat="59.9013034" lon="17.6406668">
        <ele>21.2864</ele>
        <time>2013-05-09T20:12:20Z</time>
      </trkpt>
      <trkpt lat="59.9013711" lon="17.6407321">
        <ele>21.2864</ele>
        <time>2013-05-09T20:12:21Z</time>
      </trkpt>
      <trkpt lat="59.9014387" lon="17.6407957">
        <ele>21.2864</ele>
        <time>2013-05-09T20:12:22Z</time>
      </trkpt>
      <trkpt lat="59.9015056" lon="17.6408579">
        <ele>21.2864</ele>
        <time>2013-05-09T20:12:23Z</time>
      </trkpt>
      <trkpt lat="59.9015713" lon="17.6409195">
        <ele>21.2864</ele>
        <time>2013-05-09T20:12:24Z</time>
      </trkpt>
      <trkpt lat="59.901636" lon="17.6409796">
        <ele>21.2864</ele>
        <time>2013-05-09T20:12:25Z</time>
      </trkpt>
      <trkpt lat="59.9017002" lon="17.6410369">
        <ele>21.2864</ele>
        <time>2013-05-09T20:12:26Z</time>
      </trkpt>
      <trkpt lat="59.901764" lon="17.64109">
        <ele>21.2864</ele>
        <time>2013-05-09T20:12:27Z</time>
      </trkpt>
      <trkpt lat="59.9018272" lon="17.6411422">
        <ele>21.767</ele>
        <time>2013-05-09T20:12:28Z</time>
      </trkpt>
      <trkpt lat="59.9018886" lon="17.6411948">
        <ele>21.767</ele>
        <time>2013-05-09T20:12:29Z</time>
      </trkpt>
      <trkpt lat="59.9019497" lon="17.6412437">
        <ele>21.767</ele>
        <time>2013-05-09T20:12:30Z</time>
      </trkpt>
      <trkpt lat="59.902011" lon="17.6412876">
        <ele>21.767</ele>
        <time>2013-05-09T20:12:31Z</time>
      </trkpt>
      <trkpt lat="59.9020718" lon="17.6413301">
        <ele>21.767</ele>
        <time>2013-05-09T20:12:32Z</time>
      </trkpt>
      <trkpt lat="59.9021316" lon="17.6413739">
        <ele>21.767</ele>
        <time>2013-05-09T20:12:33Z</time>
      </trkpt>
      <trkpt lat="59.9021903" lon="17.6414169">
        <ele>21.767</ele>
        <time>2013-05-09T20:12:34Z</time>
      </trkpt>
      <trkpt lat="59.9022487" lon="17.6414575">
        <ele>22.2476</ele>
        <time>2013-05-09T20:12:35Z</time>
      </trkpt>
      <trkpt lat="59.9023061" lon="17.6414974">
        <ele>22.2476</ele>
        <time>2013-05-09T20:12:36Z</time>
      </trkpt>
      <trkpt lat="59.9023618" lon="17.6415355">
        <ele>22.2476</ele>
        <time>2013-05-09T20:12:37Z</time>
      </trkpt>
      <trkpt lat="59.9024175" lon="17.6415702">
        <ele>22.2476</ele>
        <time>2013-05-09T20:12:38Z</time>
      </trkpt>
      <trkpt lat="59.9024735" lon="17.6415974">
        <ele>22.2476</ele>
        <time>2013-05-09T20:12:39Z</time>
      </trkpt>
      <trkpt lat="59.9025299" lon="17.6416165">
        <ele>22.2476</ele>
        <time>2013-05-09T20:12:40Z</time>
      </trkpt>
      <trkpt lat="59.9025866" lon="17.641631">
        <ele>22.7283</ele>
        <time>2013-05-09T20:12:41Z</time>
      </trkpt>
      <trkpt lat="59.9026429" lon="17.6416478">
        <ele>22.7283</ele>
        <time>2013-05-09T20:12:42Z</time>
      </trkpt>
      <trkpt lat="59.9026979" lon="17.6416706">
        <ele>22.7283</ele>
        <time>2013-05-09T20:12:43Z</time>
      </trkpt>
      <trkpt lat="59.9027507" lon="17.6416963">
        <ele>22.7283</ele>
        <time>2013-05-09T20:12:44Z</time>
      </trkpt>
      <trkpt lat="59.9028006" lon="17.6417224">
        <ele>22.7283</ele>
        <time>2013-05-09T20:12:45Z</time>
      </trkpt>
      <trkpt lat="59.9028478" lon="17.6417476">
        <ele>22.7283</ele>
        <time>2013-05-09T20:12:46Z</time>
      </trkpt>
      <trkpt lat="59.9028932" lon="17.6417712">
        <ele>22.7283</ele>
        <time>2013-05-09T20:12:47Z</time>
      </trkpt>
      <trkpt lat="59.9029376" lon="17.6417928">
        <ele>22.7283</ele>
        <time>2013-05-09T20:12:48Z</time>
      </trkpt>
      <trkpt lat="59.9029803" lon="17.641813">
        <ele>22.7283</ele>
        <time>2013-05-09T20:12:49Z</time>
      </trkpt>
      <trkpt lat="59.9030201" lon="17.6418325">
        <ele>22.7283</ele>
        <time>2013-05-09T20:12:50Z</time>
      </trkpt>
      <trkpt lat="59.9030532" lon="17.6418498">
        <ele>22.7283</ele>
        <time>2013-05-09T20:12:51Z</time>
      </trkpt>
      <trkpt lat="59.9030762" lon="17.6418607">
        <ele>22.7283</ele>
        <time>2013-05-09T20:12:52Z</time>
      </trkpt>
      <trkpt lat="59.9030915" lon="17.6418584">
        <ele>22.7283</ele>
        <time>2013-05-09T20:12:53Z</time>
      </trkpt>
      <trkpt lat="59.9031042" lon="17.6418422">
        <ele>22.7283</ele>
        <time>2013-05-09T20:12:54Z</time>
      </trkpt>
      <trkpt lat="59.9031139" lon="17.6418224">
        <ele>22.7283</ele>
        <time>2013-05-09T20:12:55Z</time>
      </trkpt>
      <trkpt lat="59.903122" lon="17.6418001">
        <ele>23.209</ele>
        <time>2013-05-09T20:12:56Z</time>
      </trkpt>
      <trkpt lat="59.9031321" lon="17.6417695">
        <ele>22.7283</ele>
        <time>2013-05-09T20:12:57Z</time>
      </trkpt>
      <trkpt lat="59.9031494" lon="17.641745">
        <ele>22.7283</ele>
        <time>2013-05-09T20:12:58Z</time>
      </trkpt>
      <trkpt lat="59.9031689" lon="17.6417427">
        <ele>23.209</ele>
        <time>2013-05-09T20:12:59Z</time>
      </trkpt>
      <trkpt lat="59.9031875" lon="17.6417529">
        <ele>23.209</ele>
        <time>2013-05-09T20:13:00Z</time>
      </trkpt>
      <trkpt lat="59.9032077" lon="17.6417648">
        <ele>23.209</ele>
        <time>2013-05-09T20:13:01Z</time>
      </trkpt>
      <trkpt lat="59.9032316" lon="17.6417776">
        <ele>23.209</ele>
        <time>2013-05-09T20:13:02Z</time>
      </trkpt>
      <trkpt lat="59.9032564" lon="17.6417902">
        <ele>23.209</ele>
        <time>2013-05-09T20:13:03Z</time>
      </trkpt>
      <trkpt lat="59.9032806" lon="17.641801">
        <ele>23.209</ele>
        <time>2013-05-09T20:13:04Z</time>
      </trkpt>
      <trkpt lat="59.9033038" lon="17.6418146">
        <ele>23.209</ele>
        <time>2013-05-09T20:13:05Z</time>
      </trkpt>
      <trkpt lat="59.9033276" lon="17.6418302">
        <ele>23.209</ele>
        <time>2013-05-09T20:13:06Z</time>
      </trkpt>
      <trkpt lat="59.9033507" lon="17.6418422">
        <ele>23.209</ele>
        <time>2013-05-09T20:13:07Z</time>
      </trkpt>
      <trkpt lat="59.9033734" lon="17.6418509">
        <ele>23.209</ele>
        <time>2013-05-09T20:13:08Z</time>
      </trkpt>
      <trkpt lat="59.9033941" lon="17.6418628">
        <ele>23.6896</ele>
        <time>2013-05-09T20:13:09Z</time>
      </trkpt>
      <trkpt lat="59.9034124" lon="17.6418762">
        <ele>23.6896</ele>
        <time>2013-05-09T20:13:10Z</time>
      </trkpt>
      <trkpt lat="59.9034289" lon="17.6418887">
        <ele>23.6896</ele>
        <time>2013-05-09T20:13:11Z</time>
      </trkpt>
      <trkpt lat="59.9034435" lon="17.6418984">
        <ele>23.6896</ele>
        <time>2013-05-09T20:13:12Z</time>
      </trkpt>
      <trkpt lat="59.9034558" lon="17.6419063">
        <ele>23.6896</ele>
        <time>2013-05-09T20:13:13Z</time>
      </trkpt>
      <trkpt lat="59.9034651" lon="17.6419116">
        <ele>23.6896</ele>
        <time>2013-05-09T20:13:14Z</time>
      </trkpt>
      <trkpt lat="59.9034722" lon="17.6419156">
        <ele>23.6896</ele>
        <time>2013-05-09T20:13:15Z</time>
      </trkpt>
      <trkpt lat="59.9034777" lon="17.641918">
        <ele>23.6896</ele>
        <time>2013-05-09T20:13:16Z</time>
      </trkpt>
      <trkpt lat="59.9034805" lon="17.6419188">
        <ele>23.6896</ele>
        <time>2013-05-09T20:13:17Z</time>
      </trkpt>
      <trkpt lat="59.9034802" lon="17.6419188">
        <ele>23.6896</ele>
        <time>2013-05-09T20:13:18Z</time>
      </trkpt>
      <trkpt lat="59.9034553" lon="17.6418885">
        <ele>23.209</ele>
        <time>2013-05-09T20:13:26Z</time>
      </trkpt>
      <trkpt lat="59.9034553" lon="17.6418824">
        <ele>23.209</ele>
        <time>2013-05-09T20:13:27Z</time>
      </trkpt>
      <trkpt lat="59.9034553" lon="17.6418773">
        <ele>23.209</ele>
        <time>2013-05-09T20:13:28Z</time>
      </trkpt>
      <trkpt lat="59.9034552" lon="17.6418747">
        <ele>23.6896</ele>
        <time>2013-05-09T20:13:29Z</time>
      </trkpt>
      <trkpt lat="59.9034478" lon="17.6418615">
        <ele>23.209</ele>
        <time>2013-05-09T20:13:30Z</time>
      </trkpt>
      <trkpt lat="59.9034506" lon="17.6418643">
        <ele>23.209</ele>
        <time>2013-05-09T20:13:31Z</time>
      </trkpt>
      <trkpt lat="59.9034603" lon="17.6418685">
        <ele>23.209</ele>
        <time>2013-05-09T20:13:32Z</time>
      </trkpt>
      <trkpt lat="59.9034729" lon="17.6418812">
        <ele>22.7283</ele>
        <time>2013-05-09T20:13:33Z</time>
      </trkpt>
      <trkpt lat="59.9034916" lon="17.6419001">
        <ele>22.2476</ele>
        <time>2013-05-09T20:13:34Z</time>
      </trkpt>
      <trkpt lat="59.9035139" lon="17.6419144">
        <ele>22.2476</ele>
        <time>2013-05-09T20:13:35Z</time>
      </trkpt>
      <trkpt lat="59.9035462" lon="17.6419183">
        <ele>22.7283</ele>
        <time>2013-05-09T20:13:36Z</time>
      </trkpt>
      <trkpt lat="59.9035789" lon="17.6419142">
        <ele>23.209</ele>
        <time>2013-05-09T20:13:37Z</time>
      </trkpt>
      <trkpt lat="59.9036133" lon="17.6419186">
        <ele>23.6896</ele>
        <time>2013-05-09T20:13:38Z</time>
      </trkpt>
      <trkpt lat="59.9036509" lon="17.6419321">
        <ele>24.1703</ele>
        <time>2013-05-09T20:13:39Z</time>
      </trkpt>
      <trkpt lat="59.9036914" lon="17.6419533">
        <ele>24.651</ele>
        <time>2013-05-09T20:13:40Z</time>
      </trkpt>
      <trkpt lat="59.9037356" lon="17.6419802">
        <ele>25.1317</ele>
        <time>2013-05-09T20:13:41Z</time>
      </trkpt>
      <trkpt lat="59.903784" lon="17.6420087">
        <ele>25.6123</ele>
        <time>2013-05-09T20:13:42Z</time>
      </trkpt>
      <trkpt lat="59.9038358" lon="17.6420353">
        <ele>25.6123</ele>
        <time>2013-05-09T20:13:43Z</time>
      </trkpt>
      <trkpt lat="59.9038905" lon="17.6420607">
        <ele>26.0929</ele>
        <time>2013-05-09T20:13:44Z</time>
      </trkpt>
      <trkpt lat="59.9039462" lon="17.6420871">
        <ele>26.0929</ele>
        <time>2013-05-09T20:13:45Z</time>
      </trkpt>
      <trkpt lat="59.9040014" lon="17.6421154">
        <ele>26.0929</ele>
        <time>2013-05-09T20:13:46Z</time>
      </trkpt>
      <trkpt lat="59.9040577" lon="17.6421452">
        <ele>26.5736</ele>
        <time>2013-05-09T20:13:47Z</time>
      </trkpt>
      <trkpt lat="59.9041142" lon="17.6421782">
        <ele>26.5736</ele>
        <time>2013-05-09T20:13:48Z</time>
      </trkpt>
      <trkpt lat="59.9041708" lon="17.6422132">
        <ele>26.5736</ele>
        <time>2013-05-09T20:13:49Z</time>
      </trkpt>
      <trkpt lat="59.9042296" lon="17.6422491">
        <ele>26.5736</ele>
        <time>2013-05-09T20:13:50Z</time>
      </trkpt>
      <trkpt lat="59.9042906" lon="17.642286">
        <ele>26.5736</ele>
        <time>2013-05-09T20:13:51Z</time>
      </trkpt>
      <trkpt lat="59.9043525" lon="17.6423221">
        <ele>26.5736</ele>
        <time>2013-05-09T20:13:52Z</time>
      </trkpt>
      <trkpt lat="59.9044158" lon="17.6423569">
        <ele>26.5736</ele>
        <time>2013-05-09T20:13:53Z</time>
      </trkpt>
      <trkpt lat="59.9044794" lon="17.6423936">
        <ele>26.5736</ele>
        <time>2013-05-09T20:13:54Z</time>
      </trkpt>
      <trkpt lat="59.9045429" lon="17.6424314">
        <ele>26.0929</ele>
        <time>2013-05-09T20:13:55Z</time>
      </trkpt>
      <trkpt lat="59.9046072" lon="17.6424693">
        <ele>26.0929</ele>
        <time>2013-05-09T20:13:56Z</time>
      </trkpt>
      <trkpt lat="59.9046716" lon="17.6425109">
        <ele>26.0929</ele>
        <time>2013-05-09T20:13:57Z</time>
      </trkpt>
      <trkpt lat="59.9047351" lon="17.6425596">
        <ele>26.0929</ele>
        <time>2013-05-09T20:13:58Z</time>
      </trkpt>
      <trkpt lat="59.9047976" lon="17.6426086">
        <ele>26.0929</ele>
        <time>2013-05-09T20:13:59Z</time>
      </trkpt>
      <trkpt lat="59.904861" lon="17.6426564">
        <ele>26.5736</ele>
        <time>2013-05-09T20:14:00Z</time>
      </trkpt>
      <trkpt lat="59.9049238" lon="17.6426967">
        <ele>26.5736</ele>
        <time>2013-05-09T20:14:01Z</time>
      </trkpt>
      <trkpt lat="59.9049879" lon="17.642735">
        <ele>27.0543</ele>
        <time>2013-05-09T20:14:02Z</time>
      </trkpt>
      <trkpt lat="59.9050513" lon="17.6427694">
        <ele>27.5349</ele>
        <time>2013-05-09T20:14:03Z</time>
      </trkpt>
      <trkpt lat="59.9051135" lon="17.6427998">
        <ele>27.5349</ele>
        <time>2013-05-09T20:14:04Z</time>
      </trkpt>
      <trkpt lat="59.9051759" lon="17.6428298">
        <ele>27.5349</ele>
        <time>2013-05-09T20:14:05Z</time>
      </trkpt>
      <trkpt lat="59.9052402" lon="17.642862">
        <ele>28.0155</ele>
        <time>2013-05-09T20:14:06Z</time>
      </trkpt>
      <trkpt lat="59.9053046" lon="17.6428955">
        <ele>28.4962</ele>
        <time>2013-05-09T20:14:07Z</time>
      </trkpt>
      <trkpt lat="59.9053692" lon="17.6429229">
        <ele>28.4962</ele>
        <time>2013-05-09T20:14:08Z</time>
      </trkpt>
      <trkpt lat="59.9054352" lon="17.6429352">
        <ele>28.9769</ele>
        <time>2013-05-09T20:14:09Z</time>
      </trkpt>
      <trkpt lat="59.9055025" lon="17.6429324">
        <ele>28.9769</ele>
        <time>2013-05-09T20:14:10Z</time>
      </trkpt>
      <trkpt lat="59.9055708" lon="17.6429341">
        <ele>29.4575</ele>
        <time>2013-05-09T20:14:11Z</time>
      </trkpt>
      <trkpt lat="59.9056403" lon="17.6429521">
        <ele>29.4575</ele>
        <time>2013-05-09T20:14:12Z</time>
      </trkpt>
      <trkpt lat="59.9057091" lon="17.6429758">
        <ele>29.9381</ele>
        <time>2013-05-09T20:14:13Z</time>
      </trkpt>
      <trkpt lat="59.9057759" lon="17.6430032">
        <ele>29.9381</ele>
        <time>2013-05-09T20:14:14Z</time>
      </trkpt>
      <trkpt lat="59.9058412" lon="17.6430322">
        <ele>29.9381</ele>
        <time>2013-05-09T20:14:15Z</time>
      </trkpt>
      <trkpt lat="59.9059049" lon="17.6430604">
        <ele>29.9381</ele>
        <time>2013-05-09T20:14:16Z</time>
      </trkpt>
      <trkpt lat="59.9059675" lon="17.6430899">
        <ele>30.4188</ele>
        <time>2013-05-09T20:14:17Z</time>
      </trkpt>
      <trkpt lat="59.9060291" lon="17.6431179">
        <ele>30.4188</ele>
        <time>2013-05-09T20:14:18Z</time>
      </trkpt>
      <trkpt lat="59.9060905" lon="17.6431442">
        <ele>30.8995</ele>
        <time>2013-05-09T20:14:19Z</time>
      </trkpt>
      <trkpt lat="59.906152" lon="17.6431686">
        <ele>30.8995</ele>
        <time>2013-05-09T20:14:20Z</time>
      </trkpt>
      <trkpt lat="59.9062133" lon="17.6431908">
        <ele>31.3801</ele>
        <time>2013-05-09T20:14:21Z</time>
      </trkpt>
      <trkpt lat="59.9062738" lon="17.6432117">
        <ele>31.3801</ele>
        <time>2013-05-09T20:14:22Z</time>
      </trkpt>
      <trkpt lat="59.9063343" lon="17.6432333">
        <ele>31.3801</ele>
        <time>2013-05-09T20:14:23Z</time>
      </trkpt>
      <trkpt lat="59.906394" lon="17.6432553">
        <ele>31.3801</ele>
        <time>2013-05-09T20:14:24Z</time>
      </trkpt>
      <trkpt lat="59.9064531" lon="17.6432826">
        <ele>31.8607</ele>
        <time>2013-05-09T20:14:25Z</time>
      </trkpt>
      <trkpt lat="59.9065141" lon="17.6433132">
        <ele>31.8607</ele>
        <time>2013-05-09T20:14:26Z</time>
      </trkpt>
      <trkpt lat="59.9065763" lon="17.6433407">
        <ele>31.8607</ele>
        <time>2013-05-09T20:14:27Z</time>
      </trkpt>
      <trkpt lat="59.9066388" lon="17.6433632">
        <ele>32.3416</ele>
        <time>2013-05-09T20:14:28Z</time>
      </trkpt>
      <trkpt lat="59.9067014" lon="17.643384">
        <ele>32.3416</ele>
        <time>2013-05-09T20:14:29Z</time>
      </trkpt>
      <trkpt lat="59.9067639" lon="17.6434038">
        <ele>32.3416</ele>
        <time>2013-05-09T20:14:30Z</time>
      </trkpt>
      <trkpt lat="59.906827" lon="17.6434205">
        <ele>32.8223</ele>
        <time>2013-05-09T20:14:31Z</time>
      </trkpt>
      <trkpt lat="59.9068901" lon="17.6434366">
        <ele>32.8223</ele>
        <time>2013-05-09T20:14:32Z</time>
      </trkpt>
      <trkpt lat="59.9069532" lon="17.6434535">
        <ele>33.3029</ele>
        <time>2013-05-09T20:14:33Z</time>
      </trkpt>
      <trkpt lat="59.9070162" lon="17.6434707">
        <ele>33.3029</ele>
        <time>2013-05-09T20:14:34Z</time>
      </trkpt>
      <trkpt lat="59.9070794" lon="17.6434863">
        <ele>33.3029</ele>
        <time>2013-05-09T20:14:35Z</time>
      </trkpt>
      <trkpt lat="59.9071433" lon="17.6435007">
        <ele>33.7834</ele>
        <time>2013-05-09T20:14:36Z</time>
      </trkpt>
      <trkpt lat="59.9072078" lon="17.643514">
        <ele>33.7834</ele>
        <time>2013-05-09T20:14:37Z</time>
      </trkpt>
      <trkpt lat="59.9072728" lon="17.6435271">
        <ele>33.7834</ele>
        <time>2013-05-09T20:14:38Z</time>
      </trkpt>
      <trkpt lat="59.9073374" lon="17.6435416">
        <ele>33.7834</ele>
        <time>2013-05-09T20:14:39Z</time>
      </trkpt>
      <trkpt lat="59.9074019" lon="17.6435549">
        <ele>34.2642</ele>
        <time>2013-05-09T20:14:40Z</time>
      </trkpt>
      <trkpt lat="59.9074667" lon="17.6435664">
        <ele>34.2642</ele>
        <time>2013-05-09T20:14:41Z</time>
      </trkpt>
      <trkpt lat="59.9075325" lon="17.6435782">
        <ele>34.7449</ele>
        <time>2013-05-09T20:14:42Z</time>
      </trkpt>
      <trkpt lat="59.9075987" lon="17.6435907">
        <ele>34.7449</ele>
        <time>2013-05-09T20:14:43Z</time>
      </trkpt>
      <trkpt lat="59.9076646" lon="17.6436012">
        <ele>35.2255</ele>
        <time>2013-05-09T20:14:44Z</time>
      </trkpt>
      <trkpt lat="59.9077299" lon="17.6436111">
        <ele>35.2255</ele>
        <time>2013-05-09T20:14:45Z</time>
      </trkpt>
      <trkpt lat="59.9077941" lon="17.6436222">
        <ele>35.7061</ele>
        <time>2013-05-09T20:14:46Z</time>
      </trkpt>
      <trkpt lat="59.9078576" lon="17.6436343">
        <ele>35.7061</ele>
        <time>2013-05-09T20:14:47Z</time>
      </trkpt>
      <trkpt lat="59.9079205" lon="17.6436447">
        <ele>36.1868</ele>
        <time>2013-05-09T20:14:48Z</time>
      </trkpt>
      <trkpt lat="59.9079841" lon="17.643654">
        <ele>36.1868</ele>
        <time>2013-05-09T20:14:49Z</time>
      </trkpt>
      <trkpt lat="59.9080479" lon="17.6436642">
        <ele>36.1868</ele>
        <time>2013-05-09T20:14:50Z</time>
      </trkpt>
      <trkpt lat="59.9081117" lon="17.6436747">
        <ele>36.6675</ele>
        <time>2013-05-09T20:14:51Z</time>
      </trkpt>
      <trkpt lat="59.9081752" lon="17.643685">
        <ele>37.1481</ele>
        <time>2013-05-09T20:14:52Z</time>
      </trkpt>
      <trkpt lat="59.9082386" lon="17.6436942">
        <ele>37.1481</ele>
        <time>2013-05-09T20:14:53Z</time>
      </trkpt>
      <trkpt lat="59.9083029" lon="17.6437033">
        <ele>37.6287</ele>
        <time>2013-05-09T20:14:54Z</time>
      </trkpt>
      <trkpt lat="59.9083677" lon="17.6437118">
        <ele>37.6287</ele>
        <time>2013-05-09T20:14:55Z</time>
      </trkpt>
      <trkpt lat="59.9084329" lon="17.6437184">
        <ele>37.6287</ele>
        <time>2013-05-09T20:14:56Z</time>
      </trkpt>
      <trkpt lat="59.9084998" lon="17.6437223">
        <ele>37.6287</ele>
        <time>2013-05-09T20:14:57Z</time>
      </trkpt>
      <trkpt lat="59.9085696" lon="17.6437223">
        <ele>38.1094</ele>
        <time>2013-05-09T20:14:58Z</time>
      </trkpt>
      <trkpt lat="59.908641" lon="17.6437212">
        <ele>38.1094</ele>
        <time>2013-05-09T20:14:59Z</time>
      </trkpt>
      <trkpt lat="59.908712" lon="17.6437191">
        <ele>38.1094</ele>
        <time>2013-05-09T20:15:00Z</time>
      </trkpt>
      <trkpt lat="59.9087833" lon="17.6437147">
        <ele>38.1094</ele>
        <time>2013-05-09T20:15:01Z</time>
      </trkpt>
      <trkpt lat="59.9088549" lon="17.6437078">
        <ele>38.1094</ele>
        <time>2013-05-09T20:15:02Z</time>
      </trkpt>
      <trkpt lat="59.9089265" lon="17.643701">
        <ele>38.5901</ele>
        <time>2013-05-09T20:15:03Z</time>
      </trkpt>
      <trkpt lat="59.9089973" lon="17.6436944">
        <ele>38.5901</ele>
        <time>2013-05-09T20:15:04Z</time>
      </trkpt>
      <trkpt lat="59.9090679" lon="17.6436888">
        <ele>38.5901</ele>
        <time>2013-05-09T20:15:05Z</time>
      </trkpt>
      <trkpt lat="59.9091388" lon="17.643682">
        <ele>38.5901</ele>
        <time>2013-05-09T20:15:06Z</time>
      </trkpt>
      <trkpt lat="59.9092104" lon="17.6436728">
        <ele>38.5901</ele>
        <time>2013-05-09T20:15:07Z</time>
      </trkpt>
      <trkpt lat="59.9092825" lon="17.6436609">
        <ele>38.5901</ele>
        <time>2013-05-09T20:15:08Z</time>
      </trkpt>
      <trkpt lat="59.9093544" lon="17.6436468">
        <ele>38.5901</ele>
        <time>2013-05-09T20:15:09Z</time>
      </trkpt>
      <trkpt lat="59.9094252" lon="17.6436318">
        <ele>38.5901</ele>
        <time>2013-05-09T20:15:10Z</time>
      </trkpt>
      <trkpt lat="59.9094958" lon="17.6436173">
        <ele>38.5901</ele>
        <time>2013-05-09T20:15:11Z</time>
      </trkpt>
      <trkpt lat="59.9095681" lon="17.6436044">
        <ele>38.5901</ele>
        <time>2013-05-09T20:15:12Z</time>
      </trkpt>
      <trkpt lat="59.9096397" lon="17.6435893">
        <ele>38.5901</ele>
        <time>2013-05-09T20:15:13Z</time>
      </trkpt>
      <trkpt lat="59.9097097" lon="17.6435738">
        <ele>38.5901</ele>
        <time>2013-05-09T20:15:14Z</time>
      </trkpt>
      <trkpt lat="59.9097789" lon="17.6435602">
        <ele>38.5901</ele>
        <time>2013-05-09T20:15:15Z</time>
      </trkpt>
      <trkpt lat="59.9098485" lon="17.6435525">
        <ele>38.5901</ele>
        <time>2013-05-09T20:15:16Z</time>
      </trkpt>
      <trkpt lat="59.909918" lon="17.6435603">
        <ele>38.5901</ele>
        <time>2013-05-09T20:15:17Z</time>
      </trkpt>
      <trkpt lat="59.9099869" lon="17.6435858">
        <ele>38.5901</ele>
        <time>2013-05-09T20:15:18Z</time>
      </trkpt>
      <trkpt lat="59.9100547" lon="17.6436137">
        <ele>38.5901</ele>
        <time>2013-05-09T20:15:19Z</time>
      </trkpt>
      <trkpt lat="59.9101204" lon="17.6436323">
        <ele>39.0707</ele>
        <time>2013-05-09T20:15:20Z</time>
      </trkpt>
      <trkpt lat="59.9101818" lon="17.6436396">
        <ele>38.5901</ele>
        <time>2013-05-09T20:15:21Z</time>
      </trkpt>
      <trkpt lat="59.9102412" lon="17.6436374">
        <ele>37.6287</ele>
        <time>2013-05-09T20:15:22Z</time>
      </trkpt>
      <trkpt lat="59.9103027" lon="17.6436318">
        <ele>37.1481</ele>
        <time>2013-05-09T20:15:23Z</time>
      </trkpt>
      <trkpt lat="59.9103644" lon="17.6436222">
        <ele>36.6675</ele>
        <time>2013-05-09T20:15:24Z</time>
      </trkpt>
      <trkpt lat="59.9104268" lon="17.6436079">
        <ele>36.1868</ele>
        <time>2013-05-09T20:15:25Z</time>
      </trkpt>
      <trkpt lat="59.9104908" lon="17.6435801">
        <ele>36.1868</ele>
        <time>2013-05-09T20:15:26Z</time>
      </trkpt>
      <trkpt lat="59.910558" lon="17.6435397">
        <ele>35.7061</ele>
        <time>2013-05-09T20:15:27Z</time>
      </trkpt>
      <trkpt lat="59.9106308" lon="17.643496">
        <ele>35.7061</ele>
        <time>2013-05-09T20:15:28Z</time>
      </trkpt>
      <trkpt lat="59.9107048" lon="17.643462">
        <ele>35.2255</ele>
        <time>2013-05-09T20:15:29Z</time>
      </trkpt>
      <trkpt lat="59.9107771" lon="17.6434443">
        <ele>35.2255</ele>
        <time>2013-05-09T20:15:30Z</time>
      </trkpt>
      <trkpt lat="59.9108503" lon="17.643425">
        <ele>34.7449</ele>
        <time>2013-05-09T20:15:31Z</time>
      </trkpt>
      <trkpt lat="59.9109227" lon="17.6434063">
        <ele>34.2642</ele>
        <time>2013-05-09T20:15:32Z</time>
      </trkpt>
      <trkpt lat="59.9109945" lon="17.6433893">
        <ele>34.2642</ele>
        <time>2013-05-09T20:15:33Z</time>
      </trkpt>
      <trkpt lat="59.911065" lon="17.6433748">
        <ele>33.7834</ele>
        <time>2013-05-09T20:15:34Z</time>
      </trkpt>
      <trkpt lat="59.9111358" lon="17.6433607">
        <ele>33.7834</ele>
        <time>2013-05-09T20:15:35Z</time>
      </trkpt>
      <trkpt lat="59.9112063" lon="17.6433452">
        <ele>33.7834</ele>
        <time>2013-05-09T20:15:36Z</time>
      </trkpt>
      <trkpt lat="59.9112765" lon="17.6433264">
        <ele>33.7834</ele>
        <time>2013-05-09T20:15:37Z</time>
      </trkpt>
      <trkpt lat="59.9113475" lon="17.6433037">
        <ele>33.3029</ele>
        <time>2013-05-09T20:15:38Z</time>
      </trkpt>
      <trkpt lat="59.9114186" lon="17.6432806">
        <ele>33.3029</ele>
        <time>2013-05-09T20:15:39Z</time>
      </trkpt>
      <trkpt lat="59.9114907" lon="17.6432614">
        <ele>33.3029</ele>
        <time>2013-05-09T20:15:40Z</time>
      </trkpt>
      <trkpt lat="59.9115643" lon="17.6432457">
        <ele>32.8223</ele>
        <time>2013-05-09T20:15:41Z</time>
      </trkpt>
      <trkpt lat="59.9116398" lon="17.6432322">
        <ele>32.8223</ele>
        <time>2013-05-09T20:15:42Z</time>
      </trkpt>
      <trkpt lat="59.911716" lon="17.6432185">
        <ele>32.8223</ele>
        <time>2013-05-09T20:15:43Z</time>
      </trkpt>
      <trkpt lat="59.9117895" lon="17.643206">
        <ele>32.8223</ele>
        <time>2013-05-09T20:15:44Z</time>
      </trkpt>
      <trkpt lat="59.9118609" lon="17.6431919">
        <ele>33.3029</ele>
        <time>2013-05-09T20:15:45Z</time>
      </trkpt>
      <trkpt lat="59.9119309" lon="17.6431784">
        <ele>33.7834</ele>
        <time>2013-05-09T20:15:46Z</time>
      </trkpt>
      <trkpt lat="59.9120009" lon="17.6431665">
        <ele>33.7834</ele>
        <time>2013-05-09T20:15:47Z</time>
      </trkpt>
      <trkpt lat="59.9120737" lon="17.6431478">
        <ele>33.7834</ele>
        <time>2013-05-09T20:15:48Z</time>
      </trkpt>
      <trkpt lat="59.912148" lon="17.643124">
        <ele>33.7834</ele>
        <time>2013-05-09T20:15:49Z</time>
      </trkpt>
      <trkpt lat="59.9122241" lon="17.6431002">
        <ele>33.3029</ele>
        <time>2013-05-09T20:15:50Z</time>
      </trkpt>
      <trkpt lat="59.9123019" lon="17.6430754">
        <ele>32.8223</ele>
        <time>2013-05-09T20:15:51Z</time>
      </trkpt>
      <trkpt lat="59.9123805" lon="17.6430533">
        <ele>32.8223</ele>
        <time>2013-05-09T20:15:52Z</time>
      </trkpt>
      <trkpt lat="59.9124592" lon="17.6430369">
        <ele>32.3416</ele>
        <time>2013-05-09T20:15:53Z</time>
      </trkpt>
      <trkpt lat="59.9125375" lon="17.6430278">
        <ele>32.3416</ele>
        <time>2013-05-09T20:15:54Z</time>
      </trkpt>
      <trkpt lat="59.912615" lon="17.6430374">
        <ele>32.3416</ele>
        <time>2013-05-09T20:15:55Z</time>
      </trkpt>
      <trkpt lat="59.9126892" lon="17.6430676">
        <ele>32.3416</ele>
        <time>2013-05-09T20:15:56Z</time>
      </trkpt>
      <trkpt lat="59.9127598" lon="17.6430961">
        <ele>32.3416</ele>
        <time>2013-05-09T20:15:57Z</time>
      </trkpt>
      <trkpt lat="59.9128328" lon="17.6431065">
        <ele>33.3029</ele>
        <time>2013-05-09T20:15:58Z</time>
      </trkpt>
      <trkpt lat="59.9129021" lon="17.6431013">
        <ele>33.7834</ele>
        <time>2013-05-09T20:15:59Z</time>
      </trkpt>
      <trkpt lat="59.9129699" lon="17.6430897">
        <ele>33.7834</ele>
        <time>2013-05-09T20:16:00Z</time>
      </trkpt>
      <trkpt lat="59.9130378" lon="17.6430783">
        <ele>33.3029</ele>
        <time>2013-05-09T20:16:01Z</time>
      </trkpt>
      <trkpt lat="59.9131048" lon="17.6430695">
        <ele>32.8223</ele>
        <time>2013-05-09T20:16:02Z</time>
      </trkpt>
      <trkpt lat="59.9131763" lon="17.6430572">
        <ele>33.7834</ele>
        <time>2013-05-09T20:16:03Z</time>
      </trkpt>
      <trkpt lat="59.9132496" lon="17.6430432">
        <ele>33.7834</ele>
        <time>2013-05-09T20:16:04Z</time>
      </trkpt>
      <trkpt lat="59.9133273" lon="17.6430211">
        <ele>34.7449</ele>
        <time>2013-05-09T20:16:05Z</time>
      </trkpt>
      <trkpt lat="59.913401" lon="17.6429982">
        <ele>34.7449</ele>
        <time>2013-05-09T20:16:06Z</time>
      </trkpt>
      <trkpt lat="59.9134752" lon="17.6429771">
        <ele>34.2642</ele>
        <time>2013-05-09T20:16:07Z</time>
      </trkpt>
      <trkpt lat="59.9135501" lon="17.6429626">
        <ele>34.2642</ele>
        <time>2013-05-09T20:16:08Z</time>
      </trkpt>
      <trkpt lat="59.9136247" lon="17.6429515">
        <ele>34.2642</ele>
        <time>2013-05-09T20:16:09Z</time>
      </trkpt>
      <trkpt lat="59.913699" lon="17.6429391">
        <ele>33.7834</ele>
        <time>2013-05-09T20:16:10Z</time>
      </trkpt>
      <trkpt lat="59.9137755" lon="17.6429194">
        <ele>33.3029</ele>
        <time>2013-05-09T20:16:11Z</time>
      </trkpt>
      <trkpt lat="59.9138522" lon="17.6429024">
        <ele>32.8223</ele>
        <time>2013-05-09T20:16:12Z</time>
      </trkpt>
      <trkpt lat="59.913929" lon="17.6428877">
        <ele>32.3416</ele>
        <time>2013-05-09T20:16:13Z</time>
      </trkpt>
      <trkpt lat="59.9140054" lon="17.6428744">
        <ele>31.8607</ele>
        <time>2013-05-09T20:16:14Z</time>
      </trkpt>
      <trkpt lat="59.9140821" lon="17.6428613">
        <ele>31.8607</ele>
        <time>2013-05-09T20:16:15Z</time>
      </trkpt>
      <trkpt lat="59.9141592" lon="17.6428439">
        <ele>30.8995</ele>
        <time>2013-05-09T20:16:16Z</time>
      </trkpt>
      <trkpt lat="59.9142366" lon="17.6428273">
        <ele>30.4188</ele>
        <time>2013-05-09T20:16:17Z</time>
      </trkpt>
      <trkpt lat="59.9143138" lon="17.6428136">
        <ele>29.9381</ele>
        <time>2013-05-09T20:16:18Z</time>
      </trkpt>
      <trkpt lat="59.9143915" lon="17.642794">
        <ele>29.4575</ele>
        <time>2013-05-09T20:16:19Z</time>
      </trkpt>
      <trkpt lat="59.9144683" lon="17.6427784">
        <ele>28.9769</ele>
        <time>2013-05-09T20:16:20Z</time>
      </trkpt>
      <trkpt lat="59.9145458" lon="17.6427636">
        <ele>28.9769</ele>
        <time>2013-05-09T20:16:21Z</time>
      </trkpt>
      <trkpt lat="59.9146246" lon="17.642746">
        <ele>28.4962</ele>
        <time>2013-05-09T20:16:22Z</time>
      </trkpt>
      <trkpt lat="59.9147048" lon="17.6427253">
        <ele>28.0155</ele>
        <time>2013-05-09T20:16:23Z</time>
      </trkpt>
      <trkpt lat="59.9147852" lon="17.6427076">
        <ele>27.5349</ele>
        <time>2013-05-09T20:16:24Z</time>
      </trkpt>
      <trkpt lat="59.914865" lon="17.6426936">
        <ele>27.5349</ele>
        <time>2013-05-09T20:16:25Z</time>
      </trkpt>
      <trkpt lat="59.9149438" lon="17.6426805">
        <ele>27.0543</ele>
        <time>2013-05-09T20:16:26Z</time>
      </trkpt>
      <trkpt lat="59.9150223" lon="17.6426677">
        <ele>27.0543</ele>
        <time>2013-05-09T20:16:27Z</time>
      </trkpt>
      <trkpt lat="59.9151007" lon="17.6426485">
        <ele>26.0929</ele>
        <time>2013-05-09T20:16:28Z</time>
      </trkpt>
      <trkpt lat="59.9151757" lon="17.6426152">
        <ele>26.0929</ele>
        <time>2013-05-09T20:16:29Z</time>
      </trkpt>
      <trkpt lat="59.9152488" lon="17.6425601">
        <ele>25.1317</ele>
        <time>2013-05-09T20:16:30Z</time>
      </trkpt>
      <trkpt lat="59.915327" lon="17.6424942">
        <ele>24.651</ele>
        <time>2013-05-09T20:16:31Z</time>
      </trkpt>
      <trkpt lat="59.9154082" lon="17.6424429">
        <ele>24.1703</ele>
        <time>2013-05-09T20:16:32Z</time>
      </trkpt>
      <trkpt lat="59.9154919" lon="17.6424113">
        <ele>23.6896</ele>
        <time>2013-05-09T20:16:33Z</time>
      </trkpt>
      <trkpt lat="59.915576" lon="17.6423915">
        <ele>23.209</ele>
        <time>2013-05-09T20:16:34Z</time>
      </trkpt>
      <trkpt lat="59.9156584" lon="17.6423777">
        <ele>22.7283</ele>
        <time>2013-05-09T20:16:35Z</time>
      </trkpt>
      <trkpt lat="59.9157384" lon="17.6423648">
        <ele>22.2476</ele>
        <time>2013-05-09T20:16:36Z</time>
      </trkpt>
      <trkpt lat="59.9158171" lon="17.6423549">
        <ele>21.767</ele>
        <time>2013-05-09T20:16:37Z</time>
      </trkpt>
      <trkpt lat="59.9158953" lon="17.6423513">
        <ele>21.767</ele>
        <time>2013-05-09T20:16:38Z</time>
      </trkpt>
      <trkpt lat="59.9159731" lon="17.6423507">
        <ele>21.2864</ele>
        <time>2013-05-09T20:16:39Z</time>
      </trkpt>
      <trkpt lat="59.916051" lon="17.6423492">
        <ele>21.2864</ele>
        <time>2013-05-09T20:16:40Z</time>
      </trkpt>
      <trkpt lat="59.9161287" lon="17.6423481">
        <ele>20.8057</ele>
        <time>2013-05-09T20:16:41Z</time>
      </trkpt>
      <trkpt lat="59.9162061" lon="17.6423472">
        <ele>20.8057</ele>
        <time>2013-05-09T20:16:42Z</time>
      </trkpt>
      <trkpt lat="59.9162833" lon="17.6423424">
        <ele>20.325</ele>
        <time>2013-05-09T20:16:43Z</time>
      </trkpt>
      <trkpt lat="59.9163605" lon="17.6423321">
        <ele>20.325</ele>
        <time>2013-05-09T20:16:44Z</time>
      </trkpt>
      <trkpt lat="59.9164385" lon="17.6423191">
        <ele>20.325</ele>
        <time>2013-05-09T20:16:45Z</time>
      </trkpt>
      <trkpt lat="59.9165173" lon="17.6423051">
        <ele>19.8444</ele>
        <time>2013-05-09T20:16:46Z</time>
      </trkpt>
      <trkpt lat="59.9165973" lon="17.6422925">
        <ele>19.8444</ele>
        <time>2013-05-09T20:16:47Z</time>
      </trkpt>
      <trkpt lat="59.9166794" lon="17.6422823">
        <ele>19.3638</ele>
        <time>2013-05-09T20:16:48Z</time>
      </trkpt>
      <trkpt lat="59.9167635" lon="17.6422708">
        <ele>18.8831</ele>
        <time>2013-05-09T20:16:49Z</time>
      </trkpt>
      <trkpt lat="59.9168484" lon="17.6422568">
        <ele>18.4023</ele>
        <time>2013-05-09T20:16:50Z</time>
      </trkpt>
      <trkpt lat="59.9169338" lon="17.6422413">
        <ele>18.4023</ele>
        <time>2013-05-09T20:16:51Z</time>
      </trkpt>
      <trkpt lat="59.91702" lon="17.6422217">
        <ele>17.9218</ele>
        <time>2013-05-09T20:16:52Z</time>
      </trkpt>
      <trkpt lat="59.9171067" lon="17.6421954">
        <ele>17.9218</ele>
        <time>2013-05-09T20:16:53Z</time>
      </trkpt>
      <trkpt lat="59.9171941" lon="17.6421699">
        <ele>17.4412</ele>
        <time>2013-05-09T20:16:54Z</time>
      </trkpt>
      <trkpt lat="59.9172831" lon="17.6421605">
        <ele>17.4412</ele>
        <time>2013-05-09T20:16:55Z</time>
      </trkpt>
      <trkpt lat="59.9173716" lon="17.6421617">
        <ele>17.4412</ele>
        <time>2013-05-09T20:16:56Z</time>
      </trkpt>
      <trkpt lat="59.9174585" lon="17.6421606">
        <ele>17.4412</ele>
        <time>2013-05-09T20:16:57Z</time>
      </trkpt>
      <trkpt lat="59.9175436" lon="17.6421585">
        <ele>17.4412</ele>
        <time>2013-05-09T20:16:58Z</time>
      </trkpt>
      <trkpt lat="59.9176285" lon="17.6421585">
        <ele>17.4412</ele>
        <time>2013-05-09T20:16:59Z</time>
      </trkpt>
      <trkpt lat="59.9177135" lon="17.642161">
        <ele>17.4412</ele>
        <time>2013-05-09T20:17:00Z</time>
      </trkpt>
      <trkpt lat="59.9177977" lon="17.6421611">
        <ele>17.9218</ele>
        <time>2013-05-09T20:17:01Z</time>
      </trkpt>
      <trkpt lat="59.9178809" lon="17.642158">
        <ele>17.9218</ele>
        <time>2013-05-09T20:17:02Z</time>
      </trkpt>
      <trkpt lat="59.9179632" lon="17.6421538">
        <ele>18.4023</ele>
        <time>2013-05-09T20:17:03Z</time>
      </trkpt>
      <trkpt lat="59.9180445" lon="17.6421491">
        <ele>18.8831</ele>
        <time>2013-05-09T20:17:04Z</time>
      </trkpt>
      <trkpt lat="59.9181232" lon="17.6421438">
        <ele>19.3638</ele>
        <time>2013-05-09T20:17:05Z</time>
      </trkpt>
      <trkpt lat="59.9181997" lon="17.6421377">
        <ele>19.8444</ele>
        <time>2013-05-09T20:17:06Z</time>
      </trkpt>
      <trkpt lat="59.9182733" lon="17.6421316">
        <ele>19.8444</ele>
        <time>2013-05-09T20:17:07Z</time>
      </trkpt>
      <trkpt lat="59.9183454" lon="17.6421296">
        <ele>20.8057</ele>
        <time>2013-05-09T20:17:08Z</time>
      </trkpt>
      <trkpt lat="59.9184157" lon="17.6421265">
        <ele>21.2864</ele>
        <time>2013-05-09T20:17:09Z</time>
      </trkpt>
      <trkpt lat="59.9184865" lon="17.6421218">
        <ele>22.2476</ele>
        <time>2013-05-09T20:17:10Z</time>
      </trkpt>
      <trkpt lat="59.918558" lon="17.6421145">
        <ele>22.7283</ele>
        <time>2013-05-09T20:17:11Z</time>
      </trkpt>
      <trkpt lat="59.9186304" lon="17.6421076">
        <ele>23.209</ele>
        <time>2013-05-09T20:17:12Z</time>
      </trkpt>
      <trkpt lat="59.9187009" lon="17.6421014">
        <ele>23.6896</ele>
        <time>2013-05-09T20:17:13Z</time>
      </trkpt>
      <trkpt lat="59.9187724" lon="17.6420942">
        <ele>24.1703</ele>
        <time>2013-05-09T20:17:14Z</time>
      </trkpt>
      <trkpt lat="59.9188447" lon="17.6420869">
        <ele>24.651</ele>
        <time>2013-05-09T20:17:15Z</time>
      </trkpt>
      <trkpt lat="59.9189168" lon="17.6420798">
        <ele>25.1317</ele>
        <time>2013-05-09T20:17:16Z</time>
      </trkpt>
      <trkpt lat="59.9189883" lon="17.6420709">
        <ele>25.6123</ele>
        <time>2013-05-09T20:17:17Z</time>
      </trkpt>
      <trkpt lat="59.9190599" lon="17.6420615">
        <ele>26.0929</ele>
        <time>2013-05-09T20:17:18Z</time>
      </trkpt>
      <trkpt lat="59.9191314" lon="17.642054">
        <ele>26.0929</ele>
        <time>2013-05-09T20:17:19Z</time>
      </trkpt>
      <trkpt lat="59.9192032" lon="17.6420466">
        <ele>26.5736</ele>
        <time>2013-05-09T20:17:20Z</time>
      </trkpt>
      <trkpt lat="59.9192762" lon="17.6420374">
        <ele>26.5736</ele>
        <time>2013-05-09T20:17:21Z</time>
      </trkpt>
      <trkpt lat="59.9193513" lon="17.6420312">
        <ele>27.0543</ele>
        <time>2013-05-09T20:17:22Z</time>
      </trkpt>
      <trkpt lat="59.9194267" lon="17.642027">
        <ele>27.0543</ele>
        <time>2013-05-09T20:17:23Z</time>
      </trkpt>
      <trkpt lat="59.9195018" lon="17.6420211">
        <ele>27.0543</ele>
        <time>2013-05-09T20:17:24Z</time>
      </trkpt>
      <trkpt lat="59.9195766" lon="17.6420138">
        <ele>27.5349</ele>
        <time>2013-05-09T20:17:25Z</time>
      </trkpt>
      <trkpt lat="59.9196512" lon="17.6420053">
        <ele>27.5349</ele>
        <time>2013-05-09T20:17:26Z</time>
      </trkpt>
      <trkpt lat="59.9197258" lon="17.6419946">
        <ele>27.5349</ele>
        <time>2013-05-09T20:17:27Z</time>
      </trkpt>
      <trkpt lat="59.919801" lon="17.6419788">
        <ele>27.5349</ele>
        <time>2013-05-09T20:17:28Z</time>
      </trkpt>
      <trkpt lat="59.9198765" lon="17.6419592">
        <ele>28.0155</ele>
        <time>2013-05-09T20:17:29Z</time>
      </trkpt>
      <trkpt lat="59.9199521" lon="17.6419415">
        <ele>28.0155</ele>
        <time>2013-05-09T20:17:30Z</time>
      </trkpt>
      <trkpt lat="59.9200274" lon="17.6419289">
        <ele>28.0155</ele>
        <time>2013-05-09T20:17:31Z</time>
      </trkpt>
      <trkpt lat="59.9201025" lon="17.6419212">
        <ele>28.4962</ele>
        <time>2013-05-09T20:17:32Z</time>
      </trkpt>
      <trkpt lat="59.9201772" lon="17.6419171">
        <ele>28.4962</ele>
        <time>2013-05-09T20:17:33Z</time>
      </trkpt>
      <trkpt lat="59.9202506" lon="17.641914">
        <ele>28.4962</ele>
        <time>2013-05-09T20:17:34Z</time>
      </trkpt>
      <trkpt lat="59.9203239" lon="17.6419103">
        <ele>28.9769</ele>
        <time>2013-05-09T20:17:35Z</time>
      </trkpt>
      <trkpt lat="59.9203983" lon="17.6419073">
        <ele>28.9769</ele>
        <time>2013-05-09T20:17:36Z</time>
      </trkpt>
      <trkpt lat="59.9204728" lon="17.6419074">
        <ele>28.9769</ele>
        <time>2013-05-09T20:17:37Z</time>
      </trkpt>
      <trkpt lat="59.9205466" lon="17.6419084">
        <ele>28.9769</ele>
        <time>2013-05-09T20:17:38Z</time>
      </trkpt>
      <trkpt lat="59.9206204" lon="17.6419095">
        <ele>28.9769</ele>
        <time>2013-05-09T20:17:39Z</time>
      </trkpt>
      <trkpt lat="59.9206936" lon="17.6419109">
        <ele>28.9769</ele>
        <time>2013-05-09T20:17:40Z</time>
      </trkpt>
      <trkpt lat="59.9207663" lon="17.641911">
        <ele>28.9769</ele>
        <time>2013-05-09T20:17:41Z</time>
      </trkpt>
      <trkpt lat="59.9208391" lon="17.6419109">
        <ele>28.9769</ele>
        <time>2013-05-09T20:17:42Z</time>
      </trkpt>
      <trkpt lat="59.9209122" lon="17.6419126">
        <ele>29.4575</ele>
        <time>2013-05-09T20:17:43Z</time>
      </trkpt>
      <trkpt lat="59.9209864" lon="17.6419085">
        <ele>29.4575</ele>
        <time>2013-05-09T20:17:44Z</time>
      </trkpt>
      <trkpt lat="59.9210608" lon="17.6419001">
        <ele>29.4575</ele>
        <time>2013-05-09T20:17:45Z</time>
      </trkpt>
      <trkpt lat="59.921135" lon="17.6418918">
        <ele>29.4575</ele>
        <time>2013-05-09T20:17:46Z</time>
      </trkpt>
      <trkpt lat="59.921209" lon="17.6418826">
        <ele>29.9381</ele>
        <time>2013-05-09T20:17:47Z</time>
      </trkpt>
      <trkpt lat="59.921282" lon="17.6418743">
        <ele>30.4188</ele>
        <time>2013-05-09T20:17:48Z</time>
      </trkpt>
      <trkpt lat="59.9213536" lon="17.6418678">
        <ele>30.8995</ele>
        <time>2013-05-09T20:17:49Z</time>
      </trkpt>
      <trkpt lat="59.921424" lon="17.6418612">
        <ele>31.3801</ele>
        <time>2013-05-09T20:17:50Z</time>
      </trkpt>
      <trkpt lat="59.9214937" lon="17.6418555">
        <ele>31.8607</ele>
        <time>2013-05-09T20:17:51Z</time>
      </trkpt>
      <trkpt lat="59.9215639" lon="17.6418481">
        <ele>32.3416</ele>
        <time>2013-05-09T20:17:52Z</time>
      </trkpt>
      <trkpt lat="59.921635" lon="17.6418395">
        <ele>32.3416</ele>
        <time>2013-05-09T20:17:53Z</time>
      </trkpt>
      <trkpt lat="59.9217074" lon="17.641827">
        <ele>32.3416</ele>
        <time>2013-05-09T20:17:54Z</time>
      </trkpt>
      <trkpt lat="59.9217819" lon="17.6418141">
        <ele>32.3416</ele>
        <time>2013-05-09T20:17:55Z</time>
      </trkpt>
      <trkpt lat="59.9218567" lon="17.6418045">
        <ele>31.8607</ele>
        <time>2013-05-09T20:17:56Z</time>
      </trkpt>
      <trkpt lat="59.9219311" lon="17.6417985">
        <ele>31.8607</ele>
        <time>2013-05-09T20:17:57Z</time>
      </trkpt>
      <trkpt lat="59.9220057" lon="17.6417914">
        <ele>31.8607</ele>
        <time>2013-05-09T20:17:58Z</time>
      </trkpt>
      <trkpt lat="59.9220814" lon="17.6417814">
        <ele>31.8607</ele>
        <time>2013-05-09T20:17:59Z</time>
      </trkpt>
      <trkpt lat="59.922158" lon="17.6417731">
        <ele>31.8607</ele>
        <time>2013-05-09T20:18:00Z</time>
      </trkpt>
      <trkpt lat="59.9222352" lon="17.6417659">
        <ele>31.8607</ele>
        <time>2013-05-09T20:18:01Z</time>
      </trkpt>
      <trkpt lat="59.9223112" lon="17.6417572">
        <ele>31.8607</ele>
        <time>2013-05-09T20:18:02Z</time>
      </trkpt>
      <trkpt lat="59.9223869" lon="17.6417483">
        <ele>31.8607</ele>
        <time>2013-05-09T20:18:03Z</time>
      </trkpt>
      <trkpt lat="59.9224627" lon="17.6417394">
        <ele>31.3801</ele>
        <time>2013-05-09T20:18:04Z</time>
      </trkpt>
      <trkpt lat="59.9225383" lon="17.641729">
        <ele>31.3801</ele>
        <time>2013-05-09T20:18:05Z</time>
      </trkpt>
      <trkpt lat="59.9226138" lon="17.6417181">
        <ele>31.3801</ele>
        <time>2013-05-09T20:18:06Z</time>
      </trkpt>
      <trkpt lat="59.9226885" lon="17.6417089">
        <ele>31.3801</ele>
        <time>2013-05-09T20:18:07Z</time>
      </trkpt>
      <trkpt lat="59.9227625" lon="17.6416996">
        <ele>31.3801</ele>
        <time>2013-05-09T20:18:08Z</time>
      </trkpt>
      <trkpt lat="59.9228371" lon="17.6416885">
        <ele>31.3801</ele>
        <time>2013-05-09T20:18:09Z</time>
      </trkpt>
      <trkpt lat="59.9229137" lon="17.6416814">
        <ele>30.8995</ele>
        <time>2013-05-09T20:18:10Z</time>
      </trkpt>
      <trkpt lat="59.9229926" lon="17.6416745">
        <ele>30.8995</ele>
        <time>2013-05-09T20:18:11Z</time>
      </trkpt>
      <trkpt lat="59.9230735" lon="17.6416637">
        <ele>30.8995</ele>
        <time>2013-05-09T20:18:12Z</time>
      </trkpt>
      <trkpt lat="59.9231542" lon="17.641653">
        <ele>30.8995</ele>
        <time>2013-05-09T20:18:13Z</time>
      </trkpt>
      <trkpt lat="59.9232353" lon="17.6416426">
        <ele>30.8995</ele>
        <time>2013-05-09T20:18:14Z</time>
      </trkpt>
      <trkpt lat="59.9233169" lon="17.6416313">
        <ele>30.4188</ele>
        <time>2013-05-09T20:18:15Z</time>
      </trkpt>
      <trkpt lat="59.9233992" lon="17.6416203">
        <ele>30.4188</ele>
        <time>2013-05-09T20:18:16Z</time>
      </trkpt>
      <trkpt lat="59.9234821" lon="17.6416083">
        <ele>30.4188</ele>
        <time>2013-05-09T20:18:17Z</time>
      </trkpt>
      <trkpt lat="59.9235655" lon="17.6415955">
        <ele>29.9381</ele>
        <time>2013-05-09T20:18:18Z</time>
      </trkpt>
      <trkpt lat="59.9236495" lon="17.6415836">
        <ele>29.9381</ele>
        <time>2013-05-09T20:18:19Z</time>
      </trkpt>
      <trkpt lat="59.9237341" lon="17.6415712">
        <ele>29.4575</ele>
        <time>2013-05-09T20:18:20Z</time>
      </trkpt>
      <trkpt lat="59.9238193" lon="17.6415597">
        <ele>29.4575</ele>
        <time>2013-05-09T20:18:21Z</time>
      </trkpt>
      <trkpt lat="59.9239053" lon="17.6415502">
        <ele>29.4575</ele>
        <time>2013-05-09T20:18:22Z</time>
      </trkpt>
      <trkpt lat="59.9239923" lon="17.64154">
        <ele>29.4575</ele>
        <time>2013-05-09T20:18:23Z</time>
      </trkpt>
      <trkpt lat="59.9240798" lon="17.6415297">
        <ele>29.4575</ele>
        <time>2013-05-09T20:18:24Z</time>
      </trkpt>
      <trkpt lat="59.9241664" lon="17.6415207">
        <ele>29.4575</ele>
        <time>2013-05-09T20:18:25Z</time>
      </trkpt>
      <trkpt lat="59.9242513" lon="17.6415132">
        <ele>29.4575</ele>
        <time>2013-05-09T20:18:26Z</time>
      </trkpt>
      <trkpt lat="59.9243342" lon="17.641508">
        <ele>29.4575</ele>
        <time>2013-05-09T20:18:27Z</time>
      </trkpt>
      <trkpt lat="59.9244165" lon="17.6415022">
        <ele>28.9769</ele>
        <time>2013-05-09T20:18:28Z</time>
      </trkpt>
      <trkpt lat="59.9244998" lon="17.6414939">
        <ele>29.4575</ele>
        <time>2013-05-09T20:18:29Z</time>
      </trkpt>
      <trkpt lat="59.9245822" lon="17.6414819">
        <ele>29.4575</ele>
        <time>2013-05-09T20:18:30Z</time>
      </trkpt>
      <trkpt lat="59.9246625" lon="17.6414648">
        <ele>29.4575</ele>
        <time>2013-05-09T20:18:31Z</time>
      </trkpt>
      <trkpt lat="59.9247425" lon="17.6414438">
        <ele>28.9769</ele>
        <time>2013-05-09T20:18:32Z</time>
      </trkpt>
      <trkpt lat="59.9248232" lon="17.6414239">
        <ele>28.9769</ele>
        <time>2013-05-09T20:18:33Z</time>
      </trkpt>
      <trkpt lat="59.9249038" lon="17.641408">
        <ele>28.9769</ele>
        <time>2013-05-09T20:18:34Z</time>
      </trkpt>
      <trkpt lat="59.9249844" lon="17.641396">
        <ele>28.9769</ele>
        <time>2013-05-09T20:18:35Z</time>
      </trkpt>
      <trkpt lat="59.9250654" lon="17.6413889">
        <ele>28.9769</ele>
        <time>2013-05-09T20:18:36Z</time>
      </trkpt>
      <trkpt lat="59.9251458" lon="17.6413867">
        <ele>28.9769</ele>
        <time>2013-05-09T20:18:37Z</time>
      </trkpt>
      <trkpt lat="59.9252252" lon="17.6413861">
        <ele>28.4962</ele>
        <time>2013-05-09T20:18:38Z</time>
      </trkpt>
      <trkpt lat="59.9253047" lon="17.6413853">
        <ele>28.4962</ele>
        <time>2013-05-09T20:18:39Z</time>
      </trkpt>
      <trkpt lat="59.9253842" lon="17.6413825">
        <ele>28.4962</ele>
        <time>2013-05-09T20:18:40Z</time>
      </trkpt>
      <trkpt lat="59.9254644" lon="17.6413778">
        <ele>28.4962</ele>
        <time>2013-05-09T20:18:41Z</time>
      </trkpt>
      <trkpt lat="59.9255458" lon="17.6413717">
        <ele>28.4962</ele>
        <time>2013-05-09T20:18:42Z</time>
      </trkpt>
      <trkpt lat="59.9256283" lon="17.6413628">
        <ele>28.4962</ele>
        <time>2013-05-09T20:18:43Z</time>
      </trkpt>
      <trkpt lat="59.9257103" lon="17.6413514">
        <ele>28.4962</ele>
        <time>2013-05-09T20:18:44Z</time>
      </trkpt>
      <trkpt lat="59.9257918" lon="17.6413391">
        <ele>28.4962</ele>
        <time>2013-05-09T20:18:45Z</time>
      </trkpt>
      <trkpt lat="59.9258731" lon="17.6413262">
        <ele>28.4962</ele>
        <time>2013-05-09T20:18:46Z</time>
      </trkpt>
      <trkpt lat="59.9259544" lon="17.6413137">
        <ele>28.0155</ele>
        <time>2013-05-09T20:18:47Z</time>
      </trkpt>
      <trkpt lat="59.9260357" lon="17.6413015">
        <ele>28.0155</ele>
        <time>2013-05-09T20:18:48Z</time>
      </trkpt>
      <trkpt lat="59.9261173" lon="17.6412896">
        <ele>28.4962</ele>
        <time>2013-05-09T20:18:49Z</time>
      </trkpt>
      <trkpt lat="59.9261985" lon="17.6412789">
        <ele>28.0155</ele>
        <time>2013-05-09T20:18:50Z</time>
      </trkpt>
      <trkpt lat="59.9262797" lon="17.6412686">
        <ele>28.0155</ele>
        <time>2013-05-09T20:18:51Z</time>
      </trkpt>
      <trkpt lat="59.9263611" lon="17.6412594">
        <ele>28.0155</ele>
        <time>2013-05-09T20:18:52Z</time>
      </trkpt>
      <trkpt lat="59.9264415" lon="17.64125">
        <ele>28.0155</ele>
        <time>2013-05-09T20:18:53Z</time>
      </trkpt>
      <trkpt lat="59.9265218" lon="17.6412405">
        <ele>28.0155</ele>
        <time>2013-05-09T20:18:54Z</time>
      </trkpt>
      <trkpt lat="59.926602" lon="17.6412313">
        <ele>28.4962</ele>
        <time>2013-05-09T20:18:55Z</time>
      </trkpt>
      <trkpt lat="59.9266814" lon="17.6412213">
        <ele>28.4962</ele>
        <time>2013-05-09T20:18:56Z</time>
      </trkpt>
      <trkpt lat="59.9267605" lon="17.6412106">
        <ele>28.4962</ele>
        <time>2013-05-09T20:18:57Z</time>
      </trkpt>
      <trkpt lat="59.9268387" lon="17.6412005">
        <ele>28.4962</ele>
        <time>2013-05-09T20:18:58Z</time>
      </trkpt>
      <trkpt lat="59.9269173" lon="17.6411915">
        <ele>28.4962</ele>
        <time>2013-05-09T20:18:59Z</time>
      </trkpt>
      <trkpt lat="59.9269955" lon="17.6411821">
        <ele>28.4962</ele>
        <time>2013-05-09T20:19:00Z</time>
      </trkpt>
      <trkpt lat="59.9270735" lon="17.6411728">
        <ele>28.4962</ele>
        <time>2013-05-09T20:19:01Z</time>
      </trkpt>
      <trkpt lat="59.9271504" lon="17.641164">
        <ele>28.4962</ele>
        <time>2013-05-09T20:19:02Z</time>
      </trkpt>
      <trkpt lat="59.9272272" lon="17.6411581">
        <ele>28.4962</ele>
        <time>2013-05-09T20:19:03Z</time>
      </trkpt>
      <trkpt lat="59.9273041" lon="17.6411526">
        <ele>28.4962</ele>
        <time>2013-05-09T20:19:04Z</time>
      </trkpt>
      <trkpt lat="59.9273809" lon="17.6411459">
        <ele>28.4962</ele>
        <time>2013-05-09T20:19:05Z</time>
      </trkpt>
      <trkpt lat="59.9274583" lon="17.6411406">
        <ele>28.4962</ele>
        <time>2013-05-09T20:19:06Z</time>
      </trkpt>
      <trkpt lat="59.9275363" lon="17.6411355">
        <ele>28.4962</ele>
        <time>2013-05-09T20:19:07Z</time>
      </trkpt>
      <trkpt lat="59.9276141" lon="17.6411301">
        <ele>28.4962</ele>
        <time>2013-05-09T20:19:08Z</time>
      </trkpt>
      <trkpt lat="59.9276918" lon="17.6411232">
        <ele>28.4962</ele>
        <time>2013-05-09T20:19:09Z</time>
      </trkpt>
      <trkpt lat="59.9277696" lon="17.6411148">
        <ele>28.4962</ele>
        <time>2013-05-09T20:19:10Z</time>
      </trkpt>
      <trkpt lat="59.9278473" lon="17.6411057">
        <ele>28.4962</ele>
        <time>2013-05-09T20:19:11Z</time>
      </trkpt>
      <trkpt lat="59.9279249" lon="17.6410965">
        <ele>28.4962</ele>
        <time>2013-05-09T20:19:12Z</time>
      </trkpt>
      <trkpt lat="59.928001" lon="17.6410878">
        <ele>28.4962</ele>
        <time>2013-05-09T20:19:13Z</time>
      </trkpt>
      <trkpt lat="59.9280757" lon="17.641079">
        <ele>28.4962</ele>
        <time>2013-05-09T20:19:14Z</time>
      </trkpt>
      <trkpt lat="59.9281504" lon="17.6410744">
        <ele>28.4962</ele>
        <time>2013-05-09T20:19:15Z</time>
      </trkpt>
      <trkpt lat="59.9282254" lon="17.64107">
        <ele>28.0155</ele>
        <time>2013-05-09T20:19:16Z</time>
      </trkpt>
      <trkpt lat="59.9282991" lon="17.6410612">
        <ele>28.0155</ele>
        <time>2013-05-09T20:19:17Z</time>
      </trkpt>
      <trkpt lat="59.9283739" lon="17.6410491">
        <ele>28.4962</ele>
        <time>2013-05-09T20:19:18Z</time>
      </trkpt>
      <trkpt lat="59.9284528" lon="17.6410358">
        <ele>28.4962</ele>
        <time>2013-05-09T20:19:19Z</time>
      </trkpt>
      <trkpt lat="59.9285319" lon="17.6410226">
        <ele>28.9769</ele>
        <time>2013-05-09T20:19:20Z</time>
      </trkpt>
      <trkpt lat="59.9286109" lon="17.6410117">
        <ele>28.9769</ele>
        <time>2013-05-09T20:19:21Z</time>
      </trkpt>
      <trkpt lat="59.9286881" lon="17.6409983">
        <ele>28.9769</ele>
        <time>2013-05-09T20:19:22Z</time>
      </trkpt>
      <trkpt lat="59.9287606" lon="17.6409823">
        <ele>28.4962</ele>
        <time>2013-05-09T20:19:23Z</time>
      </trkpt>
      <trkpt lat="59.9288331" lon="17.6409651">
        <ele>27.5349</ele>
        <time>2013-05-09T20:19:24Z</time>
      </trkpt>
      <trkpt lat="59.9289082" lon="17.6409469">
        <ele>27.5349</ele>
        <time>2013-05-09T20:19:25Z</time>
      </trkpt>
      <trkpt lat="59.9289822" lon="17.6409329">
        <ele>28.0155</ele>
        <time>2013-05-09T20:19:26Z</time>
      </trkpt>
      <trkpt lat="59.9290541" lon="17.6409245">
        <ele>28.0155</ele>
        <time>2013-05-09T20:19:27Z</time>
      </trkpt>
      <trkpt lat="59.9291272" lon="17.6409184">
        <ele>28.0155</ele>
        <time>2013-05-09T20:19:28Z</time>
      </trkpt>
      <trkpt lat="59.9292031" lon="17.6409127">
        <ele>28.0155</ele>
        <time>2013-05-09T20:19:29Z</time>
      </trkpt>
      <trkpt lat="59.9292724" lon="17.64091">
        <ele>27.0543</ele>
        <time>2013-05-09T20:19:30Z</time>
      </trkpt>
      <trkpt lat="59.9293496" lon="17.6409077">
        <ele>27.0543</ele>
        <time>2013-05-09T20:19:31Z</time>
      </trkpt>
      <trkpt lat="59.9294258" lon="17.6409038">
        <ele>27.0543</ele>
        <time>2013-05-09T20:19:32Z</time>
      </trkpt>
      <trkpt lat="59.9295017" lon="17.6408949">
        <ele>27.5349</ele>
        <time>2013-05-09T20:19:33Z</time>
      </trkpt>
      <trkpt lat="59.9295769" lon="17.6408837">
        <ele>27.5349</ele>
        <time>2013-05-09T20:19:34Z</time>
      </trkpt>
      <trkpt lat="59.9296514" lon="17.6408706">
        <ele>27.5349</ele>
        <time>2013-05-09T20:19:35Z</time>
      </trkpt>
      <trkpt lat="59.9297256" lon="17.6408535">
        <ele>28.0155</ele>
        <time>2013-05-09T20:19:36Z</time>
      </trkpt>
      <trkpt lat="59.9297956" lon="17.6408366">
        <ele>27.5349</ele>
        <time>2013-05-09T20:19:37Z</time>
      </trkpt>
      <trkpt lat="59.9298646" lon="17.640825">
        <ele>27.0543</ele>
        <time>2013-05-09T20:19:38Z</time>
      </trkpt>
      <trkpt lat="59.9299347" lon="17.640821">
        <ele>26.5736</ele>
        <time>2013-05-09T20:19:39Z</time>
      </trkpt>
      <trkpt lat="59.9300078" lon="17.6408206">
        <ele>26.0929</ele>
        <time>2013-05-09T20:19:40Z</time>
      </trkpt>
      <trkpt lat="59.9300827" lon="17.6408212">
        <ele>26.0929</ele>
        <time>2013-05-09T20:19:41Z</time>
      </trkpt>
      <trkpt lat="59.9301578" lon="17.6408217">
        <ele>25.6123</ele>
        <time>2013-05-09T20:19:42Z</time>
      </trkpt>
      <trkpt lat="59.9302316" lon="17.6408242">
        <ele>25.6123</ele>
        <time>2013-05-09T20:19:43Z</time>
      </trkpt>
      <trkpt lat="59.9303033" lon="17.6408283">
        <ele>25.1317</ele>
        <time>2013-05-09T20:19:44Z</time>
      </trkpt>
      <trkpt lat="59.9303733" lon="17.6408319">
        <ele>25.1317</ele>
        <time>2013-05-09T20:19:45Z</time>
      </trkpt>
      <trkpt lat="59.9304434" lon="17.6408374">
        <ele>25.6123</ele>
        <time>2013-05-09T20:19:46Z</time>
      </trkpt>
      <trkpt lat="59.9305142" lon="17.64084">
        <ele>26.0929</ele>
        <time>2013-05-09T20:19:47Z</time>
      </trkpt>
      <trkpt lat="59.930584" lon="17.6408346">
        <ele>26.0929</ele>
        <time>2013-05-09T20:19:48Z</time>
      </trkpt>
      <trkpt lat="59.9306523" lon="17.6408214">
        <ele>26.0929</ele>
        <time>2013-05-09T20:19:49Z</time>
      </trkpt>
      <trkpt lat="59.9307181" lon="17.6408098">
        <ele>26.0929</ele>
        <time>2013-05-09T20:19:50Z</time>
      </trkpt>
      <trkpt lat="59.9307835" lon="17.6408025">
        <ele>26.5736</ele>
        <time>2013-05-09T20:19:51Z</time>
      </trkpt>
      <trkpt lat="59.9308506" lon="17.6408034">
        <ele>26.5736</ele>
        <time>2013-05-09T20:19:52Z</time>
      </trkpt>
      <trkpt lat="59.9309181" lon="17.6408167">
        <ele>26.0929</ele>
        <time>2013-05-09T20:19:53Z</time>
      </trkpt>
      <trkpt lat="59.9309869" lon="17.6408429">
        <ele>26.5736</ele>
        <time>2013-05-09T20:19:54Z</time>
      </trkpt>
      <trkpt lat="59.9310531" lon="17.6408801">
        <ele>26.5736</ele>
        <time>2013-05-09T20:19:55Z</time>
      </trkpt>
      <trkpt lat="59.931118" lon="17.6409246">
        <ele>27.0543</ele>
        <time>2013-05-09T20:19:56Z</time>
      </trkpt>
      <trkpt lat="59.9311821" lon="17.6409728">
        <ele>27.5349</ele>
        <time>2013-05-09T20:19:57Z</time>
      </trkpt>
      <trkpt lat="59.9312401" lon="17.6410208">
        <ele>27.5349</ele>
        <time>2013-05-09T20:19:58Z</time>
      </trkpt>
      <trkpt lat="59.9312991" lon="17.6410661">
        <ele>28.0155</ele>
        <time>2013-05-09T20:19:59Z</time>
      </trkpt>
      <trkpt lat="59.9313559" lon="17.6411091">
        <ele>28.4962</ele>
        <time>2013-05-09T20:20:00Z</time>
      </trkpt>
      <trkpt lat="59.931411" lon="17.6411475">
        <ele>28.9769</ele>
        <time>2013-05-09T20:20:01Z</time>
      </trkpt>
      <trkpt lat="59.931466" lon="17.6411862">
        <ele>28.9769</ele>
        <time>2013-05-09T20:20:02Z</time>
      </trkpt>
      <trkpt lat="59.9315232" lon="17.6412285">
        <ele>29.4575</ele>
        <time>2013-05-09T20:20:03Z</time>
      </trkpt>
      <trkpt lat="59.9315832" lon="17.6412728">
        <ele>29.4575</ele>
        <time>2013-05-09T20:20:04Z</time>
      </trkpt>
      <trkpt lat="59.9316449" lon="17.6413173">
        <ele>29.9381</ele>
        <time>2013-05-09T20:20:05Z</time>
      </trkpt>
      <trkpt lat="59.9317073" lon="17.6413622">
        <ele>29.9381</ele>
        <time>2013-05-09T20:20:06Z</time>
      </trkpt>
      <trkpt lat="59.9317707" lon="17.6414084">
        <ele>29.9381</ele>
        <time>2013-05-09T20:20:07Z</time>
      </trkpt>
      <trkpt lat="59.9318364" lon="17.6414546">
        <ele>30.4188</ele>
        <time>2013-05-09T20:20:08Z</time>
      </trkpt>
      <trkpt lat="59.9318975" lon="17.6414981">
        <ele>29.9381</ele>
        <time>2013-05-09T20:20:09Z</time>
      </trkpt>
      <trkpt lat="59.9319576" lon="17.6415373">
        <ele>29.9381</ele>
        <time>2013-05-09T20:20:10Z</time>
      </trkpt>
      <trkpt lat="59.9320163" lon="17.6415768">
        <ele>29.4575</ele>
        <time>2013-05-09T20:20:11Z</time>
      </trkpt>
      <trkpt lat="59.9320715" lon="17.641623">
        <ele>29.4575</ele>
        <time>2013-05-09T20:20:12Z</time>
      </trkpt>
      <trkpt lat="59.9321287" lon="17.6416768">
        <ele>29.4575</ele>
        <time>2013-05-09T20:20:13Z</time>
      </trkpt>
      <trkpt lat="59.9321857" lon="17.6417354">
        <ele>28.9769</ele>
        <time>2013-05-09T20:20:14Z</time>
      </trkpt>
      <trkpt lat="59.9322461" lon="17.6417965">
        <ele>28.4962</ele>
        <time>2013-05-09T20:20:15Z</time>
      </trkpt>
      <trkpt lat="59.9323075" lon="17.6418571">
        <ele>28.0155</ele>
        <time>2013-05-09T20:20:16Z</time>
      </trkpt>
      <trkpt lat="59.9323706" lon="17.6419159">
        <ele>27.5349</ele>
        <time>2013-05-09T20:20:17Z</time>
      </trkpt>
      <trkpt lat="59.9324347" lon="17.6419761">
        <ele>27.5349</ele>
        <time>2013-05-09T20:20:18Z</time>
      </trkpt>
      <trkpt lat="59.9324983" lon="17.6420414">
        <ele>27.5349</ele>
        <time>2013-05-09T20:20:19Z</time>
      </trkpt>
      <trkpt lat="59.9325612" lon="17.6421115">
        <ele>27.0543</ele>
        <time>2013-05-09T20:20:20Z</time>
      </trkpt>
      <trkpt lat="59.9326243" lon="17.6421854">
        <ele>27.0543</ele>
        <time>2013-05-09T20:20:21Z</time>
      </trkpt>
      <trkpt lat="59.9326865" lon="17.6422633">
        <ele>27.0543</ele>
        <time>2013-05-09T20:20:22Z</time>
      </trkpt>
      <trkpt lat="59.9327466" lon="17.6423484">
        <ele>27.0543</ele>
        <time>2013-05-09T20:20:23Z</time>
      </trkpt>
      <trkpt lat="59.9328004" lon="17.6424396">
        <ele>27.0543</ele>
        <time>2013-05-09T20:20:24Z</time>
      </trkpt>
      <trkpt lat="59.9328517" lon="17.642534">
        <ele>27.0543</ele>
        <time>2013-05-09T20:20:25Z</time>
      </trkpt>
      <trkpt lat="59.9329058" lon="17.6426268">
        <ele>27.0543</ele>
        <time>2013-05-09T20:20:26Z</time>
      </trkpt>
      <trkpt lat="59.9329643" lon="17.6427095">
        <ele>27.0543</ele>
        <time>2013-05-09T20:20:27Z</time>
      </trkpt>
      <trkpt lat="59.9330248" lon="17.642789">
        <ele>27.0543</ele>
        <time>2013-05-09T20:20:28Z</time>
      </trkpt>
      <trkpt lat="59.9330856" lon="17.6428652">
        <ele>27.0543</ele>
        <time>2013-05-09T20:20:29Z</time>
      </trkpt>
      <trkpt lat="59.9331435" lon="17.6429445">
        <ele>27.0543</ele>
        <time>2013-05-09T20:20:30Z</time>
      </trkpt>
      <trkpt lat="59.9331977" lon="17.6430247">
        <ele>27.5349</ele>
        <time>2013-05-09T20:20:31Z</time>
      </trkpt>
      <trkpt lat="59.933248" lon="17.6431039">
        <ele>27.5349</ele>
        <time>2013-05-09T20:20:32Z</time>
      </trkpt>
      <trkpt lat="59.9332932" lon="17.6431817">
        <ele>28.0155</ele>
        <time>2013-05-09T20:20:33Z</time>
      </trkpt>
      <trkpt lat="59.9333336" lon="17.6432541">
        <ele>28.4962</ele>
        <time>2013-05-09T20:20:34Z</time>
      </trkpt>
      <trkpt lat="59.9333719" lon="17.6433177">
        <ele>28.9769</ele>
        <time>2013-05-09T20:20:35Z</time>
      </trkpt>
      <trkpt lat="59.9334111" lon="17.6433752">
        <ele>29.4575</ele>
        <time>2013-05-09T20:20:36Z</time>
      </trkpt>
      <trkpt lat="59.9334505" lon="17.6434293">
        <ele>29.4575</ele>
        <time>2013-05-09T20:20:37Z</time>
      </trkpt>
      <trkpt lat="59.9334895" lon="17.6434846">
        <ele>29.9381</ele>
        <time>2013-05-09T20:20:38Z</time>
      </trkpt>
      <trkpt lat="59.9335293" lon="17.6435422">
        <ele>30.4188</ele>
        <time>2013-05-09T20:20:39Z</time>
      </trkpt>
      <trkpt lat="59.9335699" lon="17.6435997">
        <ele>30.4188</ele>
        <time>2013-05-09T20:20:40Z</time>
      </trkpt>
      <trkpt lat="59.9336127" lon="17.6436515">
        <ele>30.8995</ele>
        <time>2013-05-09T20:20:41Z</time>
      </trkpt>
      <trkpt lat="59.9336573" lon="17.6436986">
        <ele>30.8995</ele>
        <time>2013-05-09T20:20:42Z</time>
      </trkpt>
      <trkpt lat="59.9337015" lon="17.643745">
        <ele>31.3801</ele>
        <time>2013-05-09T20:20:43Z</time>
      </trkpt>
      <trkpt lat="59.9337468" lon="17.6437887">
        <ele>31.3801</ele>
        <time>2013-05-09T20:20:44Z</time>
      </trkpt>
      <trkpt lat="59.9337942" lon="17.64383">
        <ele>31.8607</ele>
        <time>2013-05-09T20:20:45Z</time>
      </trkpt>
      <trkpt lat="59.9338427" lon="17.6438726">
        <ele>31.8607</ele>
        <time>2013-05-09T20:20:46Z</time>
      </trkpt>
      <trkpt lat="59.933893" lon="17.6439202">
        <ele>31.8607</ele>
        <time>2013-05-09T20:20:47Z</time>
      </trkpt>
      <trkpt lat="59.9339433" lon="17.6439705">
        <ele>31.8607</ele>
        <time>2013-05-09T20:20:48Z</time>
      </trkpt>
      <trkpt lat="59.9339894" lon="17.6440255">
        <ele>31.8607</ele>
        <time>2013-05-09T20:20:49Z</time>
      </trkpt>
      <trkpt lat="59.9340338" lon="17.6440857">
        <ele>31.8607</ele>
        <time>2013-05-09T20:20:50Z</time>
      </trkpt>
      <trkpt lat="59.9340785" lon="17.6441466">
        <ele>31.8607</ele>
        <time>2013-05-09T20:20:51Z</time>
      </trkpt>
      <trkpt lat="59.934124" lon="17.6442079">
        <ele>31.8607</ele>
        <time>2013-05-09T20:20:52Z</time>
      </trkpt>
      <trkpt lat="59.934171" lon="17.6442679">
        <ele>31.8607</ele>
        <time>2013-05-09T20:20:53Z</time>
      </trkpt>
      <trkpt lat="59.9342192" lon="17.6443275">
        <ele>31.8607</ele>
        <time>2013-05-09T20:20:54Z</time>
      </trkpt>
      <trkpt lat="59.9342671" lon="17.6443896">
        <ele>31.8607</ele>
        <time>2013-05-09T20:20:55Z</time>
      </trkpt>
      <trkpt lat="59.9343174" lon="17.6444522">
        <ele>32.3416</ele>
        <time>2013-05-09T20:20:56Z</time>
      </trkpt>
      <trkpt lat="59.9343654" lon="17.6445201">
        <ele>33.3029</ele>
        <time>2013-05-09T20:20:57Z</time>
      </trkpt>
      <trkpt lat="59.9344063" lon="17.6445896">
        <ele>33.7834</ele>
        <time>2013-05-09T20:20:58Z</time>
      </trkpt>
      <trkpt lat="59.9344409" lon="17.6446619">
        <ele>34.2642</ele>
        <time>2013-05-09T20:20:59Z</time>
      </trkpt>
      <trkpt lat="59.9344736" lon="17.6447252">
        <ele>34.2642</ele>
        <time>2013-05-09T20:21:00Z</time>
      </trkpt>
      <trkpt lat="59.9345085" lon="17.6447824">
        <ele>34.7449</ele>
        <time>2013-05-09T20:21:01Z</time>
      </trkpt>
      <trkpt lat="59.9345473" lon="17.6448382">
        <ele>35.2255</ele>
        <time>2013-05-09T20:21:02Z</time>
      </trkpt>
      <trkpt lat="59.9345881" lon="17.6448877">
        <ele>35.2255</ele>
        <time>2013-05-09T20:21:03Z</time>
      </trkpt>
      <trkpt lat="59.93463" lon="17.6449437">
        <ele>35.7061</ele>
        <time>2013-05-09T20:21:04Z</time>
      </trkpt>
      <trkpt lat="59.9346743" lon="17.6450027">
        <ele>35.7061</ele>
        <time>2013-05-09T20:21:05Z</time>
      </trkpt>
      <trkpt lat="59.9347207" lon="17.6450652">
        <ele>36.1868</ele>
        <time>2013-05-09T20:21:06Z</time>
      </trkpt>
      <trkpt lat="59.9347674" lon="17.6451319">
        <ele>36.6675</ele>
        <time>2013-05-09T20:21:07Z</time>
      </trkpt>
      <trkpt lat="59.9348173" lon="17.6452073">
        <ele>37.1481</ele>
        <time>2013-05-09T20:21:08Z</time>
      </trkpt>
      <trkpt lat="59.9348657" lon="17.6452882">
        <ele>38.1094</ele>
        <time>2013-05-09T20:21:09Z</time>
      </trkpt>
      <trkpt lat="59.9349147" lon="17.6453635">
        <ele>38.1094</ele>
        <time>2013-05-09T20:21:10Z</time>
      </trkpt>
      <trkpt lat="59.9349613" lon="17.6454296">
        <ele>38.5901</ele>
        <time>2013-05-09T20:21:11Z</time>
      </trkpt>
      <trkpt lat="59.9350057" lon="17.6454903">
        <ele>38.5901</ele>
        <time>2013-05-09T20:21:12Z</time>
      </trkpt>
      <trkpt lat="59.9350496" lon="17.645563">
        <ele>38.5901</ele>
        <time>2013-05-09T20:21:13Z</time>
      </trkpt>
      <trkpt lat="59.9350933" lon="17.6456328">
        <ele>38.5901</ele>
        <time>2013-05-09T20:21:14Z</time>
      </trkpt>
      <trkpt lat="59.9351378" lon="17.6457033">
        <ele>38.5901</ele>
        <time>2013-05-09T20:21:15Z</time>
      </trkpt>
      <trkpt lat="59.9351803" lon="17.6457834">
        <ele>39.0707</ele>
        <time>2013-05-09T20:21:16Z</time>
      </trkpt>
      <trkpt lat="59.9352208" lon="17.6458706">
        <ele>39.0707</ele>
        <time>2013-05-09T20:21:17Z</time>
      </trkpt>
      <trkpt lat="59.9352637" lon="17.6459572">
        <ele>39.0707</ele>
        <time>2013-05-09T20:21:18Z</time>
      </trkpt>
      <trkpt lat="59.9353112" lon="17.646037">
        <ele>38.5901</ele>
        <time>2013-05-09T20:21:19Z</time>
      </trkpt>
      <trkpt lat="59.935359" lon="17.6461094">
        <ele>38.1094</ele>
        <time>2013-05-09T20:21:20Z</time>
      </trkpt>
      <trkpt lat="59.9354103" lon="17.6461793">
        <ele>38.1094</ele>
        <time>2013-05-09T20:21:21Z</time>
      </trkpt>
      <trkpt lat="59.9354632" lon="17.6462591">
        <ele>38.1094</ele>
        <time>2013-05-09T20:21:22Z</time>
      </trkpt>
      <trkpt lat="59.9355178" lon="17.6463226">
        <ele>38.1094</ele>
        <time>2013-05-09T20:21:23Z</time>
      </trkpt>
      <trkpt lat="59.9355746" lon="17.6463929">
        <ele>38.1094</ele>
        <time>2013-05-09T20:21:24Z</time>
      </trkpt>
      <trkpt lat="59.9356304" lon="17.6464751">
        <ele>38.1094</ele>
        <time>2013-05-09T20:21:25Z</time>
      </trkpt>
      <trkpt lat="59.9356853" lon="17.6465445">
        <ele>38.1094</ele>
        <time>2013-05-09T20:21:26Z</time>
      </trkpt>
      <trkpt lat="59.9357459" lon="17.6466137">
        <ele>38.5901</ele>
        <time>2013-05-09T20:21:27Z</time>
      </trkpt>
      <trkpt lat="59.9358029" lon="17.6466852">
        <ele>38.5901</ele>
        <time>2013-05-09T20:21:28Z</time>
      </trkpt>
      <trkpt lat="59.9358605" lon="17.6467574">
        <ele>38.1094</ele>
        <time>2013-05-09T20:21:29Z</time>
      </trkpt>
      <trkpt lat="59.93592" lon="17.6468303">
        <ele>38.1094</ele>
        <time>2013-05-09T20:21:30Z</time>
      </trkpt>
      <trkpt lat="59.9359804" lon="17.6469059">
        <ele>38.1094</ele>
        <time>2013-05-09T20:21:31Z</time>
      </trkpt>
      <trkpt lat="59.9360439" lon="17.6469859">
        <ele>38.1094</ele>
        <time>2013-05-09T20:21:32Z</time>
      </trkpt>
      <trkpt lat="59.9361084" lon="17.6470636">
        <ele>38.1094</ele>
        <time>2013-05-09T20:21:33Z</time>
      </trkpt>
      <trkpt lat="59.9361729" lon="17.6471397">
        <ele>38.1094</ele>
        <time>2013-05-09T20:21:34Z</time>
      </trkpt>
      <trkpt lat="59.9362374" lon="17.6472186">
        <ele>38.1094</ele>
        <time>2013-05-09T20:21:35Z</time>
      </trkpt>
      <trkpt lat="59.9363009" lon="17.6472993">
        <ele>38.1094</ele>
        <time>2013-05-09T20:21:36Z</time>
      </trkpt>
      <trkpt lat="59.9363654" lon="17.6473806">
        <ele>38.1094</ele>
        <time>2013-05-09T20:21:37Z</time>
      </trkpt>
      <trkpt lat="59.9364297" lon="17.6474582">
        <ele>37.6287</ele>
        <time>2013-05-09T20:21:38Z</time>
      </trkpt>
      <trkpt lat="59.9364935" lon="17.6475366">
        <ele>37.1481</ele>
        <time>2013-05-09T20:21:39Z</time>
      </trkpt>
      <trkpt lat="59.936559" lon="17.6476169">
        <ele>37.1481</ele>
        <time>2013-05-09T20:21:40Z</time>
      </trkpt>
      <trkpt lat="59.9366248" lon="17.6476976">
        <ele>37.1481</ele>
        <time>2013-05-09T20:21:41Z</time>
      </trkpt>
      <trkpt lat="59.9366896" lon="17.6477779">
        <ele>36.6675</ele>
        <time>2013-05-09T20:21:42Z</time>
      </trkpt>
      <trkpt lat="59.9367543" lon="17.6478581">
        <ele>36.6675</ele>
        <time>2013-05-09T20:21:43Z</time>
      </trkpt>
      <trkpt lat="59.9368198" lon="17.6479359">
        <ele>36.1868</ele>
        <time>2013-05-09T20:21:44Z</time>
      </trkpt>
      <trkpt lat="59.9368864" lon="17.6480091">
        <ele>36.1868</ele>
        <time>2013-05-09T20:21:45Z</time>
      </trkpt>
      <trkpt lat="59.9369514" lon="17.6480807">
        <ele>35.7061</ele>
        <time>2013-05-09T20:21:46Z</time>
      </trkpt>
      <trkpt lat="59.9370125" lon="17.6481539">
        <ele>35.2255</ele>
        <time>2013-05-09T20:21:47Z</time>
      </trkpt>
      <trkpt lat="59.937071" lon="17.6482317">
        <ele>34.7449</ele>
        <time>2013-05-09T20:21:48Z</time>
      </trkpt>
      <trkpt lat="59.9371278" lon="17.6483131">
        <ele>34.2642</ele>
        <time>2013-05-09T20:21:49Z</time>
      </trkpt>
      <trkpt lat="59.9371845" lon="17.6483995">
        <ele>33.7834</ele>
        <time>2013-05-09T20:21:50Z</time>
      </trkpt>
      <trkpt lat="59.937241" lon="17.648488">
        <ele>33.3029</ele>
        <time>2013-05-09T20:21:51Z</time>
      </trkpt>
      <trkpt lat="59.9372993" lon="17.6485741">
        <ele>33.3029</ele>
        <time>2013-05-09T20:21:52Z</time>
      </trkpt>
      <trkpt lat="59.9373604" lon="17.6486601">
        <ele>33.3029</ele>
        <time>2013-05-09T20:21:53Z</time>
      </trkpt>
      <trkpt lat="59.9374207" lon="17.6487469">
        <ele>33.3029</ele>
        <time>2013-05-09T20:21:54Z</time>
      </trkpt>
      <trkpt lat="59.9374798" lon="17.6488353">
        <ele>32.8223</ele>
        <time>2013-05-09T20:21:55Z</time>
      </trkpt>
      <trkpt lat="59.9375388" lon="17.6489284">
        <ele>32.8223</ele>
        <time>2013-05-09T20:21:56Z</time>
      </trkpt>
      <trkpt lat="59.9375966" lon="17.6490293">
        <ele>32.8223</ele>
        <time>2013-05-09T20:21:57Z</time>
      </trkpt>
      <trkpt lat="59.9376529" lon="17.6491364">
        <ele>32.8223</ele>
        <time>2013-05-09T20:21:58Z</time>
      </trkpt>
      <trkpt lat="59.9377082" lon="17.6492537">
        <ele>32.8223</ele>
        <time>2013-05-09T20:21:59Z</time>
      </trkpt>
      <trkpt lat="59.9377584" lon="17.6493787">
        <ele>32.3416</ele>
        <time>2013-05-09T20:22:00Z</time>
      </trkpt>
      <trkpt lat="59.9378025" lon="17.6495169">
        <ele>32.3416</ele>
        <time>2013-05-09T20:22:01Z</time>
      </trkpt>
      <trkpt lat="59.9378465" lon="17.6496558">
        <ele>32.3416</ele>
        <time>2013-05-09T20:22:02Z</time>
      </trkpt>
      <trkpt lat="59.9378945" lon="17.6497882">
        <ele>32.3416</ele>
        <time>2013-05-09T20:22:03Z</time>
      </trkpt>
      <trkpt lat="59.9379444" lon="17.6499132">
        <ele>32.3416</ele>
        <time>2013-05-09T20:22:04Z</time>
      </trkpt>
      <trkpt lat="59.9379946" lon="17.650034">
        <ele>32.3416</ele>
        <time>2013-05-09T20:22:05Z</time>
      </trkpt>
      <trkpt lat="59.9380432" lon="17.6501582">
        <ele>31.8607</ele>
        <time>2013-05-09T20:22:06Z</time>
      </trkpt>
      <trkpt lat="59.9380889" lon="17.6502872">
        <ele>31.8607</ele>
        <time>2013-05-09T20:22:07Z</time>
      </trkpt>
      <trkpt lat="59.9381338" lon="17.6504187">
        <ele>31.8607</ele>
        <time>2013-05-09T20:22:08Z</time>
      </trkpt>
      <trkpt lat="59.938178" lon="17.6505468">
        <ele>31.3801</ele>
        <time>2013-05-09T20:22:09Z</time>
      </trkpt>
      <trkpt lat="59.9382241" lon="17.6506739">
        <ele>31.3801</ele>
        <time>2013-05-09T20:22:10Z</time>
      </trkpt>
      <trkpt lat="59.9382736" lon="17.6507958">
        <ele>31.3801</ele>
        <time>2013-05-09T20:22:11Z</time>
      </trkpt>
      <trkpt lat="59.9383255" lon="17.6509107">
        <ele>31.3801</ele>
        <time>2013-05-09T20:22:12Z</time>
      </trkpt>
      <trkpt lat="59.938379" lon="17.6510238">
        <ele>31.3801</ele>
        <time>2013-05-09T20:22:13Z</time>
      </trkpt>
      <trkpt lat="59.9384287" lon="17.6511439">
        <ele>31.3801</ele>
        <time>2013-05-09T20:22:14Z</time>
      </trkpt>
      <trkpt lat="59.9384732" lon="17.6512703">
        <ele>31.3801</ele>
        <time>2013-05-09T20:22:15Z</time>
      </trkpt>
      <trkpt lat="59.938515" lon="17.6513971">
        <ele>30.8995</ele>
        <time>2013-05-09T20:22:16Z</time>
      </trkpt>
      <trkpt lat="59.9385571" lon="17.651532">
        <ele>30.8995</ele>
        <time>2013-05-09T20:22:17Z</time>
      </trkpt>
      <trkpt lat="59.9385989" lon="17.6516695">
        <ele>30.8995</ele>
        <time>2013-05-09T20:22:18Z</time>
      </trkpt>
      <trkpt lat="59.93864" lon="17.6518023">
        <ele>30.8995</ele>
        <time>2013-05-09T20:22:19Z</time>
      </trkpt>
      <trkpt lat="59.9386819" lon="17.6519385">
        <ele>30.4188</ele>
        <time>2013-05-09T20:22:20Z</time>
      </trkpt>
      <trkpt lat="59.9387235" lon="17.652079">
        <ele>30.4188</ele>
        <time>2013-05-09T20:22:21Z</time>
      </trkpt>
      <trkpt lat="59.9387634" lon="17.652221">
        <ele>30.4188</ele>
        <time>2013-05-09T20:22:22Z</time>
      </trkpt>
      <trkpt lat="59.9388027" lon="17.6523634">
        <ele>30.4188</ele>
        <time>2013-05-09T20:22:23Z</time>
      </trkpt>
      <trkpt lat="59.9388425" lon="17.6525082">
        <ele>30.4188</ele>
        <time>2013-05-09T20:22:24Z</time>
      </trkpt>
      <trkpt lat="59.9388819" lon="17.6526555">
        <ele>29.9381</ele>
        <time>2013-05-09T20:22:25Z</time>
      </trkpt>
      <trkpt lat="59.9389208" lon="17.6528048">
        <ele>29.9381</ele>
        <time>2013-05-09T20:22:26Z</time>
      </trkpt>
      <trkpt lat="59.9389588" lon="17.6529555">
        <ele>29.9381</ele>
        <time>2013-05-09T20:22:27Z</time>
      </trkpt>
      <trkpt lat="59.9389965" lon="17.6531063">
        <ele>29.9381</ele>
        <time>2013-05-09T20:22:28Z</time>
      </trkpt>
      <trkpt lat="59.9390333" lon="17.6532579">
        <ele>30.4188</ele>
        <time>2013-05-09T20:22:29Z</time>
      </trkpt>
      <trkpt lat="59.9390695" lon="17.6534103">
        <ele>30.4188</ele>
        <time>2013-05-09T20:22:30Z</time>
      </trkpt>
      <trkpt lat="59.939105" lon="17.6535619">
        <ele>29.9381</ele>
        <time>2013-05-09T20:22:31Z</time>
      </trkpt>
      <trkpt lat="59.9391392" lon="17.6537128">
        <ele>29.9381</ele>
        <time>2013-05-09T20:22:32Z</time>
      </trkpt>
      <trkpt lat="59.9391717" lon="17.6538621">
        <ele>29.9381</ele>
        <time>2013-05-09T20:22:33Z</time>
      </trkpt>
      <trkpt lat="59.9392035" lon="17.6540094">
        <ele>29.9381</ele>
        <time>2013-05-09T20:22:34Z</time>
      </trkpt>
      <trkpt lat="59.9392345" lon="17.6541573">
        <ele>30.4188</ele>
        <time>2013-05-09T20:22:35Z</time>
      </trkpt>
      <trkpt lat="59.9392636" lon="17.6543063">
        <ele>30.4188</ele>
        <time>2013-05-09T20:22:36Z</time>
      </trkpt>
      <trkpt lat="59.9392915" lon="17.6544538">
        <ele>30.4188</ele>
        <time>2013-05-09T20:22:37Z</time>
      </trkpt>
      <trkpt lat="59.93932" lon="17.6546007">
        <ele>30.4188</ele>
        <time>2013-05-09T20:22:38Z</time>
      </trkpt>
      <trkpt lat="59.9393491" lon="17.6547471">
        <ele>30.4188</ele>
        <time>2013-05-09T20:22:39Z</time>
      </trkpt>
      <trkpt lat="59.9393796" lon="17.6548917">
        <ele>30.8995</ele>
        <time>2013-05-09T20:22:40Z</time>
      </trkpt>
      <trkpt lat="59.9394123" lon="17.6550326">
        <ele>30.8995</ele>
        <time>2013-05-09T20:22:41Z</time>
      </trkpt>
      <trkpt lat="59.9394454" lon="17.6551725">
        <ele>30.8995</ele>
        <time>2013-05-09T20:22:42Z</time>
      </trkpt>
      <trkpt lat="59.9394751" lon="17.6553124">
        <ele>30.8995</ele>
        <time>2013-05-09T20:22:43Z</time>
      </trkpt>
      <trkpt lat="59.9395015" lon="17.6554508">
        <ele>30.8995</ele>
        <time>2013-05-09T20:22:44Z</time>
      </trkpt>
      <trkpt lat="59.9395284" lon="17.6555864">
        <ele>30.8995</ele>
        <time>2013-05-09T20:22:45Z</time>
      </trkpt>
      <trkpt lat="59.9395563" lon="17.6557183">
        <ele>30.8995</ele>
        <time>2013-05-09T20:22:46Z</time>
      </trkpt>
      <trkpt lat="59.9395814" lon="17.6558495">
        <ele>30.8995</ele>
        <time>2013-05-09T20:22:47Z</time>
      </trkpt>
      <trkpt lat="59.9396052" lon="17.6559788">
        <ele>30.8995</ele>
        <time>2013-05-09T20:22:48Z</time>
      </trkpt>
      <trkpt lat="59.9396315" lon="17.6561044">
        <ele>30.8995</ele>
        <time>2013-05-09T20:22:49Z</time>
      </trkpt>
      <trkpt lat="59.9396564" lon="17.6562302">
        <ele>30.8995</ele>
        <time>2013-05-09T20:22:50Z</time>
      </trkpt>
      <trkpt lat="59.9396787" lon="17.6563562">
        <ele>30.8995</ele>
        <time>2013-05-09T20:22:51Z</time>
      </trkpt>
      <trkpt lat="59.9397029" lon="17.6564798">
        <ele>30.8995</ele>
        <time>2013-05-09T20:22:52Z</time>
      </trkpt>
      <trkpt lat="59.9397278" lon="17.6566017">
        <ele>30.8995</ele>
        <time>2013-05-09T20:22:53Z</time>
      </trkpt>
      <trkpt lat="59.9397516" lon="17.6567238">
        <ele>30.8995</ele>
        <time>2013-05-09T20:22:54Z</time>
      </trkpt>
      <trkpt lat="59.9397759" lon="17.6568446">
        <ele>30.8995</ele>
        <time>2013-05-09T20:22:55Z</time>
      </trkpt>
      <trkpt lat="59.9397999" lon="17.6569654">
        <ele>30.8995</ele>
        <time>2013-05-09T20:22:56Z</time>
      </trkpt>
      <trkpt lat="59.9398227" lon="17.6570874">
        <ele>30.4188</ele>
        <time>2013-05-09T20:22:57Z</time>
      </trkpt>
      <trkpt lat="59.9398455" lon="17.6572084">
        <ele>30.4188</ele>
        <time>2013-05-09T20:22:58Z</time>
      </trkpt>
      <trkpt lat="59.9398698" lon="17.6573288">
        <ele>30.4188</ele>
        <time>2013-05-09T20:22:59Z</time>
      </trkpt>
      <trkpt lat="59.9398947" lon="17.6574492">
        <ele>30.4188</ele>
        <time>2013-05-09T20:23:00Z</time>
      </trkpt>
      <trkpt lat="59.93992" lon="17.65757">
        <ele>30.4188</ele>
        <time>2013-05-09T20:23:01Z</time>
      </trkpt>
      <trkpt lat="59.939945" lon="17.6576914">
        <ele>30.4188</ele>
        <time>2013-05-09T20:23:02Z</time>
      </trkpt>
      <trkpt lat="59.9399701" lon="17.6578127">
        <ele>29.9381</ele>
        <time>2013-05-09T20:23:03Z</time>
      </trkpt>
      <trkpt lat="59.9399957" lon="17.6579343">
        <ele>29.9381</ele>
        <time>2013-05-09T20:23:04Z</time>
      </trkpt>
      <trkpt lat="59.9400221" lon="17.6580581">
        <ele>29.9381</ele>
        <time>2013-05-09T20:23:05Z</time>
      </trkpt>
      <trkpt lat="59.9400491" lon="17.6581842">
        <ele>29.4575</ele>
        <time>2013-05-09T20:23:06Z</time>
      </trkpt>
      <trkpt lat="59.940077" lon="17.6583118">
        <ele>29.4575</ele>
        <time>2013-05-09T20:23:07Z</time>
      </trkpt>
      <trkpt lat="59.9401064" lon="17.6584407">
        <ele>29.4575</ele>
        <time>2013-05-09T20:23:08Z</time>
      </trkpt>
      <trkpt lat="59.9401371" lon="17.6585718">
        <ele>29.4575</ele>
        <time>2013-05-09T20:23:09Z</time>
      </trkpt>
      <trkpt lat="59.9401682" lon="17.6587065">
        <ele>29.4575</ele>
        <time>2013-05-09T20:23:10Z</time>
      </trkpt>
      <trkpt lat="59.9401996" lon="17.6588445">
        <ele>28.9769</ele>
        <time>2013-05-09T20:23:11Z</time>
      </trkpt>
      <trkpt lat="59.9402294" lon="17.658984">
        <ele>29.4575</ele>
        <time>2013-05-09T20:23:12Z</time>
      </trkpt>
      <trkpt lat="59.9402553" lon="17.6591237">
        <ele>29.4575</ele>
        <time>2013-05-09T20:23:13Z</time>
      </trkpt>
      <trkpt lat="59.9402781" lon="17.6592602">
        <ele>29.4575</ele>
        <time>2013-05-09T20:23:14Z</time>
      </trkpt>
      <trkpt lat="59.9402987" lon="17.6593933">
        <ele>29.4575</ele>
        <time>2013-05-09T20:23:15Z</time>
      </trkpt>
      <trkpt lat="59.9403194" lon="17.6595238">
        <ele>29.4575</ele>
        <time>2013-05-09T20:23:16Z</time>
      </trkpt>
      <trkpt lat="59.9403436" lon="17.6596466">
        <ele>29.4575</ele>
        <time>2013-05-09T20:23:17Z</time>
      </trkpt>
      <trkpt lat="59.9403759" lon="17.6597672">
        <ele>29.9381</ele>
        <time>2013-05-09T20:23:18Z</time>
      </trkpt>
      <trkpt lat="59.9404095" lon="17.6598848">
        <ele>30.8995</ele>
        <time>2013-05-09T20:23:19Z</time>
      </trkpt>
      <trkpt lat="59.9404447" lon="17.6600061">
        <ele>30.8995</ele>
        <time>2013-05-09T20:23:20Z</time>
      </trkpt>
      <trkpt lat="59.9404899" lon="17.6601319">
        <ele>30.8995</ele>
        <time>2013-05-09T20:23:21Z</time>
      </trkpt>
      <trkpt lat="59.9405161" lon="17.6602532">
        <ele>29.9381</ele>
        <time>2013-05-09T20:23:22Z</time>
      </trkpt>
      <trkpt lat="59.9405282" lon="17.6604137">
        <ele>30.4188</ele>
        <time>2013-05-09T20:23:23Z</time>
      </trkpt>
      <trkpt lat="59.9405213" lon="17.6605549">
        <ele>30.4188</ele>
        <time>2013-05-09T20:23:24Z</time>
      </trkpt>
      <trkpt lat="59.9404952" lon="17.6606923">
        <ele>29.4575</ele>
        <time>2013-05-09T20:23:25Z</time>
      </trkpt>
      <trkpt lat="59.9404625" lon="17.6608328">
        <ele>29.4575</ele>
        <time>2013-05-09T20:23:26Z</time>
      </trkpt>
      <trkpt lat="59.9404287" lon="17.6609659">
        <ele>28.9769</ele>
        <time>2013-05-09T20:23:27Z</time>
      </trkpt>
      <trkpt lat="59.9404043" lon="17.6611017">
        <ele>28.9769</ele>
        <time>2013-05-09T20:23:28Z</time>
      </trkpt>
      <trkpt lat="59.9403887" lon="17.6612374">
        <ele>28.4962</ele>
        <time>2013-05-09T20:23:29Z</time>
      </trkpt>
      <trkpt lat="59.9403774" lon="17.6613752">
        <ele>28.4962</ele>
        <time>2013-05-09T20:23:30Z</time>
      </trkpt>
      <trkpt lat="59.9403811" lon="17.6615081">
        <ele>28.4962</ele>
        <time>2013-05-09T20:23:31Z</time>
      </trkpt>
      <trkpt lat="59.9403981" lon="17.6616332">
        <ele>28.4962</ele>
        <time>2013-05-09T20:23:32Z</time>
      </trkpt>
      <trkpt lat="59.9404275" lon="17.6617439">
        <ele>28.4962</ele>
        <time>2013-05-09T20:23:33Z</time>
      </trkpt>
      <trkpt lat="59.9404638" lon="17.6618615">
        <ele>28.4962</ele>
        <time>2013-05-09T20:23:34Z</time>
      </trkpt>
      <trkpt lat="59.9405104" lon="17.6619704">
        <ele>29.4575</ele>
        <time>2013-05-09T20:23:35Z</time>
      </trkpt>
      <trkpt lat="59.9405671" lon="17.6620532">
        <ele>29.4575</ele>
        <time>2013-05-09T20:23:36Z</time>
      </trkpt>
      <trkpt lat="59.9406327" lon="17.6621123">
        <ele>29.9381</ele>
        <time>2013-05-09T20:23:37Z</time>
      </trkpt>
      <trkpt lat="59.9407011" lon="17.6621506">
        <ele>30.4188</ele>
        <time>2013-05-09T20:23:38Z</time>
      </trkpt>
      <trkpt lat="59.9407741" lon="17.6621719">
        <ele>30.4188</ele>
        <time>2013-05-09T20:23:39Z</time>
      </trkpt>
      <trkpt lat="59.9408462" lon="17.6621859">
        <ele>30.4188</ele>
        <time>2013-05-09T20:23:40Z</time>
      </trkpt>
      <trkpt lat="59.9409176" lon="17.6622061">
        <ele>30.4188</ele>
        <time>2013-05-09T20:23:41Z</time>
      </trkpt>
      <trkpt lat="59.9409872" lon="17.6622273">
        <ele>30.8995</ele>
        <time>2013-05-09T20:23:42Z</time>
      </trkpt>
      <trkpt lat="59.9410561" lon="17.6622574">
        <ele>31.3801</ele>
        <time>2013-05-09T20:23:43Z</time>
      </trkpt>
      <trkpt lat="59.9411238" lon="17.6622988">
        <ele>31.3801</ele>
        <time>2013-05-09T20:23:44Z</time>
      </trkpt>
      <trkpt lat="59.9411903" lon="17.6623481">
        <ele>31.3801</ele>
        <time>2013-05-09T20:23:45Z</time>
      </trkpt>
      <trkpt lat="59.9412558" lon="17.6623968">
        <ele>31.8607</ele>
        <time>2013-05-09T20:23:46Z</time>
      </trkpt>
      <trkpt lat="59.9413199" lon="17.6624506">
        <ele>31.8607</ele>
        <time>2013-05-09T20:23:47Z</time>
      </trkpt>
      <trkpt lat="59.9413829" lon="17.6625123">
        <ele>31.8607</ele>
        <time>2013-05-09T20:23:48Z</time>
      </trkpt>
      <trkpt lat="59.941444" lon="17.6625851">
        <ele>31.8607</ele>
        <time>2013-05-09T20:23:49Z</time>
      </trkpt>
      <trkpt lat="59.9415027" lon="17.6626754">
        <ele>31.8607</ele>
        <time>2013-05-09T20:23:50Z</time>
      </trkpt>
      <trkpt lat="59.9415585" lon="17.6627666">
        <ele>31.8607</ele>
        <time>2013-05-09T20:23:51Z</time>
      </trkpt>
      <trkpt lat="59.941613" lon="17.6628572">
        <ele>31.8607</ele>
        <time>2013-05-09T20:23:52Z</time>
      </trkpt>
      <trkpt lat="59.9416663" lon="17.662953">
        <ele>31.8607</ele>
        <time>2013-05-09T20:23:53Z</time>
      </trkpt>
      <trkpt lat="59.9417191" lon="17.6630521">
        <ele>31.8607</ele>
        <time>2013-05-09T20:23:54Z</time>
      </trkpt>
      <trkpt lat="59.9417733" lon="17.6631493">
        <ele>31.8607</ele>
        <time>2013-05-09T20:23:55Z</time>
      </trkpt>
      <trkpt lat="59.9418296" lon="17.6632457">
        <ele>31.8607</ele>
        <time>2013-05-09T20:23:56Z</time>
      </trkpt>
      <trkpt lat="59.9418865" lon="17.6633415">
        <ele>31.8607</ele>
        <time>2013-05-09T20:23:57Z</time>
      </trkpt>
      <trkpt lat="59.941945" lon="17.6634352">
        <ele>31.8607</ele>
        <time>2013-05-09T20:23:58Z</time>
      </trkpt>
      <trkpt lat="59.9420049" lon="17.663528">
        <ele>31.8607</ele>
        <time>2013-05-09T20:23:59Z</time>
      </trkpt>
      <trkpt lat="59.9420652" lon="17.6636218">
        <ele>31.8607</ele>
        <time>2013-05-09T20:24:00Z</time>
      </trkpt>
      <trkpt lat="59.9421262" lon="17.6637139">
        <ele>31.8607</ele>
        <time>2013-05-09T20:24:01Z</time>
      </trkpt>
      <trkpt lat="59.942188" lon="17.6638046">
        <ele>31.8607</ele>
        <time>2013-05-09T20:24:02Z</time>
      </trkpt>
      <trkpt lat="59.9422522" lon="17.6638971">
        <ele>31.8607</ele>
        <time>2013-05-09T20:24:03Z</time>
      </trkpt>
      <trkpt lat="59.9423174" lon="17.6639875">
        <ele>31.8607</ele>
        <time>2013-05-09T20:24:04Z</time>
      </trkpt>
      <trkpt lat="59.942383" lon="17.664076">
        <ele>31.8607</ele>
        <time>2013-05-09T20:24:05Z</time>
      </trkpt>
      <trkpt lat="59.9424499" lon="17.6641629">
        <ele>31.8607</ele>
        <time>2013-05-09T20:24:06Z</time>
      </trkpt>
      <trkpt lat="59.9425175" lon="17.6642468">
        <ele>31.8607</ele>
        <time>2013-05-09T20:24:07Z</time>
      </trkpt>
      <trkpt lat="59.9425867" lon="17.6643299">
        <ele>31.8607</ele>
        <time>2013-05-09T20:24:08Z</time>
      </trkpt>
      <trkpt lat="59.9426571" lon="17.6644133">
        <ele>31.8607</ele>
        <time>2013-05-09T20:24:09Z</time>
      </trkpt>
      <trkpt lat="59.9427286" lon="17.6644937">
        <ele>31.3801</ele>
        <time>2013-05-09T20:24:10Z</time>
      </trkpt>
      <trkpt lat="59.9428018" lon="17.6645707">
        <ele>31.3801</ele>
        <time>2013-05-09T20:24:11Z</time>
      </trkpt>
      <trkpt lat="59.9428759" lon="17.6646454">
        <ele>31.3801</ele>
        <time>2013-05-09T20:24:12Z</time>
      </trkpt>
      <trkpt lat="59.94295" lon="17.6647201">
        <ele>30.8995</ele>
        <time>2013-05-09T20:24:13Z</time>
      </trkpt>
      <trkpt lat="59.943026" lon="17.664793">
        <ele>30.8995</ele>
        <time>2013-05-09T20:24:14Z</time>
      </trkpt>
      <trkpt lat="59.9431032" lon="17.664863">
        <ele>30.8995</ele>
        <time>2013-05-09T20:24:15Z</time>
      </trkpt>
      <trkpt lat="59.943181" lon="17.6649313">
        <ele>30.8995</ele>
        <time>2013-05-09T20:24:16Z</time>
      </trkpt>
      <trkpt lat="59.9432588" lon="17.6649971">
        <ele>30.4188</ele>
        <time>2013-05-09T20:24:17Z</time>
      </trkpt>
      <trkpt lat="59.9433374" lon="17.6650603">
        <ele>30.4188</ele>
        <time>2013-05-09T20:24:18Z</time>
      </trkpt>
      <trkpt lat="59.9434166" lon="17.6651209">
        <ele>29.9381</ele>
        <time>2013-05-09T20:24:19Z</time>
      </trkpt>
      <trkpt lat="59.9434975" lon="17.6651787">
        <ele>29.9381</ele>
        <time>2013-05-09T20:24:20Z</time>
      </trkpt>
      <trkpt lat="59.9435793" lon="17.6652358">
        <ele>29.4575</ele>
        <time>2013-05-09T20:24:21Z</time>
      </trkpt>
      <trkpt lat="59.9436616" lon="17.6652911">
        <ele>29.4575</ele>
        <time>2013-05-09T20:24:22Z</time>
      </trkpt>
      <trkpt lat="59.9437445" lon="17.6653426">
        <ele>28.9769</ele>
        <time>2013-05-09T20:24:23Z</time>
      </trkpt>
      <trkpt lat="59.9438281" lon="17.6653908">
        <ele>28.9769</ele>
        <time>2013-05-09T20:24:24Z</time>
      </trkpt>
      <trkpt lat="59.9439125" lon="17.6654379">
        <ele>28.4962</ele>
        <time>2013-05-09T20:24:25Z</time>
      </trkpt>
      <trkpt lat="59.9439984" lon="17.6654844">
        <ele>28.4962</ele>
        <time>2013-05-09T20:24:26Z</time>
      </trkpt>
      <trkpt lat="59.9440844" lon="17.6655273">
        <ele>28.0155</ele>
        <time>2013-05-09T20:24:27Z</time>
      </trkpt>
      <trkpt lat="59.9441698" lon="17.665566">
        <ele>28.0155</ele>
        <time>2013-05-09T20:24:28Z</time>
      </trkpt>
      <trkpt lat="59.9442553" lon="17.6656035">
        <ele>27.5349</ele>
        <time>2013-05-09T20:24:29Z</time>
      </trkpt>
      <trkpt lat="59.9443412" lon="17.6656409">
        <ele>27.5349</ele>
        <time>2013-05-09T20:24:30Z</time>
      </trkpt>
      <trkpt lat="59.9444274" lon="17.6656757">
        <ele>27.5349</ele>
        <time>2013-05-09T20:24:31Z</time>
      </trkpt>
      <trkpt lat="59.9445141" lon="17.6657071">
        <ele>27.0543</ele>
        <time>2013-05-09T20:24:32Z</time>
      </trkpt>
      <trkpt lat="59.9446003" lon="17.6657384">
        <ele>27.0543</ele>
        <time>2013-05-09T20:24:33Z</time>
      </trkpt>
      <trkpt lat="59.9446858" lon="17.6657715">
        <ele>27.0543</ele>
        <time>2013-05-09T20:24:34Z</time>
      </trkpt>
      <trkpt lat="59.9447707" lon="17.6658036">
        <ele>27.0543</ele>
        <time>2013-05-09T20:24:35Z</time>
      </trkpt>
      <trkpt lat="59.9448555" lon="17.6658321">
        <ele>27.0543</ele>
        <time>2013-05-09T20:24:36Z</time>
      </trkpt>
      <trkpt lat="59.9449401" lon="17.6658611">
        <ele>26.5736</ele>
        <time>2013-05-09T20:24:37Z</time>
      </trkpt>
      <trkpt lat="59.9450247" lon="17.6658918">
        <ele>26.5736</ele>
        <time>2013-05-09T20:24:38Z</time>
      </trkpt>
      <trkpt lat="59.9451095" lon="17.6659242">
        <ele>26.5736</ele>
        <time>2013-05-09T20:24:39Z</time>
      </trkpt>
      <trkpt lat="59.9451942" lon="17.665957">
        <ele>26.5736</ele>
        <time>2013-05-09T20:24:40Z</time>
      </trkpt>
      <trkpt lat="59.9452785" lon="17.6659906">
        <ele>26.5736</ele>
        <time>2013-05-09T20:24:41Z</time>
      </trkpt>
      <trkpt lat="59.9453628" lon="17.6660238">
        <ele>26.5736</ele>
        <time>2013-05-09T20:24:42Z</time>
      </trkpt>
      <trkpt lat="59.9454463" lon="17.6660528">
        <ele>26.0929</ele>
        <time>2013-05-09T20:24:43Z</time>
      </trkpt>
      <trkpt lat="59.94553" lon="17.6660812">
        <ele>26.0929</ele>
        <time>2013-05-09T20:24:44Z</time>
      </trkpt>
      <trkpt lat="59.9456135" lon="17.6661123">
        <ele>26.0929</ele>
        <time>2013-05-09T20:24:45Z</time>
      </trkpt>
      <trkpt lat="59.9456967" lon="17.666144">
        <ele>26.0929</ele>
        <time>2013-05-09T20:24:46Z</time>
      </trkpt>
      <trkpt lat="59.9457798" lon="17.6661755">
        <ele>26.0929</ele>
        <time>2013-05-09T20:24:47Z</time>
      </trkpt>
      <trkpt lat="59.9458631" lon="17.6662046">
        <ele>25.6123</ele>
        <time>2013-05-09T20:24:48Z</time>
      </trkpt>
      <trkpt lat="59.9459457" lon="17.6662341">
        <ele>26.0929</ele>
        <time>2013-05-09T20:24:49Z</time>
      </trkpt>
      <trkpt lat="59.9460277" lon="17.6662647">
        <ele>25.6123</ele>
        <time>2013-05-09T20:24:50Z</time>
      </trkpt>
      <trkpt lat="59.9461102" lon="17.6662982">
        <ele>25.6123</ele>
        <time>2013-05-09T20:24:51Z</time>
      </trkpt>
      <trkpt lat="59.9461916" lon="17.666338">
        <ele>25.6123</ele>
        <time>2013-05-09T20:24:52Z</time>
      </trkpt>
      <trkpt lat="59.9462719" lon="17.666392">
        <ele>25.6123</ele>
        <time>2013-05-09T20:24:53Z</time>
      </trkpt>
      <trkpt lat="59.9463518" lon="17.6664506">
        <ele>25.6123</ele>
        <time>2013-05-09T20:24:54Z</time>
      </trkpt>
      <trkpt lat="59.9464331" lon="17.6664967">
        <ele>25.1317</ele>
        <time>2013-05-09T20:24:55Z</time>
      </trkpt>
      <trkpt lat="59.9465164" lon="17.6665261">
        <ele>25.1317</ele>
        <time>2013-05-09T20:24:56Z</time>
      </trkpt>
      <trkpt lat="59.9466014" lon="17.6665382">
        <ele>25.1317</ele>
        <time>2013-05-09T20:24:57Z</time>
      </trkpt>
      <trkpt lat="59.9466877" lon="17.6665435">
        <ele>25.1317</ele>
        <time>2013-05-09T20:24:58Z</time>
      </trkpt>
      <trkpt lat="59.9467737" lon="17.666561">
        <ele>24.651</ele>
        <time>2013-05-09T20:24:59Z</time>
      </trkpt>
      <trkpt lat="59.9468588" lon="17.6665895">
        <ele>24.651</ele>
        <time>2013-05-09T20:25:00Z</time>
      </trkpt>
      <trkpt lat="59.9469443" lon="17.666624">
        <ele>24.651</ele>
        <time>2013-05-09T20:25:01Z</time>
      </trkpt>
      <trkpt lat="59.9470297" lon="17.6666616">
        <ele>24.651</ele>
        <time>2013-05-09T20:25:02Z</time>
      </trkpt>
      <trkpt lat="59.9471143" lon="17.6666997">
        <ele>24.651</ele>
        <time>2013-05-09T20:25:03Z</time>
      </trkpt>
      <trkpt lat="59.9471991" lon="17.6667351">
        <ele>24.651</ele>
        <time>2013-05-09T20:25:04Z</time>
      </trkpt>
      <trkpt lat="59.9472834" lon="17.6667713">
        <ele>24.651</ele>
        <time>2013-05-09T20:25:05Z</time>
      </trkpt>
      <trkpt lat="59.947367" lon="17.6668117">
        <ele>24.651</ele>
        <time>2013-05-09T20:25:06Z</time>
      </trkpt>
      <trkpt lat="59.94745" lon="17.6668529">
        <ele>24.651</ele>
        <time>2013-05-09T20:25:07Z</time>
      </trkpt>
      <trkpt lat="59.9475333" lon="17.666893">
        <ele>24.651</ele>
        <time>2013-05-09T20:25:08Z</time>
      </trkpt>
      <trkpt lat="59.9476168" lon="17.6669334">
        <ele>24.1703</ele>
        <time>2013-05-09T20:25:09Z</time>
      </trkpt>
      <trkpt lat="59.9477001" lon="17.6669733">
        <ele>24.1703</ele>
        <time>2013-05-09T20:25:10Z</time>
      </trkpt>
      <trkpt lat="59.9477835" lon="17.6670133">
        <ele>24.1703</ele>
        <time>2013-05-09T20:25:11Z</time>
      </trkpt>
      <trkpt lat="59.9478673" lon="17.6670566">
        <ele>24.1703</ele>
        <time>2013-05-09T20:25:12Z</time>
      </trkpt>
      <trkpt lat="59.9479503" lon="17.6670987">
        <ele>24.1703</ele>
        <time>2013-05-09T20:25:13Z</time>
      </trkpt>
      <trkpt lat="59.9480324" lon="17.6671416">
        <ele>24.1703</ele>
        <time>2013-05-09T20:25:14Z</time>
      </trkpt>
      <trkpt lat="59.948114" lon="17.6671834">
        <ele>24.1703</ele>
        <time>2013-05-09T20:25:15Z</time>
      </trkpt>
      <trkpt lat="59.9481956" lon="17.6672271">
        <ele>24.1703</ele>
        <time>2013-05-09T20:25:16Z</time>
      </trkpt>
      <trkpt lat="59.9482772" lon="17.6672709">
        <ele>24.1703</ele>
        <time>2013-05-09T20:25:17Z</time>
      </trkpt>
      <trkpt lat="59.948359" lon="17.6673155">
        <ele>24.1703</ele>
        <time>2013-05-09T20:25:18Z</time>
      </trkpt>
      <trkpt lat="59.9484409" lon="17.66736">
        <ele>24.1703</ele>
        <time>2013-05-09T20:25:19Z</time>
      </trkpt>
      <trkpt lat="59.9485232" lon="17.6674059">
        <ele>24.1703</ele>
        <time>2013-05-09T20:25:20Z</time>
      </trkpt>
      <trkpt lat="59.9486051" lon="17.667453">
        <ele>24.1703</ele>
        <time>2013-05-09T20:25:21Z</time>
      </trkpt>
      <trkpt lat="59.948686" lon="17.6674981">
        <ele>24.1703</ele>
        <time>2013-05-09T20:25:22Z</time>
      </trkpt>
      <trkpt lat="59.9487667" lon="17.667542">
        <ele>24.1703</ele>
        <time>2013-05-09T20:25:23Z</time>
      </trkpt>
      <trkpt lat="59.9488471" lon="17.6675861">
        <ele>23.6896</ele>
        <time>2013-05-09T20:25:24Z</time>
      </trkpt>
      <trkpt lat="59.9489276" lon="17.667629">
        <ele>23.6896</ele>
        <time>2013-05-09T20:25:25Z</time>
      </trkpt>
      <trkpt lat="59.9490085" lon="17.6676725">
        <ele>23.6896</ele>
        <time>2013-05-09T20:25:26Z</time>
      </trkpt>
      <trkpt lat="59.9490902" lon="17.6677212">
        <ele>23.6896</ele>
        <time>2013-05-09T20:25:27Z</time>
      </trkpt>
      <trkpt lat="59.9491723" lon="17.6677659">
        <ele>23.6896</ele>
        <time>2013-05-09T20:25:28Z</time>
      </trkpt>
      <trkpt lat="59.9492535" lon="17.6678115">
        <ele>23.6896</ele>
        <time>2013-05-09T20:25:29Z</time>
      </trkpt>
      <trkpt lat="59.9493343" lon="17.6678627">
        <ele>23.209</ele>
        <time>2013-05-09T20:25:30Z</time>
      </trkpt>
      <trkpt lat="59.9494143" lon="17.6679088">
        <ele>23.209</ele>
        <time>2013-05-09T20:25:31Z</time>
      </trkpt>
      <trkpt lat="59.9494948" lon="17.6679527">
        <ele>22.7283</ele>
        <time>2013-05-09T20:25:32Z</time>
      </trkpt>
      <trkpt lat="59.9495751" lon="17.6679994">
        <ele>22.7283</ele>
        <time>2013-05-09T20:25:33Z</time>
      </trkpt>
      <trkpt lat="59.949657" lon="17.6680408">
        <ele>22.7283</ele>
        <time>2013-05-09T20:25:34Z</time>
      </trkpt>
      <trkpt lat="59.949741" lon="17.6680786">
        <ele>22.7283</ele>
        <time>2013-05-09T20:25:35Z</time>
      </trkpt>
      <trkpt lat="59.9498261" lon="17.6681176">
        <ele>22.7283</ele>
        <time>2013-05-09T20:25:36Z</time>
      </trkpt>
      <trkpt lat="59.9499102" lon="17.6681599">
        <ele>22.2476</ele>
        <time>2013-05-09T20:25:37Z</time>
      </trkpt>
      <trkpt lat="59.9499919" lon="17.6681967">
        <ele>22.7283</ele>
        <time>2013-05-09T20:25:38Z</time>
      </trkpt>
      <trkpt lat="59.950072" lon="17.6682247">
        <ele>22.2476</ele>
        <time>2013-05-09T20:25:39Z</time>
      </trkpt>
      <trkpt lat="59.9501508" lon="17.6682443">
        <ele>22.2476</ele>
        <time>2013-05-09T20:25:40Z</time>
      </trkpt>
      <trkpt lat="59.9502305" lon="17.6682605">
        <ele>22.2476</ele>
        <time>2013-05-09T20:25:41Z</time>
      </trkpt>
      <trkpt lat="59.9503124" lon="17.6682765">
        <ele>22.2476</ele>
        <time>2013-05-09T20:25:42Z</time>
      </trkpt>
      <trkpt lat="59.9503953" lon="17.6682848">
        <ele>22.2476</ele>
        <time>2013-05-09T20:25:43Z</time>
      </trkpt>
      <trkpt lat="59.9504782" lon="17.6682885">
        <ele>22.2476</ele>
        <time>2013-05-09T20:25:44Z</time>
      </trkpt>
      <trkpt lat="59.9505608" lon="17.6682839">
        <ele>22.2476</ele>
        <time>2013-05-09T20:25:45Z</time>
      </trkpt>
      <trkpt lat="59.9506424" lon="17.6682761">
        <ele>22.2476</ele>
        <time>2013-05-09T20:25:46Z</time>
      </trkpt>
      <trkpt lat="59.9507236" lon="17.6682652">
        <ele>22.2476</ele>
        <time>2013-05-09T20:25:47Z</time>
      </trkpt>
      <trkpt lat="59.9508036" lon="17.6682486">
        <ele>22.2476</ele>
        <time>2013-05-09T20:25:48Z</time>
      </trkpt>
      <trkpt lat="59.9508826" lon="17.6682239">
        <ele>21.767</ele>
        <time>2013-05-09T20:25:49Z</time>
      </trkpt>
      <trkpt lat="59.9509618" lon="17.6681954">
        <ele>21.767</ele>
        <time>2013-05-09T20:25:50Z</time>
      </trkpt>
      <trkpt lat="59.9510415" lon="17.6681703">
        <ele>21.767</ele>
        <time>2013-05-09T20:25:51Z</time>
      </trkpt>
      <trkpt lat="59.9511215" lon="17.6681459">
        <ele>21.767</ele>
        <time>2013-05-09T20:25:52Z</time>
      </trkpt>
      <trkpt lat="59.9512023" lon="17.6681198">
        <ele>21.2864</ele>
        <time>2013-05-09T20:25:53Z</time>
      </trkpt>
      <trkpt lat="59.9512847" lon="17.6680938">
        <ele>21.2864</ele>
        <time>2013-05-09T20:25:54Z</time>
      </trkpt>
      <trkpt lat="59.9513684" lon="17.6680705">
        <ele>21.2864</ele>
        <time>2013-05-09T20:25:55Z</time>
      </trkpt>
      <trkpt lat="59.9514525" lon="17.6680581">
        <ele>20.8057</ele>
        <time>2013-05-09T20:25:56Z</time>
      </trkpt>
      <trkpt lat="59.9515342" lon="17.6680708">
        <ele>20.325</ele>
        <time>2013-05-09T20:25:57Z</time>
      </trkpt>
      <trkpt lat="59.9516082" lon="17.668129">
        <ele>20.325</ele>
        <time>2013-05-09T20:25:58Z</time>
      </trkpt>
      <trkpt lat="59.9516691" lon="17.6682357">
        <ele>19.8444</ele>
        <time>2013-05-09T20:25:59Z</time>
      </trkpt>
      <trkpt lat="59.9517156" lon="17.6683705">
        <ele>19.8444</ele>
        <time>2013-05-09T20:26:00Z</time>
      </trkpt>
      <trkpt lat="59.951752" lon="17.6685196">
        <ele>19.8444</ele>
        <time>2013-05-09T20:26:01Z</time>
      </trkpt>
      <trkpt lat="59.951781" lon="17.6686765">
        <ele>20.325</ele>
        <time>2013-05-09T20:26:02Z</time>
      </trkpt>
      <trkpt lat="59.9517991" lon="17.6688416">
        <ele>20.325</ele>
        <time>2013-05-09T20:26:03Z</time>
      </trkpt>
      <trkpt lat="59.9518039" lon="17.669013">
        <ele>20.8057</ele>
        <time>2013-05-09T20:26:04Z</time>
      </trkpt>
      <trkpt lat="59.9517985" lon="17.6691841">
        <ele>20.8057</ele>
        <time>2013-05-09T20:26:05Z</time>
      </trkpt>
      <trkpt lat="59.9517892" lon="17.6693577">
        <ele>20.8057</ele>
        <time>2013-05-09T20:26:06Z</time>
      </trkpt>
      <trkpt lat="59.9517804" lon="17.6695358">
        <ele>20.8057</ele>
        <time>2013-05-09T20:26:07Z</time>
      </trkpt>
      <trkpt lat="59.9517714" lon="17.6697167">
        <ele>20.8057</ele>
        <time>2013-05-09T20:26:08Z</time>
      </trkpt>
      <trkpt lat="59.9517627" lon="17.6699004">
        <ele>21.2864</ele>
        <time>2013-05-09T20:26:09Z</time>
      </trkpt>
      <trkpt lat="59.951754" lon="17.670083">
        <ele>21.2864</ele>
        <time>2013-05-09T20:26:10Z</time>
      </trkpt>
      <trkpt lat="59.9517416" lon="17.6702637">
        <ele>21.767</ele>
        <time>2013-05-09T20:26:11Z</time>
      </trkpt>
      <trkpt lat="59.9517271" lon="17.6704428">
        <ele>21.767</ele>
        <time>2013-05-09T20:26:12Z</time>
      </trkpt>
      <trkpt lat="59.9517158" lon="17.6706204">
        <ele>22.2476</ele>
        <time>2013-05-09T20:26:13Z</time>
      </trkpt>
      <trkpt lat="59.9517125" lon="17.6707981">
        <ele>22.2476</ele>
        <time>2013-05-09T20:26:14Z</time>
      </trkpt>
      <trkpt lat="59.9517208" lon="17.6709727">
        <ele>22.7283</ele>
        <time>2013-05-09T20:26:15Z</time>
      </trkpt>
      <trkpt lat="59.9517427" lon="17.6711365">
        <ele>23.209</ele>
        <time>2013-05-09T20:26:16Z</time>
      </trkpt>
      <trkpt lat="59.9517683" lon="17.6712893">
        <ele>23.209</ele>
        <time>2013-05-09T20:26:17Z</time>
      </trkpt>
      <trkpt lat="59.951786" lon="17.6714416">
        <ele>23.6896</ele>
        <time>2013-05-09T20:26:18Z</time>
      </trkpt>
      <trkpt lat="59.9517959" lon="17.6715956">
        <ele>24.1703</ele>
        <time>2013-05-09T20:26:19Z</time>
      </trkpt>
      <trkpt lat="59.951798" lon="17.6717488">
        <ele>24.1703</ele>
        <time>2013-05-09T20:26:20Z</time>
      </trkpt>
      <trkpt lat="59.9517996" lon="17.6718971">
        <ele>24.651</ele>
        <time>2013-05-09T20:26:21Z</time>
      </trkpt>
      <trkpt lat="59.9518069" lon="17.6720379">
        <ele>24.651</ele>
        <time>2013-05-09T20:26:22Z</time>
      </trkpt>
      <trkpt lat="59.9518193" lon="17.6721767">
        <ele>24.651</ele>
        <time>2013-05-09T20:26:23Z</time>
      </trkpt>
      <trkpt lat="59.9518337" lon="17.6723119">
        <ele>25.1317</ele>
        <time>2013-05-09T20:26:24Z</time>
      </trkpt>
      <trkpt lat="59.9518483" lon="17.6724431">
        <ele>25.6123</ele>
        <time>2013-05-09T20:26:25Z</time>
      </trkpt>
      <trkpt lat="59.9518628" lon="17.6725698">
        <ele>25.6123</ele>
        <time>2013-05-09T20:26:26Z</time>
      </trkpt>
      <trkpt lat="59.9518778" lon="17.6726911">
        <ele>26.0929</ele>
        <time>2013-05-09T20:26:27Z</time>
      </trkpt>
      <trkpt lat="59.951894" lon="17.6728085">
        <ele>26.5736</ele>
        <time>2013-05-09T20:26:28Z</time>
      </trkpt>
      <trkpt lat="59.9519109" lon="17.6729237">
        <ele>26.5736</ele>
        <time>2013-05-09T20:26:29Z</time>
      </trkpt>
      <trkpt lat="59.9519271" lon="17.6730376">
        <ele>27.0543</ele>
        <time>2013-05-09T20:26:30Z</time>
      </trkpt>
      <trkpt lat="59.9519426" lon="17.6731516">
        <ele>27.0543</ele>
        <time>2013-05-09T20:26:31Z</time>
      </trkpt>
      <trkpt lat="59.9519589" lon="17.6732676">
        <ele>27.5349</ele>
        <time>2013-05-09T20:26:32Z</time>
      </trkpt>
      <trkpt lat="59.9519773" lon="17.6733831">
        <ele>27.5349</ele>
        <time>2013-05-09T20:26:33Z</time>
      </trkpt>
      <trkpt lat="59.951997" lon="17.6734971">
        <ele>28.0155</ele>
        <time>2013-05-09T20:26:34Z</time>
      </trkpt>
      <trkpt lat="59.9520177" lon="17.6736111">
        <ele>28.0155</ele>
        <time>2013-05-09T20:26:35Z</time>
      </trkpt>
      <trkpt lat="59.9520389" lon="17.6737254">
        <ele>28.4962</ele>
        <time>2013-05-09T20:26:36Z</time>
      </trkpt>
      <trkpt lat="59.95206" lon="17.6738395">
        <ele>28.4962</ele>
        <time>2013-05-09T20:26:37Z</time>
      </trkpt>
      <trkpt lat="59.9520818" lon="17.6739522">
        <ele>28.9769</ele>
        <time>2013-05-09T20:26:38Z</time>
      </trkpt>
      <trkpt lat="59.9521037" lon="17.6740629">
        <ele>29.4575</ele>
        <time>2013-05-09T20:26:39Z</time>
      </trkpt>
      <trkpt lat="59.9521259" lon="17.6741735">
        <ele>29.4575</ele>
        <time>2013-05-09T20:26:40Z</time>
      </trkpt>
      <trkpt lat="59.9521494" lon="17.6742849">
        <ele>29.9381</ele>
        <time>2013-05-09T20:26:41Z</time>
      </trkpt>
      <trkpt lat="59.9521746" lon="17.674397">
        <ele>29.9381</ele>
        <time>2013-05-09T20:26:42Z</time>
      </trkpt>
      <trkpt lat="59.9522" lon="17.6745099">
        <ele>30.8995</ele>
        <time>2013-05-09T20:26:43Z</time>
      </trkpt>
      <trkpt lat="59.9522217" lon="17.6746246">
        <ele>31.3801</ele>
        <time>2013-05-09T20:26:44Z</time>
      </trkpt>
      <trkpt lat="59.95224" lon="17.674737">
        <ele>31.8607</ele>
        <time>2013-05-09T20:26:45Z</time>
      </trkpt>
      <trkpt lat="59.9522565" lon="17.6748393">
        <ele>32.3416</ele>
        <time>2013-05-09T20:26:46Z</time>
      </trkpt>
      <trkpt lat="59.9522724" lon="17.6749371">
        <ele>32.8223</ele>
        <time>2013-05-09T20:26:47Z</time>
      </trkpt>
      <trkpt lat="59.9522901" lon="17.6750297">
        <ele>33.3029</ele>
        <time>2013-05-09T20:26:48Z</time>
      </trkpt>
      <trkpt lat="59.952311" lon="17.675117">
        <ele>33.7834</ele>
        <time>2013-05-09T20:26:49Z</time>
      </trkpt>
      <trkpt lat="59.9523352" lon="17.675207">
        <ele>34.2642</ele>
        <time>2013-05-09T20:26:50Z</time>
      </trkpt>
      <trkpt lat="59.9523622" lon="17.6752992">
        <ele>33.7834</ele>
        <time>2013-05-09T20:26:51Z</time>
      </trkpt>
      <trkpt lat="59.9523917" lon="17.6753951">
        <ele>33.7834</ele>
        <time>2013-05-09T20:26:52Z</time>
      </trkpt>
      <trkpt lat="59.9524254" lon="17.6754903">
        <ele>33.7834</ele>
        <time>2013-05-09T20:26:53Z</time>
      </trkpt>
      <trkpt lat="59.9524645" lon="17.6755842">
        <ele>33.3029</ele>
        <time>2013-05-09T20:26:54Z</time>
      </trkpt>
      <trkpt lat="59.9525072" lon="17.6756825">
        <ele>33.3029</ele>
        <time>2013-05-09T20:26:55Z</time>
      </trkpt>
      <trkpt lat="59.9525533" lon="17.6758063">
        <ele>32.8223</ele>
        <time>2013-05-09T20:26:56Z</time>
      </trkpt>
      <trkpt lat="59.9525993" lon="17.6759302">
        <ele>32.8223</ele>
        <time>2013-05-09T20:26:57Z</time>
      </trkpt>
      <trkpt lat="59.9526472" lon="17.6760634">
        <ele>32.3416</ele>
        <time>2013-05-09T20:26:58Z</time>
      </trkpt>
      <trkpt lat="59.9526956" lon="17.6762064">
        <ele>32.3416</ele>
        <time>2013-05-09T20:26:59Z</time>
      </trkpt>
      <trkpt lat="59.9527402" lon="17.6763397">
        <ele>32.3416</ele>
        <time>2013-05-09T20:27:00Z</time>
      </trkpt>
      <trkpt lat="59.9527842" lon="17.6764669">
        <ele>31.8607</ele>
        <time>2013-05-09T20:27:01Z</time>
      </trkpt>
      <trkpt lat="59.9528315" lon="17.6765894">
        <ele>31.3801</ele>
        <time>2013-05-09T20:27:02Z</time>
      </trkpt>
      <trkpt lat="59.9528827" lon="17.6767166">
        <ele>31.3801</ele>
        <time>2013-05-09T20:27:03Z</time>
      </trkpt>
      <trkpt lat="59.952933" lon="17.6768408">
        <ele>31.3801</ele>
        <time>2013-05-09T20:27:04Z</time>
      </trkpt>
      <trkpt lat="59.9529813" lon="17.6769651">
        <ele>30.4188</ele>
        <time>2013-05-09T20:27:05Z</time>
      </trkpt>
      <trkpt lat="59.9530309" lon="17.6770903">
        <ele>30.4188</ele>
        <time>2013-05-09T20:27:06Z</time>
      </trkpt>
      <trkpt lat="59.9530796" lon="17.6772174">
        <ele>29.9381</ele>
        <time>2013-05-09T20:27:07Z</time>
      </trkpt>
      <trkpt lat="59.9531267" lon="17.6773449">
        <ele>29.9381</ele>
        <time>2013-05-09T20:27:08Z</time>
      </trkpt>
      <trkpt lat="59.9531721" lon="17.6774713">
        <ele>29.4575</ele>
        <time>2013-05-09T20:27:09Z</time>
      </trkpt>
      <trkpt lat="59.9532151" lon="17.6775926">
        <ele>28.9769</ele>
        <time>2013-05-09T20:27:10Z</time>
      </trkpt>
      <trkpt lat="59.9532583" lon="17.6777219">
        <ele>28.4962</ele>
        <time>2013-05-09T20:27:11Z</time>
      </trkpt>
      <trkpt lat="59.9533027" lon="17.6778508">
        <ele>28.4962</ele>
        <time>2013-05-09T20:27:12Z</time>
      </trkpt>
      <trkpt lat="59.9533447" lon="17.6779753">
        <ele>28.0155</ele>
        <time>2013-05-09T20:27:13Z</time>
      </trkpt>
      <trkpt lat="59.9533898" lon="17.6780987">
        <ele>27.5349</ele>
        <time>2013-05-09T20:27:14Z</time>
      </trkpt>
      <trkpt lat="59.9534345" lon="17.6782214">
        <ele>27.0543</ele>
        <time>2013-05-09T20:27:15Z</time>
      </trkpt>
      <trkpt lat="59.9534795" lon="17.6783493">
        <ele>27.0543</ele>
        <time>2013-05-09T20:27:16Z</time>
      </trkpt>
      <trkpt lat="59.9535252" lon="17.6784797">
        <ele>27.0543</ele>
        <time>2013-05-09T20:27:17Z</time>
      </trkpt>
      <trkpt lat="59.9535692" lon="17.6786135">
        <ele>26.5736</ele>
        <time>2013-05-09T20:27:18Z</time>
      </trkpt>
      <trkpt lat="59.9536132" lon="17.6787502">
        <ele>26.5736</ele>
        <time>2013-05-09T20:27:19Z</time>
      </trkpt>
      <trkpt lat="59.9536597" lon="17.6788839">
        <ele>26.5736</ele>
        <time>2013-05-09T20:27:20Z</time>
      </trkpt>
      <trkpt lat="59.9537055" lon="17.6790186">
        <ele>26.0929</ele>
        <time>2013-05-09T20:27:21Z</time>
      </trkpt>
      <trkpt lat="59.9537524" lon="17.6791539">
        <ele>26.0929</ele>
        <time>2013-05-09T20:27:22Z</time>
      </trkpt>
      <trkpt lat="59.9537949" lon="17.6792885">
        <ele>25.1317</ele>
        <time>2013-05-09T20:27:23Z</time>
      </trkpt>
      <trkpt lat="59.9538404" lon="17.6794252">
        <ele>25.1317</ele>
        <time>2013-05-09T20:27:24Z</time>
      </trkpt>
      <trkpt lat="59.9538865" lon="17.6795592">
        <ele>25.1317</ele>
        <time>2013-05-09T20:27:25Z</time>
      </trkpt>
      <trkpt lat="59.9539317" lon="17.6796933">
        <ele>24.651</ele>
        <time>2013-05-09T20:27:26Z</time>
      </trkpt>
      <trkpt lat="59.9539769" lon="17.6798282">
        <ele>24.651</ele>
        <time>2013-05-09T20:27:27Z</time>
      </trkpt>
      <trkpt lat="59.9540229" lon="17.6799604">
        <ele>24.651</ele>
        <time>2013-05-09T20:27:28Z</time>
      </trkpt>
      <trkpt lat="59.9540689" lon="17.6800894">
        <ele>24.651</ele>
        <time>2013-05-09T20:27:29Z</time>
      </trkpt>
      <trkpt lat="59.9541144" lon="17.6802171">
        <ele>24.651</ele>
        <time>2013-05-09T20:27:30Z</time>
      </trkpt>
      <trkpt lat="59.9541582" lon="17.6803435">
        <ele>24.651</ele>
        <time>2013-05-09T20:27:31Z</time>
      </trkpt>
      <trkpt lat="59.9542016" lon="17.680467">
        <ele>24.651</ele>
        <time>2013-05-09T20:27:32Z</time>
      </trkpt>
      <trkpt lat="59.9542431" lon="17.6805799">
        <ele>24.651</ele>
        <time>2013-05-09T20:27:33Z</time>
      </trkpt>
      <trkpt lat="59.9542791" lon="17.6806803">
        <ele>24.651</ele>
        <time>2013-05-09T20:27:34Z</time>
      </trkpt>
      <trkpt lat="59.9543104" lon="17.6807732">
        <ele>24.651</ele>
        <time>2013-05-09T20:27:35Z</time>
      </trkpt>
      <trkpt lat="59.9543394" lon="17.6808616">
        <ele>24.651</ele>
        <time>2013-05-09T20:27:36Z</time>
      </trkpt>
      <trkpt lat="59.9543659" lon="17.6809481">
        <ele>24.1703</ele>
        <time>2013-05-09T20:27:37Z</time>
      </trkpt>
      <trkpt lat="59.954391" lon="17.6810381">
        <ele>24.1703</ele>
        <time>2013-05-09T20:27:38Z</time>
      </trkpt>
      <trkpt lat="59.9544165" lon="17.6811304">
        <ele>24.1703</ele>
        <time>2013-05-09T20:27:39Z</time>
      </trkpt>
      <trkpt lat="59.954444" lon="17.6812196">
        <ele>24.1703</ele>
        <time>2013-05-09T20:27:40Z</time>
      </trkpt>
      <trkpt lat="59.9544751" lon="17.6813073">
        <ele>24.651</ele>
        <time>2013-05-09T20:27:41Z</time>
      </trkpt>
      <trkpt lat="59.9545081" lon="17.6813963">
        <ele>24.651</ele>
        <time>2013-05-09T20:27:42Z</time>
      </trkpt>
      <trkpt lat="59.9545407" lon="17.6814909">
        <ele>24.651</ele>
        <time>2013-05-09T20:27:43Z</time>
      </trkpt>
      <trkpt lat="59.9545719" lon="17.6815852">
        <ele>25.1317</ele>
        <time>2013-05-09T20:27:44Z</time>
      </trkpt>
      <trkpt lat="59.9546029" lon="17.6816728">
        <ele>25.1317</ele>
        <time>2013-05-09T20:27:45Z</time>
      </trkpt>
      <trkpt lat="59.9546337" lon="17.6817553">
        <ele>25.6123</ele>
        <time>2013-05-09T20:27:46Z</time>
      </trkpt>
      <trkpt lat="59.9546647" lon="17.6818329">
        <ele>25.6123</ele>
        <time>2013-05-09T20:27:47Z</time>
      </trkpt>
      <trkpt lat="59.9546989" lon="17.6819013">
        <ele>25.6123</ele>
        <time>2013-05-09T20:27:48Z</time>
      </trkpt>
      <trkpt lat="59.9547388" lon="17.681949">
        <ele>26.0929</ele>
        <time>2013-05-09T20:27:49Z</time>
      </trkpt>
      <trkpt lat="59.9547831" lon="17.6819845">
        <ele>26.5736</ele>
        <time>2013-05-09T20:27:50Z</time>
      </trkpt>
      <trkpt lat="59.954823" lon="17.6820319">
        <ele>26.5736</ele>
        <time>2013-05-09T20:27:51Z</time>
      </trkpt>
      <trkpt lat="59.9548546" lon="17.6820977">
        <ele>27.0543</ele>
        <time>2013-05-09T20:27:52Z</time>
      </trkpt>
      <trkpt lat="59.9548814" lon="17.6821743">
        <ele>27.0543</ele>
        <time>2013-05-09T20:27:53Z</time>
      </trkpt>
      <trkpt lat="59.9549069" lon="17.6822541">
        <ele>27.0543</ele>
        <time>2013-05-09T20:27:54Z</time>
      </trkpt>
      <trkpt lat="59.9549335" lon="17.6823349">
        <ele>27.0543</ele>
        <time>2013-05-09T20:27:55Z</time>
      </trkpt>
      <trkpt lat="59.9549601" lon="17.6824251">
        <ele>27.0543</ele>
        <time>2013-05-09T20:27:56Z</time>
      </trkpt>
      <trkpt lat="59.9549848" lon="17.6825168">
        <ele>27.0543</ele>
        <time>2013-05-09T20:27:57Z</time>
      </trkpt>
      <trkpt lat="59.9550123" lon="17.6826088">
        <ele>27.5349</ele>
        <time>2013-05-09T20:27:58Z</time>
      </trkpt>
      <trkpt lat="59.9550423" lon="17.6827027">
        <ele>28.0155</ele>
        <time>2013-05-09T20:27:59Z</time>
      </trkpt>
      <trkpt lat="59.9550698" lon="17.6827983">
        <ele>28.0155</ele>
        <time>2013-05-09T20:28:00Z</time>
      </trkpt>
      <trkpt lat="59.9550967" lon="17.6828959">
        <ele>28.0155</ele>
        <time>2013-05-09T20:28:01Z</time>
      </trkpt>
      <trkpt lat="59.9551219" lon="17.6829952">
        <ele>28.0155</ele>
        <time>2013-05-09T20:28:02Z</time>
      </trkpt>
      <trkpt lat="59.9551465" lon="17.6830956">
        <ele>28.0155</ele>
        <time>2013-05-09T20:28:03Z</time>
      </trkpt>
      <trkpt lat="59.9551703" lon="17.683197">
        <ele>28.0155</ele>
        <time>2013-05-09T20:28:04Z</time>
      </trkpt>
      <trkpt lat="59.9551944" lon="17.6832994">
        <ele>28.0155</ele>
        <time>2013-05-09T20:28:05Z</time>
      </trkpt>
      <trkpt lat="59.9552193" lon="17.6834031">
        <ele>28.0155</ele>
        <time>2013-05-09T20:28:06Z</time>
      </trkpt>
      <trkpt lat="59.9552433" lon="17.6835083">
        <ele>27.5349</ele>
        <time>2013-05-09T20:28:07Z</time>
      </trkpt>
      <trkpt lat="59.9552672" lon="17.6836157">
        <ele>27.5349</ele>
        <time>2013-05-09T20:28:08Z</time>
      </trkpt>
      <trkpt lat="59.9552916" lon="17.6837238">
        <ele>27.5349</ele>
        <time>2013-05-09T20:28:09Z</time>
      </trkpt>
      <trkpt lat="59.9553143" lon="17.6838318">
        <ele>27.5349</ele>
        <time>2013-05-09T20:28:10Z</time>
      </trkpt>
      <trkpt lat="59.9553355" lon="17.6839401">
        <ele>27.5349</ele>
        <time>2013-05-09T20:28:11Z</time>
      </trkpt>
      <trkpt lat="59.9553563" lon="17.6840505">
        <ele>28.0155</ele>
        <time>2013-05-09T20:28:12Z</time>
      </trkpt>
      <trkpt lat="59.9553771" lon="17.6841613">
        <ele>28.0155</ele>
        <time>2013-05-09T20:28:13Z</time>
      </trkpt>
      <trkpt lat="59.9553972" lon="17.6842717">
        <ele>28.0155</ele>
        <time>2013-05-09T20:28:14Z</time>
      </trkpt>
      <trkpt lat="59.9554161" lon="17.684381">
        <ele>28.0155</ele>
        <time>2013-05-09T20:28:15Z</time>
      </trkpt>
      <trkpt lat="59.9554353" lon="17.6844924">
        <ele>28.0155</ele>
        <time>2013-05-09T20:28:16Z</time>
      </trkpt>
      <trkpt lat="59.9554547" lon="17.6846048">
        <ele>28.0155</ele>
        <time>2013-05-09T20:28:17Z</time>
      </trkpt>
      <trkpt lat="59.9554738" lon="17.6847191">
        <ele>28.4962</ele>
        <time>2013-05-09T20:28:18Z</time>
      </trkpt>
      <trkpt lat="59.955492" lon="17.6848331">
        <ele>28.4962</ele>
        <time>2013-05-09T20:28:19Z</time>
      </trkpt>
      <trkpt lat="59.9555091" lon="17.6849468">
        <ele>28.4962</ele>
        <time>2013-05-09T20:28:20Z</time>
      </trkpt>
      <trkpt lat="59.9555265" lon="17.6850602">
        <ele>28.4962</ele>
        <time>2013-05-09T20:28:21Z</time>
      </trkpt>
      <trkpt lat="59.9555432" lon="17.6851741">
        <ele>28.9769</ele>
        <time>2013-05-09T20:28:22Z</time>
      </trkpt>
      <trkpt lat="59.9555586" lon="17.6852896">
        <ele>28.9769</ele>
        <time>2013-05-09T20:28:23Z</time>
      </trkpt>
      <trkpt lat="59.9555742" lon="17.6854075">
        <ele>29.4575</ele>
        <time>2013-05-09T20:28:24Z</time>
      </trkpt>
      <trkpt lat="59.9555904" lon="17.6855259">
        <ele>29.4575</ele>
        <time>2013-05-09T20:28:25Z</time>
      </trkpt>
      <trkpt lat="59.9556063" lon="17.6856434">
        <ele>29.9381</ele>
        <time>2013-05-09T20:28:26Z</time>
      </trkpt>
      <trkpt lat="59.955621" lon="17.6857618">
        <ele>29.9381</ele>
        <time>2013-05-09T20:28:27Z</time>
      </trkpt>
      <trkpt lat="59.9556369" lon="17.6858791">
        <ele>29.9381</ele>
        <time>2013-05-09T20:28:28Z</time>
      </trkpt>
      <trkpt lat="59.9556539" lon="17.6859956">
        <ele>29.9381</ele>
        <time>2013-05-09T20:28:29Z</time>
      </trkpt>
      <trkpt lat="59.9556706" lon="17.6861139">
        <ele>30.4188</ele>
        <time>2013-05-09T20:28:30Z</time>
      </trkpt>
      <trkpt lat="59.9556873" lon="17.6862341">
        <ele>30.4188</ele>
        <time>2013-05-09T20:28:31Z</time>
      </trkpt>
      <trkpt lat="59.9557039" lon="17.6863553">
        <ele>30.4188</ele>
        <time>2013-05-09T20:28:32Z</time>
      </trkpt>
      <trkpt lat="59.9557209" lon="17.6864741">
        <ele>30.8995</ele>
        <time>2013-05-09T20:28:33Z</time>
      </trkpt>
      <trkpt lat="59.9557384" lon="17.6865954">
        <ele>30.8995</ele>
        <time>2013-05-09T20:28:34Z</time>
      </trkpt>
      <trkpt lat="59.9557561" lon="17.6867192">
        <ele>31.3801</ele>
        <time>2013-05-09T20:28:35Z</time>
      </trkpt>
      <trkpt lat="59.9557727" lon="17.6868317">
        <ele>31.3801</ele>
        <time>2013-05-09T20:28:36Z</time>
      </trkpt>
      <trkpt lat="59.9557898" lon="17.6869444">
        <ele>31.3801</ele>
        <time>2013-05-09T20:28:37Z</time>
      </trkpt>
      <trkpt lat="59.9558065" lon="17.687056">
        <ele>31.3801</ele>
        <time>2013-05-09T20:28:38Z</time>
      </trkpt>
      <trkpt lat="59.9558219" lon="17.6871679">
        <ele>31.3801</ele>
        <time>2013-05-09T20:28:39Z</time>
      </trkpt>
      <trkpt lat="59.9558381" lon="17.6872806">
        <ele>31.8607</ele>
        <time>2013-05-09T20:28:40Z</time>
      </trkpt>
      <trkpt lat="59.9558554" lon="17.6873926">
        <ele>31.8607</ele>
        <time>2013-05-09T20:28:41Z</time>
      </trkpt>
      <trkpt lat="59.9558733" lon="17.6875081">
        <ele>32.3416</ele>
        <time>2013-05-09T20:28:42Z</time>
      </trkpt>
      <trkpt lat="59.9558914" lon="17.6876309">
        <ele>32.8223</ele>
        <time>2013-05-09T20:28:43Z</time>
      </trkpt>
      <trkpt lat="59.9559093" lon="17.6877475">
        <ele>32.8223</ele>
        <time>2013-05-09T20:28:44Z</time>
      </trkpt>
      <trkpt lat="59.9559276" lon="17.6878588">
        <ele>33.3029</ele>
        <time>2013-05-09T20:28:45Z</time>
      </trkpt>
      <trkpt lat="59.9559452" lon="17.6879631">
        <ele>33.3029</ele>
        <time>2013-05-09T20:28:46Z</time>
      </trkpt>
      <trkpt lat="59.9559613" lon="17.6880677">
        <ele>33.3029</ele>
        <time>2013-05-09T20:28:47Z</time>
      </trkpt>
      <trkpt lat="59.9559766" lon="17.6881744">
        <ele>33.7834</ele>
        <time>2013-05-09T20:28:48Z</time>
      </trkpt>
      <trkpt lat="59.9559934" lon="17.6882892">
        <ele>34.2642</ele>
        <time>2013-05-09T20:28:49Z</time>
      </trkpt>
      <trkpt lat="59.9560117" lon="17.6884012">
        <ele>34.2642</ele>
        <time>2013-05-09T20:28:50Z</time>
      </trkpt>
      <trkpt lat="59.9560302" lon="17.6885152">
        <ele>34.2642</ele>
        <time>2013-05-09T20:28:51Z</time>
      </trkpt>
      <trkpt lat="59.9560482" lon="17.6886281">
        <ele>34.7449</ele>
        <time>2013-05-09T20:28:52Z</time>
      </trkpt>
      <trkpt lat="59.9560689" lon="17.6887308">
        <ele>35.2255</ele>
        <time>2013-05-09T20:28:53Z</time>
      </trkpt>
      <trkpt lat="59.9560955" lon="17.688811">
        <ele>35.2255</ele>
        <time>2013-05-09T20:28:54Z</time>
      </trkpt>
      <trkpt lat="59.9561268" lon="17.6888764">
        <ele>35.2255</ele>
        <time>2013-05-09T20:28:55Z</time>
      </trkpt>
      <trkpt lat="59.9561592" lon="17.6889476">
        <ele>35.2255</ele>
        <time>2013-05-09T20:28:56Z</time>
      </trkpt>
      <trkpt lat="59.9561857" lon="17.6890296">
        <ele>35.7061</ele>
        <time>2013-05-09T20:28:57Z</time>
      </trkpt>
      <trkpt lat="59.9562057" lon="17.6891141">
        <ele>35.7061</ele>
        <time>2013-05-09T20:28:58Z</time>
      </trkpt>
      <trkpt lat="59.956225" lon="17.6892006">
        <ele>35.2255</ele>
        <time>2013-05-09T20:28:59Z</time>
      </trkpt>
      <trkpt lat="59.9562447" lon="17.6892938">
        <ele>35.2255</ele>
        <time>2013-05-09T20:29:00Z</time>
      </trkpt>
      <trkpt lat="59.9562633" lon="17.6893906">
        <ele>35.2255</ele>
        <time>2013-05-09T20:29:01Z</time>
      </trkpt>
      <trkpt lat="59.9562825" lon="17.6894874">
        <ele>35.2255</ele>
        <time>2013-05-09T20:29:02Z</time>
      </trkpt>
      <trkpt lat="59.956303" lon="17.6895832">
        <ele>35.2255</ele>
        <time>2013-05-09T20:29:03Z</time>
      </trkpt>
      <trkpt lat="59.9563242" lon="17.6896792">
        <ele>34.7449</ele>
        <time>2013-05-09T20:29:04Z</time>
      </trkpt>
      <trkpt lat="59.9563467" lon="17.6897769">
        <ele>35.2255</ele>
        <time>2013-05-09T20:29:05Z</time>
      </trkpt>
      <trkpt lat="59.9563711" lon="17.6898744">
        <ele>35.2255</ele>
        <time>2013-05-09T20:29:06Z</time>
      </trkpt>
      <trkpt lat="59.9563969" lon="17.6899719">
        <ele>35.2255</ele>
        <time>2013-05-09T20:29:07Z</time>
      </trkpt>
      <trkpt lat="59.9564234" lon="17.6900689">
        <ele>34.7449</ele>
        <time>2013-05-09T20:29:08Z</time>
      </trkpt>
      <trkpt lat="59.9564516" lon="17.6901667">
        <ele>34.7449</ele>
        <time>2013-05-09T20:29:09Z</time>
      </trkpt>
      <trkpt lat="59.9564822" lon="17.690261">
        <ele>34.7449</ele>
        <time>2013-05-09T20:29:10Z</time>
      </trkpt>
      <trkpt lat="59.9565152" lon="17.6903533">
        <ele>34.7449</ele>
        <time>2013-05-09T20:29:11Z</time>
      </trkpt>
      <trkpt lat="59.9565487" lon="17.690448">
        <ele>35.2255</ele>
        <time>2013-05-09T20:29:12Z</time>
      </trkpt>
      <trkpt lat="59.9565839" lon="17.6905433">
        <ele>34.7449</ele>
        <time>2013-05-09T20:29:13Z</time>
      </trkpt>
      <trkpt lat="59.9566181" lon="17.6906396">
        <ele>34.2642</ele>
        <time>2013-05-09T20:29:14Z</time>
      </trkpt>
      <trkpt lat="59.9566534" lon="17.6907366">
        <ele>33.7834</ele>
        <time>2013-05-09T20:29:15Z</time>
      </trkpt>
      <trkpt lat="59.9566886" lon="17.6908364">
        <ele>33.3029</ele>
        <time>2013-05-09T20:29:16Z</time>
      </trkpt>
      <trkpt lat="59.9567231" lon="17.6909375">
        <ele>32.8223</ele>
        <time>2013-05-09T20:29:17Z</time>
      </trkpt>
      <trkpt lat="59.9567578" lon="17.6910379">
        <ele>32.3416</ele>
        <time>2013-05-09T20:29:18Z</time>
      </trkpt>
      <trkpt lat="59.9567936" lon="17.6911352">
        <ele>31.8607</ele>
        <time>2013-05-09T20:29:19Z</time>
      </trkpt>
      <trkpt lat="59.9568295" lon="17.6912323">
        <ele>31.3801</ele>
        <time>2013-05-09T20:29:20Z</time>
      </trkpt>
      <trkpt lat="59.9568641" lon="17.6913316">
        <ele>30.8995</ele>
        <time>2013-05-09T20:29:21Z</time>
      </trkpt>
      <trkpt lat="59.9568977" lon="17.69143">
        <ele>30.8995</ele>
        <time>2013-05-09T20:29:22Z</time>
      </trkpt>
      <trkpt lat="59.956929" lon="17.6915238">
        <ele>30.4188</ele>
        <time>2013-05-09T20:29:23Z</time>
      </trkpt>
      <trkpt lat="59.9569549" lon="17.6916104">
        <ele>30.4188</ele>
        <time>2013-05-09T20:29:24Z</time>
      </trkpt>
      <trkpt lat="59.9569824" lon="17.6916886">
        <ele>29.9381</ele>
        <time>2013-05-09T20:29:25Z</time>
      </trkpt>
      <trkpt lat="59.9570186" lon="17.6917439">
        <ele>29.9381</ele>
        <time>2013-05-09T20:29:26Z</time>
      </trkpt>
      <trkpt lat="59.9570621" lon="17.6917528">
        <ele>29.9381</ele>
        <time>2013-05-09T20:29:27Z</time>
      </trkpt>
      <trkpt lat="59.9571039" lon="17.6917186">
        <ele>29.9381</ele>
        <time>2013-05-09T20:29:28Z</time>
      </trkpt>
      <trkpt lat="59.9571252" lon="17.6916389">
        <ele>28.9769</ele>
        <time>2013-05-09T20:29:29Z</time>
      </trkpt>
      <trkpt lat="59.9571489" lon="17.691572">
        <ele>28.0155</ele>
        <time>2013-05-09T20:29:30Z</time>
      </trkpt>
      <trkpt lat="59.9571765" lon="17.6915229">
        <ele>28.0155</ele>
        <time>2013-05-09T20:29:31Z</time>
      </trkpt>
      <trkpt lat="59.9572045" lon="17.6914781">
        <ele>27.0543</ele>
        <time>2013-05-09T20:29:32Z</time>
      </trkpt>
      <trkpt lat="59.957233" lon="17.6914182">
        <ele>26.5736</ele>
        <time>2013-05-09T20:29:33Z</time>
      </trkpt>
      <trkpt lat="59.9572657" lon="17.6913712">
        <ele>25.6123</ele>
        <time>2013-05-09T20:29:34Z</time>
      </trkpt>
      <trkpt lat="59.9572986" lon="17.6913244">
        <ele>24.651</ele>
        <time>2013-05-09T20:29:35Z</time>
      </trkpt>
      <trkpt lat="59.9573297" lon="17.6912617">
        <ele>24.1703</ele>
        <time>2013-05-09T20:29:36Z</time>
      </trkpt>
      <trkpt lat="59.9573675" lon="17.6912078">
        <ele>24.651</ele>
        <time>2013-05-09T20:29:37Z</time>
      </trkpt>
      <trkpt lat="59.957407" lon="17.6911546">
        <ele>25.1317</ele>
        <time>2013-05-09T20:29:38Z</time>
      </trkpt>
      <trkpt lat="59.9574407" lon="17.6910872">
        <ele>24.1703</ele>
        <time>2013-05-09T20:29:39Z</time>
      </trkpt>
      <trkpt lat="59.9574775" lon="17.6910227">
        <ele>23.6896</ele>
        <time>2013-05-09T20:29:40Z</time>
      </trkpt>
      <trkpt lat="59.9575133" lon="17.6909592">
        <ele>23.6896</ele>
        <time>2013-05-09T20:29:41Z</time>
      </trkpt>
      <trkpt lat="59.9575449" lon="17.6908732">
        <ele>22.7283</ele>
        <time>2013-05-09T20:29:42Z</time>
      </trkpt>
      <trkpt lat="59.9575729" lon="17.6907826">
        <ele>21.2864</ele>
        <time>2013-05-09T20:29:43Z</time>
      </trkpt>
      <trkpt lat="59.9576019" lon="17.6906894">
        <ele>20.8057</ele>
        <time>2013-05-09T20:29:44Z</time>
      </trkpt>
      <trkpt lat="59.9576283" lon="17.6905935">
        <ele>20.325</ele>
        <time>2013-05-09T20:29:45Z</time>
      </trkpt>
      <trkpt lat="59.9576526" lon="17.6904925">
        <ele>18.8831</ele>
        <time>2013-05-09T20:29:46Z</time>
      </trkpt>
      <trkpt lat="59.9576819" lon="17.6903908">
        <ele>18.8831</ele>
        <time>2013-05-09T20:29:47Z</time>
      </trkpt>
      <trkpt lat="59.9577163" lon="17.6902925">
        <ele>19.8444</ele>
        <time>2013-05-09T20:29:48Z</time>
      </trkpt>
      <trkpt lat="59.9577475" lon="17.6901931">
        <ele>19.8444</ele>
        <time>2013-05-09T20:29:49Z</time>
      </trkpt>
      <trkpt lat="59.9577759" lon="17.6900921">
        <ele>19.8444</ele>
        <time>2013-05-09T20:29:50Z</time>
      </trkpt>
      <trkpt lat="59.9578053" lon="17.689992">
        <ele>19.3638</ele>
        <time>2013-05-09T20:29:51Z</time>
      </trkpt>
      <trkpt lat="59.9578308" lon="17.6898184">
        <ele>18.4023</ele>
        <time>2013-05-09T20:29:52Z</time>
      </trkpt>
      <trkpt lat="59.9578703" lon="17.6897329">
        <ele>18.4023</ele>
        <time>2013-05-09T20:29:53Z</time>
      </trkpt>
      <trkpt lat="59.9578938" lon="17.689645">
        <ele>17.9218</ele>
        <time>2013-05-09T20:29:54Z</time>
      </trkpt>
      <trkpt lat="59.9579313" lon="17.6895585">
        <ele>17.9218</ele>
        <time>2013-05-09T20:29:55Z</time>
      </trkpt>
      <trkpt lat="59.9579677" lon="17.6894859">
        <ele>17.9218</ele>
        <time>2013-05-09T20:29:56Z</time>
      </trkpt>
      <trkpt lat="59.9580075" lon="17.6894179">
        <ele>18.4023</ele>
        <time>2013-05-09T20:29:57Z</time>
      </trkpt>
      <trkpt lat="59.9580414" lon="17.6893812">
        <ele>18.8831</ele>
        <time>2013-05-09T20:29:58Z</time>
      </trkpt>
      <trkpt lat="59.9580788" lon="17.6893605">
        <ele>19.3638</ele>
        <time>2013-05-09T20:29:59Z</time>
      </trkpt>
      <trkpt lat="59.95811" lon="17.6893454">
        <ele>19.3638</ele>
        <time>2013-05-09T20:30:00Z</time>
      </trkpt>
      <trkpt lat="59.9581389" lon="17.6893494">
        <ele>19.8444</ele>
        <time>2013-05-09T20:30:01Z</time>
      </trkpt>
      <trkpt lat="59.9581604" lon="17.6893512">
        <ele>20.325</ele>
        <time>2013-05-09T20:30:02Z</time>
      </trkpt>
      <trkpt lat="59.9581787" lon="17.68933">
        <ele>21.767</ele>
        <time>2013-05-09T20:30:03Z</time>
      </trkpt>
      <trkpt lat="59.9581805" lon="17.689303">
        <ele>21.2864</ele>
        <time>2013-05-09T20:30:04Z</time>
      </trkpt>
      <trkpt lat="59.9581794" lon="17.6892778">
        <ele>20.8057</ele>
        <time>2013-05-09T20:30:05Z</time>
      </trkpt>
      <trkpt lat="59.9581756" lon="17.6892501">
        <ele>20.8057</ele>
        <time>2013-05-09T20:30:06Z</time>
      </trkpt>
      <trkpt lat="59.9581767" lon="17.6892209">
        <ele>19.8444</ele>
        <time>2013-05-09T20:30:07Z</time>
      </trkpt>
      <trkpt lat="59.9581918" lon="17.6892155">
        <ele>21.2864</ele>
        <time>2013-05-09T20:30:08Z</time>
      </trkpt>
      <trkpt lat="59.9582098" lon="17.6892172">
        <ele>21.2864</ele>
        <time>2013-05-09T20:30:09Z</time>
      </trkpt>
      <trkpt lat="59.958221" lon="17.6892419">
        <ele>21.767</ele>
        <time>2013-05-09T20:30:10Z</time>
      </trkpt>
      <trkpt lat="59.958222" lon="17.6892686">
        <ele>22.7283</ele>
        <time>2013-05-09T20:30:11Z</time>
      </trkpt>
      <trkpt lat="59.9582172" lon="17.6892804">
        <ele>21.767</ele>
        <time>2013-05-09T20:30:12Z</time>
      </trkpt>
      <trkpt lat="59.9582089" lon="17.6892865">
        <ele>22.2476</ele>
        <time>2013-05-09T20:30:13Z</time>
      </trkpt>
      <trkpt lat="59.9582" lon="17.6892912">
        <ele>21.767</ele>
        <time>2013-05-09T20:30:14Z</time>
      </trkpt>
      <trkpt lat="59.9581913" lon="17.6892924">
        <ele>21.767</ele>
        <time>2013-05-09T20:30:15Z</time>
      </trkpt>
      <trkpt lat="59.9581844" lon="17.6892824">
        <ele>21.2864</ele>
        <time>2013-05-09T20:30:16Z</time>
      </trkpt>
      <trkpt lat="59.958181" lon="17.6892778">
        <ele>21.2864</ele>
        <time>2013-05-09T20:30:17Z</time>
      </trkpt>
      <trkpt lat="59.9581758" lon="17.6892872">
        <ele>21.2864</ele>
        <time>2013-05-09T20:30:18Z</time>
      </trkpt>
      <trkpt lat="59.9581735" lon="17.6893042">
        <ele>21.767</ele>
        <time>2013-05-09T20:30:19Z</time>
      </trkpt>
      <trkpt lat="59.9581761" lon="17.689329">
        <ele>22.2476</ele>
        <time>2013-05-09T20:30:20Z</time>
      </trkpt>
      <trkpt lat="59.9581826" lon="17.6893558">
        <ele>22.7283</ele>
        <time>2013-05-09T20:30:21Z</time>
      </trkpt>
      <trkpt lat="59.9581949" lon="17.6893667">
        <ele>22.7283</ele>
        <time>2013-05-09T20:30:22Z</time>
      </trkpt>
      <trkpt lat="59.9582079" lon="17.6893631">
        <ele>23.209</ele>
        <time>2013-05-09T20:30:23Z</time>
      </trkpt>
      <trkpt lat="59.9582172" lon="17.6893442">
        <ele>22.7283</ele>
        <time>2013-05-09T20:30:24Z</time>
      </trkpt>
      <trkpt lat="59.9582256" lon="17.6893249">
        <ele>22.7283</ele>
        <time>2013-05-09T20:30:25Z</time>
      </trkpt>
      <trkpt lat="59.9582285" lon="17.689303">
        <ele>22.2476</ele>
        <time>2013-05-09T20:30:26Z</time>
      </trkpt>
      <trkpt lat="59.9582301" lon="17.6892846">
        <ele>22.7283</ele>
        <time>2013-05-09T20:30:27Z</time>
      </trkpt>
      <trkpt lat="59.958228" lon="17.6892735">
        <ele>23.209</ele>
        <time>2013-05-09T20:30:28Z</time>
      </trkpt>
      <trkpt lat="59.9582217" lon="17.6892709">
        <ele>23.6896</ele>
        <time>2013-05-09T20:30:29Z</time>
      </trkpt>
      <trkpt lat="59.9582153" lon="17.6892748">
        <ele>23.6896</ele>
        <time>2013-05-09T20:30:30Z</time>
      </trkpt>
      <trkpt lat="59.9582088" lon="17.6892813">
        <ele>24.1703</ele>
        <time>2013-05-09T20:30:31Z</time>
      </trkpt>
      <trkpt lat="59.9582058" lon="17.6892858">
        <ele>24.651</ele>
        <time>2013-05-09T20:30:32Z</time>
      </trkpt>
      <trkpt lat="59.9582046" lon="17.6892913">
        <ele>25.1317</ele>
        <time>2013-05-09T20:30:33Z</time>
      </trkpt>
      <trkpt lat="59.9582" lon="17.6893012">
        <ele>25.6123</ele>
        <time>2013-05-09T20:30:34Z</time>
      </trkpt>
      <trkpt lat="59.9581979" lon="17.6893093">
        <ele>26.0929</ele>
        <time>2013-05-09T20:30:35Z</time>
      </trkpt>
      <trkpt lat="59.9581986" lon="17.6893143">
        <ele>26.5736</ele>
        <time>2013-05-09T20:30:36Z</time>
      </trkpt>
      <trkpt lat="59.9582026" lon="17.6893233">
        <ele>27.0543</ele>
        <time>2013-05-09T20:30:37Z</time>
      </trkpt>
      <trkpt lat="59.9582012" lon="17.6893244">
        <ele>27.5349</ele>
        <time>2013-05-09T20:30:38Z</time>
      </trkpt>
      <trkpt lat="59.958198" lon="17.6893254">
        <ele>27.0543</ele>
        <time>2013-05-09T20:30:39Z</time>
      </trkpt>
      <trkpt lat="59.9581966" lon="17.6893418">
        <ele>28.0155</ele>
        <time>2013-05-09T20:30:40Z</time>
      </trkpt>
      <trkpt lat="59.9581955" lon="17.6893467">
        <ele>28.0155</ele>
        <time>2013-05-09T20:30:41Z</time>
      </trkpt>
      <trkpt lat="59.9581964" lon="17.6893535">
        <ele>28.4962</ele>
        <time>2013-05-09T20:30:42Z</time>
      </trkpt>
      <trkpt lat="59.9581953" lon="17.6893565">
        <ele>28.9769</ele>
        <time>2013-05-09T20:30:43Z</time>
      </trkpt>
      <trkpt lat="59.958195" lon="17.6893623">
        <ele>29.4575</ele>
        <time>2013-05-09T20:30:44Z</time>
      </trkpt>
      <trkpt lat="59.9581924" lon="17.6893639">
        <ele>29.4575</ele>
        <time>2013-05-09T20:30:45Z</time>
      </trkpt>
      <trkpt lat="59.9581906" lon="17.6893657">
        <ele>29.4575</ele>
        <time>2013-05-09T20:30:46Z</time>
      </trkpt>
      <trkpt lat="59.9581892" lon="17.6893682">
        <ele>29.4575</ele>
        <time>2013-05-09T20:30:47Z</time>
      </trkpt>
      <trkpt lat="59.9581877" lon="17.6893663">
        <ele>29.4575</ele>
        <time>2013-05-09T20:30:48Z</time>
      </trkpt>
      <trkpt lat="59.9581868" lon="17.6893642">
        <ele>29.4575</ele>
        <time>2013-05-09T20:30:49Z</time>
      </trkpt>
      <trkpt lat="59.9580484" lon="17.6893514">
        <ele>17.4412</ele>
        <time>2013-05-09T20:38:20Z</time>
      </trkpt>
      <trkpt lat="59.958038" lon="17.6893881">
        <ele>18.4023</ele>
        <time>2013-05-09T20:38:21Z</time>
      </trkpt>
      <trkpt lat="59.9580198" lon="17.6894275">
        <ele>18.8831</ele>
        <time>2013-05-09T20:38:22Z</time>
      </trkpt>
      <trkpt lat="59.9579967" lon="17.6894705">
        <ele>19.8444</ele>
        <time>2013-05-09T20:38:23Z</time>
      </trkpt>
      <trkpt lat="59.9579655" lon="17.6895098">
        <ele>19.8444</ele>
        <time>2013-05-09T20:38:24Z</time>
      </trkpt>
      <trkpt lat="59.9579334" lon="17.6895623">
        <ele>20.8057</ele>
        <time>2013-05-09T20:38:25Z</time>
      </trkpt>
      <trkpt lat="59.9578996" lon="17.689627">
        <ele>21.2864</ele>
        <time>2013-05-09T20:38:26Z</time>
      </trkpt>
      <trkpt lat="59.9578676" lon="17.6897081">
        <ele>21.767</ele>
        <time>2013-05-09T20:38:27Z</time>
      </trkpt>
      <trkpt lat="59.9578339" lon="17.6897954">
        <ele>21.767</ele>
        <time>2013-05-09T20:38:28Z</time>
      </trkpt>
      <trkpt lat="59.9578026" lon="17.6898915">
        <ele>21.767</ele>
        <time>2013-05-09T20:38:29Z</time>
      </trkpt>
      <trkpt lat="59.9577742" lon="17.6900007">
        <ele>22.7283</ele>
        <time>2013-05-09T20:38:30Z</time>
      </trkpt>
      <trkpt lat="59.9577442" lon="17.690105">
        <ele>23.209</ele>
        <time>2013-05-09T20:38:31Z</time>
      </trkpt>
      <trkpt lat="59.9577097" lon="17.6902095">
        <ele>23.6896</ele>
        <time>2013-05-09T20:38:32Z</time>
      </trkpt>
      <trkpt lat="59.9576736" lon="17.6903142">
        <ele>23.6896</ele>
        <time>2013-05-09T20:38:33Z</time>
      </trkpt>
      <trkpt lat="59.9576364" lon="17.6904237">
        <ele>24.1703</ele>
        <time>2013-05-09T20:38:34Z</time>
      </trkpt>
      <trkpt lat="59.9575981" lon="17.6905407">
        <ele>24.651</ele>
        <time>2013-05-09T20:38:35Z</time>
      </trkpt>
      <trkpt lat="59.9575599" lon="17.6906603">
        <ele>25.1317</ele>
        <time>2013-05-09T20:38:36Z</time>
      </trkpt>
      <trkpt lat="59.9575258" lon="17.6907795">
        <ele>26.5736</ele>
        <time>2013-05-09T20:38:37Z</time>
      </trkpt>
      <trkpt lat="59.9574888" lon="17.690891">
        <ele>28.0155</ele>
        <time>2013-05-09T20:38:38Z</time>
      </trkpt>
      <trkpt lat="59.9574469" lon="17.6909902">
        <ele>28.4962</ele>
        <time>2013-05-09T20:38:39Z</time>
      </trkpt>
      <trkpt lat="59.957402" lon="17.6910779">
        <ele>28.9769</ele>
        <time>2013-05-09T20:38:40Z</time>
      </trkpt>
      <trkpt lat="59.9573553" lon="17.6911617">
        <ele>28.9769</ele>
        <time>2013-05-09T20:38:41Z</time>
      </trkpt>
      <trkpt lat="59.957308" lon="17.6912426">
        <ele>29.4575</ele>
        <time>2013-05-09T20:38:42Z</time>
      </trkpt>
      <trkpt lat="59.9572618" lon="17.6913185">
        <ele>29.4575</ele>
        <time>2013-05-09T20:38:43Z</time>
      </trkpt>
      <trkpt lat="59.9572152" lon="17.6913844">
        <ele>29.4575</ele>
        <time>2013-05-09T20:38:44Z</time>
      </trkpt>
      <trkpt lat="59.9571693" lon="17.6914421">
        <ele>29.4575</ele>
        <time>2013-05-09T20:38:45Z</time>
      </trkpt>
      <trkpt lat="59.9571259" lon="17.6914885">
        <ele>29.4575</ele>
        <time>2013-05-09T20:38:46Z</time>
      </trkpt>
      <trkpt lat="59.957088" lon="17.6915249">
        <ele>29.4575</ele>
        <time>2013-05-09T20:38:47Z</time>
      </trkpt>
      <trkpt lat="59.9570579" lon="17.6915553">
        <ele>29.4575</ele>
        <time>2013-05-09T20:38:48Z</time>
      </trkpt>
      <trkpt lat="59.9570328" lon="17.6915751">
        <ele>29.4575</ele>
        <time>2013-05-09T20:38:49Z</time>
      </trkpt>
      <trkpt lat="59.9570183" lon="17.6916041">
        <ele>30.4188</ele>
        <time>2013-05-09T20:38:50Z</time>
      </trkpt>
      <trkpt lat="59.9570046" lon="17.6916363">
        <ele>30.8995</ele>
        <time>2013-05-09T20:38:51Z</time>
      </trkpt>
      <trkpt lat="59.9569932" lon="17.6916801">
        <ele>31.3801</ele>
        <time>2013-05-09T20:38:52Z</time>
      </trkpt>
      <trkpt lat="59.9569921" lon="17.6917387">
        <ele>31.8607</ele>
        <time>2013-05-09T20:38:53Z</time>
      </trkpt>
      <trkpt lat="59.9570014" lon="17.6918097">
        <ele>31.8607</ele>
        <time>2013-05-09T20:38:54Z</time>
      </trkpt>
      <trkpt lat="59.957019" lon="17.6918848">
        <ele>32.3416</ele>
        <time>2013-05-09T20:38:55Z</time>
      </trkpt>
      <trkpt lat="59.9570434" lon="17.6919651">
        <ele>31.8607</ele>
        <time>2013-05-09T20:38:56Z</time>
      </trkpt>
      <trkpt lat="59.9570735" lon="17.6920479">
        <ele>31.8607</ele>
        <time>2013-05-09T20:38:57Z</time>
      </trkpt>
      <trkpt lat="59.9571064" lon="17.6921347">
        <ele>31.3801</ele>
        <time>2013-05-09T20:38:58Z</time>
      </trkpt>
      <trkpt lat="59.9571408" lon="17.6922315">
        <ele>30.8995</ele>
        <time>2013-05-09T20:38:59Z</time>
      </trkpt>
      <trkpt lat="59.9571749" lon="17.692331">
        <ele>30.4188</ele>
        <time>2013-05-09T20:39:00Z</time>
      </trkpt>
      <trkpt lat="59.9572082" lon="17.6924299">
        <ele>29.9381</ele>
        <time>2013-05-09T20:39:01Z</time>
      </trkpt>
      <trkpt lat="59.9572421" lon="17.6925294">
        <ele>29.4575</ele>
        <time>2013-05-09T20:39:02Z</time>
      </trkpt>
      <trkpt lat="59.9572765" lon="17.6926322">
        <ele>29.4575</ele>
        <time>2013-05-09T20:39:03Z</time>
      </trkpt>
      <trkpt lat="59.9573121" lon="17.692737">
        <ele>29.4575</ele>
        <time>2013-05-09T20:39:04Z</time>
      </trkpt>
      <trkpt lat="59.9573479" lon="17.692841">
        <ele>29.4575</ele>
        <time>2013-05-09T20:39:05Z</time>
      </trkpt>
      <trkpt lat="59.9573835" lon="17.692941">
        <ele>28.9769</ele>
        <time>2013-05-09T20:39:06Z</time>
      </trkpt>
      <trkpt lat="59.9574188" lon="17.693038">
        <ele>28.9769</ele>
        <time>2013-05-09T20:39:07Z</time>
      </trkpt>
      <trkpt lat="59.9574528" lon="17.6931341">
        <ele>28.4962</ele>
        <time>2013-05-09T20:39:08Z</time>
      </trkpt>
      <trkpt lat="59.9574859" lon="17.6932292">
        <ele>28.4962</ele>
        <time>2013-05-09T20:39:09Z</time>
      </trkpt>
      <trkpt lat="59.9575187" lon="17.6933198">
        <ele>28.0155</ele>
        <time>2013-05-09T20:39:10Z</time>
      </trkpt>
      <trkpt lat="59.9575507" lon="17.6934104">
        <ele>27.5349</ele>
        <time>2013-05-09T20:39:11Z</time>
      </trkpt>
      <trkpt lat="59.9575821" lon="17.6935045">
        <ele>27.5349</ele>
        <time>2013-05-09T20:39:12Z</time>
      </trkpt>
      <trkpt lat="59.9576137" lon="17.6935989">
        <ele>27.5349</ele>
        <time>2013-05-09T20:39:13Z</time>
      </trkpt>
      <trkpt lat="59.957648" lon="17.693696">
        <ele>27.5349</ele>
        <time>2013-05-09T20:39:14Z</time>
      </trkpt>
      <trkpt lat="59.9576821" lon="17.6937951">
        <ele>27.0543</ele>
        <time>2013-05-09T20:39:15Z</time>
      </trkpt>
      <trkpt lat="59.9577166" lon="17.6938979">
        <ele>27.0543</ele>
        <time>2013-05-09T20:39:16Z</time>
      </trkpt>
      <trkpt lat="59.9577518" lon="17.6940055">
        <ele>26.5736</ele>
        <time>2013-05-09T20:39:17Z</time>
      </trkpt>
      <trkpt lat="59.9577907" lon="17.6941139">
        <ele>26.5736</ele>
        <time>2013-05-09T20:39:18Z</time>
      </trkpt>
      <trkpt lat="59.9578314" lon="17.6942243">
        <ele>26.5736</ele>
        <time>2013-05-09T20:39:19Z</time>
      </trkpt>
      <trkpt lat="59.9578733" lon="17.6943418">
        <ele>26.5736</ele>
        <time>2013-05-09T20:39:20Z</time>
      </trkpt>
      <trkpt lat="59.9579156" lon="17.6944636">
        <ele>26.5736</ele>
        <time>2013-05-09T20:39:21Z</time>
      </trkpt>
      <trkpt lat="59.9579572" lon="17.6945862">
        <ele>26.5736</ele>
        <time>2013-05-09T20:39:22Z</time>
      </trkpt>
      <trkpt lat="59.958" lon="17.6947118">
        <ele>26.0929</ele>
        <time>2013-05-09T20:39:23Z</time>
      </trkpt>
      <trkpt lat="59.9580458" lon="17.694842">
        <ele>26.0929</ele>
        <time>2013-05-09T20:39:24Z</time>
      </trkpt>
      <trkpt lat="59.9580913" lon="17.6949701">
        <ele>26.5736</ele>
        <time>2013-05-09T20:39:25Z</time>
      </trkpt>
      <trkpt lat="59.958135" lon="17.6950951">
        <ele>26.5736</ele>
        <time>2013-05-09T20:39:26Z</time>
      </trkpt>
      <trkpt lat="59.9581794" lon="17.6952188">
        <ele>26.0929</ele>
        <time>2013-05-09T20:39:27Z</time>
      </trkpt>
      <trkpt lat="59.958225" lon="17.6953406">
        <ele>26.0929</ele>
        <time>2013-05-09T20:39:28Z</time>
      </trkpt>
      <trkpt lat="59.9582711" lon="17.6954605">
        <ele>26.0929</ele>
        <time>2013-05-09T20:39:29Z</time>
      </trkpt>
      <trkpt lat="59.9583173" lon="17.6955788">
        <ele>25.6123</ele>
        <time>2013-05-09T20:39:30Z</time>
      </trkpt>
      <trkpt lat="59.9583649" lon="17.695697">
        <ele>25.6123</ele>
        <time>2013-05-09T20:39:31Z</time>
      </trkpt>
      <trkpt lat="59.9584126" lon="17.6958139">
        <ele>25.1317</ele>
        <time>2013-05-09T20:39:32Z</time>
      </trkpt>
      <trkpt lat="59.9584602" lon="17.6959307">
        <ele>25.1317</ele>
        <time>2013-05-09T20:39:33Z</time>
      </trkpt>
      <trkpt lat="59.9585063" lon="17.6960485">
        <ele>24.651</ele>
        <time>2013-05-09T20:39:34Z</time>
      </trkpt>
      <trkpt lat="59.9585499" lon="17.6961689">
        <ele>24.651</ele>
        <time>2013-05-09T20:39:35Z</time>
      </trkpt>
      <trkpt lat="59.9585913" lon="17.696293">
        <ele>24.651</ele>
        <time>2013-05-09T20:39:36Z</time>
      </trkpt>
      <trkpt lat="59.9586332" lon="17.6964154">
        <ele>24.651</ele>
        <time>2013-05-09T20:39:37Z</time>
      </trkpt>
      <trkpt lat="59.958674" lon="17.696538">
        <ele>24.651</ele>
        <time>2013-05-09T20:39:38Z</time>
      </trkpt>
      <trkpt lat="59.9587109" lon="17.6966651">
        <ele>24.651</ele>
        <time>2013-05-09T20:39:39Z</time>
      </trkpt>
      <trkpt lat="59.958744" lon="17.6967962">
        <ele>24.651</ele>
        <time>2013-05-09T20:39:40Z</time>
      </trkpt>
      <trkpt lat="59.958774" lon="17.6969293">
        <ele>24.651</ele>
        <time>2013-05-09T20:39:41Z</time>
      </trkpt>
      <trkpt lat="59.9588026" lon="17.6970619">
        <ele>24.651</ele>
        <time>2013-05-09T20:39:42Z</time>
      </trkpt>
      <trkpt lat="59.9588303" lon="17.6971962">
        <ele>24.651</ele>
        <time>2013-05-09T20:39:43Z</time>
      </trkpt>
      <trkpt lat="59.9588559" lon="17.6973288">
        <ele>25.1317</ele>
        <time>2013-05-09T20:39:44Z</time>
      </trkpt>
      <trkpt lat="59.958879" lon="17.6974583">
        <ele>25.1317</ele>
        <time>2013-05-09T20:39:45Z</time>
      </trkpt>
      <trkpt lat="59.9588993" lon="17.6975821">
        <ele>25.1317</ele>
        <time>2013-05-09T20:39:46Z</time>
      </trkpt>
      <trkpt lat="59.9589171" lon="17.6977018">
        <ele>25.6123</ele>
        <time>2013-05-09T20:39:47Z</time>
      </trkpt>
      <trkpt lat="59.9589324" lon="17.6978217">
        <ele>25.6123</ele>
        <time>2013-05-09T20:39:48Z</time>
      </trkpt>
      <trkpt lat="59.9589461" lon="17.6979473">
        <ele>26.0929</ele>
        <time>2013-05-09T20:39:49Z</time>
      </trkpt>
      <trkpt lat="59.9589568" lon="17.6980775">
        <ele>27.0543</ele>
        <time>2013-05-09T20:39:50Z</time>
      </trkpt>
      <trkpt lat="59.9589632" lon="17.6982117">
        <ele>27.0543</ele>
        <time>2013-05-09T20:39:51Z</time>
      </trkpt>
      <trkpt lat="59.9589684" lon="17.698344">
        <ele>27.5349</ele>
        <time>2013-05-09T20:39:52Z</time>
      </trkpt>
      <trkpt lat="59.9589741" lon="17.6984683">
        <ele>28.0155</ele>
        <time>2013-05-09T20:39:53Z</time>
      </trkpt>
      <trkpt lat="59.9589797" lon="17.6985857">
        <ele>28.4962</ele>
        <time>2013-05-09T20:39:54Z</time>
      </trkpt>
      <trkpt lat="59.9589834" lon="17.6986982">
        <ele>28.9769</ele>
        <time>2013-05-09T20:39:55Z</time>
      </trkpt>
      <trkpt lat="59.9589879" lon="17.6988128">
        <ele>29.4575</ele>
        <time>2013-05-09T20:39:56Z</time>
      </trkpt>
      <trkpt lat="59.9589931" lon="17.6989291">
        <ele>29.9381</ele>
        <time>2013-05-09T20:39:57Z</time>
      </trkpt>
      <trkpt lat="59.9590001" lon="17.6990459">
        <ele>29.9381</ele>
        <time>2013-05-09T20:39:58Z</time>
      </trkpt>
      <trkpt lat="59.959008" lon="17.6991635">
        <ele>30.4188</ele>
        <time>2013-05-09T20:39:59Z</time>
      </trkpt>
      <trkpt lat="59.959016" lon="17.6992831">
        <ele>30.4188</ele>
        <time>2013-05-09T20:40:00Z</time>
      </trkpt>
      <trkpt lat="59.9590242" lon="17.6994026">
        <ele>30.8995</ele>
        <time>2013-05-09T20:40:01Z</time>
      </trkpt>
      <trkpt lat="59.9590322" lon="17.6995192">
        <ele>30.8995</ele>
        <time>2013-05-09T20:40:02Z</time>
      </trkpt>
      <trkpt lat="59.9590401" lon="17.6996298">
        <ele>31.3801</ele>
        <time>2013-05-09T20:40:03Z</time>
      </trkpt>
      <trkpt lat="59.9590492" lon="17.6997395">
        <ele>31.3801</ele>
        <time>2013-05-09T20:40:04Z</time>
      </trkpt>
      <trkpt lat="59.959059" lon="17.6998444">
        <ele>31.8607</ele>
        <time>2013-05-09T20:40:05Z</time>
      </trkpt>
      <trkpt lat="59.9590692" lon="17.6999514">
        <ele>31.8607</ele>
        <time>2013-05-09T20:40:06Z</time>
      </trkpt>
      <trkpt lat="59.959079" lon="17.7000648">
        <ele>31.8607</ele>
        <time>2013-05-09T20:40:07Z</time>
      </trkpt>
      <trkpt lat="59.9590893" lon="17.700186">
        <ele>31.8607</ele>
        <time>2013-05-09T20:40:08Z</time>
      </trkpt>
      <trkpt lat="59.9590999" lon="17.7003113">
        <ele>31.8607</ele>
        <time>2013-05-09T20:40:09Z</time>
      </trkpt>
      <trkpt lat="59.9591103" lon="17.7004381">
        <ele>31.3801</ele>
        <time>2013-05-09T20:40:10Z</time>
      </trkpt>
      <trkpt lat="59.9591206" lon="17.7005693">
        <ele>31.3801</ele>
        <time>2013-05-09T20:40:11Z</time>
      </trkpt>
      <trkpt lat="59.9591308" lon="17.7006992">
        <ele>30.8995</ele>
        <time>2013-05-09T20:40:12Z</time>
      </trkpt>
      <trkpt lat="59.9591434" lon="17.7008315">
        <ele>30.8995</ele>
        <time>2013-05-09T20:40:13Z</time>
      </trkpt>
      <trkpt lat="59.9591583" lon="17.7009626">
        <ele>30.8995</ele>
        <time>2013-05-09T20:40:14Z</time>
      </trkpt>
      <trkpt lat="59.9591741" lon="17.7010931">
        <ele>30.8995</ele>
        <time>2013-05-09T20:40:15Z</time>
      </trkpt>
      <trkpt lat="59.9591916" lon="17.701221">
        <ele>31.3801</ele>
        <time>2013-05-09T20:40:16Z</time>
      </trkpt>
      <trkpt lat="59.9592123" lon="17.7013495">
        <ele>31.8607</ele>
        <time>2013-05-09T20:40:17Z</time>
      </trkpt>
      <trkpt lat="59.9592371" lon="17.7014806">
        <ele>32.3416</ele>
        <time>2013-05-09T20:40:18Z</time>
      </trkpt>
      <trkpt lat="59.9592656" lon="17.7016167">
        <ele>33.3029</ele>
        <time>2013-05-09T20:40:19Z</time>
      </trkpt>
      <trkpt lat="59.9592943" lon="17.7017492">
        <ele>33.3029</ele>
        <time>2013-05-09T20:40:20Z</time>
      </trkpt>
      <trkpt lat="59.9593242" lon="17.7018758">
        <ele>32.8223</ele>
        <time>2013-05-09T20:40:21Z</time>
      </trkpt>
      <trkpt lat="59.9593593" lon="17.7020048">
        <ele>33.3029</ele>
        <time>2013-05-09T20:40:22Z</time>
      </trkpt>
      <trkpt lat="59.95939" lon="17.7021561">
        <ele>33.3029</ele>
        <time>2013-05-09T20:40:23Z</time>
      </trkpt>
      <trkpt lat="59.9594232" lon="17.7022874">
        <ele>33.3029</ele>
        <time>2013-05-09T20:40:24Z</time>
      </trkpt>
      <trkpt lat="59.9594574" lon="17.7024148">
        <ele>33.3029</ele>
        <time>2013-05-09T20:40:25Z</time>
      </trkpt>
      <trkpt lat="59.959491" lon="17.7025394">
        <ele>33.3029</ele>
        <time>2013-05-09T20:40:26Z</time>
      </trkpt>
      <trkpt lat="59.9595268" lon="17.70266">
        <ele>33.3029</ele>
        <time>2013-05-09T20:40:27Z</time>
      </trkpt>
      <trkpt lat="59.9595635" lon="17.7027771">
        <ele>32.3416</ele>
        <time>2013-05-09T20:40:28Z</time>
      </trkpt>
      <trkpt lat="59.959602" lon="17.7028979">
        <ele>32.8223</ele>
        <time>2013-05-09T20:40:29Z</time>
      </trkpt>
      <trkpt lat="59.9596401" lon="17.7030171">
        <ele>32.8223</ele>
        <time>2013-05-09T20:40:30Z</time>
      </trkpt>
      <trkpt lat="59.9596759" lon="17.703136">
        <ele>32.3416</ele>
        <time>2013-05-09T20:40:31Z</time>
      </trkpt>
      <trkpt lat="59.9597149" lon="17.7032536">
        <ele>32.3416</ele>
        <time>2013-05-09T20:40:32Z</time>
      </trkpt>
      <trkpt lat="59.9597562" lon="17.7033706">
        <ele>32.3416</ele>
        <time>2013-05-09T20:40:33Z</time>
      </trkpt>
      <trkpt lat="59.9597982" lon="17.7034899">
        <ele>32.8223</ele>
        <time>2013-05-09T20:40:34Z</time>
      </trkpt>
      <trkpt lat="59.9598361" lon="17.7036117">
        <ele>32.3416</ele>
        <time>2013-05-09T20:40:35Z</time>
      </trkpt>
      <trkpt lat="59.9598754" lon="17.7037344">
        <ele>31.8607</ele>
        <time>2013-05-09T20:40:36Z</time>
      </trkpt>
      <trkpt lat="59.9599153" lon="17.7038606">
        <ele>31.3801</ele>
        <time>2013-05-09T20:40:37Z</time>
      </trkpt>
      <trkpt lat="59.9599563" lon="17.703983">
        <ele>31.3801</ele>
        <time>2013-05-09T20:40:38Z</time>
      </trkpt>
      <trkpt lat="59.9600005" lon="17.7040966">
        <ele>30.8995</ele>
        <time>2013-05-09T20:40:39Z</time>
      </trkpt>
      <trkpt lat="59.9600518" lon="17.7042004">
        <ele>30.4188</ele>
        <time>2013-05-09T20:40:40Z</time>
      </trkpt>
      <trkpt lat="59.9601083" lon="17.7043002">
        <ele>29.9381</ele>
        <time>2013-05-09T20:40:41Z</time>
      </trkpt>
      <trkpt lat="59.9601718" lon="17.7044093">
        <ele>31.3801</ele>
        <time>2013-05-09T20:40:42Z</time>
      </trkpt>
      <trkpt lat="59.9602376" lon="17.7044984">
        <ele>31.8607</ele>
        <time>2013-05-09T20:40:43Z</time>
      </trkpt>
      <trkpt lat="59.9603067" lon="17.7045854">
        <ele>31.8607</ele>
        <time>2013-05-09T20:40:44Z</time>
      </trkpt>
      <trkpt lat="59.9603778" lon="17.7046678">
        <ele>31.3801</ele>
        <time>2013-05-09T20:40:45Z</time>
      </trkpt>
      <trkpt lat="59.9604489" lon="17.7047496">
        <ele>31.3801</ele>
        <time>2013-05-09T20:40:46Z</time>
      </trkpt>
      <trkpt lat="59.9605182" lon="17.7048322">
        <ele>30.8995</ele>
        <time>2013-05-09T20:40:47Z</time>
      </trkpt>
      <trkpt lat="59.9605874" lon="17.7049169">
        <ele>30.4188</ele>
        <time>2013-05-09T20:40:48Z</time>
      </trkpt>
      <trkpt lat="59.9606569" lon="17.7050014">
        <ele>29.9381</ele>
        <time>2013-05-09T20:40:49Z</time>
      </trkpt>
      <trkpt lat="59.9607275" lon="17.7050858">
        <ele>29.4575</ele>
        <time>2013-05-09T20:40:50Z</time>
      </trkpt>
      <trkpt lat="59.9607964" lon="17.7051748">
        <ele>29.4575</ele>
        <time>2013-05-09T20:40:51Z</time>
      </trkpt>
      <trkpt lat="59.9608606" lon="17.7052662">
        <ele>28.9769</ele>
        <time>2013-05-09T20:40:52Z</time>
      </trkpt>
      <trkpt lat="59.9609258" lon="17.7053593">
        <ele>28.9769</ele>
        <time>2013-05-09T20:40:53Z</time>
      </trkpt>
      <trkpt lat="59.9609875" lon="17.7054537">
        <ele>28.9769</ele>
        <time>2013-05-09T20:40:54Z</time>
      </trkpt>
      <trkpt lat="59.9610446" lon="17.7055524">
        <ele>28.9769</ele>
        <time>2013-05-09T20:40:55Z</time>
      </trkpt>
      <trkpt lat="59.9610989" lon="17.7056516">
        <ele>28.4962</ele>
        <time>2013-05-09T20:40:56Z</time>
      </trkpt>
      <trkpt lat="59.9611526" lon="17.7057483">
        <ele>28.4962</ele>
        <time>2013-05-09T20:40:57Z</time>
      </trkpt>
      <trkpt lat="59.9612059" lon="17.7058441">
        <ele>28.4962</ele>
        <time>2013-05-09T20:40:58Z</time>
      </trkpt>
      <trkpt lat="59.9612593" lon="17.7059401">
        <ele>28.9769</ele>
        <time>2013-05-09T20:40:59Z</time>
      </trkpt>
      <trkpt lat="59.9613149" lon="17.7060419">
        <ele>29.4575</ele>
        <time>2013-05-09T20:41:00Z</time>
      </trkpt>
      <trkpt lat="59.9613701" lon="17.706146">
        <ele>29.4575</ele>
        <time>2013-05-09T20:41:01Z</time>
      </trkpt>
      <trkpt lat="59.9614284" lon="17.7062474">
        <ele>29.9381</ele>
        <time>2013-05-09T20:41:02Z</time>
      </trkpt>
      <trkpt lat="59.9614905" lon="17.7063448">
        <ele>29.9381</ele>
        <time>2013-05-09T20:41:03Z</time>
      </trkpt>
      <trkpt lat="59.9615558" lon="17.7064368">
        <ele>29.9381</ele>
        <time>2013-05-09T20:41:04Z</time>
      </trkpt>
      <trkpt lat="59.9616257" lon="17.7065185">
        <ele>29.9381</ele>
        <time>2013-05-09T20:41:05Z</time>
      </trkpt>
      <trkpt lat="59.9616983" lon="17.7065939">
        <ele>29.9381</ele>
        <time>2013-05-09T20:41:06Z</time>
      </trkpt>
      <trkpt lat="59.9617743" lon="17.7066635">
        <ele>29.4575</ele>
        <time>2013-05-09T20:41:07Z</time>
      </trkpt>
      <trkpt lat="59.9618534" lon="17.706728">
        <ele>29.4575</ele>
        <time>2013-05-09T20:41:08Z</time>
      </trkpt>
      <trkpt lat="59.9619368" lon="17.706785">
        <ele>29.9381</ele>
        <time>2013-05-09T20:41:09Z</time>
      </trkpt>
      <trkpt lat="59.962019" lon="17.7068388">
        <ele>29.9381</ele>
        <time>2013-05-09T20:41:10Z</time>
      </trkpt>
      <trkpt lat="59.9620991" lon="17.7068912">
        <ele>29.4575</ele>
        <time>2013-05-09T20:41:11Z</time>
      </trkpt>
      <trkpt lat="59.9621814" lon="17.7069422">
        <ele>29.9381</ele>
        <time>2013-05-09T20:41:12Z</time>
      </trkpt>
      <trkpt lat="59.9622661" lon="17.7069885">
        <ele>30.4188</ele>
        <time>2013-05-09T20:41:13Z</time>
      </trkpt>
      <trkpt lat="59.9623513" lon="17.7070272">
        <ele>30.4188</ele>
        <time>2013-05-09T20:41:14Z</time>
      </trkpt>
      <trkpt lat="59.9624372" lon="17.7070594">
        <ele>30.8995</ele>
        <time>2013-05-09T20:41:15Z</time>
      </trkpt>
      <trkpt lat="59.9625224" lon="17.7070878">
        <ele>30.8995</ele>
        <time>2013-05-09T20:41:16Z</time>
      </trkpt>
      <trkpt lat="59.9626073" lon="17.7071126">
        <ele>30.8995</ele>
        <time>2013-05-09T20:41:17Z</time>
      </trkpt>
      <trkpt lat="59.9626913" lon="17.707132">
        <ele>30.8995</ele>
        <time>2013-05-09T20:41:18Z</time>
      </trkpt>
      <trkpt lat="59.9627755" lon="17.7071477">
        <ele>30.8995</ele>
        <time>2013-05-09T20:41:19Z</time>
      </trkpt>
      <trkpt lat="59.9628591" lon="17.7071587">
        <ele>31.3801</ele>
        <time>2013-05-09T20:41:20Z</time>
      </trkpt>
      <trkpt lat="59.9629389" lon="17.7071656">
        <ele>30.8995</ele>
        <time>2013-05-09T20:41:21Z</time>
      </trkpt>
      <trkpt lat="59.9630216" lon="17.707166">
        <ele>31.3801</ele>
        <time>2013-05-09T20:41:22Z</time>
      </trkpt>
      <trkpt lat="59.9631037" lon="17.7071642">
        <ele>31.3801</ele>
        <time>2013-05-09T20:41:23Z</time>
      </trkpt>
      <trkpt lat="59.9631854" lon="17.7071631">
        <ele>31.3801</ele>
        <time>2013-05-09T20:41:24Z</time>
      </trkpt>
      <trkpt lat="59.963271" lon="17.7071611">
        <ele>30.8995</ele>
        <time>2013-05-09T20:41:25Z</time>
      </trkpt>
      <trkpt lat="59.9633567" lon="17.7071596">
        <ele>31.3801</ele>
        <time>2013-05-09T20:41:26Z</time>
      </trkpt>
      <trkpt lat="59.9634393" lon="17.7071579">
        <ele>31.3801</ele>
        <time>2013-05-09T20:41:27Z</time>
      </trkpt>
      <trkpt lat="59.9635209" lon="17.7071599">
        <ele>30.8995</ele>
        <time>2013-05-09T20:41:28Z</time>
      </trkpt>
      <trkpt lat="59.9636009" lon="17.7071667">
        <ele>29.9381</ele>
        <time>2013-05-09T20:41:29Z</time>
      </trkpt>
      <trkpt lat="59.9636829" lon="17.7071769">
        <ele>29.4575</ele>
        <time>2013-05-09T20:41:30Z</time>
      </trkpt>
      <trkpt lat="59.9637686" lon="17.707188">
        <ele>29.4575</ele>
        <time>2013-05-09T20:41:31Z</time>
      </trkpt>
      <trkpt lat="59.9638538" lon="17.7071997">
        <ele>28.9769</ele>
        <time>2013-05-09T20:41:32Z</time>
      </trkpt>
      <trkpt lat="59.9639408" lon="17.7072098">
        <ele>29.4575</ele>
        <time>2013-05-09T20:41:33Z</time>
      </trkpt>
      <trkpt lat="59.9640277" lon="17.7072221">
        <ele>29.4575</ele>
        <time>2013-05-09T20:41:34Z</time>
      </trkpt>
      <trkpt lat="59.9641136" lon="17.7072385">
        <ele>29.4575</ele>
        <time>2013-05-09T20:41:35Z</time>
      </trkpt>
      <trkpt lat="59.9641986" lon="17.7072575">
        <ele>29.4575</ele>
        <time>2013-05-09T20:41:36Z</time>
      </trkpt>
      <trkpt lat="59.9642826" lon="17.7072797">
        <ele>29.4575</ele>
        <time>2013-05-09T20:41:37Z</time>
      </trkpt>
      <trkpt lat="59.9643655" lon="17.707305">
        <ele>29.4575</ele>
        <time>2013-05-09T20:41:38Z</time>
      </trkpt>
      <trkpt lat="59.9644462" lon="17.7073351">
        <ele>29.4575</ele>
        <time>2013-05-09T20:41:39Z</time>
      </trkpt>
      <trkpt lat="59.9645249" lon="17.7073717">
        <ele>29.4575</ele>
        <time>2013-05-09T20:41:40Z</time>
      </trkpt>
      <trkpt lat="59.9646043" lon="17.7074154">
        <ele>29.4575</ele>
        <time>2013-05-09T20:41:41Z</time>
      </trkpt>
      <trkpt lat="59.964683" lon="17.7074667">
        <ele>28.9769</ele>
        <time>2013-05-09T20:41:42Z</time>
      </trkpt>
      <trkpt lat="59.9647626" lon="17.7075231">
        <ele>28.9769</ele>
        <time>2013-05-09T20:41:43Z</time>
      </trkpt>
      <trkpt lat="59.9648427" lon="17.7075809">
        <ele>28.9769</ele>
        <time>2013-05-09T20:41:44Z</time>
      </trkpt>
      <trkpt lat="59.9649227" lon="17.7076407">
        <ele>28.4962</ele>
        <time>2013-05-09T20:41:45Z</time>
      </trkpt>
      <trkpt lat="59.9650016" lon="17.7077032">
        <ele>28.0155</ele>
        <time>2013-05-09T20:41:46Z</time>
      </trkpt>
      <trkpt lat="59.9650824" lon="17.7077681">
        <ele>27.5349</ele>
        <time>2013-05-09T20:41:47Z</time>
      </trkpt>
      <trkpt lat="59.9651643" lon="17.7078355">
        <ele>27.0543</ele>
        <time>2013-05-09T20:41:48Z</time>
      </trkpt>
      <trkpt lat="59.9652482" lon="17.7079055">
        <ele>27.0543</ele>
        <time>2013-05-09T20:41:49Z</time>
      </trkpt>
      <trkpt lat="59.9653324" lon="17.7079777">
        <ele>26.5736</ele>
        <time>2013-05-09T20:41:50Z</time>
      </trkpt>
      <trkpt lat="59.9654155" lon="17.7080563">
        <ele>26.5736</ele>
        <time>2013-05-09T20:41:51Z</time>
      </trkpt>
      <trkpt lat="59.9654968" lon="17.7081442">
        <ele>26.0929</ele>
        <time>2013-05-09T20:41:52Z</time>
      </trkpt>
      <trkpt lat="59.9655745" lon="17.7082409">
        <ele>25.6123</ele>
        <time>2013-05-09T20:41:53Z</time>
      </trkpt>
      <trkpt lat="59.965647" lon="17.7083474">
        <ele>25.6123</ele>
        <time>2013-05-09T20:41:54Z</time>
      </trkpt>
      <trkpt lat="59.9657134" lon="17.7084644">
        <ele>25.1317</ele>
        <time>2013-05-09T20:41:55Z</time>
      </trkpt>
      <trkpt lat="59.9657714" lon="17.7085914">
        <ele>25.1317</ele>
        <time>2013-05-09T20:41:56Z</time>
      </trkpt>
      <trkpt lat="59.9658237" lon="17.7087243">
        <ele>24.651</ele>
        <time>2013-05-09T20:41:57Z</time>
      </trkpt>
      <trkpt lat="59.9658715" lon="17.7088585">
        <ele>24.1703</ele>
        <time>2013-05-09T20:41:58Z</time>
      </trkpt>
      <trkpt lat="59.9659152" lon="17.7089943">
        <ele>24.1703</ele>
        <time>2013-05-09T20:41:59Z</time>
      </trkpt>
      <trkpt lat="59.9659559" lon="17.7091316">
        <ele>24.1703</ele>
        <time>2013-05-09T20:42:00Z</time>
      </trkpt>
      <trkpt lat="59.9659944" lon="17.709265">
        <ele>24.1703</ele>
        <time>2013-05-09T20:42:01Z</time>
      </trkpt>
      <trkpt lat="59.9660326" lon="17.7093937">
        <ele>23.6896</ele>
        <time>2013-05-09T20:42:02Z</time>
      </trkpt>
      <trkpt lat="59.9660723" lon="17.709522">
        <ele>23.6896</ele>
        <time>2013-05-09T20:42:03Z</time>
      </trkpt>
      <trkpt lat="59.9661094" lon="17.7096537">
        <ele>23.6896</ele>
        <time>2013-05-09T20:42:04Z</time>
      </trkpt>
      <trkpt lat="59.9661484" lon="17.7097894">
        <ele>23.6896</ele>
        <time>2013-05-09T20:42:05Z</time>
      </trkpt>
      <trkpt lat="59.9661899" lon="17.7099213">
        <ele>24.1703</ele>
        <time>2013-05-09T20:42:06Z</time>
      </trkpt>
      <trkpt lat="59.9662304" lon="17.7100583">
        <ele>24.651</ele>
        <time>2013-05-09T20:42:07Z</time>
      </trkpt>
      <trkpt lat="59.9662702" lon="17.7101965">
        <ele>24.651</ele>
        <time>2013-05-09T20:42:08Z</time>
      </trkpt>
      <trkpt lat="59.9663104" lon="17.710335">
        <ele>25.1317</ele>
        <time>2013-05-09T20:42:09Z</time>
      </trkpt>
      <trkpt lat="59.9663498" lon="17.7104732">
        <ele>25.1317</ele>
        <time>2013-05-09T20:42:10Z</time>
      </trkpt>
      <trkpt lat="59.9663897" lon="17.710612">
        <ele>25.1317</ele>
        <time>2013-05-09T20:42:11Z</time>
      </trkpt>
      <trkpt lat="59.9664306" lon="17.7107457">
        <ele>25.1317</ele>
        <time>2013-05-09T20:42:12Z</time>
      </trkpt>
      <trkpt lat="59.9664703" lon="17.7108881">
        <ele>26.0929</ele>
        <time>2013-05-09T20:42:13Z</time>
      </trkpt>
      <trkpt lat="59.9665088" lon="17.7110285">
        <ele>26.0929</ele>
        <time>2013-05-09T20:42:14Z</time>
      </trkpt>
      <trkpt lat="59.9665468" lon="17.7111614">
        <ele>26.0929</ele>
        <time>2013-05-09T20:42:15Z</time>
      </trkpt>
      <trkpt lat="59.9665839" lon="17.7112916">
        <ele>27.0543</ele>
        <time>2013-05-09T20:42:16Z</time>
      </trkpt>
      <trkpt lat="59.9666183" lon="17.7114127">
        <ele>26.5736</ele>
        <time>2013-05-09T20:42:17Z</time>
      </trkpt>
      <trkpt lat="59.9666545" lon="17.7115303">
        <ele>27.0543</ele>
        <time>2013-05-09T20:42:18Z</time>
      </trkpt>
      <trkpt lat="59.9666929" lon="17.7116434">
        <ele>27.0543</ele>
        <time>2013-05-09T20:42:19Z</time>
      </trkpt>
      <trkpt lat="59.9667322" lon="17.7117553">
        <ele>27.0543</ele>
        <time>2013-05-09T20:42:20Z</time>
      </trkpt>
      <trkpt lat="59.9667717" lon="17.7118693">
        <ele>27.0543</ele>
        <time>2013-05-09T20:42:21Z</time>
      </trkpt>
      <trkpt lat="59.9668116" lon="17.7119835">
        <ele>27.5349</ele>
        <time>2013-05-09T20:42:22Z</time>
      </trkpt>
      <trkpt lat="59.9668523" lon="17.7120997">
        <ele>27.5349</ele>
        <time>2013-05-09T20:42:23Z</time>
      </trkpt>
      <trkpt lat="59.9668942" lon="17.7122152">
        <ele>27.5349</ele>
        <time>2013-05-09T20:42:24Z</time>
      </trkpt>
      <trkpt lat="59.966936" lon="17.7123337">
        <ele>27.5349</ele>
        <time>2013-05-09T20:42:25Z</time>
      </trkpt>
      <trkpt lat="59.9669776" lon="17.7124554">
        <ele>27.5349</ele>
        <time>2013-05-09T20:42:26Z</time>
      </trkpt>
      <trkpt lat="59.9670187" lon="17.7125806">
        <ele>27.5349</ele>
        <time>2013-05-09T20:42:27Z</time>
      </trkpt>
      <trkpt lat="59.9670586" lon="17.71271">
        <ele>27.5349</ele>
        <time>2013-05-09T20:42:28Z</time>
      </trkpt>
      <trkpt lat="59.9670968" lon="17.712845">
        <ele>27.5349</ele>
        <time>2013-05-09T20:42:29Z</time>
      </trkpt>
      <trkpt lat="59.967132" lon="17.7129844">
        <ele>27.0543</ele>
        <time>2013-05-09T20:42:30Z</time>
      </trkpt>
      <trkpt lat="59.9671639" lon="17.7131275">
        <ele>27.0543</ele>
        <time>2013-05-09T20:42:31Z</time>
      </trkpt>
      <trkpt lat="59.9671949" lon="17.7132744">
        <ele>26.5736</ele>
        <time>2013-05-09T20:42:32Z</time>
      </trkpt>
      <trkpt lat="59.9672248" lon="17.7134248">
        <ele>26.0929</ele>
        <time>2013-05-09T20:42:33Z</time>
      </trkpt>
      <trkpt lat="59.9672514" lon="17.7135813">
        <ele>26.0929</ele>
        <time>2013-05-09T20:42:34Z</time>
      </trkpt>
      <trkpt lat="59.9672756" lon="17.7137449">
        <ele>25.6123</ele>
        <time>2013-05-09T20:42:35Z</time>
      </trkpt>
      <trkpt lat="59.9672981" lon="17.7139142">
        <ele>25.1317</ele>
        <time>2013-05-09T20:42:36Z</time>
      </trkpt>
      <trkpt lat="59.9673197" lon="17.714089">
        <ele>24.1703</ele>
        <time>2013-05-09T20:42:37Z</time>
      </trkpt>
      <trkpt lat="59.9673423" lon="17.7142702">
        <ele>23.6896</ele>
        <time>2013-05-09T20:42:38Z</time>
      </trkpt>
      <trkpt lat="59.9673663" lon="17.7144519">
        <ele>23.209</ele>
        <time>2013-05-09T20:42:39Z</time>
      </trkpt>
      <trkpt lat="59.9673918" lon="17.714637">
        <ele>22.7283</ele>
        <time>2013-05-09T20:42:40Z</time>
      </trkpt>
      <trkpt lat="59.9674181" lon="17.7148203">
        <ele>22.2476</ele>
        <time>2013-05-09T20:42:41Z</time>
      </trkpt>
      <trkpt lat="59.9674455" lon="17.714974">
        <ele>21.767</ele>
        <time>2013-05-09T20:42:42Z</time>
      </trkpt>
      <trkpt lat="59.9674797" lon="17.7151411">
        <ele>21.2864</ele>
        <time>2013-05-09T20:42:43Z</time>
      </trkpt>
      <trkpt lat="59.9675115" lon="17.7153267">
        <ele>21.767</ele>
        <time>2013-05-09T20:42:44Z</time>
      </trkpt>
      <trkpt lat="59.9675487" lon="17.7155071">
        <ele>21.767</ele>
        <time>2013-05-09T20:42:45Z</time>
      </trkpt>
      <trkpt lat="59.967584" lon="17.7157108">
        <ele>22.2476</ele>
        <time>2013-05-09T20:42:46Z</time>
      </trkpt>
      <trkpt lat="59.9676274" lon="17.715858">
        <ele>22.2476</ele>
        <time>2013-05-09T20:42:47Z</time>
      </trkpt>
      <trkpt lat="59.967677" lon="17.7160092">
        <ele>23.6896</ele>
        <time>2013-05-09T20:42:48Z</time>
      </trkpt>
      <trkpt lat="59.9677262" lon="17.7161504">
        <ele>24.651</ele>
        <time>2013-05-09T20:42:49Z</time>
      </trkpt>
      <trkpt lat="59.9677755" lon="17.7162784">
        <ele>25.1317</ele>
        <time>2013-05-09T20:42:50Z</time>
      </trkpt>
      <trkpt lat="59.9678248" lon="17.7163928">
        <ele>25.1317</ele>
        <time>2013-05-09T20:42:51Z</time>
      </trkpt>
      <trkpt lat="59.9678753" lon="17.7164961">
        <ele>25.6123</ele>
        <time>2013-05-09T20:42:52Z</time>
      </trkpt>
      <trkpt lat="59.9679259" lon="17.7165898">
        <ele>25.6123</ele>
        <time>2013-05-09T20:42:53Z</time>
      </trkpt>
      <trkpt lat="59.9679794" lon="17.7166701">
        <ele>25.6123</ele>
        <time>2013-05-09T20:42:54Z</time>
      </trkpt>
      <trkpt lat="59.9680305" lon="17.7167407">
        <ele>25.1317</ele>
        <time>2013-05-09T20:42:55Z</time>
      </trkpt>
      <trkpt lat="59.9680843" lon="17.7168069">
        <ele>25.1317</ele>
        <time>2013-05-09T20:42:56Z</time>
      </trkpt>
      <trkpt lat="59.968139" lon="17.7168673">
        <ele>24.651</ele>
        <time>2013-05-09T20:42:57Z</time>
      </trkpt>
      <trkpt lat="59.9681941" lon="17.716926">
        <ele>24.651</ele>
        <time>2013-05-09T20:42:58Z</time>
      </trkpt>
      <trkpt lat="59.968249" lon="17.7169798">
        <ele>24.651</ele>
        <time>2013-05-09T20:42:59Z</time>
      </trkpt>
      <trkpt lat="59.968305" lon="17.717029">
        <ele>24.651</ele>
        <time>2013-05-09T20:43:00Z</time>
      </trkpt>
      <trkpt lat="59.9683649" lon="17.7170742">
        <ele>25.1317</ele>
        <time>2013-05-09T20:43:01Z</time>
      </trkpt>
      <trkpt lat="59.9684211" lon="17.7171123">
        <ele>24.651</ele>
        <time>2013-05-09T20:43:02Z</time>
      </trkpt>
      <trkpt lat="59.9684811" lon="17.7171468">
        <ele>24.651</ele>
        <time>2013-05-09T20:43:03Z</time>
      </trkpt>
      <trkpt lat="59.9685422" lon="17.7171773">
        <ele>24.651</ele>
        <time>2013-05-09T20:43:04Z</time>
      </trkpt>
      <trkpt lat="59.9686039" lon="17.7172071">
        <ele>24.651</ele>
        <time>2013-05-09T20:43:05Z</time>
      </trkpt>
      <trkpt lat="59.9686648" lon="17.7172335">
        <ele>25.1317</ele>
        <time>2013-05-09T20:43:06Z</time>
      </trkpt>
      <trkpt lat="59.9687261" lon="17.7172538">
        <ele>25.1317</ele>
        <time>2013-05-09T20:43:07Z</time>
      </trkpt>
      <trkpt lat="59.9687842" lon="17.7172768">
        <ele>24.651</ele>
        <time>2013-05-09T20:43:08Z</time>
      </trkpt>
      <trkpt lat="59.9688417" lon="17.7173033">
        <ele>24.651</ele>
        <time>2013-05-09T20:43:09Z</time>
      </trkpt>
      <trkpt lat="59.9689048" lon="17.7173285">
        <ele>25.1317</ele>
        <time>2013-05-09T20:43:10Z</time>
      </trkpt>
      <trkpt lat="59.9689675" lon="17.717354">
        <ele>25.6123</ele>
        <time>2013-05-09T20:43:11Z</time>
      </trkpt>
      <trkpt lat="59.969031" lon="17.7173787">
        <ele>26.0929</ele>
        <time>2013-05-09T20:43:12Z</time>
      </trkpt>
      <trkpt lat="59.9690954" lon="17.7174012">
        <ele>26.5736</ele>
        <time>2013-05-09T20:43:13Z</time>
      </trkpt>
      <trkpt lat="59.9691608" lon="17.7174237">
        <ele>26.5736</ele>
        <time>2013-05-09T20:43:14Z</time>
      </trkpt>
      <trkpt lat="59.9692264" lon="17.7174503">
        <ele>27.0543</ele>
        <time>2013-05-09T20:43:15Z</time>
      </trkpt>
      <trkpt lat="59.9692923" lon="17.7174814">
        <ele>27.0543</ele>
        <time>2013-05-09T20:43:16Z</time>
      </trkpt>
      <trkpt lat="59.9693595" lon="17.7175136">
        <ele>27.0543</ele>
        <time>2013-05-09T20:43:17Z</time>
      </trkpt>
      <trkpt lat="59.9694273" lon="17.7175471">
        <ele>27.0543</ele>
        <time>2013-05-09T20:43:18Z</time>
      </trkpt>
      <trkpt lat="59.9694958" lon="17.7175849">
        <ele>27.0543</ele>
        <time>2013-05-09T20:43:19Z</time>
      </trkpt>
      <trkpt lat="59.9695652" lon="17.717628">
        <ele>27.0543</ele>
        <time>2013-05-09T20:43:20Z</time>
      </trkpt>
      <trkpt lat="59.9696357" lon="17.7176738">
        <ele>27.0543</ele>
        <time>2013-05-09T20:43:21Z</time>
      </trkpt>
      <trkpt lat="59.9697062" lon="17.7177218">
        <ele>26.5736</ele>
        <time>2013-05-09T20:43:22Z</time>
      </trkpt>
      <trkpt lat="59.9697754" lon="17.7177766">
        <ele>26.5736</ele>
        <time>2013-05-09T20:43:23Z</time>
      </trkpt>
      <trkpt lat="59.9698441" lon="17.7178357">
        <ele>26.5736</ele>
        <time>2013-05-09T20:43:24Z</time>
      </trkpt>
      <trkpt lat="59.9699119" lon="17.7178972">
        <ele>26.5736</ele>
        <time>2013-05-09T20:43:25Z</time>
      </trkpt>
      <trkpt lat="59.9699785" lon="17.7179588">
        <ele>26.0929</ele>
        <time>2013-05-09T20:43:26Z</time>
      </trkpt>
      <trkpt lat="59.970045" lon="17.7180183">
        <ele>26.0929</ele>
        <time>2013-05-09T20:43:27Z</time>
      </trkpt>
      <trkpt lat="59.970111" lon="17.7180769">
        <ele>26.0929</ele>
        <time>2013-05-09T20:43:28Z</time>
      </trkpt>
      <trkpt lat="59.9701769" lon="17.7181381">
        <ele>25.6123</ele>
        <time>2013-05-09T20:43:29Z</time>
      </trkpt>
      <trkpt lat="59.9702433" lon="17.718201">
        <ele>25.6123</ele>
        <time>2013-05-09T20:43:30Z</time>
      </trkpt>
      <trkpt lat="59.9703106" lon="17.7182646">
        <ele>25.6123</ele>
        <time>2013-05-09T20:43:31Z</time>
      </trkpt>
      <trkpt lat="59.9703785" lon="17.7183277">
        <ele>25.6123</ele>
        <time>2013-05-09T20:43:32Z</time>
      </trkpt>
      <trkpt lat="59.9704478" lon="17.7183898">
        <ele>25.1317</ele>
        <time>2013-05-09T20:43:33Z</time>
      </trkpt>
      <trkpt lat="59.9705179" lon="17.7184542">
        <ele>25.1317</ele>
        <time>2013-05-09T20:43:34Z</time>
      </trkpt>
      <trkpt lat="59.9705888" lon="17.7185218">
        <ele>25.1317</ele>
        <time>2013-05-09T20:43:35Z</time>
      </trkpt>
      <trkpt lat="59.9706605" lon="17.7185898">
        <ele>24.651</ele>
        <time>2013-05-09T20:43:36Z</time>
      </trkpt>
      <trkpt lat="59.9707332" lon="17.7186566">
        <ele>24.651</ele>
        <time>2013-05-09T20:43:37Z</time>
      </trkpt>
      <trkpt lat="59.9708067" lon="17.7187223">
        <ele>24.651</ele>
        <time>2013-05-09T20:43:38Z</time>
      </trkpt>
      <trkpt lat="59.970881" lon="17.7187887">
        <ele>24.1703</ele>
        <time>2013-05-09T20:43:39Z</time>
      </trkpt>
      <trkpt lat="59.9709559" lon="17.718857">
        <ele>24.1703</ele>
        <time>2013-05-09T20:43:40Z</time>
      </trkpt>
      <trkpt lat="59.9710317" lon="17.7189254">
        <ele>24.1703</ele>
        <time>2013-05-09T20:43:41Z</time>
      </trkpt>
      <trkpt lat="59.9711083" lon="17.7189924">
        <ele>24.1703</ele>
        <time>2013-05-09T20:43:42Z</time>
      </trkpt>
      <trkpt lat="59.9711854" lon="17.7190605">
        <ele>24.1703</ele>
        <time>2013-05-09T20:43:43Z</time>
      </trkpt>
      <trkpt lat="59.9712626" lon="17.7191322">
        <ele>23.6896</ele>
        <time>2013-05-09T20:43:44Z</time>
      </trkpt>
      <trkpt lat="59.9713408" lon="17.7192062">
        <ele>23.6896</ele>
        <time>2013-05-09T20:43:45Z</time>
      </trkpt>
      <trkpt lat="59.9714201" lon="17.7192798">
        <ele>23.6896</ele>
        <time>2013-05-09T20:43:46Z</time>
      </trkpt>
      <trkpt lat="59.9715005" lon="17.7193532">
        <ele>23.209</ele>
        <time>2013-05-09T20:43:47Z</time>
      </trkpt>
      <trkpt lat="59.9715823" lon="17.719426">
        <ele>23.209</ele>
        <time>2013-05-09T20:43:48Z</time>
      </trkpt>
      <trkpt lat="59.9716643" lon="17.7194968">
        <ele>23.209</ele>
        <time>2013-05-09T20:43:49Z</time>
      </trkpt>
      <trkpt lat="59.9717445" lon="17.7195679">
        <ele>23.209</ele>
        <time>2013-05-09T20:43:50Z</time>
      </trkpt>
      <trkpt lat="59.9718226" lon="17.7196419">
        <ele>22.7283</ele>
        <time>2013-05-09T20:43:51Z</time>
      </trkpt>
      <trkpt lat="59.971899" lon="17.7197148">
        <ele>22.7283</ele>
        <time>2013-05-09T20:43:52Z</time>
      </trkpt>
      <trkpt lat="59.971976" lon="17.7197847">
        <ele>22.7283</ele>
        <time>2013-05-09T20:43:53Z</time>
      </trkpt>
      <trkpt lat="59.9720533" lon="17.7198538">
        <ele>22.2476</ele>
        <time>2013-05-09T20:43:54Z</time>
      </trkpt>
      <trkpt lat="59.9721311" lon="17.7199241">
        <ele>22.2476</ele>
        <time>2013-05-09T20:43:55Z</time>
      </trkpt>
      <trkpt lat="59.9722097" lon="17.7199957">
        <ele>22.2476</ele>
        <time>2013-05-09T20:43:56Z</time>
      </trkpt>
      <trkpt lat="59.9722893" lon="17.7200683">
        <ele>22.2476</ele>
        <time>2013-05-09T20:43:57Z</time>
      </trkpt>
      <trkpt lat="59.9723696" lon="17.7201425">
        <ele>22.2476</ele>
        <time>2013-05-09T20:43:58Z</time>
      </trkpt>
      <trkpt lat="59.9724504" lon="17.7202175">
        <ele>21.767</ele>
        <time>2013-05-09T20:43:59Z</time>
      </trkpt>
      <trkpt lat="59.9725315" lon="17.720293">
        <ele>21.767</ele>
        <time>2013-05-09T20:44:00Z</time>
      </trkpt>
      <trkpt lat="59.9726122" lon="17.7203693">
        <ele>21.767</ele>
        <time>2013-05-09T20:44:01Z</time>
      </trkpt>
      <trkpt lat="59.9726924" lon="17.720448">
        <ele>21.767</ele>
        <time>2013-05-09T20:44:02Z</time>
      </trkpt>
      <trkpt lat="59.9727719" lon="17.7205324">
        <ele>21.2864</ele>
        <time>2013-05-09T20:44:03Z</time>
      </trkpt>
      <trkpt lat="59.9728506" lon="17.7206236">
        <ele>21.2864</ele>
        <time>2013-05-09T20:44:04Z</time>
      </trkpt>
      <trkpt lat="59.9729273" lon="17.7207193">
        <ele>21.2864</ele>
        <time>2013-05-09T20:44:05Z</time>
      </trkpt>
      <trkpt lat="59.9730019" lon="17.7208184">
        <ele>21.2864</ele>
        <time>2013-05-09T20:44:06Z</time>
      </trkpt>
      <trkpt lat="59.9730743" lon="17.720922">
        <ele>20.8057</ele>
        <time>2013-05-09T20:44:07Z</time>
      </trkpt>
      <trkpt lat="59.9731435" lon="17.7210306">
        <ele>20.8057</ele>
        <time>2013-05-09T20:44:08Z</time>
      </trkpt>
      <trkpt lat="59.97321" lon="17.7211433">
        <ele>20.8057</ele>
        <time>2013-05-09T20:44:09Z</time>
      </trkpt>
      <trkpt lat="59.9732747" lon="17.7212585">
        <ele>20.8057</ele>
        <time>2013-05-09T20:44:10Z</time>
      </trkpt>
      <trkpt lat="59.9733364" lon="17.7213764">
        <ele>20.8057</ele>
        <time>2013-05-09T20:44:11Z</time>
      </trkpt>
      <trkpt lat="59.9733965" lon="17.7214981">
        <ele>20.325</ele>
        <time>2013-05-09T20:44:12Z</time>
      </trkpt>
      <trkpt lat="59.9734553" lon="17.7216249">
        <ele>20.325</ele>
        <time>2013-05-09T20:44:13Z</time>
      </trkpt>
      <trkpt lat="59.9735129" lon="17.7217571">
        <ele>20.325</ele>
        <time>2013-05-09T20:44:14Z</time>
      </trkpt>
      <trkpt lat="59.9735682" lon="17.7218952">
        <ele>20.325</ele>
        <time>2013-05-09T20:44:15Z</time>
      </trkpt>
      <trkpt lat="59.9736208" lon="17.7220393">
        <ele>19.8444</ele>
        <time>2013-05-09T20:44:16Z</time>
      </trkpt>
      <trkpt lat="59.9736719" lon="17.7221876">
        <ele>19.8444</ele>
        <time>2013-05-09T20:44:17Z</time>
      </trkpt>
      <trkpt lat="59.9737207" lon="17.7223393">
        <ele>19.8444</ele>
        <time>2013-05-09T20:44:18Z</time>
      </trkpt>
      <trkpt lat="59.973767" lon="17.722495">
        <ele>19.8444</ele>
        <time>2013-05-09T20:44:19Z</time>
      </trkpt>
      <trkpt lat="59.9738109" lon="17.7226516">
        <ele>19.8444</ele>
        <time>2013-05-09T20:44:20Z</time>
      </trkpt>
      <trkpt lat="59.9738518" lon="17.7228073">
        <ele>19.8444</ele>
        <time>2013-05-09T20:44:21Z</time>
      </trkpt>
      <trkpt lat="59.9738895" lon="17.7229617">
        <ele>19.8444</ele>
        <time>2013-05-09T20:44:22Z</time>
      </trkpt>
      <trkpt lat="59.9739233" lon="17.7231161">
        <ele>19.8444</ele>
        <time>2013-05-09T20:44:23Z</time>
      </trkpt>
      <trkpt lat="59.9739533" lon="17.7232714">
        <ele>19.8444</ele>
        <time>2013-05-09T20:44:24Z</time>
      </trkpt>
      <trkpt lat="59.9739808" lon="17.723427">
        <ele>20.325</ele>
        <time>2013-05-09T20:44:25Z</time>
      </trkpt>
      <trkpt lat="59.9740068" lon="17.7235826">
        <ele>20.325</ele>
        <time>2013-05-09T20:44:26Z</time>
      </trkpt>
      <trkpt lat="59.9740313" lon="17.7237385">
        <ele>20.325</ele>
        <time>2013-05-09T20:44:27Z</time>
      </trkpt>
      <trkpt lat="59.9740548" lon="17.7238949">
        <ele>20.325</ele>
        <time>2013-05-09T20:44:28Z</time>
      </trkpt>
      <trkpt lat="59.9740777" lon="17.7240513">
        <ele>20.8057</ele>
        <time>2013-05-09T20:44:29Z</time>
      </trkpt>
      <trkpt lat="59.9740999" lon="17.724207">
        <ele>20.8057</ele>
        <time>2013-05-09T20:44:30Z</time>
      </trkpt>
      <trkpt lat="59.974122" lon="17.7243624">
        <ele>20.8057</ele>
        <time>2013-05-09T20:44:31Z</time>
      </trkpt>
      <trkpt lat="59.974144" lon="17.7245176">
        <ele>20.8057</ele>
        <time>2013-05-09T20:44:32Z</time>
      </trkpt>
      <trkpt lat="59.9741666" lon="17.7246734">
        <ele>20.8057</ele>
        <time>2013-05-09T20:44:33Z</time>
      </trkpt>
      <trkpt lat="59.9741895" lon="17.7248282">
        <ele>20.8057</ele>
        <time>2013-05-09T20:44:34Z</time>
      </trkpt>
      <trkpt lat="59.9742114" lon="17.7249816">
        <ele>21.2864</ele>
        <time>2013-05-09T20:44:35Z</time>
      </trkpt>
      <trkpt lat="59.9742319" lon="17.7251355">
        <ele>21.2864</ele>
        <time>2013-05-09T20:44:36Z</time>
      </trkpt>
      <trkpt lat="59.9742505" lon="17.7252893">
        <ele>21.2864</ele>
        <time>2013-05-09T20:44:37Z</time>
      </trkpt>
      <trkpt lat="59.9742677" lon="17.7254442">
        <ele>21.2864</ele>
        <time>2013-05-09T20:44:38Z</time>
      </trkpt>
      <trkpt lat="59.9742823" lon="17.7255994">
        <ele>21.2864</ele>
        <time>2013-05-09T20:44:39Z</time>
      </trkpt>
      <trkpt lat="59.9742953" lon="17.7257554">
        <ele>21.2864</ele>
        <time>2013-05-09T20:44:40Z</time>
      </trkpt>
      <trkpt lat="59.9743082" lon="17.7259119">
        <ele>21.2864</ele>
        <time>2013-05-09T20:44:41Z</time>
      </trkpt>
      <trkpt lat="59.97432" lon="17.7260697">
        <ele>21.2864</ele>
        <time>2013-05-09T20:44:42Z</time>
      </trkpt>
      <trkpt lat="59.9743303" lon="17.7262347">
        <ele>21.767</ele>
        <time>2013-05-09T20:44:43Z</time>
      </trkpt>
      <trkpt lat="59.9743352" lon="17.7263978">
        <ele>22.2476</ele>
        <time>2013-05-09T20:44:44Z</time>
      </trkpt>
      <trkpt lat="59.9743385" lon="17.7265635">
        <ele>22.7283</ele>
        <time>2013-05-09T20:44:45Z</time>
      </trkpt>
      <trkpt lat="59.9743414" lon="17.7267247">
        <ele>22.7283</ele>
        <time>2013-05-09T20:44:46Z</time>
      </trkpt>
      <trkpt lat="59.9743454" lon="17.7268822">
        <ele>22.7283</ele>
        <time>2013-05-09T20:44:47Z</time>
      </trkpt>
      <trkpt lat="59.9743511" lon="17.7270402">
        <ele>23.209</ele>
        <time>2013-05-09T20:44:48Z</time>
      </trkpt>
      <trkpt lat="59.9743551" lon="17.7271982">
        <ele>23.6896</ele>
        <time>2013-05-09T20:44:49Z</time>
      </trkpt>
      <trkpt lat="59.9743579" lon="17.7273556">
        <ele>23.6896</ele>
        <time>2013-05-09T20:44:50Z</time>
      </trkpt>
      <trkpt lat="59.9743624" lon="17.7275115">
        <ele>23.6896</ele>
        <time>2013-05-09T20:44:51Z</time>
      </trkpt>
      <trkpt lat="59.9743671" lon="17.7276654">
        <ele>23.6896</ele>
        <time>2013-05-09T20:44:52Z</time>
      </trkpt>
      <trkpt lat="59.9743715" lon="17.7278201">
        <ele>23.6896</ele>
        <time>2013-05-09T20:44:53Z</time>
      </trkpt>
      <trkpt lat="59.974376" lon="17.7279767">
        <ele>24.1703</ele>
        <time>2013-05-09T20:44:54Z</time>
      </trkpt>
      <trkpt lat="59.9743801" lon="17.7281352">
        <ele>24.1703</ele>
        <time>2013-05-09T20:44:55Z</time>
      </trkpt>
      <trkpt lat="59.9743847" lon="17.7282913">
        <ele>24.1703</ele>
        <time>2013-05-09T20:44:56Z</time>
      </trkpt>
      <trkpt lat="59.974391" lon="17.7284471">
        <ele>24.651</ele>
        <time>2013-05-09T20:44:57Z</time>
      </trkpt>
      <trkpt lat="59.9743997" lon="17.7286028">
        <ele>24.651</ele>
        <time>2013-05-09T20:44:58Z</time>
      </trkpt>
      <trkpt lat="59.9744092" lon="17.7287532">
        <ele>24.651</ele>
        <time>2013-05-09T20:44:59Z</time>
      </trkpt>
      <trkpt lat="59.9744163" lon="17.7289019">
        <ele>25.1317</ele>
        <time>2013-05-09T20:45:00Z</time>
      </trkpt>
      <trkpt lat="59.9744199" lon="17.7290445">
        <ele>25.1317</ele>
        <time>2013-05-09T20:45:01Z</time>
      </trkpt>
      <trkpt lat="59.9744227" lon="17.7291882">
        <ele>25.1317</ele>
        <time>2013-05-09T20:45:02Z</time>
      </trkpt>
      <trkpt lat="59.9744231" lon="17.7293344">
        <ele>24.651</ele>
        <time>2013-05-09T20:45:03Z</time>
      </trkpt>
      <trkpt lat="59.9744188" lon="17.7294831">
        <ele>24.651</ele>
        <time>2013-05-09T20:45:04Z</time>
      </trkpt>
      <trkpt lat="59.9744113" lon="17.729635">
        <ele>24.651</ele>
        <time>2013-05-09T20:45:05Z</time>
      </trkpt>
      <trkpt lat="59.9744025" lon="17.7297887">
        <ele>24.651</ele>
        <time>2013-05-09T20:45:06Z</time>
      </trkpt>
      <trkpt lat="59.9743922" lon="17.7299431">
        <ele>24.651</ele>
        <time>2013-05-09T20:45:07Z</time>
      </trkpt>
      <trkpt lat="59.9743796" lon="17.7300964">
        <ele>24.651</ele>
        <time>2013-05-09T20:45:08Z</time>
      </trkpt>
      <trkpt lat="59.9743663" lon="17.7302529">
        <ele>24.651</ele>
        <time>2013-05-09T20:45:09Z</time>
      </trkpt>
      <trkpt lat="59.9743535" lon="17.730412">
        <ele>24.1703</ele>
        <time>2013-05-09T20:45:10Z</time>
      </trkpt>
      <trkpt lat="59.974342" lon="17.7305741">
        <ele>24.1703</ele>
        <time>2013-05-09T20:45:11Z</time>
      </trkpt>
      <trkpt lat="59.9743321" lon="17.7307346">
        <ele>24.1703</ele>
        <time>2013-05-09T20:45:12Z</time>
      </trkpt>
      <trkpt lat="59.9743235" lon="17.7308905">
        <ele>24.1703</ele>
        <time>2013-05-09T20:45:13Z</time>
      </trkpt>
      <trkpt lat="59.9743161" lon="17.7310422">
        <ele>24.1703</ele>
        <time>2013-05-09T20:45:14Z</time>
      </trkpt>
      <trkpt lat="59.9743101" lon="17.7311897">
        <ele>24.1703</ele>
        <time>2013-05-09T20:45:15Z</time>
      </trkpt>
      <trkpt lat="59.9743054" lon="17.731334">
        <ele>24.1703</ele>
        <time>2013-05-09T20:45:16Z</time>
      </trkpt>
      <trkpt lat="59.974302" lon="17.7314754">
        <ele>24.1703</ele>
        <time>2013-05-09T20:45:17Z</time>
      </trkpt>
      <trkpt lat="59.9742994" lon="17.7316133">
        <ele>24.1703</ele>
        <time>2013-05-09T20:45:18Z</time>
      </trkpt>
      <trkpt lat="59.9742981" lon="17.7317477">
        <ele>24.1703</ele>
        <time>2013-05-09T20:45:19Z</time>
      </trkpt>
      <trkpt lat="59.9742982" lon="17.731882">
        <ele>24.1703</ele>
        <time>2013-05-09T20:45:20Z</time>
      </trkpt>
      <trkpt lat="59.9742993" lon="17.7320196">
        <ele>24.651</ele>
        <time>2013-05-09T20:45:21Z</time>
      </trkpt>
      <trkpt lat="59.9743017" lon="17.7321613">
        <ele>24.651</ele>
        <time>2013-05-09T20:45:22Z</time>
      </trkpt>
      <trkpt lat="59.9743055" lon="17.7323011">
        <ele>24.651</ele>
        <time>2013-05-09T20:45:23Z</time>
      </trkpt>
      <trkpt lat="59.9743113" lon="17.7324424">
        <ele>24.651</ele>
        <time>2013-05-09T20:45:24Z</time>
      </trkpt>
      <trkpt lat="59.9743178" lon="17.7325812">
        <ele>24.1703</ele>
        <time>2013-05-09T20:45:25Z</time>
      </trkpt>
      <trkpt lat="59.9743237" lon="17.7327156">
        <ele>24.651</ele>
        <time>2013-05-09T20:45:26Z</time>
      </trkpt>
      <trkpt lat="59.974323" lon="17.732846">
        <ele>24.651</ele>
        <time>2013-05-09T20:45:27Z</time>
      </trkpt>
      <trkpt lat="59.9743159" lon="17.732974">
        <ele>24.1703</ele>
        <time>2013-05-09T20:45:28Z</time>
      </trkpt>
      <trkpt lat="59.9743081" lon="17.7331013">
        <ele>23.6896</ele>
        <time>2013-05-09T20:45:29Z</time>
      </trkpt>
      <trkpt lat="59.9743012" lon="17.7332299">
        <ele>23.6896</ele>
        <time>2013-05-09T20:45:30Z</time>
      </trkpt>
      <trkpt lat="59.9742953" lon="17.7333624">
        <ele>23.6896</ele>
        <time>2013-05-09T20:45:31Z</time>
      </trkpt>
      <trkpt lat="59.9742888" lon="17.7334978">
        <ele>23.6896</ele>
        <time>2013-05-09T20:45:32Z</time>
      </trkpt>
      <trkpt lat="59.9742828" lon="17.7336348">
        <ele>23.209</ele>
        <time>2013-05-09T20:45:33Z</time>
      </trkpt>
      <trkpt lat="59.974278" lon="17.7337733">
        <ele>23.6896</ele>
        <time>2013-05-09T20:45:34Z</time>
      </trkpt>
      <trkpt lat="59.9742712" lon="17.7339119">
        <ele>23.209</ele>
        <time>2013-05-09T20:45:35Z</time>
      </trkpt>
      <trkpt lat="59.9742634" lon="17.734054">
        <ele>23.209</ele>
        <time>2013-05-09T20:45:36Z</time>
      </trkpt>
      <trkpt lat="59.9742554" lon="17.7341996">
        <ele>23.209</ele>
        <time>2013-05-09T20:45:37Z</time>
      </trkpt>
      <trkpt lat="59.97425" lon="17.7343447">
        <ele>23.209</ele>
        <time>2013-05-09T20:45:38Z</time>
      </trkpt>
      <trkpt lat="59.974249" lon="17.7344843">
        <ele>23.209</ele>
        <time>2013-05-09T20:45:39Z</time>
      </trkpt>
      <trkpt lat="59.974252" lon="17.7346207">
        <ele>23.209</ele>
        <time>2013-05-09T20:45:40Z</time>
      </trkpt>
      <trkpt lat="59.9742563" lon="17.7347548">
        <ele>23.209</ele>
        <time>2013-05-09T20:45:41Z</time>
      </trkpt>
      <trkpt lat="59.9742631" lon="17.7348828">
        <ele>23.6896</ele>
        <time>2013-05-09T20:45:42Z</time>
      </trkpt>
      <trkpt lat="59.9742727" lon="17.7350092">
        <ele>24.1703</ele>
        <time>2013-05-09T20:45:43Z</time>
      </trkpt>
      <trkpt lat="59.9742847" lon="17.7351372">
        <ele>24.651</ele>
        <time>2013-05-09T20:45:44Z</time>
      </trkpt>
      <trkpt lat="59.9742942" lon="17.7352574">
        <ele>24.1703</ele>
        <time>2013-05-09T20:45:45Z</time>
      </trkpt>
      <trkpt lat="59.9743065" lon="17.7353812">
        <ele>24.1703</ele>
        <time>2013-05-09T20:45:46Z</time>
      </trkpt>
      <trkpt lat="59.9743202" lon="17.7355058">
        <ele>24.1703</ele>
        <time>2013-05-09T20:45:47Z</time>
      </trkpt>
      <trkpt lat="59.9743362" lon="17.7356319">
        <ele>23.6896</ele>
        <time>2013-05-09T20:45:48Z</time>
      </trkpt>
      <trkpt lat="59.9743543" lon="17.7357591">
        <ele>23.6896</ele>
        <time>2013-05-09T20:45:49Z</time>
      </trkpt>
      <trkpt lat="59.9743754" lon="17.7358898">
        <ele>24.1703</ele>
        <time>2013-05-09T20:45:50Z</time>
      </trkpt>
      <trkpt lat="59.974401" lon="17.7360223">
        <ele>24.1703</ele>
        <time>2013-05-09T20:45:51Z</time>
      </trkpt>
      <trkpt lat="59.974429" lon="17.7361534">
        <ele>24.1703</ele>
        <time>2013-05-09T20:45:52Z</time>
      </trkpt>
      <trkpt lat="59.9744594" lon="17.7362804">
        <ele>24.1703</ele>
        <time>2013-05-09T20:45:53Z</time>
      </trkpt>
      <trkpt lat="59.9744884" lon="17.7364017">
        <ele>24.1703</ele>
        <time>2013-05-09T20:45:54Z</time>
      </trkpt>
      <trkpt lat="59.9745149" lon="17.7365147">
        <ele>23.6896</ele>
        <time>2013-05-09T20:45:55Z</time>
      </trkpt>
      <trkpt lat="59.9745445" lon="17.7366211">
        <ele>23.6896</ele>
        <time>2013-05-09T20:45:56Z</time>
      </trkpt>
      <trkpt lat="59.9745775" lon="17.7367198">
        <ele>23.209</ele>
        <time>2013-05-09T20:45:57Z</time>
      </trkpt>
      <trkpt lat="59.974612" lon="17.736815">
        <ele>23.209</ele>
        <time>2013-05-09T20:45:58Z</time>
      </trkpt>
      <trkpt lat="59.9746463" lon="17.7369083">
        <ele>22.7283</ele>
        <time>2013-05-09T20:45:59Z</time>
      </trkpt>
      <trkpt lat="59.9746799" lon="17.7370003">
        <ele>22.7283</ele>
        <time>2013-05-09T20:46:00Z</time>
      </trkpt>
      <trkpt lat="59.9747138" lon="17.7370948">
        <ele>22.7283</ele>
        <time>2013-05-09T20:46:01Z</time>
      </trkpt>
      <trkpt lat="59.9747499" lon="17.7371897">
        <ele>22.7283</ele>
        <time>2013-05-09T20:46:02Z</time>
      </trkpt>
      <trkpt lat="59.974788" lon="17.7372848">
        <ele>23.209</ele>
        <time>2013-05-09T20:46:03Z</time>
      </trkpt>
      <trkpt lat="59.9748282" lon="17.7373791">
        <ele>23.209</ele>
        <time>2013-05-09T20:46:04Z</time>
      </trkpt>
      <trkpt lat="59.9748708" lon="17.7374722">
        <ele>23.209</ele>
        <time>2013-05-09T20:46:05Z</time>
      </trkpt>
      <trkpt lat="59.9749158" lon="17.7375635">
        <ele>23.209</ele>
        <time>2013-05-09T20:46:06Z</time>
      </trkpt>
      <trkpt lat="59.9749646" lon="17.7376486">
        <ele>23.209</ele>
        <time>2013-05-09T20:46:07Z</time>
      </trkpt>
      <trkpt lat="59.9750151" lon="17.7377333">
        <ele>23.209</ele>
        <time>2013-05-09T20:46:08Z</time>
      </trkpt>
      <trkpt lat="59.975064" lon="17.7378169">
        <ele>23.209</ele>
        <time>2013-05-09T20:46:09Z</time>
      </trkpt>
      <trkpt lat="59.9751121" lon="17.7378986">
        <ele>23.209</ele>
        <time>2013-05-09T20:46:10Z</time>
      </trkpt>
      <trkpt lat="59.9751608" lon="17.7379755">
        <ele>22.7283</ele>
        <time>2013-05-09T20:46:11Z</time>
      </trkpt>
      <trkpt lat="59.9752095" lon="17.7380505">
        <ele>22.7283</ele>
        <time>2013-05-09T20:46:12Z</time>
      </trkpt>
      <trkpt lat="59.9752557" lon="17.7381282">
        <ele>22.7283</ele>
        <time>2013-05-09T20:46:13Z</time>
      </trkpt>
      <trkpt lat="59.9753017" lon="17.7382095">
        <ele>22.7283</ele>
        <time>2013-05-09T20:46:14Z</time>
      </trkpt>
      <trkpt lat="59.9753504" lon="17.7382938">
        <ele>22.7283</ele>
        <time>2013-05-09T20:46:15Z</time>
      </trkpt>
      <trkpt lat="59.975401" lon="17.7383805">
        <ele>22.2476</ele>
        <time>2013-05-09T20:46:16Z</time>
      </trkpt>
      <trkpt lat="59.9754528" lon="17.7384705">
        <ele>22.2476</ele>
        <time>2013-05-09T20:46:17Z</time>
      </trkpt>
      <trkpt lat="59.9755062" lon="17.7385637">
        <ele>22.2476</ele>
        <time>2013-05-09T20:46:18Z</time>
      </trkpt>
      <trkpt lat="59.9755592" lon="17.7386628">
        <ele>22.7283</ele>
        <time>2013-05-09T20:46:19Z</time>
      </trkpt>
      <trkpt lat="59.9756119" lon="17.7387669">
        <ele>22.7283</ele>
        <time>2013-05-09T20:46:20Z</time>
      </trkpt>
      <trkpt lat="59.9756648" lon="17.73887">
        <ele>22.7283</ele>
        <time>2013-05-09T20:46:21Z</time>
      </trkpt>
      <trkpt lat="59.9757166" lon="17.7389633">
        <ele>22.7283</ele>
        <time>2013-05-09T20:46:22Z</time>
      </trkpt>
      <trkpt lat="59.9757679" lon="17.7390487">
        <ele>22.2476</ele>
        <time>2013-05-09T20:46:23Z</time>
      </trkpt>
      <trkpt lat="59.9758162" lon="17.739132">
        <ele>22.2476</ele>
        <time>2013-05-09T20:46:24Z</time>
      </trkpt>
      <trkpt lat="59.9758633" lon="17.7392145">
        <ele>22.2476</ele>
        <time>2013-05-09T20:46:25Z</time>
      </trkpt>
      <trkpt lat="59.9759099" lon="17.7392933">
        <ele>22.2476</ele>
        <time>2013-05-09T20:46:26Z</time>
      </trkpt>
      <trkpt lat="59.9759549" lon="17.7393707">
        <ele>22.7283</ele>
        <time>2013-05-09T20:46:27Z</time>
      </trkpt>
      <trkpt lat="59.9759995" lon="17.7394433">
        <ele>22.7283</ele>
        <time>2013-05-09T20:46:28Z</time>
      </trkpt>
      <trkpt lat="59.9760443" lon="17.7395118">
        <ele>23.209</ele>
        <time>2013-05-09T20:46:29Z</time>
      </trkpt>
      <trkpt lat="59.9760868" lon="17.739574">
        <ele>23.6896</ele>
        <time>2013-05-09T20:46:30Z</time>
      </trkpt>
      <trkpt lat="59.9761296" lon="17.7396238">
        <ele>24.1703</ele>
        <time>2013-05-09T20:46:31Z</time>
      </trkpt>
      <trkpt lat="59.9761756" lon="17.7396621">
        <ele>24.1703</ele>
        <time>2013-05-09T20:46:32Z</time>
      </trkpt>
      <trkpt lat="59.976222" lon="17.7396903">
        <ele>24.651</ele>
        <time>2013-05-09T20:46:33Z</time>
      </trkpt>
      <trkpt lat="59.9762698" lon="17.7396999">
        <ele>25.1317</ele>
        <time>2013-05-09T20:46:34Z</time>
      </trkpt>
      <trkpt lat="59.9763176" lon="17.73969">
        <ele>25.1317</ele>
        <time>2013-05-09T20:46:35Z</time>
      </trkpt>
      <trkpt lat="59.9763627" lon="17.739662">
        <ele>25.1317</ele>
        <time>2013-05-09T20:46:36Z</time>
      </trkpt>
      <trkpt lat="59.9764076" lon="17.7396216">
        <ele>25.1317</ele>
        <time>2013-05-09T20:46:37Z</time>
      </trkpt>
      <trkpt lat="59.9764536" lon="17.7395759">
        <ele>25.6123</ele>
        <time>2013-05-09T20:46:38Z</time>
      </trkpt>
      <trkpt lat="59.9764992" lon="17.7395278">
        <ele>25.6123</ele>
        <time>2013-05-09T20:46:39Z</time>
      </trkpt>
      <trkpt lat="59.9765453" lon="17.7394852">
        <ele>26.0929</ele>
        <time>2013-05-09T20:46:40Z</time>
      </trkpt>
      <trkpt lat="59.9765935" lon="17.7394443">
        <ele>26.0929</ele>
        <time>2013-05-09T20:46:41Z</time>
      </trkpt>
      <trkpt lat="59.9766427" lon="17.7394113">
        <ele>26.0929</ele>
        <time>2013-05-09T20:46:42Z</time>
      </trkpt>
      <trkpt lat="59.9766891" lon="17.739387">
        <ele>26.5736</ele>
        <time>2013-05-09T20:46:43Z</time>
      </trkpt>
      <trkpt lat="59.9767344" lon="17.7393673">
        <ele>27.0543</ele>
        <time>2013-05-09T20:46:44Z</time>
      </trkpt>
      <trkpt lat="59.976777" lon="17.7393517">
        <ele>27.0543</ele>
        <time>2013-05-09T20:46:45Z</time>
      </trkpt>
      <trkpt lat="59.9768165" lon="17.7393378">
        <ele>27.5349</ele>
        <time>2013-05-09T20:46:46Z</time>
      </trkpt>
      <trkpt lat="59.9768522" lon="17.739319">
        <ele>27.5349</ele>
        <time>2013-05-09T20:46:47Z</time>
      </trkpt>
      <trkpt lat="59.9768889" lon="17.7393002">
        <ele>28.0155</ele>
        <time>2013-05-09T20:46:48Z</time>
      </trkpt>
      <trkpt lat="59.9769276" lon="17.7392791">
        <ele>28.4962</ele>
        <time>2013-05-09T20:46:49Z</time>
      </trkpt>
      <trkpt lat="59.9769692" lon="17.7392581">
        <ele>28.9769</ele>
        <time>2013-05-09T20:46:50Z</time>
      </trkpt>
      <trkpt lat="59.9770086" lon="17.7392367">
        <ele>28.9769</ele>
        <time>2013-05-09T20:46:51Z</time>
      </trkpt>
      <trkpt lat="59.9770499" lon="17.7392145">
        <ele>28.9769</ele>
        <time>2013-05-09T20:46:52Z</time>
      </trkpt>
      <trkpt lat="59.9770946" lon="17.7391932">
        <ele>29.4575</ele>
        <time>2013-05-09T20:46:53Z</time>
      </trkpt>
      <trkpt lat="59.9771397" lon="17.7391713">
        <ele>29.9381</ele>
        <time>2013-05-09T20:46:54Z</time>
      </trkpt>
      <trkpt lat="59.9771834" lon="17.739145">
        <ele>29.9381</ele>
        <time>2013-05-09T20:46:55Z</time>
      </trkpt>
      <trkpt lat="59.9772265" lon="17.7391196">
        <ele>30.4188</ele>
        <time>2013-05-09T20:46:56Z</time>
      </trkpt>
      <trkpt lat="59.9772686" lon="17.7390974">
        <ele>30.4188</ele>
        <time>2013-05-09T20:46:57Z</time>
      </trkpt>
      <trkpt lat="59.9773083" lon="17.7390793">
        <ele>30.4188</ele>
        <time>2013-05-09T20:46:58Z</time>
      </trkpt>
      <trkpt lat="59.97735" lon="17.7390614">
        <ele>30.4188</ele>
        <time>2013-05-09T20:46:59Z</time>
      </trkpt>
      <trkpt lat="59.9773945" lon="17.7390414">
        <ele>30.8995</ele>
        <time>2013-05-09T20:47:00Z</time>
      </trkpt>
      <trkpt lat="59.9774369" lon="17.7390247">
        <ele>31.3801</ele>
        <time>2013-05-09T20:47:01Z</time>
      </trkpt>
      <trkpt lat="59.9774784" lon="17.7390114">
        <ele>31.3801</ele>
        <time>2013-05-09T20:47:02Z</time>
      </trkpt>
      <trkpt lat="59.9775208" lon="17.7389995">
        <ele>32.3416</ele>
        <time>2013-05-09T20:47:03Z</time>
      </trkpt>
      <trkpt lat="59.9775585" lon="17.738992">
        <ele>32.3416</ele>
        <time>2013-05-09T20:47:04Z</time>
      </trkpt>
      <trkpt lat="59.9775968" lon="17.7389886">
        <ele>32.3416</ele>
        <time>2013-05-09T20:47:05Z</time>
      </trkpt>
      <trkpt lat="59.9776359" lon="17.7389903">
        <ele>32.8223</ele>
        <time>2013-05-09T20:47:06Z</time>
      </trkpt>
      <trkpt lat="59.9776757" lon="17.7389953">
        <ele>33.3029</ele>
        <time>2013-05-09T20:47:07Z</time>
      </trkpt>
      <trkpt lat="59.9777124" lon="17.7390009">
        <ele>33.3029</ele>
        <time>2013-05-09T20:47:08Z</time>
      </trkpt>
      <trkpt lat="59.9777501" lon="17.7390091">
        <ele>33.7834</ele>
        <time>2013-05-09T20:47:09Z</time>
      </trkpt>
      <trkpt lat="59.9777882" lon="17.7390206">
        <ele>33.7834</ele>
        <time>2013-05-09T20:47:10Z</time>
      </trkpt>
      <trkpt lat="59.9778263" lon="17.7390388">
        <ele>33.7834</ele>
        <time>2013-05-09T20:47:11Z</time>
      </trkpt>
      <trkpt lat="59.9778659" lon="17.7390619">
        <ele>34.2642</ele>
        <time>2013-05-09T20:47:12Z</time>
      </trkpt>
      <trkpt lat="59.9779058" lon="17.739084">
        <ele>34.7449</ele>
        <time>2013-05-09T20:47:13Z</time>
      </trkpt>
      <trkpt lat="59.9779446" lon="17.7391039">
        <ele>35.2255</ele>
        <time>2013-05-09T20:47:14Z</time>
      </trkpt>
      <trkpt lat="59.9779835" lon="17.7391207">
        <ele>35.7061</ele>
        <time>2013-05-09T20:47:15Z</time>
      </trkpt>
      <trkpt lat="59.9780234" lon="17.7391343">
        <ele>35.7061</ele>
        <time>2013-05-09T20:47:16Z</time>
      </trkpt>
      <trkpt lat="59.9780631" lon="17.7391498">
        <ele>35.7061</ele>
        <time>2013-05-09T20:47:17Z</time>
      </trkpt>
      <trkpt lat="59.9781047" lon="17.7391678">
        <ele>36.1868</ele>
        <time>2013-05-09T20:47:18Z</time>
      </trkpt>
      <trkpt lat="59.9781462" lon="17.739183">
        <ele>36.1868</ele>
        <time>2013-05-09T20:47:19Z</time>
      </trkpt>
      <trkpt lat="59.978188" lon="17.7391956">
        <ele>36.1868</ele>
        <time>2013-05-09T20:47:20Z</time>
      </trkpt>
      <trkpt lat="59.9782311" lon="17.7392045">
        <ele>36.1868</ele>
        <time>2013-05-09T20:47:21Z</time>
      </trkpt>
      <trkpt lat="59.978275" lon="17.7392107">
        <ele>36.1868</ele>
        <time>2013-05-09T20:47:22Z</time>
      </trkpt>
      <trkpt lat="59.9783196" lon="17.7392191">
        <ele>35.7061</ele>
        <time>2013-05-09T20:47:23Z</time>
      </trkpt>
      <trkpt lat="59.9783648" lon="17.7392316">
        <ele>35.7061</ele>
        <time>2013-05-09T20:47:24Z</time>
      </trkpt>
      <trkpt lat="59.9784107" lon="17.7392427">
        <ele>35.7061</ele>
        <time>2013-05-09T20:47:25Z</time>
      </trkpt>
      <trkpt lat="59.978458" lon="17.7392502">
        <ele>35.2255</ele>
        <time>2013-05-09T20:47:26Z</time>
      </trkpt>
      <trkpt lat="59.9785047" lon="17.739257">
        <ele>35.2255</ele>
        <time>2013-05-09T20:47:27Z</time>
      </trkpt>
      <trkpt lat="59.9785546" lon="17.7392627">
        <ele>35.2255</ele>
        <time>2013-05-09T20:47:28Z</time>
      </trkpt>
      <trkpt lat="59.9786004" lon="17.7392714">
        <ele>34.2642</ele>
        <time>2013-05-09T20:47:29Z</time>
      </trkpt>
      <trkpt lat="59.9786495" lon="17.7392782">
        <ele>34.2642</ele>
        <time>2013-05-09T20:47:30Z</time>
      </trkpt>
    </trkseg>
  </trk>
</gpx>